<?xml version="1.0" encoding="UTF-8" standalone="no" ?>
<gpx xmlns="http://www.topografix.com/GPX/1/1" xmlns:xsi="http://www.w3.org/2001/XMLSchema-instance" xsi:schemaLocation="http://www.topografix.com/GPX/1/1 http://www.topografix.com/GPX/1/1/gpx.xsd" version="1.1" creator="VisuGPX - https://www.visugpx.com">
  <metadata>
    <name>Guillaumes clues d'Amen</name>
    <desc><![CDATA[A 2 jours d'intervalles faire les balcons du Cians à partir de Beuil (40km D+1700m) puis les Clues d'Amen à partir de Guillaume, c'est faire coup sur coup 2 randos top ten.
Paysages magnifiques, du pur VTT avec de la technique tout le long, pas uniquement en descente...à réserver aux initiés...
La montée se fait de Guillaume par la route vers Péone puis avant Péone sur le bord de route à droite la balise du sentier en traversant la rivière permet de rejoindre presqu'en haut la route de Valberg.
Au centre de la station longer à droite le telesiège des luges puis obliquer à droite pour rejoindre le wapiti Lake à contourner sens horaire pour rejoindre la piste de la tète du pommier. La seule difficulté est de trouver le chemin après la descente sur la piste on arrive à un petit col, le chemin démarre dans le virage puis reste à flan versant Est.]]></desc>
  </metadata>
  <trk>
    <name><![CDATA[Guillaumes Cyclisme]]></name>
    <trkseg>
      <trkpt lat="44.0889" lon="6.85412">
        <ele>799.40002441406</ele>
        <time>2019-08-03T07:50:11.000Z</time>
      </trkpt>
      <trkpt lat="44.08888" lon="6.85414">
        <ele>799.20001220703</ele>
        <time>2019-08-03T07:50:19.000Z</time>
      </trkpt>
      <trkpt lat="44.08888" lon="6.85413">
        <ele>799.79998779297</ele>
        <time>2019-08-03T07:50:27.000Z</time>
      </trkpt>
      <trkpt lat="44.08887" lon="6.85413">
        <ele>799.40002441406</ele>
        <time>2019-08-03T07:50:37.000Z</time>
      </trkpt>
      <trkpt lat="44.08885" lon="6.85413">
        <ele>799.59997558594</ele>
        <time>2019-08-03T07:51:03.000Z</time>
      </trkpt>
      <trkpt lat="44.08889" lon="6.85409">
        <ele>799.59997558594</ele>
        <time>2019-08-03T07:51:12.000Z</time>
      </trkpt>
      <trkpt lat="44.08897" lon="6.85406">
        <ele>799.79998779297</ele>
        <time>2019-08-03T07:51:17.000Z</time>
      </trkpt>
      <trkpt lat="44.08899" lon="6.85407">
        <ele>799.79998779297</ele>
        <time>2019-08-03T07:51:18.000Z</time>
      </trkpt>
      <trkpt lat="44.08904" lon="6.8542">
        <ele>800.20001220703</ele>
        <time>2019-08-03T07:51:24.000Z</time>
      </trkpt>
      <trkpt lat="44.08907" lon="6.85426">
        <ele>800.59997558594</ele>
        <time>2019-08-03T07:51:27.000Z</time>
      </trkpt>
      <trkpt lat="44.0891" lon="6.85432">
        <ele>800.79998779297</ele>
        <time>2019-08-03T07:51:30.000Z</time>
      </trkpt>
      <trkpt lat="44.08912" lon="6.85433">
        <ele>800.79998779297</ele>
        <time>2019-08-03T07:51:31.000Z</time>
      </trkpt>
      <trkpt lat="44.08914" lon="6.8544">
        <ele>801.20001220703</ele>
        <time>2019-08-03T07:51:34.000Z</time>
      </trkpt>
      <trkpt lat="44.08918" lon="6.85449">
        <ele>801.59997558594</ele>
        <time>2019-08-03T07:51:38.000Z</time>
      </trkpt>
      <trkpt lat="44.08921" lon="6.85456">
        <ele>802</ele>
        <time>2019-08-03T07:51:41.000Z</time>
      </trkpt>
      <trkpt lat="44.0893" lon="6.85472">
        <ele>802.59997558594</ele>
        <time>2019-08-03T07:51:48.000Z</time>
      </trkpt>
      <trkpt lat="44.08936" lon="6.85481">
        <ele>803.20001220703</ele>
        <time>2019-08-03T07:51:53.000Z</time>
      </trkpt>
      <trkpt lat="44.08936" lon="6.85484">
        <ele>803.40002441406</ele>
        <time>2019-08-03T07:51:54.000Z</time>
      </trkpt>
      <trkpt lat="44.08936" lon="6.85488">
        <ele>803.40002441406</ele>
        <time>2019-08-03T07:51:55.000Z</time>
      </trkpt>
      <trkpt lat="44.08936" lon="6.8549">
        <ele>803.59997558594</ele>
        <time>2019-08-03T07:51:56.000Z</time>
      </trkpt>
      <trkpt lat="44.08939" lon="6.85495">
        <ele>803.79998779297</ele>
        <time>2019-08-03T07:51:58.000Z</time>
      </trkpt>
      <trkpt lat="44.0895" lon="6.85518">
        <ele>804.59997558594</ele>
        <time>2019-08-03T07:52:07.000Z</time>
      </trkpt>
      <trkpt lat="44.08951" lon="6.8552">
        <ele>804.79998779297</ele>
        <time>2019-08-03T07:52:08.000Z</time>
      </trkpt>
      <trkpt lat="44.08957" lon="6.85536">
        <ele>805.59997558594</ele>
        <time>2019-08-03T07:52:15.000Z</time>
      </trkpt>
      <trkpt lat="44.08957" lon="6.85536">
        <ele>805.79998779297</ele>
        <time>2019-08-03T07:52:17.000Z</time>
      </trkpt>
      <trkpt lat="44.08957" lon="6.85536">
        <ele>805.59997558594</ele>
        <time>2019-08-03T07:52:22.000Z</time>
      </trkpt>
      <trkpt lat="44.0896" lon="6.85541">
        <ele>805.79998779297</ele>
        <time>2019-08-03T07:52:27.000Z</time>
      </trkpt>
      <trkpt lat="44.08971" lon="6.85563">
        <ele>806.79998779297</ele>
        <time>2019-08-03T07:52:36.000Z</time>
      </trkpt>
      <trkpt lat="44.08972" lon="6.85565">
        <ele>806.79998779297</ele>
        <time>2019-08-03T07:52:37.000Z</time>
      </trkpt>
      <trkpt lat="44.08982" lon="6.85585">
        <ele>807.79998779297</ele>
        <time>2019-08-03T07:52:45.000Z</time>
      </trkpt>
      <trkpt lat="44.08984" lon="6.85591">
        <ele>808</ele>
        <time>2019-08-03T07:52:47.000Z</time>
      </trkpt>
      <trkpt lat="44.08994" lon="6.85612">
        <ele>809</ele>
        <time>2019-08-03T07:52:55.000Z</time>
      </trkpt>
      <trkpt lat="44.08995" lon="6.85614">
        <ele>809.20001220703</ele>
        <time>2019-08-03T07:52:56.000Z</time>
      </trkpt>
      <trkpt lat="44.09002" lon="6.85633">
        <ele>810</ele>
        <time>2019-08-03T07:53:03.000Z</time>
      </trkpt>
      <trkpt lat="44.09003" lon="6.85636">
        <ele>810.20001220703</ele>
        <time>2019-08-03T07:53:04.000Z</time>
      </trkpt>
      <trkpt lat="44.09012" lon="6.85647">
        <ele>811.20001220703</ele>
        <time>2019-08-03T07:53:10.000Z</time>
      </trkpt>
      <trkpt lat="44.09023" lon="6.85657">
        <ele>812.40002441406</ele>
        <time>2019-08-03T07:53:17.000Z</time>
      </trkpt>
      <trkpt lat="44.0903" lon="6.85662">
        <ele>812.79998779297</ele>
        <time>2019-08-03T07:53:21.000Z</time>
      </trkpt>
      <trkpt lat="44.09038" lon="6.85667">
        <ele>813.40002441406</ele>
        <time>2019-08-03T07:53:25.000Z</time>
      </trkpt>
      <trkpt lat="44.09048" lon="6.85676">
        <ele>814.20001220703</ele>
        <time>2019-08-03T07:53:31.000Z</time>
      </trkpt>
      <trkpt lat="44.09052" lon="6.85679">
        <ele>814.59997558594</ele>
        <time>2019-08-03T07:53:33.000Z</time>
      </trkpt>
      <trkpt lat="44.09063" lon="6.85692">
        <ele>815.59997558594</ele>
        <time>2019-08-03T07:53:40.000Z</time>
      </trkpt>
      <trkpt lat="44.09064" lon="6.85695">
        <ele>815.59997558594</ele>
        <time>2019-08-03T07:53:41.000Z</time>
      </trkpt>
      <trkpt lat="44.09072" lon="6.8572">
        <ele>816.59997558594</ele>
        <time>2019-08-03T07:53:50.000Z</time>
      </trkpt>
      <trkpt lat="44.09072" lon="6.85723">
        <ele>816.59997558594</ele>
        <time>2019-08-03T07:53:51.000Z</time>
      </trkpt>
      <trkpt lat="44.09076" lon="6.85748">
        <ele>817.40002441406</ele>
        <time>2019-08-03T07:53:59.000Z</time>
      </trkpt>
      <trkpt lat="44.09077" lon="6.85757">
        <ele>817.79998779297</ele>
        <time>2019-08-03T07:54:02.000Z</time>
      </trkpt>
      <trkpt lat="44.0908" lon="6.85778">
        <ele>818.40002441406</ele>
        <time>2019-08-03T07:54:09.000Z</time>
      </trkpt>
      <trkpt lat="44.09082" lon="6.85787">
        <ele>818.79998779297</ele>
        <time>2019-08-03T07:54:12.000Z</time>
      </trkpt>
      <trkpt lat="44.09087" lon="6.85803">
        <ele>819.40002441406</ele>
        <time>2019-08-03T07:54:18.000Z</time>
      </trkpt>
      <trkpt lat="44.09091" lon="6.8581">
        <ele>820</ele>
        <time>2019-08-03T07:54:21.000Z</time>
      </trkpt>
      <trkpt lat="44.09092" lon="6.85811">
        <ele>820</ele>
        <time>2019-08-03T07:54:22.000Z</time>
      </trkpt>
      <trkpt lat="44.09093" lon="6.85813">
        <ele>820.20001220703</ele>
        <time>2019-08-03T07:54:23.000Z</time>
      </trkpt>
      <trkpt lat="44.09096" lon="6.85818">
        <ele>820.59997558594</ele>
        <time>2019-08-03T07:54:25.000Z</time>
      </trkpt>
      <trkpt lat="44.09096" lon="6.85824">
        <ele>821</ele>
        <time>2019-08-03T07:54:28.000Z</time>
      </trkpt>
      <trkpt lat="44.09095" lon="6.85829">
        <ele>821.20001220703</ele>
        <time>2019-08-03T07:54:29.000Z</time>
      </trkpt>
      <trkpt lat="44.0909" lon="6.8584">
        <ele>821.59997558594</ele>
        <time>2019-08-03T07:54:33.000Z</time>
      </trkpt>
      <trkpt lat="44.09088" lon="6.85842">
        <ele>821.79998779297</ele>
        <time>2019-08-03T07:54:34.000Z</time>
      </trkpt>
      <trkpt lat="44.09086" lon="6.85842">
        <ele>822</ele>
        <time>2019-08-03T07:54:35.000Z</time>
      </trkpt>
      <trkpt lat="44.0909" lon="6.85841">
        <ele>823.20001220703</ele>
        <time>2019-08-03T07:54:43.000Z</time>
      </trkpt>
      <trkpt lat="44.0909" lon="6.85841">
        <ele>823.40002441406</ele>
        <time>2019-08-03T07:54:44.000Z</time>
      </trkpt>
      <trkpt lat="44.09099" lon="6.85852">
        <ele>823.59997558594</ele>
        <time>2019-08-03T07:54:45.000Z</time>
      </trkpt>
      <trkpt lat="44.09106" lon="6.85863">
        <ele>823.79998779297</ele>
        <time>2019-08-03T07:54:47.000Z</time>
      </trkpt>
      <trkpt lat="44.09118" lon="6.85877">
        <ele>824.20001220703</ele>
        <time>2019-08-03T07:54:51.000Z</time>
      </trkpt>
      <trkpt lat="44.09124" lon="6.85891">
        <ele>824.59997558594</ele>
        <time>2019-08-03T07:54:55.000Z</time>
      </trkpt>
      <trkpt lat="44.09126" lon="6.85907">
        <ele>825.40002441406</ele>
        <time>2019-08-03T07:55:00.000Z</time>
      </trkpt>
      <trkpt lat="44.09126" lon="6.85913">
        <ele>825.79998779297</ele>
        <time>2019-08-03T07:55:02.000Z</time>
      </trkpt>
      <trkpt lat="44.09128" lon="6.85925">
        <ele>826.40002441406</ele>
        <time>2019-08-03T07:55:06.000Z</time>
      </trkpt>
      <trkpt lat="44.09131" lon="6.85944">
        <ele>827.40002441406</ele>
        <time>2019-08-03T07:55:12.000Z</time>
      </trkpt>
      <trkpt lat="44.09132" lon="6.8595">
        <ele>827.59997558594</ele>
        <time>2019-08-03T07:55:14.000Z</time>
      </trkpt>
      <trkpt lat="44.09134" lon="6.85971">
        <ele>828.79998779297</ele>
        <time>2019-08-03T07:55:21.000Z</time>
      </trkpt>
      <trkpt lat="44.09135" lon="6.85977">
        <ele>829</ele>
        <time>2019-08-03T07:55:23.000Z</time>
      </trkpt>
      <trkpt lat="44.09135" lon="6.85992">
        <ele>829.79998779297</ele>
        <time>2019-08-03T07:55:28.000Z</time>
      </trkpt>
      <trkpt lat="44.09133" lon="6.86006">
        <ele>830.59997558594</ele>
        <time>2019-08-03T07:55:33.000Z</time>
      </trkpt>
      <trkpt lat="44.09131" lon="6.86015">
        <ele>830.79998779297</ele>
        <time>2019-08-03T07:55:36.000Z</time>
      </trkpt>
      <trkpt lat="44.09126" lon="6.86034">
        <ele>832</ele>
        <time>2019-08-03T07:55:43.000Z</time>
      </trkpt>
      <trkpt lat="44.09119" lon="6.86051">
        <ele>833.20001220703</ele>
        <time>2019-08-03T07:55:50.000Z</time>
      </trkpt>
      <trkpt lat="44.09118" lon="6.86053">
        <ele>833.40002441406</ele>
        <time>2019-08-03T07:55:51.000Z</time>
      </trkpt>
      <trkpt lat="44.09114" lon="6.86066">
        <ele>834.20001220703</ele>
        <time>2019-08-03T07:55:56.000Z</time>
      </trkpt>
      <trkpt lat="44.09112" lon="6.8608">
        <ele>835</ele>
        <time>2019-08-03T07:56:01.000Z</time>
      </trkpt>
      <trkpt lat="44.09113" lon="6.86086">
        <ele>835.40002441406</ele>
        <time>2019-08-03T07:56:03.000Z</time>
      </trkpt>
      <trkpt lat="44.09118" lon="6.86105">
        <ele>836.20001220703</ele>
        <time>2019-08-03T07:56:10.000Z</time>
      </trkpt>
      <trkpt lat="44.09119" lon="6.86108">
        <ele>836.40002441406</ele>
        <time>2019-08-03T07:56:11.000Z</time>
      </trkpt>
      <trkpt lat="44.09121" lon="6.86129">
        <ele>837.40002441406</ele>
        <time>2019-08-03T07:56:18.000Z</time>
      </trkpt>
      <trkpt lat="44.09121" lon="6.86132">
        <ele>837.59997558594</ele>
        <time>2019-08-03T07:56:19.000Z</time>
      </trkpt>
      <trkpt lat="44.09119" lon="6.8615">
        <ele>838.59997558594</ele>
        <time>2019-08-03T07:56:25.000Z</time>
      </trkpt>
      <trkpt lat="44.09117" lon="6.86162">
        <ele>839.20001220703</ele>
        <time>2019-08-03T07:56:29.000Z</time>
      </trkpt>
      <trkpt lat="44.09114" lon="6.8617">
        <ele>839.79998779297</ele>
        <time>2019-08-03T07:56:32.000Z</time>
      </trkpt>
      <trkpt lat="44.09111" lon="6.8619">
        <ele>840.79998779297</ele>
        <time>2019-08-03T07:56:40.000Z</time>
      </trkpt>
      <trkpt lat="44.09112" lon="6.86211">
        <ele>841.79998779297</ele>
        <time>2019-08-03T07:56:47.000Z</time>
      </trkpt>
      <trkpt lat="44.09112" lon="6.86222">
        <ele>842.40002441406</ele>
        <time>2019-08-03T07:56:51.000Z</time>
      </trkpt>
      <trkpt lat="44.09112" lon="6.86231">
        <ele>843</ele>
        <time>2019-08-03T07:56:54.000Z</time>
      </trkpt>
      <trkpt lat="44.09116" lon="6.86252">
        <ele>844</ele>
        <time>2019-08-03T07:57:01.000Z</time>
      </trkpt>
      <trkpt lat="44.09118" lon="6.86275">
        <ele>845.20001220703</ele>
        <time>2019-08-03T07:57:09.000Z</time>
      </trkpt>
      <trkpt lat="44.09118" lon="6.86281">
        <ele>845.40002441406</ele>
        <time>2019-08-03T07:57:11.000Z</time>
      </trkpt>
      <trkpt lat="44.09117" lon="6.86296">
        <ele>846.20001220703</ele>
        <time>2019-08-03T07:57:16.000Z</time>
      </trkpt>
      <trkpt lat="44.09117" lon="6.86317">
        <ele>847.20001220703</ele>
        <time>2019-08-03T07:57:23.000Z</time>
      </trkpt>
      <trkpt lat="44.09115" lon="6.86344">
        <ele>848.40002441406</ele>
        <time>2019-08-03T07:57:32.000Z</time>
      </trkpt>
      <trkpt lat="44.09115" lon="6.86346">
        <ele>848.40002441406</ele>
        <time>2019-08-03T07:57:33.000Z</time>
      </trkpt>
      <trkpt lat="44.09113" lon="6.86367">
        <ele>849.40002441406</ele>
        <time>2019-08-03T07:57:40.000Z</time>
      </trkpt>
      <trkpt lat="44.09114" lon="6.86375">
        <ele>850</ele>
        <time>2019-08-03T07:57:43.000Z</time>
      </trkpt>
      <trkpt lat="44.09115" lon="6.86387">
        <ele>850.40002441406</ele>
        <time>2019-08-03T07:57:47.000Z</time>
      </trkpt>
      <trkpt lat="44.09119" lon="6.86397">
        <ele>851.20001220703</ele>
        <time>2019-08-03T07:57:51.000Z</time>
      </trkpt>
      <trkpt lat="44.09124" lon="6.86406">
        <ele>851.59997558594</ele>
        <time>2019-08-03T07:57:55.000Z</time>
      </trkpt>
      <trkpt lat="44.09134" lon="6.86418">
        <ele>852.20001220703</ele>
        <time>2019-08-03T07:58:01.000Z</time>
      </trkpt>
      <trkpt lat="44.0914" lon="6.86423">
        <ele>852.79998779297</ele>
        <time>2019-08-03T07:58:04.000Z</time>
      </trkpt>
      <trkpt lat="44.09153" lon="6.86433">
        <ele>853.79998779297</ele>
        <time>2019-08-03T07:58:11.000Z</time>
      </trkpt>
      <trkpt lat="44.09155" lon="6.86435">
        <ele>854</ele>
        <time>2019-08-03T07:58:12.000Z</time>
      </trkpt>
      <trkpt lat="44.09166" lon="6.86444">
        <ele>854.79998779297</ele>
        <time>2019-08-03T07:58:18.000Z</time>
      </trkpt>
      <trkpt lat="44.09178" lon="6.86454">
        <ele>855.59997558594</ele>
        <time>2019-08-03T07:58:24.000Z</time>
      </trkpt>
      <trkpt lat="44.09182" lon="6.86457">
        <ele>855.79998779297</ele>
        <time>2019-08-03T07:58:26.000Z</time>
      </trkpt>
      <trkpt lat="44.09197" lon="6.86472">
        <ele>856.79998779297</ele>
        <time>2019-08-03T07:58:34.000Z</time>
      </trkpt>
      <trkpt lat="44.09199" lon="6.86474">
        <ele>856.79998779297</ele>
        <time>2019-08-03T07:58:35.000Z</time>
      </trkpt>
      <trkpt lat="44.09214" lon="6.86493">
        <ele>857.79998779297</ele>
        <time>2019-08-03T07:58:43.000Z</time>
      </trkpt>
      <trkpt lat="44.09215" lon="6.86495">
        <ele>857.79998779297</ele>
        <time>2019-08-03T07:58:44.000Z</time>
      </trkpt>
      <trkpt lat="44.09225" lon="6.86513">
        <ele>858.59997558594</ele>
        <time>2019-08-03T07:58:51.000Z</time>
      </trkpt>
      <trkpt lat="44.09229" lon="6.86517">
        <ele>859</ele>
        <time>2019-08-03T07:58:53.000Z</time>
      </trkpt>
      <trkpt lat="44.09244" lon="6.86533">
        <ele>860</ele>
        <time>2019-08-03T07:59:01.000Z</time>
      </trkpt>
      <trkpt lat="44.09267" lon="6.86554">
        <ele>860.79998779297</ele>
        <time>2019-08-03T07:59:12.000Z</time>
      </trkpt>
      <trkpt lat="44.09269" lon="6.86556">
        <ele>861</ele>
        <time>2019-08-03T07:59:13.000Z</time>
      </trkpt>
      <trkpt lat="44.09288" lon="6.86569">
        <ele>862.20001220703</ele>
        <time>2019-08-03T07:59:21.000Z</time>
      </trkpt>
      <trkpt lat="44.09303" lon="6.86573">
        <ele>863.20001220703</ele>
        <time>2019-08-03T07:59:27.000Z</time>
      </trkpt>
      <trkpt lat="44.09309" lon="6.86574">
        <ele>863.40002441406</ele>
        <time>2019-08-03T07:59:29.000Z</time>
      </trkpt>
      <trkpt lat="44.09327" lon="6.8658">
        <ele>864</ele>
        <time>2019-08-03T07:59:36.000Z</time>
      </trkpt>
      <trkpt lat="44.09332" lon="6.86583">
        <ele>864.20001220703</ele>
        <time>2019-08-03T07:59:38.000Z</time>
      </trkpt>
      <trkpt lat="44.0934" lon="6.86597">
        <ele>864.79998779297</ele>
        <time>2019-08-03T07:59:43.000Z</time>
      </trkpt>
      <trkpt lat="44.09343" lon="6.86609">
        <ele>865.20001220703</ele>
        <time>2019-08-03T07:59:46.000Z</time>
      </trkpt>
      <trkpt lat="44.09344" lon="6.86624">
        <ele>865.40002441406</ele>
        <time>2019-08-03T07:59:50.000Z</time>
      </trkpt>
      <trkpt lat="44.09344" lon="6.86653">
        <ele>866.20001220703</ele>
        <time>2019-08-03T07:59:58.000Z</time>
      </trkpt>
      <trkpt lat="44.09343" lon="6.86663">
        <ele>866.79998779297</ele>
        <time>2019-08-03T08:00:01.000Z</time>
      </trkpt>
      <trkpt lat="44.09342" lon="6.8667">
        <ele>867.20001220703</ele>
        <time>2019-08-03T08:00:03.000Z</time>
      </trkpt>
      <trkpt lat="44.09338" lon="6.86688">
        <ele>868.40002441406</ele>
        <time>2019-08-03T08:00:09.000Z</time>
      </trkpt>
      <trkpt lat="44.09337" lon="6.86694">
        <ele>868.79998779297</ele>
        <time>2019-08-03T08:00:11.000Z</time>
      </trkpt>
      <trkpt lat="44.09335" lon="6.86705">
        <ele>869.59997558594</ele>
        <time>2019-08-03T08:00:15.000Z</time>
      </trkpt>
      <trkpt lat="44.09335" lon="6.86716">
        <ele>870.20001220703</ele>
        <time>2019-08-03T08:00:19.000Z</time>
      </trkpt>
      <trkpt lat="44.09336" lon="6.86721">
        <ele>870.59997558594</ele>
        <time>2019-08-03T08:00:21.000Z</time>
      </trkpt>
      <trkpt lat="44.09338" lon="6.86736">
        <ele>871.59997558594</ele>
        <time>2019-08-03T08:00:27.000Z</time>
      </trkpt>
      <trkpt lat="44.09339" lon="6.86739">
        <ele>871.79998779297</ele>
        <time>2019-08-03T08:00:28.000Z</time>
      </trkpt>
      <trkpt lat="44.09341" lon="6.86749">
        <ele>872.79998779297</ele>
        <time>2019-08-03T08:00:33.000Z</time>
      </trkpt>
      <trkpt lat="44.09342" lon="6.86752">
        <ele>872.79998779297</ele>
        <time>2019-08-03T08:00:35.000Z</time>
      </trkpt>
      <trkpt lat="44.09345" lon="6.86765">
        <ele>873.79998779297</ele>
        <time>2019-08-03T08:00:40.000Z</time>
      </trkpt>
      <trkpt lat="44.09348" lon="6.86777">
        <ele>874.79998779297</ele>
        <time>2019-08-03T08:00:45.000Z</time>
      </trkpt>
      <trkpt lat="44.09349" lon="6.86779">
        <ele>875</ele>
        <time>2019-08-03T08:00:46.000Z</time>
      </trkpt>
      <trkpt lat="44.09352" lon="6.86793">
        <ele>876</ele>
        <time>2019-08-03T08:00:52.000Z</time>
      </trkpt>
      <trkpt lat="44.09353" lon="6.86795">
        <ele>876.20001220703</ele>
        <time>2019-08-03T08:00:53.000Z</time>
      </trkpt>
      <trkpt lat="44.09357" lon="6.86805">
        <ele>877.20001220703</ele>
        <time>2019-08-03T08:00:58.000Z</time>
      </trkpt>
      <trkpt lat="44.09358" lon="6.86807">
        <ele>877.40002441406</ele>
        <time>2019-08-03T08:00:59.000Z</time>
      </trkpt>
      <trkpt lat="44.09361" lon="6.8682">
        <ele>878.20001220703</ele>
        <time>2019-08-03T08:01:05.000Z</time>
      </trkpt>
      <trkpt lat="44.09363" lon="6.86825">
        <ele>878.59997558594</ele>
        <time>2019-08-03T08:01:07.000Z</time>
      </trkpt>
      <trkpt lat="44.09365" lon="6.86832">
        <ele>879.40002441406</ele>
        <time>2019-08-03T08:01:10.000Z</time>
      </trkpt>
      <trkpt lat="44.09368" lon="6.86844">
        <ele>880</ele>
        <time>2019-08-03T08:01:15.000Z</time>
      </trkpt>
      <trkpt lat="44.09368" lon="6.86849">
        <ele>880.40002441406</ele>
        <time>2019-08-03T08:01:17.000Z</time>
      </trkpt>
      <trkpt lat="44.09372" lon="6.86862">
        <ele>881.40002441406</ele>
        <time>2019-08-03T08:01:23.000Z</time>
      </trkpt>
      <trkpt lat="44.09378" lon="6.86879">
        <ele>882.40002441406</ele>
        <time>2019-08-03T08:01:30.000Z</time>
      </trkpt>
      <trkpt lat="44.09379" lon="6.86886">
        <ele>882.79998779297</ele>
        <time>2019-08-03T08:01:33.000Z</time>
      </trkpt>
      <trkpt lat="44.09381" lon="6.86899">
        <ele>883.59997558594</ele>
        <time>2019-08-03T08:01:38.000Z</time>
      </trkpt>
      <trkpt lat="44.09381" lon="6.86913">
        <ele>884</ele>
        <time>2019-08-03T08:01:43.000Z</time>
      </trkpt>
      <trkpt lat="44.09381" lon="6.86924">
        <ele>884.59997558594</ele>
        <time>2019-08-03T08:01:47.000Z</time>
      </trkpt>
      <trkpt lat="44.09383" lon="6.86942">
        <ele>885.40002441406</ele>
        <time>2019-08-03T08:01:54.000Z</time>
      </trkpt>
      <trkpt lat="44.09383" lon="6.86945">
        <ele>885.59997558594</ele>
        <time>2019-08-03T08:01:55.000Z</time>
      </trkpt>
      <trkpt lat="44.09386" lon="6.86965">
        <ele>886.59997558594</ele>
        <time>2019-08-03T08:02:02.000Z</time>
      </trkpt>
      <trkpt lat="44.09386" lon="6.86968">
        <ele>886.59997558594</ele>
        <time>2019-08-03T08:02:03.000Z</time>
      </trkpt>
      <trkpt lat="44.09392" lon="6.86993">
        <ele>887.79998779297</ele>
        <time>2019-08-03T08:02:12.000Z</time>
      </trkpt>
      <trkpt lat="44.09406" lon="6.87009">
        <ele>888.79998779297</ele>
        <time>2019-08-03T08:02:21.000Z</time>
      </trkpt>
      <trkpt lat="44.09413" lon="6.87025">
        <ele>890</ele>
        <time>2019-08-03T08:02:28.000Z</time>
      </trkpt>
      <trkpt lat="44.0941" lon="6.87042">
        <ele>891</ele>
        <time>2019-08-03T08:02:35.000Z</time>
      </trkpt>
      <trkpt lat="44.09402" lon="6.87053">
        <ele>892.20001220703</ele>
        <time>2019-08-03T08:02:41.000Z</time>
      </trkpt>
      <trkpt lat="44.09401" lon="6.87055">
        <ele>892.20001220703</ele>
        <time>2019-08-03T08:02:42.000Z</time>
      </trkpt>
      <trkpt lat="44.09393" lon="6.87072">
        <ele>893.20001220703</ele>
        <time>2019-08-03T08:02:50.000Z</time>
      </trkpt>
      <trkpt lat="44.09397" lon="6.8709">
        <ele>894.20001220703</ele>
        <time>2019-08-03T08:02:57.000Z</time>
      </trkpt>
      <trkpt lat="44.09398" lon="6.87092">
        <ele>894.40002441406</ele>
        <time>2019-08-03T08:02:58.000Z</time>
      </trkpt>
      <trkpt lat="44.09405" lon="6.87108">
        <ele>895.40002441406</ele>
        <time>2019-08-03T08:03:05.000Z</time>
      </trkpt>
      <trkpt lat="44.09406" lon="6.87113">
        <ele>895.59997558594</ele>
        <time>2019-08-03T08:03:07.000Z</time>
      </trkpt>
      <trkpt lat="44.09406" lon="6.8713">
        <ele>896.59997558594</ele>
        <time>2019-08-03T08:03:13.000Z</time>
      </trkpt>
      <trkpt lat="44.09405" lon="6.87134">
        <ele>897</ele>
        <time>2019-08-03T08:03:15.000Z</time>
      </trkpt>
      <trkpt lat="44.09404" lon="6.87139">
        <ele>897.59997558594</ele>
        <time>2019-08-03T08:03:17.000Z</time>
      </trkpt>
      <trkpt lat="44.09399" lon="6.8715">
        <ele>898.79998779297</ele>
        <time>2019-08-03T08:03:22.000Z</time>
      </trkpt>
      <trkpt lat="44.09391" lon="6.87162">
        <ele>899.79998779297</ele>
        <time>2019-08-03T08:03:28.000Z</time>
      </trkpt>
      <trkpt lat="44.09388" lon="6.87166">
        <ele>900</ele>
        <time>2019-08-03T08:03:30.000Z</time>
      </trkpt>
      <trkpt lat="44.0938" lon="6.87177">
        <ele>900.79998779297</ele>
        <time>2019-08-03T08:03:36.000Z</time>
      </trkpt>
      <trkpt lat="44.09373" lon="6.87186">
        <ele>901.79998779297</ele>
        <time>2019-08-03T08:03:41.000Z</time>
      </trkpt>
      <trkpt lat="44.09372" lon="6.87188">
        <ele>902</ele>
        <time>2019-08-03T08:03:42.000Z</time>
      </trkpt>
      <trkpt lat="44.09369" lon="6.87201">
        <ele>902.59997558594</ele>
        <time>2019-08-03T08:03:48.000Z</time>
      </trkpt>
      <trkpt lat="44.09368" lon="6.87208">
        <ele>903</ele>
        <time>2019-08-03T08:03:51.000Z</time>
      </trkpt>
      <trkpt lat="44.09367" lon="6.8721">
        <ele>903.20001220703</ele>
        <time>2019-08-03T08:03:53.000Z</time>
      </trkpt>
      <trkpt lat="44.09367" lon="6.87211">
        <ele>903.20001220703</ele>
        <time>2019-08-03T08:03:54.000Z</time>
      </trkpt>
      <trkpt lat="44.09366" lon="6.87212">
        <ele>903.40002441406</ele>
        <time>2019-08-03T08:03:58.000Z</time>
      </trkpt>
      <trkpt lat="44.09381" lon="6.87364">
        <ele>902.59997558594</ele>
        <time>2019-08-03T08:04:24.000Z</time>
      </trkpt>
      <trkpt lat="44.09382" lon="6.87378">
        <ele>902.79998779297</ele>
        <time>2019-08-03T08:04:25.000Z</time>
      </trkpt>
      <trkpt lat="44.09389" lon="6.874">
        <ele>904.20001220703</ele>
        <time>2019-08-03T08:04:31.000Z</time>
      </trkpt>
      <trkpt lat="44.0939" lon="6.87403">
        <ele>904.40002441406</ele>
        <time>2019-08-03T08:04:32.000Z</time>
      </trkpt>
      <trkpt lat="44.09393" lon="6.87417">
        <ele>905.20001220703</ele>
        <time>2019-08-03T08:04:36.000Z</time>
      </trkpt>
      <trkpt lat="44.09396" lon="6.87427">
        <ele>905.79998779297</ele>
        <time>2019-08-03T08:04:39.000Z</time>
      </trkpt>
      <trkpt lat="44.094" lon="6.87435">
        <ele>906.40002441406</ele>
        <time>2019-08-03T08:04:42.000Z</time>
      </trkpt>
      <trkpt lat="44.09408" lon="6.87448">
        <ele>907.20001220703</ele>
        <time>2019-08-03T08:04:47.000Z</time>
      </trkpt>
      <trkpt lat="44.0941" lon="6.8745">
        <ele>907.40002441406</ele>
        <time>2019-08-03T08:04:48.000Z</time>
      </trkpt>
      <trkpt lat="44.0942" lon="6.87466">
        <ele>908.40002441406</ele>
        <time>2019-08-03T08:04:54.000Z</time>
      </trkpt>
      <trkpt lat="44.09429" lon="6.87487">
        <ele>909.59997558594</ele>
        <time>2019-08-03T08:05:01.000Z</time>
      </trkpt>
      <trkpt lat="44.0943" lon="6.87494">
        <ele>910</ele>
        <time>2019-08-03T08:05:03.000Z</time>
      </trkpt>
      <trkpt lat="44.09432" lon="6.87512">
        <ele>910.79998779297</ele>
        <time>2019-08-03T08:05:08.000Z</time>
      </trkpt>
      <trkpt lat="44.09434" lon="6.87528">
        <ele>911.79998779297</ele>
        <time>2019-08-03T08:05:13.000Z</time>
      </trkpt>
      <trkpt lat="44.09438" lon="6.87543">
        <ele>913</ele>
        <time>2019-08-03T08:05:18.000Z</time>
      </trkpt>
      <trkpt lat="44.0944" lon="6.87552">
        <ele>913.59997558594</ele>
        <time>2019-08-03T08:05:21.000Z</time>
      </trkpt>
      <trkpt lat="44.09443" lon="6.8756">
        <ele>914</ele>
        <time>2019-08-03T08:05:24.000Z</time>
      </trkpt>
      <trkpt lat="44.09447" lon="6.87568">
        <ele>914.79998779297</ele>
        <time>2019-08-03T08:05:28.000Z</time>
      </trkpt>
      <trkpt lat="44.09451" lon="6.87574">
        <ele>915.20001220703</ele>
        <time>2019-08-03T08:05:31.000Z</time>
      </trkpt>
      <trkpt lat="44.0946" lon="6.8758">
        <ele>916.20001220703</ele>
        <time>2019-08-03T08:05:36.000Z</time>
      </trkpt>
      <trkpt lat="44.09463" lon="6.87582">
        <ele>916.59997558594</ele>
        <time>2019-08-03T08:05:38.000Z</time>
      </trkpt>
      <trkpt lat="44.09477" lon="6.87588">
        <ele>917.59997558594</ele>
        <time>2019-08-03T08:05:44.000Z</time>
      </trkpt>
      <trkpt lat="44.09495" lon="6.87592">
        <ele>918.20001220703</ele>
        <time>2019-08-03T08:05:50.000Z</time>
      </trkpt>
      <trkpt lat="44.09503" lon="6.87596">
        <ele>918.59997558594</ele>
        <time>2019-08-03T08:05:53.000Z</time>
      </trkpt>
      <trkpt lat="44.0952" lon="6.87604">
        <ele>919.20001220703</ele>
        <time>2019-08-03T08:05:59.000Z</time>
      </trkpt>
      <trkpt lat="44.09533" lon="6.87613">
        <ele>919.59997558594</ele>
        <time>2019-08-03T08:06:04.000Z</time>
      </trkpt>
      <trkpt lat="44.09547" lon="6.87625">
        <ele>920</ele>
        <time>2019-08-03T08:06:09.000Z</time>
      </trkpt>
      <trkpt lat="44.09561" lon="6.87647">
        <ele>920.79998779297</ele>
        <time>2019-08-03T08:06:15.000Z</time>
      </trkpt>
      <trkpt lat="44.09563" lon="6.87651">
        <ele>920.79998779297</ele>
        <time>2019-08-03T08:06:16.000Z</time>
      </trkpt>
      <trkpt lat="44.09575" lon="6.87688">
        <ele>921.20001220703</ele>
        <time>2019-08-03T08:06:24.000Z</time>
      </trkpt>
      <trkpt lat="44.09581" lon="6.87714">
        <ele>921.79998779297</ele>
        <time>2019-08-03T08:06:30.000Z</time>
      </trkpt>
      <trkpt lat="44.09584" lon="6.87722">
        <ele>922.20001220703</ele>
        <time>2019-08-03T08:06:32.000Z</time>
      </trkpt>
      <trkpt lat="44.09592" lon="6.87739">
        <ele>922.79998779297</ele>
        <time>2019-08-03T08:06:37.000Z</time>
      </trkpt>
      <trkpt lat="44.09597" lon="6.87744">
        <ele>923</ele>
        <time>2019-08-03T08:06:39.000Z</time>
      </trkpt>
      <trkpt lat="44.09607" lon="6.87766">
        <ele>923.79998779297</ele>
        <time>2019-08-03T08:06:45.000Z</time>
      </trkpt>
      <trkpt lat="44.09608" lon="6.87774">
        <ele>923.79998779297</ele>
        <time>2019-08-03T08:06:47.000Z</time>
      </trkpt>
      <trkpt lat="44.09608" lon="6.87791">
        <ele>924.40002441406</ele>
        <time>2019-08-03T08:06:51.000Z</time>
      </trkpt>
      <trkpt lat="44.09609" lon="6.87807">
        <ele>925</ele>
        <time>2019-08-03T08:06:55.000Z</time>
      </trkpt>
      <trkpt lat="44.09611" lon="6.8782">
        <ele>925.40002441406</ele>
        <time>2019-08-03T08:06:58.000Z</time>
      </trkpt>
      <trkpt lat="44.09616" lon="6.87839">
        <ele>926</ele>
        <time>2019-08-03T08:07:03.000Z</time>
      </trkpt>
      <trkpt lat="44.0962" lon="6.8785">
        <ele>926.59997558594</ele>
        <time>2019-08-03T08:07:06.000Z</time>
      </trkpt>
      <trkpt lat="44.09624" lon="6.87864">
        <ele>927.20001220703</ele>
        <time>2019-08-03T08:07:10.000Z</time>
      </trkpt>
      <trkpt lat="44.09629" lon="6.87879">
        <ele>927.79998779297</ele>
        <time>2019-08-03T08:07:14.000Z</time>
      </trkpt>
      <trkpt lat="44.09635" lon="6.87893">
        <ele>928.20001220703</ele>
        <time>2019-08-03T08:07:18.000Z</time>
      </trkpt>
      <trkpt lat="44.0964" lon="6.87908">
        <ele>928.59997558594</ele>
        <time>2019-08-03T08:07:22.000Z</time>
      </trkpt>
      <trkpt lat="44.09645" lon="6.87923">
        <ele>929.40002441406</ele>
        <time>2019-08-03T08:07:26.000Z</time>
      </trkpt>
      <trkpt lat="44.09653" lon="6.87939">
        <ele>930.20001220703</ele>
        <time>2019-08-03T08:07:31.000Z</time>
      </trkpt>
      <trkpt lat="44.09655" lon="6.87942">
        <ele>930.40002441406</ele>
        <time>2019-08-03T08:07:32.000Z</time>
      </trkpt>
      <trkpt lat="44.09663" lon="6.87957">
        <ele>931.59997558594</ele>
        <time>2019-08-03T08:07:37.000Z</time>
      </trkpt>
      <trkpt lat="44.09667" lon="6.87966">
        <ele>932</ele>
        <time>2019-08-03T08:07:40.000Z</time>
      </trkpt>
      <trkpt lat="44.0967" lon="6.87973">
        <ele>932.59997558594</ele>
        <time>2019-08-03T08:07:42.000Z</time>
      </trkpt>
      <trkpt lat="44.09676" lon="6.87989">
        <ele>933.79998779297</ele>
        <time>2019-08-03T08:07:47.000Z</time>
      </trkpt>
      <trkpt lat="44.09677" lon="6.87992">
        <ele>934</ele>
        <time>2019-08-03T08:07:48.000Z</time>
      </trkpt>
      <trkpt lat="44.09682" lon="6.88004">
        <ele>934.79998779297</ele>
        <time>2019-08-03T08:07:52.000Z</time>
      </trkpt>
      <trkpt lat="44.09689" lon="6.88019">
        <ele>936</ele>
        <time>2019-08-03T08:07:57.000Z</time>
      </trkpt>
      <trkpt lat="44.0969" lon="6.88023">
        <ele>936</ele>
        <time>2019-08-03T08:07:58.000Z</time>
      </trkpt>
      <trkpt lat="44.09692" lon="6.88037">
        <ele>937</ele>
        <time>2019-08-03T08:08:02.000Z</time>
      </trkpt>
      <trkpt lat="44.09695" lon="6.88051">
        <ele>938</ele>
        <time>2019-08-03T08:08:06.000Z</time>
      </trkpt>
      <trkpt lat="44.09703" lon="6.88072">
        <ele>939.20001220703</ele>
        <time>2019-08-03T08:08:13.000Z</time>
      </trkpt>
      <trkpt lat="44.09709" lon="6.8809">
        <ele>940.20001220703</ele>
        <time>2019-08-03T08:08:19.000Z</time>
      </trkpt>
      <trkpt lat="44.09711" lon="6.881">
        <ele>940.79998779297</ele>
        <time>2019-08-03T08:08:22.000Z</time>
      </trkpt>
      <trkpt lat="44.09713" lon="6.88109">
        <ele>941.20001220703</ele>
        <time>2019-08-03T08:08:25.000Z</time>
      </trkpt>
      <trkpt lat="44.09716" lon="6.8813">
        <ele>942.40002441406</ele>
        <time>2019-08-03T08:08:32.000Z</time>
      </trkpt>
      <trkpt lat="44.09718" lon="6.88152">
        <ele>943.59997558594</ele>
        <time>2019-08-03T08:08:39.000Z</time>
      </trkpt>
      <trkpt lat="44.09718" lon="6.88158">
        <ele>943.79998779297</ele>
        <time>2019-08-03T08:08:41.000Z</time>
      </trkpt>
      <trkpt lat="44.0972" lon="6.88173">
        <ele>944.59997558594</ele>
        <time>2019-08-03T08:08:46.000Z</time>
      </trkpt>
      <trkpt lat="44.09721" lon="6.88188">
        <ele>945.40002441406</ele>
        <time>2019-08-03T08:08:51.000Z</time>
      </trkpt>
      <trkpt lat="44.09722" lon="6.88194">
        <ele>945.79998779297</ele>
        <time>2019-08-03T08:08:53.000Z</time>
      </trkpt>
      <trkpt lat="44.09724" lon="6.88213">
        <ele>947</ele>
        <time>2019-08-03T08:09:00.000Z</time>
      </trkpt>
      <trkpt lat="44.09727" lon="6.88229">
        <ele>948</ele>
        <time>2019-08-03T08:09:06.000Z</time>
      </trkpt>
      <trkpt lat="44.09728" lon="6.88231">
        <ele>948.20001220703</ele>
        <time>2019-08-03T08:09:07.000Z</time>
      </trkpt>
      <trkpt lat="44.09734" lon="6.88247">
        <ele>949.20001220703</ele>
        <time>2019-08-03T08:09:13.000Z</time>
      </trkpt>
      <trkpt lat="44.09735" lon="6.88253">
        <ele>949.40002441406</ele>
        <time>2019-08-03T08:09:15.000Z</time>
      </trkpt>
      <trkpt lat="44.09735" lon="6.88267">
        <ele>950.40002441406</ele>
        <time>2019-08-03T08:09:20.000Z</time>
      </trkpt>
      <trkpt lat="44.09734" lon="6.88276">
        <ele>951</ele>
        <time>2019-08-03T08:09:23.000Z</time>
      </trkpt>
      <trkpt lat="44.09733" lon="6.88281">
        <ele>951.40002441406</ele>
        <time>2019-08-03T08:09:25.000Z</time>
      </trkpt>
      <trkpt lat="44.0973" lon="6.88292">
        <ele>952.20001220703</ele>
        <time>2019-08-03T08:09:29.000Z</time>
      </trkpt>
      <trkpt lat="44.09729" lon="6.88297">
        <ele>952.40002441406</ele>
        <time>2019-08-03T08:09:31.000Z</time>
      </trkpt>
      <trkpt lat="44.09727" lon="6.88314">
        <ele>953.40002441406</ele>
        <time>2019-08-03T08:09:37.000Z</time>
      </trkpt>
      <trkpt lat="44.09727" lon="6.8832">
        <ele>953.59997558594</ele>
        <time>2019-08-03T08:09:39.000Z</time>
      </trkpt>
      <trkpt lat="44.0973" lon="6.88333">
        <ele>954.40002441406</ele>
        <time>2019-08-03T08:09:44.000Z</time>
      </trkpt>
      <trkpt lat="44.09731" lon="6.88335">
        <ele>954.59997558594</ele>
        <time>2019-08-03T08:09:45.000Z</time>
      </trkpt>
      <trkpt lat="44.0974" lon="6.88348">
        <ele>955.59997558594</ele>
        <time>2019-08-03T08:09:51.000Z</time>
      </trkpt>
      <trkpt lat="44.0975" lon="6.88362">
        <ele>956.59997558594</ele>
        <time>2019-08-03T08:09:58.000Z</time>
      </trkpt>
      <trkpt lat="44.09755" lon="6.88369">
        <ele>957.20001220703</ele>
        <time>2019-08-03T08:10:01.000Z</time>
      </trkpt>
      <trkpt lat="44.0976" lon="6.88378">
        <ele>957.79998779297</ele>
        <time>2019-08-03T08:10:05.000Z</time>
      </trkpt>
      <trkpt lat="44.09766" lon="6.88389">
        <ele>958.79998779297</ele>
        <time>2019-08-03T08:10:10.000Z</time>
      </trkpt>
      <trkpt lat="44.09767" lon="6.88392">
        <ele>958.79998779297</ele>
        <time>2019-08-03T08:10:11.000Z</time>
      </trkpt>
      <trkpt lat="44.09775" lon="6.88408">
        <ele>959.79998779297</ele>
        <time>2019-08-03T08:10:18.000Z</time>
      </trkpt>
      <trkpt lat="44.09778" lon="6.88415">
        <ele>960.40002441406</ele>
        <time>2019-08-03T08:10:21.000Z</time>
      </trkpt>
      <trkpt lat="44.09783" lon="6.88426">
        <ele>961</ele>
        <time>2019-08-03T08:10:25.000Z</time>
      </trkpt>
      <trkpt lat="44.09788" lon="6.88438">
        <ele>961.59997558594</ele>
        <time>2019-08-03T08:10:29.000Z</time>
      </trkpt>
      <trkpt lat="44.09792" lon="6.88447">
        <ele>962</ele>
        <time>2019-08-03T08:10:32.000Z</time>
      </trkpt>
      <trkpt lat="44.09798" lon="6.88462">
        <ele>963.20001220703</ele>
        <time>2019-08-03T08:10:37.000Z</time>
      </trkpt>
      <trkpt lat="44.09799" lon="6.88465">
        <ele>963.40002441406</ele>
        <time>2019-08-03T08:10:38.000Z</time>
      </trkpt>
      <trkpt lat="44.09805" lon="6.8848">
        <ele>964.40002441406</ele>
        <time>2019-08-03T08:10:43.000Z</time>
      </trkpt>
      <trkpt lat="44.0981" lon="6.88497">
        <ele>965.40002441406</ele>
        <time>2019-08-03T08:10:49.000Z</time>
      </trkpt>
      <trkpt lat="44.09811" lon="6.885">
        <ele>965.59997558594</ele>
        <time>2019-08-03T08:10:50.000Z</time>
      </trkpt>
      <trkpt lat="44.09816" lon="6.88516">
        <ele>966.59997558594</ele>
        <time>2019-08-03T08:10:55.000Z</time>
      </trkpt>
      <trkpt lat="44.09822" lon="6.88537">
        <ele>967.59997558594</ele>
        <time>2019-08-03T08:11:02.000Z</time>
      </trkpt>
      <trkpt lat="44.09827" lon="6.88557">
        <ele>968.79998779297</ele>
        <time>2019-08-03T08:11:09.000Z</time>
      </trkpt>
      <trkpt lat="44.09827" lon="6.8856">
        <ele>968.79998779297</ele>
        <time>2019-08-03T08:11:10.000Z</time>
      </trkpt>
      <trkpt lat="44.0983" lon="6.88575">
        <ele>969.79998779297</ele>
        <time>2019-08-03T08:11:15.000Z</time>
      </trkpt>
      <trkpt lat="44.09834" lon="6.88587">
        <ele>970.59997558594</ele>
        <time>2019-08-03T08:11:19.000Z</time>
      </trkpt>
      <trkpt lat="44.09835" lon="6.8859">
        <ele>970.79998779297</ele>
        <time>2019-08-03T08:11:20.000Z</time>
      </trkpt>
      <trkpt lat="44.09842" lon="6.88606">
        <ele>971.79998779297</ele>
        <time>2019-08-03T08:11:26.000Z</time>
      </trkpt>
      <trkpt lat="44.09846" lon="6.88614">
        <ele>972.40002441406</ele>
        <time>2019-08-03T08:11:29.000Z</time>
      </trkpt>
      <trkpt lat="44.09848" lon="6.88626">
        <ele>973</ele>
        <time>2019-08-03T08:11:33.000Z</time>
      </trkpt>
      <trkpt lat="44.09849" lon="6.88636">
        <ele>973.59997558594</ele>
        <time>2019-08-03T08:11:36.000Z</time>
      </trkpt>
      <trkpt lat="44.09848" lon="6.88649">
        <ele>974.20001220703</ele>
        <time>2019-08-03T08:11:40.000Z</time>
      </trkpt>
      <trkpt lat="44.0985" lon="6.88659">
        <ele>974.79998779297</ele>
        <time>2019-08-03T08:11:43.000Z</time>
      </trkpt>
      <trkpt lat="44.09851" lon="6.88665">
        <ele>975.20001220703</ele>
        <time>2019-08-03T08:11:45.000Z</time>
      </trkpt>
      <trkpt lat="44.09858" lon="6.88678">
        <ele>976</ele>
        <time>2019-08-03T08:11:50.000Z</time>
      </trkpt>
      <trkpt lat="44.0986" lon="6.88681">
        <ele>976.20001220703</ele>
        <time>2019-08-03T08:11:51.000Z</time>
      </trkpt>
      <trkpt lat="44.09869" lon="6.88697">
        <ele>977.40002441406</ele>
        <time>2019-08-03T08:11:57.000Z</time>
      </trkpt>
      <trkpt lat="44.09872" lon="6.88703">
        <ele>977.59997558594</ele>
        <time>2019-08-03T08:11:59.000Z</time>
      </trkpt>
      <trkpt lat="44.0988" lon="6.88714">
        <ele>978.40002441406</ele>
        <time>2019-08-03T08:12:04.000Z</time>
      </trkpt>
      <trkpt lat="44.09885" lon="6.88717">
        <ele>978.59997558594</ele>
        <time>2019-08-03T08:12:06.000Z</time>
      </trkpt>
      <trkpt lat="44.09894" lon="6.88717">
        <ele>979.59997558594</ele>
        <time>2019-08-03T08:12:10.000Z</time>
      </trkpt>
      <trkpt lat="44.09897" lon="6.88716">
        <ele>979.59997558594</ele>
        <time>2019-08-03T08:12:11.000Z</time>
      </trkpt>
      <trkpt lat="44.09913" lon="6.88707">
        <ele>980.59997558594</ele>
        <time>2019-08-03T08:12:18.000Z</time>
      </trkpt>
      <trkpt lat="44.09916" lon="6.88706">
        <ele>980.79998779297</ele>
        <time>2019-08-03T08:12:19.000Z</time>
      </trkpt>
      <trkpt lat="44.09932" lon="6.88701">
        <ele>981.59997558594</ele>
        <time>2019-08-03T08:12:25.000Z</time>
      </trkpt>
      <trkpt lat="44.0994" lon="6.88701">
        <ele>982</ele>
        <time>2019-08-03T08:12:28.000Z</time>
      </trkpt>
      <trkpt lat="44.09951" lon="6.88701">
        <ele>982.79998779297</ele>
        <time>2019-08-03T08:12:32.000Z</time>
      </trkpt>
      <trkpt lat="44.09967" lon="6.88702">
        <ele>983.40002441406</ele>
        <time>2019-08-03T08:12:38.000Z</time>
      </trkpt>
      <trkpt lat="44.09972" lon="6.88703">
        <ele>983.79998779297</ele>
        <time>2019-08-03T08:12:40.000Z</time>
      </trkpt>
      <trkpt lat="44.09988" lon="6.88705">
        <ele>984.79998779297</ele>
        <time>2019-08-03T08:12:46.000Z</time>
      </trkpt>
      <trkpt lat="44.09991" lon="6.88706">
        <ele>984.79998779297</ele>
        <time>2019-08-03T08:12:47.000Z</time>
      </trkpt>
      <trkpt lat="44.10015" lon="6.88709">
        <ele>986</ele>
        <time>2019-08-03T08:12:56.000Z</time>
      </trkpt>
      <trkpt lat="44.10041" lon="6.88713">
        <ele>987.20001220703</ele>
        <time>2019-08-03T08:13:05.000Z</time>
      </trkpt>
      <trkpt lat="44.10052" lon="6.88716">
        <ele>987.59997558594</ele>
        <time>2019-08-03T08:13:09.000Z</time>
      </trkpt>
      <trkpt lat="44.10063" lon="6.88721">
        <ele>988.20001220703</ele>
        <time>2019-08-03T08:13:13.000Z</time>
      </trkpt>
      <trkpt lat="44.10074" lon="6.88729">
        <ele>988.79998779297</ele>
        <time>2019-08-03T08:13:18.000Z</time>
      </trkpt>
      <trkpt lat="44.10083" lon="6.88737">
        <ele>989.20001220703</ele>
        <time>2019-08-03T08:13:22.000Z</time>
      </trkpt>
      <trkpt lat="44.10097" lon="6.88753">
        <ele>990.20001220703</ele>
        <time>2019-08-03T08:13:29.000Z</time>
      </trkpt>
      <trkpt lat="44.10099" lon="6.88755">
        <ele>990.20001220703</ele>
        <time>2019-08-03T08:13:30.000Z</time>
      </trkpt>
      <trkpt lat="44.10115" lon="6.88779">
        <ele>991.20001220703</ele>
        <time>2019-08-03T08:13:39.000Z</time>
      </trkpt>
      <trkpt lat="44.10117" lon="6.88782">
        <ele>991.40002441406</ele>
        <time>2019-08-03T08:13:40.000Z</time>
      </trkpt>
      <trkpt lat="44.10128" lon="6.88797">
        <ele>992.59997558594</ele>
        <time>2019-08-03T08:13:46.000Z</time>
      </trkpt>
      <trkpt lat="44.10132" lon="6.88802">
        <ele>993</ele>
        <time>2019-08-03T08:13:48.000Z</time>
      </trkpt>
      <trkpt lat="44.1014" lon="6.88815">
        <ele>993.79998779297</ele>
        <time>2019-08-03T08:13:53.000Z</time>
      </trkpt>
      <trkpt lat="44.10144" lon="6.8882">
        <ele>994.20001220703</ele>
        <time>2019-08-03T08:13:55.000Z</time>
      </trkpt>
      <trkpt lat="44.10149" lon="6.88829">
        <ele>994.79998779297</ele>
        <time>2019-08-03T08:13:58.000Z</time>
      </trkpt>
      <trkpt lat="44.10162" lon="6.88847">
        <ele>996</ele>
        <time>2019-08-03T08:14:05.000Z</time>
      </trkpt>
      <trkpt lat="44.10174" lon="6.88865">
        <ele>997</ele>
        <time>2019-08-03T08:14:12.000Z</time>
      </trkpt>
      <trkpt lat="44.10179" lon="6.88872">
        <ele>997.40002441406</ele>
        <time>2019-08-03T08:14:15.000Z</time>
      </trkpt>
      <trkpt lat="44.10185" lon="6.8888">
        <ele>998.20001220703</ele>
        <time>2019-08-03T08:14:19.000Z</time>
      </trkpt>
      <trkpt lat="44.10192" lon="6.88888">
        <ele>999</ele>
        <time>2019-08-03T08:14:23.000Z</time>
      </trkpt>
      <trkpt lat="44.10195" lon="6.88892">
        <ele>999.40002441406</ele>
        <time>2019-08-03T08:14:25.000Z</time>
      </trkpt>
      <trkpt lat="44.10206" lon="6.88908">
        <ele>1000.4000244141</ele>
        <time>2019-08-03T08:14:32.000Z</time>
      </trkpt>
      <trkpt lat="44.10208" lon="6.88911">
        <ele>1000.5999755859</ele>
        <time>2019-08-03T08:14:33.000Z</time>
      </trkpt>
      <trkpt lat="44.10217" lon="6.88925">
        <ele>1001.5999755859</ele>
        <time>2019-08-03T08:14:39.000Z</time>
      </trkpt>
      <trkpt lat="44.10221" lon="6.88929">
        <ele>1001.799987793</ele>
        <time>2019-08-03T08:14:41.000Z</time>
      </trkpt>
      <trkpt lat="44.1023" lon="6.8894">
        <ele>1002.5999755859</ele>
        <time>2019-08-03T08:14:46.000Z</time>
      </trkpt>
      <trkpt lat="44.10237" lon="6.88949">
        <ele>1003.5999755859</ele>
        <time>2019-08-03T08:14:50.000Z</time>
      </trkpt>
      <trkpt lat="44.10238" lon="6.8895">
        <ele>1003.799987793</ele>
        <time>2019-08-03T08:14:51.000Z</time>
      </trkpt>
      <trkpt lat="44.10252" lon="6.88969">
        <ele>1004.799987793</ele>
        <time>2019-08-03T08:14:59.000Z</time>
      </trkpt>
      <trkpt lat="44.10254" lon="6.88972">
        <ele>1004.799987793</ele>
        <time>2019-08-03T08:15:00.000Z</time>
      </trkpt>
      <trkpt lat="44.10265" lon="6.88987">
        <ele>1005.799987793</ele>
        <time>2019-08-03T08:15:07.000Z</time>
      </trkpt>
      <trkpt lat="44.10278" lon="6.89006">
        <ele>1007</ele>
        <time>2019-08-03T08:15:15.000Z</time>
      </trkpt>
      <trkpt lat="44.10283" lon="6.89014">
        <ele>1007.4000244141</ele>
        <time>2019-08-03T08:15:18.000Z</time>
      </trkpt>
      <trkpt lat="44.1029" lon="6.89028">
        <ele>1008</ele>
        <time>2019-08-03T08:15:23.000Z</time>
      </trkpt>
      <trkpt lat="44.10295" lon="6.89039">
        <ele>1008.799987793</ele>
        <time>2019-08-03T08:15:27.000Z</time>
      </trkpt>
      <trkpt lat="44.10298" lon="6.89045">
        <ele>1009.200012207</ele>
        <time>2019-08-03T08:15:29.000Z</time>
      </trkpt>
      <trkpt lat="44.10303" lon="6.89055">
        <ele>1010</ele>
        <time>2019-08-03T08:15:33.000Z</time>
      </trkpt>
      <trkpt lat="44.10305" lon="6.89057">
        <ele>1010.200012207</ele>
        <time>2019-08-03T08:15:34.000Z</time>
      </trkpt>
      <trkpt lat="44.10312" lon="6.89063">
        <ele>1011.200012207</ele>
        <time>2019-08-03T08:15:38.000Z</time>
      </trkpt>
      <trkpt lat="44.10319" lon="6.89068">
        <ele>1011.799987793</ele>
        <time>2019-08-03T08:15:41.000Z</time>
      </trkpt>
      <trkpt lat="44.10332" lon="6.89078">
        <ele>1012.4000244141</ele>
        <time>2019-08-03T08:15:47.000Z</time>
      </trkpt>
      <trkpt lat="44.1034" lon="6.89084">
        <ele>1012.799987793</ele>
        <time>2019-08-03T08:15:51.000Z</time>
      </trkpt>
      <trkpt lat="44.10348" lon="6.89089">
        <ele>1013.4000244141</ele>
        <time>2019-08-03T08:15:55.000Z</time>
      </trkpt>
      <trkpt lat="44.10357" lon="6.89095">
        <ele>1014</ele>
        <time>2019-08-03T08:15:59.000Z</time>
      </trkpt>
      <trkpt lat="44.10361" lon="6.89099">
        <ele>1014.4000244141</ele>
        <time>2019-08-03T08:16:01.000Z</time>
      </trkpt>
      <trkpt lat="44.10372" lon="6.8911">
        <ele>1015.5999755859</ele>
        <time>2019-08-03T08:16:07.000Z</time>
      </trkpt>
      <trkpt lat="44.10385" lon="6.89121">
        <ele>1016.5999755859</ele>
        <time>2019-08-03T08:16:13.000Z</time>
      </trkpt>
      <trkpt lat="44.10392" lon="6.89124">
        <ele>1017.200012207</ele>
        <time>2019-08-03T08:16:16.000Z</time>
      </trkpt>
      <trkpt lat="44.10397" lon="6.89128">
        <ele>1017.5999755859</ele>
        <time>2019-08-03T08:16:18.000Z</time>
      </trkpt>
      <trkpt lat="44.1041" lon="6.89137">
        <ele>1018.5999755859</ele>
        <time>2019-08-03T08:16:24.000Z</time>
      </trkpt>
      <trkpt lat="44.10421" lon="6.89149">
        <ele>1019.799987793</ele>
        <time>2019-08-03T08:16:30.000Z</time>
      </trkpt>
      <trkpt lat="44.10424" lon="6.89154">
        <ele>1020</ele>
        <time>2019-08-03T08:16:32.000Z</time>
      </trkpt>
      <trkpt lat="44.10434" lon="6.89174">
        <ele>1020.799987793</ele>
        <time>2019-08-03T08:16:39.000Z</time>
      </trkpt>
      <trkpt lat="44.1044" lon="6.89185">
        <ele>1022</ele>
        <time>2019-08-03T08:16:43.000Z</time>
      </trkpt>
      <trkpt lat="44.1045" lon="6.89205">
        <ele>1023</ele>
        <time>2019-08-03T08:16:50.000Z</time>
      </trkpt>
      <trkpt lat="44.10454" lon="6.89216">
        <ele>1023.5999755859</ele>
        <time>2019-08-03T08:16:54.000Z</time>
      </trkpt>
      <trkpt lat="44.10458" lon="6.89228">
        <ele>1024</ele>
        <time>2019-08-03T08:16:58.000Z</time>
      </trkpt>
      <trkpt lat="44.10463" lon="6.89248">
        <ele>1025</ele>
        <time>2019-08-03T08:17:04.000Z</time>
      </trkpt>
      <trkpt lat="44.10463" lon="6.89252">
        <ele>1025</ele>
        <time>2019-08-03T08:17:05.000Z</time>
      </trkpt>
      <trkpt lat="44.10466" lon="6.89272">
        <ele>1026.1999511719</ele>
        <time>2019-08-03T08:17:11.000Z</time>
      </trkpt>
      <trkpt lat="44.10466" lon="6.89276">
        <ele>1026.4000244141</ele>
        <time>2019-08-03T08:17:12.000Z</time>
      </trkpt>
      <trkpt lat="44.10474" lon="6.89293">
        <ele>1027.1999511719</ele>
        <time>2019-08-03T08:17:17.000Z</time>
      </trkpt>
      <trkpt lat="44.10488" lon="6.89303">
        <ele>1028.4000244141</ele>
        <time>2019-08-03T08:17:23.000Z</time>
      </trkpt>
      <trkpt lat="44.10507" lon="6.89316">
        <ele>1029</ele>
        <time>2019-08-03T08:17:30.000Z</time>
      </trkpt>
      <trkpt lat="44.10516" lon="6.89334">
        <ele>1029</ele>
        <time>2019-08-03T08:17:35.000Z</time>
      </trkpt>
      <trkpt lat="44.10518" lon="6.89374">
        <ele>1028.8000488281</ele>
        <time>2019-08-03T08:17:42.000Z</time>
      </trkpt>
      <trkpt lat="44.10522" lon="6.89402">
        <ele>1029</ele>
        <time>2019-08-03T08:17:47.000Z</time>
      </trkpt>
      <trkpt lat="44.10524" lon="6.89407">
        <ele>1029</ele>
        <time>2019-08-03T08:17:48.000Z</time>
      </trkpt>
      <trkpt lat="44.10532" lon="6.89427">
        <ele>1029.4000244141</ele>
        <time>2019-08-03T08:17:52.000Z</time>
      </trkpt>
      <trkpt lat="44.10534" lon="6.89439">
        <ele>1029.5999755859</ele>
        <time>2019-08-03T08:17:54.000Z</time>
      </trkpt>
      <trkpt lat="44.10538" lon="6.89461">
        <ele>1029.4000244141</ele>
        <time>2019-08-03T08:17:58.000Z</time>
      </trkpt>
      <trkpt lat="44.10544" lon="6.89477">
        <ele>1029.5999755859</ele>
        <time>2019-08-03T08:18:01.000Z</time>
      </trkpt>
      <trkpt lat="44.10549" lon="6.89486">
        <ele>1029.8000488281</ele>
        <time>2019-08-03T08:18:03.000Z</time>
      </trkpt>
      <trkpt lat="44.10566" lon="6.89517">
        <ele>1030</ele>
        <time>2019-08-03T08:18:10.000Z</time>
      </trkpt>
      <trkpt lat="44.10578" lon="6.89528">
        <ele>1030.5999755859</ele>
        <time>2019-08-03T08:18:14.000Z</time>
      </trkpt>
      <trkpt lat="44.10582" lon="6.8953">
        <ele>1030.5999755859</ele>
        <time>2019-08-03T08:18:15.000Z</time>
      </trkpt>
      <trkpt lat="44.10607" lon="6.89544">
        <ele>1031.5999755859</ele>
        <time>2019-08-03T08:18:23.000Z</time>
      </trkpt>
      <trkpt lat="44.10609" lon="6.89547">
        <ele>1031.5999755859</ele>
        <time>2019-08-03T08:18:24.000Z</time>
      </trkpt>
      <trkpt lat="44.10612" lon="6.89563">
        <ele>1032</ele>
        <time>2019-08-03T08:18:28.000Z</time>
      </trkpt>
      <trkpt lat="44.10608" lon="6.89581">
        <ele>1032.1999511719</ele>
        <time>2019-08-03T08:18:32.000Z</time>
      </trkpt>
      <trkpt lat="44.10605" lon="6.89589">
        <ele>1032.8000488281</ele>
        <time>2019-08-03T08:18:34.000Z</time>
      </trkpt>
      <trkpt lat="44.10598" lon="6.89613">
        <ele>1033.5999755859</ele>
        <time>2019-08-03T08:18:40.000Z</time>
      </trkpt>
      <trkpt lat="44.10598" lon="6.89618">
        <ele>1033.8000488281</ele>
        <time>2019-08-03T08:18:41.000Z</time>
      </trkpt>
      <trkpt lat="44.10599" lon="6.89644">
        <ele>1034.8000488281</ele>
        <time>2019-08-03T08:18:47.000Z</time>
      </trkpt>
      <trkpt lat="44.106" lon="6.89649">
        <ele>1035</ele>
        <time>2019-08-03T08:18:48.000Z</time>
      </trkpt>
      <trkpt lat="44.10603" lon="6.89677">
        <ele>1035.8000488281</ele>
        <time>2019-08-03T08:18:54.000Z</time>
      </trkpt>
      <trkpt lat="44.10603" lon="6.89686">
        <ele>1036</ele>
        <time>2019-08-03T08:18:56.000Z</time>
      </trkpt>
      <trkpt lat="44.10605" lon="6.89714">
        <ele>1037</ele>
        <time>2019-08-03T08:19:02.000Z</time>
      </trkpt>
      <trkpt lat="44.10605" lon="6.89719">
        <ele>1037.1999511719</ele>
        <time>2019-08-03T08:19:03.000Z</time>
      </trkpt>
      <trkpt lat="44.10605" lon="6.89737">
        <ele>1038.1999511719</ele>
        <time>2019-08-03T08:19:07.000Z</time>
      </trkpt>
      <trkpt lat="44.10606" lon="6.89766">
        <ele>1039.4000244141</ele>
        <time>2019-08-03T08:19:13.000Z</time>
      </trkpt>
      <trkpt lat="44.10606" lon="6.89775">
        <ele>1039.8000488281</ele>
        <time>2019-08-03T08:19:15.000Z</time>
      </trkpt>
      <trkpt lat="44.10607" lon="6.89788">
        <ele>1040.4000244141</ele>
        <time>2019-08-03T08:19:18.000Z</time>
      </trkpt>
      <trkpt lat="44.10609" lon="6.89813">
        <ele>1041.5999755859</ele>
        <time>2019-08-03T08:19:24.000Z</time>
      </trkpt>
      <trkpt lat="44.1061" lon="6.89817">
        <ele>1041.8000488281</ele>
        <time>2019-08-03T08:19:25.000Z</time>
      </trkpt>
      <trkpt lat="44.10613" lon="6.89839">
        <ele>1042.5999755859</ele>
        <time>2019-08-03T08:19:31.000Z</time>
      </trkpt>
      <trkpt lat="44.10613" lon="6.89842">
        <ele>1042.8000488281</ele>
        <time>2019-08-03T08:19:32.000Z</time>
      </trkpt>
      <trkpt lat="44.10617" lon="6.89859">
        <ele>1043.8000488281</ele>
        <time>2019-08-03T08:19:37.000Z</time>
      </trkpt>
      <trkpt lat="44.10618" lon="6.89865">
        <ele>1044</ele>
        <time>2019-08-03T08:19:39.000Z</time>
      </trkpt>
      <trkpt lat="44.10622" lon="6.8988">
        <ele>1044.8000488281</ele>
        <time>2019-08-03T08:19:44.000Z</time>
      </trkpt>
      <trkpt lat="44.10625" lon="6.89888">
        <ele>1045.1999511719</ele>
        <time>2019-08-03T08:19:47.000Z</time>
      </trkpt>
      <trkpt lat="44.10627" lon="6.89901">
        <ele>1046</ele>
        <time>2019-08-03T08:19:51.000Z</time>
      </trkpt>
      <trkpt lat="44.1063" lon="6.89915">
        <ele>1046.8000488281</ele>
        <time>2019-08-03T08:19:55.000Z</time>
      </trkpt>
      <trkpt lat="44.1063" lon="6.89918">
        <ele>1047</ele>
        <time>2019-08-03T08:19:56.000Z</time>
      </trkpt>
      <trkpt lat="44.10634" lon="6.89939">
        <ele>1048.1999511719</ele>
        <time>2019-08-03T08:20:02.000Z</time>
      </trkpt>
      <trkpt lat="44.10635" lon="6.89943">
        <ele>1048.4000244141</ele>
        <time>2019-08-03T08:20:03.000Z</time>
      </trkpt>
      <trkpt lat="44.1064" lon="6.89955">
        <ele>1049.4000244141</ele>
        <time>2019-08-03T08:20:07.000Z</time>
      </trkpt>
      <trkpt lat="44.10647" lon="6.89971">
        <ele>1050.4000244141</ele>
        <time>2019-08-03T08:20:12.000Z</time>
      </trkpt>
      <trkpt lat="44.10654" lon="6.89984">
        <ele>1051.5999755859</ele>
        <time>2019-08-03T08:20:17.000Z</time>
      </trkpt>
      <trkpt lat="44.10661" lon="6.89996">
        <ele>1052.1999511719</ele>
        <time>2019-08-03T08:20:21.000Z</time>
      </trkpt>
      <trkpt lat="44.10665" lon="6.90005">
        <ele>1052.8000488281</ele>
        <time>2019-08-03T08:20:24.000Z</time>
      </trkpt>
      <trkpt lat="44.10672" lon="6.90019">
        <ele>1053.8000488281</ele>
        <time>2019-08-03T08:20:29.000Z</time>
      </trkpt>
      <trkpt lat="44.10674" lon="6.90024">
        <ele>1054.1999511719</ele>
        <time>2019-08-03T08:20:31.000Z</time>
      </trkpt>
      <trkpt lat="44.10678" lon="6.90036">
        <ele>1054.8000488281</ele>
        <time>2019-08-03T08:20:35.000Z</time>
      </trkpt>
      <trkpt lat="44.10681" lon="6.90045">
        <ele>1055.4000244141</ele>
        <time>2019-08-03T08:20:38.000Z</time>
      </trkpt>
      <trkpt lat="44.10683" lon="6.90053">
        <ele>1056</ele>
        <time>2019-08-03T08:20:41.000Z</time>
      </trkpt>
      <trkpt lat="44.10687" lon="6.90069">
        <ele>1057</ele>
        <time>2019-08-03T08:20:46.000Z</time>
      </trkpt>
      <trkpt lat="44.10687" lon="6.90073">
        <ele>1057</ele>
        <time>2019-08-03T08:20:47.000Z</time>
      </trkpt>
      <trkpt lat="44.10694" lon="6.9009">
        <ele>1058.1999511719</ele>
        <time>2019-08-03T08:20:53.000Z</time>
      </trkpt>
      <trkpt lat="44.10695" lon="6.90093">
        <ele>1058.4000244141</ele>
        <time>2019-08-03T08:20:54.000Z</time>
      </trkpt>
      <trkpt lat="44.10702" lon="6.90107">
        <ele>1059.1999511719</ele>
        <time>2019-08-03T08:20:59.000Z</time>
      </trkpt>
      <trkpt lat="44.10709" lon="6.90121">
        <ele>1060.4000244141</ele>
        <time>2019-08-03T08:21:04.000Z</time>
      </trkpt>
      <trkpt lat="44.10717" lon="6.90136">
        <ele>1061.4000244141</ele>
        <time>2019-08-03T08:21:10.000Z</time>
      </trkpt>
      <trkpt lat="44.10724" lon="6.90148">
        <ele>1062.1999511719</ele>
        <time>2019-08-03T08:21:15.000Z</time>
      </trkpt>
      <trkpt lat="44.10726" lon="6.90151">
        <ele>1062.4000244141</ele>
        <time>2019-08-03T08:21:16.000Z</time>
      </trkpt>
      <trkpt lat="44.10734" lon="6.90166">
        <ele>1063.5999755859</ele>
        <time>2019-08-03T08:21:22.000Z</time>
      </trkpt>
      <trkpt lat="44.10737" lon="6.90172">
        <ele>1064</ele>
        <time>2019-08-03T08:21:24.000Z</time>
      </trkpt>
      <trkpt lat="44.10742" lon="6.90185">
        <ele>1064.8000488281</ele>
        <time>2019-08-03T08:21:29.000Z</time>
      </trkpt>
      <trkpt lat="44.10746" lon="6.90193">
        <ele>1065.4000244141</ele>
        <time>2019-08-03T08:21:32.000Z</time>
      </trkpt>
      <trkpt lat="44.1075" lon="6.90201">
        <ele>1066</ele>
        <time>2019-08-03T08:21:35.000Z</time>
      </trkpt>
      <trkpt lat="44.10755" lon="6.90211">
        <ele>1067</ele>
        <time>2019-08-03T08:21:39.000Z</time>
      </trkpt>
      <trkpt lat="44.10758" lon="6.90216">
        <ele>1067.5999755859</ele>
        <time>2019-08-03T08:21:41.000Z</time>
      </trkpt>
      <trkpt lat="44.10763" lon="6.90222">
        <ele>1068.1999511719</ele>
        <time>2019-08-03T08:21:44.000Z</time>
      </trkpt>
      <trkpt lat="44.10769" lon="6.90233">
        <ele>1069.1999511719</ele>
        <time>2019-08-03T08:21:49.000Z</time>
      </trkpt>
      <trkpt lat="44.10771" lon="6.90235">
        <ele>1069.5999755859</ele>
        <time>2019-08-03T08:21:50.000Z</time>
      </trkpt>
      <trkpt lat="44.10778" lon="6.90245">
        <ele>1070.4000244141</ele>
        <time>2019-08-03T08:21:55.000Z</time>
      </trkpt>
      <trkpt lat="44.10782" lon="6.9025">
        <ele>1071</ele>
        <time>2019-08-03T08:21:58.000Z</time>
      </trkpt>
      <trkpt lat="44.10785" lon="6.90255">
        <ele>1071.4000244141</ele>
        <time>2019-08-03T08:22:00.000Z</time>
      </trkpt>
      <trkpt lat="44.10793" lon="6.90267">
        <ele>1072.5999755859</ele>
        <time>2019-08-03T08:22:06.000Z</time>
      </trkpt>
      <trkpt lat="44.10802" lon="6.90276">
        <ele>1073.8000488281</ele>
        <time>2019-08-03T08:22:12.000Z</time>
      </trkpt>
      <trkpt lat="44.10806" lon="6.90279">
        <ele>1074.4000244141</ele>
        <time>2019-08-03T08:22:14.000Z</time>
      </trkpt>
      <trkpt lat="44.10812" lon="6.90284">
        <ele>1075</ele>
        <time>2019-08-03T08:22:17.000Z</time>
      </trkpt>
      <trkpt lat="44.10822" lon="6.9029">
        <ele>1076</ele>
        <time>2019-08-03T08:22:22.000Z</time>
      </trkpt>
      <trkpt lat="44.1083" lon="6.90295">
        <ele>1077</ele>
        <time>2019-08-03T08:22:26.000Z</time>
      </trkpt>
      <trkpt lat="44.10832" lon="6.90297">
        <ele>1077</ele>
        <time>2019-08-03T08:22:27.000Z</time>
      </trkpt>
      <trkpt lat="44.10836" lon="6.90302">
        <ele>1077.5999755859</ele>
        <time>2019-08-03T08:22:30.000Z</time>
      </trkpt>
      <trkpt lat="44.1084" lon="6.90308">
        <ele>1078.1999511719</ele>
        <time>2019-08-03T08:22:33.000Z</time>
      </trkpt>
      <trkpt lat="44.10848" lon="6.9032">
        <ele>1079.4000244141</ele>
        <time>2019-08-03T08:22:39.000Z</time>
      </trkpt>
      <trkpt lat="44.10851" lon="6.90325">
        <ele>1079.8000488281</ele>
        <time>2019-08-03T08:22:41.000Z</time>
      </trkpt>
      <trkpt lat="44.10856" lon="6.90334">
        <ele>1080.4000244141</ele>
        <time>2019-08-03T08:22:45.000Z</time>
      </trkpt>
      <trkpt lat="44.10862" lon="6.90345">
        <ele>1081.4000244141</ele>
        <time>2019-08-03T08:22:50.000Z</time>
      </trkpt>
      <trkpt lat="44.10864" lon="6.90347">
        <ele>1081.5999755859</ele>
        <time>2019-08-03T08:22:51.000Z</time>
      </trkpt>
      <trkpt lat="44.10871" lon="6.90358">
        <ele>1082.5999755859</ele>
        <time>2019-08-03T08:22:56.000Z</time>
      </trkpt>
      <trkpt lat="44.10878" lon="6.90368">
        <ele>1083.5999755859</ele>
        <time>2019-08-03T08:23:01.000Z</time>
      </trkpt>
      <trkpt lat="44.10888" lon="6.90378">
        <ele>1084.5999755859</ele>
        <time>2019-08-03T08:23:07.000Z</time>
      </trkpt>
      <trkpt lat="44.10893" lon="6.90384">
        <ele>1085</ele>
        <time>2019-08-03T08:23:10.000Z</time>
      </trkpt>
      <trkpt lat="44.10899" lon="6.9039">
        <ele>1085.8000488281</ele>
        <time>2019-08-03T08:23:14.000Z</time>
      </trkpt>
      <trkpt lat="44.10906" lon="6.90397">
        <ele>1086.4000244141</ele>
        <time>2019-08-03T08:23:18.000Z</time>
      </trkpt>
      <trkpt lat="44.1091" lon="6.90402">
        <ele>1087</ele>
        <time>2019-08-03T08:23:21.000Z</time>
      </trkpt>
      <trkpt lat="44.1092" lon="6.90412">
        <ele>1088</ele>
        <time>2019-08-03T08:23:27.000Z</time>
      </trkpt>
      <trkpt lat="44.10921" lon="6.90414">
        <ele>1088.1999511719</ele>
        <time>2019-08-03T08:23:28.000Z</time>
      </trkpt>
      <trkpt lat="44.10929" lon="6.90422">
        <ele>1089</ele>
        <time>2019-08-03T08:23:33.000Z</time>
      </trkpt>
      <trkpt lat="44.10935" lon="6.90429">
        <ele>1089.8000488281</ele>
        <time>2019-08-03T08:23:37.000Z</time>
      </trkpt>
      <trkpt lat="44.10939" lon="6.90432">
        <ele>1090.1999511719</ele>
        <time>2019-08-03T08:23:39.000Z</time>
      </trkpt>
      <trkpt lat="44.10946" lon="6.90441">
        <ele>1091.4000244141</ele>
        <time>2019-08-03T08:23:44.000Z</time>
      </trkpt>
      <trkpt lat="44.10947" lon="6.90442">
        <ele>1091.4000244141</ele>
        <time>2019-08-03T08:23:45.000Z</time>
      </trkpt>
      <trkpt lat="44.10954" lon="6.90447">
        <ele>1092.5999755859</ele>
        <time>2019-08-03T08:23:50.000Z</time>
      </trkpt>
      <trkpt lat="44.10958" lon="6.90448">
        <ele>1093</ele>
        <time>2019-08-03T08:23:52.000Z</time>
      </trkpt>
      <trkpt lat="44.10963" lon="6.90446">
        <ele>1093.5999755859</ele>
        <time>2019-08-03T08:23:55.000Z</time>
      </trkpt>
      <trkpt lat="44.10969" lon="6.90441">
        <ele>1094.1999511719</ele>
        <time>2019-08-03T08:23:58.000Z</time>
      </trkpt>
      <trkpt lat="44.10974" lon="6.90437">
        <ele>1094.8000488281</ele>
        <time>2019-08-03T08:24:01.000Z</time>
      </trkpt>
      <trkpt lat="44.10981" lon="6.90433">
        <ele>1095.5999755859</ele>
        <time>2019-08-03T08:24:05.000Z</time>
      </trkpt>
      <trkpt lat="44.10984" lon="6.90431">
        <ele>1096</ele>
        <time>2019-08-03T08:24:07.000Z</time>
      </trkpt>
      <trkpt lat="44.1099" lon="6.90428">
        <ele>1096.8000488281</ele>
        <time>2019-08-03T08:24:11.000Z</time>
      </trkpt>
      <trkpt lat="44.10994" lon="6.90426">
        <ele>1097.1999511719</ele>
        <time>2019-08-03T08:24:14.000Z</time>
      </trkpt>
      <trkpt lat="44.10999" lon="6.90424">
        <ele>1097.5999755859</ele>
        <time>2019-08-03T08:24:18.000Z</time>
      </trkpt>
      <trkpt lat="44.11001" lon="6.90425">
        <ele>1098</ele>
        <time>2019-08-03T08:24:20.000Z</time>
      </trkpt>
      <trkpt lat="44.11003" lon="6.90426">
        <ele>1098.1999511719</ele>
        <time>2019-08-03T08:24:22.000Z</time>
      </trkpt>
      <trkpt lat="44.11006" lon="6.90427">
        <ele>1098.4000244141</ele>
        <time>2019-08-03T08:24:24.000Z</time>
      </trkpt>
      <trkpt lat="44.11009" lon="6.90428">
        <ele>1098.4000244141</ele>
        <time>2019-08-03T08:24:25.000Z</time>
      </trkpt>
      <trkpt lat="44.11024" lon="6.90436">
        <ele>1096.5999755859</ele>
        <time>2019-08-03T08:24:30.000Z</time>
      </trkpt>
      <trkpt lat="44.11025" lon="6.90439">
        <ele>1095.4000244141</ele>
        <time>2019-08-03T08:24:32.000Z</time>
      </trkpt>
      <trkpt lat="44.11025" lon="6.90439">
        <ele>1094.8000488281</ele>
        <time>2019-08-03T08:24:33.000Z</time>
      </trkpt>
      <trkpt lat="44.11025" lon="6.90439">
        <ele>1094.1999511719</ele>
        <time>2019-08-03T08:24:34.000Z</time>
      </trkpt>
      <trkpt lat="44.11024" lon="6.9044">
        <ele>1093.8000488281</ele>
        <time>2019-08-03T08:24:40.000Z</time>
      </trkpt>
      <trkpt lat="44.11025" lon="6.9044">
        <ele>1093.8000488281</ele>
        <time>2019-08-03T08:24:45.000Z</time>
      </trkpt>
      <trkpt lat="44.11023" lon="6.9044">
        <ele>1094</ele>
        <time>2019-08-03T08:24:51.000Z</time>
      </trkpt>
      <trkpt lat="44.11023" lon="6.90441">
        <ele>1094.5999755859</ele>
        <time>2019-08-03T08:24:57.000Z</time>
      </trkpt>
      <trkpt lat="44.11021" lon="6.9044">
        <ele>1094.5999755859</ele>
        <time>2019-08-03T08:25:04.000Z</time>
      </trkpt>
      <trkpt lat="44.11021" lon="6.90439">
        <ele>1094.1999511719</ele>
        <time>2019-08-03T08:25:11.000Z</time>
      </trkpt>
      <trkpt lat="44.11022" lon="6.90437">
        <ele>1093.8000488281</ele>
        <time>2019-08-03T08:25:17.000Z</time>
      </trkpt>
      <trkpt lat="44.11022" lon="6.90437">
        <ele>1094</ele>
        <time>2019-08-03T08:25:23.000Z</time>
      </trkpt>
      <trkpt lat="44.11022" lon="6.90437">
        <ele>1093.8000488281</ele>
        <time>2019-08-03T08:25:31.000Z</time>
      </trkpt>
      <trkpt lat="44.11021" lon="6.90437">
        <ele>1093.4000244141</ele>
        <time>2019-08-03T08:25:38.000Z</time>
      </trkpt>
      <trkpt lat="44.11022" lon="6.9044">
        <ele>1093.8000488281</ele>
        <time>2019-08-03T08:25:48.000Z</time>
      </trkpt>
      <trkpt lat="44.11021" lon="6.9044">
        <ele>1093.5999755859</ele>
        <time>2019-08-03T08:25:52.000Z</time>
      </trkpt>
      <trkpt lat="44.11022" lon="6.90439">
        <ele>1093.5999755859</ele>
        <time>2019-08-03T08:25:59.000Z</time>
      </trkpt>
      <trkpt lat="44.11023" lon="6.90442">
        <ele>1093.4000244141</ele>
        <time>2019-08-03T08:26:07.000Z</time>
      </trkpt>
      <trkpt lat="44.11023" lon="6.90442">
        <ele>1093.1999511719</ele>
        <time>2019-08-03T08:26:08.000Z</time>
      </trkpt>
      <trkpt lat="44.11023" lon="6.90442">
        <ele>1093.5999755859</ele>
        <time>2019-08-03T08:26:12.000Z</time>
      </trkpt>
      <trkpt lat="44.11023" lon="6.9044">
        <ele>1093.5999755859</ele>
        <time>2019-08-03T08:26:25.000Z</time>
      </trkpt>
      <trkpt lat="44.11022" lon="6.90441">
        <ele>1093.4000244141</ele>
        <time>2019-08-03T08:26:38.000Z</time>
      </trkpt>
      <trkpt lat="44.11023" lon="6.90441">
        <ele>1093.8000488281</ele>
        <time>2019-08-03T08:26:43.000Z</time>
      </trkpt>
      <trkpt lat="44.11023" lon="6.90442">
        <ele>1093.5999755859</ele>
        <time>2019-08-03T08:26:53.000Z</time>
      </trkpt>
      <trkpt lat="44.11021" lon="6.90442">
        <ele>1093.8000488281</ele>
        <time>2019-08-03T08:27:11.000Z</time>
      </trkpt>
      <trkpt lat="44.1102" lon="6.90443">
        <ele>1093.8000488281</ele>
        <time>2019-08-03T08:27:21.000Z</time>
      </trkpt>
      <trkpt lat="44.1102" lon="6.90446">
        <ele>1093.5999755859</ele>
        <time>2019-08-03T08:27:29.000Z</time>
      </trkpt>
      <trkpt lat="44.11021" lon="6.90448">
        <ele>1094.1999511719</ele>
        <time>2019-08-03T08:27:35.000Z</time>
      </trkpt>
      <trkpt lat="44.11023" lon="6.90447">
        <ele>1094</ele>
        <time>2019-08-03T08:27:40.000Z</time>
      </trkpt>
      <trkpt lat="44.11023" lon="6.90447">
        <ele>1094.4000244141</ele>
        <time>2019-08-03T08:27:42.000Z</time>
      </trkpt>
      <trkpt lat="44.11024" lon="6.90447">
        <ele>1094.1999511719</ele>
        <time>2019-08-03T08:27:47.000Z</time>
      </trkpt>
      <trkpt lat="44.11025" lon="6.90448">
        <ele>1093.5999755859</ele>
        <time>2019-08-03T08:27:53.000Z</time>
      </trkpt>
      <trkpt lat="44.11026" lon="6.90446">
        <ele>1093.8000488281</ele>
        <time>2019-08-03T08:28:00.000Z</time>
      </trkpt>
      <trkpt lat="44.11026" lon="6.90446">
        <ele>1093.4000244141</ele>
        <time>2019-08-03T08:28:03.000Z</time>
      </trkpt>
      <trkpt lat="44.11026" lon="6.90446">
        <ele>1093.5999755859</ele>
        <time>2019-08-03T08:28:05.000Z</time>
      </trkpt>
      <trkpt lat="44.11025" lon="6.90449">
        <ele>1094</ele>
        <time>2019-08-03T08:28:09.000Z</time>
      </trkpt>
      <trkpt lat="44.11025" lon="6.90453">
        <ele>1094</ele>
        <time>2019-08-03T08:28:11.000Z</time>
      </trkpt>
      <trkpt lat="44.11027" lon="6.90458">
        <ele>1094</ele>
        <time>2019-08-03T08:28:14.000Z</time>
      </trkpt>
      <trkpt lat="44.11029" lon="6.90461">
        <ele>1094</ele>
        <time>2019-08-03T08:28:16.000Z</time>
      </trkpt>
      <trkpt lat="44.1103" lon="6.90468">
        <ele>1094</ele>
        <time>2019-08-03T08:28:19.000Z</time>
      </trkpt>
      <trkpt lat="44.11028" lon="6.90478">
        <ele>1093.8000488281</ele>
        <time>2019-08-03T08:28:24.000Z</time>
      </trkpt>
      <trkpt lat="44.11025" lon="6.90482">
        <ele>1093.8000488281</ele>
        <time>2019-08-03T08:28:28.000Z</time>
      </trkpt>
      <trkpt lat="44.11023" lon="6.90484">
        <ele>1093.4000244141</ele>
        <time>2019-08-03T08:28:33.000Z</time>
      </trkpt>
      <trkpt lat="44.11022" lon="6.90485">
        <ele>1093.4000244141</ele>
        <time>2019-08-03T08:28:34.000Z</time>
      </trkpt>
      <trkpt lat="44.11015" lon="6.90497">
        <ele>1092.8000488281</ele>
        <time>2019-08-03T08:28:39.000Z</time>
      </trkpt>
      <trkpt lat="44.11013" lon="6.90499">
        <ele>1092</ele>
        <time>2019-08-03T08:28:41.000Z</time>
      </trkpt>
      <trkpt lat="44.11014" lon="6.90499">
        <ele>1091.4000244141</ele>
        <time>2019-08-03T08:28:42.000Z</time>
      </trkpt>
      <trkpt lat="44.11014" lon="6.90501">
        <ele>1091.1999511719</ele>
        <time>2019-08-03T08:28:48.000Z</time>
      </trkpt>
      <trkpt lat="44.11014" lon="6.90503">
        <ele>1091</ele>
        <time>2019-08-03T08:28:50.000Z</time>
      </trkpt>
      <trkpt lat="44.11017" lon="6.90508">
        <ele>1091.1999511719</ele>
        <time>2019-08-03T08:28:54.000Z</time>
      </trkpt>
      <trkpt lat="44.11017" lon="6.90509">
        <ele>1091</ele>
        <time>2019-08-03T08:28:55.000Z</time>
      </trkpt>
      <trkpt lat="44.11016" lon="6.90512">
        <ele>1090.4000244141</ele>
        <time>2019-08-03T08:28:59.000Z</time>
      </trkpt>
      <trkpt lat="44.11015" lon="6.90513">
        <ele>1090.1999511719</ele>
        <time>2019-08-03T08:29:00.000Z</time>
      </trkpt>
      <trkpt lat="44.11015" lon="6.90513">
        <ele>1090.1999511719</ele>
        <time>2019-08-03T08:29:02.000Z</time>
      </trkpt>
      <trkpt lat="44.11013" lon="6.90515">
        <ele>1090.5999755859</ele>
        <time>2019-08-03T08:29:10.000Z</time>
      </trkpt>
      <trkpt lat="44.11011" lon="6.9052">
        <ele>1090.4000244141</ele>
        <time>2019-08-03T08:29:15.000Z</time>
      </trkpt>
      <trkpt lat="44.11009" lon="6.90521">
        <ele>1090</ele>
        <time>2019-08-03T08:29:17.000Z</time>
      </trkpt>
      <trkpt lat="44.11008" lon="6.90524">
        <ele>1089.1999511719</ele>
        <time>2019-08-03T08:29:21.000Z</time>
      </trkpt>
      <trkpt lat="44.11007" lon="6.90527">
        <ele>1088.8000488281</ele>
        <time>2019-08-03T08:29:24.000Z</time>
      </trkpt>
      <trkpt lat="44.11006" lon="6.90528">
        <ele>1088.5999755859</ele>
        <time>2019-08-03T08:29:26.000Z</time>
      </trkpt>
      <trkpt lat="44.11005" lon="6.90529">
        <ele>1088.4000244141</ele>
        <time>2019-08-03T08:29:27.000Z</time>
      </trkpt>
      <trkpt lat="44.11003" lon="6.90532">
        <ele>1088.4000244141</ele>
        <time>2019-08-03T08:29:30.000Z</time>
      </trkpt>
      <trkpt lat="44.11002" lon="6.90532">
        <ele>1088.5999755859</ele>
        <time>2019-08-03T08:29:31.000Z</time>
      </trkpt>
      <trkpt lat="44.10999" lon="6.90534">
        <ele>1088.1999511719</ele>
        <time>2019-08-03T08:29:36.000Z</time>
      </trkpt>
      <trkpt lat="44.10997" lon="6.90534">
        <ele>1088.5999755859</ele>
        <time>2019-08-03T08:29:41.000Z</time>
      </trkpt>
      <trkpt lat="44.10994" lon="6.90535">
        <ele>1087.8000488281</ele>
        <time>2019-08-03T08:29:45.000Z</time>
      </trkpt>
      <trkpt lat="44.10993" lon="6.90535">
        <ele>1087.8000488281</ele>
        <time>2019-08-03T08:29:46.000Z</time>
      </trkpt>
      <trkpt lat="44.10992" lon="6.90535">
        <ele>1087.8000488281</ele>
        <time>2019-08-03T08:29:47.000Z</time>
      </trkpt>
      <trkpt lat="44.1099" lon="6.90538">
        <ele>1087.5999755859</ele>
        <time>2019-08-03T08:29:51.000Z</time>
      </trkpt>
      <trkpt lat="44.1099" lon="6.90537">
        <ele>1087.5999755859</ele>
        <time>2019-08-03T08:29:52.000Z</time>
      </trkpt>
      <trkpt lat="44.10989" lon="6.90537">
        <ele>1087.8000488281</ele>
        <time>2019-08-03T08:29:53.000Z</time>
      </trkpt>
      <trkpt lat="44.10987" lon="6.90538">
        <ele>1088</ele>
        <time>2019-08-03T08:29:56.000Z</time>
      </trkpt>
      <trkpt lat="44.10982" lon="6.9054">
        <ele>1087.5999755859</ele>
        <time>2019-08-03T08:30:02.000Z</time>
      </trkpt>
      <trkpt lat="44.10982" lon="6.90541">
        <ele>1087.5999755859</ele>
        <time>2019-08-03T08:30:03.000Z</time>
      </trkpt>
      <trkpt lat="44.10981" lon="6.90541">
        <ele>1087.8000488281</ele>
        <time>2019-08-03T08:30:07.000Z</time>
      </trkpt>
      <trkpt lat="44.10979" lon="6.90542">
        <ele>1088.5999755859</ele>
        <time>2019-08-03T08:30:12.000Z</time>
      </trkpt>
      <trkpt lat="44.10977" lon="6.90543">
        <ele>1088.4000244141</ele>
        <time>2019-08-03T08:30:15.000Z</time>
      </trkpt>
      <trkpt lat="44.10976" lon="6.90543">
        <ele>1088.4000244141</ele>
        <time>2019-08-03T08:30:17.000Z</time>
      </trkpt>
      <trkpt lat="44.10975" lon="6.90542">
        <ele>1088.5999755859</ele>
        <time>2019-08-03T08:30:18.000Z</time>
      </trkpt>
      <trkpt lat="44.10973" lon="6.90543">
        <ele>1088.8000488281</ele>
        <time>2019-08-03T08:30:20.000Z</time>
      </trkpt>
      <trkpt lat="44.10972" lon="6.90544">
        <ele>1089</ele>
        <time>2019-08-03T08:30:21.000Z</time>
      </trkpt>
      <trkpt lat="44.10971" lon="6.90544">
        <ele>1089.1999511719</ele>
        <time>2019-08-03T08:30:22.000Z</time>
      </trkpt>
      <trkpt lat="44.10969" lon="6.90549">
        <ele>1089.1999511719</ele>
        <time>2019-08-03T08:30:25.000Z</time>
      </trkpt>
      <trkpt lat="44.10969" lon="6.90558">
        <ele>1089.4000244141</ele>
        <time>2019-08-03T08:30:31.000Z</time>
      </trkpt>
      <trkpt lat="44.10966" lon="6.90569">
        <ele>1090</ele>
        <time>2019-08-03T08:30:38.000Z</time>
      </trkpt>
      <trkpt lat="44.10966" lon="6.9057">
        <ele>1090.1999511719</ele>
        <time>2019-08-03T08:30:39.000Z</time>
      </trkpt>
      <trkpt lat="44.10964" lon="6.90574">
        <ele>1091</ele>
        <time>2019-08-03T08:30:44.000Z</time>
      </trkpt>
      <trkpt lat="44.10964" lon="6.90575">
        <ele>1091.5999755859</ele>
        <time>2019-08-03T08:30:47.000Z</time>
      </trkpt>
      <trkpt lat="44.10962" lon="6.90578">
        <ele>1091.5999755859</ele>
        <time>2019-08-03T08:30:55.000Z</time>
      </trkpt>
      <trkpt lat="44.10961" lon="6.9058">
        <ele>1092</ele>
        <time>2019-08-03T08:31:00.000Z</time>
      </trkpt>
      <trkpt lat="44.1096" lon="6.90581">
        <ele>1092.1999511719</ele>
        <time>2019-08-03T08:31:01.000Z</time>
      </trkpt>
      <trkpt lat="44.10954" lon="6.90588">
        <ele>1092.8000488281</ele>
        <time>2019-08-03T08:31:06.000Z</time>
      </trkpt>
      <trkpt lat="44.10952" lon="6.90592">
        <ele>1093.1999511719</ele>
        <time>2019-08-03T08:31:08.000Z</time>
      </trkpt>
      <trkpt lat="44.1095" lon="6.906">
        <ele>1093.4000244141</ele>
        <time>2019-08-03T08:31:12.000Z</time>
      </trkpt>
      <trkpt lat="44.1095" lon="6.90602">
        <ele>1093.4000244141</ele>
        <time>2019-08-03T08:31:13.000Z</time>
      </trkpt>
      <trkpt lat="44.1095" lon="6.90608">
        <ele>1094.1999511719</ele>
        <time>2019-08-03T08:31:16.000Z</time>
      </trkpt>
      <trkpt lat="44.1095" lon="6.90609">
        <ele>1094.5999755859</ele>
        <time>2019-08-03T08:31:17.000Z</time>
      </trkpt>
      <trkpt lat="44.1095" lon="6.90611">
        <ele>1095.4000244141</ele>
        <time>2019-08-03T08:31:19.000Z</time>
      </trkpt>
      <trkpt lat="44.10951" lon="6.90617">
        <ele>1096.5999755859</ele>
        <time>2019-08-03T08:31:23.000Z</time>
      </trkpt>
      <trkpt lat="44.10951" lon="6.90623">
        <ele>1097.5999755859</ele>
        <time>2019-08-03T08:31:28.000Z</time>
      </trkpt>
      <trkpt lat="44.10951" lon="6.90624">
        <ele>1097.8000488281</ele>
        <time>2019-08-03T08:31:29.000Z</time>
      </trkpt>
      <trkpt lat="44.10951" lon="6.90626">
        <ele>1098</ele>
        <time>2019-08-03T08:31:30.000Z</time>
      </trkpt>
      <trkpt lat="44.1095" lon="6.90631">
        <ele>1098.4000244141</ele>
        <time>2019-08-03T08:31:33.000Z</time>
      </trkpt>
      <trkpt lat="44.10949" lon="6.90634">
        <ele>1098.5999755859</ele>
        <time>2019-08-03T08:31:35.000Z</time>
      </trkpt>
      <trkpt lat="44.10944" lon="6.90638">
        <ele>1099.1999511719</ele>
        <time>2019-08-03T08:31:39.000Z</time>
      </trkpt>
      <trkpt lat="44.10941" lon="6.90641">
        <ele>1099.5999755859</ele>
        <time>2019-08-03T08:31:42.000Z</time>
      </trkpt>
      <trkpt lat="44.10938" lon="6.90643">
        <ele>1100.4000244141</ele>
        <time>2019-08-03T08:31:45.000Z</time>
      </trkpt>
      <trkpt lat="44.10937" lon="6.90645">
        <ele>1100.8000488281</ele>
        <time>2019-08-03T08:31:47.000Z</time>
      </trkpt>
      <trkpt lat="44.10935" lon="6.90647">
        <ele>1101.1999511719</ele>
        <time>2019-08-03T08:31:49.000Z</time>
      </trkpt>
      <trkpt lat="44.10932" lon="6.90647">
        <ele>1101.4000244141</ele>
        <time>2019-08-03T08:31:51.000Z</time>
      </trkpt>
      <trkpt lat="44.10928" lon="6.90648">
        <ele>1102</ele>
        <time>2019-08-03T08:31:55.000Z</time>
      </trkpt>
      <trkpt lat="44.10924" lon="6.90653">
        <ele>1103</ele>
        <time>2019-08-03T08:32:00.000Z</time>
      </trkpt>
      <trkpt lat="44.10923" lon="6.90654">
        <ele>1103.1999511719</ele>
        <time>2019-08-03T08:32:01.000Z</time>
      </trkpt>
      <trkpt lat="44.1092" lon="6.90658">
        <ele>1104.1999511719</ele>
        <time>2019-08-03T08:32:05.000Z</time>
      </trkpt>
      <trkpt lat="44.10917" lon="6.9066">
        <ele>1104.5999755859</ele>
        <time>2019-08-03T08:32:08.000Z</time>
      </trkpt>
      <trkpt lat="44.10912" lon="6.90664">
        <ele>1105.1999511719</ele>
        <time>2019-08-03T08:32:14.000Z</time>
      </trkpt>
      <trkpt lat="44.10911" lon="6.90665">
        <ele>1105.4000244141</ele>
        <time>2019-08-03T08:32:15.000Z</time>
      </trkpt>
      <trkpt lat="44.10906" lon="6.90669">
        <ele>1106.4000244141</ele>
        <time>2019-08-03T08:32:20.000Z</time>
      </trkpt>
      <trkpt lat="44.10906" lon="6.9067">
        <ele>1106.5999755859</ele>
        <time>2019-08-03T08:32:21.000Z</time>
      </trkpt>
      <trkpt lat="44.109" lon="6.90672">
        <ele>1107.5999755859</ele>
        <time>2019-08-03T08:32:26.000Z</time>
      </trkpt>
      <trkpt lat="44.10893" lon="6.90666">
        <ele>1108.8000488281</ele>
        <time>2019-08-03T08:32:32.000Z</time>
      </trkpt>
      <trkpt lat="44.10892" lon="6.90666">
        <ele>1109</ele>
        <time>2019-08-03T08:32:34.000Z</time>
      </trkpt>
      <trkpt lat="44.1089" lon="6.90665">
        <ele>1109.1999511719</ele>
        <time>2019-08-03T08:32:36.000Z</time>
      </trkpt>
      <trkpt lat="44.10888" lon="6.90664">
        <ele>1109.4000244141</ele>
        <time>2019-08-03T08:32:38.000Z</time>
      </trkpt>
      <trkpt lat="44.10886" lon="6.90663">
        <ele>1110</ele>
        <time>2019-08-03T08:32:40.000Z</time>
      </trkpt>
      <trkpt lat="44.10884" lon="6.90662">
        <ele>1110.4000244141</ele>
        <time>2019-08-03T08:32:42.000Z</time>
      </trkpt>
      <trkpt lat="44.10883" lon="6.90661">
        <ele>1110.4000244141</ele>
        <time>2019-08-03T08:32:43.000Z</time>
      </trkpt>
      <trkpt lat="44.10881" lon="6.90658">
        <ele>1111</ele>
        <time>2019-08-03T08:32:46.000Z</time>
      </trkpt>
      <trkpt lat="44.10877" lon="6.90655">
        <ele>1111.5999755859</ele>
        <time>2019-08-03T08:32:50.000Z</time>
      </trkpt>
      <trkpt lat="44.10874" lon="6.90651">
        <ele>1112</ele>
        <time>2019-08-03T08:32:54.000Z</time>
      </trkpt>
      <trkpt lat="44.10872" lon="6.90649">
        <ele>1112.4000244141</ele>
        <time>2019-08-03T08:32:56.000Z</time>
      </trkpt>
      <trkpt lat="44.10871" lon="6.90648">
        <ele>1112.5999755859</ele>
        <time>2019-08-03T08:32:58.000Z</time>
      </trkpt>
      <trkpt lat="44.10869" lon="6.9065">
        <ele>1113</ele>
        <time>2019-08-03T08:33:01.000Z</time>
      </trkpt>
      <trkpt lat="44.10869" lon="6.90651">
        <ele>1113.1999511719</ele>
        <time>2019-08-03T08:33:02.000Z</time>
      </trkpt>
      <trkpt lat="44.1087" lon="6.90652">
        <ele>1113.1999511719</ele>
        <time>2019-08-03T08:33:03.000Z</time>
      </trkpt>
      <trkpt lat="44.10871" lon="6.90659">
        <ele>1113.8000488281</ele>
        <time>2019-08-03T08:33:07.000Z</time>
      </trkpt>
      <trkpt lat="44.10873" lon="6.90664">
        <ele>1114</ele>
        <time>2019-08-03T08:33:10.000Z</time>
      </trkpt>
      <trkpt lat="44.10873" lon="6.90669">
        <ele>1114.8000488281</ele>
        <time>2019-08-03T08:33:13.000Z</time>
      </trkpt>
      <trkpt lat="44.10874" lon="6.90673">
        <ele>1115.1999511719</ele>
        <time>2019-08-03T08:33:15.000Z</time>
      </trkpt>
      <trkpt lat="44.10874" lon="6.90679">
        <ele>1116.1999511719</ele>
        <time>2019-08-03T08:33:19.000Z</time>
      </trkpt>
      <trkpt lat="44.10875" lon="6.90681">
        <ele>1116.4000244141</ele>
        <time>2019-08-03T08:33:20.000Z</time>
      </trkpt>
      <trkpt lat="44.10877" lon="6.90687">
        <ele>1117.1999511719</ele>
        <time>2019-08-03T08:33:25.000Z</time>
      </trkpt>
      <trkpt lat="44.10878" lon="6.90688">
        <ele>1117.1999511719</ele>
        <time>2019-08-03T08:33:26.000Z</time>
      </trkpt>
      <trkpt lat="44.10879" lon="6.90689">
        <ele>1117.5999755859</ele>
        <time>2019-08-03T08:33:28.000Z</time>
      </trkpt>
      <trkpt lat="44.10882" lon="6.90693">
        <ele>1118</ele>
        <time>2019-08-03T08:33:31.000Z</time>
      </trkpt>
      <trkpt lat="44.10884" lon="6.90696">
        <ele>1118.4000244141</ele>
        <time>2019-08-03T08:33:34.000Z</time>
      </trkpt>
      <trkpt lat="44.10884" lon="6.90698">
        <ele>1118.5999755859</ele>
        <time>2019-08-03T08:33:35.000Z</time>
      </trkpt>
      <trkpt lat="44.10886" lon="6.90703">
        <ele>1119.1999511719</ele>
        <time>2019-08-03T08:33:39.000Z</time>
      </trkpt>
      <trkpt lat="44.10886" lon="6.90707">
        <ele>1119.4000244141</ele>
        <time>2019-08-03T08:33:41.000Z</time>
      </trkpt>
      <trkpt lat="44.10886" lon="6.90708">
        <ele>1119.5999755859</ele>
        <time>2019-08-03T08:33:42.000Z</time>
      </trkpt>
      <trkpt lat="44.10886" lon="6.90714">
        <ele>1120.1999511719</ele>
        <time>2019-08-03T08:33:45.000Z</time>
      </trkpt>
      <trkpt lat="44.10885" lon="6.90715">
        <ele>1120.4000244141</ele>
        <time>2019-08-03T08:33:46.000Z</time>
      </trkpt>
      <trkpt lat="44.10885" lon="6.90717">
        <ele>1120.5999755859</ele>
        <time>2019-08-03T08:33:47.000Z</time>
      </trkpt>
      <trkpt lat="44.10884" lon="6.90721">
        <ele>1121.4000244141</ele>
        <time>2019-08-03T08:33:50.000Z</time>
      </trkpt>
      <trkpt lat="44.10885" lon="6.90725">
        <ele>1122</ele>
        <time>2019-08-03T08:33:52.000Z</time>
      </trkpt>
      <trkpt lat="44.10886" lon="6.90728">
        <ele>1122.4000244141</ele>
        <time>2019-08-03T08:33:54.000Z</time>
      </trkpt>
      <trkpt lat="44.10887" lon="6.90731">
        <ele>1122.5999755859</ele>
        <time>2019-08-03T08:33:56.000Z</time>
      </trkpt>
      <trkpt lat="44.10888" lon="6.90736">
        <ele>1123.1999511719</ele>
        <time>2019-08-03T08:33:59.000Z</time>
      </trkpt>
      <trkpt lat="44.10891" lon="6.90742">
        <ele>1124.1999511719</ele>
        <time>2019-08-03T08:34:03.000Z</time>
      </trkpt>
      <trkpt lat="44.10891" lon="6.90744">
        <ele>1124.1999511719</ele>
        <time>2019-08-03T08:34:04.000Z</time>
      </trkpt>
      <trkpt lat="44.10894" lon="6.90749">
        <ele>1124.5999755859</ele>
        <time>2019-08-03T08:34:08.000Z</time>
      </trkpt>
      <trkpt lat="44.10895" lon="6.9075">
        <ele>1124.8000488281</ele>
        <time>2019-08-03T08:34:09.000Z</time>
      </trkpt>
      <trkpt lat="44.10897" lon="6.90754">
        <ele>1125.4000244141</ele>
        <time>2019-08-03T08:34:12.000Z</time>
      </trkpt>
      <trkpt lat="44.109" lon="6.9076">
        <ele>1126</ele>
        <time>2019-08-03T08:34:16.000Z</time>
      </trkpt>
      <trkpt lat="44.109" lon="6.90761">
        <ele>1126.4000244141</ele>
        <time>2019-08-03T08:34:17.000Z</time>
      </trkpt>
      <trkpt lat="44.10901" lon="6.90762">
        <ele>1126.5999755859</ele>
        <time>2019-08-03T08:34:18.000Z</time>
      </trkpt>
      <trkpt lat="44.10903" lon="6.90767">
        <ele>1127.4000244141</ele>
        <time>2019-08-03T08:34:22.000Z</time>
      </trkpt>
      <trkpt lat="44.10905" lon="6.9077">
        <ele>1127.5999755859</ele>
        <time>2019-08-03T08:34:24.000Z</time>
      </trkpt>
      <trkpt lat="44.10908" lon="6.90777">
        <ele>1128.5999755859</ele>
        <time>2019-08-03T08:34:29.000Z</time>
      </trkpt>
      <trkpt lat="44.10909" lon="6.90778">
        <ele>1128.8000488281</ele>
        <time>2019-08-03T08:34:30.000Z</time>
      </trkpt>
      <trkpt lat="44.10911" lon="6.90783">
        <ele>1129.4000244141</ele>
        <time>2019-08-03T08:34:34.000Z</time>
      </trkpt>
      <trkpt lat="44.10913" lon="6.90786">
        <ele>1129.8000488281</ele>
        <time>2019-08-03T08:34:37.000Z</time>
      </trkpt>
      <trkpt lat="44.10914" lon="6.9079">
        <ele>1130</ele>
        <time>2019-08-03T08:34:39.000Z</time>
      </trkpt>
      <trkpt lat="44.10913" lon="6.90791">
        <ele>1130.1999511719</ele>
        <time>2019-08-03T08:34:40.000Z</time>
      </trkpt>
      <trkpt lat="44.1091" lon="6.9079">
        <ele>1130.8000488281</ele>
        <time>2019-08-03T08:34:43.000Z</time>
      </trkpt>
      <trkpt lat="44.10909" lon="6.90789">
        <ele>1131.4000244141</ele>
        <time>2019-08-03T08:34:45.000Z</time>
      </trkpt>
      <trkpt lat="44.10907" lon="6.90787">
        <ele>1131.8000488281</ele>
        <time>2019-08-03T08:34:47.000Z</time>
      </trkpt>
      <trkpt lat="44.10905" lon="6.90786">
        <ele>1132.1999511719</ele>
        <time>2019-08-03T08:34:50.000Z</time>
      </trkpt>
      <trkpt lat="44.10903" lon="6.90784">
        <ele>1132.5999755859</ele>
        <time>2019-08-03T08:34:52.000Z</time>
      </trkpt>
      <trkpt lat="44.10902" lon="6.90784">
        <ele>1132.8000488281</ele>
        <time>2019-08-03T08:34:54.000Z</time>
      </trkpt>
      <trkpt lat="44.109" lon="6.90783">
        <ele>1133.1999511719</ele>
        <time>2019-08-03T08:34:57.000Z</time>
      </trkpt>
      <trkpt lat="44.10899" lon="6.90783">
        <ele>1133.4000244141</ele>
        <time>2019-08-03T08:34:58.000Z</time>
      </trkpt>
      <trkpt lat="44.10897" lon="6.90781">
        <ele>1134</ele>
        <time>2019-08-03T08:35:01.000Z</time>
      </trkpt>
      <trkpt lat="44.10895" lon="6.9078">
        <ele>1134.4000244141</ele>
        <time>2019-08-03T08:35:03.000Z</time>
      </trkpt>
      <trkpt lat="44.10892" lon="6.90778">
        <ele>1135</ele>
        <time>2019-08-03T08:35:06.000Z</time>
      </trkpt>
      <trkpt lat="44.10891" lon="6.90778">
        <ele>1135.1999511719</ele>
        <time>2019-08-03T08:35:07.000Z</time>
      </trkpt>
      <trkpt lat="44.1089" lon="6.90778">
        <ele>1135.4000244141</ele>
        <time>2019-08-03T08:35:08.000Z</time>
      </trkpt>
      <trkpt lat="44.10886" lon="6.90776">
        <ele>1136.4000244141</ele>
        <time>2019-08-03T08:35:12.000Z</time>
      </trkpt>
      <trkpt lat="44.10884" lon="6.90774">
        <ele>1136.5999755859</ele>
        <time>2019-08-03T08:35:14.000Z</time>
      </trkpt>
      <trkpt lat="44.1088" lon="6.90773">
        <ele>1137.4000244141</ele>
        <time>2019-08-03T08:35:18.000Z</time>
      </trkpt>
      <trkpt lat="44.1088" lon="6.90772">
        <ele>1137.5999755859</ele>
        <time>2019-08-03T08:35:19.000Z</time>
      </trkpt>
      <trkpt lat="44.10876" lon="6.90769">
        <ele>1138.5999755859</ele>
        <time>2019-08-03T08:35:24.000Z</time>
      </trkpt>
      <trkpt lat="44.10876" lon="6.90768">
        <ele>1138.8000488281</ele>
        <time>2019-08-03T08:35:25.000Z</time>
      </trkpt>
      <trkpt lat="44.10875" lon="6.90766">
        <ele>1138.8000488281</ele>
        <time>2019-08-03T08:35:26.000Z</time>
      </trkpt>
      <trkpt lat="44.10875" lon="6.90759">
        <ele>1139.4000244141</ele>
        <time>2019-08-03T08:35:30.000Z</time>
      </trkpt>
      <trkpt lat="44.10875" lon="6.90759">
        <ele>1139.5999755859</ele>
        <time>2019-08-03T08:35:31.000Z</time>
      </trkpt>
      <trkpt lat="44.10874" lon="6.90755">
        <ele>1140</ele>
        <time>2019-08-03T08:35:34.000Z</time>
      </trkpt>
      <trkpt lat="44.10873" lon="6.90751">
        <ele>1140.8000488281</ele>
        <time>2019-08-03T08:35:37.000Z</time>
      </trkpt>
      <trkpt lat="44.10872" lon="6.90748">
        <ele>1141</ele>
        <time>2019-08-03T08:35:39.000Z</time>
      </trkpt>
      <trkpt lat="44.10872" lon="6.90746">
        <ele>1141.1999511719</ele>
        <time>2019-08-03T08:35:40.000Z</time>
      </trkpt>
      <trkpt lat="44.1087" lon="6.90742">
        <ele>1141.5999755859</ele>
        <time>2019-08-03T08:35:43.000Z</time>
      </trkpt>
      <trkpt lat="44.10869" lon="6.90741">
        <ele>1141.8000488281</ele>
        <time>2019-08-03T08:35:44.000Z</time>
      </trkpt>
      <trkpt lat="44.10866" lon="6.90738">
        <ele>1142.4000244141</ele>
        <time>2019-08-03T08:35:47.000Z</time>
      </trkpt>
      <trkpt lat="44.10862" lon="6.90736">
        <ele>1143</ele>
        <time>2019-08-03T08:35:50.000Z</time>
      </trkpt>
      <trkpt lat="44.10859" lon="6.90735">
        <ele>1143.5999755859</ele>
        <time>2019-08-03T08:35:53.000Z</time>
      </trkpt>
      <trkpt lat="44.10857" lon="6.90734">
        <ele>1144.1999511719</ele>
        <time>2019-08-03T08:35:55.000Z</time>
      </trkpt>
      <trkpt lat="44.10856" lon="6.90734">
        <ele>1144.1999511719</ele>
        <time>2019-08-03T08:35:56.000Z</time>
      </trkpt>
      <trkpt lat="44.10854" lon="6.90732">
        <ele>1144.5999755859</ele>
        <time>2019-08-03T08:35:58.000Z</time>
      </trkpt>
      <trkpt lat="44.10853" lon="6.90728">
        <ele>1145.1999511719</ele>
        <time>2019-08-03T08:36:01.000Z</time>
      </trkpt>
      <trkpt lat="44.10851" lon="6.90725">
        <ele>1145.8000488281</ele>
        <time>2019-08-03T08:36:03.000Z</time>
      </trkpt>
      <trkpt lat="44.10849" lon="6.90722">
        <ele>1146.4000244141</ele>
        <time>2019-08-03T08:36:05.000Z</time>
      </trkpt>
      <trkpt lat="44.10846" lon="6.90716">
        <ele>1147</ele>
        <time>2019-08-03T08:36:09.000Z</time>
      </trkpt>
      <trkpt lat="44.10843" lon="6.90714">
        <ele>1147.1999511719</ele>
        <time>2019-08-03T08:36:11.000Z</time>
      </trkpt>
      <trkpt lat="44.10841" lon="6.90711">
        <ele>1147.5999755859</ele>
        <time>2019-08-03T08:36:13.000Z</time>
      </trkpt>
      <trkpt lat="44.10837" lon="6.90708">
        <ele>1148.4000244141</ele>
        <time>2019-08-03T08:36:16.000Z</time>
      </trkpt>
      <trkpt lat="44.10836" lon="6.90707">
        <ele>1148.5999755859</ele>
        <time>2019-08-03T08:36:17.000Z</time>
      </trkpt>
      <trkpt lat="44.10835" lon="6.90707">
        <ele>1148.5999755859</ele>
        <time>2019-08-03T08:36:18.000Z</time>
      </trkpt>
      <trkpt lat="44.10829" lon="6.90703">
        <ele>1149.8000488281</ele>
        <time>2019-08-03T08:36:23.000Z</time>
      </trkpt>
      <trkpt lat="44.10826" lon="6.907">
        <ele>1150</ele>
        <time>2019-08-03T08:36:25.000Z</time>
      </trkpt>
      <trkpt lat="44.10824" lon="6.90697">
        <ele>1150.5999755859</ele>
        <time>2019-08-03T08:36:28.000Z</time>
      </trkpt>
      <trkpt lat="44.10823" lon="6.90696">
        <ele>1150.8000488281</ele>
        <time>2019-08-03T08:36:29.000Z</time>
      </trkpt>
      <trkpt lat="44.10818" lon="6.90691">
        <ele>1152</ele>
        <time>2019-08-03T08:36:33.000Z</time>
      </trkpt>
      <trkpt lat="44.10817" lon="6.90689">
        <ele>1152.1999511719</ele>
        <time>2019-08-03T08:36:34.000Z</time>
      </trkpt>
      <trkpt lat="44.10815" lon="6.90688">
        <ele>1152.1999511719</ele>
        <time>2019-08-03T08:36:35.000Z</time>
      </trkpt>
      <trkpt lat="44.1081" lon="6.90684">
        <ele>1153</ele>
        <time>2019-08-03T08:36:39.000Z</time>
      </trkpt>
      <trkpt lat="44.10808" lon="6.90682">
        <ele>1153.4000244141</ele>
        <time>2019-08-03T08:36:41.000Z</time>
      </trkpt>
      <trkpt lat="44.10804" lon="6.9068">
        <ele>1154</ele>
        <time>2019-08-03T08:36:44.000Z</time>
      </trkpt>
      <trkpt lat="44.10799" lon="6.90676">
        <ele>1154.8000488281</ele>
        <time>2019-08-03T08:36:48.000Z</time>
      </trkpt>
      <trkpt lat="44.10797" lon="6.90675">
        <ele>1155</ele>
        <time>2019-08-03T08:36:50.000Z</time>
      </trkpt>
      <trkpt lat="44.10793" lon="6.90674">
        <ele>1155.5999755859</ele>
        <time>2019-08-03T08:36:53.000Z</time>
      </trkpt>
      <trkpt lat="44.10792" lon="6.90674">
        <ele>1155.8000488281</ele>
        <time>2019-08-03T08:36:54.000Z</time>
      </trkpt>
      <trkpt lat="44.10789" lon="6.90674">
        <ele>1156.1999511719</ele>
        <time>2019-08-03T08:36:56.000Z</time>
      </trkpt>
      <trkpt lat="44.10783" lon="6.90676">
        <ele>1156.5999755859</ele>
        <time>2019-08-03T08:37:00.000Z</time>
      </trkpt>
      <trkpt lat="44.1078" lon="6.90677">
        <ele>1157.1999511719</ele>
        <time>2019-08-03T08:37:02.000Z</time>
      </trkpt>
      <trkpt lat="44.10774" lon="6.90681">
        <ele>1158.1999511719</ele>
        <time>2019-08-03T08:37:06.000Z</time>
      </trkpt>
      <trkpt lat="44.10773" lon="6.90681">
        <ele>1158.4000244141</ele>
        <time>2019-08-03T08:37:07.000Z</time>
      </trkpt>
      <trkpt lat="44.10769" lon="6.90685">
        <ele>1159.4000244141</ele>
        <time>2019-08-03T08:37:11.000Z</time>
      </trkpt>
      <trkpt lat="44.10766" lon="6.90688">
        <ele>1160.1999511719</ele>
        <time>2019-08-03T08:37:14.000Z</time>
      </trkpt>
      <trkpt lat="44.10763" lon="6.9069">
        <ele>1160.4000244141</ele>
        <time>2019-08-03T08:37:17.000Z</time>
      </trkpt>
      <trkpt lat="44.10759" lon="6.90691">
        <ele>1161</ele>
        <time>2019-08-03T08:37:20.000Z</time>
      </trkpt>
      <trkpt lat="44.10755" lon="6.90688">
        <ele>1161.5999755859</ele>
        <time>2019-08-03T08:37:24.000Z</time>
      </trkpt>
      <trkpt lat="44.10754" lon="6.90687">
        <ele>1161.5999755859</ele>
        <time>2019-08-03T08:37:25.000Z</time>
      </trkpt>
      <trkpt lat="44.10751" lon="6.9068">
        <ele>1162.5999755859</ele>
        <time>2019-08-03T08:37:29.000Z</time>
      </trkpt>
      <trkpt lat="44.1075" lon="6.90679">
        <ele>1162.8000488281</ele>
        <time>2019-08-03T08:37:30.000Z</time>
      </trkpt>
      <trkpt lat="44.10747" lon="6.9067">
        <ele>1163.8000488281</ele>
        <time>2019-08-03T08:37:34.000Z</time>
      </trkpt>
      <trkpt lat="44.10745" lon="6.90669">
        <ele>1164</ele>
        <time>2019-08-03T08:37:35.000Z</time>
      </trkpt>
      <trkpt lat="44.10743" lon="6.90668">
        <ele>1164.1999511719</ele>
        <time>2019-08-03T08:37:37.000Z</time>
      </trkpt>
      <trkpt lat="44.10738" lon="6.90666">
        <ele>1164.5999755859</ele>
        <time>2019-08-03T08:37:40.000Z</time>
      </trkpt>
      <trkpt lat="44.10737" lon="6.90665">
        <ele>1165</ele>
        <time>2019-08-03T08:37:41.000Z</time>
      </trkpt>
      <trkpt lat="44.1073" lon="6.90665">
        <ele>1165.8000488281</ele>
        <time>2019-08-03T08:37:46.000Z</time>
      </trkpt>
      <trkpt lat="44.10729" lon="6.90665">
        <ele>1166</ele>
        <time>2019-08-03T08:37:47.000Z</time>
      </trkpt>
      <trkpt lat="44.1072" lon="6.90664">
        <ele>1166.8000488281</ele>
        <time>2019-08-03T08:37:53.000Z</time>
      </trkpt>
      <trkpt lat="44.10719" lon="6.90663">
        <ele>1167</ele>
        <time>2019-08-03T08:37:54.000Z</time>
      </trkpt>
      <trkpt lat="44.10713" lon="6.90662">
        <ele>1168</ele>
        <time>2019-08-03T08:37:59.000Z</time>
      </trkpt>
      <trkpt lat="44.10706" lon="6.90667">
        <ele>1168.8000488281</ele>
        <time>2019-08-03T08:38:06.000Z</time>
      </trkpt>
      <trkpt lat="44.10703" lon="6.90669">
        <ele>1169.1999511719</ele>
        <time>2019-08-03T08:38:09.000Z</time>
      </trkpt>
      <trkpt lat="44.10697" lon="6.90668">
        <ele>1170</ele>
        <time>2019-08-03T08:38:13.000Z</time>
      </trkpt>
      <trkpt lat="44.10693" lon="6.90666">
        <ele>1170.4000244141</ele>
        <time>2019-08-03T08:38:16.000Z</time>
      </trkpt>
      <trkpt lat="44.10692" lon="6.90666">
        <ele>1170.5999755859</ele>
        <time>2019-08-03T08:38:17.000Z</time>
      </trkpt>
      <trkpt lat="44.10684" lon="6.90665">
        <ele>1171.4000244141</ele>
        <time>2019-08-03T08:38:23.000Z</time>
      </trkpt>
      <trkpt lat="44.10681" lon="6.90663">
        <ele>1172</ele>
        <time>2019-08-03T08:38:26.000Z</time>
      </trkpt>
      <trkpt lat="44.10679" lon="6.90662">
        <ele>1172.5999755859</ele>
        <time>2019-08-03T08:38:28.000Z</time>
      </trkpt>
      <trkpt lat="44.10676" lon="6.9066">
        <ele>1173</ele>
        <time>2019-08-03T08:38:31.000Z</time>
      </trkpt>
      <trkpt lat="44.10673" lon="6.90658">
        <ele>1173.4000244141</ele>
        <time>2019-08-03T08:38:33.000Z</time>
      </trkpt>
      <trkpt lat="44.10671" lon="6.90654">
        <ele>1173.5999755859</ele>
        <time>2019-08-03T08:38:35.000Z</time>
      </trkpt>
      <trkpt lat="44.10667" lon="6.9065">
        <ele>1174</ele>
        <time>2019-08-03T08:38:39.000Z</time>
      </trkpt>
      <trkpt lat="44.10663" lon="6.90646">
        <ele>1174.8000488281</ele>
        <time>2019-08-03T08:38:43.000Z</time>
      </trkpt>
      <trkpt lat="44.1066" lon="6.90645">
        <ele>1175</ele>
        <time>2019-08-03T08:38:46.000Z</time>
      </trkpt>
      <trkpt lat="44.10654" lon="6.90643">
        <ele>1175.8000488281</ele>
        <time>2019-08-03T08:38:51.000Z</time>
      </trkpt>
      <trkpt lat="44.10651" lon="6.90641">
        <ele>1176.1999511719</ele>
        <time>2019-08-03T08:38:53.000Z</time>
      </trkpt>
      <trkpt lat="44.10648" lon="6.90642">
        <ele>1176.5999755859</ele>
        <time>2019-08-03T08:38:55.000Z</time>
      </trkpt>
      <trkpt lat="44.10647" lon="6.90642">
        <ele>1176.8000488281</ele>
        <time>2019-08-03T08:38:56.000Z</time>
      </trkpt>
      <trkpt lat="44.10645" lon="6.90643">
        <ele>1177</ele>
        <time>2019-08-03T08:38:58.000Z</time>
      </trkpt>
      <trkpt lat="44.10642" lon="6.90643">
        <ele>1177.8000488281</ele>
        <time>2019-08-03T08:39:00.000Z</time>
      </trkpt>
      <trkpt lat="44.10641" lon="6.90644">
        <ele>1178</ele>
        <time>2019-08-03T08:39:01.000Z</time>
      </trkpt>
      <trkpt lat="44.10635" lon="6.90646">
        <ele>1179.1999511719</ele>
        <time>2019-08-03T08:39:06.000Z</time>
      </trkpt>
      <trkpt lat="44.10634" lon="6.90647">
        <ele>1179.4000244141</ele>
        <time>2019-08-03T08:39:07.000Z</time>
      </trkpt>
      <trkpt lat="44.10627" lon="6.90647">
        <ele>1180.1999511719</ele>
        <time>2019-08-03T08:39:12.000Z</time>
      </trkpt>
      <trkpt lat="44.10625" lon="6.90647">
        <ele>1180.5999755859</ele>
        <time>2019-08-03T08:39:14.000Z</time>
      </trkpt>
      <trkpt lat="44.10622" lon="6.90644">
        <ele>1181.4000244141</ele>
        <time>2019-08-03T08:39:18.000Z</time>
      </trkpt>
      <trkpt lat="44.10621" lon="6.90641">
        <ele>1181.5999755859</ele>
        <time>2019-08-03T08:39:20.000Z</time>
      </trkpt>
      <trkpt lat="44.10618" lon="6.90637">
        <ele>1182.5999755859</ele>
        <time>2019-08-03T08:39:24.000Z</time>
      </trkpt>
      <trkpt lat="44.10617" lon="6.90635">
        <ele>1182.8000488281</ele>
        <time>2019-08-03T08:39:25.000Z</time>
      </trkpt>
      <trkpt lat="44.10614" lon="6.90631">
        <ele>1183.5999755859</ele>
        <time>2019-08-03T08:39:29.000Z</time>
      </trkpt>
      <trkpt lat="44.10613" lon="6.9063">
        <ele>1184</ele>
        <time>2019-08-03T08:39:31.000Z</time>
      </trkpt>
      <trkpt lat="44.10607" lon="6.90624">
        <ele>1184.5999755859</ele>
        <time>2019-08-03T08:39:36.000Z</time>
      </trkpt>
      <trkpt lat="44.10605" lon="6.90622">
        <ele>1185</ele>
        <time>2019-08-03T08:39:38.000Z</time>
      </trkpt>
      <trkpt lat="44.10603" lon="6.90621">
        <ele>1185.4000244141</ele>
        <time>2019-08-03T08:39:40.000Z</time>
      </trkpt>
      <trkpt lat="44.10602" lon="6.9062">
        <ele>1185.5999755859</ele>
        <time>2019-08-03T08:39:41.000Z</time>
      </trkpt>
      <trkpt lat="44.106" lon="6.90618">
        <ele>1186.1999511719</ele>
        <time>2019-08-03T08:39:43.000Z</time>
      </trkpt>
      <trkpt lat="44.10599" lon="6.90615">
        <ele>1186.4000244141</ele>
        <time>2019-08-03T08:39:45.000Z</time>
      </trkpt>
      <trkpt lat="44.10598" lon="6.90615">
        <ele>1186.8000488281</ele>
        <time>2019-08-03T08:39:46.000Z</time>
      </trkpt>
      <trkpt lat="44.10596" lon="6.90613">
        <ele>1187</ele>
        <time>2019-08-03T08:39:48.000Z</time>
      </trkpt>
      <trkpt lat="44.10593" lon="6.90609">
        <ele>1187.8000488281</ele>
        <time>2019-08-03T08:39:52.000Z</time>
      </trkpt>
      <trkpt lat="44.1059" lon="6.90605">
        <ele>1188.1999511719</ele>
        <time>2019-08-03T08:39:55.000Z</time>
      </trkpt>
      <trkpt lat="44.10589" lon="6.90605">
        <ele>1188.1999511719</ele>
        <time>2019-08-03T08:39:56.000Z</time>
      </trkpt>
      <trkpt lat="44.10587" lon="6.90602">
        <ele>1188.8000488281</ele>
        <time>2019-08-03T08:39:59.000Z</time>
      </trkpt>
      <trkpt lat="44.10585" lon="6.906">
        <ele>1189.1999511719</ele>
        <time>2019-08-03T08:40:01.000Z</time>
      </trkpt>
      <trkpt lat="44.10584" lon="6.90598">
        <ele>1189.5999755859</ele>
        <time>2019-08-03T08:40:03.000Z</time>
      </trkpt>
      <trkpt lat="44.10581" lon="6.90595">
        <ele>1190</ele>
        <time>2019-08-03T08:40:06.000Z</time>
      </trkpt>
      <trkpt lat="44.1058" lon="6.90594">
        <ele>1190.1999511719</ele>
        <time>2019-08-03T08:40:07.000Z</time>
      </trkpt>
      <trkpt lat="44.10575" lon="6.90588">
        <ele>1191</ele>
        <time>2019-08-03T08:40:13.000Z</time>
      </trkpt>
      <trkpt lat="44.10573" lon="6.90587">
        <ele>1191.4000244141</ele>
        <time>2019-08-03T08:40:15.000Z</time>
      </trkpt>
      <trkpt lat="44.10569" lon="6.90583">
        <ele>1192.1999511719</ele>
        <time>2019-08-03T08:40:19.000Z</time>
      </trkpt>
      <trkpt lat="44.10565" lon="6.90579">
        <ele>1192.8000488281</ele>
        <time>2019-08-03T08:40:23.000Z</time>
      </trkpt>
      <trkpt lat="44.10563" lon="6.90578">
        <ele>1193.1999511719</ele>
        <time>2019-08-03T08:40:25.000Z</time>
      </trkpt>
      <trkpt lat="44.10561" lon="6.90577">
        <ele>1193.4000244141</ele>
        <time>2019-08-03T08:40:27.000Z</time>
      </trkpt>
      <trkpt lat="44.10559" lon="6.90576">
        <ele>1193.5999755859</ele>
        <time>2019-08-03T08:40:29.000Z</time>
      </trkpt>
      <trkpt lat="44.10557" lon="6.90575">
        <ele>1193.8000488281</ele>
        <time>2019-08-03T08:40:31.000Z</time>
      </trkpt>
      <trkpt lat="44.10554" lon="6.90575">
        <ele>1194.1999511719</ele>
        <time>2019-08-03T08:40:33.000Z</time>
      </trkpt>
      <trkpt lat="44.1055" lon="6.90574">
        <ele>1195</ele>
        <time>2019-08-03T08:40:37.000Z</time>
      </trkpt>
      <trkpt lat="44.10549" lon="6.90574">
        <ele>1195.1999511719</ele>
        <time>2019-08-03T08:40:38.000Z</time>
      </trkpt>
      <trkpt lat="44.10544" lon="6.90571">
        <ele>1196.4000244141</ele>
        <time>2019-08-03T08:40:43.000Z</time>
      </trkpt>
      <trkpt lat="44.10542" lon="6.9057">
        <ele>1196.5999755859</ele>
        <time>2019-08-03T08:40:45.000Z</time>
      </trkpt>
      <trkpt lat="44.1054" lon="6.90568">
        <ele>1197</ele>
        <time>2019-08-03T08:40:47.000Z</time>
      </trkpt>
      <trkpt lat="44.10535" lon="6.9056">
        <ele>1197.4000244141</ele>
        <time>2019-08-03T08:40:52.000Z</time>
      </trkpt>
      <trkpt lat="44.10533" lon="6.90558">
        <ele>1197.8000488281</ele>
        <time>2019-08-03T08:40:54.000Z</time>
      </trkpt>
      <trkpt lat="44.10526" lon="6.90552">
        <ele>1198.5999755859</ele>
        <time>2019-08-03T08:40:59.000Z</time>
      </trkpt>
      <trkpt lat="44.10522" lon="6.90548">
        <ele>1199.5999755859</ele>
        <time>2019-08-03T08:41:03.000Z</time>
      </trkpt>
      <trkpt lat="44.1052" lon="6.90547">
        <ele>1199.8000488281</ele>
        <time>2019-08-03T08:41:04.000Z</time>
      </trkpt>
      <trkpt lat="44.10515" lon="6.90546">
        <ele>1200.5999755859</ele>
        <time>2019-08-03T08:41:08.000Z</time>
      </trkpt>
      <trkpt lat="44.10514" lon="6.90546">
        <ele>1200.5999755859</ele>
        <time>2019-08-03T08:41:09.000Z</time>
      </trkpt>
      <trkpt lat="44.10514" lon="6.90547">
        <ele>1200.8000488281</ele>
        <time>2019-08-03T08:41:10.000Z</time>
      </trkpt>
      <trkpt lat="44.10516" lon="6.9055">
        <ele>1201.4000244141</ele>
        <time>2019-08-03T08:41:13.000Z</time>
      </trkpt>
      <trkpt lat="44.10517" lon="6.9055">
        <ele>1202</ele>
        <time>2019-08-03T08:41:15.000Z</time>
      </trkpt>
      <trkpt lat="44.10519" lon="6.90553">
        <ele>1203</ele>
        <time>2019-08-03T08:41:19.000Z</time>
      </trkpt>
      <trkpt lat="44.10519" lon="6.90554">
        <ele>1203.1999511719</ele>
        <time>2019-08-03T08:41:20.000Z</time>
      </trkpt>
      <trkpt lat="44.10518" lon="6.90559">
        <ele>1203.8000488281</ele>
        <time>2019-08-03T08:41:24.000Z</time>
      </trkpt>
      <trkpt lat="44.10519" lon="6.90564">
        <ele>1204.4000244141</ele>
        <time>2019-08-03T08:41:28.000Z</time>
      </trkpt>
      <trkpt lat="44.10518" lon="6.90567">
        <ele>1205</ele>
        <time>2019-08-03T08:41:31.000Z</time>
      </trkpt>
      <trkpt lat="44.10518" lon="6.90568">
        <ele>1205.1999511719</ele>
        <time>2019-08-03T08:41:32.000Z</time>
      </trkpt>
      <trkpt lat="44.10518" lon="6.90572">
        <ele>1205.5999755859</ele>
        <time>2019-08-03T08:41:35.000Z</time>
      </trkpt>
      <trkpt lat="44.10518" lon="6.90574">
        <ele>1205.8000488281</ele>
        <time>2019-08-03T08:41:37.000Z</time>
      </trkpt>
      <trkpt lat="44.10518" lon="6.90576">
        <ele>1206</ele>
        <time>2019-08-03T08:41:38.000Z</time>
      </trkpt>
      <trkpt lat="44.10519" lon="6.90581">
        <ele>1206.5999755859</ele>
        <time>2019-08-03T08:41:42.000Z</time>
      </trkpt>
      <trkpt lat="44.10519" lon="6.90582">
        <ele>1206.8000488281</ele>
        <time>2019-08-03T08:41:43.000Z</time>
      </trkpt>
      <trkpt lat="44.10524" lon="6.90585">
        <ele>1207.5999755859</ele>
        <time>2019-08-03T08:41:49.000Z</time>
      </trkpt>
      <trkpt lat="44.10526" lon="6.90588">
        <ele>1208.4000244141</ele>
        <time>2019-08-03T08:41:53.000Z</time>
      </trkpt>
      <trkpt lat="44.10527" lon="6.9059">
        <ele>1208.5999755859</ele>
        <time>2019-08-03T08:41:55.000Z</time>
      </trkpt>
      <trkpt lat="44.1053" lon="6.90595">
        <ele>1209.1999511719</ele>
        <time>2019-08-03T08:41:59.000Z</time>
      </trkpt>
      <trkpt lat="44.10532" lon="6.90601">
        <ele>1209.8000488281</ele>
        <time>2019-08-03T08:42:03.000Z</time>
      </trkpt>
      <trkpt lat="44.10535" lon="6.90605">
        <ele>1210.5999755859</ele>
        <time>2019-08-03T08:42:07.000Z</time>
      </trkpt>
      <trkpt lat="44.10536" lon="6.90608">
        <ele>1211</ele>
        <time>2019-08-03T08:42:09.000Z</time>
      </trkpt>
      <trkpt lat="44.10538" lon="6.90613">
        <ele>1211.8000488281</ele>
        <time>2019-08-03T08:42:14.000Z</time>
      </trkpt>
      <trkpt lat="44.10538" lon="6.90614">
        <ele>1212</ele>
        <time>2019-08-03T08:42:16.000Z</time>
      </trkpt>
      <trkpt lat="44.1054" lon="6.90617">
        <ele>1212.5999755859</ele>
        <time>2019-08-03T08:42:19.000Z</time>
      </trkpt>
      <trkpt lat="44.10541" lon="6.90618">
        <ele>1212.5999755859</ele>
        <time>2019-08-03T08:42:20.000Z</time>
      </trkpt>
      <trkpt lat="44.10543" lon="6.90621">
        <ele>1213.1999511719</ele>
        <time>2019-08-03T08:42:23.000Z</time>
      </trkpt>
      <trkpt lat="44.10544" lon="6.90623">
        <ele>1213.5999755859</ele>
        <time>2019-08-03T08:42:25.000Z</time>
      </trkpt>
      <trkpt lat="44.10549" lon="6.90629">
        <ele>1214.1999511719</ele>
        <time>2019-08-03T08:42:30.000Z</time>
      </trkpt>
      <trkpt lat="44.10549" lon="6.9063">
        <ele>1214.4000244141</ele>
        <time>2019-08-03T08:42:31.000Z</time>
      </trkpt>
      <trkpt lat="44.10553" lon="6.90636">
        <ele>1215.1999511719</ele>
        <time>2019-08-03T08:42:37.000Z</time>
      </trkpt>
      <trkpt lat="44.10555" lon="6.90639">
        <ele>1215.5999755859</ele>
        <time>2019-08-03T08:42:39.000Z</time>
      </trkpt>
      <trkpt lat="44.10559" lon="6.90645">
        <ele>1216.1999511719</ele>
        <time>2019-08-03T08:42:43.000Z</time>
      </trkpt>
      <trkpt lat="44.1056" lon="6.90649">
        <ele>1216.5999755859</ele>
        <time>2019-08-03T08:42:45.000Z</time>
      </trkpt>
      <trkpt lat="44.1056" lon="6.90652">
        <ele>1216.8000488281</ele>
        <time>2019-08-03T08:42:47.000Z</time>
      </trkpt>
      <trkpt lat="44.10559" lon="6.90655">
        <ele>1217.1999511719</ele>
        <time>2019-08-03T08:42:49.000Z</time>
      </trkpt>
      <trkpt lat="44.10559" lon="6.90657">
        <ele>1217.4000244141</ele>
        <time>2019-08-03T08:42:50.000Z</time>
      </trkpt>
      <trkpt lat="44.10559" lon="6.90663">
        <ele>1218.4000244141</ele>
        <time>2019-08-03T08:42:54.000Z</time>
      </trkpt>
      <trkpt lat="44.10559" lon="6.90666">
        <ele>1218.5999755859</ele>
        <time>2019-08-03T08:42:56.000Z</time>
      </trkpt>
      <trkpt lat="44.10559" lon="6.90667">
        <ele>1218.8000488281</ele>
        <time>2019-08-03T08:42:57.000Z</time>
      </trkpt>
      <trkpt lat="44.1056" lon="6.90674">
        <ele>1219.4000244141</ele>
        <time>2019-08-03T08:43:01.000Z</time>
      </trkpt>
      <trkpt lat="44.10561" lon="6.90677">
        <ele>1219.5999755859</ele>
        <time>2019-08-03T08:43:03.000Z</time>
      </trkpt>
      <trkpt lat="44.10561" lon="6.90679">
        <ele>1219.8000488281</ele>
        <time>2019-08-03T08:43:04.000Z</time>
      </trkpt>
      <trkpt lat="44.10563" lon="6.90687">
        <ele>1220.4000244141</ele>
        <time>2019-08-03T08:43:09.000Z</time>
      </trkpt>
      <trkpt lat="44.10564" lon="6.9069">
        <ele>1220.5999755859</ele>
        <time>2019-08-03T08:43:11.000Z</time>
      </trkpt>
      <trkpt lat="44.10568" lon="6.90698">
        <ele>1221.4000244141</ele>
        <time>2019-08-03T08:43:16.000Z</time>
      </trkpt>
      <trkpt lat="44.10572" lon="6.90702">
        <ele>1222.4000244141</ele>
        <time>2019-08-03T08:43:22.000Z</time>
      </trkpt>
      <trkpt lat="44.10573" lon="6.90702">
        <ele>1222.5999755859</ele>
        <time>2019-08-03T08:43:23.000Z</time>
      </trkpt>
      <trkpt lat="44.10577" lon="6.90705">
        <ele>1223.4000244141</ele>
        <time>2019-08-03T08:43:27.000Z</time>
      </trkpt>
      <trkpt lat="44.10579" lon="6.90706">
        <ele>1223.4000244141</ele>
        <time>2019-08-03T08:43:28.000Z</time>
      </trkpt>
      <trkpt lat="44.1058" lon="6.90707">
        <ele>1223.5999755859</ele>
        <time>2019-08-03T08:43:29.000Z</time>
      </trkpt>
      <trkpt lat="44.1059" lon="6.90711">
        <ele>1224.4000244141</ele>
        <time>2019-08-03T08:43:35.000Z</time>
      </trkpt>
      <trkpt lat="44.10593" lon="6.90713">
        <ele>1224.8000488281</ele>
        <time>2019-08-03T08:43:37.000Z</time>
      </trkpt>
      <trkpt lat="44.106" lon="6.90717">
        <ele>1225.4000244141</ele>
        <time>2019-08-03T08:43:41.000Z</time>
      </trkpt>
      <trkpt lat="44.10603" lon="6.90719">
        <ele>1225.5999755859</ele>
        <time>2019-08-03T08:43:43.000Z</time>
      </trkpt>
      <trkpt lat="44.10605" lon="6.9072">
        <ele>1225.8000488281</ele>
        <time>2019-08-03T08:43:44.000Z</time>
      </trkpt>
      <trkpt lat="44.10606" lon="6.90721">
        <ele>1226</ele>
        <time>2019-08-03T08:43:45.000Z</time>
      </trkpt>
      <trkpt lat="44.10612" lon="6.90724">
        <ele>1226.5999755859</ele>
        <time>2019-08-03T08:43:49.000Z</time>
      </trkpt>
      <trkpt lat="44.10615" lon="6.90725">
        <ele>1227</ele>
        <time>2019-08-03T08:43:51.000Z</time>
      </trkpt>
      <trkpt lat="44.10621" lon="6.90729">
        <ele>1227.8000488281</ele>
        <time>2019-08-03T08:43:55.000Z</time>
      </trkpt>
      <trkpt lat="44.10621" lon="6.90731">
        <ele>1228</ele>
        <time>2019-08-03T08:43:56.000Z</time>
      </trkpt>
      <trkpt lat="44.10619" lon="6.90733">
        <ele>1228.4000244141</ele>
        <time>2019-08-03T08:43:58.000Z</time>
      </trkpt>
      <trkpt lat="44.10615" lon="6.90732">
        <ele>1229.1999511719</ele>
        <time>2019-08-03T08:44:02.000Z</time>
      </trkpt>
      <trkpt lat="44.10614" lon="6.90732">
        <ele>1229.4000244141</ele>
        <time>2019-08-03T08:44:03.000Z</time>
      </trkpt>
      <trkpt lat="44.10612" lon="6.90732">
        <ele>1229.4000244141</ele>
        <time>2019-08-03T08:44:05.000Z</time>
      </trkpt>
      <trkpt lat="44.10608" lon="6.90733">
        <ele>1230.1999511719</ele>
        <time>2019-08-03T08:44:10.000Z</time>
      </trkpt>
      <trkpt lat="44.10607" lon="6.90733">
        <ele>1230.4000244141</ele>
        <time>2019-08-03T08:44:11.000Z</time>
      </trkpt>
      <trkpt lat="44.10602" lon="6.90735">
        <ele>1231.4000244141</ele>
        <time>2019-08-03T08:44:16.000Z</time>
      </trkpt>
      <trkpt lat="44.106" lon="6.90735">
        <ele>1232</ele>
        <time>2019-08-03T08:44:20.000Z</time>
      </trkpt>
      <trkpt lat="44.10597" lon="6.90736">
        <ele>1232.4000244141</ele>
        <time>2019-08-03T08:44:24.000Z</time>
      </trkpt>
      <trkpt lat="44.10595" lon="6.90736">
        <ele>1232.8000488281</ele>
        <time>2019-08-03T08:44:26.000Z</time>
      </trkpt>
      <trkpt lat="44.10594" lon="6.90735">
        <ele>1233</ele>
        <time>2019-08-03T08:44:28.000Z</time>
      </trkpt>
      <trkpt lat="44.10591" lon="6.90736">
        <ele>1233.5999755859</ele>
        <time>2019-08-03T08:44:33.000Z</time>
      </trkpt>
      <trkpt lat="44.1059" lon="6.90736">
        <ele>1233.5999755859</ele>
        <time>2019-08-03T08:44:34.000Z</time>
      </trkpt>
      <trkpt lat="44.10584" lon="6.90736">
        <ele>1234.5999755859</ele>
        <time>2019-08-03T08:44:41.000Z</time>
      </trkpt>
      <trkpt lat="44.10583" lon="6.90735">
        <ele>1234.5999755859</ele>
        <time>2019-08-03T08:44:42.000Z</time>
      </trkpt>
      <trkpt lat="44.10579" lon="6.90732">
        <ele>1235.4000244141</ele>
        <time>2019-08-03T08:44:47.000Z</time>
      </trkpt>
      <trkpt lat="44.10578" lon="6.90732">
        <ele>1235.5999755859</ele>
        <time>2019-08-03T08:44:48.000Z</time>
      </trkpt>
      <trkpt lat="44.10574" lon="6.9073">
        <ele>1236.4000244141</ele>
        <time>2019-08-03T08:44:53.000Z</time>
      </trkpt>
      <trkpt lat="44.10573" lon="6.90729">
        <ele>1236.5999755859</ele>
        <time>2019-08-03T08:44:54.000Z</time>
      </trkpt>
      <trkpt lat="44.10572" lon="6.90728">
        <ele>1236.8000488281</ele>
        <time>2019-08-03T08:44:55.000Z</time>
      </trkpt>
      <trkpt lat="44.1057" lon="6.90727">
        <ele>1237.1999511719</ele>
        <time>2019-08-03T08:44:58.000Z</time>
      </trkpt>
      <trkpt lat="44.10566" lon="6.90722">
        <ele>1237.8000488281</ele>
        <time>2019-08-03T08:45:02.000Z</time>
      </trkpt>
      <trkpt lat="44.10565" lon="6.90718">
        <ele>1238.1999511719</ele>
        <time>2019-08-03T08:45:05.000Z</time>
      </trkpt>
      <trkpt lat="44.10564" lon="6.90714">
        <ele>1239</ele>
        <time>2019-08-03T08:45:10.000Z</time>
      </trkpt>
      <trkpt lat="44.10563" lon="6.90713">
        <ele>1239.1999511719</ele>
        <time>2019-08-03T08:45:12.000Z</time>
      </trkpt>
      <trkpt lat="44.10562" lon="6.90711">
        <ele>1239.1999511719</ele>
        <time>2019-08-03T08:45:13.000Z</time>
      </trkpt>
      <trkpt lat="44.1056" lon="6.90708">
        <ele>1239.8000488281</ele>
        <time>2019-08-03T08:45:17.000Z</time>
      </trkpt>
      <trkpt lat="44.10559" lon="6.90707">
        <ele>1240.1999511719</ele>
        <time>2019-08-03T08:45:18.000Z</time>
      </trkpt>
      <trkpt lat="44.10557" lon="6.90705">
        <ele>1240.5999755859</ele>
        <time>2019-08-03T08:45:21.000Z</time>
      </trkpt>
      <trkpt lat="44.10555" lon="6.90704">
        <ele>1240.8000488281</ele>
        <time>2019-08-03T08:45:23.000Z</time>
      </trkpt>
      <trkpt lat="44.10552" lon="6.90703">
        <ele>1241.1999511719</ele>
        <time>2019-08-03T08:45:25.000Z</time>
      </trkpt>
      <trkpt lat="44.10551" lon="6.90702">
        <ele>1241.4000244141</ele>
        <time>2019-08-03T08:45:26.000Z</time>
      </trkpt>
      <trkpt lat="44.10545" lon="6.907">
        <ele>1241.8000488281</ele>
        <time>2019-08-03T08:45:30.000Z</time>
      </trkpt>
      <trkpt lat="44.10545" lon="6.90699">
        <ele>1242.1999511719</ele>
        <time>2019-08-03T08:45:31.000Z</time>
      </trkpt>
      <trkpt lat="44.10543" lon="6.90698">
        <ele>1242.5999755859</ele>
        <time>2019-08-03T08:45:32.000Z</time>
      </trkpt>
      <trkpt lat="44.10539" lon="6.90695">
        <ele>1243.1999511719</ele>
        <time>2019-08-03T08:45:35.000Z</time>
      </trkpt>
      <trkpt lat="44.10537" lon="6.90694">
        <ele>1243.4000244141</ele>
        <time>2019-08-03T08:45:36.000Z</time>
      </trkpt>
      <trkpt lat="44.10533" lon="6.90692">
        <ele>1244.1999511719</ele>
        <time>2019-08-03T08:45:40.000Z</time>
      </trkpt>
      <trkpt lat="44.10532" lon="6.9069">
        <ele>1244.4000244141</ele>
        <time>2019-08-03T08:45:41.000Z</time>
      </trkpt>
      <trkpt lat="44.10531" lon="6.90689">
        <ele>1244.5999755859</ele>
        <time>2019-08-03T08:45:42.000Z</time>
      </trkpt>
      <trkpt lat="44.10528" lon="6.90687">
        <ele>1245</ele>
        <time>2019-08-03T08:45:44.000Z</time>
      </trkpt>
      <trkpt lat="44.10525" lon="6.90684">
        <ele>1245.5999755859</ele>
        <time>2019-08-03T08:45:47.000Z</time>
      </trkpt>
      <trkpt lat="44.10519" lon="6.90678">
        <ele>1246.5999755859</ele>
        <time>2019-08-03T08:45:53.000Z</time>
      </trkpt>
      <trkpt lat="44.10517" lon="6.90677">
        <ele>1246.8000488281</ele>
        <time>2019-08-03T08:45:55.000Z</time>
      </trkpt>
      <trkpt lat="44.1051" lon="6.90674">
        <ele>1247.5999755859</ele>
        <time>2019-08-03T08:46:00.000Z</time>
      </trkpt>
      <trkpt lat="44.10502" lon="6.90672">
        <ele>1248.8000488281</ele>
        <time>2019-08-03T08:46:05.000Z</time>
      </trkpt>
      <trkpt lat="44.10499" lon="6.90671">
        <ele>1249.1999511719</ele>
        <time>2019-08-03T08:46:07.000Z</time>
      </trkpt>
      <trkpt lat="44.10495" lon="6.90671">
        <ele>1249.4000244141</ele>
        <time>2019-08-03T08:46:10.000Z</time>
      </trkpt>
      <trkpt lat="44.10492" lon="6.9067">
        <ele>1250</ele>
        <time>2019-08-03T08:46:13.000Z</time>
      </trkpt>
      <trkpt lat="44.10491" lon="6.9067">
        <ele>1250.1999511719</ele>
        <time>2019-08-03T08:46:14.000Z</time>
      </trkpt>
      <trkpt lat="44.10487" lon="6.90668">
        <ele>1250.8000488281</ele>
        <time>2019-08-03T08:46:18.000Z</time>
      </trkpt>
      <trkpt lat="44.10487" lon="6.90667">
        <ele>1251</ele>
        <time>2019-08-03T08:46:19.000Z</time>
      </trkpt>
      <trkpt lat="44.10486" lon="6.90667">
        <ele>1251.1999511719</ele>
        <time>2019-08-03T08:46:20.000Z</time>
      </trkpt>
      <trkpt lat="44.10482" lon="6.90665">
        <ele>1252</ele>
        <time>2019-08-03T08:46:24.000Z</time>
      </trkpt>
      <trkpt lat="44.10482" lon="6.90663">
        <ele>1252.1999511719</ele>
        <time>2019-08-03T08:46:25.000Z</time>
      </trkpt>
      <trkpt lat="44.1048" lon="6.9066">
        <ele>1252.4000244141</ele>
        <time>2019-08-03T08:46:27.000Z</time>
      </trkpt>
      <trkpt lat="44.10478" lon="6.90655">
        <ele>1253</ele>
        <time>2019-08-03T08:46:33.000Z</time>
      </trkpt>
      <trkpt lat="44.10474" lon="6.90649">
        <ele>1253.8000488281</ele>
        <time>2019-08-03T08:46:39.000Z</time>
      </trkpt>
      <trkpt lat="44.10472" lon="6.90647">
        <ele>1254.1999511719</ele>
        <time>2019-08-03T08:46:41.000Z</time>
      </trkpt>
      <trkpt lat="44.10471" lon="6.90646">
        <ele>1254.1999511719</ele>
        <time>2019-08-03T08:46:42.000Z</time>
      </trkpt>
      <trkpt lat="44.10466" lon="6.90643">
        <ele>1255</ele>
        <time>2019-08-03T08:46:46.000Z</time>
      </trkpt>
      <trkpt lat="44.10465" lon="6.90643">
        <ele>1255</ele>
        <time>2019-08-03T08:46:47.000Z</time>
      </trkpt>
      <trkpt lat="44.10464" lon="6.90642">
        <ele>1255.1999511719</ele>
        <time>2019-08-03T08:46:48.000Z</time>
      </trkpt>
      <trkpt lat="44.10459" lon="6.90638">
        <ele>1255.8000488281</ele>
        <time>2019-08-03T08:46:52.000Z</time>
      </trkpt>
      <trkpt lat="44.10454" lon="6.90635">
        <ele>1256.1999511719</ele>
        <time>2019-08-03T08:46:55.000Z</time>
      </trkpt>
      <trkpt lat="44.10451" lon="6.90632">
        <ele>1256.8000488281</ele>
        <time>2019-08-03T08:46:58.000Z</time>
      </trkpt>
      <trkpt lat="44.10447" lon="6.90628">
        <ele>1257.4000244141</ele>
        <time>2019-08-03T08:47:01.000Z</time>
      </trkpt>
      <trkpt lat="44.10446" lon="6.90628">
        <ele>1257.5999755859</ele>
        <time>2019-08-03T08:47:02.000Z</time>
      </trkpt>
      <trkpt lat="44.10444" lon="6.90627">
        <ele>1257.8000488281</ele>
        <time>2019-08-03T08:47:03.000Z</time>
      </trkpt>
      <trkpt lat="44.10441" lon="6.90625">
        <ele>1258.4000244141</ele>
        <time>2019-08-03T08:47:06.000Z</time>
      </trkpt>
      <trkpt lat="44.1044" lon="6.90623">
        <ele>1258.5999755859</ele>
        <time>2019-08-03T08:47:07.000Z</time>
      </trkpt>
      <trkpt lat="44.10436" lon="6.9062">
        <ele>1259</ele>
        <time>2019-08-03T08:47:10.000Z</time>
      </trkpt>
      <trkpt lat="44.10432" lon="6.90616">
        <ele>1259.5999755859</ele>
        <time>2019-08-03T08:47:14.000Z</time>
      </trkpt>
      <trkpt lat="44.10428" lon="6.90613">
        <ele>1260.4000244141</ele>
        <time>2019-08-03T08:47:17.000Z</time>
      </trkpt>
      <trkpt lat="44.10425" lon="6.90609">
        <ele>1260.5999755859</ele>
        <time>2019-08-03T08:47:20.000Z</time>
      </trkpt>
      <trkpt lat="44.10423" lon="6.90607">
        <ele>1261.1999511719</ele>
        <time>2019-08-03T08:47:23.000Z</time>
      </trkpt>
      <trkpt lat="44.10418" lon="6.90601">
        <ele>1261.8000488281</ele>
        <time>2019-08-03T08:47:28.000Z</time>
      </trkpt>
      <trkpt lat="44.10417" lon="6.906">
        <ele>1262</ele>
        <time>2019-08-03T08:47:30.000Z</time>
      </trkpt>
      <trkpt lat="44.10416" lon="6.90599">
        <ele>1262.1999511719</ele>
        <time>2019-08-03T08:47:31.000Z</time>
      </trkpt>
      <trkpt lat="44.10414" lon="6.90596">
        <ele>1262.8000488281</ele>
        <time>2019-08-03T08:47:35.000Z</time>
      </trkpt>
      <trkpt lat="44.10412" lon="6.90595">
        <ele>1262.8000488281</ele>
        <time>2019-08-03T08:47:36.000Z</time>
      </trkpt>
      <trkpt lat="44.10407" lon="6.9059">
        <ele>1263.8000488281</ele>
        <time>2019-08-03T08:47:40.000Z</time>
      </trkpt>
      <trkpt lat="44.10403" lon="6.90586">
        <ele>1264.4000244141</ele>
        <time>2019-08-03T08:47:44.000Z</time>
      </trkpt>
      <trkpt lat="44.104" lon="6.90584">
        <ele>1264.8000488281</ele>
        <time>2019-08-03T08:47:46.000Z</time>
      </trkpt>
      <trkpt lat="44.10394" lon="6.90578">
        <ele>1265.5999755859</ele>
        <time>2019-08-03T08:47:52.000Z</time>
      </trkpt>
      <trkpt lat="44.10393" lon="6.90577">
        <ele>1265.8000488281</ele>
        <time>2019-08-03T08:47:53.000Z</time>
      </trkpt>
      <trkpt lat="44.10387" lon="6.90572">
        <ele>1266.4000244141</ele>
        <time>2019-08-03T08:47:57.000Z</time>
      </trkpt>
      <trkpt lat="44.10384" lon="6.9057">
        <ele>1267</ele>
        <time>2019-08-03T08:48:00.000Z</time>
      </trkpt>
      <trkpt lat="44.10381" lon="6.90568">
        <ele>1267.1999511719</ele>
        <time>2019-08-03T08:48:03.000Z</time>
      </trkpt>
      <trkpt lat="44.10376" lon="6.90566">
        <ele>1268</ele>
        <time>2019-08-03T08:48:07.000Z</time>
      </trkpt>
      <trkpt lat="44.10373" lon="6.90565">
        <ele>1268.4000244141</ele>
        <time>2019-08-03T08:48:10.000Z</time>
      </trkpt>
      <trkpt lat="44.10367" lon="6.90565">
        <ele>1269.1999511719</ele>
        <time>2019-08-03T08:48:13.000Z</time>
      </trkpt>
      <trkpt lat="44.10366" lon="6.90565">
        <ele>1269.5999755859</ele>
        <time>2019-08-03T08:48:14.000Z</time>
      </trkpt>
      <trkpt lat="44.10361" lon="6.90565">
        <ele>1270.4000244141</ele>
        <time>2019-08-03T08:48:17.000Z</time>
      </trkpt>
      <trkpt lat="44.10358" lon="6.90563">
        <ele>1271.4000244141</ele>
        <time>2019-08-03T08:48:20.000Z</time>
      </trkpt>
      <trkpt lat="44.10353" lon="6.90563">
        <ele>1272.8000488281</ele>
        <time>2019-08-03T08:48:24.000Z</time>
      </trkpt>
      <trkpt lat="44.10349" lon="6.90562">
        <ele>1273.8000488281</ele>
        <time>2019-08-03T08:48:28.000Z</time>
      </trkpt>
      <trkpt lat="44.10345" lon="6.90559">
        <ele>1275</ele>
        <time>2019-08-03T08:48:32.000Z</time>
      </trkpt>
      <trkpt lat="44.10344" lon="6.90558">
        <ele>1275.1999511719</ele>
        <time>2019-08-03T08:48:35.000Z</time>
      </trkpt>
      <trkpt lat="44.10342" lon="6.90556">
        <ele>1275.5999755859</ele>
        <time>2019-08-03T08:48:43.000Z</time>
      </trkpt>
      <trkpt lat="44.10338" lon="6.90556">
        <ele>1275.1999511719</ele>
        <time>2019-08-03T08:48:57.000Z</time>
      </trkpt>
      <trkpt lat="44.10337" lon="6.90555">
        <ele>1275.4000244141</ele>
        <time>2019-08-03T08:49:03.000Z</time>
      </trkpt>
      <trkpt lat="44.10337" lon="6.90555">
        <ele>1275.1999511719</ele>
        <time>2019-08-03T08:49:12.000Z</time>
      </trkpt>
      <trkpt lat="44.10337" lon="6.90555">
        <ele>1275.1999511719</ele>
        <time>2019-08-03T08:49:27.000Z</time>
      </trkpt>
      <trkpt lat="44.10337" lon="6.90555">
        <ele>1275</ele>
        <time>2019-08-03T08:49:35.000Z</time>
      </trkpt>
      <trkpt lat="44.10336" lon="6.90555">
        <ele>1275.4000244141</ele>
        <time>2019-08-03T08:49:42.000Z</time>
      </trkpt>
      <trkpt lat="44.10336" lon="6.90554">
        <ele>1275.1999511719</ele>
        <time>2019-08-03T08:49:53.000Z</time>
      </trkpt>
      <trkpt lat="44.10335" lon="6.90554">
        <ele>1275.1999511719</ele>
        <time>2019-08-03T08:50:13.000Z</time>
      </trkpt>
      <trkpt lat="44.10333" lon="6.90553">
        <ele>1275.1999511719</ele>
        <time>2019-08-03T08:50:17.000Z</time>
      </trkpt>
      <trkpt lat="44.10329" lon="6.90551">
        <ele>1275.1999511719</ele>
        <time>2019-08-03T08:50:20.000Z</time>
      </trkpt>
      <trkpt lat="44.10317" lon="6.90539">
        <ele>1274.8000488281</ele>
        <time>2019-08-03T08:50:27.000Z</time>
      </trkpt>
      <trkpt lat="44.10306" lon="6.90527">
        <ele>1275</ele>
        <time>2019-08-03T08:50:34.000Z</time>
      </trkpt>
      <trkpt lat="44.10305" lon="6.90527">
        <ele>1275</ele>
        <time>2019-08-03T08:50:38.000Z</time>
      </trkpt>
      <trkpt lat="44.10304" lon="6.90526">
        <ele>1275.1999511719</ele>
        <time>2019-08-03T08:50:45.000Z</time>
      </trkpt>
      <trkpt lat="44.10303" lon="6.90525">
        <ele>1275.1999511719</ele>
        <time>2019-08-03T08:50:51.000Z</time>
      </trkpt>
      <trkpt lat="44.10303" lon="6.90525">
        <ele>1275</ele>
        <time>2019-08-03T08:50:56.000Z</time>
      </trkpt>
      <trkpt lat="44.10302" lon="6.90526">
        <ele>1275.8000488281</ele>
        <time>2019-08-03T08:51:03.000Z</time>
      </trkpt>
      <trkpt lat="44.10301" lon="6.90526">
        <ele>1275.5999755859</ele>
        <time>2019-08-03T08:51:20.000Z</time>
      </trkpt>
      <trkpt lat="44.103" lon="6.90526">
        <ele>1275.5999755859</ele>
        <time>2019-08-03T08:51:32.000Z</time>
      </trkpt>
      <trkpt lat="44.10297" lon="6.9053">
        <ele>1275.8000488281</ele>
        <time>2019-08-03T08:51:39.000Z</time>
      </trkpt>
      <trkpt lat="44.10296" lon="6.9053">
        <ele>1276</ele>
        <time>2019-08-03T08:51:40.000Z</time>
      </trkpt>
      <trkpt lat="44.10294" lon="6.90534">
        <ele>1277.1999511719</ele>
        <time>2019-08-03T08:51:46.000Z</time>
      </trkpt>
      <trkpt lat="44.10293" lon="6.90534">
        <ele>1277.4000244141</ele>
        <time>2019-08-03T08:51:47.000Z</time>
      </trkpt>
      <trkpt lat="44.1029" lon="6.90537">
        <ele>1278.4000244141</ele>
        <time>2019-08-03T08:51:53.000Z</time>
      </trkpt>
      <trkpt lat="44.1029" lon="6.90538">
        <ele>1278.5999755859</ele>
        <time>2019-08-03T08:51:55.000Z</time>
      </trkpt>
      <trkpt lat="44.10286" lon="6.90542">
        <ele>1279.4000244141</ele>
        <time>2019-08-03T08:52:00.000Z</time>
      </trkpt>
      <trkpt lat="44.10284" lon="6.90543">
        <ele>1279.8000488281</ele>
        <time>2019-08-03T08:52:03.000Z</time>
      </trkpt>
      <trkpt lat="44.10283" lon="6.90545">
        <ele>1280.5999755859</ele>
        <time>2019-08-03T08:52:07.000Z</time>
      </trkpt>
      <trkpt lat="44.10282" lon="6.90546">
        <ele>1280.5999755859</ele>
        <time>2019-08-03T08:52:10.000Z</time>
      </trkpt>
      <trkpt lat="44.10278" lon="6.90553">
        <ele>1280.5999755859</ele>
        <time>2019-08-03T08:52:15.000Z</time>
      </trkpt>
      <trkpt lat="44.10274" lon="6.9056">
        <ele>1281.5999755859</ele>
        <time>2019-08-03T08:52:20.000Z</time>
      </trkpt>
      <trkpt lat="44.10274" lon="6.90561">
        <ele>1281.8000488281</ele>
        <time>2019-08-03T08:52:21.000Z</time>
      </trkpt>
      <trkpt lat="44.1027" lon="6.90565">
        <ele>1282.8000488281</ele>
        <time>2019-08-03T08:52:25.000Z</time>
      </trkpt>
      <trkpt lat="44.10265" lon="6.9057">
        <ele>1283.4000244141</ele>
        <time>2019-08-03T08:52:29.000Z</time>
      </trkpt>
      <trkpt lat="44.10263" lon="6.90572">
        <ele>1283.8000488281</ele>
        <time>2019-08-03T08:52:31.000Z</time>
      </trkpt>
      <trkpt lat="44.1026" lon="6.90576">
        <ele>1284.8000488281</ele>
        <time>2019-08-03T08:52:35.000Z</time>
      </trkpt>
      <trkpt lat="44.10259" lon="6.90577">
        <ele>1285</ele>
        <time>2019-08-03T08:52:36.000Z</time>
      </trkpt>
      <trkpt lat="44.10257" lon="6.9058">
        <ele>1285.5999755859</ele>
        <time>2019-08-03T08:52:39.000Z</time>
      </trkpt>
      <trkpt lat="44.10255" lon="6.90581">
        <ele>1286</ele>
        <time>2019-08-03T08:52:41.000Z</time>
      </trkpt>
      <trkpt lat="44.10254" lon="6.90582">
        <ele>1286.4000244141</ele>
        <time>2019-08-03T08:52:42.000Z</time>
      </trkpt>
      <trkpt lat="44.1025" lon="6.90583">
        <ele>1287.4000244141</ele>
        <time>2019-08-03T08:52:46.000Z</time>
      </trkpt>
      <trkpt lat="44.1025" lon="6.90584">
        <ele>1287.4000244141</ele>
        <time>2019-08-03T08:52:47.000Z</time>
      </trkpt>
      <trkpt lat="44.10245" lon="6.90587">
        <ele>1288.5999755859</ele>
        <time>2019-08-03T08:52:52.000Z</time>
      </trkpt>
      <trkpt lat="44.10244" lon="6.90588">
        <ele>1289.4000244141</ele>
        <time>2019-08-03T08:52:55.000Z</time>
      </trkpt>
      <trkpt lat="44.10243" lon="6.9059">
        <ele>1289.5999755859</ele>
        <time>2019-08-03T08:52:56.000Z</time>
      </trkpt>
      <trkpt lat="44.10239" lon="6.90593">
        <ele>1290.1999511719</ele>
        <time>2019-08-03T08:53:00.000Z</time>
      </trkpt>
      <trkpt lat="44.10237" lon="6.90594">
        <ele>1290.8000488281</ele>
        <time>2019-08-03T08:53:02.000Z</time>
      </trkpt>
      <trkpt lat="44.10232" lon="6.90598">
        <ele>1291.8000488281</ele>
        <time>2019-08-03T08:53:07.000Z</time>
      </trkpt>
      <trkpt lat="44.1023" lon="6.906">
        <ele>1292</ele>
        <time>2019-08-03T08:53:09.000Z</time>
      </trkpt>
      <trkpt lat="44.10227" lon="6.90605">
        <ele>1293</ele>
        <time>2019-08-03T08:53:13.000Z</time>
      </trkpt>
      <trkpt lat="44.10226" lon="6.90607">
        <ele>1293.1999511719</ele>
        <time>2019-08-03T08:53:14.000Z</time>
      </trkpt>
      <trkpt lat="44.10222" lon="6.90613">
        <ele>1294.1999511719</ele>
        <time>2019-08-03T08:53:19.000Z</time>
      </trkpt>
      <trkpt lat="44.10221" lon="6.90614">
        <ele>1294.4000244141</ele>
        <time>2019-08-03T08:53:20.000Z</time>
      </trkpt>
      <trkpt lat="44.10218" lon="6.9062">
        <ele>1295.4000244141</ele>
        <time>2019-08-03T08:53:25.000Z</time>
      </trkpt>
      <trkpt lat="44.10217" lon="6.90622">
        <ele>1295.8000488281</ele>
        <time>2019-08-03T08:53:27.000Z</time>
      </trkpt>
      <trkpt lat="44.10214" lon="6.90628">
        <ele>1296.4000244141</ele>
        <time>2019-08-03T08:53:31.000Z</time>
      </trkpt>
      <trkpt lat="44.10213" lon="6.90632">
        <ele>1297.1999511719</ele>
        <time>2019-08-03T08:53:35.000Z</time>
      </trkpt>
      <trkpt lat="44.10211" lon="6.90636">
        <ele>1297.5999755859</ele>
        <time>2019-08-03T08:53:38.000Z</time>
      </trkpt>
      <trkpt lat="44.10208" lon="6.90639">
        <ele>1298.4000244141</ele>
        <time>2019-08-03T08:53:42.000Z</time>
      </trkpt>
      <trkpt lat="44.10208" lon="6.9064">
        <ele>1298.8000488281</ele>
        <time>2019-08-03T08:53:43.000Z</time>
      </trkpt>
      <trkpt lat="44.10204" lon="6.90645">
        <ele>1299.8000488281</ele>
        <time>2019-08-03T08:53:48.000Z</time>
      </trkpt>
      <trkpt lat="44.10201" lon="6.90652">
        <ele>1301</ele>
        <time>2019-08-03T08:53:53.000Z</time>
      </trkpt>
      <trkpt lat="44.102" lon="6.90657">
        <ele>1301.8000488281</ele>
        <time>2019-08-03T08:53:57.000Z</time>
      </trkpt>
      <trkpt lat="44.10201" lon="6.90658">
        <ele>1302</ele>
        <time>2019-08-03T08:53:58.000Z</time>
      </trkpt>
      <trkpt lat="44.10201" lon="6.90661">
        <ele>1302.8000488281</ele>
        <time>2019-08-03T08:54:02.000Z</time>
      </trkpt>
      <trkpt lat="44.10201" lon="6.90663">
        <ele>1303.1999511719</ele>
        <time>2019-08-03T08:54:05.000Z</time>
      </trkpt>
      <trkpt lat="44.10199" lon="6.90668">
        <ele>1304</ele>
        <time>2019-08-03T08:54:10.000Z</time>
      </trkpt>
      <trkpt lat="44.10199" lon="6.9067">
        <ele>1304.4000244141</ele>
        <time>2019-08-03T08:54:13.000Z</time>
      </trkpt>
      <trkpt lat="44.10199" lon="6.90673">
        <ele>1305.1999511719</ele>
        <time>2019-08-03T08:54:17.000Z</time>
      </trkpt>
      <trkpt lat="44.10199" lon="6.90673">
        <ele>1305.4000244141</ele>
        <time>2019-08-03T08:54:18.000Z</time>
      </trkpt>
      <trkpt lat="44.10197" lon="6.90678">
        <ele>1306.5999755859</ele>
        <time>2019-08-03T08:54:24.000Z</time>
      </trkpt>
      <trkpt lat="44.10197" lon="6.90682">
        <ele>1307.8000488281</ele>
        <time>2019-08-03T08:54:31.000Z</time>
      </trkpt>
      <trkpt lat="44.10197" lon="6.90685">
        <ele>1307.8000488281</ele>
        <time>2019-08-03T08:54:32.000Z</time>
      </trkpt>
      <trkpt lat="44.10196" lon="6.90689">
        <ele>1309</ele>
        <time>2019-08-03T08:54:37.000Z</time>
      </trkpt>
      <trkpt lat="44.10196" lon="6.90691">
        <ele>1309.1999511719</ele>
        <time>2019-08-03T08:54:39.000Z</time>
      </trkpt>
      <trkpt lat="44.10196" lon="6.90695">
        <ele>1310</ele>
        <time>2019-08-03T08:54:43.000Z</time>
      </trkpt>
      <trkpt lat="44.10195" lon="6.90699">
        <ele>1310.5999755859</ele>
        <time>2019-08-03T08:54:47.000Z</time>
      </trkpt>
      <trkpt lat="44.10195" lon="6.90703">
        <ele>1311.1999511719</ele>
        <time>2019-08-03T08:54:51.000Z</time>
      </trkpt>
      <trkpt lat="44.10195" lon="6.90707">
        <ele>1312</ele>
        <time>2019-08-03T08:54:55.000Z</time>
      </trkpt>
      <trkpt lat="44.10194" lon="6.90709">
        <ele>1312.1999511719</ele>
        <time>2019-08-03T08:54:57.000Z</time>
      </trkpt>
      <trkpt lat="44.10195" lon="6.90712">
        <ele>1313</ele>
        <time>2019-08-03T08:55:02.000Z</time>
      </trkpt>
      <trkpt lat="44.10195" lon="6.90714">
        <ele>1313.4000244141</ele>
        <time>2019-08-03T08:55:04.000Z</time>
      </trkpt>
      <trkpt lat="44.10196" lon="6.9072">
        <ele>1314</ele>
        <time>2019-08-03T08:55:09.000Z</time>
      </trkpt>
      <trkpt lat="44.10198" lon="6.90725">
        <ele>1314.5999755859</ele>
        <time>2019-08-03T08:55:12.000Z</time>
      </trkpt>
      <trkpt lat="44.10198" lon="6.90731">
        <ele>1314.8000488281</ele>
        <time>2019-08-03T08:55:17.000Z</time>
      </trkpt>
      <trkpt lat="44.10199" lon="6.90736">
        <ele>1315.5999755859</ele>
        <time>2019-08-03T08:55:22.000Z</time>
      </trkpt>
      <trkpt lat="44.10199" lon="6.90738">
        <ele>1316.1999511719</ele>
        <time>2019-08-03T08:55:26.000Z</time>
      </trkpt>
      <trkpt lat="44.10199" lon="6.9074">
        <ele>1316.4000244141</ele>
        <time>2019-08-03T08:55:39.000Z</time>
      </trkpt>
      <trkpt lat="44.10199" lon="6.90742">
        <ele>1316.5999755859</ele>
        <time>2019-08-03T08:55:56.000Z</time>
      </trkpt>
      <trkpt lat="44.10199" lon="6.90745">
        <ele>1316.4000244141</ele>
        <time>2019-08-03T08:56:19.000Z</time>
      </trkpt>
      <trkpt lat="44.10198" lon="6.90747">
        <ele>1316.4000244141</ele>
        <time>2019-08-03T08:56:39.000Z</time>
      </trkpt>
      <trkpt lat="44.10198" lon="6.90748">
        <ele>1316.4000244141</ele>
        <time>2019-08-03T08:56:57.000Z</time>
      </trkpt>
      <trkpt lat="44.10199" lon="6.90748">
        <ele>1316</ele>
        <time>2019-08-03T08:57:05.000Z</time>
      </trkpt>
      <trkpt lat="44.10199" lon="6.90751">
        <ele>1316.4000244141</ele>
        <time>2019-08-03T08:57:15.000Z</time>
      </trkpt>
      <trkpt lat="44.10199" lon="6.90752">
        <ele>1316.8000488281</ele>
        <time>2019-08-03T08:57:18.000Z</time>
      </trkpt>
      <trkpt lat="44.102" lon="6.90753">
        <ele>1316.8000488281</ele>
        <time>2019-08-03T08:57:24.000Z</time>
      </trkpt>
      <trkpt lat="44.102" lon="6.90756">
        <ele>1317</ele>
        <time>2019-08-03T08:57:32.000Z</time>
      </trkpt>
      <trkpt lat="44.10201" lon="6.90759">
        <ele>1317</ele>
        <time>2019-08-03T08:57:35.000Z</time>
      </trkpt>
      <trkpt lat="44.10201" lon="6.90768">
        <ele>1316.8000488281</ele>
        <time>2019-08-03T08:57:39.000Z</time>
      </trkpt>
      <trkpt lat="44.10202" lon="6.90783">
        <ele>1317.5999755859</ele>
        <time>2019-08-03T08:57:46.000Z</time>
      </trkpt>
      <trkpt lat="44.10202" lon="6.90785">
        <ele>1317.8000488281</ele>
        <time>2019-08-03T08:57:47.000Z</time>
      </trkpt>
      <trkpt lat="44.10203" lon="6.90797">
        <ele>1319</ele>
        <time>2019-08-03T08:57:52.000Z</time>
      </trkpt>
      <trkpt lat="44.10203" lon="6.90806">
        <ele>1319.8000488281</ele>
        <time>2019-08-03T08:57:56.000Z</time>
      </trkpt>
      <trkpt lat="44.10202" lon="6.90808">
        <ele>1320</ele>
        <time>2019-08-03T08:57:57.000Z</time>
      </trkpt>
      <trkpt lat="44.10202" lon="6.90813">
        <ele>1320.1999511719</ele>
        <time>2019-08-03T08:57:59.000Z</time>
      </trkpt>
      <trkpt lat="44.10201" lon="6.90817">
        <ele>1320.4000244141</ele>
        <time>2019-08-03T08:58:01.000Z</time>
      </trkpt>
      <trkpt lat="44.10201" lon="6.90822">
        <ele>1320.8000488281</ele>
        <time>2019-08-03T08:58:03.000Z</time>
      </trkpt>
      <trkpt lat="44.10202" lon="6.90826">
        <ele>1321.1999511719</ele>
        <time>2019-08-03T08:58:05.000Z</time>
      </trkpt>
      <trkpt lat="44.10202" lon="6.90835">
        <ele>1322.1999511719</ele>
        <time>2019-08-03T08:58:09.000Z</time>
      </trkpt>
      <trkpt lat="44.10202" lon="6.90837">
        <ele>1322.5999755859</ele>
        <time>2019-08-03T08:58:10.000Z</time>
      </trkpt>
      <trkpt lat="44.10202" lon="6.90844">
        <ele>1323.4000244141</ele>
        <time>2019-08-03T08:58:13.000Z</time>
      </trkpt>
      <trkpt lat="44.10201" lon="6.9085">
        <ele>1324</ele>
        <time>2019-08-03T08:58:16.000Z</time>
      </trkpt>
      <trkpt lat="44.10201" lon="6.90851">
        <ele>1324.1999511719</ele>
        <time>2019-08-03T08:58:17.000Z</time>
      </trkpt>
      <trkpt lat="44.10201" lon="6.90855">
        <ele>1324.4000244141</ele>
        <time>2019-08-03T08:58:19.000Z</time>
      </trkpt>
      <trkpt lat="44.10202" lon="6.90857">
        <ele>1324.5999755859</ele>
        <time>2019-08-03T08:58:20.000Z</time>
      </trkpt>
      <trkpt lat="44.10202" lon="6.90859">
        <ele>1324.8000488281</ele>
        <time>2019-08-03T08:58:21.000Z</time>
      </trkpt>
      <trkpt lat="44.10204" lon="6.90867">
        <ele>1325.4000244141</ele>
        <time>2019-08-03T08:58:25.000Z</time>
      </trkpt>
      <trkpt lat="44.10205" lon="6.90869">
        <ele>1325.5999755859</ele>
        <time>2019-08-03T08:58:26.000Z</time>
      </trkpt>
      <trkpt lat="44.10206" lon="6.90875">
        <ele>1326.1999511719</ele>
        <time>2019-08-03T08:58:29.000Z</time>
      </trkpt>
      <trkpt lat="44.10207" lon="6.9088">
        <ele>1327</ele>
        <time>2019-08-03T08:58:32.000Z</time>
      </trkpt>
      <trkpt lat="44.10209" lon="6.90887">
        <ele>1327.5999755859</ele>
        <time>2019-08-03T08:58:36.000Z</time>
      </trkpt>
      <trkpt lat="44.10211" lon="6.90895">
        <ele>1328</ele>
        <time>2019-08-03T08:58:40.000Z</time>
      </trkpt>
      <trkpt lat="44.10212" lon="6.90898">
        <ele>1328.4000244141</ele>
        <time>2019-08-03T08:58:42.000Z</time>
      </trkpt>
      <trkpt lat="44.10213" lon="6.90907">
        <ele>1329.1999511719</ele>
        <time>2019-08-03T08:58:46.000Z</time>
      </trkpt>
      <trkpt lat="44.10214" lon="6.90909">
        <ele>1329.4000244141</ele>
        <time>2019-08-03T08:58:47.000Z</time>
      </trkpt>
      <trkpt lat="44.10214" lon="6.90912">
        <ele>1329.8000488281</ele>
        <time>2019-08-03T08:58:49.000Z</time>
      </trkpt>
      <trkpt lat="44.10216" lon="6.90923">
        <ele>1330.4000244141</ele>
        <time>2019-08-03T08:58:54.000Z</time>
      </trkpt>
      <trkpt lat="44.10216" lon="6.90928">
        <ele>1330.8000488281</ele>
        <time>2019-08-03T08:58:56.000Z</time>
      </trkpt>
      <trkpt lat="44.10218" lon="6.90941">
        <ele>1331.5999755859</ele>
        <time>2019-08-03T08:59:01.000Z</time>
      </trkpt>
      <trkpt lat="44.10218" lon="6.90946">
        <ele>1331.8000488281</ele>
        <time>2019-08-03T08:59:03.000Z</time>
      </trkpt>
      <trkpt lat="44.10219" lon="6.90962">
        <ele>1332.1999511719</ele>
        <time>2019-08-03T08:59:09.000Z</time>
      </trkpt>
      <trkpt lat="44.10222" lon="6.90984">
        <ele>1332.5999755859</ele>
        <time>2019-08-03T08:59:16.000Z</time>
      </trkpt>
      <trkpt lat="44.10223" lon="6.90987">
        <ele>1332.5999755859</ele>
        <time>2019-08-03T08:59:17.000Z</time>
      </trkpt>
      <trkpt lat="44.1023" lon="6.91006">
        <ele>1332.5999755859</ele>
        <time>2019-08-03T08:59:23.000Z</time>
      </trkpt>
      <trkpt lat="44.10236" lon="6.9102">
        <ele>1332.5999755859</ele>
        <time>2019-08-03T08:59:28.000Z</time>
      </trkpt>
      <trkpt lat="44.10242" lon="6.91041">
        <ele>1332.4000244141</ele>
        <time>2019-08-03T08:59:33.000Z</time>
      </trkpt>
      <trkpt lat="44.10243" lon="6.91057">
        <ele>1332.1999511719</ele>
        <time>2019-08-03T08:59:38.000Z</time>
      </trkpt>
      <trkpt lat="44.10241" lon="6.91081">
        <ele>1332</ele>
        <time>2019-08-03T08:59:44.000Z</time>
      </trkpt>
      <trkpt lat="44.10236" lon="6.91093">
        <ele>1332</ele>
        <time>2019-08-03T08:59:48.000Z</time>
      </trkpt>
      <trkpt lat="44.10234" lon="6.91104">
        <ele>1331.5999755859</ele>
        <time>2019-08-03T08:59:50.000Z</time>
      </trkpt>
      <trkpt lat="44.10231" lon="6.91113">
        <ele>1331.1999511719</ele>
        <time>2019-08-03T08:59:52.000Z</time>
      </trkpt>
      <trkpt lat="44.10228" lon="6.91134">
        <ele>1330.8000488281</ele>
        <time>2019-08-03T08:59:58.000Z</time>
      </trkpt>
      <trkpt lat="44.10224" lon="6.91152">
        <ele>1331.4000244141</ele>
        <time>2019-08-03T09:00:03.000Z</time>
      </trkpt>
      <trkpt lat="44.1022" lon="6.91168">
        <ele>1330.5999755859</ele>
        <time>2019-08-03T09:00:07.000Z</time>
      </trkpt>
      <trkpt lat="44.1022" lon="6.91172">
        <ele>1330.5999755859</ele>
        <time>2019-08-03T09:00:08.000Z</time>
      </trkpt>
      <trkpt lat="44.10213" lon="6.91192">
        <ele>1331</ele>
        <time>2019-08-03T09:00:14.000Z</time>
      </trkpt>
      <trkpt lat="44.10213" lon="6.91212">
        <ele>1331</ele>
        <time>2019-08-03T09:00:19.000Z</time>
      </trkpt>
      <trkpt lat="44.10212" lon="6.91231">
        <ele>1331.1999511719</ele>
        <time>2019-08-03T09:00:25.000Z</time>
      </trkpt>
      <trkpt lat="44.10211" lon="6.91237">
        <ele>1331.5999755859</ele>
        <time>2019-08-03T09:00:27.000Z</time>
      </trkpt>
      <trkpt lat="44.10211" lon="6.91244">
        <ele>1332.1999511719</ele>
        <time>2019-08-03T09:00:30.000Z</time>
      </trkpt>
      <trkpt lat="44.1021" lon="6.91249">
        <ele>1332.8000488281</ele>
        <time>2019-08-03T09:00:32.000Z</time>
      </trkpt>
      <trkpt lat="44.1021" lon="6.91257">
        <ele>1333.5999755859</ele>
        <time>2019-08-03T09:00:35.000Z</time>
      </trkpt>
      <trkpt lat="44.10211" lon="6.9126">
        <ele>1333.8000488281</ele>
        <time>2019-08-03T09:00:36.000Z</time>
      </trkpt>
      <trkpt lat="44.10213" lon="6.91265">
        <ele>1335</ele>
        <time>2019-08-03T09:00:39.000Z</time>
      </trkpt>
      <trkpt lat="44.10214" lon="6.9127">
        <ele>1336</ele>
        <time>2019-08-03T09:00:41.000Z</time>
      </trkpt>
      <trkpt lat="44.10215" lon="6.91272">
        <ele>1336.4000244141</ele>
        <time>2019-08-03T09:00:42.000Z</time>
      </trkpt>
      <trkpt lat="44.10217" lon="6.91276">
        <ele>1338</ele>
        <time>2019-08-03T09:00:45.000Z</time>
      </trkpt>
      <trkpt lat="44.10217" lon="6.91278">
        <ele>1338.5999755859</ele>
        <time>2019-08-03T09:00:47.000Z</time>
      </trkpt>
      <trkpt lat="44.10218" lon="6.91281">
        <ele>1339</ele>
        <time>2019-08-03T09:00:49.000Z</time>
      </trkpt>
      <trkpt lat="44.10219" lon="6.91288">
        <ele>1339.1999511719</ele>
        <time>2019-08-03T09:00:52.000Z</time>
      </trkpt>
      <trkpt lat="44.10223" lon="6.91307">
        <ele>1339.8000488281</ele>
        <time>2019-08-03T09:00:59.000Z</time>
      </trkpt>
      <trkpt lat="44.10229" lon="6.91315">
        <ele>1340.1999511719</ele>
        <time>2019-08-03T09:01:04.000Z</time>
      </trkpt>
      <trkpt lat="44.10231" lon="6.91317">
        <ele>1340.4000244141</ele>
        <time>2019-08-03T09:01:05.000Z</time>
      </trkpt>
      <trkpt lat="44.10236" lon="6.91325">
        <ele>1341</ele>
        <time>2019-08-03T09:01:10.000Z</time>
      </trkpt>
      <trkpt lat="44.10237" lon="6.91327">
        <ele>1341.1999511719</ele>
        <time>2019-08-03T09:01:11.000Z</time>
      </trkpt>
      <trkpt lat="44.10237" lon="6.91341">
        <ele>1341.8000488281</ele>
        <time>2019-08-03T09:01:16.000Z</time>
      </trkpt>
      <trkpt lat="44.10237" lon="6.91345">
        <ele>1342.1999511719</ele>
        <time>2019-08-03T09:01:19.000Z</time>
      </trkpt>
      <trkpt lat="44.10237" lon="6.91348">
        <ele>1342.5999755859</ele>
        <time>2019-08-03T09:01:21.000Z</time>
      </trkpt>
      <trkpt lat="44.10236" lon="6.91354">
        <ele>1343.4000244141</ele>
        <time>2019-08-03T09:01:24.000Z</time>
      </trkpt>
      <trkpt lat="44.10235" lon="6.91359">
        <ele>1344.1999511719</ele>
        <time>2019-08-03T09:01:28.000Z</time>
      </trkpt>
      <trkpt lat="44.10235" lon="6.9136">
        <ele>1344.4000244141</ele>
        <time>2019-08-03T09:01:29.000Z</time>
      </trkpt>
      <trkpt lat="44.10235" lon="6.91361">
        <ele>1344.5999755859</ele>
        <time>2019-08-03T09:01:34.000Z</time>
      </trkpt>
      <trkpt lat="44.10235" lon="6.91364">
        <ele>1344.8000488281</ele>
        <time>2019-08-03T09:01:43.000Z</time>
      </trkpt>
      <trkpt lat="44.10234" lon="6.91371">
        <ele>1345</ele>
        <time>2019-08-03T09:02:02.000Z</time>
      </trkpt>
      <trkpt lat="44.10234" lon="6.91374">
        <ele>1345.5999755859</ele>
        <time>2019-08-03T09:02:06.000Z</time>
      </trkpt>
      <trkpt lat="44.10233" lon="6.91378">
        <ele>1346.1999511719</ele>
        <time>2019-08-03T09:02:10.000Z</time>
      </trkpt>
      <trkpt lat="44.10233" lon="6.91381">
        <ele>1346.8000488281</ele>
        <time>2019-08-03T09:02:13.000Z</time>
      </trkpt>
      <trkpt lat="44.10234" lon="6.91382">
        <ele>1347.4000244141</ele>
        <time>2019-08-03T09:02:17.000Z</time>
      </trkpt>
      <trkpt lat="44.10233" lon="6.91384">
        <ele>1347.4000244141</ele>
        <time>2019-08-03T09:02:24.000Z</time>
      </trkpt>
      <trkpt lat="44.10233" lon="6.91384">
        <ele>1347.4000244141</ele>
        <time>2019-08-03T09:02:28.000Z</time>
      </trkpt>
      <trkpt lat="44.10234" lon="6.91385">
        <ele>1347.4000244141</ele>
        <time>2019-08-03T09:02:37.000Z</time>
      </trkpt>
      <trkpt lat="44.10234" lon="6.91386">
        <ele>1347.5999755859</ele>
        <time>2019-08-03T09:02:46.000Z</time>
      </trkpt>
      <trkpt lat="44.10235" lon="6.91386">
        <ele>1347.4000244141</ele>
        <time>2019-08-03T09:03:07.000Z</time>
      </trkpt>
      <trkpt lat="44.10236" lon="6.91386">
        <ele>1347.4000244141</ele>
        <time>2019-08-03T09:03:19.000Z</time>
      </trkpt>
      <trkpt lat="44.10236" lon="6.91385">
        <ele>1347.5999755859</ele>
        <time>2019-08-03T09:03:22.000Z</time>
      </trkpt>
      <trkpt lat="44.10238" lon="6.91383">
        <ele>1347.5999755859</ele>
        <time>2019-08-03T09:03:24.000Z</time>
      </trkpt>
      <trkpt lat="44.10243" lon="6.91377">
        <ele>1347.8000488281</ele>
        <time>2019-08-03T09:03:28.000Z</time>
      </trkpt>
      <trkpt lat="44.10244" lon="6.91376">
        <ele>1347.8000488281</ele>
        <time>2019-08-03T09:03:29.000Z</time>
      </trkpt>
      <trkpt lat="44.1025" lon="6.91366">
        <ele>1348.8000488281</ele>
        <time>2019-08-03T09:03:35.000Z</time>
      </trkpt>
      <trkpt lat="44.10254" lon="6.9136">
        <ele>1349.1999511719</ele>
        <time>2019-08-03T09:03:39.000Z</time>
      </trkpt>
      <trkpt lat="44.10257" lon="6.91355">
        <ele>1349.5999755859</ele>
        <time>2019-08-03T09:03:41.000Z</time>
      </trkpt>
      <trkpt lat="44.10259" lon="6.91351">
        <ele>1349.8000488281</ele>
        <time>2019-08-03T09:03:43.000Z</time>
      </trkpt>
      <trkpt lat="44.10262" lon="6.91336">
        <ele>1350.8000488281</ele>
        <time>2019-08-03T09:03:49.000Z</time>
      </trkpt>
      <trkpt lat="44.10262" lon="6.91334">
        <ele>1351</ele>
        <time>2019-08-03T09:03:50.000Z</time>
      </trkpt>
      <trkpt lat="44.10263" lon="6.91327">
        <ele>1352.1999511719</ele>
        <time>2019-08-03T09:03:54.000Z</time>
      </trkpt>
      <trkpt lat="44.10263" lon="6.91324">
        <ele>1352.5999755859</ele>
        <time>2019-08-03T09:03:56.000Z</time>
      </trkpt>
      <trkpt lat="44.10262" lon="6.91318">
        <ele>1353.1999511719</ele>
        <time>2019-08-03T09:04:00.000Z</time>
      </trkpt>
      <trkpt lat="44.10262" lon="6.9131">
        <ele>1354.1999511719</ele>
        <time>2019-08-03T09:04:04.000Z</time>
      </trkpt>
      <trkpt lat="44.10262" lon="6.91308">
        <ele>1354.4000244141</ele>
        <time>2019-08-03T09:04:05.000Z</time>
      </trkpt>
      <trkpt lat="44.10261" lon="6.91301">
        <ele>1355.5999755859</ele>
        <time>2019-08-03T09:04:09.000Z</time>
      </trkpt>
      <trkpt lat="44.10261" lon="6.91292">
        <ele>1356.4000244141</ele>
        <time>2019-08-03T09:04:13.000Z</time>
      </trkpt>
      <trkpt lat="44.10261" lon="6.91288">
        <ele>1356.5999755859</ele>
        <time>2019-08-03T09:04:15.000Z</time>
      </trkpt>
      <trkpt lat="44.10263" lon="6.91277">
        <ele>1357.8000488281</ele>
        <time>2019-08-03T09:04:20.000Z</time>
      </trkpt>
      <trkpt lat="44.10266" lon="6.91266">
        <ele>1358.1999511719</ele>
        <time>2019-08-03T09:04:25.000Z</time>
      </trkpt>
      <trkpt lat="44.10269" lon="6.91257">
        <ele>1359</ele>
        <time>2019-08-03T09:04:30.000Z</time>
      </trkpt>
      <trkpt lat="44.1027" lon="6.91253">
        <ele>1359.5999755859</ele>
        <time>2019-08-03T09:04:32.000Z</time>
      </trkpt>
      <trkpt lat="44.10272" lon="6.91248">
        <ele>1360</ele>
        <time>2019-08-03T09:04:35.000Z</time>
      </trkpt>
      <trkpt lat="44.10275" lon="6.9124">
        <ele>1360.5999755859</ele>
        <time>2019-08-03T09:04:39.000Z</time>
      </trkpt>
      <trkpt lat="44.10276" lon="6.91235">
        <ele>1361.1999511719</ele>
        <time>2019-08-03T09:04:42.000Z</time>
      </trkpt>
      <trkpt lat="44.1028" lon="6.91228">
        <ele>1361.8000488281</ele>
        <time>2019-08-03T09:04:46.000Z</time>
      </trkpt>
      <trkpt lat="44.10281" lon="6.91224">
        <ele>1362.1999511719</ele>
        <time>2019-08-03T09:04:48.000Z</time>
      </trkpt>
      <trkpt lat="44.10283" lon="6.91219">
        <ele>1362.4000244141</ele>
        <time>2019-08-03T09:04:51.000Z</time>
      </trkpt>
      <trkpt lat="44.10287" lon="6.91209">
        <ele>1363.1999511719</ele>
        <time>2019-08-03T09:04:56.000Z</time>
      </trkpt>
      <trkpt lat="44.10289" lon="6.91206">
        <ele>1363.5999755859</ele>
        <time>2019-08-03T09:04:58.000Z</time>
      </trkpt>
      <trkpt lat="44.10293" lon="6.91198">
        <ele>1364.1999511719</ele>
        <time>2019-08-03T09:05:03.000Z</time>
      </trkpt>
      <trkpt lat="44.103" lon="6.91186">
        <ele>1365.5999755859</ele>
        <time>2019-08-03T09:05:10.000Z</time>
      </trkpt>
      <trkpt lat="44.10301" lon="6.91185">
        <ele>1365.5999755859</ele>
        <time>2019-08-03T09:05:11.000Z</time>
      </trkpt>
      <trkpt lat="44.10304" lon="6.91178">
        <ele>1366.5999755859</ele>
        <time>2019-08-03T09:05:15.000Z</time>
      </trkpt>
      <trkpt lat="44.10307" lon="6.91173">
        <ele>1367.1999511719</ele>
        <time>2019-08-03T09:05:18.000Z</time>
      </trkpt>
      <trkpt lat="44.10309" lon="6.91169">
        <ele>1367.5999755859</ele>
        <time>2019-08-03T09:05:20.000Z</time>
      </trkpt>
      <trkpt lat="44.10312" lon="6.91162">
        <ele>1368.8000488281</ele>
        <time>2019-08-03T09:05:24.000Z</time>
      </trkpt>
      <trkpt lat="44.10313" lon="6.91158">
        <ele>1369.1999511719</ele>
        <time>2019-08-03T09:05:26.000Z</time>
      </trkpt>
      <trkpt lat="44.10316" lon="6.9115">
        <ele>1369.8000488281</ele>
        <time>2019-08-03T09:05:30.000Z</time>
      </trkpt>
      <trkpt lat="44.10317" lon="6.91146">
        <ele>1370.4000244141</ele>
        <time>2019-08-03T09:05:32.000Z</time>
      </trkpt>
      <trkpt lat="44.10321" lon="6.91137">
        <ele>1371</ele>
        <time>2019-08-03T09:05:36.000Z</time>
      </trkpt>
      <trkpt lat="44.10324" lon="6.91128">
        <ele>1371.4000244141</ele>
        <time>2019-08-03T09:05:40.000Z</time>
      </trkpt>
      <trkpt lat="44.10327" lon="6.91118">
        <ele>1372</ele>
        <time>2019-08-03T09:05:44.000Z</time>
      </trkpt>
      <trkpt lat="44.10329" lon="6.91104">
        <ele>1372.4000244141</ele>
        <time>2019-08-03T09:05:49.000Z</time>
      </trkpt>
      <trkpt lat="44.10332" lon="6.91085">
        <ele>1372.5999755859</ele>
        <time>2019-08-03T09:05:56.000Z</time>
      </trkpt>
      <trkpt lat="44.10334" lon="6.91077">
        <ele>1373.1999511719</ele>
        <time>2019-08-03T09:05:59.000Z</time>
      </trkpt>
      <trkpt lat="44.10335" lon="6.91069">
        <ele>1373.5999755859</ele>
        <time>2019-08-03T09:06:02.000Z</time>
      </trkpt>
      <trkpt lat="44.10337" lon="6.9106">
        <ele>1374.1999511719</ele>
        <time>2019-08-03T09:06:05.000Z</time>
      </trkpt>
      <trkpt lat="44.10339" lon="6.91048">
        <ele>1375.1999511719</ele>
        <time>2019-08-03T09:06:09.000Z</time>
      </trkpt>
      <trkpt lat="44.10341" lon="6.91043">
        <ele>1376</ele>
        <time>2019-08-03T09:06:11.000Z</time>
      </trkpt>
      <trkpt lat="44.10343" lon="6.91038">
        <ele>1376.5999755859</ele>
        <time>2019-08-03T09:06:13.000Z</time>
      </trkpt>
      <trkpt lat="44.10345" lon="6.91032">
        <ele>1377.5999755859</ele>
        <time>2019-08-03T09:06:16.000Z</time>
      </trkpt>
      <trkpt lat="44.10347" lon="6.91027">
        <ele>1378.5999755859</ele>
        <time>2019-08-03T09:06:19.000Z</time>
      </trkpt>
      <trkpt lat="44.10348" lon="6.91025">
        <ele>1378.5999755859</ele>
        <time>2019-08-03T09:06:20.000Z</time>
      </trkpt>
      <trkpt lat="44.10353" lon="6.91015">
        <ele>1379.8000488281</ele>
        <time>2019-08-03T09:06:25.000Z</time>
      </trkpt>
      <trkpt lat="44.10356" lon="6.91008">
        <ele>1381</ele>
        <time>2019-08-03T09:06:29.000Z</time>
      </trkpt>
      <trkpt lat="44.10362" lon="6.90994">
        <ele>1382</ele>
        <time>2019-08-03T09:06:36.000Z</time>
      </trkpt>
      <trkpt lat="44.10363" lon="6.90992">
        <ele>1382.1999511719</ele>
        <time>2019-08-03T09:06:37.000Z</time>
      </trkpt>
      <trkpt lat="44.10366" lon="6.9098">
        <ele>1383.1999511719</ele>
        <time>2019-08-03T09:06:43.000Z</time>
      </trkpt>
      <trkpt lat="44.10369" lon="6.90974">
        <ele>1383.8000488281</ele>
        <time>2019-08-03T09:06:46.000Z</time>
      </trkpt>
      <trkpt lat="44.10372" lon="6.90971">
        <ele>1384.4000244141</ele>
        <time>2019-08-03T09:06:49.000Z</time>
      </trkpt>
      <trkpt lat="44.10375" lon="6.90972">
        <ele>1385</ele>
        <time>2019-08-03T09:06:51.000Z</time>
      </trkpt>
      <trkpt lat="44.10377" lon="6.90973">
        <ele>1385.4000244141</ele>
        <time>2019-08-03T09:06:53.000Z</time>
      </trkpt>
      <trkpt lat="44.10378" lon="6.90974">
        <ele>1385.5999755859</ele>
        <time>2019-08-03T09:06:54.000Z</time>
      </trkpt>
      <trkpt lat="44.10379" lon="6.90976">
        <ele>1385.8000488281</ele>
        <time>2019-08-03T09:06:55.000Z</time>
      </trkpt>
      <trkpt lat="44.10379" lon="6.90979">
        <ele>1386</ele>
        <time>2019-08-03T09:06:57.000Z</time>
      </trkpt>
      <trkpt lat="44.1038" lon="6.90986">
        <ele>1386.5999755859</ele>
        <time>2019-08-03T09:07:01.000Z</time>
      </trkpt>
      <trkpt lat="44.10379" lon="6.90988">
        <ele>1386.8000488281</ele>
        <time>2019-08-03T09:07:02.000Z</time>
      </trkpt>
      <trkpt lat="44.10379" lon="6.90992">
        <ele>1387.4000244141</ele>
        <time>2019-08-03T09:07:04.000Z</time>
      </trkpt>
      <trkpt lat="44.10379" lon="6.90996">
        <ele>1387.8000488281</ele>
        <time>2019-08-03T09:07:06.000Z</time>
      </trkpt>
      <trkpt lat="44.10378" lon="6.91004">
        <ele>1388.5999755859</ele>
        <time>2019-08-03T09:07:10.000Z</time>
      </trkpt>
      <trkpt lat="44.10378" lon="6.91006">
        <ele>1389</ele>
        <time>2019-08-03T09:07:11.000Z</time>
      </trkpt>
      <trkpt lat="44.10379" lon="6.91013">
        <ele>1390</ele>
        <time>2019-08-03T09:07:16.000Z</time>
      </trkpt>
      <trkpt lat="44.1038" lon="6.91014">
        <ele>1390.4000244141</ele>
        <time>2019-08-03T09:07:18.000Z</time>
      </trkpt>
      <trkpt lat="44.10382" lon="6.91015">
        <ele>1391</ele>
        <time>2019-08-03T09:07:21.000Z</time>
      </trkpt>
      <trkpt lat="44.10383" lon="6.91014">
        <ele>1391</ele>
        <time>2019-08-03T09:07:22.000Z</time>
      </trkpt>
      <trkpt lat="44.10384" lon="6.91012">
        <ele>1391</ele>
        <time>2019-08-03T09:07:23.000Z</time>
      </trkpt>
      <trkpt lat="44.10386" lon="6.91009">
        <ele>1391.1999511719</ele>
        <time>2019-08-03T09:07:25.000Z</time>
      </trkpt>
      <trkpt lat="44.10389" lon="6.91003">
        <ele>1392</ele>
        <time>2019-08-03T09:07:29.000Z</time>
      </trkpt>
      <trkpt lat="44.1039" lon="6.91002">
        <ele>1392.1999511719</ele>
        <time>2019-08-03T09:07:30.000Z</time>
      </trkpt>
      <trkpt lat="44.10394" lon="6.90995">
        <ele>1393</ele>
        <time>2019-08-03T09:07:36.000Z</time>
      </trkpt>
      <trkpt lat="44.10395" lon="6.90995">
        <ele>1393.1999511719</ele>
        <time>2019-08-03T09:07:38.000Z</time>
      </trkpt>
      <trkpt lat="44.10395" lon="6.90995">
        <ele>1393.1999511719</ele>
        <time>2019-08-03T09:07:42.000Z</time>
      </trkpt>
      <trkpt lat="44.10396" lon="6.90993">
        <ele>1393.1999511719</ele>
        <time>2019-08-03T09:07:48.000Z</time>
      </trkpt>
      <trkpt lat="44.10397" lon="6.90992">
        <ele>1393.1999511719</ele>
        <time>2019-08-03T09:07:49.000Z</time>
      </trkpt>
      <trkpt lat="44.10398" lon="6.90992">
        <ele>1393.4000244141</ele>
        <time>2019-08-03T09:07:53.000Z</time>
      </trkpt>
      <trkpt lat="44.10402" lon="6.90992">
        <ele>1393.5999755859</ele>
        <time>2019-08-03T09:08:00.000Z</time>
      </trkpt>
      <trkpt lat="44.10405" lon="6.90993">
        <ele>1394.4000244141</ele>
        <time>2019-08-03T09:08:06.000Z</time>
      </trkpt>
      <trkpt lat="44.10407" lon="6.90996">
        <ele>1395.4000244141</ele>
        <time>2019-08-03T09:08:12.000Z</time>
      </trkpt>
      <trkpt lat="44.10407" lon="6.90998">
        <ele>1395.8000488281</ele>
        <time>2019-08-03T09:08:13.000Z</time>
      </trkpt>
      <trkpt lat="44.10408" lon="6.91001">
        <ele>1396.5999755859</ele>
        <time>2019-08-03T09:08:17.000Z</time>
      </trkpt>
      <trkpt lat="44.10409" lon="6.91001">
        <ele>1397</ele>
        <time>2019-08-03T09:08:20.000Z</time>
      </trkpt>
      <trkpt lat="44.10409" lon="6.91002">
        <ele>1397</ele>
        <time>2019-08-03T09:08:21.000Z</time>
      </trkpt>
      <trkpt lat="44.10412" lon="6.91006">
        <ele>1397.1999511719</ele>
        <time>2019-08-03T09:08:24.000Z</time>
      </trkpt>
      <trkpt lat="44.10416" lon="6.91013">
        <ele>1397.8000488281</ele>
        <time>2019-08-03T09:08:29.000Z</time>
      </trkpt>
      <trkpt lat="44.10417" lon="6.91015">
        <ele>1398</ele>
        <time>2019-08-03T09:08:30.000Z</time>
      </trkpt>
      <trkpt lat="44.10418" lon="6.91016">
        <ele>1398</ele>
        <time>2019-08-03T09:08:31.000Z</time>
      </trkpt>
      <trkpt lat="44.10421" lon="6.91022">
        <ele>1398.8000488281</ele>
        <time>2019-08-03T09:08:35.000Z</time>
      </trkpt>
      <trkpt lat="44.10421" lon="6.91023">
        <ele>1399</ele>
        <time>2019-08-03T09:08:36.000Z</time>
      </trkpt>
      <trkpt lat="44.10424" lon="6.91029">
        <ele>1399.4000244141</ele>
        <time>2019-08-03T09:08:40.000Z</time>
      </trkpt>
      <trkpt lat="44.10428" lon="6.91035">
        <ele>1400</ele>
        <time>2019-08-03T09:08:45.000Z</time>
      </trkpt>
      <trkpt lat="44.10429" lon="6.91038">
        <ele>1400.4000244141</ele>
        <time>2019-08-03T09:08:47.000Z</time>
      </trkpt>
      <trkpt lat="44.10435" lon="6.91043">
        <ele>1401</ele>
        <time>2019-08-03T09:08:52.000Z</time>
      </trkpt>
      <trkpt lat="44.10436" lon="6.91045">
        <ele>1401.1999511719</ele>
        <time>2019-08-03T09:08:53.000Z</time>
      </trkpt>
      <trkpt lat="44.10438" lon="6.91048">
        <ele>1402</ele>
        <time>2019-08-03T09:08:56.000Z</time>
      </trkpt>
      <trkpt lat="44.10439" lon="6.91049">
        <ele>1402.1999511719</ele>
        <time>2019-08-03T09:08:57.000Z</time>
      </trkpt>
      <trkpt lat="44.10441" lon="6.91052">
        <ele>1403</ele>
        <time>2019-08-03T09:09:01.000Z</time>
      </trkpt>
      <trkpt lat="44.10443" lon="6.91055">
        <ele>1403.4000244141</ele>
        <time>2019-08-03T09:09:04.000Z</time>
      </trkpt>
      <trkpt lat="44.10447" lon="6.91058">
        <ele>1404</ele>
        <time>2019-08-03T09:09:08.000Z</time>
      </trkpt>
      <trkpt lat="44.1045" lon="6.91061">
        <ele>1404.5999755859</ele>
        <time>2019-08-03T09:09:11.000Z</time>
      </trkpt>
      <trkpt lat="44.10453" lon="6.91065">
        <ele>1405</ele>
        <time>2019-08-03T09:09:14.000Z</time>
      </trkpt>
      <trkpt lat="44.10454" lon="6.91069">
        <ele>1405.8000488281</ele>
        <time>2019-08-03T09:09:17.000Z</time>
      </trkpt>
      <trkpt lat="44.10457" lon="6.91073">
        <ele>1406.1999511719</ele>
        <time>2019-08-03T09:09:20.000Z</time>
      </trkpt>
      <trkpt lat="44.10462" lon="6.91079">
        <ele>1406.8000488281</ele>
        <time>2019-08-03T09:09:24.000Z</time>
      </trkpt>
      <trkpt lat="44.10465" lon="6.91082">
        <ele>1407.1999511719</ele>
        <time>2019-08-03T09:09:26.000Z</time>
      </trkpt>
      <trkpt lat="44.10468" lon="6.91086">
        <ele>1408</ele>
        <time>2019-08-03T09:09:29.000Z</time>
      </trkpt>
      <trkpt lat="44.10468" lon="6.91087">
        <ele>1408.4000244141</ele>
        <time>2019-08-03T09:09:31.000Z</time>
      </trkpt>
      <trkpt lat="44.10471" lon="6.91091">
        <ele>1409</ele>
        <time>2019-08-03T09:09:34.000Z</time>
      </trkpt>
      <trkpt lat="44.10475" lon="6.91095">
        <ele>1409.5999755859</ele>
        <time>2019-08-03T09:09:37.000Z</time>
      </trkpt>
      <trkpt lat="44.10478" lon="6.911">
        <ele>1410</ele>
        <time>2019-08-03T09:09:40.000Z</time>
      </trkpt>
      <trkpt lat="44.10485" lon="6.91106">
        <ele>1410.8000488281</ele>
        <time>2019-08-03T09:09:44.000Z</time>
      </trkpt>
      <trkpt lat="44.10486" lon="6.91107">
        <ele>1411.1999511719</ele>
        <time>2019-08-03T09:09:45.000Z</time>
      </trkpt>
      <trkpt lat="44.10493" lon="6.91116">
        <ele>1412</ele>
        <time>2019-08-03T09:09:51.000Z</time>
      </trkpt>
      <trkpt lat="44.10495" lon="6.91119">
        <ele>1412.1999511719</ele>
        <time>2019-08-03T09:09:53.000Z</time>
      </trkpt>
      <trkpt lat="44.105" lon="6.91128">
        <ele>1412.4000244141</ele>
        <time>2019-08-03T09:09:58.000Z</time>
      </trkpt>
      <trkpt lat="44.10504" lon="6.91133">
        <ele>1413.4000244141</ele>
        <time>2019-08-03T09:10:03.000Z</time>
      </trkpt>
      <trkpt lat="44.10505" lon="6.91135">
        <ele>1413.8000488281</ele>
        <time>2019-08-03T09:10:04.000Z</time>
      </trkpt>
      <trkpt lat="44.10509" lon="6.91139">
        <ele>1414.5999755859</ele>
        <time>2019-08-03T09:10:08.000Z</time>
      </trkpt>
      <trkpt lat="44.10511" lon="6.91144">
        <ele>1415</ele>
        <time>2019-08-03T09:10:11.000Z</time>
      </trkpt>
      <trkpt lat="44.10512" lon="6.91148">
        <ele>1415</ele>
        <time>2019-08-03T09:10:13.000Z</time>
      </trkpt>
      <trkpt lat="44.10514" lon="6.91151">
        <ele>1415.8000488281</ele>
        <time>2019-08-03T09:10:16.000Z</time>
      </trkpt>
      <trkpt lat="44.10515" lon="6.91153">
        <ele>1416</ele>
        <time>2019-08-03T09:10:17.000Z</time>
      </trkpt>
      <trkpt lat="44.10516" lon="6.91159">
        <ele>1416.8000488281</ele>
        <time>2019-08-03T09:10:21.000Z</time>
      </trkpt>
      <trkpt lat="44.10517" lon="6.91165">
        <ele>1418</ele>
        <time>2019-08-03T09:10:25.000Z</time>
      </trkpt>
      <trkpt lat="44.10518" lon="6.91168">
        <ele>1418.4000244141</ele>
        <time>2019-08-03T09:10:27.000Z</time>
      </trkpt>
      <trkpt lat="44.1052" lon="6.91173">
        <ele>1419.1999511719</ele>
        <time>2019-08-03T09:10:30.000Z</time>
      </trkpt>
      <trkpt lat="44.10522" lon="6.91176">
        <ele>1419.4000244141</ele>
        <time>2019-08-03T09:10:32.000Z</time>
      </trkpt>
      <trkpt lat="44.10524" lon="6.9118">
        <ele>1420.1999511719</ele>
        <time>2019-08-03T09:10:35.000Z</time>
      </trkpt>
      <trkpt lat="44.10526" lon="6.91183">
        <ele>1420.8000488281</ele>
        <time>2019-08-03T09:10:38.000Z</time>
      </trkpt>
      <trkpt lat="44.10528" lon="6.91188">
        <ele>1421.1999511719</ele>
        <time>2019-08-03T09:10:41.000Z</time>
      </trkpt>
      <trkpt lat="44.10532" lon="6.91195">
        <ele>1422.4000244141</ele>
        <time>2019-08-03T09:10:47.000Z</time>
      </trkpt>
      <trkpt lat="44.10536" lon="6.91202">
        <ele>1423.5999755859</ele>
        <time>2019-08-03T09:10:52.000Z</time>
      </trkpt>
      <trkpt lat="44.10536" lon="6.91203">
        <ele>1423.8000488281</ele>
        <time>2019-08-03T09:10:53.000Z</time>
      </trkpt>
      <trkpt lat="44.10537" lon="6.91205">
        <ele>1424.8000488281</ele>
        <time>2019-08-03T09:10:57.000Z</time>
      </trkpt>
      <trkpt lat="44.10538" lon="6.91206">
        <ele>1424.8000488281</ele>
        <time>2019-08-03T09:11:00.000Z</time>
      </trkpt>
      <trkpt lat="44.10542" lon="6.91213">
        <ele>1425.1999511719</ele>
        <time>2019-08-03T09:11:07.000Z</time>
      </trkpt>
      <trkpt lat="44.10543" lon="6.91216">
        <ele>1425.8000488281</ele>
        <time>2019-08-03T09:11:10.000Z</time>
      </trkpt>
      <trkpt lat="44.10545" lon="6.91221">
        <ele>1426.8000488281</ele>
        <time>2019-08-03T09:11:15.000Z</time>
      </trkpt>
      <trkpt lat="44.10545" lon="6.91223">
        <ele>1427</ele>
        <time>2019-08-03T09:11:17.000Z</time>
      </trkpt>
      <trkpt lat="44.10546" lon="6.91226">
        <ele>1427.4000244141</ele>
        <time>2019-08-03T09:11:21.000Z</time>
      </trkpt>
      <trkpt lat="44.10547" lon="6.91231">
        <ele>1428</ele>
        <time>2019-08-03T09:11:26.000Z</time>
      </trkpt>
      <trkpt lat="44.10549" lon="6.91233">
        <ele>1428.1999511719</ele>
        <time>2019-08-03T09:11:29.000Z</time>
      </trkpt>
      <trkpt lat="44.1055" lon="6.91235">
        <ele>1428.4000244141</ele>
        <time>2019-08-03T09:11:36.000Z</time>
      </trkpt>
      <trkpt lat="44.10549" lon="6.91237">
        <ele>1428.5999755859</ele>
        <time>2019-08-03T09:11:51.000Z</time>
      </trkpt>
      <trkpt lat="44.10552" lon="6.91239">
        <ele>1428.4000244141</ele>
        <time>2019-08-03T09:11:57.000Z</time>
      </trkpt>
      <trkpt lat="44.10562" lon="6.91248">
        <ele>1429</ele>
        <time>2019-08-03T09:12:05.000Z</time>
      </trkpt>
      <trkpt lat="44.10571" lon="6.91257">
        <ele>1430.1999511719</ele>
        <time>2019-08-03T09:12:12.000Z</time>
      </trkpt>
      <trkpt lat="44.10575" lon="6.91261">
        <ele>1430.4000244141</ele>
        <time>2019-08-03T09:12:15.000Z</time>
      </trkpt>
      <trkpt lat="44.10582" lon="6.91267">
        <ele>1431.1999511719</ele>
        <time>2019-08-03T09:12:20.000Z</time>
      </trkpt>
      <trkpt lat="44.10584" lon="6.91269">
        <ele>1431.8000488281</ele>
        <time>2019-08-03T09:12:22.000Z</time>
      </trkpt>
      <trkpt lat="44.10588" lon="6.91275">
        <ele>1432.4000244141</ele>
        <time>2019-08-03T09:12:26.000Z</time>
      </trkpt>
      <trkpt lat="44.10593" lon="6.91278">
        <ele>1433</ele>
        <time>2019-08-03T09:12:29.000Z</time>
      </trkpt>
      <trkpt lat="44.10597" lon="6.9128">
        <ele>1433.4000244141</ele>
        <time>2019-08-03T09:12:32.000Z</time>
      </trkpt>
      <trkpt lat="44.10602" lon="6.91285">
        <ele>1434</ele>
        <time>2019-08-03T09:12:35.000Z</time>
      </trkpt>
      <trkpt lat="44.10606" lon="6.91288">
        <ele>1434.4000244141</ele>
        <time>2019-08-03T09:12:38.000Z</time>
      </trkpt>
      <trkpt lat="44.1061" lon="6.91292">
        <ele>1435</ele>
        <time>2019-08-03T09:12:41.000Z</time>
      </trkpt>
      <trkpt lat="44.10613" lon="6.91295">
        <ele>1435.5999755859</ele>
        <time>2019-08-03T09:12:44.000Z</time>
      </trkpt>
      <trkpt lat="44.10616" lon="6.91297">
        <ele>1436</ele>
        <time>2019-08-03T09:12:46.000Z</time>
      </trkpt>
      <trkpt lat="44.10621" lon="6.91304">
        <ele>1436.5999755859</ele>
        <time>2019-08-03T09:12:51.000Z</time>
      </trkpt>
      <trkpt lat="44.10622" lon="6.91305">
        <ele>1436.8000488281</ele>
        <time>2019-08-03T09:12:52.000Z</time>
      </trkpt>
      <trkpt lat="44.1063" lon="6.91312">
        <ele>1437.8000488281</ele>
        <time>2019-08-03T09:12:58.000Z</time>
      </trkpt>
      <trkpt lat="44.10637" lon="6.91319">
        <ele>1439</ele>
        <time>2019-08-03T09:13:04.000Z</time>
      </trkpt>
      <trkpt lat="44.10638" lon="6.9132">
        <ele>1439</ele>
        <time>2019-08-03T09:13:05.000Z</time>
      </trkpt>
      <trkpt lat="44.1064" lon="6.91322">
        <ele>1439.1999511719</ele>
        <time>2019-08-03T09:13:07.000Z</time>
      </trkpt>
      <trkpt lat="44.10643" lon="6.91325">
        <ele>1439.5999755859</ele>
        <time>2019-08-03T09:13:09.000Z</time>
      </trkpt>
      <trkpt lat="44.10646" lon="6.91327">
        <ele>1440</ele>
        <time>2019-08-03T09:13:11.000Z</time>
      </trkpt>
      <trkpt lat="44.10647" lon="6.91328">
        <ele>1440.1999511719</ele>
        <time>2019-08-03T09:13:12.000Z</time>
      </trkpt>
      <trkpt lat="44.10652" lon="6.91331">
        <ele>1440.5999755859</ele>
        <time>2019-08-03T09:13:15.000Z</time>
      </trkpt>
      <trkpt lat="44.10656" lon="6.91335">
        <ele>1441</ele>
        <time>2019-08-03T09:13:18.000Z</time>
      </trkpt>
      <trkpt lat="44.10663" lon="6.91343">
        <ele>1442</ele>
        <time>2019-08-03T09:13:23.000Z</time>
      </trkpt>
      <trkpt lat="44.10665" lon="6.91345">
        <ele>1442.1999511719</ele>
        <time>2019-08-03T09:13:24.000Z</time>
      </trkpt>
      <trkpt lat="44.10671" lon="6.91355">
        <ele>1443.1999511719</ele>
        <time>2019-08-03T09:13:30.000Z</time>
      </trkpt>
      <trkpt lat="44.10672" lon="6.91357">
        <ele>1443.4000244141</ele>
        <time>2019-08-03T09:13:31.000Z</time>
      </trkpt>
      <trkpt lat="44.10676" lon="6.91362">
        <ele>1444.1999511719</ele>
        <time>2019-08-03T09:13:35.000Z</time>
      </trkpt>
      <trkpt lat="44.1068" lon="6.91366">
        <ele>1444.8000488281</ele>
        <time>2019-08-03T09:13:38.000Z</time>
      </trkpt>
      <trkpt lat="44.10684" lon="6.91369">
        <ele>1445.4000244141</ele>
        <time>2019-08-03T09:13:41.000Z</time>
      </trkpt>
      <trkpt lat="44.10689" lon="6.91374">
        <ele>1446</ele>
        <time>2019-08-03T09:13:45.000Z</time>
      </trkpt>
      <trkpt lat="44.10693" lon="6.91377">
        <ele>1446.4000244141</ele>
        <time>2019-08-03T09:13:48.000Z</time>
      </trkpt>
      <trkpt lat="44.10697" lon="6.9138">
        <ele>1447</ele>
        <time>2019-08-03T09:13:51.000Z</time>
      </trkpt>
      <trkpt lat="44.107" lon="6.91384">
        <ele>1447.4000244141</ele>
        <time>2019-08-03T09:13:53.000Z</time>
      </trkpt>
      <trkpt lat="44.10705" lon="6.91391">
        <ele>1448.4000244141</ele>
        <time>2019-08-03T09:13:58.000Z</time>
      </trkpt>
      <trkpt lat="44.10714" lon="6.91402">
        <ele>1449.5999755859</ele>
        <time>2019-08-03T09:14:05.000Z</time>
      </trkpt>
      <trkpt lat="44.10715" lon="6.91404">
        <ele>1449.8000488281</ele>
        <time>2019-08-03T09:14:06.000Z</time>
      </trkpt>
      <trkpt lat="44.1072" lon="6.91414">
        <ele>1450.5999755859</ele>
        <time>2019-08-03T09:14:11.000Z</time>
      </trkpt>
      <trkpt lat="44.10722" lon="6.91418">
        <ele>1450.8000488281</ele>
        <time>2019-08-03T09:14:13.000Z</time>
      </trkpt>
      <trkpt lat="44.10728" lon="6.91427">
        <ele>1451.8000488281</ele>
        <time>2019-08-03T09:14:18.000Z</time>
      </trkpt>
      <trkpt lat="44.10732" lon="6.91432">
        <ele>1452.1999511719</ele>
        <time>2019-08-03T09:14:21.000Z</time>
      </trkpt>
      <trkpt lat="44.10736" lon="6.91437">
        <ele>1452.8000488281</ele>
        <time>2019-08-03T09:14:24.000Z</time>
      </trkpt>
      <trkpt lat="44.10742" lon="6.91447">
        <ele>1453.8000488281</ele>
        <time>2019-08-03T09:14:29.000Z</time>
      </trkpt>
      <trkpt lat="44.10743" lon="6.91461">
        <ele>1455</ele>
        <time>2019-08-03T09:14:35.000Z</time>
      </trkpt>
      <trkpt lat="44.10739" lon="6.91474">
        <ele>1456</ele>
        <time>2019-08-03T09:14:41.000Z</time>
      </trkpt>
      <trkpt lat="44.10738" lon="6.91475">
        <ele>1456.1999511719</ele>
        <time>2019-08-03T09:14:42.000Z</time>
      </trkpt>
      <trkpt lat="44.10735" lon="6.91485">
        <ele>1457</ele>
        <time>2019-08-03T09:14:47.000Z</time>
      </trkpt>
      <trkpt lat="44.10732" lon="6.91492">
        <ele>1457.5999755859</ele>
        <time>2019-08-03T09:14:50.000Z</time>
      </trkpt>
      <trkpt lat="44.10728" lon="6.91499">
        <ele>1458.1999511719</ele>
        <time>2019-08-03T09:14:54.000Z</time>
      </trkpt>
      <trkpt lat="44.10725" lon="6.91505">
        <ele>1458.8000488281</ele>
        <time>2019-08-03T09:14:57.000Z</time>
      </trkpt>
      <trkpt lat="44.10723" lon="6.9151">
        <ele>1459.1999511719</ele>
        <time>2019-08-03T09:14:59.000Z</time>
      </trkpt>
      <trkpt lat="44.10718" lon="6.9152">
        <ele>1460.4000244141</ele>
        <time>2019-08-03T09:15:04.000Z</time>
      </trkpt>
      <trkpt lat="44.10717" lon="6.91525">
        <ele>1460.8000488281</ele>
        <time>2019-08-03T09:15:06.000Z</time>
      </trkpt>
      <trkpt lat="44.10714" lon="6.91533">
        <ele>1461.5999755859</ele>
        <time>2019-08-03T09:15:10.000Z</time>
      </trkpt>
      <trkpt lat="44.10712" lon="6.91541">
        <ele>1462</ele>
        <time>2019-08-03T09:15:13.000Z</time>
      </trkpt>
      <trkpt lat="44.1071" lon="6.91553">
        <ele>1462.8000488281</ele>
        <time>2019-08-03T09:15:18.000Z</time>
      </trkpt>
      <trkpt lat="44.1071" lon="6.91555">
        <ele>1463</ele>
        <time>2019-08-03T09:15:19.000Z</time>
      </trkpt>
      <trkpt lat="44.1071" lon="6.91566">
        <ele>1463.8000488281</ele>
        <time>2019-08-03T09:15:24.000Z</time>
      </trkpt>
      <trkpt lat="44.10709" lon="6.91568">
        <ele>1463.8000488281</ele>
        <time>2019-08-03T09:15:25.000Z</time>
      </trkpt>
      <trkpt lat="44.10706" lon="6.91571">
        <ele>1464.1999511719</ele>
        <time>2019-08-03T09:15:27.000Z</time>
      </trkpt>
      <trkpt lat="44.10704" lon="6.91568">
        <ele>1464.4000244141</ele>
        <time>2019-08-03T09:15:29.000Z</time>
      </trkpt>
      <trkpt lat="44.10703" lon="6.91564">
        <ele>1464.5999755859</ele>
        <time>2019-08-03T09:15:31.000Z</time>
      </trkpt>
      <trkpt lat="44.10703" lon="6.9156">
        <ele>1465</ele>
        <time>2019-08-03T09:15:33.000Z</time>
      </trkpt>
      <trkpt lat="44.10703" lon="6.91539">
        <ele>1466</ele>
        <time>2019-08-03T09:15:41.000Z</time>
      </trkpt>
      <trkpt lat="44.10703" lon="6.91537">
        <ele>1466</ele>
        <time>2019-08-03T09:15:42.000Z</time>
      </trkpt>
      <trkpt lat="44.107" lon="6.91517">
        <ele>1467</ele>
        <time>2019-08-03T09:15:49.000Z</time>
      </trkpt>
      <trkpt lat="44.10699" lon="6.91515">
        <ele>1467.1999511719</ele>
        <time>2019-08-03T09:15:50.000Z</time>
      </trkpt>
      <trkpt lat="44.10692" lon="6.91512">
        <ele>1467.4000244141</ele>
        <time>2019-08-03T09:15:53.000Z</time>
      </trkpt>
      <trkpt lat="44.10682" lon="6.9152">
        <ele>1468.4000244141</ele>
        <time>2019-08-03T09:15:58.000Z</time>
      </trkpt>
      <trkpt lat="44.10673" lon="6.91539">
        <ele>1469.4000244141</ele>
        <time>2019-08-03T09:16:05.000Z</time>
      </trkpt>
      <trkpt lat="44.10672" lon="6.91541">
        <ele>1469.5999755859</ele>
        <time>2019-08-03T09:16:06.000Z</time>
      </trkpt>
      <trkpt lat="44.10663" lon="6.91555">
        <ele>1470.4000244141</ele>
        <time>2019-08-03T09:16:12.000Z</time>
      </trkpt>
      <trkpt lat="44.10658" lon="6.91561">
        <ele>1471</ele>
        <time>2019-08-03T09:16:15.000Z</time>
      </trkpt>
      <trkpt lat="44.10653" lon="6.91568">
        <ele>1471.5999755859</ele>
        <time>2019-08-03T09:16:18.000Z</time>
      </trkpt>
      <trkpt lat="44.10642" lon="6.91579">
        <ele>1472.4000244141</ele>
        <time>2019-08-03T09:16:24.000Z</time>
      </trkpt>
      <trkpt lat="44.1064" lon="6.91582">
        <ele>1472.5999755859</ele>
        <time>2019-08-03T09:16:25.000Z</time>
      </trkpt>
      <trkpt lat="44.10635" lon="6.91597">
        <ele>1473.4000244141</ele>
        <time>2019-08-03T09:16:30.000Z</time>
      </trkpt>
      <trkpt lat="44.10635" lon="6.916">
        <ele>1473.8000488281</ele>
        <time>2019-08-03T09:16:31.000Z</time>
      </trkpt>
      <trkpt lat="44.10638" lon="6.91615">
        <ele>1474.4000244141</ele>
        <time>2019-08-03T09:16:35.000Z</time>
      </trkpt>
      <trkpt lat="44.10642" lon="6.91624">
        <ele>1474.8000488281</ele>
        <time>2019-08-03T09:16:38.000Z</time>
      </trkpt>
      <trkpt lat="44.10649" lon="6.91636">
        <ele>1475.5999755859</ele>
        <time>2019-08-03T09:16:43.000Z</time>
      </trkpt>
      <trkpt lat="44.10652" lon="6.9164">
        <ele>1475.8000488281</ele>
        <time>2019-08-03T09:16:45.000Z</time>
      </trkpt>
      <trkpt lat="44.10657" lon="6.91647">
        <ele>1476.4000244141</ele>
        <time>2019-08-03T09:16:48.000Z</time>
      </trkpt>
      <trkpt lat="44.1066" lon="6.91651">
        <ele>1476.5999755859</ele>
        <time>2019-08-03T09:16:50.000Z</time>
      </trkpt>
      <trkpt lat="44.10661" lon="6.91653">
        <ele>1476.8000488281</ele>
        <time>2019-08-03T09:16:51.000Z</time>
      </trkpt>
      <trkpt lat="44.10668" lon="6.91663">
        <ele>1476.8000488281</ele>
        <time>2019-08-03T09:16:55.000Z</time>
      </trkpt>
      <trkpt lat="44.10673" lon="6.91669">
        <ele>1477</ele>
        <time>2019-08-03T09:16:58.000Z</time>
      </trkpt>
      <trkpt lat="44.10684" lon="6.91682">
        <ele>1477.5999755859</ele>
        <time>2019-08-03T09:17:04.000Z</time>
      </trkpt>
      <trkpt lat="44.10688" lon="6.91686">
        <ele>1478</ele>
        <time>2019-08-03T09:17:06.000Z</time>
      </trkpt>
      <trkpt lat="44.10696" lon="6.91691">
        <ele>1478.5999755859</ele>
        <time>2019-08-03T09:17:10.000Z</time>
      </trkpt>
      <trkpt lat="44.10708" lon="6.91697">
        <ele>1479.1999511719</ele>
        <time>2019-08-03T09:17:15.000Z</time>
      </trkpt>
      <trkpt lat="44.10712" lon="6.91699">
        <ele>1479.4000244141</ele>
        <time>2019-08-03T09:17:17.000Z</time>
      </trkpt>
      <trkpt lat="44.10723" lon="6.91703">
        <ele>1480.1999511719</ele>
        <time>2019-08-03T09:17:22.000Z</time>
      </trkpt>
      <trkpt lat="44.10734" lon="6.91707">
        <ele>1480.8000488281</ele>
        <time>2019-08-03T09:17:27.000Z</time>
      </trkpt>
      <trkpt lat="44.10743" lon="6.91711">
        <ele>1481.1999511719</ele>
        <time>2019-08-03T09:17:31.000Z</time>
      </trkpt>
      <trkpt lat="44.10754" lon="6.91715">
        <ele>1481.8000488281</ele>
        <time>2019-08-03T09:17:36.000Z</time>
      </trkpt>
      <trkpt lat="44.10766" lon="6.9172">
        <ele>1482.4000244141</ele>
        <time>2019-08-03T09:17:41.000Z</time>
      </trkpt>
      <trkpt lat="44.10773" lon="6.91724">
        <ele>1483</ele>
        <time>2019-08-03T09:17:44.000Z</time>
      </trkpt>
      <trkpt lat="44.1078" lon="6.91726">
        <ele>1483.4000244141</ele>
        <time>2019-08-03T09:17:47.000Z</time>
      </trkpt>
      <trkpt lat="44.10792" lon="6.9173">
        <ele>1484.4000244141</ele>
        <time>2019-08-03T09:17:52.000Z</time>
      </trkpt>
      <trkpt lat="44.10794" lon="6.91731">
        <ele>1484.5999755859</ele>
        <time>2019-08-03T09:17:53.000Z</time>
      </trkpt>
      <trkpt lat="44.1081" lon="6.9174">
        <ele>1485.5999755859</ele>
        <time>2019-08-03T09:18:00.000Z</time>
      </trkpt>
      <trkpt lat="44.10811" lon="6.91742">
        <ele>1485.8000488281</ele>
        <time>2019-08-03T09:18:01.000Z</time>
      </trkpt>
      <trkpt lat="44.1082" lon="6.9175">
        <ele>1486.8000488281</ele>
        <time>2019-08-03T09:18:06.000Z</time>
      </trkpt>
      <trkpt lat="44.10826" lon="6.91754">
        <ele>1487.4000244141</ele>
        <time>2019-08-03T09:18:09.000Z</time>
      </trkpt>
      <trkpt lat="44.10833" lon="6.9176">
        <ele>1488</ele>
        <time>2019-08-03T09:18:13.000Z</time>
      </trkpt>
      <trkpt lat="44.10838" lon="6.91762">
        <ele>1488.5999755859</ele>
        <time>2019-08-03T09:18:16.000Z</time>
      </trkpt>
      <trkpt lat="44.10842" lon="6.91764">
        <ele>1489</ele>
        <time>2019-08-03T09:18:18.000Z</time>
      </trkpt>
      <trkpt lat="44.10853" lon="6.91769">
        <ele>1489.8000488281</ele>
        <time>2019-08-03T09:18:24.000Z</time>
      </trkpt>
      <trkpt lat="44.10857" lon="6.9177">
        <ele>1490</ele>
        <time>2019-08-03T09:18:26.000Z</time>
      </trkpt>
      <trkpt lat="44.10865" lon="6.91778">
        <ele>1490.4000244141</ele>
        <time>2019-08-03T09:18:31.000Z</time>
      </trkpt>
      <trkpt lat="44.10864" lon="6.91781">
        <ele>1490.4000244141</ele>
        <time>2019-08-03T09:18:32.000Z</time>
      </trkpt>
      <trkpt lat="44.10858" lon="6.9178">
        <ele>1490.8000488281</ele>
        <time>2019-08-03T09:18:35.000Z</time>
      </trkpt>
      <trkpt lat="44.10856" lon="6.91779">
        <ele>1491</ele>
        <time>2019-08-03T09:18:36.000Z</time>
      </trkpt>
      <trkpt lat="44.10854" lon="6.91779">
        <ele>1491.1999511719</ele>
        <time>2019-08-03T09:18:37.000Z</time>
      </trkpt>
      <trkpt lat="44.10836" lon="6.91773">
        <ele>1491.8000488281</ele>
        <time>2019-08-03T09:18:45.000Z</time>
      </trkpt>
      <trkpt lat="44.1083" lon="6.91769">
        <ele>1492.1999511719</ele>
        <time>2019-08-03T09:18:48.000Z</time>
      </trkpt>
      <trkpt lat="44.10813" lon="6.9176">
        <ele>1493.4000244141</ele>
        <time>2019-08-03T09:18:55.000Z</time>
      </trkpt>
      <trkpt lat="44.10801" lon="6.91753">
        <ele>1494.4000244141</ele>
        <time>2019-08-03T09:19:01.000Z</time>
      </trkpt>
      <trkpt lat="44.10796" lon="6.91752">
        <ele>1494.5999755859</ele>
        <time>2019-08-03T09:19:03.000Z</time>
      </trkpt>
      <trkpt lat="44.10784" lon="6.91751">
        <ele>1495.4000244141</ele>
        <time>2019-08-03T09:19:08.000Z</time>
      </trkpt>
      <trkpt lat="44.10782" lon="6.91752">
        <ele>1495.5999755859</ele>
        <time>2019-08-03T09:19:09.000Z</time>
      </trkpt>
      <trkpt lat="44.10771" lon="6.91754">
        <ele>1496.5999755859</ele>
        <time>2019-08-03T09:19:14.000Z</time>
      </trkpt>
      <trkpt lat="44.10768" lon="6.91754">
        <ele>1496.5999755859</ele>
        <time>2019-08-03T09:19:15.000Z</time>
      </trkpt>
      <trkpt lat="44.10755" lon="6.91756">
        <ele>1497.5999755859</ele>
        <time>2019-08-03T09:19:21.000Z</time>
      </trkpt>
      <trkpt lat="44.10746" lon="6.91759">
        <ele>1498.1999511719</ele>
        <time>2019-08-03T09:19:25.000Z</time>
      </trkpt>
      <trkpt lat="44.10739" lon="6.91762">
        <ele>1498.8000488281</ele>
        <time>2019-08-03T09:19:28.000Z</time>
      </trkpt>
      <trkpt lat="44.10729" lon="6.91768">
        <ele>1499.5999755859</ele>
        <time>2019-08-03T09:19:33.000Z</time>
      </trkpt>
      <trkpt lat="44.10727" lon="6.91769">
        <ele>1499.8000488281</ele>
        <time>2019-08-03T09:19:34.000Z</time>
      </trkpt>
      <trkpt lat="44.10714" lon="6.91782">
        <ele>1501</ele>
        <time>2019-08-03T09:19:41.000Z</time>
      </trkpt>
      <trkpt lat="44.10703" lon="6.91797">
        <ele>1502</ele>
        <time>2019-08-03T09:19:48.000Z</time>
      </trkpt>
      <trkpt lat="44.10699" lon="6.91805">
        <ele>1502.5999755859</ele>
        <time>2019-08-03T09:19:51.000Z</time>
      </trkpt>
      <trkpt lat="44.10697" lon="6.91815">
        <ele>1503</ele>
        <time>2019-08-03T09:19:54.000Z</time>
      </trkpt>
      <trkpt lat="44.10697" lon="6.91825">
        <ele>1503.5999755859</ele>
        <time>2019-08-03T09:19:57.000Z</time>
      </trkpt>
      <trkpt lat="44.10703" lon="6.91838">
        <ele>1504.1999511719</ele>
        <time>2019-08-03T09:20:02.000Z</time>
      </trkpt>
      <trkpt lat="44.10704" lon="6.9184">
        <ele>1504.4000244141</ele>
        <time>2019-08-03T09:20:03.000Z</time>
      </trkpt>
      <trkpt lat="44.10711" lon="6.9185">
        <ele>1505.1999511719</ele>
        <time>2019-08-03T09:20:08.000Z</time>
      </trkpt>
      <trkpt lat="44.10715" lon="6.91854">
        <ele>1505.5999755859</ele>
        <time>2019-08-03T09:20:10.000Z</time>
      </trkpt>
      <trkpt lat="44.10724" lon="6.91865">
        <ele>1506.1999511719</ele>
        <time>2019-08-03T09:20:16.000Z</time>
      </trkpt>
      <trkpt lat="44.10733" lon="6.91876">
        <ele>1506.8000488281</ele>
        <time>2019-08-03T09:20:22.000Z</time>
      </trkpt>
      <trkpt lat="44.10738" lon="6.91881">
        <ele>1507.4000244141</ele>
        <time>2019-08-03T09:20:25.000Z</time>
      </trkpt>
      <trkpt lat="44.10743" lon="6.91889">
        <ele>1507.8000488281</ele>
        <time>2019-08-03T09:20:29.000Z</time>
      </trkpt>
      <trkpt lat="44.10746" lon="6.91895">
        <ele>1508</ele>
        <time>2019-08-03T09:20:32.000Z</time>
      </trkpt>
      <trkpt lat="44.10749" lon="6.91899">
        <ele>1508.1999511719</ele>
        <time>2019-08-03T09:20:34.000Z</time>
      </trkpt>
      <trkpt lat="44.10751" lon="6.91903">
        <ele>1508.4000244141</ele>
        <time>2019-08-03T09:20:36.000Z</time>
      </trkpt>
      <trkpt lat="44.10757" lon="6.91911">
        <ele>1508.8000488281</ele>
        <time>2019-08-03T09:20:41.000Z</time>
      </trkpt>
      <trkpt lat="44.10768" lon="6.91924">
        <ele>1509.5999755859</ele>
        <time>2019-08-03T09:20:47.000Z</time>
      </trkpt>
      <trkpt lat="44.10769" lon="6.91926">
        <ele>1509.5999755859</ele>
        <time>2019-08-03T09:20:48.000Z</time>
      </trkpt>
      <trkpt lat="44.10779" lon="6.91944">
        <ele>1510.5999755859</ele>
        <time>2019-08-03T09:20:55.000Z</time>
      </trkpt>
      <trkpt lat="44.10788" lon="6.91964">
        <ele>1511.5999755859</ele>
        <time>2019-08-03T09:21:03.000Z</time>
      </trkpt>
      <trkpt lat="44.1079" lon="6.9197">
        <ele>1511.8000488281</ele>
        <time>2019-08-03T09:21:05.000Z</time>
      </trkpt>
      <trkpt lat="44.10794" lon="6.91989">
        <ele>1512.8000488281</ele>
        <time>2019-08-03T09:21:11.000Z</time>
      </trkpt>
      <trkpt lat="44.10796" lon="6.91998">
        <ele>1513.1999511719</ele>
        <time>2019-08-03T09:21:14.000Z</time>
      </trkpt>
      <trkpt lat="44.10799" lon="6.9201">
        <ele>1513.8000488281</ele>
        <time>2019-08-03T09:21:18.000Z</time>
      </trkpt>
      <trkpt lat="44.10802" lon="6.92025">
        <ele>1514.5999755859</ele>
        <time>2019-08-03T09:21:23.000Z</time>
      </trkpt>
      <trkpt lat="44.10803" lon="6.9203">
        <ele>1514.8000488281</ele>
        <time>2019-08-03T09:21:25.000Z</time>
      </trkpt>
      <trkpt lat="44.10805" lon="6.92049">
        <ele>1515.5999755859</ele>
        <time>2019-08-03T09:21:31.000Z</time>
      </trkpt>
      <trkpt lat="44.10805" lon="6.92055">
        <ele>1516</ele>
        <time>2019-08-03T09:21:33.000Z</time>
      </trkpt>
      <trkpt lat="44.10802" lon="6.9207">
        <ele>1517</ele>
        <time>2019-08-03T09:21:38.000Z</time>
      </trkpt>
      <trkpt lat="44.10801" lon="6.92073">
        <ele>1517.1999511719</ele>
        <time>2019-08-03T09:21:39.000Z</time>
      </trkpt>
      <trkpt lat="44.10792" lon="6.92089">
        <ele>1518.1999511719</ele>
        <time>2019-08-03T09:21:46.000Z</time>
      </trkpt>
      <trkpt lat="44.10789" lon="6.92093">
        <ele>1518.4000244141</ele>
        <time>2019-08-03T09:21:48.000Z</time>
      </trkpt>
      <trkpt lat="44.10782" lon="6.92101">
        <ele>1519.1999511719</ele>
        <time>2019-08-03T09:21:53.000Z</time>
      </trkpt>
      <trkpt lat="44.10777" lon="6.92105">
        <ele>1519.5999755859</ele>
        <time>2019-08-03T09:21:56.000Z</time>
      </trkpt>
      <trkpt lat="44.1077" lon="6.92112">
        <ele>1520.1999511719</ele>
        <time>2019-08-03T09:22:00.000Z</time>
      </trkpt>
      <trkpt lat="44.10762" lon="6.92119">
        <ele>1520.5999755859</ele>
        <time>2019-08-03T09:22:05.000Z</time>
      </trkpt>
      <trkpt lat="44.10756" lon="6.92125">
        <ele>1521.4000244141</ele>
        <time>2019-08-03T09:22:08.000Z</time>
      </trkpt>
      <trkpt lat="44.10749" lon="6.92136">
        <ele>1522.1999511719</ele>
        <time>2019-08-03T09:22:13.000Z</time>
      </trkpt>
      <trkpt lat="44.10746" lon="6.92142">
        <ele>1522.4000244141</ele>
        <time>2019-08-03T09:22:15.000Z</time>
      </trkpt>
      <trkpt lat="44.1074" lon="6.92161">
        <ele>1523.1999511719</ele>
        <time>2019-08-03T09:22:21.000Z</time>
      </trkpt>
      <trkpt lat="44.10737" lon="6.92174">
        <ele>1523.5999755859</ele>
        <time>2019-08-03T09:22:25.000Z</time>
      </trkpt>
      <trkpt lat="44.10734" lon="6.92192">
        <ele>1524.4000244141</ele>
        <time>2019-08-03T09:22:31.000Z</time>
      </trkpt>
      <trkpt lat="44.10733" lon="6.92194">
        <ele>1524.5999755859</ele>
        <time>2019-08-03T09:22:32.000Z</time>
      </trkpt>
      <trkpt lat="44.1073" lon="6.92214">
        <ele>1525.5999755859</ele>
        <time>2019-08-03T09:22:39.000Z</time>
      </trkpt>
      <trkpt lat="44.10729" lon="6.92219">
        <ele>1525.5999755859</ele>
        <time>2019-08-03T09:22:41.000Z</time>
      </trkpt>
      <trkpt lat="44.10727" lon="6.92237">
        <ele>1526.8000488281</ele>
        <time>2019-08-03T09:22:47.000Z</time>
      </trkpt>
      <trkpt lat="44.10727" lon="6.9224">
        <ele>1526.8000488281</ele>
        <time>2019-08-03T09:22:48.000Z</time>
      </trkpt>
      <trkpt lat="44.10724" lon="6.92265">
        <ele>1527.8000488281</ele>
        <time>2019-08-03T09:22:55.000Z</time>
      </trkpt>
      <trkpt lat="44.10723" lon="6.92268">
        <ele>1528</ele>
        <time>2019-08-03T09:22:56.000Z</time>
      </trkpt>
      <trkpt lat="44.10721" lon="6.92287">
        <ele>1529</ele>
        <time>2019-08-03T09:23:02.000Z</time>
      </trkpt>
      <trkpt lat="44.10719" lon="6.92301">
        <ele>1529.5999755859</ele>
        <time>2019-08-03T09:23:06.000Z</time>
      </trkpt>
      <trkpt lat="44.10717" lon="6.92311">
        <ele>1530</ele>
        <time>2019-08-03T09:23:09.000Z</time>
      </trkpt>
      <trkpt lat="44.10712" lon="6.92333">
        <ele>1530.8000488281</ele>
        <time>2019-08-03T09:23:16.000Z</time>
      </trkpt>
      <trkpt lat="44.10709" lon="6.92343">
        <ele>1531.1999511719</ele>
        <time>2019-08-03T09:23:19.000Z</time>
      </trkpt>
      <trkpt lat="44.10706" lon="6.92357">
        <ele>1532</ele>
        <time>2019-08-03T09:23:24.000Z</time>
      </trkpt>
      <trkpt lat="44.10705" lon="6.92364">
        <ele>1532.4000244141</ele>
        <time>2019-08-03T09:23:26.000Z</time>
      </trkpt>
      <trkpt lat="44.10699" lon="6.92387">
        <ele>1533.4000244141</ele>
        <time>2019-08-03T09:23:33.000Z</time>
      </trkpt>
      <trkpt lat="44.10697" lon="6.9239">
        <ele>1533.4000244141</ele>
        <time>2019-08-03T09:23:34.000Z</time>
      </trkpt>
      <trkpt lat="44.10692" lon="6.92409">
        <ele>1534.4000244141</ele>
        <time>2019-08-03T09:23:40.000Z</time>
      </trkpt>
      <trkpt lat="44.1069" lon="6.92415">
        <ele>1534.8000488281</ele>
        <time>2019-08-03T09:23:42.000Z</time>
      </trkpt>
      <trkpt lat="44.10686" lon="6.9243">
        <ele>1535.4000244141</ele>
        <time>2019-08-03T09:23:47.000Z</time>
      </trkpt>
      <trkpt lat="44.10684" lon="6.92445">
        <ele>1536.1999511719</ele>
        <time>2019-08-03T09:23:52.000Z</time>
      </trkpt>
      <trkpt lat="44.10683" lon="6.92452">
        <ele>1536.4000244141</ele>
        <time>2019-08-03T09:23:54.000Z</time>
      </trkpt>
      <trkpt lat="44.1068" lon="6.92475">
        <ele>1537.5999755859</ele>
        <time>2019-08-03T09:24:01.000Z</time>
      </trkpt>
      <trkpt lat="44.10678" lon="6.92481">
        <ele>1538</ele>
        <time>2019-08-03T09:24:03.000Z</time>
      </trkpt>
      <trkpt lat="44.10674" lon="6.92496">
        <ele>1538.8000488281</ele>
        <time>2019-08-03T09:24:08.000Z</time>
      </trkpt>
      <trkpt lat="44.10668" lon="6.92509">
        <ele>1539.4000244141</ele>
        <time>2019-08-03T09:24:13.000Z</time>
      </trkpt>
      <trkpt lat="44.10666" lon="6.92515">
        <ele>1539.8000488281</ele>
        <time>2019-08-03T09:24:15.000Z</time>
      </trkpt>
      <trkpt lat="44.1066" lon="6.92533">
        <ele>1540.5999755859</ele>
        <time>2019-08-03T09:24:21.000Z</time>
      </trkpt>
      <trkpt lat="44.10659" lon="6.92538">
        <ele>1541</ele>
        <time>2019-08-03T09:24:23.000Z</time>
      </trkpt>
      <trkpt lat="44.10656" lon="6.92557">
        <ele>1541.8000488281</ele>
        <time>2019-08-03T09:24:29.000Z</time>
      </trkpt>
      <trkpt lat="44.10656" lon="6.9256">
        <ele>1542</ele>
        <time>2019-08-03T09:24:30.000Z</time>
      </trkpt>
      <trkpt lat="44.10654" lon="6.92581">
        <ele>1543</ele>
        <time>2019-08-03T09:24:37.000Z</time>
      </trkpt>
      <trkpt lat="44.10653" lon="6.92584">
        <ele>1543.1999511719</ele>
        <time>2019-08-03T09:24:38.000Z</time>
      </trkpt>
      <trkpt lat="44.1065" lon="6.92605">
        <ele>1544.1999511719</ele>
        <time>2019-08-03T09:24:45.000Z</time>
      </trkpt>
      <trkpt lat="44.10649" lon="6.92607">
        <ele>1544.1999511719</ele>
        <time>2019-08-03T09:24:46.000Z</time>
      </trkpt>
      <trkpt lat="44.10642" lon="6.92616">
        <ele>1545</ele>
        <time>2019-08-03T09:24:51.000Z</time>
      </trkpt>
      <trkpt lat="44.10639" lon="6.92617">
        <ele>1545.5999755859</ele>
        <time>2019-08-03T09:24:53.000Z</time>
      </trkpt>
      <trkpt lat="44.1063" lon="6.92616">
        <ele>1546.5999755859</ele>
        <time>2019-08-03T09:24:57.000Z</time>
      </trkpt>
      <trkpt lat="44.10622" lon="6.92614">
        <ele>1548</ele>
        <time>2019-08-03T09:25:01.000Z</time>
      </trkpt>
      <trkpt lat="44.1061" lon="6.92609">
        <ele>1549</ele>
        <time>2019-08-03T09:25:07.000Z</time>
      </trkpt>
      <trkpt lat="44.10591" lon="6.92604">
        <ele>1550.1999511719</ele>
        <time>2019-08-03T09:25:16.000Z</time>
      </trkpt>
      <trkpt lat="44.10577" lon="6.92603">
        <ele>1551.1999511719</ele>
        <time>2019-08-03T09:25:23.000Z</time>
      </trkpt>
      <trkpt lat="44.10566" lon="6.92604">
        <ele>1552</ele>
        <time>2019-08-03T09:25:28.000Z</time>
      </trkpt>
      <trkpt lat="44.10564" lon="6.92605">
        <ele>1552.1999511719</ele>
        <time>2019-08-03T09:25:29.000Z</time>
      </trkpt>
      <trkpt lat="44.10549" lon="6.92607">
        <ele>1553.4000244141</ele>
        <time>2019-08-03T09:25:36.000Z</time>
      </trkpt>
      <trkpt lat="44.10548" lon="6.92607">
        <ele>1553.5999755859</ele>
        <time>2019-08-03T09:25:37.000Z</time>
      </trkpt>
      <trkpt lat="44.10538" lon="6.92607">
        <ele>1554.4000244141</ele>
        <time>2019-08-03T09:25:41.000Z</time>
      </trkpt>
      <trkpt lat="44.1053" lon="6.92606">
        <ele>1555</ele>
        <time>2019-08-03T09:25:45.000Z</time>
      </trkpt>
      <trkpt lat="44.10523" lon="6.92605">
        <ele>1555.4000244141</ele>
        <time>2019-08-03T09:25:48.000Z</time>
      </trkpt>
      <trkpt lat="44.10513" lon="6.92602">
        <ele>1556.1999511719</ele>
        <time>2019-08-03T09:25:53.000Z</time>
      </trkpt>
      <trkpt lat="44.10508" lon="6.92601">
        <ele>1556.4000244141</ele>
        <time>2019-08-03T09:25:55.000Z</time>
      </trkpt>
      <trkpt lat="44.10496" lon="6.92596">
        <ele>1557.5999755859</ele>
        <time>2019-08-03T09:26:01.000Z</time>
      </trkpt>
      <trkpt lat="44.10491" lon="6.92592">
        <ele>1557.8000488281</ele>
        <time>2019-08-03T09:26:03.000Z</time>
      </trkpt>
      <trkpt lat="44.10488" lon="6.92591">
        <ele>1558</ele>
        <time>2019-08-03T09:26:04.000Z</time>
      </trkpt>
      <trkpt lat="44.10477" lon="6.92585">
        <ele>1558.5999755859</ele>
        <time>2019-08-03T09:26:08.000Z</time>
      </trkpt>
      <trkpt lat="44.10461" lon="6.92576">
        <ele>1559.5999755859</ele>
        <time>2019-08-03T09:26:15.000Z</time>
      </trkpt>
      <trkpt lat="44.10446" lon="6.92566">
        <ele>1560.4000244141</ele>
        <time>2019-08-03T09:26:22.000Z</time>
      </trkpt>
      <trkpt lat="44.10439" lon="6.92562">
        <ele>1560.5999755859</ele>
        <time>2019-08-03T09:26:25.000Z</time>
      </trkpt>
      <trkpt lat="44.10427" lon="6.9255">
        <ele>1561.5999755859</ele>
        <time>2019-08-03T09:26:31.000Z</time>
      </trkpt>
      <trkpt lat="44.10417" lon="6.92537">
        <ele>1562.5999755859</ele>
        <time>2019-08-03T09:26:37.000Z</time>
      </trkpt>
      <trkpt lat="44.10415" lon="6.92535">
        <ele>1562.8000488281</ele>
        <time>2019-08-03T09:26:38.000Z</time>
      </trkpt>
      <trkpt lat="44.10404" lon="6.92523">
        <ele>1563.8000488281</ele>
        <time>2019-08-03T09:26:44.000Z</time>
      </trkpt>
      <trkpt lat="44.10396" lon="6.92513">
        <ele>1564.5999755859</ele>
        <time>2019-08-03T09:26:49.000Z</time>
      </trkpt>
      <trkpt lat="44.10392" lon="6.9251">
        <ele>1564.8000488281</ele>
        <time>2019-08-03T09:26:51.000Z</time>
      </trkpt>
      <trkpt lat="44.10382" lon="6.925">
        <ele>1565.5999755859</ele>
        <time>2019-08-03T09:26:56.000Z</time>
      </trkpt>
      <trkpt lat="44.10381" lon="6.925">
        <ele>1565.8000488281</ele>
        <time>2019-08-03T09:26:57.000Z</time>
      </trkpt>
      <trkpt lat="44.10364" lon="6.92489">
        <ele>1566.8000488281</ele>
        <time>2019-08-03T09:27:04.000Z</time>
      </trkpt>
      <trkpt lat="44.10351" lon="6.92484">
        <ele>1567.8000488281</ele>
        <time>2019-08-03T09:27:10.000Z</time>
      </trkpt>
      <trkpt lat="44.10343" lon="6.92482">
        <ele>1568.1999511719</ele>
        <time>2019-08-03T09:27:13.000Z</time>
      </trkpt>
      <trkpt lat="44.10332" lon="6.92479">
        <ele>1569</ele>
        <time>2019-08-03T09:27:18.000Z</time>
      </trkpt>
      <trkpt lat="44.10319" lon="6.92477">
        <ele>1569.8000488281</ele>
        <time>2019-08-03T09:27:23.000Z</time>
      </trkpt>
      <trkpt lat="44.10317" lon="6.92477">
        <ele>1570</ele>
        <time>2019-08-03T09:27:24.000Z</time>
      </trkpt>
      <trkpt lat="44.10302" lon="6.92475">
        <ele>1571.1999511719</ele>
        <time>2019-08-03T09:27:30.000Z</time>
      </trkpt>
      <trkpt lat="44.10298" lon="6.92475">
        <ele>1571.4000244141</ele>
        <time>2019-08-03T09:27:32.000Z</time>
      </trkpt>
      <trkpt lat="44.10286" lon="6.92475">
        <ele>1572.1999511719</ele>
        <time>2019-08-03T09:27:37.000Z</time>
      </trkpt>
      <trkpt lat="44.10276" lon="6.92473">
        <ele>1572.8000488281</ele>
        <time>2019-08-03T09:27:41.000Z</time>
      </trkpt>
      <trkpt lat="44.10269" lon="6.92473">
        <ele>1573.1999511719</ele>
        <time>2019-08-03T09:27:44.000Z</time>
      </trkpt>
      <trkpt lat="44.10253" lon="6.92471">
        <ele>1574.4000244141</ele>
        <time>2019-08-03T09:27:51.000Z</time>
      </trkpt>
      <trkpt lat="44.10238" lon="6.92468">
        <ele>1575.4000244141</ele>
        <time>2019-08-03T09:27:57.000Z</time>
      </trkpt>
      <trkpt lat="44.1023" lon="6.92468">
        <ele>1575.8000488281</ele>
        <time>2019-08-03T09:28:00.000Z</time>
      </trkpt>
      <trkpt lat="44.10221" lon="6.92467">
        <ele>1576.4000244141</ele>
        <time>2019-08-03T09:28:04.000Z</time>
      </trkpt>
      <trkpt lat="44.10215" lon="6.92466">
        <ele>1576.8000488281</ele>
        <time>2019-08-03T09:28:07.000Z</time>
      </trkpt>
      <trkpt lat="44.10204" lon="6.92469">
        <ele>1577.5999755859</ele>
        <time>2019-08-03T09:28:12.000Z</time>
      </trkpt>
      <trkpt lat="44.10201" lon="6.92469">
        <ele>1577.8000488281</ele>
        <time>2019-08-03T09:28:13.000Z</time>
      </trkpt>
      <trkpt lat="44.10189" lon="6.92473">
        <ele>1578.8000488281</ele>
        <time>2019-08-03T09:28:19.000Z</time>
      </trkpt>
      <trkpt lat="44.10186" lon="6.92474">
        <ele>1579</ele>
        <time>2019-08-03T09:28:20.000Z</time>
      </trkpt>
      <trkpt lat="44.10174" lon="6.92476">
        <ele>1579.8000488281</ele>
        <time>2019-08-03T09:28:25.000Z</time>
      </trkpt>
      <trkpt lat="44.1017" lon="6.92477">
        <ele>1580.1999511719</ele>
        <time>2019-08-03T09:28:27.000Z</time>
      </trkpt>
      <trkpt lat="44.1016" lon="6.92478">
        <ele>1581</ele>
        <time>2019-08-03T09:28:31.000Z</time>
      </trkpt>
      <trkpt lat="44.10148" lon="6.9248">
        <ele>1581.8000488281</ele>
        <time>2019-08-03T09:28:36.000Z</time>
      </trkpt>
      <trkpt lat="44.10146" lon="6.9248">
        <ele>1582</ele>
        <time>2019-08-03T09:28:37.000Z</time>
      </trkpt>
      <trkpt lat="44.10129" lon="6.92481">
        <ele>1583.1999511719</ele>
        <time>2019-08-03T09:28:44.000Z</time>
      </trkpt>
      <trkpt lat="44.10118" lon="6.92481">
        <ele>1584.1999511719</ele>
        <time>2019-08-03T09:28:49.000Z</time>
      </trkpt>
      <trkpt lat="44.1011" lon="6.92482">
        <ele>1584.8000488281</ele>
        <time>2019-08-03T09:28:53.000Z</time>
      </trkpt>
      <trkpt lat="44.10104" lon="6.92483">
        <ele>1585.4000244141</ele>
        <time>2019-08-03T09:28:56.000Z</time>
      </trkpt>
      <trkpt lat="44.10094" lon="6.92486">
        <ele>1586</ele>
        <time>2019-08-03T09:29:01.000Z</time>
      </trkpt>
      <trkpt lat="44.10089" lon="6.92488">
        <ele>1586.4000244141</ele>
        <time>2019-08-03T09:29:03.000Z</time>
      </trkpt>
      <trkpt lat="44.10076" lon="6.92496">
        <ele>1587.1999511719</ele>
        <time>2019-08-03T09:29:09.000Z</time>
      </trkpt>
      <trkpt lat="44.10072" lon="6.92498">
        <ele>1587.4000244141</ele>
        <time>2019-08-03T09:29:11.000Z</time>
      </trkpt>
      <trkpt lat="44.1006" lon="6.92509">
        <ele>1588.4000244141</ele>
        <time>2019-08-03T09:29:16.000Z</time>
      </trkpt>
      <trkpt lat="44.10058" lon="6.92511">
        <ele>1588.5999755859</ele>
        <time>2019-08-03T09:29:17.000Z</time>
      </trkpt>
      <trkpt lat="44.10046" lon="6.92526">
        <ele>1589.8000488281</ele>
        <time>2019-08-03T09:29:23.000Z</time>
      </trkpt>
      <trkpt lat="44.10044" lon="6.92528">
        <ele>1590</ele>
        <time>2019-08-03T09:29:24.000Z</time>
      </trkpt>
      <trkpt lat="44.10029" lon="6.92548">
        <ele>1590.8000488281</ele>
        <time>2019-08-03T09:29:32.000Z</time>
      </trkpt>
      <trkpt lat="44.10027" lon="6.9255">
        <ele>1591</ele>
        <time>2019-08-03T09:29:33.000Z</time>
      </trkpt>
      <trkpt lat="44.10016" lon="6.92559">
        <ele>1591.8000488281</ele>
        <time>2019-08-03T09:29:38.000Z</time>
      </trkpt>
      <trkpt lat="44.10008" lon="6.92561">
        <ele>1592.4000244141</ele>
        <time>2019-08-03T09:29:41.000Z</time>
      </trkpt>
      <trkpt lat="44.10001" lon="6.92561">
        <ele>1592.8000488281</ele>
        <time>2019-08-03T09:29:44.000Z</time>
      </trkpt>
      <trkpt lat="44.09995" lon="6.9256">
        <ele>1593.5999755859</ele>
        <time>2019-08-03T09:29:47.000Z</time>
      </trkpt>
      <trkpt lat="44.09993" lon="6.92559">
        <ele>1593.8000488281</ele>
        <time>2019-08-03T09:29:48.000Z</time>
      </trkpt>
      <trkpt lat="44.09984" lon="6.92555">
        <ele>1595</ele>
        <time>2019-08-03T09:29:53.000Z</time>
      </trkpt>
      <trkpt lat="44.09973" lon="6.92547">
        <ele>1596</ele>
        <time>2019-08-03T09:29:59.000Z</time>
      </trkpt>
      <trkpt lat="44.0997" lon="6.92544">
        <ele>1596.4000244141</ele>
        <time>2019-08-03T09:30:01.000Z</time>
      </trkpt>
      <trkpt lat="44.09962" lon="6.92541">
        <ele>1596.8000488281</ele>
        <time>2019-08-03T09:30:04.000Z</time>
      </trkpt>
      <trkpt lat="44.09961" lon="6.9254">
        <ele>1597</ele>
        <time>2019-08-03T09:30:05.000Z</time>
      </trkpt>
      <trkpt lat="44.09959" lon="6.92538">
        <ele>1597.1999511719</ele>
        <time>2019-08-03T09:30:06.000Z</time>
      </trkpt>
      <trkpt lat="44.0995" lon="6.92527">
        <ele>1598.1999511719</ele>
        <time>2019-08-03T09:30:12.000Z</time>
      </trkpt>
      <trkpt lat="44.09939" lon="6.92515">
        <ele>1599.4000244141</ele>
        <time>2019-08-03T09:30:19.000Z</time>
      </trkpt>
      <trkpt lat="44.09928" lon="6.92504">
        <ele>1600.1999511719</ele>
        <time>2019-08-03T09:30:24.000Z</time>
      </trkpt>
      <trkpt lat="44.09924" lon="6.92499">
        <ele>1600.5999755859</ele>
        <time>2019-08-03T09:30:26.000Z</time>
      </trkpt>
      <trkpt lat="44.09911" lon="6.92487">
        <ele>1601.5999755859</ele>
        <time>2019-08-03T09:30:32.000Z</time>
      </trkpt>
      <trkpt lat="44.09906" lon="6.92482">
        <ele>1602</ele>
        <time>2019-08-03T09:30:34.000Z</time>
      </trkpt>
      <trkpt lat="44.09897" lon="6.92475">
        <ele>1602.5999755859</ele>
        <time>2019-08-03T09:30:38.000Z</time>
      </trkpt>
      <trkpt lat="44.09885" lon="6.92467">
        <ele>1603.5999755859</ele>
        <time>2019-08-03T09:30:43.000Z</time>
      </trkpt>
      <trkpt lat="44.09882" lon="6.92466">
        <ele>1604</ele>
        <time>2019-08-03T09:30:44.000Z</time>
      </trkpt>
      <trkpt lat="44.09867" lon="6.92456">
        <ele>1605</ele>
        <time>2019-08-03T09:30:50.000Z</time>
      </trkpt>
      <trkpt lat="44.09859" lon="6.9245">
        <ele>1605.4000244141</ele>
        <time>2019-08-03T09:30:53.000Z</time>
      </trkpt>
      <trkpt lat="44.09845" lon="6.92441">
        <ele>1606</ele>
        <time>2019-08-03T09:30:58.000Z</time>
      </trkpt>
      <trkpt lat="44.09834" lon="6.92435">
        <ele>1606.8000488281</ele>
        <time>2019-08-03T09:31:02.000Z</time>
      </trkpt>
      <trkpt lat="44.09827" lon="6.92432">
        <ele>1607.1999511719</ele>
        <time>2019-08-03T09:31:05.000Z</time>
      </trkpt>
      <trkpt lat="44.09813" lon="6.92424">
        <ele>1607.8000488281</ele>
        <time>2019-08-03T09:31:11.000Z</time>
      </trkpt>
      <trkpt lat="44.09808" lon="6.92423">
        <ele>1608.1999511719</ele>
        <time>2019-08-03T09:31:13.000Z</time>
      </trkpt>
      <trkpt lat="44.09799" lon="6.92424">
        <ele>1608.8000488281</ele>
        <time>2019-08-03T09:31:17.000Z</time>
      </trkpt>
      <trkpt lat="44.09793" lon="6.92427">
        <ele>1609.4000244141</ele>
        <time>2019-08-03T09:31:20.000Z</time>
      </trkpt>
      <trkpt lat="44.09787" lon="6.92429">
        <ele>1609.8000488281</ele>
        <time>2019-08-03T09:31:23.000Z</time>
      </trkpt>
      <trkpt lat="44.09779" lon="6.92436">
        <ele>1610.5999755859</ele>
        <time>2019-08-03T09:31:27.000Z</time>
      </trkpt>
      <trkpt lat="44.09774" lon="6.92439">
        <ele>1611</ele>
        <time>2019-08-03T09:31:29.000Z</time>
      </trkpt>
      <trkpt lat="44.09768" lon="6.92442">
        <ele>1611.5999755859</ele>
        <time>2019-08-03T09:31:32.000Z</time>
      </trkpt>
      <trkpt lat="44.09759" lon="6.92449">
        <ele>1612.1999511719</ele>
        <time>2019-08-03T09:31:36.000Z</time>
      </trkpt>
      <trkpt lat="44.09755" lon="6.92452">
        <ele>1612.5999755859</ele>
        <time>2019-08-03T09:31:38.000Z</time>
      </trkpt>
      <trkpt lat="44.09746" lon="6.92459">
        <ele>1613.1999511719</ele>
        <time>2019-08-03T09:31:42.000Z</time>
      </trkpt>
      <trkpt lat="44.09742" lon="6.92464">
        <ele>1613.5999755859</ele>
        <time>2019-08-03T09:31:44.000Z</time>
      </trkpt>
      <trkpt lat="44.09734" lon="6.92478">
        <ele>1614.4000244141</ele>
        <time>2019-08-03T09:31:49.000Z</time>
      </trkpt>
      <trkpt lat="44.09731" lon="6.92482">
        <ele>1614.5999755859</ele>
        <time>2019-08-03T09:31:51.000Z</time>
      </trkpt>
      <trkpt lat="44.09727" lon="6.92498">
        <ele>1615.5999755859</ele>
        <time>2019-08-03T09:31:56.000Z</time>
      </trkpt>
      <trkpt lat="44.09726" lon="6.92501">
        <ele>1615.8000488281</ele>
        <time>2019-08-03T09:31:57.000Z</time>
      </trkpt>
      <trkpt lat="44.09725" lon="6.92523">
        <ele>1616.8000488281</ele>
        <time>2019-08-03T09:32:03.000Z</time>
      </trkpt>
      <trkpt lat="44.09726" lon="6.92527">
        <ele>1617</ele>
        <time>2019-08-03T09:32:04.000Z</time>
      </trkpt>
      <trkpt lat="44.09728" lon="6.92553">
        <ele>1618</ele>
        <time>2019-08-03T09:32:12.000Z</time>
      </trkpt>
      <trkpt lat="44.09724" lon="6.92573">
        <ele>1618.8000488281</ele>
        <time>2019-08-03T09:32:18.000Z</time>
      </trkpt>
      <trkpt lat="44.0972" lon="6.92581">
        <ele>1619.1999511719</ele>
        <time>2019-08-03T09:32:21.000Z</time>
      </trkpt>
      <trkpt lat="44.09715" lon="6.92592">
        <ele>1620.1999511719</ele>
        <time>2019-08-03T09:32:25.000Z</time>
      </trkpt>
      <trkpt lat="44.09714" lon="6.92594">
        <ele>1620.4000244141</ele>
        <time>2019-08-03T09:32:26.000Z</time>
      </trkpt>
      <trkpt lat="44.09707" lon="6.92611">
        <ele>1621.5999755859</ele>
        <time>2019-08-03T09:32:32.000Z</time>
      </trkpt>
      <trkpt lat="44.09706" lon="6.92613">
        <ele>1621.5999755859</ele>
        <time>2019-08-03T09:32:33.000Z</time>
      </trkpt>
      <trkpt lat="44.097" lon="6.92627">
        <ele>1622.5999755859</ele>
        <time>2019-08-03T09:32:39.000Z</time>
      </trkpt>
      <trkpt lat="44.09697" lon="6.92633">
        <ele>1623</ele>
        <time>2019-08-03T09:32:41.000Z</time>
      </trkpt>
      <trkpt lat="44.0969" lon="6.92646">
        <ele>1623.8000488281</ele>
        <time>2019-08-03T09:32:45.000Z</time>
      </trkpt>
      <trkpt lat="44.09687" lon="6.92651">
        <ele>1624</ele>
        <time>2019-08-03T09:32:47.000Z</time>
      </trkpt>
      <trkpt lat="44.09681" lon="6.92662">
        <ele>1625</ele>
        <time>2019-08-03T09:32:51.000Z</time>
      </trkpt>
      <trkpt lat="44.09674" lon="6.92672">
        <ele>1625.5999755859</ele>
        <time>2019-08-03T09:32:55.000Z</time>
      </trkpt>
      <trkpt lat="44.0967" lon="6.92679">
        <ele>1626</ele>
        <time>2019-08-03T09:32:58.000Z</time>
      </trkpt>
      <trkpt lat="44.0966" lon="6.92686">
        <ele>1626.8000488281</ele>
        <time>2019-08-03T09:33:02.000Z</time>
      </trkpt>
      <trkpt lat="44.09656" lon="6.92689">
        <ele>1627.1999511719</ele>
        <time>2019-08-03T09:33:04.000Z</time>
      </trkpt>
      <trkpt lat="44.0964" lon="6.92693">
        <ele>1628</ele>
        <time>2019-08-03T09:33:10.000Z</time>
      </trkpt>
      <trkpt lat="44.09637" lon="6.92693">
        <ele>1628.1999511719</ele>
        <time>2019-08-03T09:33:11.000Z</time>
      </trkpt>
      <trkpt lat="44.09623" lon="6.92698">
        <ele>1628.8000488281</ele>
        <time>2019-08-03T09:33:17.000Z</time>
      </trkpt>
      <trkpt lat="44.09619" lon="6.927">
        <ele>1629.1999511719</ele>
        <time>2019-08-03T09:33:19.000Z</time>
      </trkpt>
      <trkpt lat="44.09606" lon="6.92711">
        <ele>1630</ele>
        <time>2019-08-03T09:33:25.000Z</time>
      </trkpt>
      <trkpt lat="44.09603" lon="6.92715">
        <ele>1630.4000244141</ele>
        <time>2019-08-03T09:33:27.000Z</time>
      </trkpt>
      <trkpt lat="44.0959" lon="6.92727">
        <ele>1631.1999511719</ele>
        <time>2019-08-03T09:33:33.000Z</time>
      </trkpt>
      <trkpt lat="44.09585" lon="6.92733">
        <ele>1631.4000244141</ele>
        <time>2019-08-03T09:33:35.000Z</time>
      </trkpt>
      <trkpt lat="44.09572" lon="6.92749">
        <ele>1632.4000244141</ele>
        <time>2019-08-03T09:33:41.000Z</time>
      </trkpt>
      <trkpt lat="44.09565" lon="6.92759">
        <ele>1633.4000244141</ele>
        <time>2019-08-03T09:33:45.000Z</time>
      </trkpt>
      <trkpt lat="44.09557" lon="6.92774">
        <ele>1634.5999755859</ele>
        <time>2019-08-03T09:33:50.000Z</time>
      </trkpt>
      <trkpt lat="44.09551" lon="6.92794">
        <ele>1635.5999755859</ele>
        <time>2019-08-03T09:33:56.000Z</time>
      </trkpt>
      <trkpt lat="44.09549" lon="6.92801">
        <ele>1636</ele>
        <time>2019-08-03T09:33:58.000Z</time>
      </trkpt>
      <trkpt lat="44.09549" lon="6.92815">
        <ele>1636.8000488281</ele>
        <time>2019-08-03T09:34:02.000Z</time>
      </trkpt>
      <trkpt lat="44.09548" lon="6.92833">
        <ele>1637.8000488281</ele>
        <time>2019-08-03T09:34:07.000Z</time>
      </trkpt>
      <trkpt lat="44.09548" lon="6.92854">
        <ele>1638.8000488281</ele>
        <time>2019-08-03T09:34:13.000Z</time>
      </trkpt>
      <trkpt lat="44.09548" lon="6.92863">
        <ele>1639.1999511719</ele>
        <time>2019-08-03T09:34:16.000Z</time>
      </trkpt>
      <trkpt lat="44.09547" lon="6.92877">
        <ele>1640</ele>
        <time>2019-08-03T09:34:22.000Z</time>
      </trkpt>
      <trkpt lat="44.09547" lon="6.92878">
        <ele>1640</ele>
        <time>2019-08-03T09:34:23.000Z</time>
      </trkpt>
      <trkpt lat="44.09547" lon="6.9288">
        <ele>1640.4000244141</ele>
        <time>2019-08-03T09:34:28.000Z</time>
      </trkpt>
      <trkpt lat="44.09546" lon="6.92882">
        <ele>1640.5999755859</ele>
        <time>2019-08-03T09:34:32.000Z</time>
      </trkpt>
      <trkpt lat="44.09545" lon="6.92882">
        <ele>1640.5999755859</ele>
        <time>2019-08-03T09:34:38.000Z</time>
      </trkpt>
      <trkpt lat="44.09544" lon="6.92879">
        <ele>1640.1999511719</ele>
        <time>2019-08-03T09:34:47.000Z</time>
      </trkpt>
      <trkpt lat="44.09544" lon="6.92877">
        <ele>1639.8000488281</ele>
        <time>2019-08-03T09:34:54.000Z</time>
      </trkpt>
      <trkpt lat="44.09547" lon="6.92875">
        <ele>1639.8000488281</ele>
        <time>2019-08-03T09:35:02.000Z</time>
      </trkpt>
      <trkpt lat="44.09551" lon="6.92874">
        <ele>1640.1999511719</ele>
        <time>2019-08-03T09:35:11.000Z</time>
      </trkpt>
      <trkpt lat="44.09554" lon="6.92873">
        <ele>1640.1999511719</ele>
        <time>2019-08-03T09:35:20.000Z</time>
      </trkpt>
      <trkpt lat="44.09553" lon="6.92872">
        <ele>1640.1999511719</ele>
        <time>2019-08-03T09:35:27.000Z</time>
      </trkpt>
      <trkpt lat="44.09553" lon="6.92871">
        <ele>1640.4000244141</ele>
        <time>2019-08-03T09:35:36.000Z</time>
      </trkpt>
      <trkpt lat="44.09553" lon="6.9287">
        <ele>1640.1999511719</ele>
        <time>2019-08-03T09:35:48.000Z</time>
      </trkpt>
      <trkpt lat="44.09554" lon="6.92871">
        <ele>1640.4000244141</ele>
        <time>2019-08-03T09:35:55.000Z</time>
      </trkpt>
      <trkpt lat="44.09557" lon="6.92874">
        <ele>1640.4000244141</ele>
        <time>2019-08-03T09:36:07.000Z</time>
      </trkpt>
      <trkpt lat="44.09554" lon="6.92873">
        <ele>1640.1999511719</ele>
        <time>2019-08-03T09:36:23.000Z</time>
      </trkpt>
      <trkpt lat="44.09554" lon="6.92873">
        <ele>1640.4000244141</ele>
        <time>2019-08-03T09:36:32.000Z</time>
      </trkpt>
      <trkpt lat="44.09552" lon="6.92875">
        <ele>1640.5999755859</ele>
        <time>2019-08-03T09:36:41.000Z</time>
      </trkpt>
      <trkpt lat="44.09551" lon="6.92876">
        <ele>1640.4000244141</ele>
        <time>2019-08-03T09:36:52.000Z</time>
      </trkpt>
      <trkpt lat="44.0955" lon="6.92877">
        <ele>1640.4000244141</ele>
        <time>2019-08-03T09:37:02.000Z</time>
      </trkpt>
      <trkpt lat="44.09548" lon="6.92878">
        <ele>1640.4000244141</ele>
        <time>2019-08-03T09:37:09.000Z</time>
      </trkpt>
      <trkpt lat="44.09548" lon="6.92878">
        <ele>1640.1999511719</ele>
        <time>2019-08-03T09:37:14.000Z</time>
      </trkpt>
      <trkpt lat="44.09547" lon="6.92881">
        <ele>1640.5999755859</ele>
        <time>2019-08-03T09:37:22.000Z</time>
      </trkpt>
      <trkpt lat="44.09546" lon="6.92883">
        <ele>1640</ele>
        <time>2019-08-03T09:37:27.000Z</time>
      </trkpt>
      <trkpt lat="44.09546" lon="6.92886">
        <ele>1640.1999511719</ele>
        <time>2019-08-03T09:37:29.000Z</time>
      </trkpt>
      <trkpt lat="44.09544" lon="6.92891">
        <ele>1640.1999511719</ele>
        <time>2019-08-03T09:37:32.000Z</time>
      </trkpt>
      <trkpt lat="44.09541" lon="6.92893">
        <ele>1640.5999755859</ele>
        <time>2019-08-03T09:37:34.000Z</time>
      </trkpt>
      <trkpt lat="44.09537" lon="6.92891">
        <ele>1640.5999755859</ele>
        <time>2019-08-03T09:37:39.000Z</time>
      </trkpt>
      <trkpt lat="44.09535" lon="6.92889">
        <ele>1640.5999755859</ele>
        <time>2019-08-03T09:37:41.000Z</time>
      </trkpt>
      <trkpt lat="44.09532" lon="6.92893">
        <ele>1640.5999755859</ele>
        <time>2019-08-03T09:37:44.000Z</time>
      </trkpt>
      <trkpt lat="44.0953" lon="6.92898">
        <ele>1640.8000488281</ele>
        <time>2019-08-03T09:37:47.000Z</time>
      </trkpt>
      <trkpt lat="44.09529" lon="6.92905">
        <ele>1640.8000488281</ele>
        <time>2019-08-03T09:37:52.000Z</time>
      </trkpt>
      <trkpt lat="44.0953" lon="6.92907">
        <ele>1640.8000488281</ele>
        <time>2019-08-03T09:37:53.000Z</time>
      </trkpt>
      <trkpt lat="44.09532" lon="6.92913">
        <ele>1641</ele>
        <time>2019-08-03T09:37:57.000Z</time>
      </trkpt>
      <trkpt lat="44.09532" lon="6.92916">
        <ele>1641</ele>
        <time>2019-08-03T09:37:58.000Z</time>
      </trkpt>
      <trkpt lat="44.09532" lon="6.9292">
        <ele>1641</ele>
        <time>2019-08-03T09:38:00.000Z</time>
      </trkpt>
      <trkpt lat="44.09533" lon="6.92928">
        <ele>1641</ele>
        <time>2019-08-03T09:38:04.000Z</time>
      </trkpt>
      <trkpt lat="44.09535" lon="6.92935">
        <ele>1641</ele>
        <time>2019-08-03T09:38:08.000Z</time>
      </trkpt>
      <trkpt lat="44.09535" lon="6.92935">
        <ele>1641.1999511719</ele>
        <time>2019-08-03T09:38:10.000Z</time>
      </trkpt>
      <trkpt lat="44.09534" lon="6.92936">
        <ele>1641.1999511719</ele>
        <time>2019-08-03T09:38:21.000Z</time>
      </trkpt>
      <trkpt lat="44.09533" lon="6.92936">
        <ele>1641.1999511719</ele>
        <time>2019-08-03T09:38:41.000Z</time>
      </trkpt>
      <trkpt lat="44.09532" lon="6.92935">
        <ele>1641.1999511719</ele>
        <time>2019-08-03T09:38:57.000Z</time>
      </trkpt>
      <trkpt lat="44.09532" lon="6.92935">
        <ele>1641.1999511719</ele>
        <time>2019-08-03T09:39:19.000Z</time>
      </trkpt>
      <trkpt lat="44.09532" lon="6.92937">
        <ele>1641</ele>
        <time>2019-08-03T09:39:42.000Z</time>
      </trkpt>
      <trkpt lat="44.09532" lon="6.92938">
        <ele>1641</ele>
        <time>2019-08-03T09:39:54.000Z</time>
      </trkpt>
      <trkpt lat="44.09532" lon="6.92938">
        <ele>1641</ele>
        <time>2019-08-03T09:40:05.000Z</time>
      </trkpt>
      <trkpt lat="44.09533" lon="6.92938">
        <ele>1640.8000488281</ele>
        <time>2019-08-03T09:40:23.000Z</time>
      </trkpt>
      <trkpt lat="44.09533" lon="6.92938">
        <ele>1640.4000244141</ele>
        <time>2019-08-03T09:40:38.000Z</time>
      </trkpt>
      <trkpt lat="44.09533" lon="6.92938">
        <ele>1640.4000244141</ele>
        <time>2019-08-03T09:40:59.000Z</time>
      </trkpt>
      <trkpt lat="44.09531" lon="6.92942">
        <ele>1640.4000244141</ele>
        <time>2019-08-03T09:41:04.000Z</time>
      </trkpt>
      <trkpt lat="44.09531" lon="6.92956">
        <ele>1640.1999511719</ele>
        <time>2019-08-03T09:41:09.000Z</time>
      </trkpt>
      <trkpt lat="44.09526" lon="6.92973">
        <ele>1640.4000244141</ele>
        <time>2019-08-03T09:41:15.000Z</time>
      </trkpt>
      <trkpt lat="44.09522" lon="6.92976">
        <ele>1640.4000244141</ele>
        <time>2019-08-03T09:41:17.000Z</time>
      </trkpt>
      <trkpt lat="44.09519" lon="6.92973">
        <ele>1640.4000244141</ele>
        <time>2019-08-03T09:41:19.000Z</time>
      </trkpt>
      <trkpt lat="44.09519" lon="6.92965">
        <ele>1640.8000488281</ele>
        <time>2019-08-03T09:41:23.000Z</time>
      </trkpt>
      <trkpt lat="44.09519" lon="6.92948">
        <ele>1641.5999755859</ele>
        <time>2019-08-03T09:41:30.000Z</time>
      </trkpt>
      <trkpt lat="44.09519" lon="6.9294">
        <ele>1641.5999755859</ele>
        <time>2019-08-03T09:41:34.000Z</time>
      </trkpt>
      <trkpt lat="44.09517" lon="6.92937">
        <ele>1641.5999755859</ele>
        <time>2019-08-03T09:41:35.000Z</time>
      </trkpt>
      <trkpt lat="44.09507" lon="6.92929">
        <ele>1641.5999755859</ele>
        <time>2019-08-03T09:41:41.000Z</time>
      </trkpt>
      <trkpt lat="44.09499" lon="6.92925">
        <ele>1642</ele>
        <time>2019-08-03T09:41:46.000Z</time>
      </trkpt>
      <trkpt lat="44.09498" lon="6.92923">
        <ele>1642</ele>
        <time>2019-08-03T09:41:47.000Z</time>
      </trkpt>
      <trkpt lat="44.09493" lon="6.92914">
        <ele>1642.4000244141</ele>
        <time>2019-08-03T09:41:51.000Z</time>
      </trkpt>
      <trkpt lat="44.09486" lon="6.92899">
        <ele>1642.8000488281</ele>
        <time>2019-08-03T09:41:59.000Z</time>
      </trkpt>
      <trkpt lat="44.09484" lon="6.92894">
        <ele>1643.1999511719</ele>
        <time>2019-08-03T09:42:02.000Z</time>
      </trkpt>
      <trkpt lat="44.09481" lon="6.92888">
        <ele>1644.1999511719</ele>
        <time>2019-08-03T09:42:06.000Z</time>
      </trkpt>
      <trkpt lat="44.0948" lon="6.92886">
        <ele>1644.4000244141</ele>
        <time>2019-08-03T09:42:07.000Z</time>
      </trkpt>
      <trkpt lat="44.09473" lon="6.92877">
        <ele>1644.8000488281</ele>
        <time>2019-08-03T09:42:14.000Z</time>
      </trkpt>
      <trkpt lat="44.0947" lon="6.92871">
        <ele>1645.1999511719</ele>
        <time>2019-08-03T09:42:18.000Z</time>
      </trkpt>
      <trkpt lat="44.09469" lon="6.9287">
        <ele>1645.4000244141</ele>
        <time>2019-08-03T09:42:19.000Z</time>
      </trkpt>
      <trkpt lat="44.09468" lon="6.92868">
        <ele>1645.4000244141</ele>
        <time>2019-08-03T09:42:20.000Z</time>
      </trkpt>
      <trkpt lat="44.09465" lon="6.92861">
        <ele>1646</ele>
        <time>2019-08-03T09:42:24.000Z</time>
      </trkpt>
      <trkpt lat="44.09463" lon="6.92859">
        <ele>1646.1999511719</ele>
        <time>2019-08-03T09:42:26.000Z</time>
      </trkpt>
      <trkpt lat="44.09462" lon="6.92856">
        <ele>1646.4000244141</ele>
        <time>2019-08-03T09:42:28.000Z</time>
      </trkpt>
      <trkpt lat="44.09457" lon="6.9285">
        <ele>1647</ele>
        <time>2019-08-03T09:42:34.000Z</time>
      </trkpt>
      <trkpt lat="44.0945" lon="6.92845">
        <ele>1647.4000244141</ele>
        <time>2019-08-03T09:42:40.000Z</time>
      </trkpt>
      <trkpt lat="44.09449" lon="6.92844">
        <ele>1647.5999755859</ele>
        <time>2019-08-03T09:42:41.000Z</time>
      </trkpt>
      <trkpt lat="44.09444" lon="6.92837">
        <ele>1648.4000244141</ele>
        <time>2019-08-03T09:42:47.000Z</time>
      </trkpt>
      <trkpt lat="44.09443" lon="6.92837">
        <ele>1648.5999755859</ele>
        <time>2019-08-03T09:42:48.000Z</time>
      </trkpt>
      <trkpt lat="44.09435" lon="6.9283">
        <ele>1649.1999511719</ele>
        <time>2019-08-03T09:42:56.000Z</time>
      </trkpt>
      <trkpt lat="44.09433" lon="6.92828">
        <ele>1649.5999755859</ele>
        <time>2019-08-03T09:42:58.000Z</time>
      </trkpt>
      <trkpt lat="44.09429" lon="6.92828">
        <ele>1650.1999511719</ele>
        <time>2019-08-03T09:43:01.000Z</time>
      </trkpt>
      <trkpt lat="44.09427" lon="6.92827">
        <ele>1650.5999755859</ele>
        <time>2019-08-03T09:43:03.000Z</time>
      </trkpt>
      <trkpt lat="44.0942" lon="6.9283">
        <ele>1651</ele>
        <time>2019-08-03T09:43:08.000Z</time>
      </trkpt>
      <trkpt lat="44.09409" lon="6.9284">
        <ele>1651.4000244141</ele>
        <time>2019-08-03T09:43:17.000Z</time>
      </trkpt>
      <trkpt lat="44.09406" lon="6.92843">
        <ele>1651.5999755859</ele>
        <time>2019-08-03T09:43:19.000Z</time>
      </trkpt>
      <trkpt lat="44.09398" lon="6.92848">
        <ele>1651.8000488281</ele>
        <time>2019-08-03T09:43:23.000Z</time>
      </trkpt>
      <trkpt lat="44.09389" lon="6.92851">
        <ele>1652.5999755859</ele>
        <time>2019-08-03T09:43:28.000Z</time>
      </trkpt>
      <trkpt lat="44.09381" lon="6.92852">
        <ele>1652.8000488281</ele>
        <time>2019-08-03T09:43:31.000Z</time>
      </trkpt>
      <trkpt lat="44.09364" lon="6.92853">
        <ele>1653</ele>
        <time>2019-08-03T09:43:38.000Z</time>
      </trkpt>
      <trkpt lat="44.09342" lon="6.92847">
        <ele>1653.5999755859</ele>
        <time>2019-08-03T09:43:47.000Z</time>
      </trkpt>
      <trkpt lat="44.0934" lon="6.92846">
        <ele>1654</ele>
        <time>2019-08-03T09:43:48.000Z</time>
      </trkpt>
      <trkpt lat="44.09332" lon="6.92839">
        <ele>1654.8000488281</ele>
        <time>2019-08-03T09:43:52.000Z</time>
      </trkpt>
      <trkpt lat="44.09328" lon="6.92836">
        <ele>1655.1999511719</ele>
        <time>2019-08-03T09:43:54.000Z</time>
      </trkpt>
      <trkpt lat="44.09321" lon="6.92833">
        <ele>1655.5999755859</ele>
        <time>2019-08-03T09:44:00.000Z</time>
      </trkpt>
      <trkpt lat="44.09318" lon="6.92832">
        <ele>1656</ele>
        <time>2019-08-03T09:44:03.000Z</time>
      </trkpt>
      <trkpt lat="44.09316" lon="6.92831">
        <ele>1656.1999511719</ele>
        <time>2019-08-03T09:44:05.000Z</time>
      </trkpt>
      <trkpt lat="44.09314" lon="6.9283">
        <ele>1657</ele>
        <time>2019-08-03T09:44:09.000Z</time>
      </trkpt>
      <trkpt lat="44.09314" lon="6.9283">
        <ele>1657.1999511719</ele>
        <time>2019-08-03T09:44:11.000Z</time>
      </trkpt>
      <trkpt lat="44.09313" lon="6.92828">
        <ele>1657.1999511719</ele>
        <time>2019-08-03T09:44:21.000Z</time>
      </trkpt>
      <trkpt lat="44.09309" lon="6.92827">
        <ele>1657</ele>
        <time>2019-08-03T09:44:36.000Z</time>
      </trkpt>
      <trkpt lat="44.09311" lon="6.92827">
        <ele>1657.4000244141</ele>
        <time>2019-08-03T09:44:49.000Z</time>
      </trkpt>
      <trkpt lat="44.09308" lon="6.92824">
        <ele>1657.5999755859</ele>
        <time>2019-08-03T09:44:56.000Z</time>
      </trkpt>
      <trkpt lat="44.09305" lon="6.92822">
        <ele>1657.5999755859</ele>
        <time>2019-08-03T09:44:58.000Z</time>
      </trkpt>
      <trkpt lat="44.09293" lon="6.92807">
        <ele>1658</ele>
        <time>2019-08-03T09:45:05.000Z</time>
      </trkpt>
      <trkpt lat="44.09286" lon="6.92801">
        <ele>1658</ele>
        <time>2019-08-03T09:45:09.000Z</time>
      </trkpt>
      <trkpt lat="44.0928" lon="6.92798">
        <ele>1658.5999755859</ele>
        <time>2019-08-03T09:45:12.000Z</time>
      </trkpt>
      <trkpt lat="44.09274" lon="6.92793">
        <ele>1659.1999511719</ele>
        <time>2019-08-03T09:45:16.000Z</time>
      </trkpt>
      <trkpt lat="44.0927" lon="6.9279">
        <ele>1659.4000244141</ele>
        <time>2019-08-03T09:45:18.000Z</time>
      </trkpt>
      <trkpt lat="44.09262" lon="6.92785">
        <ele>1660.1999511719</ele>
        <time>2019-08-03T09:45:23.000Z</time>
      </trkpt>
      <trkpt lat="44.0926" lon="6.92783">
        <ele>1660.4000244141</ele>
        <time>2019-08-03T09:45:24.000Z</time>
      </trkpt>
      <trkpt lat="44.09254" lon="6.92781">
        <ele>1660.4000244141</ele>
        <time>2019-08-03T09:45:27.000Z</time>
      </trkpt>
      <trkpt lat="44.09241" lon="6.92773">
        <ele>1660.1999511719</ele>
        <time>2019-08-03T09:45:32.000Z</time>
      </trkpt>
      <trkpt lat="44.09222" lon="6.92763">
        <ele>1660</ele>
        <time>2019-08-03T09:45:38.000Z</time>
      </trkpt>
      <trkpt lat="44.09208" lon="6.92763">
        <ele>1660.1999511719</ele>
        <time>2019-08-03T09:45:43.000Z</time>
      </trkpt>
      <trkpt lat="44.09194" lon="6.92762">
        <ele>1661.4000244141</ele>
        <time>2019-08-03T09:45:48.000Z</time>
      </trkpt>
      <trkpt lat="44.09178" lon="6.92749">
        <ele>1660.8000488281</ele>
        <time>2019-08-03T09:45:53.000Z</time>
      </trkpt>
      <trkpt lat="44.09164" lon="6.9273">
        <ele>1659.5999755859</ele>
        <time>2019-08-03T09:45:59.000Z</time>
      </trkpt>
      <trkpt lat="44.0916" lon="6.92726">
        <ele>1659.1999511719</ele>
        <time>2019-08-03T09:46:01.000Z</time>
      </trkpt>
      <trkpt lat="44.09149" lon="6.92714">
        <ele>1659.1999511719</ele>
        <time>2019-08-03T09:46:06.000Z</time>
      </trkpt>
      <trkpt lat="44.09138" lon="6.92695">
        <ele>1660.1999511719</ele>
        <time>2019-08-03T09:46:13.000Z</time>
      </trkpt>
      <trkpt lat="44.09137" lon="6.92692">
        <ele>1660.4000244141</ele>
        <time>2019-08-03T09:46:14.000Z</time>
      </trkpt>
      <trkpt lat="44.09128" lon="6.92674">
        <ele>1660.4000244141</ele>
        <time>2019-08-03T09:46:21.000Z</time>
      </trkpt>
      <trkpt lat="44.0912" lon="6.92662">
        <ele>1661.4000244141</ele>
        <time>2019-08-03T09:46:27.000Z</time>
      </trkpt>
      <trkpt lat="44.09117" lon="6.92668">
        <ele>1662.8000488281</ele>
        <time>2019-08-03T09:46:31.000Z</time>
      </trkpt>
      <trkpt lat="44.09114" lon="6.92671">
        <ele>1663.4000244141</ele>
        <time>2019-08-03T09:46:33.000Z</time>
      </trkpt>
      <trkpt lat="44.09112" lon="6.92668">
        <ele>1664</ele>
        <time>2019-08-03T09:46:35.000Z</time>
      </trkpt>
      <trkpt lat="44.09111" lon="6.92664">
        <ele>1664.8000488281</ele>
        <time>2019-08-03T09:46:37.000Z</time>
      </trkpt>
      <trkpt lat="44.0911" lon="6.92662">
        <ele>1665</ele>
        <time>2019-08-03T09:46:38.000Z</time>
      </trkpt>
      <trkpt lat="44.09105" lon="6.92652">
        <ele>1665.4000244141</ele>
        <time>2019-08-03T09:46:43.000Z</time>
      </trkpt>
      <trkpt lat="44.09099" lon="6.92642">
        <ele>1666</ele>
        <time>2019-08-03T09:46:49.000Z</time>
      </trkpt>
      <trkpt lat="44.09098" lon="6.92639">
        <ele>1666.1999511719</ele>
        <time>2019-08-03T09:46:50.000Z</time>
      </trkpt>
      <trkpt lat="44.09094" lon="6.92633">
        <ele>1667</ele>
        <time>2019-08-03T09:46:54.000Z</time>
      </trkpt>
      <trkpt lat="44.09092" lon="6.92631">
        <ele>1667.5999755859</ele>
        <time>2019-08-03T09:46:56.000Z</time>
      </trkpt>
      <trkpt lat="44.09092" lon="6.92629">
        <ele>1668.1999511719</ele>
        <time>2019-08-03T09:46:57.000Z</time>
      </trkpt>
      <trkpt lat="44.09091" lon="6.92628">
        <ele>1668.5999755859</ele>
        <time>2019-08-03T09:46:58.000Z</time>
      </trkpt>
      <trkpt lat="44.09089" lon="6.92624">
        <ele>1669.4000244141</ele>
        <time>2019-08-03T09:47:01.000Z</time>
      </trkpt>
      <trkpt lat="44.09085" lon="6.92617">
        <ele>1670.4000244141</ele>
        <time>2019-08-03T09:47:06.000Z</time>
      </trkpt>
      <trkpt lat="44.09084" lon="6.92616">
        <ele>1670.4000244141</ele>
        <time>2019-08-03T09:47:07.000Z</time>
      </trkpt>
      <trkpt lat="44.09082" lon="6.92613">
        <ele>1670.5999755859</ele>
        <time>2019-08-03T09:47:09.000Z</time>
      </trkpt>
      <trkpt lat="44.09076" lon="6.92606">
        <ele>1671.4000244141</ele>
        <time>2019-08-03T09:47:15.000Z</time>
      </trkpt>
      <trkpt lat="44.09075" lon="6.92605">
        <ele>1671.4000244141</ele>
        <time>2019-08-03T09:47:16.000Z</time>
      </trkpt>
      <trkpt lat="44.09071" lon="6.92602">
        <ele>1672.8000488281</ele>
        <time>2019-08-03T09:47:21.000Z</time>
      </trkpt>
      <trkpt lat="44.09066" lon="6.926">
        <ele>1673.8000488281</ele>
        <time>2019-08-03T09:47:26.000Z</time>
      </trkpt>
      <trkpt lat="44.09065" lon="6.926">
        <ele>1674</ele>
        <time>2019-08-03T09:47:27.000Z</time>
      </trkpt>
      <trkpt lat="44.09064" lon="6.92599">
        <ele>1674.5999755859</ele>
        <time>2019-08-03T09:47:29.000Z</time>
      </trkpt>
      <trkpt lat="44.09063" lon="6.92599">
        <ele>1674.8000488281</ele>
        <time>2019-08-03T09:47:30.000Z</time>
      </trkpt>
      <trkpt lat="44.09061" lon="6.92596">
        <ele>1675.4000244141</ele>
        <time>2019-08-03T09:47:33.000Z</time>
      </trkpt>
      <trkpt lat="44.09059" lon="6.92595">
        <ele>1675.8000488281</ele>
        <time>2019-08-03T09:47:35.000Z</time>
      </trkpt>
      <trkpt lat="44.09053" lon="6.92592">
        <ele>1677</ele>
        <time>2019-08-03T09:47:40.000Z</time>
      </trkpt>
      <trkpt lat="44.09049" lon="6.92587">
        <ele>1678.1999511719</ele>
        <time>2019-08-03T09:47:45.000Z</time>
      </trkpt>
      <trkpt lat="44.09048" lon="6.92586">
        <ele>1678.1999511719</ele>
        <time>2019-08-03T09:47:46.000Z</time>
      </trkpt>
      <trkpt lat="44.09041" lon="6.92579">
        <ele>1679.1999511719</ele>
        <time>2019-08-03T09:47:54.000Z</time>
      </trkpt>
      <trkpt lat="44.09039" lon="6.92578">
        <ele>1679.4000244141</ele>
        <time>2019-08-03T09:47:55.000Z</time>
      </trkpt>
      <trkpt lat="44.09033" lon="6.92573">
        <ele>1680.1999511719</ele>
        <time>2019-08-03T09:48:01.000Z</time>
      </trkpt>
      <trkpt lat="44.09032" lon="6.92571">
        <ele>1680.4000244141</ele>
        <time>2019-08-03T09:48:03.000Z</time>
      </trkpt>
      <trkpt lat="44.09024" lon="6.92564">
        <ele>1681</ele>
        <time>2019-08-03T09:48:10.000Z</time>
      </trkpt>
      <trkpt lat="44.09019" lon="6.92557">
        <ele>1681.1999511719</ele>
        <time>2019-08-03T09:48:16.000Z</time>
      </trkpt>
      <trkpt lat="44.09017" lon="6.92555">
        <ele>1681.4000244141</ele>
        <time>2019-08-03T09:48:17.000Z</time>
      </trkpt>
      <trkpt lat="44.09011" lon="6.92548">
        <ele>1682.4000244141</ele>
        <time>2019-08-03T09:48:23.000Z</time>
      </trkpt>
      <trkpt lat="44.0901" lon="6.92546">
        <ele>1682.4000244141</ele>
        <time>2019-08-03T09:48:24.000Z</time>
      </trkpt>
      <trkpt lat="44.09002" lon="6.92534">
        <ele>1683.1999511719</ele>
        <time>2019-08-03T09:48:32.000Z</time>
      </trkpt>
      <trkpt lat="44.09" lon="6.92532">
        <ele>1683.4000244141</ele>
        <time>2019-08-03T09:48:34.000Z</time>
      </trkpt>
      <trkpt lat="44.08993" lon="6.9252">
        <ele>1684.1999511719</ele>
        <time>2019-08-03T09:48:41.000Z</time>
      </trkpt>
      <trkpt lat="44.08992" lon="6.92519">
        <ele>1684.4000244141</ele>
        <time>2019-08-03T09:48:42.000Z</time>
      </trkpt>
      <trkpt lat="44.08986" lon="6.92508">
        <ele>1685.1999511719</ele>
        <time>2019-08-03T09:48:49.000Z</time>
      </trkpt>
      <trkpt lat="44.08985" lon="6.92507">
        <ele>1685.4000244141</ele>
        <time>2019-08-03T09:48:50.000Z</time>
      </trkpt>
      <trkpt lat="44.0898" lon="6.92499">
        <ele>1686.1999511719</ele>
        <time>2019-08-03T09:48:56.000Z</time>
      </trkpt>
      <trkpt lat="44.08979" lon="6.92497">
        <ele>1686.5999755859</ele>
        <time>2019-08-03T09:48:58.000Z</time>
      </trkpt>
      <trkpt lat="44.08975" lon="6.92488">
        <ele>1687.4000244141</ele>
        <time>2019-08-03T09:49:04.000Z</time>
      </trkpt>
      <trkpt lat="44.08974" lon="6.92486">
        <ele>1687.5999755859</ele>
        <time>2019-08-03T09:49:05.000Z</time>
      </trkpt>
      <trkpt lat="44.08967" lon="6.92475">
        <ele>1688.5999755859</ele>
        <time>2019-08-03T09:49:13.000Z</time>
      </trkpt>
      <trkpt lat="44.0896" lon="6.92464">
        <ele>1689.8000488281</ele>
        <time>2019-08-03T09:49:20.000Z</time>
      </trkpt>
      <trkpt lat="44.08954" lon="6.92455">
        <ele>1690.8000488281</ele>
        <time>2019-08-03T09:49:26.000Z</time>
      </trkpt>
      <trkpt lat="44.08953" lon="6.92452">
        <ele>1691.4000244141</ele>
        <time>2019-08-03T09:49:28.000Z</time>
      </trkpt>
      <trkpt lat="44.0895" lon="6.92448">
        <ele>1691.8000488281</ele>
        <time>2019-08-03T09:49:31.000Z</time>
      </trkpt>
      <trkpt lat="44.08946" lon="6.92442">
        <ele>1692.8000488281</ele>
        <time>2019-08-03T09:49:37.000Z</time>
      </trkpt>
      <trkpt lat="44.08946" lon="6.92441">
        <ele>1693</ele>
        <time>2019-08-03T09:49:39.000Z</time>
      </trkpt>
      <trkpt lat="44.08946" lon="6.92442">
        <ele>1693</ele>
        <time>2019-08-03T09:49:43.000Z</time>
      </trkpt>
      <trkpt lat="44.08945" lon="6.9244">
        <ele>1693</ele>
        <time>2019-08-03T09:49:52.000Z</time>
      </trkpt>
      <trkpt lat="44.08945" lon="6.92439">
        <ele>1693.4000244141</ele>
        <time>2019-08-03T09:50:06.000Z</time>
      </trkpt>
      <trkpt lat="44.08945" lon="6.9244">
        <ele>1693.4000244141</ele>
        <time>2019-08-03T09:50:20.000Z</time>
      </trkpt>
      <trkpt lat="44.08943" lon="6.92439">
        <ele>1693.1999511719</ele>
        <time>2019-08-03T09:50:34.000Z</time>
      </trkpt>
      <trkpt lat="44.08941" lon="6.92437">
        <ele>1693.4000244141</ele>
        <time>2019-08-03T09:50:47.000Z</time>
      </trkpt>
      <trkpt lat="44.0894" lon="6.92437">
        <ele>1693.4000244141</ele>
        <time>2019-08-03T09:50:50.000Z</time>
      </trkpt>
      <trkpt lat="44.0894" lon="6.92437">
        <ele>1693.1999511719</ele>
        <time>2019-08-03T09:50:51.000Z</time>
      </trkpt>
      <trkpt lat="44.08939" lon="6.92437">
        <ele>1693.5999755859</ele>
        <time>2019-08-03T09:50:56.000Z</time>
      </trkpt>
      <trkpt lat="44.08939" lon="6.92435">
        <ele>1693.4000244141</ele>
        <time>2019-08-03T09:50:57.000Z</time>
      </trkpt>
      <trkpt lat="44.08936" lon="6.9243">
        <ele>1693.4000244141</ele>
        <time>2019-08-03T09:51:01.000Z</time>
      </trkpt>
      <trkpt lat="44.08934" lon="6.92428">
        <ele>1693.4000244141</ele>
        <time>2019-08-03T09:51:03.000Z</time>
      </trkpt>
      <trkpt lat="44.0893" lon="6.92423">
        <ele>1694</ele>
        <time>2019-08-03T09:51:07.000Z</time>
      </trkpt>
      <trkpt lat="44.08928" lon="6.92421">
        <ele>1694.4000244141</ele>
        <time>2019-08-03T09:51:09.000Z</time>
      </trkpt>
      <trkpt lat="44.08922" lon="6.92415">
        <ele>1695.1999511719</ele>
        <time>2019-08-03T09:51:13.000Z</time>
      </trkpt>
      <trkpt lat="44.08914" lon="6.92407">
        <ele>1696</ele>
        <time>2019-08-03T09:51:18.000Z</time>
      </trkpt>
      <trkpt lat="44.08913" lon="6.92406">
        <ele>1696.1999511719</ele>
        <time>2019-08-03T09:51:19.000Z</time>
      </trkpt>
      <trkpt lat="44.08904" lon="6.92401">
        <ele>1697.1999511719</ele>
        <time>2019-08-03T09:51:24.000Z</time>
      </trkpt>
      <trkpt lat="44.08903" lon="6.924">
        <ele>1697.4000244141</ele>
        <time>2019-08-03T09:51:25.000Z</time>
      </trkpt>
      <trkpt lat="44.08888" lon="6.92391">
        <ele>1698.5999755859</ele>
        <time>2019-08-03T09:51:33.000Z</time>
      </trkpt>
      <trkpt lat="44.08879" lon="6.92386">
        <ele>1699.8000488281</ele>
        <time>2019-08-03T09:51:39.000Z</time>
      </trkpt>
      <trkpt lat="44.08873" lon="6.92383">
        <ele>1700.1999511719</ele>
        <time>2019-08-03T09:51:43.000Z</time>
      </trkpt>
      <trkpt lat="44.08868" lon="6.92381">
        <ele>1700.8000488281</ele>
        <time>2019-08-03T09:51:46.000Z</time>
      </trkpt>
      <trkpt lat="44.08859" lon="6.92376">
        <ele>1701.4000244141</ele>
        <time>2019-08-03T09:51:52.000Z</time>
      </trkpt>
      <trkpt lat="44.08853" lon="6.92374">
        <ele>1701.8000488281</ele>
        <time>2019-08-03T09:51:55.000Z</time>
      </trkpt>
      <trkpt lat="44.08843" lon="6.92371">
        <ele>1702.1999511719</ele>
        <time>2019-08-03T09:52:01.000Z</time>
      </trkpt>
      <trkpt lat="44.08837" lon="6.92371">
        <ele>1702.8000488281</ele>
        <time>2019-08-03T09:52:05.000Z</time>
      </trkpt>
      <trkpt lat="44.08831" lon="6.9237">
        <ele>1703.1999511719</ele>
        <time>2019-08-03T09:52:08.000Z</time>
      </trkpt>
      <trkpt lat="44.08823" lon="6.92368">
        <ele>1703.8000488281</ele>
        <time>2019-08-03T09:52:13.000Z</time>
      </trkpt>
      <trkpt lat="44.0882" lon="6.92367">
        <ele>1704</ele>
        <time>2019-08-03T09:52:15.000Z</time>
      </trkpt>
      <trkpt lat="44.08804" lon="6.92358">
        <ele>1705</ele>
        <time>2019-08-03T09:52:23.000Z</time>
      </trkpt>
      <trkpt lat="44.08791" lon="6.9235">
        <ele>1705.4000244141</ele>
        <time>2019-08-03T09:52:29.000Z</time>
      </trkpt>
      <trkpt lat="44.0878" lon="6.92344">
        <ele>1706</ele>
        <time>2019-08-03T09:52:34.000Z</time>
      </trkpt>
      <trkpt lat="44.08772" lon="6.9234">
        <ele>1706.5999755859</ele>
        <time>2019-08-03T09:52:38.000Z</time>
      </trkpt>
      <trkpt lat="44.08766" lon="6.92336">
        <ele>1707.1999511719</ele>
        <time>2019-08-03T09:52:41.000Z</time>
      </trkpt>
      <trkpt lat="44.08755" lon="6.9233">
        <ele>1707.5999755859</ele>
        <time>2019-08-03T09:52:46.000Z</time>
      </trkpt>
      <trkpt lat="44.08741" lon="6.92319">
        <ele>1708.4000244141</ele>
        <time>2019-08-03T09:52:53.000Z</time>
      </trkpt>
      <trkpt lat="44.0874" lon="6.92318">
        <ele>1708.4000244141</ele>
        <time>2019-08-03T09:52:54.000Z</time>
      </trkpt>
      <trkpt lat="44.08724" lon="6.92305">
        <ele>1709.1999511719</ele>
        <time>2019-08-03T09:53:02.000Z</time>
      </trkpt>
      <trkpt lat="44.0872" lon="6.92303">
        <ele>1709.4000244141</ele>
        <time>2019-08-03T09:53:04.000Z</time>
      </trkpt>
      <trkpt lat="44.08707" lon="6.92296">
        <ele>1710</ele>
        <time>2019-08-03T09:53:10.000Z</time>
      </trkpt>
      <trkpt lat="44.08703" lon="6.92295">
        <ele>1710.5999755859</ele>
        <time>2019-08-03T09:53:12.000Z</time>
      </trkpt>
      <trkpt lat="44.08694" lon="6.92294">
        <ele>1710.5999755859</ele>
        <time>2019-08-03T09:53:16.000Z</time>
      </trkpt>
      <trkpt lat="44.08678" lon="6.92301">
        <ele>1711.4000244141</ele>
        <time>2019-08-03T09:53:24.000Z</time>
      </trkpt>
      <trkpt lat="44.08674" lon="6.92303">
        <ele>1711.5999755859</ele>
        <time>2019-08-03T09:53:26.000Z</time>
      </trkpt>
      <trkpt lat="44.0866" lon="6.92317">
        <ele>1712.5999755859</ele>
        <time>2019-08-03T09:53:34.000Z</time>
      </trkpt>
      <trkpt lat="44.08657" lon="6.9232">
        <ele>1712.5999755859</ele>
        <time>2019-08-03T09:53:36.000Z</time>
      </trkpt>
      <trkpt lat="44.0865" lon="6.92332">
        <ele>1713.1999511719</ele>
        <time>2019-08-03T09:53:42.000Z</time>
      </trkpt>
      <trkpt lat="44.08641" lon="6.92339">
        <ele>1713.8000488281</ele>
        <time>2019-08-03T09:53:48.000Z</time>
      </trkpt>
      <trkpt lat="44.08638" lon="6.92341">
        <ele>1714</ele>
        <time>2019-08-03T09:53:53.000Z</time>
      </trkpt>
      <trkpt lat="44.08637" lon="6.92343">
        <ele>1714.4000244141</ele>
        <time>2019-08-03T09:54:02.000Z</time>
      </trkpt>
      <trkpt lat="44.08638" lon="6.92345">
        <ele>1714.4000244141</ele>
        <time>2019-08-03T09:54:12.000Z</time>
      </trkpt>
      <trkpt lat="44.08636" lon="6.9235">
        <ele>1714.4000244141</ele>
        <time>2019-08-03T09:54:27.000Z</time>
      </trkpt>
      <trkpt lat="44.08636" lon="6.92357">
        <ele>1714.4000244141</ele>
        <time>2019-08-03T09:54:33.000Z</time>
      </trkpt>
      <trkpt lat="44.08634" lon="6.92356">
        <ele>1714.1999511719</ele>
        <time>2019-08-03T09:54:38.000Z</time>
      </trkpt>
      <trkpt lat="44.08634" lon="6.92355">
        <ele>1714.1999511719</ele>
        <time>2019-08-03T09:54:39.000Z</time>
      </trkpt>
      <trkpt lat="44.08636" lon="6.92352">
        <ele>1714.1999511719</ele>
        <time>2019-08-03T09:54:45.000Z</time>
      </trkpt>
      <trkpt lat="44.08636" lon="6.92351">
        <ele>1714.1999511719</ele>
        <time>2019-08-03T09:54:53.000Z</time>
      </trkpt>
      <trkpt lat="44.08636" lon="6.92351">
        <ele>1714.4000244141</ele>
        <time>2019-08-03T09:55:02.000Z</time>
      </trkpt>
      <trkpt lat="44.08638" lon="6.92351">
        <ele>1714.1999511719</ele>
        <time>2019-08-03T09:55:18.000Z</time>
      </trkpt>
      <trkpt lat="44.08639" lon="6.92352">
        <ele>1714.5999755859</ele>
        <time>2019-08-03T09:55:26.000Z</time>
      </trkpt>
      <trkpt lat="44.0864" lon="6.92352">
        <ele>1714.1999511719</ele>
        <time>2019-08-03T09:55:34.000Z</time>
      </trkpt>
      <trkpt lat="44.08641" lon="6.92352">
        <ele>1714.1999511719</ele>
        <time>2019-08-03T09:55:42.000Z</time>
      </trkpt>
      <trkpt lat="44.08641" lon="6.92351">
        <ele>1714.1999511719</ele>
        <time>2019-08-03T09:55:55.000Z</time>
      </trkpt>
      <trkpt lat="44.0864" lon="6.92353">
        <ele>1714.1999511719</ele>
        <time>2019-08-03T09:56:07.000Z</time>
      </trkpt>
      <trkpt lat="44.08639" lon="6.92352">
        <ele>1714</ele>
        <time>2019-08-03T09:56:12.000Z</time>
      </trkpt>
      <trkpt lat="44.0864" lon="6.92352">
        <ele>1713.8000488281</ele>
        <time>2019-08-03T09:56:21.000Z</time>
      </trkpt>
      <trkpt lat="44.08642" lon="6.92353">
        <ele>1714.1999511719</ele>
        <time>2019-08-03T09:56:30.000Z</time>
      </trkpt>
      <trkpt lat="44.08642" lon="6.92352">
        <ele>1714.1999511719</ele>
        <time>2019-08-03T09:56:40.000Z</time>
      </trkpt>
      <trkpt lat="44.08641" lon="6.9235">
        <ele>1713.8000488281</ele>
        <time>2019-08-03T09:56:49.000Z</time>
      </trkpt>
      <trkpt lat="44.0864" lon="6.92349">
        <ele>1714</ele>
        <time>2019-08-03T09:57:00.000Z</time>
      </trkpt>
      <trkpt lat="44.08638" lon="6.92348">
        <ele>1714.1999511719</ele>
        <time>2019-08-03T09:57:13.000Z</time>
      </trkpt>
      <trkpt lat="44.08637" lon="6.92348">
        <ele>1714.5999755859</ele>
        <time>2019-08-03T09:57:33.000Z</time>
      </trkpt>
      <trkpt lat="44.08636" lon="6.92347">
        <ele>1714.4000244141</ele>
        <time>2019-08-03T09:57:45.000Z</time>
      </trkpt>
      <trkpt lat="44.08635" lon="6.92348">
        <ele>1714</ele>
        <time>2019-08-03T09:57:51.000Z</time>
      </trkpt>
      <trkpt lat="44.08635" lon="6.92349">
        <ele>1714.1999511719</ele>
        <time>2019-08-03T09:58:01.000Z</time>
      </trkpt>
      <trkpt lat="44.08635" lon="6.92348">
        <ele>1714</ele>
        <time>2019-08-03T09:58:10.000Z</time>
      </trkpt>
      <trkpt lat="44.08635" lon="6.92349">
        <ele>1714</ele>
        <time>2019-08-03T09:58:18.000Z</time>
      </trkpt>
      <trkpt lat="44.08636" lon="6.92351">
        <ele>1714</ele>
        <time>2019-08-03T09:58:25.000Z</time>
      </trkpt>
      <trkpt lat="44.08636" lon="6.92353">
        <ele>1714</ele>
        <time>2019-08-03T09:58:36.000Z</time>
      </trkpt>
      <trkpt lat="44.08635" lon="6.92354">
        <ele>1713.5999755859</ele>
        <time>2019-08-03T09:58:43.000Z</time>
      </trkpt>
      <trkpt lat="44.08635" lon="6.92354">
        <ele>1713.8000488281</ele>
        <time>2019-08-03T09:58:51.000Z</time>
      </trkpt>
      <trkpt lat="44.08636" lon="6.92354">
        <ele>1713.8000488281</ele>
        <time>2019-08-03T09:58:58.000Z</time>
      </trkpt>
      <trkpt lat="44.08639" lon="6.92354">
        <ele>1713.8000488281</ele>
        <time>2019-08-03T09:59:07.000Z</time>
      </trkpt>
      <trkpt lat="44.0864" lon="6.92354">
        <ele>1713.8000488281</ele>
        <time>2019-08-03T09:59:15.000Z</time>
      </trkpt>
      <trkpt lat="44.08642" lon="6.92358">
        <ele>1713.8000488281</ele>
        <time>2019-08-03T09:59:26.000Z</time>
      </trkpt>
      <trkpt lat="44.08643" lon="6.92361">
        <ele>1713.8000488281</ele>
        <time>2019-08-03T09:59:31.000Z</time>
      </trkpt>
      <trkpt lat="44.0865" lon="6.92374">
        <ele>1714</ele>
        <time>2019-08-03T09:59:36.000Z</time>
      </trkpt>
      <trkpt lat="44.08661" lon="6.92388">
        <ele>1713.8000488281</ele>
        <time>2019-08-03T09:59:42.000Z</time>
      </trkpt>
      <trkpt lat="44.08674" lon="6.92398">
        <ele>1714</ele>
        <time>2019-08-03T09:59:48.000Z</time>
      </trkpt>
      <trkpt lat="44.08684" lon="6.92412">
        <ele>1714.4000244141</ele>
        <time>2019-08-03T09:59:53.000Z</time>
      </trkpt>
      <trkpt lat="44.08689" lon="6.92427">
        <ele>1714.8000488281</ele>
        <time>2019-08-03T09:59:57.000Z</time>
      </trkpt>
      <trkpt lat="44.08691" lon="6.92434">
        <ele>1714.8000488281</ele>
        <time>2019-08-03T09:59:59.000Z</time>
      </trkpt>
      <trkpt lat="44.08694" lon="6.92447">
        <ele>1715.4000244141</ele>
        <time>2019-08-03T10:00:03.000Z</time>
      </trkpt>
      <trkpt lat="44.08694" lon="6.92455">
        <ele>1715.8000488281</ele>
        <time>2019-08-03T10:00:05.000Z</time>
      </trkpt>
      <trkpt lat="44.08691" lon="6.92464">
        <ele>1716.1999511719</ele>
        <time>2019-08-03T10:00:08.000Z</time>
      </trkpt>
      <trkpt lat="44.08686" lon="6.92487">
        <ele>1716.8000488281</ele>
        <time>2019-08-03T10:00:14.000Z</time>
      </trkpt>
      <trkpt lat="44.08687" lon="6.92504">
        <ele>1717</ele>
        <time>2019-08-03T10:00:19.000Z</time>
      </trkpt>
      <trkpt lat="44.08686" lon="6.92507">
        <ele>1717.1999511719</ele>
        <time>2019-08-03T10:00:20.000Z</time>
      </trkpt>
      <trkpt lat="44.08676" lon="6.92528">
        <ele>1717.4000244141</ele>
        <time>2019-08-03T10:00:26.000Z</time>
      </trkpt>
      <trkpt lat="44.08664" lon="6.92554">
        <ele>1717.4000244141</ele>
        <time>2019-08-03T10:00:33.000Z</time>
      </trkpt>
      <trkpt lat="44.08656" lon="6.92577">
        <ele>1717.4000244141</ele>
        <time>2019-08-03T10:00:40.000Z</time>
      </trkpt>
      <trkpt lat="44.08642" lon="6.92601">
        <ele>1717.4000244141</ele>
        <time>2019-08-03T10:00:47.000Z</time>
      </trkpt>
      <trkpt lat="44.08619" lon="6.9263">
        <ele>1717.1999511719</ele>
        <time>2019-08-03T10:00:57.000Z</time>
      </trkpt>
      <trkpt lat="44.08601" lon="6.92645">
        <ele>1717</ele>
        <time>2019-08-03T10:01:03.000Z</time>
      </trkpt>
      <trkpt lat="44.08577" lon="6.92656">
        <ele>1715.8000488281</ele>
        <time>2019-08-03T10:01:08.000Z</time>
      </trkpt>
      <trkpt lat="44.08559" lon="6.92666">
        <ele>1714.4000244141</ele>
        <time>2019-08-03T10:01:11.000Z</time>
      </trkpt>
      <trkpt lat="44.08549" lon="6.92674">
        <ele>1713.5999755859</ele>
        <time>2019-08-03T10:01:13.000Z</time>
      </trkpt>
      <trkpt lat="44.08544" lon="6.92679">
        <ele>1713.1999511719</ele>
        <time>2019-08-03T10:01:14.000Z</time>
      </trkpt>
      <trkpt lat="44.08536" lon="6.92696">
        <ele>1712.8000488281</ele>
        <time>2019-08-03T10:01:17.000Z</time>
      </trkpt>
      <trkpt lat="44.08533" lon="6.92703">
        <ele>1713</ele>
        <time>2019-08-03T10:01:18.000Z</time>
      </trkpt>
      <trkpt lat="44.08523" lon="6.92732">
        <ele>1713.5999755859</ele>
        <time>2019-08-03T10:01:23.000Z</time>
      </trkpt>
      <trkpt lat="44.0851" lon="6.92787">
        <ele>1713.4000244141</ele>
        <time>2019-08-03T10:01:32.000Z</time>
      </trkpt>
      <trkpt lat="44.08504" lon="6.92833">
        <ele>1713.8000488281</ele>
        <time>2019-08-03T10:01:40.000Z</time>
      </trkpt>
      <trkpt lat="44.08499" lon="6.92876">
        <ele>1714.1999511719</ele>
        <time>2019-08-03T10:01:48.000Z</time>
      </trkpt>
      <trkpt lat="44.08496" lon="6.92923">
        <ele>1714</ele>
        <time>2019-08-03T10:01:56.000Z</time>
      </trkpt>
      <trkpt lat="44.08498" lon="6.92952">
        <ele>1713.8000488281</ele>
        <time>2019-08-03T10:02:01.000Z</time>
      </trkpt>
      <trkpt lat="44.08497" lon="6.92957">
        <ele>1713.8000488281</ele>
        <time>2019-08-03T10:02:02.000Z</time>
      </trkpt>
      <trkpt lat="44.08494" lon="6.93008">
        <ele>1713.4000244141</ele>
        <time>2019-08-03T10:02:10.000Z</time>
      </trkpt>
      <trkpt lat="44.08492" lon="6.93028">
        <ele>1713.1999511719</ele>
        <time>2019-08-03T10:02:13.000Z</time>
      </trkpt>
      <trkpt lat="44.08492" lon="6.93042">
        <ele>1713</ele>
        <time>2019-08-03T10:02:15.000Z</time>
      </trkpt>
      <trkpt lat="44.08492" lon="6.93054">
        <ele>1713</ele>
        <time>2019-08-03T10:02:17.000Z</time>
      </trkpt>
      <trkpt lat="44.08486" lon="6.93078">
        <ele>1713.1999511719</ele>
        <time>2019-08-03T10:02:21.000Z</time>
      </trkpt>
      <trkpt lat="44.08479" lon="6.93103">
        <ele>1713.5999755859</ele>
        <time>2019-08-03T10:02:26.000Z</time>
      </trkpt>
      <trkpt lat="44.08476" lon="6.93122">
        <ele>1714.1999511719</ele>
        <time>2019-08-03T10:02:30.000Z</time>
      </trkpt>
      <trkpt lat="44.08474" lon="6.93131">
        <ele>1714.1999511719</ele>
        <time>2019-08-03T10:02:32.000Z</time>
      </trkpt>
      <trkpt lat="44.08472" lon="6.93148">
        <ele>1715.4000244141</ele>
        <time>2019-08-03T10:02:36.000Z</time>
      </trkpt>
      <trkpt lat="44.0847" lon="6.9316">
        <ele>1715.8000488281</ele>
        <time>2019-08-03T10:02:39.000Z</time>
      </trkpt>
      <trkpt lat="44.08468" lon="6.93182">
        <ele>1716.4000244141</ele>
        <time>2019-08-03T10:02:44.000Z</time>
      </trkpt>
      <trkpt lat="44.08467" lon="6.93195">
        <ele>1716.8000488281</ele>
        <time>2019-08-03T10:02:47.000Z</time>
      </trkpt>
      <trkpt lat="44.08466" lon="6.93208">
        <ele>1717.4000244141</ele>
        <time>2019-08-03T10:02:50.000Z</time>
      </trkpt>
      <trkpt lat="44.08464" lon="6.93224">
        <ele>1718.1999511719</ele>
        <time>2019-08-03T10:02:54.000Z</time>
      </trkpt>
      <trkpt lat="44.08464" lon="6.93233">
        <ele>1718.5999755859</ele>
        <time>2019-08-03T10:02:56.000Z</time>
      </trkpt>
      <trkpt lat="44.08462" lon="6.93252">
        <ele>1719.5999755859</ele>
        <time>2019-08-03T10:03:01.000Z</time>
      </trkpt>
      <trkpt lat="44.08458" lon="6.93269">
        <ele>1720.8000488281</ele>
        <time>2019-08-03T10:03:06.000Z</time>
      </trkpt>
      <trkpt lat="44.08456" lon="6.93283">
        <ele>1721.4000244141</ele>
        <time>2019-08-03T10:03:10.000Z</time>
      </trkpt>
      <trkpt lat="44.08455" lon="6.93294">
        <ele>1721.8000488281</ele>
        <time>2019-08-03T10:03:13.000Z</time>
      </trkpt>
      <trkpt lat="44.08452" lon="6.93318">
        <ele>1722.1999511719</ele>
        <time>2019-08-03T10:03:19.000Z</time>
      </trkpt>
      <trkpt lat="44.08447" lon="6.93338">
        <ele>1722.8000488281</ele>
        <time>2019-08-03T10:03:24.000Z</time>
      </trkpt>
      <trkpt lat="44.08445" lon="6.93349">
        <ele>1723.1999511719</ele>
        <time>2019-08-03T10:03:27.000Z</time>
      </trkpt>
      <trkpt lat="44.08438" lon="6.93379">
        <ele>1723.5999755859</ele>
        <time>2019-08-03T10:03:34.000Z</time>
      </trkpt>
      <trkpt lat="44.08429" lon="6.93404">
        <ele>1723.1999511719</ele>
        <time>2019-08-03T10:03:39.000Z</time>
      </trkpt>
      <trkpt lat="44.08412" lon="6.93443">
        <ele>1722.4000244141</ele>
        <time>2019-08-03T10:03:45.000Z</time>
      </trkpt>
      <trkpt lat="44.08405" lon="6.93459">
        <ele>1721.5999755859</ele>
        <time>2019-08-03T10:03:47.000Z</time>
      </trkpt>
      <trkpt lat="44.08395" lon="6.93484">
        <ele>1720.4000244141</ele>
        <time>2019-08-03T10:03:50.000Z</time>
      </trkpt>
      <trkpt lat="44.08391" lon="6.93492">
        <ele>1719.8000488281</ele>
        <time>2019-08-03T10:03:51.000Z</time>
      </trkpt>
      <trkpt lat="44.08381" lon="6.93505">
        <ele>1719</ele>
        <time>2019-08-03T10:03:53.000Z</time>
      </trkpt>
      <trkpt lat="44.08376" lon="6.93511">
        <ele>1719</ele>
        <time>2019-08-03T10:03:54.000Z</time>
      </trkpt>
      <trkpt lat="44.08372" lon="6.93515">
        <ele>1718.8000488281</ele>
        <time>2019-08-03T10:03:55.000Z</time>
      </trkpt>
      <trkpt lat="44.08352" lon="6.9353">
        <ele>1719.5999755859</ele>
        <time>2019-08-03T10:04:00.000Z</time>
      </trkpt>
      <trkpt lat="44.08346" lon="6.93534">
        <ele>1720.4000244141</ele>
        <time>2019-08-03T10:04:02.000Z</time>
      </trkpt>
      <trkpt lat="44.08337" lon="6.93538">
        <ele>1721.4000244141</ele>
        <time>2019-08-03T10:04:05.000Z</time>
      </trkpt>
      <trkpt lat="44.08335" lon="6.93539">
        <ele>1721.5999755859</ele>
        <time>2019-08-03T10:04:06.000Z</time>
      </trkpt>
      <trkpt lat="44.08322" lon="6.9354">
        <ele>1722.4000244141</ele>
        <time>2019-08-03T10:04:10.000Z</time>
      </trkpt>
      <trkpt lat="44.08319" lon="6.93539">
        <ele>1722.8000488281</ele>
        <time>2019-08-03T10:04:11.000Z</time>
      </trkpt>
      <trkpt lat="44.08311" lon="6.93534">
        <ele>1723.5999755859</ele>
        <time>2019-08-03T10:04:14.000Z</time>
      </trkpt>
      <trkpt lat="44.08304" lon="6.93528">
        <ele>1724.1999511719</ele>
        <time>2019-08-03T10:04:17.000Z</time>
      </trkpt>
      <trkpt lat="44.08296" lon="6.93521">
        <ele>1724.8000488281</ele>
        <time>2019-08-03T10:04:20.000Z</time>
      </trkpt>
      <trkpt lat="44.08284" lon="6.9351">
        <ele>1726</ele>
        <time>2019-08-03T10:04:25.000Z</time>
      </trkpt>
      <trkpt lat="44.08279" lon="6.93506">
        <ele>1726.5999755859</ele>
        <time>2019-08-03T10:04:27.000Z</time>
      </trkpt>
      <trkpt lat="44.08275" lon="6.93502">
        <ele>1727.1999511719</ele>
        <time>2019-08-03T10:04:29.000Z</time>
      </trkpt>
      <trkpt lat="44.08265" lon="6.93495">
        <ele>1728.1999511719</ele>
        <time>2019-08-03T10:04:33.000Z</time>
      </trkpt>
      <trkpt lat="44.0826" lon="6.93493">
        <ele>1728.8000488281</ele>
        <time>2019-08-03T10:04:35.000Z</time>
      </trkpt>
      <trkpt lat="44.08256" lon="6.93492">
        <ele>1729.1999511719</ele>
        <time>2019-08-03T10:04:37.000Z</time>
      </trkpt>
      <trkpt lat="44.08245" lon="6.93493">
        <ele>1730.1999511719</ele>
        <time>2019-08-03T10:04:41.000Z</time>
      </trkpt>
      <trkpt lat="44.08242" lon="6.93494">
        <ele>1730.5999755859</ele>
        <time>2019-08-03T10:04:42.000Z</time>
      </trkpt>
      <trkpt lat="44.08228" lon="6.93501">
        <ele>1731.5999755859</ele>
        <time>2019-08-03T10:04:48.000Z</time>
      </trkpt>
      <trkpt lat="44.08226" lon="6.93502">
        <ele>1732</ele>
        <time>2019-08-03T10:04:49.000Z</time>
      </trkpt>
      <trkpt lat="44.08217" lon="6.93505">
        <ele>1732.8000488281</ele>
        <time>2019-08-03T10:04:53.000Z</time>
      </trkpt>
      <trkpt lat="44.08208" lon="6.93508">
        <ele>1733.4000244141</ele>
        <time>2019-08-03T10:04:57.000Z</time>
      </trkpt>
      <trkpt lat="44.08204" lon="6.9351">
        <ele>1733.8000488281</ele>
        <time>2019-08-03T10:04:59.000Z</time>
      </trkpt>
      <trkpt lat="44.08194" lon="6.93513">
        <ele>1734.5999755859</ele>
        <time>2019-08-03T10:05:04.000Z</time>
      </trkpt>
      <trkpt lat="44.0819" lon="6.93513">
        <ele>1735</ele>
        <time>2019-08-03T10:05:06.000Z</time>
      </trkpt>
      <trkpt lat="44.08178" lon="6.93518">
        <ele>1735.8000488281</ele>
        <time>2019-08-03T10:05:12.000Z</time>
      </trkpt>
      <trkpt lat="44.08176" lon="6.93518">
        <ele>1736</ele>
        <time>2019-08-03T10:05:13.000Z</time>
      </trkpt>
      <trkpt lat="44.08162" lon="6.93525">
        <ele>1737</ele>
        <time>2019-08-03T10:05:20.000Z</time>
      </trkpt>
      <trkpt lat="44.0816" lon="6.93526">
        <ele>1737.1999511719</ele>
        <time>2019-08-03T10:05:21.000Z</time>
      </trkpt>
      <trkpt lat="44.0815" lon="6.93531">
        <ele>1738</ele>
        <time>2019-08-03T10:05:26.000Z</time>
      </trkpt>
      <trkpt lat="44.08147" lon="6.93533">
        <ele>1738.1999511719</ele>
        <time>2019-08-03T10:05:28.000Z</time>
      </trkpt>
      <trkpt lat="44.08139" lon="6.93539">
        <ele>1739.1999511719</ele>
        <time>2019-08-03T10:05:32.000Z</time>
      </trkpt>
      <trkpt lat="44.08132" lon="6.93547">
        <ele>1740.1999511719</ele>
        <time>2019-08-03T10:05:36.000Z</time>
      </trkpt>
      <trkpt lat="44.0813" lon="6.93548">
        <ele>1740.1999511719</ele>
        <time>2019-08-03T10:05:37.000Z</time>
      </trkpt>
      <trkpt lat="44.08115" lon="6.93561">
        <ele>1741.1999511719</ele>
        <time>2019-08-03T10:05:45.000Z</time>
      </trkpt>
      <trkpt lat="44.08113" lon="6.93562">
        <ele>1741.4000244141</ele>
        <time>2019-08-03T10:05:46.000Z</time>
      </trkpt>
      <trkpt lat="44.08107" lon="6.93565">
        <ele>1742.1999511719</ele>
        <time>2019-08-03T10:05:49.000Z</time>
      </trkpt>
      <trkpt lat="44.08099" lon="6.93569">
        <ele>1743.4000244141</ele>
        <time>2019-08-03T10:05:53.000Z</time>
      </trkpt>
      <trkpt lat="44.08083" lon="6.93578">
        <ele>1744.5999755859</ele>
        <time>2019-08-03T10:06:01.000Z</time>
      </trkpt>
      <trkpt lat="44.08073" lon="6.93584">
        <ele>1745.5999755859</ele>
        <time>2019-08-03T10:06:06.000Z</time>
      </trkpt>
      <trkpt lat="44.08067" lon="6.93587">
        <ele>1746</ele>
        <time>2019-08-03T10:06:09.000Z</time>
      </trkpt>
      <trkpt lat="44.08057" lon="6.93596">
        <ele>1746.5999755859</ele>
        <time>2019-08-03T10:06:15.000Z</time>
      </trkpt>
      <trkpt lat="44.08053" lon="6.93599">
        <ele>1747</ele>
        <time>2019-08-03T10:06:17.000Z</time>
      </trkpt>
      <trkpt lat="44.08038" lon="6.93603">
        <ele>1747.4000244141</ele>
        <time>2019-08-03T10:06:24.000Z</time>
      </trkpt>
      <trkpt lat="44.08033" lon="6.93603">
        <ele>1747.5999755859</ele>
        <time>2019-08-03T10:06:26.000Z</time>
      </trkpt>
      <trkpt lat="44.08022" lon="6.93598">
        <ele>1748</ele>
        <time>2019-08-03T10:06:31.000Z</time>
      </trkpt>
      <trkpt lat="44.08005" lon="6.93581">
        <ele>1748.8000488281</ele>
        <time>2019-08-03T10:06:39.000Z</time>
      </trkpt>
      <trkpt lat="44.07994" lon="6.93558">
        <ele>1749</ele>
        <time>2019-08-03T10:06:46.000Z</time>
      </trkpt>
      <trkpt lat="44.0798" lon="6.93542">
        <ele>1749</ele>
        <time>2019-08-03T10:06:51.000Z</time>
      </trkpt>
      <trkpt lat="44.07955" lon="6.93526">
        <ele>1748.5999755859</ele>
        <time>2019-08-03T10:06:59.000Z</time>
      </trkpt>
      <trkpt lat="44.0794" lon="6.93522">
        <ele>1749</ele>
        <time>2019-08-03T10:07:04.000Z</time>
      </trkpt>
      <trkpt lat="44.07931" lon="6.9352">
        <ele>1749.8000488281</ele>
        <time>2019-08-03T10:07:08.000Z</time>
      </trkpt>
      <trkpt lat="44.07925" lon="6.93519">
        <ele>1750.4000244141</ele>
        <time>2019-08-03T10:07:11.000Z</time>
      </trkpt>
      <trkpt lat="44.0792" lon="6.93518">
        <ele>1750.8000488281</ele>
        <time>2019-08-03T10:07:13.000Z</time>
      </trkpt>
      <trkpt lat="44.07913" lon="6.93519">
        <ele>1752</ele>
        <time>2019-08-03T10:07:17.000Z</time>
      </trkpt>
      <trkpt lat="44.07909" lon="6.93519">
        <ele>1752.4000244141</ele>
        <time>2019-08-03T10:07:19.000Z</time>
      </trkpt>
      <trkpt lat="44.07906" lon="6.93521">
        <ele>1753</ele>
        <time>2019-08-03T10:07:21.000Z</time>
      </trkpt>
      <trkpt lat="44.07901" lon="6.93521">
        <ele>1754</ele>
        <time>2019-08-03T10:07:24.000Z</time>
      </trkpt>
      <trkpt lat="44.07898" lon="6.93522">
        <ele>1754.8000488281</ele>
        <time>2019-08-03T10:07:26.000Z</time>
      </trkpt>
      <trkpt lat="44.07894" lon="6.93523">
        <ele>1755.4000244141</ele>
        <time>2019-08-03T10:07:28.000Z</time>
      </trkpt>
      <trkpt lat="44.07888" lon="6.93526">
        <ele>1756.5999755859</ele>
        <time>2019-08-03T10:07:32.000Z</time>
      </trkpt>
      <trkpt lat="44.07883" lon="6.93528">
        <ele>1757.8000488281</ele>
        <time>2019-08-03T10:07:35.000Z</time>
      </trkpt>
      <trkpt lat="44.07877" lon="6.9353">
        <ele>1758.8000488281</ele>
        <time>2019-08-03T10:07:39.000Z</time>
      </trkpt>
      <trkpt lat="44.07871" lon="6.93533">
        <ele>1760</ele>
        <time>2019-08-03T10:07:43.000Z</time>
      </trkpt>
      <trkpt lat="44.07865" lon="6.93536">
        <ele>1761.1999511719</ele>
        <time>2019-08-03T10:07:48.000Z</time>
      </trkpt>
      <trkpt lat="44.0786" lon="6.93539">
        <ele>1762.1999511719</ele>
        <time>2019-08-03T10:07:52.000Z</time>
      </trkpt>
      <trkpt lat="44.07854" lon="6.9354">
        <ele>1762.8000488281</ele>
        <time>2019-08-03T10:07:56.000Z</time>
      </trkpt>
      <trkpt lat="44.07851" lon="6.93541">
        <ele>1763.4000244141</ele>
        <time>2019-08-03T10:07:58.000Z</time>
      </trkpt>
      <trkpt lat="44.0784" lon="6.93544">
        <ele>1764.4000244141</ele>
        <time>2019-08-03T10:08:05.000Z</time>
      </trkpt>
      <trkpt lat="44.07838" lon="6.93544">
        <ele>1764.4000244141</ele>
        <time>2019-08-03T10:08:06.000Z</time>
      </trkpt>
      <trkpt lat="44.07828" lon="6.93545">
        <ele>1765.5999755859</ele>
        <time>2019-08-03T10:08:13.000Z</time>
      </trkpt>
      <trkpt lat="44.07819" lon="6.93546">
        <ele>1766.5999755859</ele>
        <time>2019-08-03T10:08:19.000Z</time>
      </trkpt>
      <trkpt lat="44.07813" lon="6.93547">
        <ele>1767.4000244141</ele>
        <time>2019-08-03T10:08:23.000Z</time>
      </trkpt>
      <trkpt lat="44.07809" lon="6.93548">
        <ele>1767.8000488281</ele>
        <time>2019-08-03T10:08:26.000Z</time>
      </trkpt>
      <trkpt lat="44.07803" lon="6.9355">
        <ele>1768.1999511719</ele>
        <time>2019-08-03T10:08:30.000Z</time>
      </trkpt>
      <trkpt lat="44.07797" lon="6.93552">
        <ele>1768.8000488281</ele>
        <time>2019-08-03T10:08:34.000Z</time>
      </trkpt>
      <trkpt lat="44.0779" lon="6.93556">
        <ele>1769.4000244141</ele>
        <time>2019-08-03T10:08:39.000Z</time>
      </trkpt>
      <trkpt lat="44.07784" lon="6.93559">
        <ele>1770</ele>
        <time>2019-08-03T10:08:42.000Z</time>
      </trkpt>
      <trkpt lat="44.07777" lon="6.93562">
        <ele>1770.5999755859</ele>
        <time>2019-08-03T10:08:46.000Z</time>
      </trkpt>
      <trkpt lat="44.07774" lon="6.93565">
        <ele>1771</ele>
        <time>2019-08-03T10:08:48.000Z</time>
      </trkpt>
      <trkpt lat="44.07764" lon="6.93572">
        <ele>1771.1999511719</ele>
        <time>2019-08-03T10:08:53.000Z</time>
      </trkpt>
      <trkpt lat="44.07753" lon="6.93581">
        <ele>1772</ele>
        <time>2019-08-03T10:08:58.000Z</time>
      </trkpt>
      <trkpt lat="44.07747" lon="6.93587">
        <ele>1772.5999755859</ele>
        <time>2019-08-03T10:09:01.000Z</time>
      </trkpt>
      <trkpt lat="44.07743" lon="6.93591">
        <ele>1773</ele>
        <time>2019-08-03T10:09:03.000Z</time>
      </trkpt>
      <trkpt lat="44.07729" lon="6.93607">
        <ele>1773.8000488281</ele>
        <time>2019-08-03T10:09:10.000Z</time>
      </trkpt>
      <trkpt lat="44.07727" lon="6.93609">
        <ele>1774.1999511719</ele>
        <time>2019-08-03T10:09:11.000Z</time>
      </trkpt>
      <trkpt lat="44.07723" lon="6.93613">
        <ele>1774.4000244141</ele>
        <time>2019-08-03T10:09:13.000Z</time>
      </trkpt>
      <trkpt lat="44.07714" lon="6.9362">
        <ele>1775.1999511719</ele>
        <time>2019-08-03T10:09:17.000Z</time>
      </trkpt>
      <trkpt lat="44.07711" lon="6.93622">
        <ele>1775.4000244141</ele>
        <time>2019-08-03T10:09:18.000Z</time>
      </trkpt>
      <trkpt lat="44.077" lon="6.93628">
        <ele>1776.1999511719</ele>
        <time>2019-08-03T10:09:22.000Z</time>
      </trkpt>
      <trkpt lat="44.07688" lon="6.93634">
        <ele>1776.5999755859</ele>
        <time>2019-08-03T10:09:26.000Z</time>
      </trkpt>
      <trkpt lat="44.07676" lon="6.93638">
        <ele>1777.1999511719</ele>
        <time>2019-08-03T10:09:30.000Z</time>
      </trkpt>
      <trkpt lat="44.07668" lon="6.9364">
        <ele>1777.8000488281</ele>
        <time>2019-08-03T10:09:33.000Z</time>
      </trkpt>
      <trkpt lat="44.07656" lon="6.93643">
        <ele>1778.5999755859</ele>
        <time>2019-08-03T10:09:38.000Z</time>
      </trkpt>
      <trkpt lat="44.07654" lon="6.93643">
        <ele>1778.5999755859</ele>
        <time>2019-08-03T10:09:39.000Z</time>
      </trkpt>
      <trkpt lat="44.0763" lon="6.9365">
        <ele>1779</ele>
        <time>2019-08-03T10:09:47.000Z</time>
      </trkpt>
      <trkpt lat="44.07609" lon="6.93655">
        <ele>1779.1999511719</ele>
        <time>2019-08-03T10:09:53.000Z</time>
      </trkpt>
      <trkpt lat="44.07587" lon="6.93664">
        <ele>1779.4000244141</ele>
        <time>2019-08-03T10:09:59.000Z</time>
      </trkpt>
      <trkpt lat="44.07579" lon="6.93669">
        <ele>1779.5999755859</ele>
        <time>2019-08-03T10:10:01.000Z</time>
      </trkpt>
      <trkpt lat="44.07569" lon="6.93672">
        <ele>1779.5999755859</ele>
        <time>2019-08-03T10:10:03.000Z</time>
      </trkpt>
      <trkpt lat="44.07555" lon="6.93679">
        <ele>1779.4000244141</ele>
        <time>2019-08-03T10:10:06.000Z</time>
      </trkpt>
      <trkpt lat="44.07546" lon="6.93683">
        <ele>1779.1999511719</ele>
        <time>2019-08-03T10:10:08.000Z</time>
      </trkpt>
      <trkpt lat="44.07542" lon="6.93685">
        <ele>1779.1999511719</ele>
        <time>2019-08-03T10:10:09.000Z</time>
      </trkpt>
      <trkpt lat="44.07518" lon="6.93692">
        <ele>1779.8000488281</ele>
        <time>2019-08-03T10:10:15.000Z</time>
      </trkpt>
      <trkpt lat="44.07502" lon="6.93694">
        <ele>1780.5999755859</ele>
        <time>2019-08-03T10:10:19.000Z</time>
      </trkpt>
      <trkpt lat="44.07492" lon="6.93694">
        <ele>1781</ele>
        <time>2019-08-03T10:10:22.000Z</time>
      </trkpt>
      <trkpt lat="44.07468" lon="6.93693">
        <ele>1781.5999755859</ele>
        <time>2019-08-03T10:10:28.000Z</time>
      </trkpt>
      <trkpt lat="44.07457" lon="6.93693">
        <ele>1781.5999755859</ele>
        <time>2019-08-03T10:10:31.000Z</time>
      </trkpt>
      <trkpt lat="44.07445" lon="6.93691">
        <ele>1781.8000488281</ele>
        <time>2019-08-03T10:10:34.000Z</time>
      </trkpt>
      <trkpt lat="44.07432" lon="6.93689">
        <ele>1782.1999511719</ele>
        <time>2019-08-03T10:10:39.000Z</time>
      </trkpt>
      <trkpt lat="44.07428" lon="6.93688">
        <ele>1782.8000488281</ele>
        <time>2019-08-03T10:10:41.000Z</time>
      </trkpt>
      <trkpt lat="44.07418" lon="6.93686">
        <ele>1783.8000488281</ele>
        <time>2019-08-03T10:10:45.000Z</time>
      </trkpt>
      <trkpt lat="44.07415" lon="6.93685">
        <ele>1784.1999511719</ele>
        <time>2019-08-03T10:10:46.000Z</time>
      </trkpt>
      <trkpt lat="44.07407" lon="6.93683">
        <ele>1785.1999511719</ele>
        <time>2019-08-03T10:10:49.000Z</time>
      </trkpt>
      <trkpt lat="44.07399" lon="6.9368">
        <ele>1785.5999755859</ele>
        <time>2019-08-03T10:10:52.000Z</time>
      </trkpt>
      <trkpt lat="44.07388" lon="6.93678">
        <ele>1786.4000244141</ele>
        <time>2019-08-03T10:10:56.000Z</time>
      </trkpt>
      <trkpt lat="44.07386" lon="6.93677">
        <ele>1786.5999755859</ele>
        <time>2019-08-03T10:10:57.000Z</time>
      </trkpt>
      <trkpt lat="44.07375" lon="6.93673">
        <ele>1787.5999755859</ele>
        <time>2019-08-03T10:11:02.000Z</time>
      </trkpt>
      <trkpt lat="44.07369" lon="6.93671">
        <ele>1788.1999511719</ele>
        <time>2019-08-03T10:11:05.000Z</time>
      </trkpt>
      <trkpt lat="44.07367" lon="6.93669">
        <ele>1788.5999755859</ele>
        <time>2019-08-03T10:11:06.000Z</time>
      </trkpt>
      <trkpt lat="44.07366" lon="6.93669">
        <ele>1788.8000488281</ele>
        <time>2019-08-03T10:11:07.000Z</time>
      </trkpt>
      <trkpt lat="44.07364" lon="6.93667">
        <ele>1789</ele>
        <time>2019-08-03T10:11:08.000Z</time>
      </trkpt>
      <trkpt lat="44.07361" lon="6.93665">
        <ele>1789.5999755859</ele>
        <time>2019-08-03T10:11:10.000Z</time>
      </trkpt>
      <trkpt lat="44.07358" lon="6.93663">
        <ele>1789.8000488281</ele>
        <time>2019-08-03T10:11:12.000Z</time>
      </trkpt>
      <trkpt lat="44.07357" lon="6.93662">
        <ele>1790.1999511719</ele>
        <time>2019-08-03T10:11:13.000Z</time>
      </trkpt>
      <trkpt lat="44.07352" lon="6.93658">
        <ele>1791</ele>
        <time>2019-08-03T10:11:17.000Z</time>
      </trkpt>
      <trkpt lat="44.07348" lon="6.93656">
        <ele>1791.1999511719</ele>
        <time>2019-08-03T10:11:19.000Z</time>
      </trkpt>
      <trkpt lat="44.07343" lon="6.93652">
        <ele>1792.1999511719</ele>
        <time>2019-08-03T10:11:23.000Z</time>
      </trkpt>
      <trkpt lat="44.07339" lon="6.93649">
        <ele>1793.1999511719</ele>
        <time>2019-08-03T10:11:26.000Z</time>
      </trkpt>
      <trkpt lat="44.07338" lon="6.93648">
        <ele>1793.1999511719</ele>
        <time>2019-08-03T10:11:27.000Z</time>
      </trkpt>
      <trkpt lat="44.0733" lon="6.93641">
        <ele>1794</ele>
        <time>2019-08-03T10:11:33.000Z</time>
      </trkpt>
      <trkpt lat="44.07326" lon="6.93637">
        <ele>1794.1999511719</ele>
        <time>2019-08-03T10:11:36.000Z</time>
      </trkpt>
      <trkpt lat="44.07323" lon="6.93634">
        <ele>1794.5999755859</ele>
        <time>2019-08-03T10:11:38.000Z</time>
      </trkpt>
      <trkpt lat="44.07322" lon="6.93633">
        <ele>1795</ele>
        <time>2019-08-03T10:11:39.000Z</time>
      </trkpt>
      <trkpt lat="44.07319" lon="6.9363">
        <ele>1795.4000244141</ele>
        <time>2019-08-03T10:11:41.000Z</time>
      </trkpt>
      <trkpt lat="44.07317" lon="6.93629">
        <ele>1795.5999755859</ele>
        <time>2019-08-03T10:11:42.000Z</time>
      </trkpt>
      <trkpt lat="44.07315" lon="6.93626">
        <ele>1796</ele>
        <time>2019-08-03T10:11:44.000Z</time>
      </trkpt>
      <trkpt lat="44.0731" lon="6.9362">
        <ele>1796.4000244141</ele>
        <time>2019-08-03T10:11:48.000Z</time>
      </trkpt>
      <trkpt lat="44.07308" lon="6.93618">
        <ele>1796.8000488281</ele>
        <time>2019-08-03T10:11:50.000Z</time>
      </trkpt>
      <trkpt lat="44.07303" lon="6.93611">
        <ele>1797.5999755859</ele>
        <time>2019-08-03T10:11:54.000Z</time>
      </trkpt>
      <trkpt lat="44.07299" lon="6.93607">
        <ele>1798</ele>
        <time>2019-08-03T10:11:57.000Z</time>
      </trkpt>
      <trkpt lat="44.07296" lon="6.93604">
        <ele>1798.5999755859</ele>
        <time>2019-08-03T10:11:59.000Z</time>
      </trkpt>
      <trkpt lat="44.07291" lon="6.93598">
        <ele>1799.5999755859</ele>
        <time>2019-08-03T10:12:03.000Z</time>
      </trkpt>
      <trkpt lat="44.0729" lon="6.93596">
        <ele>1799.8000488281</ele>
        <time>2019-08-03T10:12:04.000Z</time>
      </trkpt>
      <trkpt lat="44.07284" lon="6.93588">
        <ele>1800.8000488281</ele>
        <time>2019-08-03T10:12:09.000Z</time>
      </trkpt>
      <trkpt lat="44.07282" lon="6.93585">
        <ele>1801.5999755859</ele>
        <time>2019-08-03T10:12:11.000Z</time>
      </trkpt>
      <trkpt lat="44.07279" lon="6.9358">
        <ele>1801.8000488281</ele>
        <time>2019-08-03T10:12:14.000Z</time>
      </trkpt>
      <trkpt lat="44.07274" lon="6.93571">
        <ele>1803</ele>
        <time>2019-08-03T10:12:19.000Z</time>
      </trkpt>
      <trkpt lat="44.07272" lon="6.93569">
        <ele>1803.1999511719</ele>
        <time>2019-08-03T10:12:20.000Z</time>
      </trkpt>
      <trkpt lat="44.07268" lon="6.9356">
        <ele>1804</ele>
        <time>2019-08-03T10:12:25.000Z</time>
      </trkpt>
      <trkpt lat="44.07264" lon="6.93551">
        <ele>1804.8000488281</ele>
        <time>2019-08-03T10:12:29.000Z</time>
      </trkpt>
      <trkpt lat="44.07262" lon="6.93546">
        <ele>1805</ele>
        <time>2019-08-03T10:12:31.000Z</time>
      </trkpt>
      <trkpt lat="44.07259" lon="6.93534">
        <ele>1806.1999511719</ele>
        <time>2019-08-03T10:12:36.000Z</time>
      </trkpt>
      <trkpt lat="44.07258" lon="6.93529">
        <ele>1806.4000244141</ele>
        <time>2019-08-03T10:12:38.000Z</time>
      </trkpt>
      <trkpt lat="44.07256" lon="6.93518">
        <ele>1807.1999511719</ele>
        <time>2019-08-03T10:12:42.000Z</time>
      </trkpt>
      <trkpt lat="44.07254" lon="6.93512">
        <ele>1807.8000488281</ele>
        <time>2019-08-03T10:12:45.000Z</time>
      </trkpt>
      <trkpt lat="44.07253" lon="6.93507">
        <ele>1808.1999511719</ele>
        <time>2019-08-03T10:12:47.000Z</time>
      </trkpt>
      <trkpt lat="44.07248" lon="6.93491">
        <ele>1809.1999511719</ele>
        <time>2019-08-03T10:12:53.000Z</time>
      </trkpt>
      <trkpt lat="44.07247" lon="6.93489">
        <ele>1809.4000244141</ele>
        <time>2019-08-03T10:12:54.000Z</time>
      </trkpt>
      <trkpt lat="44.07243" lon="6.9348">
        <ele>1810.4000244141</ele>
        <time>2019-08-03T10:12:58.000Z</time>
      </trkpt>
      <trkpt lat="44.07238" lon="6.93467">
        <ele>1811.4000244141</ele>
        <time>2019-08-03T10:13:04.000Z</time>
      </trkpt>
      <trkpt lat="44.0723" lon="6.93454">
        <ele>1812.5999755859</ele>
        <time>2019-08-03T10:13:11.000Z</time>
      </trkpt>
      <trkpt lat="44.07228" lon="6.9345">
        <ele>1812.8000488281</ele>
        <time>2019-08-03T10:13:13.000Z</time>
      </trkpt>
      <trkpt lat="44.07223" lon="6.93443">
        <ele>1813.5999755859</ele>
        <time>2019-08-03T10:13:17.000Z</time>
      </trkpt>
      <trkpt lat="44.07219" lon="6.93437">
        <ele>1814</ele>
        <time>2019-08-03T10:13:21.000Z</time>
      </trkpt>
      <trkpt lat="44.07215" lon="6.93431">
        <ele>1814.8000488281</ele>
        <time>2019-08-03T10:13:24.000Z</time>
      </trkpt>
      <trkpt lat="44.07211" lon="6.93425">
        <ele>1815.8000488281</ele>
        <time>2019-08-03T10:13:28.000Z</time>
      </trkpt>
      <trkpt lat="44.07211" lon="6.93423">
        <ele>1815.8000488281</ele>
        <time>2019-08-03T10:13:29.000Z</time>
      </trkpt>
      <trkpt lat="44.07204" lon="6.93413">
        <ele>1817.1999511719</ele>
        <time>2019-08-03T10:13:36.000Z</time>
      </trkpt>
      <trkpt lat="44.07199" lon="6.93406">
        <ele>1818.1999511719</ele>
        <time>2019-08-03T10:13:41.000Z</time>
      </trkpt>
      <trkpt lat="44.07197" lon="6.93404">
        <ele>1818.5999755859</ele>
        <time>2019-08-03T10:13:43.000Z</time>
      </trkpt>
      <trkpt lat="44.07193" lon="6.93397">
        <ele>1819.1999511719</ele>
        <time>2019-08-03T10:13:47.000Z</time>
      </trkpt>
      <trkpt lat="44.07189" lon="6.93391">
        <ele>1820.1999511719</ele>
        <time>2019-08-03T10:13:51.000Z</time>
      </trkpt>
      <trkpt lat="44.07188" lon="6.9339">
        <ele>1820.4000244141</ele>
        <time>2019-08-03T10:13:52.000Z</time>
      </trkpt>
      <trkpt lat="44.07181" lon="6.93379">
        <ele>1821.1999511719</ele>
        <time>2019-08-03T10:13:59.000Z</time>
      </trkpt>
      <trkpt lat="44.07178" lon="6.93374">
        <ele>1821.5999755859</ele>
        <time>2019-08-03T10:14:02.000Z</time>
      </trkpt>
      <trkpt lat="44.07172" lon="6.93364">
        <ele>1822.5999755859</ele>
        <time>2019-08-03T10:14:07.000Z</time>
      </trkpt>
      <trkpt lat="44.07159" lon="6.93343">
        <ele>1823.4000244141</ele>
        <time>2019-08-03T10:14:16.000Z</time>
      </trkpt>
      <trkpt lat="44.07154" lon="6.93336">
        <ele>1823.8000488281</ele>
        <time>2019-08-03T10:14:19.000Z</time>
      </trkpt>
      <trkpt lat="44.07143" lon="6.93325">
        <ele>1823.5999755859</ele>
        <time>2019-08-03T10:14:24.000Z</time>
      </trkpt>
      <trkpt lat="44.07128" lon="6.93318">
        <ele>1823.8000488281</ele>
        <time>2019-08-03T10:14:30.000Z</time>
      </trkpt>
      <trkpt lat="44.07113" lon="6.93321">
        <ele>1824.8000488281</ele>
        <time>2019-08-03T10:14:36.000Z</time>
      </trkpt>
      <trkpt lat="44.07107" lon="6.93324">
        <ele>1825</ele>
        <time>2019-08-03T10:14:39.000Z</time>
      </trkpt>
      <trkpt lat="44.07099" lon="6.93329">
        <ele>1825.8000488281</ele>
        <time>2019-08-03T10:14:43.000Z</time>
      </trkpt>
      <trkpt lat="44.07091" lon="6.93337">
        <ele>1826.1999511719</ele>
        <time>2019-08-03T10:14:47.000Z</time>
      </trkpt>
      <trkpt lat="44.07085" lon="6.93343">
        <ele>1826.8000488281</ele>
        <time>2019-08-03T10:14:51.000Z</time>
      </trkpt>
      <trkpt lat="44.07081" lon="6.93347">
        <ele>1827.5999755859</ele>
        <time>2019-08-03T10:14:54.000Z</time>
      </trkpt>
      <trkpt lat="44.0708" lon="6.93348">
        <ele>1828</ele>
        <time>2019-08-03T10:14:55.000Z</time>
      </trkpt>
      <trkpt lat="44.07075" lon="6.93354">
        <ele>1829</ele>
        <time>2019-08-03T10:14:59.000Z</time>
      </trkpt>
      <trkpt lat="44.0707" lon="6.93361">
        <ele>1829.5999755859</ele>
        <time>2019-08-03T10:15:04.000Z</time>
      </trkpt>
      <trkpt lat="44.07067" lon="6.93366">
        <ele>1830.1999511719</ele>
        <time>2019-08-03T10:15:07.000Z</time>
      </trkpt>
      <trkpt lat="44.07058" lon="6.93379">
        <ele>1831</ele>
        <time>2019-08-03T10:15:14.000Z</time>
      </trkpt>
      <trkpt lat="44.07057" lon="6.93381">
        <ele>1831.1999511719</ele>
        <time>2019-08-03T10:15:15.000Z</time>
      </trkpt>
      <trkpt lat="44.07051" lon="6.93388">
        <ele>1832.4000244141</ele>
        <time>2019-08-03T10:15:20.000Z</time>
      </trkpt>
      <trkpt lat="44.07047" lon="6.93393">
        <ele>1832.8000488281</ele>
        <time>2019-08-03T10:15:23.000Z</time>
      </trkpt>
      <trkpt lat="44.0704" lon="6.93405">
        <ele>1833.4000244141</ele>
        <time>2019-08-03T10:15:29.000Z</time>
      </trkpt>
      <trkpt lat="44.07036" lon="6.9341">
        <ele>1833.5999755859</ele>
        <time>2019-08-03T10:15:31.000Z</time>
      </trkpt>
      <trkpt lat="44.07031" lon="6.93417">
        <ele>1834.4000244141</ele>
        <time>2019-08-03T10:15:35.000Z</time>
      </trkpt>
      <trkpt lat="44.07027" lon="6.93423">
        <ele>1835.1999511719</ele>
        <time>2019-08-03T10:15:38.000Z</time>
      </trkpt>
      <trkpt lat="44.07021" lon="6.9343">
        <ele>1835.5999755859</ele>
        <time>2019-08-03T10:15:42.000Z</time>
      </trkpt>
      <trkpt lat="44.07013" lon="6.9344">
        <ele>1836.1999511719</ele>
        <time>2019-08-03T10:15:48.000Z</time>
      </trkpt>
      <trkpt lat="44.07011" lon="6.93444">
        <ele>1836.5999755859</ele>
        <time>2019-08-03T10:15:50.000Z</time>
      </trkpt>
      <trkpt lat="44.07002" lon="6.93457">
        <ele>1837.5999755859</ele>
        <time>2019-08-03T10:15:57.000Z</time>
      </trkpt>
      <trkpt lat="44.07001" lon="6.93458">
        <ele>1837.8000488281</ele>
        <time>2019-08-03T10:15:58.000Z</time>
      </trkpt>
      <trkpt lat="44.06987" lon="6.93473">
        <ele>1838.5999755859</ele>
        <time>2019-08-03T10:16:05.000Z</time>
      </trkpt>
      <trkpt lat="44.06985" lon="6.93475">
        <ele>1838.5999755859</ele>
        <time>2019-08-03T10:16:06.000Z</time>
      </trkpt>
      <trkpt lat="44.06967" lon="6.93485">
        <ele>1839</ele>
        <time>2019-08-03T10:16:13.000Z</time>
      </trkpt>
      <trkpt lat="44.06948" lon="6.9349">
        <ele>1839.5999755859</ele>
        <time>2019-08-03T10:16:21.000Z</time>
      </trkpt>
      <trkpt lat="44.06942" lon="6.93491">
        <ele>1839.8000488281</ele>
        <time>2019-08-03T10:16:23.000Z</time>
      </trkpt>
      <trkpt lat="44.06925" lon="6.93493">
        <ele>1840.1999511719</ele>
        <time>2019-08-03T10:16:29.000Z</time>
      </trkpt>
      <trkpt lat="44.06896" lon="6.93488">
        <ele>1840.4000244141</ele>
        <time>2019-08-03T10:16:37.000Z</time>
      </trkpt>
      <trkpt lat="44.06863" lon="6.93477">
        <ele>1839.5999755859</ele>
        <time>2019-08-03T10:16:44.000Z</time>
      </trkpt>
      <trkpt lat="44.06831" lon="6.93467">
        <ele>1838.8000488281</ele>
        <time>2019-08-03T10:16:50.000Z</time>
      </trkpt>
      <trkpt lat="44.0682" lon="6.93463">
        <ele>1838.5999755859</ele>
        <time>2019-08-03T10:16:52.000Z</time>
      </trkpt>
      <trkpt lat="44.06787" lon="6.93443">
        <ele>1837.8000488281</ele>
        <time>2019-08-03T10:16:58.000Z</time>
      </trkpt>
      <trkpt lat="44.06763" lon="6.93426">
        <ele>1839.5999755859</ele>
        <time>2019-08-03T10:17:04.000Z</time>
      </trkpt>
      <trkpt lat="44.06759" lon="6.93423">
        <ele>1840.1999511719</ele>
        <time>2019-08-03T10:17:05.000Z</time>
      </trkpt>
      <trkpt lat="44.06737" lon="6.93396">
        <ele>1840.8000488281</ele>
        <time>2019-08-03T10:17:11.000Z</time>
      </trkpt>
      <trkpt lat="44.06707" lon="6.93353">
        <ele>1839.5999755859</ele>
        <time>2019-08-03T10:17:19.000Z</time>
      </trkpt>
      <trkpt lat="44.06702" lon="6.93348">
        <ele>1839.4000244141</ele>
        <time>2019-08-03T10:17:20.000Z</time>
      </trkpt>
      <trkpt lat="44.06698" lon="6.93344">
        <ele>1839.1999511719</ele>
        <time>2019-08-03T10:17:21.000Z</time>
      </trkpt>
      <trkpt lat="44.06686" lon="6.9333">
        <ele>1838.8000488281</ele>
        <time>2019-08-03T10:17:24.000Z</time>
      </trkpt>
      <trkpt lat="44.06662" lon="6.93309">
        <ele>1838.8000488281</ele>
        <time>2019-08-03T10:17:30.000Z</time>
      </trkpt>
      <trkpt lat="44.06638" lon="6.93291">
        <ele>1840.5999755859</ele>
        <time>2019-08-03T10:17:36.000Z</time>
      </trkpt>
      <trkpt lat="44.06635" lon="6.93289">
        <ele>1840.8000488281</ele>
        <time>2019-08-03T10:17:37.000Z</time>
      </trkpt>
      <trkpt lat="44.06626" lon="6.93283">
        <ele>1841.5999755859</ele>
        <time>2019-08-03T10:17:40.000Z</time>
      </trkpt>
      <trkpt lat="44.06618" lon="6.93276">
        <ele>1842.1999511719</ele>
        <time>2019-08-03T10:17:43.000Z</time>
      </trkpt>
      <trkpt lat="44.06614" lon="6.9327">
        <ele>1842.8000488281</ele>
        <time>2019-08-03T10:17:45.000Z</time>
      </trkpt>
      <trkpt lat="44.06607" lon="6.93256">
        <ele>1843.5999755859</ele>
        <time>2019-08-03T10:17:49.000Z</time>
      </trkpt>
      <trkpt lat="44.06605" lon="6.93249">
        <ele>1844</ele>
        <time>2019-08-03T10:17:51.000Z</time>
      </trkpt>
      <trkpt lat="44.066" lon="6.93232">
        <ele>1844.8000488281</ele>
        <time>2019-08-03T10:17:56.000Z</time>
      </trkpt>
      <trkpt lat="44.06598" lon="6.93226">
        <ele>1845.1999511719</ele>
        <time>2019-08-03T10:17:58.000Z</time>
      </trkpt>
      <trkpt lat="44.06595" lon="6.93218">
        <ele>1846.1999511719</ele>
        <time>2019-08-03T10:18:01.000Z</time>
      </trkpt>
      <trkpt lat="44.06592" lon="6.93211">
        <ele>1847</ele>
        <time>2019-08-03T10:18:04.000Z</time>
      </trkpt>
      <trkpt lat="44.0659" lon="6.93207">
        <ele>1847.4000244141</ele>
        <time>2019-08-03T10:18:06.000Z</time>
      </trkpt>
      <trkpt lat="44.06585" lon="6.93198">
        <ele>1847.5999755859</ele>
        <time>2019-08-03T10:18:10.000Z</time>
      </trkpt>
      <trkpt lat="44.06578" lon="6.93188">
        <ele>1848.4000244141</ele>
        <time>2019-08-03T10:18:15.000Z</time>
      </trkpt>
      <trkpt lat="44.06575" lon="6.93186">
        <ele>1848.8000488281</ele>
        <time>2019-08-03T10:18:17.000Z</time>
      </trkpt>
      <trkpt lat="44.06568" lon="6.9318">
        <ele>1849.5999755859</ele>
        <time>2019-08-03T10:18:21.000Z</time>
      </trkpt>
      <trkpt lat="44.06561" lon="6.93173">
        <ele>1849.8000488281</ele>
        <time>2019-08-03T10:18:25.000Z</time>
      </trkpt>
      <trkpt lat="44.06554" lon="6.93165">
        <ele>1850.5999755859</ele>
        <time>2019-08-03T10:18:30.000Z</time>
      </trkpt>
      <trkpt lat="44.06549" lon="6.93158">
        <ele>1851.4000244141</ele>
        <time>2019-08-03T10:18:34.000Z</time>
      </trkpt>
      <trkpt lat="44.06548" lon="6.93154">
        <ele>1851.5999755859</ele>
        <time>2019-08-03T10:18:36.000Z</time>
      </trkpt>
      <trkpt lat="44.06545" lon="6.93148">
        <ele>1851.5999755859</ele>
        <time>2019-08-03T10:18:39.000Z</time>
      </trkpt>
      <trkpt lat="44.06543" lon="6.93135">
        <ele>1852.5999755859</ele>
        <time>2019-08-03T10:18:45.000Z</time>
      </trkpt>
      <trkpt lat="44.06544" lon="6.93127">
        <ele>1853.1999511719</ele>
        <time>2019-08-03T10:18:49.000Z</time>
      </trkpt>
      <trkpt lat="44.06544" lon="6.93123">
        <ele>1853.4000244141</ele>
        <time>2019-08-03T10:18:51.000Z</time>
      </trkpt>
      <trkpt lat="44.06544" lon="6.93112">
        <ele>1853.4000244141</ele>
        <time>2019-08-03T10:18:56.000Z</time>
      </trkpt>
      <trkpt lat="44.06544" lon="6.93109">
        <ele>1853.5999755859</ele>
        <time>2019-08-03T10:18:59.000Z</time>
      </trkpt>
      <trkpt lat="44.06544" lon="6.93108">
        <ele>1853.8000488281</ele>
        <time>2019-08-03T10:19:01.000Z</time>
      </trkpt>
      <trkpt lat="44.06543" lon="6.93105">
        <ele>1854</ele>
        <time>2019-08-03T10:19:06.000Z</time>
      </trkpt>
      <trkpt lat="44.06544" lon="6.93104">
        <ele>1854</ele>
        <time>2019-08-03T10:19:07.000Z</time>
      </trkpt>
      <trkpt lat="44.06543" lon="6.93097">
        <ele>1854.8000488281</ele>
        <time>2019-08-03T10:19:14.000Z</time>
      </trkpt>
      <trkpt lat="44.06539" lon="6.93098">
        <ele>1855.1999511719</ele>
        <time>2019-08-03T10:19:20.000Z</time>
      </trkpt>
      <trkpt lat="44.06538" lon="6.93099">
        <ele>1856</ele>
        <time>2019-08-03T10:19:23.000Z</time>
      </trkpt>
      <trkpt lat="44.06534" lon="6.93106">
        <ele>1856.5999755859</ele>
        <time>2019-08-03T10:19:31.000Z</time>
      </trkpt>
      <trkpt lat="44.06532" lon="6.93107">
        <ele>1857</ele>
        <time>2019-08-03T10:19:35.000Z</time>
      </trkpt>
      <trkpt lat="44.06532" lon="6.93107">
        <ele>1857</ele>
        <time>2019-08-03T10:19:37.000Z</time>
      </trkpt>
      <trkpt lat="44.0653" lon="6.93109">
        <ele>1856.8000488281</ele>
        <time>2019-08-03T10:19:41.000Z</time>
      </trkpt>
      <trkpt lat="44.06528" lon="6.93109">
        <ele>1856.8000488281</ele>
        <time>2019-08-03T10:19:46.000Z</time>
      </trkpt>
      <trkpt lat="44.06527" lon="6.93105">
        <ele>1857.5999755859</ele>
        <time>2019-08-03T10:19:52.000Z</time>
      </trkpt>
      <trkpt lat="44.06526" lon="6.93105">
        <ele>1858</ele>
        <time>2019-08-03T10:19:55.000Z</time>
      </trkpt>
      <trkpt lat="44.06525" lon="6.93105">
        <ele>1858.4000244141</ele>
        <time>2019-08-03T10:19:56.000Z</time>
      </trkpt>
      <trkpt lat="44.06525" lon="6.93104">
        <ele>1858.5999755859</ele>
        <time>2019-08-03T10:19:58.000Z</time>
      </trkpt>
      <trkpt lat="44.06524" lon="6.93103">
        <ele>1859</ele>
        <time>2019-08-03T10:20:05.000Z</time>
      </trkpt>
      <trkpt lat="44.06524" lon="6.93102">
        <ele>1859.1999511719</ele>
        <time>2019-08-03T10:20:11.000Z</time>
      </trkpt>
      <trkpt lat="44.06524" lon="6.93102">
        <ele>1859.1999511719</ele>
        <time>2019-08-03T10:20:12.000Z</time>
      </trkpt>
      <trkpt lat="44.06524" lon="6.931">
        <ele>1859</ele>
        <time>2019-08-03T10:20:19.000Z</time>
      </trkpt>
      <trkpt lat="44.06524" lon="6.93101">
        <ele>1859</ele>
        <time>2019-08-03T10:20:28.000Z</time>
      </trkpt>
      <trkpt lat="44.06524" lon="6.931">
        <ele>1859.4000244141</ele>
        <time>2019-08-03T10:20:34.000Z</time>
      </trkpt>
      <trkpt lat="44.06523" lon="6.93098">
        <ele>1859.5999755859</ele>
        <time>2019-08-03T10:20:41.000Z</time>
      </trkpt>
      <trkpt lat="44.06524" lon="6.931">
        <ele>1859</ele>
        <time>2019-08-03T10:20:45.000Z</time>
      </trkpt>
      <trkpt lat="44.06525" lon="6.93101">
        <ele>1858.8000488281</ele>
        <time>2019-08-03T10:20:46.000Z</time>
      </trkpt>
      <trkpt lat="44.06525" lon="6.93102">
        <ele>1859</ele>
        <time>2019-08-03T10:20:51.000Z</time>
      </trkpt>
      <trkpt lat="44.06524" lon="6.93102">
        <ele>1859.4000244141</ele>
        <time>2019-08-03T10:20:58.000Z</time>
      </trkpt>
      <trkpt lat="44.06524" lon="6.93101">
        <ele>1859</ele>
        <time>2019-08-03T10:21:04.000Z</time>
      </trkpt>
      <trkpt lat="44.06523" lon="6.93102">
        <ele>1859.1999511719</ele>
        <time>2019-08-03T10:21:10.000Z</time>
      </trkpt>
      <trkpt lat="44.06523" lon="6.93101">
        <ele>1859</ele>
        <time>2019-08-03T10:21:16.000Z</time>
      </trkpt>
      <trkpt lat="44.06522" lon="6.931">
        <ele>1859</ele>
        <time>2019-08-03T10:21:22.000Z</time>
      </trkpt>
      <trkpt lat="44.06522" lon="6.93101">
        <ele>1859</ele>
        <time>2019-08-03T10:21:34.000Z</time>
      </trkpt>
      <trkpt lat="44.06522" lon="6.93101">
        <ele>1859.4000244141</ele>
        <time>2019-08-03T10:21:42.000Z</time>
      </trkpt>
      <trkpt lat="44.06522" lon="6.93101">
        <ele>1859.1999511719</ele>
        <time>2019-08-03T10:21:51.000Z</time>
      </trkpt>
      <trkpt lat="44.06522" lon="6.931">
        <ele>1859</ele>
        <time>2019-08-03T10:22:02.000Z</time>
      </trkpt>
      <trkpt lat="44.06522" lon="6.931">
        <ele>1859.4000244141</ele>
        <time>2019-08-03T10:22:10.000Z</time>
      </trkpt>
      <trkpt lat="44.06522" lon="6.931">
        <ele>1859</ele>
        <time>2019-08-03T10:22:20.000Z</time>
      </trkpt>
      <trkpt lat="44.06522" lon="6.931">
        <ele>1859.4000244141</ele>
        <time>2019-08-03T10:22:28.000Z</time>
      </trkpt>
      <trkpt lat="44.06523" lon="6.931">
        <ele>1859</ele>
        <time>2019-08-03T10:22:54.000Z</time>
      </trkpt>
      <trkpt lat="44.06523" lon="6.93101">
        <ele>1858.8000488281</ele>
        <time>2019-08-03T10:23:10.000Z</time>
      </trkpt>
      <trkpt lat="44.06523" lon="6.93101">
        <ele>1858.5999755859</ele>
        <time>2019-08-03T10:23:28.000Z</time>
      </trkpt>
      <trkpt lat="44.06523" lon="6.931">
        <ele>1858.5999755859</ele>
        <time>2019-08-03T10:23:52.000Z</time>
      </trkpt>
      <trkpt lat="44.06523" lon="6.931">
        <ele>1858.4000244141</ele>
        <time>2019-08-03T10:24:23.000Z</time>
      </trkpt>
      <trkpt lat="44.06523" lon="6.93099">
        <ele>1858.4000244141</ele>
        <time>2019-08-03T10:24:43.000Z</time>
      </trkpt>
      <trkpt lat="44.06523" lon="6.93099">
        <ele>1858.4000244141</ele>
        <time>2019-08-03T10:24:54.000Z</time>
      </trkpt>
      <trkpt lat="44.06522" lon="6.93099">
        <ele>1858.4000244141</ele>
        <time>2019-08-03T10:25:02.000Z</time>
      </trkpt>
      <trkpt lat="44.06522" lon="6.93099">
        <ele>1858.1999511719</ele>
        <time>2019-08-03T10:25:09.000Z</time>
      </trkpt>
      <trkpt lat="44.06523" lon="6.93099">
        <ele>1858.1999511719</ele>
        <time>2019-08-03T10:25:24.000Z</time>
      </trkpt>
      <trkpt lat="44.06523" lon="6.93099">
        <ele>1858.1999511719</ele>
        <time>2019-08-03T10:25:46.000Z</time>
      </trkpt>
      <trkpt lat="44.06523" lon="6.931">
        <ele>1858.1999511719</ele>
        <time>2019-08-03T10:26:10.000Z</time>
      </trkpt>
      <trkpt lat="44.06523" lon="6.931">
        <ele>1858.1999511719</ele>
        <time>2019-08-03T10:26:17.000Z</time>
      </trkpt>
      <trkpt lat="44.06523" lon="6.931">
        <ele>1858.1999511719</ele>
        <time>2019-08-03T10:26:40.000Z</time>
      </trkpt>
      <trkpt lat="44.06523" lon="6.93101">
        <ele>1858.1999511719</ele>
        <time>2019-08-03T10:27:07.000Z</time>
      </trkpt>
      <trkpt lat="44.06523" lon="6.93101">
        <ele>1858.1999511719</ele>
        <time>2019-08-03T10:27:20.000Z</time>
      </trkpt>
      <trkpt lat="44.06523" lon="6.93101">
        <ele>1858.1999511719</ele>
        <time>2019-08-03T10:27:43.000Z</time>
      </trkpt>
      <trkpt lat="44.06523" lon="6.93101">
        <ele>1858.4000244141</ele>
        <time>2019-08-03T10:28:10.000Z</time>
      </trkpt>
      <trkpt lat="44.06523" lon="6.93101">
        <ele>1858.8000488281</ele>
        <time>2019-08-03T10:28:33.000Z</time>
      </trkpt>
      <trkpt lat="44.06523" lon="6.93101">
        <ele>1858.5999755859</ele>
        <time>2019-08-03T10:28:46.000Z</time>
      </trkpt>
      <trkpt lat="44.06523" lon="6.93101">
        <ele>1858.5999755859</ele>
        <time>2019-08-03T10:28:58.000Z</time>
      </trkpt>
      <trkpt lat="44.06523" lon="6.93101">
        <ele>1858.4000244141</ele>
        <time>2019-08-03T10:29:14.000Z</time>
      </trkpt>
      <trkpt lat="44.06523" lon="6.93101">
        <ele>1858.4000244141</ele>
        <time>2019-08-03T10:29:27.000Z</time>
      </trkpt>
      <trkpt lat="44.06524" lon="6.93101">
        <ele>1858.4000244141</ele>
        <time>2019-08-03T10:29:43.000Z</time>
      </trkpt>
      <trkpt lat="44.06524" lon="6.93101">
        <ele>1858.5999755859</ele>
        <time>2019-08-03T10:30:02.000Z</time>
      </trkpt>
      <trkpt lat="44.06523" lon="6.93101">
        <ele>1859</ele>
        <time>2019-08-03T10:30:19.000Z</time>
      </trkpt>
      <trkpt lat="44.06523" lon="6.93101">
        <ele>1858.5999755859</ele>
        <time>2019-08-03T10:30:34.000Z</time>
      </trkpt>
      <trkpt lat="44.06523" lon="6.931">
        <ele>1859</ele>
        <time>2019-08-03T10:30:39.000Z</time>
      </trkpt>
      <trkpt lat="44.06523" lon="6.931">
        <ele>1858.8000488281</ele>
        <time>2019-08-03T10:30:50.000Z</time>
      </trkpt>
      <trkpt lat="44.06523" lon="6.931">
        <ele>1858.8000488281</ele>
        <time>2019-08-03T10:31:03.000Z</time>
      </trkpt>
      <trkpt lat="44.06524" lon="6.931">
        <ele>1859.1999511719</ele>
        <time>2019-08-03T10:31:06.000Z</time>
      </trkpt>
      <trkpt lat="44.06524" lon="6.93101">
        <ele>1858.8000488281</ele>
        <time>2019-08-03T10:31:18.000Z</time>
      </trkpt>
      <trkpt lat="44.06524" lon="6.931">
        <ele>1858.5999755859</ele>
        <time>2019-08-03T10:31:30.000Z</time>
      </trkpt>
      <trkpt lat="44.06524" lon="6.931">
        <ele>1858.8000488281</ele>
        <time>2019-08-03T10:31:41.000Z</time>
      </trkpt>
      <trkpt lat="44.06524" lon="6.931">
        <ele>1858.8000488281</ele>
        <time>2019-08-03T10:31:55.000Z</time>
      </trkpt>
      <trkpt lat="44.06524" lon="6.93101">
        <ele>1859</ele>
        <time>2019-08-03T10:32:10.000Z</time>
      </trkpt>
      <trkpt lat="44.06523" lon="6.93101">
        <ele>1859.1999511719</ele>
        <time>2019-08-03T10:32:25.000Z</time>
      </trkpt>
      <trkpt lat="44.06523" lon="6.93101">
        <ele>1859.1999511719</ele>
        <time>2019-08-03T10:32:46.000Z</time>
      </trkpt>
      <trkpt lat="44.06523" lon="6.93101">
        <ele>1859.1999511719</ele>
        <time>2019-08-03T10:32:56.000Z</time>
      </trkpt>
      <trkpt lat="44.06523" lon="6.93101">
        <ele>1859.1999511719</ele>
        <time>2019-08-03T10:33:16.000Z</time>
      </trkpt>
      <trkpt lat="44.06523" lon="6.93101">
        <ele>1859.4000244141</ele>
        <time>2019-08-03T10:33:28.000Z</time>
      </trkpt>
      <trkpt lat="44.06523" lon="6.93101">
        <ele>1859.4000244141</ele>
        <time>2019-08-03T10:33:45.000Z</time>
      </trkpt>
      <trkpt lat="44.06523" lon="6.93102">
        <ele>1859.4000244141</ele>
        <time>2019-08-03T10:34:15.000Z</time>
      </trkpt>
      <trkpt lat="44.06523" lon="6.93102">
        <ele>1859.4000244141</ele>
        <time>2019-08-03T10:34:36.000Z</time>
      </trkpt>
      <trkpt lat="44.06523" lon="6.93101">
        <ele>1859.5999755859</ele>
        <time>2019-08-03T10:35:00.000Z</time>
      </trkpt>
      <trkpt lat="44.06524" lon="6.93102">
        <ele>1859.5999755859</ele>
        <time>2019-08-03T10:35:23.000Z</time>
      </trkpt>
      <trkpt lat="44.06524" lon="6.93101">
        <ele>1859.8000488281</ele>
        <time>2019-08-03T10:35:42.000Z</time>
      </trkpt>
      <trkpt lat="44.06524" lon="6.93101">
        <ele>1859.8000488281</ele>
        <time>2019-08-03T10:35:52.000Z</time>
      </trkpt>
      <trkpt lat="44.06524" lon="6.93101">
        <ele>1859.4000244141</ele>
        <time>2019-08-03T10:36:08.000Z</time>
      </trkpt>
      <trkpt lat="44.06524" lon="6.93101">
        <ele>1860</ele>
        <time>2019-08-03T10:36:14.000Z</time>
      </trkpt>
      <trkpt lat="44.06524" lon="6.93101">
        <ele>1859.8000488281</ele>
        <time>2019-08-03T10:36:22.000Z</time>
      </trkpt>
      <trkpt lat="44.06524" lon="6.93101">
        <ele>1859.8000488281</ele>
        <time>2019-08-03T10:36:33.000Z</time>
      </trkpt>
      <trkpt lat="44.06524" lon="6.93101">
        <ele>1859.8000488281</ele>
        <time>2019-08-03T10:36:48.000Z</time>
      </trkpt>
      <trkpt lat="44.06524" lon="6.93102">
        <ele>1859.4000244141</ele>
        <time>2019-08-03T10:37:01.000Z</time>
      </trkpt>
      <trkpt lat="44.06525" lon="6.93103">
        <ele>1860.1999511719</ele>
        <time>2019-08-03T10:37:10.000Z</time>
      </trkpt>
      <trkpt lat="44.06526" lon="6.93104">
        <ele>1860.5999755859</ele>
        <time>2019-08-03T10:37:16.000Z</time>
      </trkpt>
      <trkpt lat="44.06526" lon="6.93105">
        <ele>1860.4000244141</ele>
        <time>2019-08-03T10:37:24.000Z</time>
      </trkpt>
      <trkpt lat="44.06526" lon="6.93105">
        <ele>1860.1999511719</ele>
        <time>2019-08-03T10:37:31.000Z</time>
      </trkpt>
      <trkpt lat="44.06526" lon="6.93104">
        <ele>1860</ele>
        <time>2019-08-03T10:37:41.000Z</time>
      </trkpt>
      <trkpt lat="44.06525" lon="6.93103">
        <ele>1860</ele>
        <time>2019-08-03T10:37:54.000Z</time>
      </trkpt>
      <trkpt lat="44.06525" lon="6.93102">
        <ele>1859.5999755859</ele>
        <time>2019-08-03T10:38:05.000Z</time>
      </trkpt>
      <trkpt lat="44.06526" lon="6.93102">
        <ele>1860.1999511719</ele>
        <time>2019-08-03T10:38:19.000Z</time>
      </trkpt>
      <trkpt lat="44.06526" lon="6.93101">
        <ele>1859.5999755859</ele>
        <time>2019-08-03T10:38:38.000Z</time>
      </trkpt>
      <trkpt lat="44.06526" lon="6.93102">
        <ele>1859.1999511719</ele>
        <time>2019-08-03T10:38:43.000Z</time>
      </trkpt>
      <trkpt lat="44.06526" lon="6.93102">
        <ele>1859.4000244141</ele>
        <time>2019-08-03T10:38:54.000Z</time>
      </trkpt>
      <trkpt lat="44.06527" lon="6.93103">
        <ele>1858.5999755859</ele>
        <time>2019-08-03T10:39:04.000Z</time>
      </trkpt>
      <trkpt lat="44.06527" lon="6.93102">
        <ele>1859.5999755859</ele>
        <time>2019-08-03T10:39:14.000Z</time>
      </trkpt>
      <trkpt lat="44.06527" lon="6.93102">
        <ele>1860.1999511719</ele>
        <time>2019-08-03T10:39:28.000Z</time>
      </trkpt>
      <trkpt lat="44.06527" lon="6.93101">
        <ele>1859.8000488281</ele>
        <time>2019-08-03T10:39:36.000Z</time>
      </trkpt>
      <trkpt lat="44.06527" lon="6.93101">
        <ele>1860.1999511719</ele>
        <time>2019-08-03T10:39:40.000Z</time>
      </trkpt>
      <trkpt lat="44.06527" lon="6.93101">
        <ele>1860</ele>
        <time>2019-08-03T10:39:42.000Z</time>
      </trkpt>
      <trkpt lat="44.06526" lon="6.931">
        <ele>1859.5999755859</ele>
        <time>2019-08-03T10:39:53.000Z</time>
      </trkpt>
      <trkpt lat="44.06525" lon="6.93099">
        <ele>1859.8000488281</ele>
        <time>2019-08-03T10:40:27.000Z</time>
      </trkpt>
      <trkpt lat="44.06525" lon="6.93099">
        <ele>1859.8000488281</ele>
        <time>2019-08-03T10:40:54.000Z</time>
      </trkpt>
      <trkpt lat="44.06524" lon="6.931">
        <ele>1859.5999755859</ele>
        <time>2019-08-03T10:41:20.000Z</time>
      </trkpt>
      <trkpt lat="44.06523" lon="6.931">
        <ele>1859.5999755859</ele>
        <time>2019-08-03T10:41:45.000Z</time>
      </trkpt>
      <trkpt lat="44.06523" lon="6.93099">
        <ele>1860</ele>
        <time>2019-08-03T10:42:11.000Z</time>
      </trkpt>
      <trkpt lat="44.06523" lon="6.93099">
        <ele>1860</ele>
        <time>2019-08-03T10:42:41.000Z</time>
      </trkpt>
      <trkpt lat="44.06522" lon="6.93099">
        <ele>1860</ele>
        <time>2019-08-03T10:43:19.000Z</time>
      </trkpt>
      <trkpt lat="44.06522" lon="6.931">
        <ele>1860.1999511719</ele>
        <time>2019-08-03T10:44:02.000Z</time>
      </trkpt>
      <trkpt lat="44.06522" lon="6.931">
        <ele>1860</ele>
        <time>2019-08-03T10:44:36.000Z</time>
      </trkpt>
      <trkpt lat="44.06522" lon="6.931">
        <ele>1860.1999511719</ele>
        <time>2019-08-03T10:45:10.000Z</time>
      </trkpt>
      <trkpt lat="44.06522" lon="6.931">
        <ele>1860</ele>
        <time>2019-08-03T10:45:40.000Z</time>
      </trkpt>
      <trkpt lat="44.06521" lon="6.931">
        <ele>1860.4000244141</ele>
        <time>2019-08-03T10:46:12.000Z</time>
      </trkpt>
      <trkpt lat="44.06521" lon="6.93101">
        <ele>1860.4000244141</ele>
        <time>2019-08-03T10:46:46.000Z</time>
      </trkpt>
      <trkpt lat="44.06521" lon="6.93101">
        <ele>1860.4000244141</ele>
        <time>2019-08-03T10:47:23.000Z</time>
      </trkpt>
      <trkpt lat="44.06521" lon="6.93101">
        <ele>1860.4000244141</ele>
        <time>2019-08-03T10:47:59.000Z</time>
      </trkpt>
      <trkpt lat="44.06521" lon="6.931">
        <ele>1860.4000244141</ele>
        <time>2019-08-03T10:48:36.000Z</time>
      </trkpt>
      <trkpt lat="44.06521" lon="6.931">
        <ele>1860.4000244141</ele>
        <time>2019-08-03T10:49:03.000Z</time>
      </trkpt>
      <trkpt lat="44.06521" lon="6.93101">
        <ele>1860.5999755859</ele>
        <time>2019-08-03T10:49:15.000Z</time>
      </trkpt>
      <trkpt lat="44.06521" lon="6.93101">
        <ele>1861</ele>
        <time>2019-08-03T10:49:26.000Z</time>
      </trkpt>
      <trkpt lat="44.06521" lon="6.93103">
        <ele>1860.4000244141</ele>
        <time>2019-08-03T10:49:31.000Z</time>
      </trkpt>
      <trkpt lat="44.06522" lon="6.93103">
        <ele>1861</ele>
        <time>2019-08-03T10:49:38.000Z</time>
      </trkpt>
      <trkpt lat="44.06521" lon="6.93102">
        <ele>1861</ele>
        <time>2019-08-03T10:49:50.000Z</time>
      </trkpt>
      <trkpt lat="44.06521" lon="6.93102">
        <ele>1860.4000244141</ele>
        <time>2019-08-03T10:49:59.000Z</time>
      </trkpt>
      <trkpt lat="44.06521" lon="6.93102">
        <ele>1861.1999511719</ele>
        <time>2019-08-03T10:50:18.000Z</time>
      </trkpt>
      <trkpt lat="44.06521" lon="6.93102">
        <ele>1861.1999511719</ele>
        <time>2019-08-03T10:50:31.000Z</time>
      </trkpt>
      <trkpt lat="44.06521" lon="6.93102">
        <ele>1861.1999511719</ele>
        <time>2019-08-03T10:50:36.000Z</time>
      </trkpt>
      <trkpt lat="44.06521" lon="6.93101">
        <ele>1861.1999511719</ele>
        <time>2019-08-03T10:50:58.000Z</time>
      </trkpt>
      <trkpt lat="44.06521" lon="6.93101">
        <ele>1861</ele>
        <time>2019-08-03T10:51:19.000Z</time>
      </trkpt>
      <trkpt lat="44.0652" lon="6.931">
        <ele>1861</ele>
        <time>2019-08-03T10:51:32.000Z</time>
      </trkpt>
      <trkpt lat="44.0652" lon="6.931">
        <ele>1861.4000244141</ele>
        <time>2019-08-03T10:51:53.000Z</time>
      </trkpt>
      <trkpt lat="44.0652" lon="6.931">
        <ele>1861.4000244141</ele>
        <time>2019-08-03T10:52:08.000Z</time>
      </trkpt>
      <trkpt lat="44.0652" lon="6.93101">
        <ele>1861.1999511719</ele>
        <time>2019-08-03T10:52:17.000Z</time>
      </trkpt>
      <trkpt lat="44.0652" lon="6.93101">
        <ele>1860.8000488281</ele>
        <time>2019-08-03T10:52:26.000Z</time>
      </trkpt>
      <trkpt lat="44.0652" lon="6.93102">
        <ele>1861.4000244141</ele>
        <time>2019-08-03T10:52:42.000Z</time>
      </trkpt>
      <trkpt lat="44.0652" lon="6.931">
        <ele>1861.1999511719</ele>
        <time>2019-08-03T10:53:10.000Z</time>
      </trkpt>
      <trkpt lat="44.0652" lon="6.931">
        <ele>1861.4000244141</ele>
        <time>2019-08-03T10:53:30.000Z</time>
      </trkpt>
      <trkpt lat="44.0652" lon="6.931">
        <ele>1861.4000244141</ele>
        <time>2019-08-03T10:53:57.000Z</time>
      </trkpt>
      <trkpt lat="44.0652" lon="6.931">
        <ele>1860.4000244141</ele>
        <time>2019-08-03T10:54:07.000Z</time>
      </trkpt>
      <trkpt lat="44.0652" lon="6.931">
        <ele>1861</ele>
        <time>2019-08-03T10:54:14.000Z</time>
      </trkpt>
      <trkpt lat="44.0652" lon="6.93101">
        <ele>1860.4000244141</ele>
        <time>2019-08-03T10:54:23.000Z</time>
      </trkpt>
      <trkpt lat="44.06521" lon="6.93099">
        <ele>1860.5999755859</ele>
        <time>2019-08-03T10:54:30.000Z</time>
      </trkpt>
      <trkpt lat="44.0652" lon="6.93101">
        <ele>1860.4000244141</ele>
        <time>2019-08-03T10:54:35.000Z</time>
      </trkpt>
      <trkpt lat="44.0652" lon="6.93102">
        <ele>1860.8000488281</ele>
        <time>2019-08-03T10:54:46.000Z</time>
      </trkpt>
      <trkpt lat="44.0652" lon="6.93103">
        <ele>1861.1999511719</ele>
        <time>2019-08-03T10:54:58.000Z</time>
      </trkpt>
      <trkpt lat="44.0652" lon="6.93104">
        <ele>1860.8000488281</ele>
        <time>2019-08-03T10:55:05.000Z</time>
      </trkpt>
      <trkpt lat="44.06521" lon="6.93103">
        <ele>1861</ele>
        <time>2019-08-03T10:55:09.000Z</time>
      </trkpt>
      <trkpt lat="44.06522" lon="6.93103">
        <ele>1860.1999511719</ele>
        <time>2019-08-03T10:55:14.000Z</time>
      </trkpt>
      <trkpt lat="44.06521" lon="6.93103">
        <ele>1860.4000244141</ele>
        <time>2019-08-03T10:55:18.000Z</time>
      </trkpt>
      <trkpt lat="44.06521" lon="6.93101">
        <ele>1860.1999511719</ele>
        <time>2019-08-03T10:55:24.000Z</time>
      </trkpt>
      <trkpt lat="44.06521" lon="6.93101">
        <ele>1860.8000488281</ele>
        <time>2019-08-03T10:55:33.000Z</time>
      </trkpt>
      <trkpt lat="44.06521" lon="6.93102">
        <ele>1860.8000488281</ele>
        <time>2019-08-03T10:55:46.000Z</time>
      </trkpt>
      <trkpt lat="44.06521" lon="6.93103">
        <ele>1860.8000488281</ele>
        <time>2019-08-03T10:55:51.000Z</time>
      </trkpt>
      <trkpt lat="44.06521" lon="6.93103">
        <ele>1861.1999511719</ele>
        <time>2019-08-03T10:55:55.000Z</time>
      </trkpt>
      <trkpt lat="44.06521" lon="6.93103">
        <ele>1860.5999755859</ele>
        <time>2019-08-03T10:55:59.000Z</time>
      </trkpt>
      <trkpt lat="44.06522" lon="6.93102">
        <ele>1860.5999755859</ele>
        <time>2019-08-03T10:56:12.000Z</time>
      </trkpt>
      <trkpt lat="44.06522" lon="6.93103">
        <ele>1860.8000488281</ele>
        <time>2019-08-03T10:56:19.000Z</time>
      </trkpt>
      <trkpt lat="44.06522" lon="6.93103">
        <ele>1860.4000244141</ele>
        <time>2019-08-03T10:56:33.000Z</time>
      </trkpt>
      <trkpt lat="44.06523" lon="6.93104">
        <ele>1860.1999511719</ele>
        <time>2019-08-03T10:56:43.000Z</time>
      </trkpt>
      <trkpt lat="44.06523" lon="6.93103">
        <ele>1860.4000244141</ele>
        <time>2019-08-03T10:56:46.000Z</time>
      </trkpt>
      <trkpt lat="44.06522" lon="6.93102">
        <ele>1861</ele>
        <time>2019-08-03T10:56:58.000Z</time>
      </trkpt>
      <trkpt lat="44.06523" lon="6.931">
        <ele>1860.4000244141</ele>
        <time>2019-08-03T10:57:04.000Z</time>
      </trkpt>
      <trkpt lat="44.06524" lon="6.93103">
        <ele>1860.8000488281</ele>
        <time>2019-08-03T10:57:12.000Z</time>
      </trkpt>
      <trkpt lat="44.06527" lon="6.93105">
        <ele>1860.1999511719</ele>
        <time>2019-08-03T10:57:21.000Z</time>
      </trkpt>
      <trkpt lat="44.06528" lon="6.93104">
        <ele>1860</ele>
        <time>2019-08-03T10:57:32.000Z</time>
      </trkpt>
      <trkpt lat="44.06527" lon="6.93102">
        <ele>1860</ele>
        <time>2019-08-03T10:57:41.000Z</time>
      </trkpt>
      <trkpt lat="44.06528" lon="6.93102">
        <ele>1859.5999755859</ele>
        <time>2019-08-03T10:57:53.000Z</time>
      </trkpt>
      <trkpt lat="44.06529" lon="6.93101">
        <ele>1859.4000244141</ele>
        <time>2019-08-03T10:57:58.000Z</time>
      </trkpt>
      <trkpt lat="44.06529" lon="6.93102">
        <ele>1859.5999755859</ele>
        <time>2019-08-03T10:58:08.000Z</time>
      </trkpt>
      <trkpt lat="44.06529" lon="6.93102">
        <ele>1859.8000488281</ele>
        <time>2019-08-03T10:58:23.000Z</time>
      </trkpt>
      <trkpt lat="44.0653" lon="6.93102">
        <ele>1859.8000488281</ele>
        <time>2019-08-03T10:58:29.000Z</time>
      </trkpt>
      <trkpt lat="44.06531" lon="6.93103">
        <ele>1859.4000244141</ele>
        <time>2019-08-03T10:58:40.000Z</time>
      </trkpt>
      <trkpt lat="44.06531" lon="6.93104">
        <ele>1859.1999511719</ele>
        <time>2019-08-03T10:58:41.000Z</time>
      </trkpt>
      <trkpt lat="44.06531" lon="6.93105">
        <ele>1858.8000488281</ele>
        <time>2019-08-03T10:58:42.000Z</time>
      </trkpt>
      <trkpt lat="44.0653" lon="6.93105">
        <ele>1858.4000244141</ele>
        <time>2019-08-03T10:58:44.000Z</time>
      </trkpt>
      <trkpt lat="44.0653" lon="6.93105">
        <ele>1858.8000488281</ele>
        <time>2019-08-03T10:58:52.000Z</time>
      </trkpt>
      <trkpt lat="44.06531" lon="6.93106">
        <ele>1858.4000244141</ele>
        <time>2019-08-03T10:59:00.000Z</time>
      </trkpt>
      <trkpt lat="44.06531" lon="6.93102">
        <ele>1858.4000244141</ele>
        <time>2019-08-03T10:59:04.000Z</time>
      </trkpt>
      <trkpt lat="44.06539" lon="6.93088">
        <ele>1858.4000244141</ele>
        <time>2019-08-03T10:59:09.000Z</time>
      </trkpt>
      <trkpt lat="44.06543" lon="6.93085">
        <ele>1858</ele>
        <time>2019-08-03T10:59:10.000Z</time>
      </trkpt>
      <trkpt lat="44.0655" lon="6.93079">
        <ele>1857.5999755859</ele>
        <time>2019-08-03T10:59:12.000Z</time>
      </trkpt>
      <trkpt lat="44.06555" lon="6.93072">
        <ele>1856.8000488281</ele>
        <time>2019-08-03T10:59:14.000Z</time>
      </trkpt>
      <trkpt lat="44.06565" lon="6.9305">
        <ele>1857</ele>
        <time>2019-08-03T10:59:21.000Z</time>
      </trkpt>
      <trkpt lat="44.06568" lon="6.93041">
        <ele>1858</ele>
        <time>2019-08-03T10:59:24.000Z</time>
      </trkpt>
      <trkpt lat="44.06569" lon="6.93035">
        <ele>1858.1999511719</ele>
        <time>2019-08-03T10:59:26.000Z</time>
      </trkpt>
      <trkpt lat="44.06563" lon="6.93021">
        <ele>1858.4000244141</ele>
        <time>2019-08-03T10:59:31.000Z</time>
      </trkpt>
      <trkpt lat="44.0655" lon="6.93018">
        <ele>1858.1999511719</ele>
        <time>2019-08-03T10:59:36.000Z</time>
      </trkpt>
      <trkpt lat="44.06534" lon="6.93026">
        <ele>1858.5999755859</ele>
        <time>2019-08-03T10:59:42.000Z</time>
      </trkpt>
      <trkpt lat="44.06511" lon="6.93042">
        <ele>1857.5999755859</ele>
        <time>2019-08-03T10:59:48.000Z</time>
      </trkpt>
      <trkpt lat="44.065" lon="6.9305">
        <ele>1856.8000488281</ele>
        <time>2019-08-03T10:59:50.000Z</time>
      </trkpt>
      <trkpt lat="44.06489" lon="6.93059">
        <ele>1855.1999511719</ele>
        <time>2019-08-03T10:59:52.000Z</time>
      </trkpt>
      <trkpt lat="44.06483" lon="6.93066">
        <ele>1854.4000244141</ele>
        <time>2019-08-03T10:59:53.000Z</time>
      </trkpt>
      <trkpt lat="44.06477" lon="6.93072">
        <ele>1853.8000488281</ele>
        <time>2019-08-03T10:59:54.000Z</time>
      </trkpt>
      <trkpt lat="44.06467" lon="6.93085">
        <ele>1852.4000244141</ele>
        <time>2019-08-03T10:59:56.000Z</time>
      </trkpt>
      <trkpt lat="44.06459" lon="6.93099">
        <ele>1852</ele>
        <time>2019-08-03T10:59:58.000Z</time>
      </trkpt>
      <trkpt lat="44.06455" lon="6.93116">
        <ele>1851.4000244141</ele>
        <time>2019-08-03T11:00:00.000Z</time>
      </trkpt>
      <trkpt lat="44.06453" lon="6.93136">
        <ele>1850.1999511719</ele>
        <time>2019-08-03T11:00:02.000Z</time>
      </trkpt>
      <trkpt lat="44.06452" lon="6.93146">
        <ele>1849.4000244141</ele>
        <time>2019-08-03T11:00:03.000Z</time>
      </trkpt>
      <trkpt lat="44.06451" lon="6.93156">
        <ele>1848.4000244141</ele>
        <time>2019-08-03T11:00:04.000Z</time>
      </trkpt>
      <trkpt lat="44.06445" lon="6.932">
        <ele>1847.5999755859</ele>
        <time>2019-08-03T11:00:08.000Z</time>
      </trkpt>
      <trkpt lat="44.06442" lon="6.93209">
        <ele>1847.1999511719</ele>
        <time>2019-08-03T11:00:09.000Z</time>
      </trkpt>
      <trkpt lat="44.06435" lon="6.93225">
        <ele>1845.5999755859</ele>
        <time>2019-08-03T11:00:11.000Z</time>
      </trkpt>
      <trkpt lat="44.06426" lon="6.93238">
        <ele>1844.4000244141</ele>
        <time>2019-08-03T11:00:13.000Z</time>
      </trkpt>
      <trkpt lat="44.06415" lon="6.9325">
        <ele>1843</ele>
        <time>2019-08-03T11:00:15.000Z</time>
      </trkpt>
      <trkpt lat="44.06401" lon="6.93261">
        <ele>1841.4000244141</ele>
        <time>2019-08-03T11:00:17.000Z</time>
      </trkpt>
      <trkpt lat="44.06393" lon="6.93266">
        <ele>1839.8000488281</ele>
        <time>2019-08-03T11:00:18.000Z</time>
      </trkpt>
      <trkpt lat="44.06384" lon="6.93271">
        <ele>1838.5999755859</ele>
        <time>2019-08-03T11:00:19.000Z</time>
      </trkpt>
      <trkpt lat="44.06369" lon="6.93281">
        <ele>1837.4000244141</ele>
        <time>2019-08-03T11:00:21.000Z</time>
      </trkpt>
      <trkpt lat="44.06352" lon="6.93289">
        <ele>1835.8000488281</ele>
        <time>2019-08-03T11:00:23.000Z</time>
      </trkpt>
      <trkpt lat="44.06345" lon="6.93294">
        <ele>1835.5999755859</ele>
        <time>2019-08-03T11:00:24.000Z</time>
      </trkpt>
      <trkpt lat="44.06337" lon="6.93299">
        <ele>1834.4000244141</ele>
        <time>2019-08-03T11:00:25.000Z</time>
      </trkpt>
      <trkpt lat="44.06325" lon="6.9331">
        <ele>1832.4000244141</ele>
        <time>2019-08-03T11:00:27.000Z</time>
      </trkpt>
      <trkpt lat="44.06319" lon="6.93318">
        <ele>1832.5999755859</ele>
        <time>2019-08-03T11:00:28.000Z</time>
      </trkpt>
      <trkpt lat="44.06308" lon="6.93335">
        <ele>1830.8000488281</ele>
        <time>2019-08-03T11:00:30.000Z</time>
      </trkpt>
      <trkpt lat="44.06296" lon="6.93353">
        <ele>1829.1999511719</ele>
        <time>2019-08-03T11:00:32.000Z</time>
      </trkpt>
      <trkpt lat="44.06283" lon="6.93371">
        <ele>1828</ele>
        <time>2019-08-03T11:00:34.000Z</time>
      </trkpt>
      <trkpt lat="44.06277" lon="6.93379">
        <ele>1827</ele>
        <time>2019-08-03T11:00:35.000Z</time>
      </trkpt>
      <trkpt lat="44.06265" lon="6.93395">
        <ele>1825.5999755859</ele>
        <time>2019-08-03T11:00:37.000Z</time>
      </trkpt>
      <trkpt lat="44.06258" lon="6.93403">
        <ele>1824</ele>
        <time>2019-08-03T11:00:38.000Z</time>
      </trkpt>
      <trkpt lat="44.06244" lon="6.93418">
        <ele>1822.1999511719</ele>
        <time>2019-08-03T11:00:40.000Z</time>
      </trkpt>
      <trkpt lat="44.06237" lon="6.93425">
        <ele>1821</ele>
        <time>2019-08-03T11:00:41.000Z</time>
      </trkpt>
      <trkpt lat="44.06232" lon="6.93432">
        <ele>1819.8000488281</ele>
        <time>2019-08-03T11:00:42.000Z</time>
      </trkpt>
      <trkpt lat="44.06221" lon="6.93444">
        <ele>1818.5999755859</ele>
        <time>2019-08-03T11:00:44.000Z</time>
      </trkpt>
      <trkpt lat="44.06209" lon="6.9345">
        <ele>1817.5999755859</ele>
        <time>2019-08-03T11:00:46.000Z</time>
      </trkpt>
      <trkpt lat="44.06194" lon="6.93438">
        <ele>1816.5999755859</ele>
        <time>2019-08-03T11:00:49.000Z</time>
      </trkpt>
      <trkpt lat="44.06189" lon="6.93427">
        <ele>1816</ele>
        <time>2019-08-03T11:00:51.000Z</time>
      </trkpt>
      <trkpt lat="44.06184" lon="6.93416">
        <ele>1815.4000244141</ele>
        <time>2019-08-03T11:00:53.000Z</time>
      </trkpt>
      <trkpt lat="44.06178" lon="6.93407">
        <ele>1815.5999755859</ele>
        <time>2019-08-03T11:00:55.000Z</time>
      </trkpt>
      <trkpt lat="44.06165" lon="6.93389">
        <ele>1816</ele>
        <time>2019-08-03T11:00:59.000Z</time>
      </trkpt>
      <trkpt lat="44.06147" lon="6.93366">
        <ele>1816.1999511719</ele>
        <time>2019-08-03T11:01:04.000Z</time>
      </trkpt>
      <trkpt lat="44.06138" lon="6.93359">
        <ele>1816.4000244141</ele>
        <time>2019-08-03T11:01:06.000Z</time>
      </trkpt>
      <trkpt lat="44.06113" lon="6.93334">
        <ele>1816</ele>
        <time>2019-08-03T11:01:12.000Z</time>
      </trkpt>
      <trkpt lat="44.06105" lon="6.93324">
        <ele>1816</ele>
        <time>2019-08-03T11:01:14.000Z</time>
      </trkpt>
      <trkpt lat="44.06091" lon="6.93305">
        <ele>1815.8000488281</ele>
        <time>2019-08-03T11:01:18.000Z</time>
      </trkpt>
      <trkpt lat="44.06076" lon="6.93295">
        <ele>1816</ele>
        <time>2019-08-03T11:01:22.000Z</time>
      </trkpt>
      <trkpt lat="44.06072" lon="6.93292">
        <ele>1816.1999511719</ele>
        <time>2019-08-03T11:01:23.000Z</time>
      </trkpt>
      <trkpt lat="44.0605" lon="6.93279">
        <ele>1816.8000488281</ele>
        <time>2019-08-03T11:01:29.000Z</time>
      </trkpt>
      <trkpt lat="44.06046" lon="6.93277">
        <ele>1816.5999755859</ele>
        <time>2019-08-03T11:01:30.000Z</time>
      </trkpt>
      <trkpt lat="44.06029" lon="6.93261">
        <ele>1817.1999511719</ele>
        <time>2019-08-03T11:01:35.000Z</time>
      </trkpt>
      <trkpt lat="44.06023" lon="6.93253">
        <ele>1817.1999511719</ele>
        <time>2019-08-03T11:01:37.000Z</time>
      </trkpt>
      <trkpt lat="44.0602" lon="6.93248">
        <ele>1817.1999511719</ele>
        <time>2019-08-03T11:01:38.000Z</time>
      </trkpt>
      <trkpt lat="44.06008" lon="6.93224">
        <ele>1817.1999511719</ele>
        <time>2019-08-03T11:01:43.000Z</time>
      </trkpt>
      <trkpt lat="44.05994" lon="6.93216">
        <ele>1816.8000488281</ele>
        <time>2019-08-03T11:01:47.000Z</time>
      </trkpt>
      <trkpt lat="44.05981" lon="6.93218">
        <ele>1817</ele>
        <time>2019-08-03T11:01:50.000Z</time>
      </trkpt>
      <trkpt lat="44.05978" lon="6.93221">
        <ele>1816.8000488281</ele>
        <time>2019-08-03T11:01:51.000Z</time>
      </trkpt>
      <trkpt lat="44.05972" lon="6.93238">
        <ele>1816.5999755859</ele>
        <time>2019-08-03T11:01:54.000Z</time>
      </trkpt>
      <trkpt lat="44.05971" lon="6.93246">
        <ele>1816</ele>
        <time>2019-08-03T11:01:55.000Z</time>
      </trkpt>
      <trkpt lat="44.05969" lon="6.93254">
        <ele>1815.4000244141</ele>
        <time>2019-08-03T11:01:56.000Z</time>
      </trkpt>
      <trkpt lat="44.05966" lon="6.93269">
        <ele>1814.5999755859</ele>
        <time>2019-08-03T11:01:58.000Z</time>
      </trkpt>
      <trkpt lat="44.05962" lon="6.93276">
        <ele>1814.4000244141</ele>
        <time>2019-08-03T11:01:59.000Z</time>
      </trkpt>
      <trkpt lat="44.05946" lon="6.9328">
        <ele>1813.8000488281</ele>
        <time>2019-08-03T11:02:02.000Z</time>
      </trkpt>
      <trkpt lat="44.05936" lon="6.93272">
        <ele>1812.8000488281</ele>
        <time>2019-08-03T11:02:04.000Z</time>
      </trkpt>
      <trkpt lat="44.05931" lon="6.93268">
        <ele>1812.1999511719</ele>
        <time>2019-08-03T11:02:05.000Z</time>
      </trkpt>
      <trkpt lat="44.05922" lon="6.93259">
        <ele>1811.1999511719</ele>
        <time>2019-08-03T11:02:07.000Z</time>
      </trkpt>
      <trkpt lat="44.05917" lon="6.93255">
        <ele>1810.8000488281</ele>
        <time>2019-08-03T11:02:08.000Z</time>
      </trkpt>
      <trkpt lat="44.05907" lon="6.93251">
        <ele>1810.1999511719</ele>
        <time>2019-08-03T11:02:10.000Z</time>
      </trkpt>
      <trkpt lat="44.05873" lon="6.93235">
        <ele>1808</ele>
        <time>2019-08-03T11:02:16.000Z</time>
      </trkpt>
      <trkpt lat="44.05868" lon="6.93231">
        <ele>1806.4000244141</ele>
        <time>2019-08-03T11:02:17.000Z</time>
      </trkpt>
      <trkpt lat="44.05856" lon="6.93222">
        <ele>1804.5999755859</ele>
        <time>2019-08-03T11:02:19.000Z</time>
      </trkpt>
      <trkpt lat="44.0585" lon="6.93217">
        <ele>1803.5999755859</ele>
        <time>2019-08-03T11:02:20.000Z</time>
      </trkpt>
      <trkpt lat="44.05839" lon="6.93207">
        <ele>1803.1999511719</ele>
        <time>2019-08-03T11:02:22.000Z</time>
      </trkpt>
      <trkpt lat="44.05827" lon="6.93196">
        <ele>1802</ele>
        <time>2019-08-03T11:02:24.000Z</time>
      </trkpt>
      <trkpt lat="44.05817" lon="6.93186">
        <ele>1800.8000488281</ele>
        <time>2019-08-03T11:02:26.000Z</time>
      </trkpt>
      <trkpt lat="44.05806" lon="6.93177">
        <ele>1800</ele>
        <time>2019-08-03T11:02:28.000Z</time>
      </trkpt>
      <trkpt lat="44.058" lon="6.93174">
        <ele>1799</ele>
        <time>2019-08-03T11:02:29.000Z</time>
      </trkpt>
      <trkpt lat="44.05786" lon="6.93168">
        <ele>1797.8000488281</ele>
        <time>2019-08-03T11:02:31.000Z</time>
      </trkpt>
      <trkpt lat="44.05764" lon="6.93159">
        <ele>1796.8000488281</ele>
        <time>2019-08-03T11:02:34.000Z</time>
      </trkpt>
      <trkpt lat="44.05756" lon="6.93156">
        <ele>1796.4000244141</ele>
        <time>2019-08-03T11:02:35.000Z</time>
      </trkpt>
      <trkpt lat="44.05735" lon="6.93145">
        <ele>1795</ele>
        <time>2019-08-03T11:02:38.000Z</time>
      </trkpt>
      <trkpt lat="44.05722" lon="6.93135">
        <ele>1794</ele>
        <time>2019-08-03T11:02:40.000Z</time>
      </trkpt>
      <trkpt lat="44.05717" lon="6.93129">
        <ele>1793.5999755859</ele>
        <time>2019-08-03T11:02:41.000Z</time>
      </trkpt>
      <trkpt lat="44.05713" lon="6.93124">
        <ele>1793.1999511719</ele>
        <time>2019-08-03T11:02:42.000Z</time>
      </trkpt>
      <trkpt lat="44.05708" lon="6.93118">
        <ele>1792.5999755859</ele>
        <time>2019-08-03T11:02:43.000Z</time>
      </trkpt>
      <trkpt lat="44.05704" lon="6.93113">
        <ele>1792.1999511719</ele>
        <time>2019-08-03T11:02:44.000Z</time>
      </trkpt>
      <trkpt lat="44.05696" lon="6.93106">
        <ele>1792</ele>
        <time>2019-08-03T11:02:46.000Z</time>
      </trkpt>
      <trkpt lat="44.0569" lon="6.93102">
        <ele>1791.8000488281</ele>
        <time>2019-08-03T11:02:48.000Z</time>
      </trkpt>
      <trkpt lat="44.05684" lon="6.93102">
        <ele>1791.8000488281</ele>
        <time>2019-08-03T11:02:50.000Z</time>
      </trkpt>
      <trkpt lat="44.05675" lon="6.93097">
        <ele>1791.8000488281</ele>
        <time>2019-08-03T11:02:54.000Z</time>
      </trkpt>
      <trkpt lat="44.0567" lon="6.93093">
        <ele>1791.5999755859</ele>
        <time>2019-08-03T11:02:56.000Z</time>
      </trkpt>
      <trkpt lat="44.05661" lon="6.93088">
        <ele>1790.4000244141</ele>
        <time>2019-08-03T11:02:59.000Z</time>
      </trkpt>
      <trkpt lat="44.05656" lon="6.93087">
        <ele>1789.4000244141</ele>
        <time>2019-08-03T11:03:01.000Z</time>
      </trkpt>
      <trkpt lat="44.05649" lon="6.93085">
        <ele>1788</ele>
        <time>2019-08-03T11:03:04.000Z</time>
      </trkpt>
      <trkpt lat="44.05642" lon="6.93082">
        <ele>1786.8000488281</ele>
        <time>2019-08-03T11:03:08.000Z</time>
      </trkpt>
      <trkpt lat="44.05638" lon="6.9308">
        <ele>1786</ele>
        <time>2019-08-03T11:03:10.000Z</time>
      </trkpt>
      <trkpt lat="44.05637" lon="6.93079">
        <ele>1786</ele>
        <time>2019-08-03T11:03:14.000Z</time>
      </trkpt>
      <trkpt lat="44.05632" lon="6.93074">
        <ele>1785.5999755859</ele>
        <time>2019-08-03T11:03:17.000Z</time>
      </trkpt>
      <trkpt lat="44.05628" lon="6.93072">
        <ele>1785.4000244141</ele>
        <time>2019-08-03T11:03:19.000Z</time>
      </trkpt>
      <trkpt lat="44.05621" lon="6.93071">
        <ele>1784.5999755859</ele>
        <time>2019-08-03T11:03:23.000Z</time>
      </trkpt>
      <trkpt lat="44.05618" lon="6.93071">
        <ele>1784.1999511719</ele>
        <time>2019-08-03T11:03:25.000Z</time>
      </trkpt>
      <trkpt lat="44.05608" lon="6.93067">
        <ele>1784.4000244141</ele>
        <time>2019-08-03T11:03:31.000Z</time>
      </trkpt>
      <trkpt lat="44.05592" lon="6.93066">
        <ele>1783.4000244141</ele>
        <time>2019-08-03T11:03:37.000Z</time>
      </trkpt>
      <trkpt lat="44.05585" lon="6.93064">
        <ele>1782.8000488281</ele>
        <time>2019-08-03T11:03:42.000Z</time>
      </trkpt>
      <trkpt lat="44.05577" lon="6.93059">
        <ele>1783</ele>
        <time>2019-08-03T11:03:47.000Z</time>
      </trkpt>
      <trkpt lat="44.05567" lon="6.93058">
        <ele>1783.4000244141</ele>
        <time>2019-08-03T11:03:53.000Z</time>
      </trkpt>
      <trkpt lat="44.05556" lon="6.93058">
        <ele>1783.4000244141</ele>
        <time>2019-08-03T11:03:59.000Z</time>
      </trkpt>
      <trkpt lat="44.05542" lon="6.9306">
        <ele>1784.1999511719</ele>
        <time>2019-08-03T11:04:06.000Z</time>
      </trkpt>
      <trkpt lat="44.05541" lon="6.9306">
        <ele>1784.4000244141</ele>
        <time>2019-08-03T11:04:07.000Z</time>
      </trkpt>
      <trkpt lat="44.05531" lon="6.9306">
        <ele>1784.4000244141</ele>
        <time>2019-08-03T11:04:12.000Z</time>
      </trkpt>
      <trkpt lat="44.0552" lon="6.93057">
        <ele>1785.1999511719</ele>
        <time>2019-08-03T11:04:19.000Z</time>
      </trkpt>
      <trkpt lat="44.05516" lon="6.93057">
        <ele>1785.5999755859</ele>
        <time>2019-08-03T11:04:22.000Z</time>
      </trkpt>
      <trkpt lat="44.05508" lon="6.93057">
        <ele>1786.1999511719</ele>
        <time>2019-08-03T11:04:26.000Z</time>
      </trkpt>
      <trkpt lat="44.05497" lon="6.93057">
        <ele>1786.4000244141</ele>
        <time>2019-08-03T11:04:32.000Z</time>
      </trkpt>
      <trkpt lat="44.05498" lon="6.93057">
        <ele>1786.4000244141</ele>
        <time>2019-08-03T11:04:33.000Z</time>
      </trkpt>
      <trkpt lat="44.05499" lon="6.93057">
        <ele>1786.5999755859</ele>
        <time>2019-08-03T11:04:35.000Z</time>
      </trkpt>
      <trkpt lat="44.05499" lon="6.93057">
        <ele>1786.8000488281</ele>
        <time>2019-08-03T11:04:36.000Z</time>
      </trkpt>
      <trkpt lat="44.05498" lon="6.93057">
        <ele>1787</ele>
        <time>2019-08-03T11:04:45.000Z</time>
      </trkpt>
      <trkpt lat="44.05496" lon="6.93057">
        <ele>1787</ele>
        <time>2019-08-03T11:04:51.000Z</time>
      </trkpt>
      <trkpt lat="44.05484" lon="6.93053">
        <ele>1787.4000244141</ele>
        <time>2019-08-03T11:04:58.000Z</time>
      </trkpt>
      <trkpt lat="44.05479" lon="6.9305">
        <ele>1787.8000488281</ele>
        <time>2019-08-03T11:05:01.000Z</time>
      </trkpt>
      <trkpt lat="44.05476" lon="6.93044">
        <ele>1788.4000244141</ele>
        <time>2019-08-03T11:05:04.000Z</time>
      </trkpt>
      <trkpt lat="44.05472" lon="6.93034">
        <ele>1789</ele>
        <time>2019-08-03T11:05:08.000Z</time>
      </trkpt>
      <trkpt lat="44.05469" lon="6.93026">
        <ele>1789.1999511719</ele>
        <time>2019-08-03T11:05:11.000Z</time>
      </trkpt>
      <trkpt lat="44.05465" lon="6.93004">
        <ele>1789.1999511719</ele>
        <time>2019-08-03T11:05:18.000Z</time>
      </trkpt>
      <trkpt lat="44.05453" lon="6.92988">
        <ele>1789.1999511719</ele>
        <time>2019-08-03T11:05:24.000Z</time>
      </trkpt>
      <trkpt lat="44.05436" lon="6.92981">
        <ele>1788.5999755859</ele>
        <time>2019-08-03T11:05:30.000Z</time>
      </trkpt>
      <trkpt lat="44.05418" lon="6.92967">
        <ele>1788.4000244141</ele>
        <time>2019-08-03T11:05:37.000Z</time>
      </trkpt>
      <trkpt lat="44.05414" lon="6.92957">
        <ele>1788</ele>
        <time>2019-08-03T11:05:40.000Z</time>
      </trkpt>
      <trkpt lat="44.05412" lon="6.92951">
        <ele>1787.8000488281</ele>
        <time>2019-08-03T11:05:42.000Z</time>
      </trkpt>
      <trkpt lat="44.05408" lon="6.92932">
        <ele>1788.4000244141</ele>
        <time>2019-08-03T11:05:48.000Z</time>
      </trkpt>
      <trkpt lat="44.05399" lon="6.92914">
        <ele>1788.5999755859</ele>
        <time>2019-08-03T11:05:56.000Z</time>
      </trkpt>
      <trkpt lat="44.05389" lon="6.9291">
        <ele>1788.4000244141</ele>
        <time>2019-08-03T11:06:01.000Z</time>
      </trkpt>
      <trkpt lat="44.05385" lon="6.92909">
        <ele>1788.5999755859</ele>
        <time>2019-08-03T11:06:06.000Z</time>
      </trkpt>
      <trkpt lat="44.05378" lon="6.92912">
        <ele>1788.8000488281</ele>
        <time>2019-08-03T11:06:13.000Z</time>
      </trkpt>
      <trkpt lat="44.05362" lon="6.92917">
        <ele>1788.4000244141</ele>
        <time>2019-08-03T11:06:20.000Z</time>
      </trkpt>
      <trkpt lat="44.05348" lon="6.92925">
        <ele>1788.4000244141</ele>
        <time>2019-08-03T11:06:26.000Z</time>
      </trkpt>
      <trkpt lat="44.05334" lon="6.92929">
        <ele>1789</ele>
        <time>2019-08-03T11:06:32.000Z</time>
      </trkpt>
      <trkpt lat="44.05316" lon="6.92934">
        <ele>1789.8000488281</ele>
        <time>2019-08-03T11:06:40.000Z</time>
      </trkpt>
      <trkpt lat="44.05302" lon="6.92934">
        <ele>1790</ele>
        <time>2019-08-03T11:06:46.000Z</time>
      </trkpt>
      <trkpt lat="44.053" lon="6.92934">
        <ele>1790.1999511719</ele>
        <time>2019-08-03T11:06:47.000Z</time>
      </trkpt>
      <trkpt lat="44.05282" lon="6.92926">
        <ele>1790</ele>
        <time>2019-08-03T11:06:53.000Z</time>
      </trkpt>
      <trkpt lat="44.05276" lon="6.92923">
        <ele>1789</ele>
        <time>2019-08-03T11:06:55.000Z</time>
      </trkpt>
      <trkpt lat="44.05271" lon="6.9292">
        <ele>1788.4000244141</ele>
        <time>2019-08-03T11:06:57.000Z</time>
      </trkpt>
      <trkpt lat="44.05263" lon="6.92913">
        <ele>1788.4000244141</ele>
        <time>2019-08-03T11:07:01.000Z</time>
      </trkpt>
      <trkpt lat="44.05255" lon="6.92906">
        <ele>1788</ele>
        <time>2019-08-03T11:07:04.000Z</time>
      </trkpt>
      <trkpt lat="44.05246" lon="6.92901">
        <ele>1787.5999755859</ele>
        <time>2019-08-03T11:07:07.000Z</time>
      </trkpt>
      <trkpt lat="44.0524" lon="6.929">
        <ele>1786.8000488281</ele>
        <time>2019-08-03T11:07:09.000Z</time>
      </trkpt>
      <trkpt lat="44.05237" lon="6.92899">
        <ele>1786.4000244141</ele>
        <time>2019-08-03T11:07:11.000Z</time>
      </trkpt>
      <trkpt lat="44.05227" lon="6.92897">
        <ele>1786.8000488281</ele>
        <time>2019-08-03T11:07:16.000Z</time>
      </trkpt>
      <trkpt lat="44.05225" lon="6.92897">
        <ele>1786.8000488281</ele>
        <time>2019-08-03T11:07:21.000Z</time>
      </trkpt>
      <trkpt lat="44.0522" lon="6.92899">
        <ele>1787.8000488281</ele>
        <time>2019-08-03T11:07:28.000Z</time>
      </trkpt>
      <trkpt lat="44.05218" lon="6.929">
        <ele>1788</ele>
        <time>2019-08-03T11:07:30.000Z</time>
      </trkpt>
      <trkpt lat="44.05216" lon="6.929">
        <ele>1788.4000244141</ele>
        <time>2019-08-03T11:07:34.000Z</time>
      </trkpt>
      <trkpt lat="44.05212" lon="6.92902">
        <ele>1789</ele>
        <time>2019-08-03T11:07:39.000Z</time>
      </trkpt>
      <trkpt lat="44.0521" lon="6.92904">
        <ele>1789.4000244141</ele>
        <time>2019-08-03T11:07:42.000Z</time>
      </trkpt>
      <trkpt lat="44.05205" lon="6.92907">
        <ele>1790</ele>
        <time>2019-08-03T11:07:48.000Z</time>
      </trkpt>
      <trkpt lat="44.05203" lon="6.92908">
        <ele>1790.5999755859</ele>
        <time>2019-08-03T11:07:51.000Z</time>
      </trkpt>
      <trkpt lat="44.05198" lon="6.9291">
        <ele>1791.1999511719</ele>
        <time>2019-08-03T11:07:58.000Z</time>
      </trkpt>
      <trkpt lat="44.05197" lon="6.92911">
        <ele>1791.4000244141</ele>
        <time>2019-08-03T11:07:59.000Z</time>
      </trkpt>
      <trkpt lat="44.05192" lon="6.92913">
        <ele>1792.1999511719</ele>
        <time>2019-08-03T11:08:06.000Z</time>
      </trkpt>
      <trkpt lat="44.05191" lon="6.92914">
        <ele>1792.4000244141</ele>
        <time>2019-08-03T11:08:07.000Z</time>
      </trkpt>
      <trkpt lat="44.0519" lon="6.92914">
        <ele>1793.4000244141</ele>
        <time>2019-08-03T11:08:13.000Z</time>
      </trkpt>
      <trkpt lat="44.05189" lon="6.92915">
        <ele>1793.4000244141</ele>
        <time>2019-08-03T11:08:14.000Z</time>
      </trkpt>
      <trkpt lat="44.05185" lon="6.92918">
        <ele>1793.5999755859</ele>
        <time>2019-08-03T11:08:18.000Z</time>
      </trkpt>
      <trkpt lat="44.05176" lon="6.92928">
        <ele>1794.5999755859</ele>
        <time>2019-08-03T11:08:25.000Z</time>
      </trkpt>
      <trkpt lat="44.05169" lon="6.92936">
        <ele>1795.5999755859</ele>
        <time>2019-08-03T11:08:30.000Z</time>
      </trkpt>
      <trkpt lat="44.05164" lon="6.92941">
        <ele>1796.4000244141</ele>
        <time>2019-08-03T11:08:34.000Z</time>
      </trkpt>
      <trkpt lat="44.05163" lon="6.92942">
        <ele>1796.5999755859</ele>
        <time>2019-08-03T11:08:35.000Z</time>
      </trkpt>
      <trkpt lat="44.05156" lon="6.92949">
        <ele>1797.5999755859</ele>
        <time>2019-08-03T11:08:41.000Z</time>
      </trkpt>
      <trkpt lat="44.05149" lon="6.92954">
        <ele>1798.5999755859</ele>
        <time>2019-08-03T11:08:48.000Z</time>
      </trkpt>
      <trkpt lat="44.05148" lon="6.92955">
        <ele>1799</ele>
        <time>2019-08-03T11:08:49.000Z</time>
      </trkpt>
      <trkpt lat="44.05144" lon="6.92961">
        <ele>1800</ele>
        <time>2019-08-03T11:08:54.000Z</time>
      </trkpt>
      <trkpt lat="44.05143" lon="6.92962">
        <ele>1800</ele>
        <time>2019-08-03T11:08:55.000Z</time>
      </trkpt>
      <trkpt lat="44.05138" lon="6.92968">
        <ele>1801</ele>
        <time>2019-08-03T11:09:01.000Z</time>
      </trkpt>
      <trkpt lat="44.05133" lon="6.92974">
        <ele>1802.1999511719</ele>
        <time>2019-08-03T11:09:06.000Z</time>
      </trkpt>
      <trkpt lat="44.05131" lon="6.92977">
        <ele>1802.8000488281</ele>
        <time>2019-08-03T11:09:08.000Z</time>
      </trkpt>
      <trkpt lat="44.05123" lon="6.92983">
        <ele>1803</ele>
        <time>2019-08-03T11:09:15.000Z</time>
      </trkpt>
      <trkpt lat="44.05122" lon="6.92983">
        <ele>1803.1999511719</ele>
        <time>2019-08-03T11:09:16.000Z</time>
      </trkpt>
      <trkpt lat="44.05122" lon="6.92983">
        <ele>1804.1999511719</ele>
        <time>2019-08-03T11:09:20.000Z</time>
      </trkpt>
      <trkpt lat="44.05122" lon="6.92983">
        <ele>1803.5999755859</ele>
        <time>2019-08-03T11:09:31.000Z</time>
      </trkpt>
      <trkpt lat="44.05122" lon="6.92983">
        <ele>1804</ele>
        <time>2019-08-03T11:09:46.000Z</time>
      </trkpt>
      <trkpt lat="44.05119" lon="6.92986">
        <ele>1804.1999511719</ele>
        <time>2019-08-03T11:09:54.000Z</time>
      </trkpt>
      <trkpt lat="44.05112" lon="6.92988">
        <ele>1805</ele>
        <time>2019-08-03T11:09:59.000Z</time>
      </trkpt>
      <trkpt lat="44.0511" lon="6.92989">
        <ele>1805.4000244141</ele>
        <time>2019-08-03T11:10:01.000Z</time>
      </trkpt>
      <trkpt lat="44.05105" lon="6.9299">
        <ele>1806.5999755859</ele>
        <time>2019-08-03T11:10:05.000Z</time>
      </trkpt>
      <trkpt lat="44.05102" lon="6.9299">
        <ele>1807</ele>
        <time>2019-08-03T11:10:07.000Z</time>
      </trkpt>
      <trkpt lat="44.05098" lon="6.92989">
        <ele>1807.5999755859</ele>
        <time>2019-08-03T11:10:10.000Z</time>
      </trkpt>
      <trkpt lat="44.05094" lon="6.92989">
        <ele>1808</ele>
        <time>2019-08-03T11:10:13.000Z</time>
      </trkpt>
      <trkpt lat="44.05086" lon="6.92986">
        <ele>1808.8000488281</ele>
        <time>2019-08-03T11:10:19.000Z</time>
      </trkpt>
      <trkpt lat="44.05077" lon="6.92982">
        <ele>1809.8000488281</ele>
        <time>2019-08-03T11:10:27.000Z</time>
      </trkpt>
      <trkpt lat="44.05076" lon="6.92981">
        <ele>1810</ele>
        <time>2019-08-03T11:10:28.000Z</time>
      </trkpt>
      <trkpt lat="44.0507" lon="6.92979">
        <ele>1810.8000488281</ele>
        <time>2019-08-03T11:10:33.000Z</time>
      </trkpt>
      <trkpt lat="44.05068" lon="6.92978">
        <ele>1811</ele>
        <time>2019-08-03T11:10:35.000Z</time>
      </trkpt>
      <trkpt lat="44.05062" lon="6.92974">
        <ele>1811.8000488281</ele>
        <time>2019-08-03T11:10:40.000Z</time>
      </trkpt>
      <trkpt lat="44.05057" lon="6.92971">
        <ele>1812.4000244141</ele>
        <time>2019-08-03T11:10:44.000Z</time>
      </trkpt>
      <trkpt lat="44.05053" lon="6.92969">
        <ele>1813</ele>
        <time>2019-08-03T11:10:47.000Z</time>
      </trkpt>
      <trkpt lat="44.05046" lon="6.92966">
        <ele>1814</ele>
        <time>2019-08-03T11:10:52.000Z</time>
      </trkpt>
      <trkpt lat="44.05039" lon="6.92962">
        <ele>1815</ele>
        <time>2019-08-03T11:10:58.000Z</time>
      </trkpt>
      <trkpt lat="44.05038" lon="6.92961">
        <ele>1815.1999511719</ele>
        <time>2019-08-03T11:10:59.000Z</time>
      </trkpt>
      <trkpt lat="44.05033" lon="6.9296">
        <ele>1816.1999511719</ele>
        <time>2019-08-03T11:11:03.000Z</time>
      </trkpt>
      <trkpt lat="44.05031" lon="6.92959">
        <ele>1816.5999755859</ele>
        <time>2019-08-03T11:11:05.000Z</time>
      </trkpt>
      <trkpt lat="44.05022" lon="6.92957">
        <ele>1817.4000244141</ele>
        <time>2019-08-03T11:11:12.000Z</time>
      </trkpt>
      <trkpt lat="44.0502" lon="6.92957">
        <ele>1817.5999755859</ele>
        <time>2019-08-03T11:11:14.000Z</time>
      </trkpt>
      <trkpt lat="44.05014" lon="6.92957">
        <ele>1818.4000244141</ele>
        <time>2019-08-03T11:11:19.000Z</time>
      </trkpt>
      <trkpt lat="44.05012" lon="6.92957">
        <ele>1818.5999755859</ele>
        <time>2019-08-03T11:11:20.000Z</time>
      </trkpt>
      <trkpt lat="44.05003" lon="6.92961">
        <ele>1819.4000244141</ele>
        <time>2019-08-03T11:11:27.000Z</time>
      </trkpt>
      <trkpt lat="44.04994" lon="6.92964">
        <ele>1820.4000244141</ele>
        <time>2019-08-03T11:11:34.000Z</time>
      </trkpt>
      <trkpt lat="44.04991" lon="6.92966">
        <ele>1820.8000488281</ele>
        <time>2019-08-03T11:11:36.000Z</time>
      </trkpt>
      <trkpt lat="44.04988" lon="6.92968">
        <ele>1821.5999755859</ele>
        <time>2019-08-03T11:11:39.000Z</time>
      </trkpt>
      <trkpt lat="44.04982" lon="6.9297">
        <ele>1822.5999755859</ele>
        <time>2019-08-03T11:11:44.000Z</time>
      </trkpt>
      <trkpt lat="44.0498" lon="6.92971">
        <ele>1822.8000488281</ele>
        <time>2019-08-03T11:11:45.000Z</time>
      </trkpt>
      <trkpt lat="44.04976" lon="6.92972">
        <ele>1823.8000488281</ele>
        <time>2019-08-03T11:11:51.000Z</time>
      </trkpt>
      <trkpt lat="44.04975" lon="6.92972">
        <ele>1824</ele>
        <time>2019-08-03T11:11:52.000Z</time>
      </trkpt>
      <trkpt lat="44.04965" lon="6.92972">
        <ele>1824.4000244141</ele>
        <time>2019-08-03T11:11:59.000Z</time>
      </trkpt>
      <trkpt lat="44.04962" lon="6.92971">
        <ele>1824.8000488281</ele>
        <time>2019-08-03T11:12:02.000Z</time>
      </trkpt>
      <trkpt lat="44.04954" lon="6.9297">
        <ele>1825.8000488281</ele>
        <time>2019-08-03T11:12:08.000Z</time>
      </trkpt>
      <trkpt lat="44.04953" lon="6.9297">
        <ele>1826</ele>
        <time>2019-08-03T11:12:09.000Z</time>
      </trkpt>
      <trkpt lat="44.04949" lon="6.92967">
        <ele>1827</ele>
        <time>2019-08-03T11:12:14.000Z</time>
      </trkpt>
      <trkpt lat="44.04947" lon="6.92967">
        <ele>1827.4000244141</ele>
        <time>2019-08-03T11:12:15.000Z</time>
      </trkpt>
      <trkpt lat="44.04946" lon="6.92967">
        <ele>1827.5999755859</ele>
        <time>2019-08-03T11:12:16.000Z</time>
      </trkpt>
      <trkpt lat="44.04943" lon="6.92967">
        <ele>1828.1999511719</ele>
        <time>2019-08-03T11:12:18.000Z</time>
      </trkpt>
      <trkpt lat="44.04942" lon="6.92967">
        <ele>1828.1999511719</ele>
        <time>2019-08-03T11:12:19.000Z</time>
      </trkpt>
      <trkpt lat="44.04937" lon="6.92966">
        <ele>1829</ele>
        <time>2019-08-03T11:12:23.000Z</time>
      </trkpt>
      <trkpt lat="44.04935" lon="6.92966">
        <ele>1829.1999511719</ele>
        <time>2019-08-03T11:12:24.000Z</time>
      </trkpt>
      <trkpt lat="44.04926" lon="6.92963">
        <ele>1830</ele>
        <time>2019-08-03T11:12:32.000Z</time>
      </trkpt>
      <trkpt lat="44.04925" lon="6.92962">
        <ele>1830.1999511719</ele>
        <time>2019-08-03T11:12:33.000Z</time>
      </trkpt>
      <trkpt lat="44.04919" lon="6.9295">
        <ele>1831</ele>
        <time>2019-08-03T11:12:39.000Z</time>
      </trkpt>
      <trkpt lat="44.04919" lon="6.92939">
        <ele>1830.5999755859</ele>
        <time>2019-08-03T11:12:41.000Z</time>
      </trkpt>
      <trkpt lat="44.0492" lon="6.92929">
        <ele>1830</ele>
        <time>2019-08-03T11:12:43.000Z</time>
      </trkpt>
      <trkpt lat="44.04922" lon="6.92919">
        <ele>1828.8000488281</ele>
        <time>2019-08-03T11:12:46.000Z</time>
      </trkpt>
      <trkpt lat="44.04924" lon="6.92915">
        <ele>1828.4000244141</ele>
        <time>2019-08-03T11:12:48.000Z</time>
      </trkpt>
      <trkpt lat="44.04926" lon="6.92905">
        <ele>1827.5999755859</ele>
        <time>2019-08-03T11:12:51.000Z</time>
      </trkpt>
      <trkpt lat="44.04926" lon="6.929">
        <ele>1827.5999755859</ele>
        <time>2019-08-03T11:12:52.000Z</time>
      </trkpt>
      <trkpt lat="44.0492" lon="6.92883">
        <ele>1826.4000244141</ele>
        <time>2019-08-03T11:12:55.000Z</time>
      </trkpt>
      <trkpt lat="44.04918" lon="6.92863">
        <ele>1825</ele>
        <time>2019-08-03T11:12:58.000Z</time>
      </trkpt>
      <trkpt lat="44.04915" lon="6.92859">
        <ele>1824.1999511719</ele>
        <time>2019-08-03T11:12:59.000Z</time>
      </trkpt>
      <trkpt lat="44.04912" lon="6.92857">
        <ele>1823.4000244141</ele>
        <time>2019-08-03T11:13:00.000Z</time>
      </trkpt>
      <trkpt lat="44.04907" lon="6.9285">
        <ele>1821.8000488281</ele>
        <time>2019-08-03T11:13:02.000Z</time>
      </trkpt>
      <trkpt lat="44.04905" lon="6.92846">
        <ele>1821.5999755859</ele>
        <time>2019-08-03T11:13:03.000Z</time>
      </trkpt>
      <trkpt lat="44.04895" lon="6.92832">
        <ele>1821</ele>
        <time>2019-08-03T11:13:08.000Z</time>
      </trkpt>
      <trkpt lat="44.04883" lon="6.92811">
        <ele>1821.1999511719</ele>
        <time>2019-08-03T11:13:14.000Z</time>
      </trkpt>
      <trkpt lat="44.04877" lon="6.92796">
        <ele>1820.8000488281</ele>
        <time>2019-08-03T11:13:17.000Z</time>
      </trkpt>
      <trkpt lat="44.04875" lon="6.92791">
        <ele>1820.8000488281</ele>
        <time>2019-08-03T11:13:18.000Z</time>
      </trkpt>
      <trkpt lat="44.04872" lon="6.92785">
        <ele>1820.4000244141</ele>
        <time>2019-08-03T11:13:19.000Z</time>
      </trkpt>
      <trkpt lat="44.0487" lon="6.92779">
        <ele>1819.8000488281</ele>
        <time>2019-08-03T11:13:20.000Z</time>
      </trkpt>
      <trkpt lat="44.04868" lon="6.92773">
        <ele>1818.8000488281</ele>
        <time>2019-08-03T11:13:21.000Z</time>
      </trkpt>
      <trkpt lat="44.04864" lon="6.92751">
        <ele>1817.4000244141</ele>
        <time>2019-08-03T11:13:24.000Z</time>
      </trkpt>
      <trkpt lat="44.04862" lon="6.92744">
        <ele>1817.1999511719</ele>
        <time>2019-08-03T11:13:25.000Z</time>
      </trkpt>
      <trkpt lat="44.04861" lon="6.92737">
        <ele>1816.5999755859</ele>
        <time>2019-08-03T11:13:26.000Z</time>
      </trkpt>
      <trkpt lat="44.04861" lon="6.92732">
        <ele>1816</ele>
        <time>2019-08-03T11:13:27.000Z</time>
      </trkpt>
      <trkpt lat="44.04862" lon="6.92727">
        <ele>1815.8000488281</ele>
        <time>2019-08-03T11:13:28.000Z</time>
      </trkpt>
      <trkpt lat="44.04867" lon="6.9272">
        <ele>1815.1999511719</ele>
        <time>2019-08-03T11:13:30.000Z</time>
      </trkpt>
      <trkpt lat="44.04868" lon="6.92714">
        <ele>1815.4000244141</ele>
        <time>2019-08-03T11:13:32.000Z</time>
      </trkpt>
      <trkpt lat="44.04868" lon="6.92702">
        <ele>1815.1999511719</ele>
        <time>2019-08-03T11:13:36.000Z</time>
      </trkpt>
      <trkpt lat="44.04867" lon="6.92701">
        <ele>1815</ele>
        <time>2019-08-03T11:13:37.000Z</time>
      </trkpt>
      <trkpt lat="44.04861" lon="6.9269">
        <ele>1815.1999511719</ele>
        <time>2019-08-03T11:13:41.000Z</time>
      </trkpt>
      <trkpt lat="44.04857" lon="6.92688">
        <ele>1815.1999511719</ele>
        <time>2019-08-03T11:13:43.000Z</time>
      </trkpt>
      <trkpt lat="44.04852" lon="6.92687">
        <ele>1815</ele>
        <time>2019-08-03T11:13:45.000Z</time>
      </trkpt>
      <trkpt lat="44.04848" lon="6.92686">
        <ele>1815</ele>
        <time>2019-08-03T11:13:46.000Z</time>
      </trkpt>
      <trkpt lat="44.04835" lon="6.92682">
        <ele>1814.5999755859</ele>
        <time>2019-08-03T11:13:51.000Z</time>
      </trkpt>
      <trkpt lat="44.04823" lon="6.92679">
        <ele>1815.8000488281</ele>
        <time>2019-08-03T11:13:57.000Z</time>
      </trkpt>
      <trkpt lat="44.04819" lon="6.92676">
        <ele>1816.1999511719</ele>
        <time>2019-08-03T11:13:59.000Z</time>
      </trkpt>
      <trkpt lat="44.04815" lon="6.92674">
        <ele>1817</ele>
        <time>2019-08-03T11:14:02.000Z</time>
      </trkpt>
      <trkpt lat="44.04813" lon="6.92673">
        <ele>1817.4000244141</ele>
        <time>2019-08-03T11:14:03.000Z</time>
      </trkpt>
      <trkpt lat="44.04802" lon="6.92669">
        <ele>1818.4000244141</ele>
        <time>2019-08-03T11:14:09.000Z</time>
      </trkpt>
      <trkpt lat="44.04794" lon="6.92666">
        <ele>1818.8000488281</ele>
        <time>2019-08-03T11:14:13.000Z</time>
      </trkpt>
      <trkpt lat="44.04777" lon="6.92657">
        <ele>1819.1999511719</ele>
        <time>2019-08-03T11:14:20.000Z</time>
      </trkpt>
      <trkpt lat="44.04774" lon="6.92655">
        <ele>1819.4000244141</ele>
        <time>2019-08-03T11:14:22.000Z</time>
      </trkpt>
      <trkpt lat="44.04771" lon="6.92652">
        <ele>1820.1999511719</ele>
        <time>2019-08-03T11:14:25.000Z</time>
      </trkpt>
      <trkpt lat="44.04769" lon="6.92651">
        <ele>1820.5999755859</ele>
        <time>2019-08-03T11:14:26.000Z</time>
      </trkpt>
      <trkpt lat="44.0476" lon="6.92644">
        <ele>1821.5999755859</ele>
        <time>2019-08-03T11:14:33.000Z</time>
      </trkpt>
      <trkpt lat="44.04758" lon="6.92643">
        <ele>1821.5999755859</ele>
        <time>2019-08-03T11:14:34.000Z</time>
      </trkpt>
      <trkpt lat="44.04746" lon="6.92624">
        <ele>1821.5999755859</ele>
        <time>2019-08-03T11:14:41.000Z</time>
      </trkpt>
      <trkpt lat="44.04745" lon="6.92613">
        <ele>1821.5999755859</ele>
        <time>2019-08-03T11:14:43.000Z</time>
      </trkpt>
      <trkpt lat="44.04746" lon="6.92602">
        <ele>1821</ele>
        <time>2019-08-03T11:14:45.000Z</time>
      </trkpt>
      <trkpt lat="44.0475" lon="6.92595">
        <ele>1820</ele>
        <time>2019-08-03T11:14:47.000Z</time>
      </trkpt>
      <trkpt lat="44.04753" lon="6.92593">
        <ele>1819.4000244141</ele>
        <time>2019-08-03T11:14:48.000Z</time>
      </trkpt>
      <trkpt lat="44.04754" lon="6.9259">
        <ele>1819.1999511719</ele>
        <time>2019-08-03T11:14:49.000Z</time>
      </trkpt>
      <trkpt lat="44.04756" lon="6.92584">
        <ele>1819.4000244141</ele>
        <time>2019-08-03T11:14:51.000Z</time>
      </trkpt>
      <trkpt lat="44.04754" lon="6.92579">
        <ele>1819.1999511719</ele>
        <time>2019-08-03T11:14:52.000Z</time>
      </trkpt>
      <trkpt lat="44.04753" lon="6.92571">
        <ele>1818.8000488281</ele>
        <time>2019-08-03T11:14:54.000Z</time>
      </trkpt>
      <trkpt lat="44.04754" lon="6.92566">
        <ele>1818.1999511719</ele>
        <time>2019-08-03T11:14:55.000Z</time>
      </trkpt>
      <trkpt lat="44.04755" lon="6.92562">
        <ele>1817.4000244141</ele>
        <time>2019-08-03T11:14:56.000Z</time>
      </trkpt>
      <trkpt lat="44.04753" lon="6.92554">
        <ele>1816.1999511719</ele>
        <time>2019-08-03T11:14:58.000Z</time>
      </trkpt>
      <trkpt lat="44.04752" lon="6.9255">
        <ele>1816</ele>
        <time>2019-08-03T11:14:59.000Z</time>
      </trkpt>
      <trkpt lat="44.04752" lon="6.9254">
        <ele>1815.1999511719</ele>
        <time>2019-08-03T11:15:01.000Z</time>
      </trkpt>
      <trkpt lat="44.04753" lon="6.92534">
        <ele>1814.5999755859</ele>
        <time>2019-08-03T11:15:02.000Z</time>
      </trkpt>
      <trkpt lat="44.04753" lon="6.92528">
        <ele>1814.1999511719</ele>
        <time>2019-08-03T11:15:03.000Z</time>
      </trkpt>
      <trkpt lat="44.04752" lon="6.92523">
        <ele>1813.4000244141</ele>
        <time>2019-08-03T11:15:04.000Z</time>
      </trkpt>
      <trkpt lat="44.0475" lon="6.92514">
        <ele>1812</ele>
        <time>2019-08-03T11:15:06.000Z</time>
      </trkpt>
      <trkpt lat="44.04751" lon="6.92508">
        <ele>1811.5999755859</ele>
        <time>2019-08-03T11:15:07.000Z</time>
      </trkpt>
      <trkpt lat="44.04752" lon="6.92491">
        <ele>1811.5999755859</ele>
        <time>2019-08-03T11:15:10.000Z</time>
      </trkpt>
      <trkpt lat="44.04755" lon="6.9248">
        <ele>1810.8000488281</ele>
        <time>2019-08-03T11:15:12.000Z</time>
      </trkpt>
      <trkpt lat="44.04755" lon="6.92461">
        <ele>1809.8000488281</ele>
        <time>2019-08-03T11:15:15.000Z</time>
      </trkpt>
      <trkpt lat="44.04754" lon="6.92453">
        <ele>1809.1999511719</ele>
        <time>2019-08-03T11:15:16.000Z</time>
      </trkpt>
      <trkpt lat="44.04755" lon="6.92438">
        <ele>1808.1999511719</ele>
        <time>2019-08-03T11:15:18.000Z</time>
      </trkpt>
      <trkpt lat="44.04755" lon="6.92432">
        <ele>1807.1999511719</ele>
        <time>2019-08-03T11:15:19.000Z</time>
      </trkpt>
      <trkpt lat="44.04755" lon="6.92426">
        <ele>1806.1999511719</ele>
        <time>2019-08-03T11:15:20.000Z</time>
      </trkpt>
      <trkpt lat="44.04755" lon="6.9242">
        <ele>1805.4000244141</ele>
        <time>2019-08-03T11:15:21.000Z</time>
      </trkpt>
      <trkpt lat="44.04754" lon="6.92414">
        <ele>1805</ele>
        <time>2019-08-03T11:15:22.000Z</time>
      </trkpt>
      <trkpt lat="44.04752" lon="6.92395">
        <ele>1804</ele>
        <time>2019-08-03T11:15:25.000Z</time>
      </trkpt>
      <trkpt lat="44.04753" lon="6.92388">
        <ele>1803</ele>
        <time>2019-08-03T11:15:26.000Z</time>
      </trkpt>
      <trkpt lat="44.04753" lon="6.92381">
        <ele>1802.4000244141</ele>
        <time>2019-08-03T11:15:27.000Z</time>
      </trkpt>
      <trkpt lat="44.04754" lon="6.92372">
        <ele>1801.1999511719</ele>
        <time>2019-08-03T11:15:28.000Z</time>
      </trkpt>
      <trkpt lat="44.04755" lon="6.92365">
        <ele>1799.4000244141</ele>
        <time>2019-08-03T11:15:29.000Z</time>
      </trkpt>
      <trkpt lat="44.04755" lon="6.92359">
        <ele>1799</ele>
        <time>2019-08-03T11:15:30.000Z</time>
      </trkpt>
      <trkpt lat="44.04756" lon="6.92349">
        <ele>1797.8000488281</ele>
        <time>2019-08-03T11:15:32.000Z</time>
      </trkpt>
      <trkpt lat="44.04756" lon="6.92336">
        <ele>1797.1999511719</ele>
        <time>2019-08-03T11:15:34.000Z</time>
      </trkpt>
      <trkpt lat="44.04756" lon="6.92331">
        <ele>1796.4000244141</ele>
        <time>2019-08-03T11:15:35.000Z</time>
      </trkpt>
      <trkpt lat="44.04757" lon="6.92325">
        <ele>1795.1999511719</ele>
        <time>2019-08-03T11:15:37.000Z</time>
      </trkpt>
      <trkpt lat="44.04756" lon="6.92321">
        <ele>1794.8000488281</ele>
        <time>2019-08-03T11:15:38.000Z</time>
      </trkpt>
      <trkpt lat="44.04753" lon="6.92306">
        <ele>1794</ele>
        <time>2019-08-03T11:15:41.000Z</time>
      </trkpt>
      <trkpt lat="44.04753" lon="6.92301">
        <ele>1793.4000244141</ele>
        <time>2019-08-03T11:15:42.000Z</time>
      </trkpt>
      <trkpt lat="44.04752" lon="6.92294">
        <ele>1792.4000244141</ele>
        <time>2019-08-03T11:15:43.000Z</time>
      </trkpt>
      <trkpt lat="44.04751" lon="6.92287">
        <ele>1791.5999755859</ele>
        <time>2019-08-03T11:15:44.000Z</time>
      </trkpt>
      <trkpt lat="44.04749" lon="6.92281">
        <ele>1790.8000488281</ele>
        <time>2019-08-03T11:15:45.000Z</time>
      </trkpt>
      <trkpt lat="44.04747" lon="6.92274">
        <ele>1789.8000488281</ele>
        <time>2019-08-03T11:15:46.000Z</time>
      </trkpt>
      <trkpt lat="44.04745" lon="6.92273">
        <ele>1788.4000244141</ele>
        <time>2019-08-03T11:15:47.000Z</time>
      </trkpt>
      <trkpt lat="44.04742" lon="6.92273">
        <ele>1787.4000244141</ele>
        <time>2019-08-03T11:15:48.000Z</time>
      </trkpt>
      <trkpt lat="44.04735" lon="6.92273">
        <ele>1785.5999755859</ele>
        <time>2019-08-03T11:15:50.000Z</time>
      </trkpt>
      <trkpt lat="44.04732" lon="6.92276">
        <ele>1785.4000244141</ele>
        <time>2019-08-03T11:15:51.000Z</time>
      </trkpt>
      <trkpt lat="44.04723" lon="6.92281">
        <ele>1785.1999511719</ele>
        <time>2019-08-03T11:15:54.000Z</time>
      </trkpt>
      <trkpt lat="44.04714" lon="6.92284">
        <ele>1785.4000244141</ele>
        <time>2019-08-03T11:15:57.000Z</time>
      </trkpt>
      <trkpt lat="44.04707" lon="6.92286">
        <ele>1786.5999755859</ele>
        <time>2019-08-03T11:16:01.000Z</time>
      </trkpt>
      <trkpt lat="44.04702" lon="6.92288">
        <ele>1787</ele>
        <time>2019-08-03T11:16:03.000Z</time>
      </trkpt>
      <trkpt lat="44.04692" lon="6.9229">
        <ele>1787.5999755859</ele>
        <time>2019-08-03T11:16:07.000Z</time>
      </trkpt>
      <trkpt lat="44.04685" lon="6.92293">
        <ele>1788.5999755859</ele>
        <time>2019-08-03T11:16:11.000Z</time>
      </trkpt>
      <trkpt lat="44.04684" lon="6.92293">
        <ele>1788.5999755859</ele>
        <time>2019-08-03T11:16:12.000Z</time>
      </trkpt>
      <trkpt lat="44.04677" lon="6.92295">
        <ele>1789.8000488281</ele>
        <time>2019-08-03T11:16:16.000Z</time>
      </trkpt>
      <trkpt lat="44.04668" lon="6.92298">
        <ele>1790.8000488281</ele>
        <time>2019-08-03T11:16:21.000Z</time>
      </trkpt>
      <trkpt lat="44.04658" lon="6.923">
        <ele>1791.8000488281</ele>
        <time>2019-08-03T11:16:27.000Z</time>
      </trkpt>
      <trkpt lat="44.04653" lon="6.92301">
        <ele>1792.1999511719</ele>
        <time>2019-08-03T11:16:30.000Z</time>
      </trkpt>
      <trkpt lat="44.0464" lon="6.92303">
        <ele>1793</ele>
        <time>2019-08-03T11:16:37.000Z</time>
      </trkpt>
      <trkpt lat="44.04638" lon="6.92303">
        <ele>1793.1999511719</ele>
        <time>2019-08-03T11:16:38.000Z</time>
      </trkpt>
      <trkpt lat="44.04625" lon="6.92309">
        <ele>1794.1999511719</ele>
        <time>2019-08-03T11:16:45.000Z</time>
      </trkpt>
      <trkpt lat="44.04619" lon="6.92311">
        <ele>1794.8000488281</ele>
        <time>2019-08-03T11:16:48.000Z</time>
      </trkpt>
      <trkpt lat="44.04611" lon="6.92315">
        <ele>1795.4000244141</ele>
        <time>2019-08-03T11:16:53.000Z</time>
      </trkpt>
      <trkpt lat="44.04604" lon="6.92316">
        <ele>1796</ele>
        <time>2019-08-03T11:16:57.000Z</time>
      </trkpt>
      <trkpt lat="44.04601" lon="6.92318">
        <ele>1796.4000244141</ele>
        <time>2019-08-03T11:16:59.000Z</time>
      </trkpt>
      <trkpt lat="44.04595" lon="6.92319">
        <ele>1797.4000244141</ele>
        <time>2019-08-03T11:17:03.000Z</time>
      </trkpt>
      <trkpt lat="44.0459" lon="6.92319">
        <ele>1798.5999755859</ele>
        <time>2019-08-03T11:17:08.000Z</time>
      </trkpt>
      <trkpt lat="44.04588" lon="6.92319">
        <ele>1799</ele>
        <time>2019-08-03T11:17:10.000Z</time>
      </trkpt>
      <trkpt lat="44.04581" lon="6.92319">
        <ele>1799.5999755859</ele>
        <time>2019-08-03T11:17:16.000Z</time>
      </trkpt>
      <trkpt lat="44.0458" lon="6.92319">
        <ele>1799.8000488281</ele>
        <time>2019-08-03T11:17:17.000Z</time>
      </trkpt>
      <trkpt lat="44.04572" lon="6.92319">
        <ele>1800.4000244141</ele>
        <time>2019-08-03T11:17:23.000Z</time>
      </trkpt>
      <trkpt lat="44.04567" lon="6.92319">
        <ele>1800.8000488281</ele>
        <time>2019-08-03T11:17:27.000Z</time>
      </trkpt>
      <trkpt lat="44.04563" lon="6.92318">
        <ele>1802</ele>
        <time>2019-08-03T11:17:31.000Z</time>
      </trkpt>
      <trkpt lat="44.04555" lon="6.92318">
        <ele>1803</ele>
        <time>2019-08-03T11:17:37.000Z</time>
      </trkpt>
      <trkpt lat="44.04551" lon="6.92317">
        <ele>1803.5999755859</ele>
        <time>2019-08-03T11:17:40.000Z</time>
      </trkpt>
      <trkpt lat="44.04547" lon="6.92316">
        <ele>1804.1999511719</ele>
        <time>2019-08-03T11:17:43.000Z</time>
      </trkpt>
      <trkpt lat="44.04546" lon="6.92316">
        <ele>1804.4000244141</ele>
        <time>2019-08-03T11:17:44.000Z</time>
      </trkpt>
      <trkpt lat="44.04542" lon="6.92318">
        <ele>1805.1999511719</ele>
        <time>2019-08-03T11:17:47.000Z</time>
      </trkpt>
      <trkpt lat="44.04531" lon="6.92316">
        <ele>1806.5999755859</ele>
        <time>2019-08-03T11:17:55.000Z</time>
      </trkpt>
      <trkpt lat="44.0453" lon="6.92317">
        <ele>1806.5999755859</ele>
        <time>2019-08-03T11:17:56.000Z</time>
      </trkpt>
      <trkpt lat="44.04524" lon="6.92314">
        <ele>1807.5999755859</ele>
        <time>2019-08-03T11:18:01.000Z</time>
      </trkpt>
      <trkpt lat="44.04523" lon="6.92313">
        <ele>1807.8000488281</ele>
        <time>2019-08-03T11:18:02.000Z</time>
      </trkpt>
      <trkpt lat="44.0452" lon="6.92311">
        <ele>1808.5999755859</ele>
        <time>2019-08-03T11:18:05.000Z</time>
      </trkpt>
      <trkpt lat="44.0452" lon="6.9231">
        <ele>1808.8000488281</ele>
        <time>2019-08-03T11:18:06.000Z</time>
      </trkpt>
      <trkpt lat="44.04518" lon="6.92309">
        <ele>1809.1999511719</ele>
        <time>2019-08-03T11:18:08.000Z</time>
      </trkpt>
      <trkpt lat="44.04514" lon="6.92307">
        <ele>1810</ele>
        <time>2019-08-03T11:18:12.000Z</time>
      </trkpt>
      <trkpt lat="44.04511" lon="6.92305">
        <ele>1810.4000244141</ele>
        <time>2019-08-03T11:18:15.000Z</time>
      </trkpt>
      <trkpt lat="44.04509" lon="6.92302">
        <ele>1811</ele>
        <time>2019-08-03T11:18:18.000Z</time>
      </trkpt>
      <trkpt lat="44.04505" lon="6.92298">
        <ele>1811.8000488281</ele>
        <time>2019-08-03T11:18:23.000Z</time>
      </trkpt>
      <trkpt lat="44.04504" lon="6.92295">
        <ele>1812</ele>
        <time>2019-08-03T11:18:26.000Z</time>
      </trkpt>
      <trkpt lat="44.04502" lon="6.92292">
        <ele>1813</ele>
        <time>2019-08-03T11:18:31.000Z</time>
      </trkpt>
      <trkpt lat="44.04502" lon="6.92292">
        <ele>1813</ele>
        <time>2019-08-03T11:18:32.000Z</time>
      </trkpt>
      <trkpt lat="44.04501" lon="6.9229">
        <ele>1813.1999511719</ele>
        <time>2019-08-03T11:18:35.000Z</time>
      </trkpt>
      <trkpt lat="44.045" lon="6.92289">
        <ele>1813.4000244141</ele>
        <time>2019-08-03T11:18:36.000Z</time>
      </trkpt>
      <trkpt lat="44.04499" lon="6.92279">
        <ele>1814.1999511719</ele>
        <time>2019-08-03T11:18:45.000Z</time>
      </trkpt>
      <trkpt lat="44.04498" lon="6.92275">
        <ele>1815.1999511719</ele>
        <time>2019-08-03T11:18:49.000Z</time>
      </trkpt>
      <trkpt lat="44.04497" lon="6.9227">
        <ele>1816</ele>
        <time>2019-08-03T11:18:53.000Z</time>
      </trkpt>
      <trkpt lat="44.04497" lon="6.92268">
        <ele>1816.1999511719</ele>
        <time>2019-08-03T11:18:55.000Z</time>
      </trkpt>
      <trkpt lat="44.04495" lon="6.9226">
        <ele>1816.5999755859</ele>
        <time>2019-08-03T11:19:01.000Z</time>
      </trkpt>
      <trkpt lat="44.04496" lon="6.92255">
        <ele>1817.4000244141</ele>
        <time>2019-08-03T11:19:06.000Z</time>
      </trkpt>
      <trkpt lat="44.04496" lon="6.92252">
        <ele>1817.8000488281</ele>
        <time>2019-08-03T11:19:09.000Z</time>
      </trkpt>
      <trkpt lat="44.04495" lon="6.92244">
        <ele>1818.5999755859</ele>
        <time>2019-08-03T11:19:15.000Z</time>
      </trkpt>
      <trkpt lat="44.04495" lon="6.9224">
        <ele>1819</ele>
        <time>2019-08-03T11:19:18.000Z</time>
      </trkpt>
      <trkpt lat="44.04494" lon="6.92239">
        <ele>1819</ele>
        <time>2019-08-03T11:19:19.000Z</time>
      </trkpt>
      <trkpt lat="44.04494" lon="6.92238">
        <ele>1819.1999511719</ele>
        <time>2019-08-03T11:19:20.000Z</time>
      </trkpt>
      <trkpt lat="44.04492" lon="6.92228">
        <ele>1819.4000244141</ele>
        <time>2019-08-03T11:19:25.000Z</time>
      </trkpt>
      <trkpt lat="44.04492" lon="6.92226">
        <ele>1819.5999755859</ele>
        <time>2019-08-03T11:19:26.000Z</time>
      </trkpt>
      <trkpt lat="44.04492" lon="6.92224">
        <ele>1819.5999755859</ele>
        <time>2019-08-03T11:19:27.000Z</time>
      </trkpt>
      <trkpt lat="44.04494" lon="6.92218">
        <ele>1820</ele>
        <time>2019-08-03T11:19:31.000Z</time>
      </trkpt>
      <trkpt lat="44.04496" lon="6.92212">
        <ele>1820.8000488281</ele>
        <time>2019-08-03T11:19:34.000Z</time>
      </trkpt>
      <trkpt lat="44.04494" lon="6.92206">
        <ele>1820.5999755859</ele>
        <time>2019-08-03T11:19:36.000Z</time>
      </trkpt>
      <trkpt lat="44.04488" lon="6.92187">
        <ele>1819.1999511719</ele>
        <time>2019-08-03T11:19:40.000Z</time>
      </trkpt>
      <trkpt lat="44.04486" lon="6.92181">
        <ele>1818.8000488281</ele>
        <time>2019-08-03T11:19:41.000Z</time>
      </trkpt>
      <trkpt lat="44.04484" lon="6.92175">
        <ele>1818</ele>
        <time>2019-08-03T11:19:42.000Z</time>
      </trkpt>
      <trkpt lat="44.04484" lon="6.92168">
        <ele>1817.5999755859</ele>
        <time>2019-08-03T11:19:43.000Z</time>
      </trkpt>
      <trkpt lat="44.04484" lon="6.92161">
        <ele>1816.4000244141</ele>
        <time>2019-08-03T11:19:44.000Z</time>
      </trkpt>
      <trkpt lat="44.04485" lon="6.92147">
        <ele>1815.5999755859</ele>
        <time>2019-08-03T11:19:46.000Z</time>
      </trkpt>
      <trkpt lat="44.04485" lon="6.92139">
        <ele>1815.4000244141</ele>
        <time>2019-08-03T11:19:47.000Z</time>
      </trkpt>
      <trkpt lat="44.04484" lon="6.92133">
        <ele>1814.1999511719</ele>
        <time>2019-08-03T11:19:48.000Z</time>
      </trkpt>
      <trkpt lat="44.04483" lon="6.92128">
        <ele>1813</ele>
        <time>2019-08-03T11:19:49.000Z</time>
      </trkpt>
      <trkpt lat="44.04481" lon="6.92123">
        <ele>1812.1999511719</ele>
        <time>2019-08-03T11:19:50.000Z</time>
      </trkpt>
      <trkpt lat="44.0448" lon="6.92119">
        <ele>1811.5999755859</ele>
        <time>2019-08-03T11:19:51.000Z</time>
      </trkpt>
      <trkpt lat="44.04472" lon="6.92085">
        <ele>1812</ele>
        <time>2019-08-03T11:19:57.000Z</time>
      </trkpt>
      <trkpt lat="44.04469" lon="6.92066">
        <ele>1811</ele>
        <time>2019-08-03T11:20:01.000Z</time>
      </trkpt>
      <trkpt lat="44.04468" lon="6.92063">
        <ele>1810.4000244141</ele>
        <time>2019-08-03T11:20:02.000Z</time>
      </trkpt>
      <trkpt lat="44.04461" lon="6.92044">
        <ele>1810.5999755859</ele>
        <time>2019-08-03T11:20:09.000Z</time>
      </trkpt>
      <trkpt lat="44.04455" lon="6.9203">
        <ele>1810.8000488281</ele>
        <time>2019-08-03T11:20:15.000Z</time>
      </trkpt>
      <trkpt lat="44.04448" lon="6.92016">
        <ele>1811.1999511719</ele>
        <time>2019-08-03T11:20:20.000Z</time>
      </trkpt>
      <trkpt lat="44.0444" lon="6.92003">
        <ele>1811</ele>
        <time>2019-08-03T11:20:26.000Z</time>
      </trkpt>
      <trkpt lat="44.04433" lon="6.91995">
        <ele>1811.4000244141</ele>
        <time>2019-08-03T11:20:31.000Z</time>
      </trkpt>
      <trkpt lat="44.04431" lon="6.91993">
        <ele>1811.4000244141</ele>
        <time>2019-08-03T11:20:32.000Z</time>
      </trkpt>
      <trkpt lat="44.0443" lon="6.91992">
        <ele>1811.8000488281</ele>
        <time>2019-08-03T11:20:33.000Z</time>
      </trkpt>
      <trkpt lat="44.04426" lon="6.91994">
        <ele>1811.8000488281</ele>
        <time>2019-08-03T11:20:35.000Z</time>
      </trkpt>
      <trkpt lat="44.04427" lon="6.91994">
        <ele>1811.1999511719</ele>
        <time>2019-08-03T11:20:37.000Z</time>
      </trkpt>
      <trkpt lat="44.04426" lon="6.91997">
        <ele>1811</ele>
        <time>2019-08-03T11:20:39.000Z</time>
      </trkpt>
      <trkpt lat="44.04424" lon="6.92007">
        <ele>1812.1999511719</ele>
        <time>2019-08-03T11:20:45.000Z</time>
      </trkpt>
      <trkpt lat="44.0442" lon="6.92009">
        <ele>1812.5999755859</ele>
        <time>2019-08-03T11:20:49.000Z</time>
      </trkpt>
      <trkpt lat="44.04419" lon="6.9201">
        <ele>1812.8000488281</ele>
        <time>2019-08-03T11:20:50.000Z</time>
      </trkpt>
      <trkpt lat="44.04416" lon="6.92012">
        <ele>1813.1999511719</ele>
        <time>2019-08-03T11:20:53.000Z</time>
      </trkpt>
      <trkpt lat="44.04413" lon="6.92014">
        <ele>1813.5999755859</ele>
        <time>2019-08-03T11:20:57.000Z</time>
      </trkpt>
      <trkpt lat="44.04413" lon="6.92014">
        <ele>1813.8000488281</ele>
        <time>2019-08-03T11:20:58.000Z</time>
      </trkpt>
      <trkpt lat="44.04405" lon="6.92018">
        <ele>1814</ele>
        <time>2019-08-03T11:21:03.000Z</time>
      </trkpt>
      <trkpt lat="44.04401" lon="6.92019">
        <ele>1814.4000244141</ele>
        <time>2019-08-03T11:21:06.000Z</time>
      </trkpt>
      <trkpt lat="44.04399" lon="6.92018">
        <ele>1815</ele>
        <time>2019-08-03T11:21:08.000Z</time>
      </trkpt>
      <trkpt lat="44.04394" lon="6.92013">
        <ele>1816</ele>
        <time>2019-08-03T11:21:13.000Z</time>
      </trkpt>
      <trkpt lat="44.04394" lon="6.92013">
        <ele>1816.4000244141</ele>
        <time>2019-08-03T11:21:15.000Z</time>
      </trkpt>
      <trkpt lat="44.04391" lon="6.92012">
        <ele>1817.1999511719</ele>
        <time>2019-08-03T11:21:18.000Z</time>
      </trkpt>
      <trkpt lat="44.04389" lon="6.92012">
        <ele>1817.5999755859</ele>
        <time>2019-08-03T11:21:21.000Z</time>
      </trkpt>
      <trkpt lat="44.04386" lon="6.92012">
        <ele>1818.1999511719</ele>
        <time>2019-08-03T11:21:24.000Z</time>
      </trkpt>
      <trkpt lat="44.04382" lon="6.92012">
        <ele>1819</ele>
        <time>2019-08-03T11:21:29.000Z</time>
      </trkpt>
      <trkpt lat="44.04381" lon="6.92013">
        <ele>1819.4000244141</ele>
        <time>2019-08-03T11:21:31.000Z</time>
      </trkpt>
      <trkpt lat="44.04377" lon="6.92015">
        <ele>1820.5999755859</ele>
        <time>2019-08-03T11:21:36.000Z</time>
      </trkpt>
      <trkpt lat="44.04376" lon="6.92015">
        <ele>1821</ele>
        <time>2019-08-03T11:21:38.000Z</time>
      </trkpt>
      <trkpt lat="44.04373" lon="6.92015">
        <ele>1821.8000488281</ele>
        <time>2019-08-03T11:21:42.000Z</time>
      </trkpt>
      <trkpt lat="44.04369" lon="6.92014">
        <ele>1822.8000488281</ele>
        <time>2019-08-03T11:21:47.000Z</time>
      </trkpt>
      <trkpt lat="44.04363" lon="6.92014">
        <ele>1824</ele>
        <time>2019-08-03T11:21:53.000Z</time>
      </trkpt>
      <trkpt lat="44.04361" lon="6.92013">
        <ele>1824.4000244141</ele>
        <time>2019-08-03T11:21:55.000Z</time>
      </trkpt>
      <trkpt lat="44.04355" lon="6.92013">
        <ele>1825.1999511719</ele>
        <time>2019-08-03T11:22:01.000Z</time>
      </trkpt>
      <trkpt lat="44.04351" lon="6.92013">
        <ele>1826.1999511719</ele>
        <time>2019-08-03T11:22:07.000Z</time>
      </trkpt>
      <trkpt lat="44.04348" lon="6.92013">
        <ele>1827.1999511719</ele>
        <time>2019-08-03T11:22:11.000Z</time>
      </trkpt>
      <trkpt lat="44.04344" lon="6.92013">
        <ele>1828.4000244141</ele>
        <time>2019-08-03T11:22:17.000Z</time>
      </trkpt>
      <trkpt lat="44.04341" lon="6.92014">
        <ele>1829</ele>
        <time>2019-08-03T11:22:21.000Z</time>
      </trkpt>
      <trkpt lat="44.04338" lon="6.92014">
        <ele>1829.4000244141</ele>
        <time>2019-08-03T11:22:25.000Z</time>
      </trkpt>
      <trkpt lat="44.04333" lon="6.92015">
        <ele>1830.5999755859</ele>
        <time>2019-08-03T11:22:31.000Z</time>
      </trkpt>
      <trkpt lat="44.04331" lon="6.92015">
        <ele>1831</ele>
        <time>2019-08-03T11:22:33.000Z</time>
      </trkpt>
      <trkpt lat="44.04328" lon="6.92014">
        <ele>1831.5999755859</ele>
        <time>2019-08-03T11:22:38.000Z</time>
      </trkpt>
      <trkpt lat="44.04324" lon="6.92014">
        <ele>1832.4000244141</ele>
        <time>2019-08-03T11:22:43.000Z</time>
      </trkpt>
      <trkpt lat="44.04322" lon="6.92014">
        <ele>1833</ele>
        <time>2019-08-03T11:22:45.000Z</time>
      </trkpt>
      <trkpt lat="44.04319" lon="6.92015">
        <ele>1834</ele>
        <time>2019-08-03T11:22:49.000Z</time>
      </trkpt>
      <trkpt lat="44.04316" lon="6.92015">
        <ele>1834.8000488281</ele>
        <time>2019-08-03T11:22:53.000Z</time>
      </trkpt>
      <trkpt lat="44.04315" lon="6.92015">
        <ele>1835</ele>
        <time>2019-08-03T11:22:54.000Z</time>
      </trkpt>
      <trkpt lat="44.04309" lon="6.92015">
        <ele>1836.1999511719</ele>
        <time>2019-08-03T11:23:01.000Z</time>
      </trkpt>
      <trkpt lat="44.04306" lon="6.92016">
        <ele>1836.4000244141</ele>
        <time>2019-08-03T11:23:03.000Z</time>
      </trkpt>
      <trkpt lat="44.04302" lon="6.92019">
        <ele>1837.1999511719</ele>
        <time>2019-08-03T11:23:09.000Z</time>
      </trkpt>
      <trkpt lat="44.043" lon="6.9202">
        <ele>1837.5999755859</ele>
        <time>2019-08-03T11:23:12.000Z</time>
      </trkpt>
      <trkpt lat="44.04297" lon="6.92021">
        <ele>1838.4000244141</ele>
        <time>2019-08-03T11:23:16.000Z</time>
      </trkpt>
      <trkpt lat="44.04293" lon="6.92022">
        <ele>1839.1999511719</ele>
        <time>2019-08-03T11:23:21.000Z</time>
      </trkpt>
      <trkpt lat="44.04292" lon="6.92022">
        <ele>1839.4000244141</ele>
        <time>2019-08-03T11:23:22.000Z</time>
      </trkpt>
      <trkpt lat="44.04287" lon="6.92022">
        <ele>1840.4000244141</ele>
        <time>2019-08-03T11:23:29.000Z</time>
      </trkpt>
      <trkpt lat="44.04285" lon="6.92023">
        <ele>1840.8000488281</ele>
        <time>2019-08-03T11:23:31.000Z</time>
      </trkpt>
      <trkpt lat="44.04277" lon="6.92024">
        <ele>1841.5999755859</ele>
        <time>2019-08-03T11:23:40.000Z</time>
      </trkpt>
      <trkpt lat="44.04272" lon="6.92026">
        <ele>1842.5999755859</ele>
        <time>2019-08-03T11:23:46.000Z</time>
      </trkpt>
      <trkpt lat="44.0427" lon="6.92027">
        <ele>1843.4000244141</ele>
        <time>2019-08-03T11:23:50.000Z</time>
      </trkpt>
      <trkpt lat="44.04269" lon="6.92027">
        <ele>1843.8000488281</ele>
        <time>2019-08-03T11:23:52.000Z</time>
      </trkpt>
      <trkpt lat="44.04266" lon="6.92029">
        <ele>1845</ele>
        <time>2019-08-03T11:23:57.000Z</time>
      </trkpt>
      <trkpt lat="44.04263" lon="6.9203">
        <ele>1846</ele>
        <time>2019-08-03T11:24:01.000Z</time>
      </trkpt>
      <trkpt lat="44.04262" lon="6.9203">
        <ele>1846</ele>
        <time>2019-08-03T11:24:02.000Z</time>
      </trkpt>
      <trkpt lat="44.04256" lon="6.92033">
        <ele>1847.1999511719</ele>
        <time>2019-08-03T11:24:10.000Z</time>
      </trkpt>
      <trkpt lat="44.04252" lon="6.92034">
        <ele>1848.1999511719</ele>
        <time>2019-08-03T11:24:15.000Z</time>
      </trkpt>
      <trkpt lat="44.04249" lon="6.92035">
        <ele>1849</ele>
        <time>2019-08-03T11:24:19.000Z</time>
      </trkpt>
      <trkpt lat="44.04248" lon="6.92035">
        <ele>1849.4000244141</ele>
        <time>2019-08-03T11:24:20.000Z</time>
      </trkpt>
      <trkpt lat="44.04245" lon="6.92037">
        <ele>1850.4000244141</ele>
        <time>2019-08-03T11:24:25.000Z</time>
      </trkpt>
      <trkpt lat="44.04242" lon="6.92039">
        <ele>1850.8000488281</ele>
        <time>2019-08-03T11:24:28.000Z</time>
      </trkpt>
      <trkpt lat="44.0424" lon="6.92041">
        <ele>1851.5999755859</ele>
        <time>2019-08-03T11:24:31.000Z</time>
      </trkpt>
      <trkpt lat="44.04236" lon="6.92044">
        <ele>1852.5999755859</ele>
        <time>2019-08-03T11:24:36.000Z</time>
      </trkpt>
      <trkpt lat="44.04234" lon="6.92045">
        <ele>1853</ele>
        <time>2019-08-03T11:24:39.000Z</time>
      </trkpt>
      <trkpt lat="44.04228" lon="6.92048">
        <ele>1853.8000488281</ele>
        <time>2019-08-03T11:24:45.000Z</time>
      </trkpt>
      <trkpt lat="44.04226" lon="6.92049">
        <ele>1853.8000488281</ele>
        <time>2019-08-03T11:24:47.000Z</time>
      </trkpt>
      <trkpt lat="44.04222" lon="6.92052">
        <ele>1854.8000488281</ele>
        <time>2019-08-03T11:24:54.000Z</time>
      </trkpt>
      <trkpt lat="44.04217" lon="6.92053">
        <ele>1856</ele>
        <time>2019-08-03T11:25:00.000Z</time>
      </trkpt>
      <trkpt lat="44.04216" lon="6.92053">
        <ele>1856.4000244141</ele>
        <time>2019-08-03T11:25:02.000Z</time>
      </trkpt>
      <trkpt lat="44.04211" lon="6.92053">
        <ele>1857.1999511719</ele>
        <time>2019-08-03T11:25:07.000Z</time>
      </trkpt>
      <trkpt lat="44.04206" lon="6.92055">
        <ele>1858</ele>
        <time>2019-08-03T11:25:12.000Z</time>
      </trkpt>
      <trkpt lat="44.04204" lon="6.92055">
        <ele>1858.1999511719</ele>
        <time>2019-08-03T11:25:15.000Z</time>
      </trkpt>
      <trkpt lat="44.042" lon="6.92055">
        <ele>1858.5999755859</ele>
        <time>2019-08-03T11:25:20.000Z</time>
      </trkpt>
      <trkpt lat="44.04197" lon="6.92056">
        <ele>1859.1999511719</ele>
        <time>2019-08-03T11:25:23.000Z</time>
      </trkpt>
      <trkpt lat="44.04191" lon="6.92057">
        <ele>1860.4000244141</ele>
        <time>2019-08-03T11:25:29.000Z</time>
      </trkpt>
      <trkpt lat="44.0419" lon="6.92058">
        <ele>1860.8000488281</ele>
        <time>2019-08-03T11:25:34.000Z</time>
      </trkpt>
      <trkpt lat="44.04184" lon="6.92058">
        <ele>1860.5999755859</ele>
        <time>2019-08-03T11:25:39.000Z</time>
      </trkpt>
      <trkpt lat="44.04177" lon="6.92054">
        <ele>1861.5999755859</ele>
        <time>2019-08-03T11:25:44.000Z</time>
      </trkpt>
      <trkpt lat="44.04176" lon="6.92053">
        <ele>1861.8000488281</ele>
        <time>2019-08-03T11:25:45.000Z</time>
      </trkpt>
      <trkpt lat="44.04173" lon="6.92053">
        <ele>1862.1999511719</ele>
        <time>2019-08-03T11:25:50.000Z</time>
      </trkpt>
      <trkpt lat="44.04173" lon="6.92054">
        <ele>1862</ele>
        <time>2019-08-03T11:25:51.000Z</time>
      </trkpt>
      <trkpt lat="44.04169" lon="6.92058">
        <ele>1862.1999511719</ele>
        <time>2019-08-03T11:25:55.000Z</time>
      </trkpt>
      <trkpt lat="44.04164" lon="6.9206">
        <ele>1862.4000244141</ele>
        <time>2019-08-03T11:26:00.000Z</time>
      </trkpt>
      <trkpt lat="44.04157" lon="6.92058">
        <ele>1860.8000488281</ele>
        <time>2019-08-03T11:26:06.000Z</time>
      </trkpt>
      <trkpt lat="44.04156" lon="6.92059">
        <ele>1860.5999755859</ele>
        <time>2019-08-03T11:26:07.000Z</time>
      </trkpt>
      <trkpt lat="44.04154" lon="6.92062">
        <ele>1860.8000488281</ele>
        <time>2019-08-03T11:26:10.000Z</time>
      </trkpt>
      <trkpt lat="44.04149" lon="6.92069">
        <ele>1861.1999511719</ele>
        <time>2019-08-03T11:26:15.000Z</time>
      </trkpt>
      <trkpt lat="44.04141" lon="6.92072">
        <ele>1861.5999755859</ele>
        <time>2019-08-03T11:26:21.000Z</time>
      </trkpt>
      <trkpt lat="44.04133" lon="6.9208">
        <ele>1862.1999511719</ele>
        <time>2019-08-03T11:26:27.000Z</time>
      </trkpt>
      <trkpt lat="44.04128" lon="6.92083">
        <ele>1862.5999755859</ele>
        <time>2019-08-03T11:26:30.000Z</time>
      </trkpt>
      <trkpt lat="44.04123" lon="6.92089">
        <ele>1863</ele>
        <time>2019-08-03T11:26:33.000Z</time>
      </trkpt>
      <trkpt lat="44.04115" lon="6.92097">
        <ele>1863</ele>
        <time>2019-08-03T11:26:38.000Z</time>
      </trkpt>
      <trkpt lat="44.04113" lon="6.92102">
        <ele>1863.5999755859</ele>
        <time>2019-08-03T11:26:41.000Z</time>
      </trkpt>
      <trkpt lat="44.0411" lon="6.92104">
        <ele>1864.5999755859</ele>
        <time>2019-08-03T11:26:44.000Z</time>
      </trkpt>
      <trkpt lat="44.04109" lon="6.92104">
        <ele>1864.8000488281</ele>
        <time>2019-08-03T11:26:45.000Z</time>
      </trkpt>
      <trkpt lat="44.04105" lon="6.92105">
        <ele>1865.4000244141</ele>
        <time>2019-08-03T11:26:51.000Z</time>
      </trkpt>
      <trkpt lat="44.04102" lon="6.92105">
        <ele>1866</ele>
        <time>2019-08-03T11:26:54.000Z</time>
      </trkpt>
      <trkpt lat="44.04099" lon="6.92105">
        <ele>1867</ele>
        <time>2019-08-03T11:26:58.000Z</time>
      </trkpt>
      <trkpt lat="44.04097" lon="6.92105">
        <ele>1867.4000244141</ele>
        <time>2019-08-03T11:27:01.000Z</time>
      </trkpt>
      <trkpt lat="44.04094" lon="6.92106">
        <ele>1868</ele>
        <time>2019-08-03T11:27:04.000Z</time>
      </trkpt>
      <trkpt lat="44.04091" lon="6.92108">
        <ele>1868.8000488281</ele>
        <time>2019-08-03T11:27:08.000Z</time>
      </trkpt>
      <trkpt lat="44.0409" lon="6.92108">
        <ele>1869.1999511719</ele>
        <time>2019-08-03T11:27:09.000Z</time>
      </trkpt>
      <trkpt lat="44.04087" lon="6.92109">
        <ele>1869.8000488281</ele>
        <time>2019-08-03T11:27:14.000Z</time>
      </trkpt>
      <trkpt lat="44.04083" lon="6.92111">
        <ele>1870.1999511719</ele>
        <time>2019-08-03T11:27:17.000Z</time>
      </trkpt>
      <trkpt lat="44.04076" lon="6.92113">
        <ele>1870.5999755859</ele>
        <time>2019-08-03T11:27:21.000Z</time>
      </trkpt>
      <trkpt lat="44.04069" lon="6.92115">
        <ele>1871.1999511719</ele>
        <time>2019-08-03T11:27:25.000Z</time>
      </trkpt>
      <trkpt lat="44.04064" lon="6.92116">
        <ele>1871.4000244141</ele>
        <time>2019-08-03T11:27:28.000Z</time>
      </trkpt>
      <trkpt lat="44.04053" lon="6.92121">
        <ele>1872.1999511719</ele>
        <time>2019-08-03T11:27:35.000Z</time>
      </trkpt>
      <trkpt lat="44.04045" lon="6.92123">
        <ele>1873.1999511719</ele>
        <time>2019-08-03T11:27:41.000Z</time>
      </trkpt>
      <trkpt lat="44.04044" lon="6.92124">
        <ele>1873.1999511719</ele>
        <time>2019-08-03T11:27:42.000Z</time>
      </trkpt>
      <trkpt lat="44.04035" lon="6.92128">
        <ele>1874.1999511719</ele>
        <time>2019-08-03T11:27:49.000Z</time>
      </trkpt>
      <trkpt lat="44.04033" lon="6.92129">
        <ele>1874.1999511719</ele>
        <time>2019-08-03T11:27:50.000Z</time>
      </trkpt>
      <trkpt lat="44.04027" lon="6.92131">
        <ele>1875.1999511719</ele>
        <time>2019-08-03T11:27:55.000Z</time>
      </trkpt>
      <trkpt lat="44.04026" lon="6.92131">
        <ele>1875.4000244141</ele>
        <time>2019-08-03T11:27:56.000Z</time>
      </trkpt>
      <trkpt lat="44.04017" lon="6.92133">
        <ele>1876.4000244141</ele>
        <time>2019-08-03T11:28:03.000Z</time>
      </trkpt>
      <trkpt lat="44.04007" lon="6.92135">
        <ele>1877.4000244141</ele>
        <time>2019-08-03T11:28:10.000Z</time>
      </trkpt>
      <trkpt lat="44.04006" lon="6.92135">
        <ele>1877.5999755859</ele>
        <time>2019-08-03T11:28:11.000Z</time>
      </trkpt>
      <trkpt lat="44.04" lon="6.92136">
        <ele>1878.4000244141</ele>
        <time>2019-08-03T11:28:16.000Z</time>
      </trkpt>
      <trkpt lat="44.03999" lon="6.92136">
        <ele>1878.5999755859</ele>
        <time>2019-08-03T11:28:17.000Z</time>
      </trkpt>
      <trkpt lat="44.03992" lon="6.92136">
        <ele>1879.5999755859</ele>
        <time>2019-08-03T11:28:23.000Z</time>
      </trkpt>
      <trkpt lat="44.03989" lon="6.92137">
        <ele>1880</ele>
        <time>2019-08-03T11:28:25.000Z</time>
      </trkpt>
      <trkpt lat="44.03982" lon="6.92139">
        <ele>1880.4000244141</ele>
        <time>2019-08-03T11:28:31.000Z</time>
      </trkpt>
      <trkpt lat="44.03975" lon="6.92141">
        <ele>1880.5999755859</ele>
        <time>2019-08-03T11:28:36.000Z</time>
      </trkpt>
      <trkpt lat="44.03971" lon="6.92142">
        <ele>1880.8000488281</ele>
        <time>2019-08-03T11:28:38.000Z</time>
      </trkpt>
      <trkpt lat="44.03967" lon="6.92144">
        <ele>1881.1999511719</ele>
        <time>2019-08-03T11:28:40.000Z</time>
      </trkpt>
      <trkpt lat="44.03959" lon="6.92146">
        <ele>1881.8000488281</ele>
        <time>2019-08-03T11:28:46.000Z</time>
      </trkpt>
      <trkpt lat="44.03957" lon="6.92146">
        <ele>1882</ele>
        <time>2019-08-03T11:28:47.000Z</time>
      </trkpt>
      <trkpt lat="44.0395" lon="6.92148">
        <ele>1883</ele>
        <time>2019-08-03T11:28:53.000Z</time>
      </trkpt>
      <trkpt lat="44.03948" lon="6.92149">
        <ele>1883.1999511719</ele>
        <time>2019-08-03T11:28:54.000Z</time>
      </trkpt>
      <trkpt lat="44.03939" lon="6.92153">
        <ele>1883.5999755859</ele>
        <time>2019-08-03T11:29:00.000Z</time>
      </trkpt>
      <trkpt lat="44.03934" lon="6.92157">
        <ele>1884.1999511719</ele>
        <time>2019-08-03T11:29:03.000Z</time>
      </trkpt>
      <trkpt lat="44.03927" lon="6.9216">
        <ele>1884.4000244141</ele>
        <time>2019-08-03T11:29:07.000Z</time>
      </trkpt>
      <trkpt lat="44.03911" lon="6.92164">
        <ele>1885.1999511719</ele>
        <time>2019-08-03T11:29:16.000Z</time>
      </trkpt>
      <trkpt lat="44.03909" lon="6.92165">
        <ele>1885.4000244141</ele>
        <time>2019-08-03T11:29:17.000Z</time>
      </trkpt>
      <trkpt lat="44.03901" lon="6.92169">
        <ele>1886.4000244141</ele>
        <time>2019-08-03T11:29:22.000Z</time>
      </trkpt>
      <trkpt lat="44.03895" lon="6.9217">
        <ele>1886.4000244141</ele>
        <time>2019-08-03T11:29:25.000Z</time>
      </trkpt>
      <trkpt lat="44.03883" lon="6.92172">
        <ele>1886.5999755859</ele>
        <time>2019-08-03T11:29:32.000Z</time>
      </trkpt>
      <trkpt lat="44.03876" lon="6.92173">
        <ele>1886.8000488281</ele>
        <time>2019-08-03T11:29:37.000Z</time>
      </trkpt>
      <trkpt lat="44.03862" lon="6.92174">
        <ele>1887</ele>
        <time>2019-08-03T11:29:43.000Z</time>
      </trkpt>
      <trkpt lat="44.03843" lon="6.92174">
        <ele>1886.5999755859</ele>
        <time>2019-08-03T11:29:48.000Z</time>
      </trkpt>
      <trkpt lat="44.03827" lon="6.92173">
        <ele>1885.1999511719</ele>
        <time>2019-08-03T11:29:52.000Z</time>
      </trkpt>
      <trkpt lat="44.03819" lon="6.92175">
        <ele>1883.8000488281</ele>
        <time>2019-08-03T11:29:54.000Z</time>
      </trkpt>
      <trkpt lat="44.03804" lon="6.92181">
        <ele>1883.1999511719</ele>
        <time>2019-08-03T11:29:58.000Z</time>
      </trkpt>
      <trkpt lat="44.038" lon="6.92183">
        <ele>1883.1999511719</ele>
        <time>2019-08-03T11:29:59.000Z</time>
      </trkpt>
      <trkpt lat="44.03792" lon="6.92188">
        <ele>1882.4000244141</ele>
        <time>2019-08-03T11:30:01.000Z</time>
      </trkpt>
      <trkpt lat="44.03782" lon="6.92194">
        <ele>1881.5999755859</ele>
        <time>2019-08-03T11:30:04.000Z</time>
      </trkpt>
      <trkpt lat="44.03779" lon="6.92196">
        <ele>1881</ele>
        <time>2019-08-03T11:30:05.000Z</time>
      </trkpt>
      <trkpt lat="44.03768" lon="6.92198">
        <ele>1882</ele>
        <time>2019-08-03T11:30:09.000Z</time>
      </trkpt>
      <trkpt lat="44.03764" lon="6.92198">
        <ele>1882</ele>
        <time>2019-08-03T11:30:11.000Z</time>
      </trkpt>
      <trkpt lat="44.03761" lon="6.92201">
        <ele>1882</ele>
        <time>2019-08-03T11:30:13.000Z</time>
      </trkpt>
      <trkpt lat="44.03755" lon="6.92203">
        <ele>1882.1999511719</ele>
        <time>2019-08-03T11:30:16.000Z</time>
      </trkpt>
      <trkpt lat="44.0375" lon="6.92207">
        <ele>1882.8000488281</ele>
        <time>2019-08-03T11:30:18.000Z</time>
      </trkpt>
      <trkpt lat="44.03743" lon="6.9222">
        <ele>1883.1999511719</ele>
        <time>2019-08-03T11:30:22.000Z</time>
      </trkpt>
      <trkpt lat="44.0374" lon="6.92224">
        <ele>1883.1999511719</ele>
        <time>2019-08-03T11:30:23.000Z</time>
      </trkpt>
      <trkpt lat="44.03731" lon="6.92238">
        <ele>1882.5999755859</ele>
        <time>2019-08-03T11:30:27.000Z</time>
      </trkpt>
      <trkpt lat="44.03722" lon="6.92251">
        <ele>1883.4000244141</ele>
        <time>2019-08-03T11:30:33.000Z</time>
      </trkpt>
      <trkpt lat="44.03714" lon="6.92265">
        <ele>1884.4000244141</ele>
        <time>2019-08-03T11:30:39.000Z</time>
      </trkpt>
      <trkpt lat="44.03712" lon="6.92267">
        <ele>1884.5999755859</ele>
        <time>2019-08-03T11:30:40.000Z</time>
      </trkpt>
      <trkpt lat="44.03706" lon="6.92279">
        <ele>1885</ele>
        <time>2019-08-03T11:30:44.000Z</time>
      </trkpt>
      <trkpt lat="44.03701" lon="6.92288">
        <ele>1885.5999755859</ele>
        <time>2019-08-03T11:30:47.000Z</time>
      </trkpt>
      <trkpt lat="44.03695" lon="6.92296">
        <ele>1886</ele>
        <time>2019-08-03T11:30:50.000Z</time>
      </trkpt>
      <trkpt lat="44.03686" lon="6.9231">
        <ele>1886.1999511719</ele>
        <time>2019-08-03T11:30:56.000Z</time>
      </trkpt>
      <trkpt lat="44.03676" lon="6.92327">
        <ele>1886.5999755859</ele>
        <time>2019-08-03T11:31:04.000Z</time>
      </trkpt>
      <trkpt lat="44.03674" lon="6.9233">
        <ele>1886.8000488281</ele>
        <time>2019-08-03T11:31:05.000Z</time>
      </trkpt>
      <trkpt lat="44.03666" lon="6.92342">
        <ele>1887.8000488281</ele>
        <time>2019-08-03T11:31:10.000Z</time>
      </trkpt>
      <trkpt lat="44.03664" lon="6.92344">
        <ele>1888</ele>
        <time>2019-08-03T11:31:11.000Z</time>
      </trkpt>
      <trkpt lat="44.03654" lon="6.92358">
        <ele>1888.4000244141</ele>
        <time>2019-08-03T11:31:18.000Z</time>
      </trkpt>
      <trkpt lat="44.0365" lon="6.92363">
        <ele>1888.8000488281</ele>
        <time>2019-08-03T11:31:22.000Z</time>
      </trkpt>
      <trkpt lat="44.03646" lon="6.92365">
        <ele>1889.8000488281</ele>
        <time>2019-08-03T11:31:25.000Z</time>
      </trkpt>
      <trkpt lat="44.03644" lon="6.92366">
        <ele>1890</ele>
        <time>2019-08-03T11:31:26.000Z</time>
      </trkpt>
      <trkpt lat="44.03636" lon="6.92368">
        <ele>1890.8000488281</ele>
        <time>2019-08-03T11:31:31.000Z</time>
      </trkpt>
      <trkpt lat="44.03628" lon="6.92368">
        <ele>1891</ele>
        <time>2019-08-03T11:31:36.000Z</time>
      </trkpt>
      <trkpt lat="44.03616" lon="6.92371">
        <ele>1891.1999511719</ele>
        <time>2019-08-03T11:31:40.000Z</time>
      </trkpt>
      <trkpt lat="44.03604" lon="6.9237">
        <ele>1890.4000244141</ele>
        <time>2019-08-03T11:31:45.000Z</time>
      </trkpt>
      <trkpt lat="44.03596" lon="6.92367">
        <ele>1891</ele>
        <time>2019-08-03T11:31:50.000Z</time>
      </trkpt>
      <trkpt lat="44.03584" lon="6.92367">
        <ele>1892.5999755859</ele>
        <time>2019-08-03T11:31:57.000Z</time>
      </trkpt>
      <trkpt lat="44.03573" lon="6.92368">
        <ele>1892.5999755859</ele>
        <time>2019-08-03T11:32:03.000Z</time>
      </trkpt>
      <trkpt lat="44.03558" lon="6.92371">
        <ele>1893.4000244141</ele>
        <time>2019-08-03T11:32:11.000Z</time>
      </trkpt>
      <trkpt lat="44.03546" lon="6.92373">
        <ele>1893.8000488281</ele>
        <time>2019-08-03T11:32:18.000Z</time>
      </trkpt>
      <trkpt lat="44.03544" lon="6.92373">
        <ele>1894</ele>
        <time>2019-08-03T11:32:19.000Z</time>
      </trkpt>
      <trkpt lat="44.03536" lon="6.92374">
        <ele>1893.8000488281</ele>
        <time>2019-08-03T11:32:24.000Z</time>
      </trkpt>
      <trkpt lat="44.03535" lon="6.92376">
        <ele>1893.5999755859</ele>
        <time>2019-08-03T11:32:25.000Z</time>
      </trkpt>
      <trkpt lat="44.03533" lon="6.9238">
        <ele>1893.5999755859</ele>
        <time>2019-08-03T11:32:27.000Z</time>
      </trkpt>
      <trkpt lat="44.03529" lon="6.92384">
        <ele>1893.8000488281</ele>
        <time>2019-08-03T11:32:30.000Z</time>
      </trkpt>
      <trkpt lat="44.03523" lon="6.92389">
        <ele>1895</ele>
        <time>2019-08-03T11:32:34.000Z</time>
      </trkpt>
      <trkpt lat="44.03518" lon="6.92395">
        <ele>1895.8000488281</ele>
        <time>2019-08-03T11:32:38.000Z</time>
      </trkpt>
      <trkpt lat="44.03515" lon="6.92397">
        <ele>1896.1999511719</ele>
        <time>2019-08-03T11:32:40.000Z</time>
      </trkpt>
      <trkpt lat="44.0351" lon="6.92401">
        <ele>1897.4000244141</ele>
        <time>2019-08-03T11:32:44.000Z</time>
      </trkpt>
      <trkpt lat="44.03508" lon="6.92403">
        <ele>1897.5999755859</ele>
        <time>2019-08-03T11:32:46.000Z</time>
      </trkpt>
      <trkpt lat="44.03502" lon="6.92408">
        <ele>1898.4000244141</ele>
        <time>2019-08-03T11:32:51.000Z</time>
      </trkpt>
      <trkpt lat="44.03498" lon="6.9241">
        <ele>1899</ele>
        <time>2019-08-03T11:32:54.000Z</time>
      </trkpt>
      <trkpt lat="44.03494" lon="6.92413">
        <ele>1899.4000244141</ele>
        <time>2019-08-03T11:32:57.000Z</time>
      </trkpt>
      <trkpt lat="44.03489" lon="6.92417">
        <ele>1899.8000488281</ele>
        <time>2019-08-03T11:33:01.000Z</time>
      </trkpt>
      <trkpt lat="44.03482" lon="6.92421">
        <ele>1900.1999511719</ele>
        <time>2019-08-03T11:33:06.000Z</time>
      </trkpt>
      <trkpt lat="44.03481" lon="6.92422">
        <ele>1900.4000244141</ele>
        <time>2019-08-03T11:33:07.000Z</time>
      </trkpt>
      <trkpt lat="44.03475" lon="6.92427">
        <ele>1901.5999755859</ele>
        <time>2019-08-03T11:33:12.000Z</time>
      </trkpt>
      <trkpt lat="44.03473" lon="6.9243">
        <ele>1902</ele>
        <time>2019-08-03T11:33:14.000Z</time>
      </trkpt>
      <trkpt lat="44.03467" lon="6.92437">
        <ele>1902.5999755859</ele>
        <time>2019-08-03T11:33:19.000Z</time>
      </trkpt>
      <trkpt lat="44.03463" lon="6.92441">
        <ele>1902.8000488281</ele>
        <time>2019-08-03T11:33:22.000Z</time>
      </trkpt>
      <trkpt lat="44.03454" lon="6.92448">
        <ele>1903.8000488281</ele>
        <time>2019-08-03T11:33:30.000Z</time>
      </trkpt>
      <trkpt lat="44.03453" lon="6.92449">
        <ele>1903.8000488281</ele>
        <time>2019-08-03T11:33:31.000Z</time>
      </trkpt>
      <trkpt lat="44.03445" lon="6.92454">
        <ele>1904.8000488281</ele>
        <time>2019-08-03T11:33:39.000Z</time>
      </trkpt>
      <trkpt lat="44.03442" lon="6.92455">
        <ele>1905</ele>
        <time>2019-08-03T11:33:41.000Z</time>
      </trkpt>
      <trkpt lat="44.03438" lon="6.92458">
        <ele>1906</ele>
        <time>2019-08-03T11:33:45.000Z</time>
      </trkpt>
      <trkpt lat="44.03436" lon="6.92459">
        <ele>1906</ele>
        <time>2019-08-03T11:33:47.000Z</time>
      </trkpt>
      <trkpt lat="44.0343" lon="6.92463">
        <ele>1907</ele>
        <time>2019-08-03T11:33:53.000Z</time>
      </trkpt>
      <trkpt lat="44.03429" lon="6.92464">
        <ele>1907</ele>
        <time>2019-08-03T11:33:54.000Z</time>
      </trkpt>
      <trkpt lat="44.0342" lon="6.92468">
        <ele>1907.8000488281</ele>
        <time>2019-08-03T11:34:02.000Z</time>
      </trkpt>
      <trkpt lat="44.03419" lon="6.92468">
        <ele>1908.1999511719</ele>
        <time>2019-08-03T11:34:03.000Z</time>
      </trkpt>
      <trkpt lat="44.03417" lon="6.92469">
        <ele>1908.4000244141</ele>
        <time>2019-08-03T11:34:05.000Z</time>
      </trkpt>
      <trkpt lat="44.03413" lon="6.92471">
        <ele>1909</ele>
        <time>2019-08-03T11:34:08.000Z</time>
      </trkpt>
      <trkpt lat="44.03411" lon="6.92473">
        <ele>1909.1999511719</ele>
        <time>2019-08-03T11:34:10.000Z</time>
      </trkpt>
      <trkpt lat="44.03405" lon="6.92475">
        <ele>1910.1999511719</ele>
        <time>2019-08-03T11:34:15.000Z</time>
      </trkpt>
      <trkpt lat="44.03404" lon="6.92476">
        <ele>1910.4000244141</ele>
        <time>2019-08-03T11:34:16.000Z</time>
      </trkpt>
      <trkpt lat="44.03399" lon="6.92479">
        <ele>1911.4000244141</ele>
        <time>2019-08-03T11:34:21.000Z</time>
      </trkpt>
      <trkpt lat="44.03389" lon="6.92483">
        <ele>1912.4000244141</ele>
        <time>2019-08-03T11:34:29.000Z</time>
      </trkpt>
      <trkpt lat="44.03388" lon="6.92484">
        <ele>1912.4000244141</ele>
        <time>2019-08-03T11:34:30.000Z</time>
      </trkpt>
      <trkpt lat="44.03381" lon="6.92487">
        <ele>1913.4000244141</ele>
        <time>2019-08-03T11:34:37.000Z</time>
      </trkpt>
      <trkpt lat="44.03377" lon="6.9249">
        <ele>1914.5999755859</ele>
        <time>2019-08-03T11:34:41.000Z</time>
      </trkpt>
      <trkpt lat="44.03375" lon="6.92492">
        <ele>1915</ele>
        <time>2019-08-03T11:34:43.000Z</time>
      </trkpt>
      <trkpt lat="44.03373" lon="6.92493">
        <ele>1915.1999511719</ele>
        <time>2019-08-03T11:34:45.000Z</time>
      </trkpt>
      <trkpt lat="44.03371" lon="6.92495">
        <ele>1915.4000244141</ele>
        <time>2019-08-03T11:34:47.000Z</time>
      </trkpt>
      <trkpt lat="44.03369" lon="6.92497">
        <ele>1915.5999755859</ele>
        <time>2019-08-03T11:34:49.000Z</time>
      </trkpt>
      <trkpt lat="44.03367" lon="6.92499">
        <ele>1915.8000488281</ele>
        <time>2019-08-03T11:34:51.000Z</time>
      </trkpt>
      <trkpt lat="44.03365" lon="6.925">
        <ele>1916.1999511719</ele>
        <time>2019-08-03T11:34:53.000Z</time>
      </trkpt>
      <trkpt lat="44.03361" lon="6.92501">
        <ele>1916.8000488281</ele>
        <time>2019-08-03T11:34:57.000Z</time>
      </trkpt>
      <trkpt lat="44.03355" lon="6.92503">
        <ele>1917.5999755859</ele>
        <time>2019-08-03T11:35:02.000Z</time>
      </trkpt>
      <trkpt lat="44.03353" lon="6.92502">
        <ele>1917.8000488281</ele>
        <time>2019-08-03T11:35:04.000Z</time>
      </trkpt>
      <trkpt lat="44.03346" lon="6.92502">
        <ele>1918.5999755859</ele>
        <time>2019-08-03T11:35:10.000Z</time>
      </trkpt>
      <trkpt lat="44.03345" lon="6.92502">
        <ele>1919</ele>
        <time>2019-08-03T11:35:11.000Z</time>
      </trkpt>
      <trkpt lat="44.03339" lon="6.92501">
        <ele>1920</ele>
        <time>2019-08-03T11:35:16.000Z</time>
      </trkpt>
      <trkpt lat="44.03337" lon="6.92501">
        <ele>1920.4000244141</ele>
        <time>2019-08-03T11:35:18.000Z</time>
      </trkpt>
      <trkpt lat="44.03333" lon="6.925">
        <ele>1921</ele>
        <time>2019-08-03T11:35:22.000Z</time>
      </trkpt>
      <trkpt lat="44.03328" lon="6.92498">
        <ele>1921.4000244141</ele>
        <time>2019-08-03T11:35:26.000Z</time>
      </trkpt>
      <trkpt lat="44.03327" lon="6.92495">
        <ele>1921.4000244141</ele>
        <time>2019-08-03T11:35:31.000Z</time>
      </trkpt>
      <trkpt lat="44.03325" lon="6.92492">
        <ele>1921.5999755859</ele>
        <time>2019-08-03T11:35:37.000Z</time>
      </trkpt>
      <trkpt lat="44.03325" lon="6.92492">
        <ele>1922</ele>
        <time>2019-08-03T11:35:42.000Z</time>
      </trkpt>
      <trkpt lat="44.03325" lon="6.92493">
        <ele>1922.1999511719</ele>
        <time>2019-08-03T11:35:43.000Z</time>
      </trkpt>
      <trkpt lat="44.03325" lon="6.92492">
        <ele>1922.5999755859</ele>
        <time>2019-08-03T11:35:47.000Z</time>
      </trkpt>
      <trkpt lat="44.03325" lon="6.92492">
        <ele>1921.8000488281</ele>
        <time>2019-08-03T11:35:55.000Z</time>
      </trkpt>
      <trkpt lat="44.03326" lon="6.92491">
        <ele>1921.8000488281</ele>
        <time>2019-08-03T11:36:04.000Z</time>
      </trkpt>
      <trkpt lat="44.03325" lon="6.92491">
        <ele>1922.4000244141</ele>
        <time>2019-08-03T11:36:17.000Z</time>
      </trkpt>
      <trkpt lat="44.03325" lon="6.92491">
        <ele>1922.1999511719</ele>
        <time>2019-08-03T11:36:25.000Z</time>
      </trkpt>
      <trkpt lat="44.03326" lon="6.92491">
        <ele>1922.4000244141</ele>
        <time>2019-08-03T11:36:31.000Z</time>
      </trkpt>
      <trkpt lat="44.03326" lon="6.92491">
        <ele>1922.4000244141</ele>
        <time>2019-08-03T11:36:49.000Z</time>
      </trkpt>
      <trkpt lat="44.03325" lon="6.92492">
        <ele>1923.1999511719</ele>
        <time>2019-08-03T11:37:00.000Z</time>
      </trkpt>
      <trkpt lat="44.03326" lon="6.92491">
        <ele>1922.5999755859</ele>
        <time>2019-08-03T11:37:05.000Z</time>
      </trkpt>
      <trkpt lat="44.03326" lon="6.92491">
        <ele>1922.5999755859</ele>
        <time>2019-08-03T11:37:17.000Z</time>
      </trkpt>
      <trkpt lat="44.03326" lon="6.92491">
        <ele>1922.5999755859</ele>
        <time>2019-08-03T11:37:24.000Z</time>
      </trkpt>
      <trkpt lat="44.03326" lon="6.9249">
        <ele>1923.1999511719</ele>
        <time>2019-08-03T11:37:37.000Z</time>
      </trkpt>
      <trkpt lat="44.03326" lon="6.9249">
        <ele>1923.1999511719</ele>
        <time>2019-08-03T11:37:49.000Z</time>
      </trkpt>
      <trkpt lat="44.03326" lon="6.9249">
        <ele>1923.1999511719</ele>
        <time>2019-08-03T11:38:01.000Z</time>
      </trkpt>
      <trkpt lat="44.03326" lon="6.92491">
        <ele>1923.4000244141</ele>
        <time>2019-08-03T11:38:08.000Z</time>
      </trkpt>
      <trkpt lat="44.03326" lon="6.9249">
        <ele>1923.4000244141</ele>
        <time>2019-08-03T11:38:17.000Z</time>
      </trkpt>
      <trkpt lat="44.03326" lon="6.92491">
        <ele>1923.8000488281</ele>
        <time>2019-08-03T11:38:23.000Z</time>
      </trkpt>
      <trkpt lat="44.03326" lon="6.92491">
        <ele>1924.1999511719</ele>
        <time>2019-08-03T11:38:25.000Z</time>
      </trkpt>
      <trkpt lat="44.03326" lon="6.92491">
        <ele>1923.8000488281</ele>
        <time>2019-08-03T11:38:40.000Z</time>
      </trkpt>
      <trkpt lat="44.03326" lon="6.92491">
        <ele>1923.1999511719</ele>
        <time>2019-08-03T11:39:02.000Z</time>
      </trkpt>
      <trkpt lat="44.03326" lon="6.92491">
        <ele>1923.4000244141</ele>
        <time>2019-08-03T11:39:15.000Z</time>
      </trkpt>
      <trkpt lat="44.03326" lon="6.92491">
        <ele>1923.4000244141</ele>
        <time>2019-08-03T11:39:45.000Z</time>
      </trkpt>
      <trkpt lat="44.03326" lon="6.92491">
        <ele>1923.4000244141</ele>
        <time>2019-08-03T11:39:59.000Z</time>
      </trkpt>
      <trkpt lat="44.03326" lon="6.92491">
        <ele>1924.1999511719</ele>
        <time>2019-08-03T11:40:04.000Z</time>
      </trkpt>
      <trkpt lat="44.03326" lon="6.92491">
        <ele>1924.4000244141</ele>
        <time>2019-08-03T11:40:06.000Z</time>
      </trkpt>
      <trkpt lat="44.03327" lon="6.92491">
        <ele>1923.8000488281</ele>
        <time>2019-08-03T11:40:14.000Z</time>
      </trkpt>
      <trkpt lat="44.03327" lon="6.92491">
        <ele>1923.5999755859</ele>
        <time>2019-08-03T11:40:23.000Z</time>
      </trkpt>
      <trkpt lat="44.03327" lon="6.92491">
        <ele>1923.4000244141</ele>
        <time>2019-08-03T11:40:34.000Z</time>
      </trkpt>
      <trkpt lat="44.03327" lon="6.92491">
        <ele>1923.1999511719</ele>
        <time>2019-08-03T11:40:42.000Z</time>
      </trkpt>
      <trkpt lat="44.03327" lon="6.92491">
        <ele>1923.1999511719</ele>
        <time>2019-08-03T11:40:43.000Z</time>
      </trkpt>
      <trkpt lat="44.03327" lon="6.92491">
        <ele>1923.1999511719</ele>
        <time>2019-08-03T11:41:17.000Z</time>
      </trkpt>
      <trkpt lat="44.03326" lon="6.9249">
        <ele>1923.5999755859</ele>
        <time>2019-08-03T11:41:29.000Z</time>
      </trkpt>
      <trkpt lat="44.03326" lon="6.92491">
        <ele>1924.1999511719</ele>
        <time>2019-08-03T11:41:53.000Z</time>
      </trkpt>
      <trkpt lat="44.03326" lon="6.92491">
        <ele>1924.4000244141</ele>
        <time>2019-08-03T11:41:55.000Z</time>
      </trkpt>
      <trkpt lat="44.03325" lon="6.92491">
        <ele>1924.1999511719</ele>
        <time>2019-08-03T11:42:03.000Z</time>
      </trkpt>
      <trkpt lat="44.03325" lon="6.92491">
        <ele>1924.8000488281</ele>
        <time>2019-08-03T11:42:23.000Z</time>
      </trkpt>
      <trkpt lat="44.03325" lon="6.92491">
        <ele>1925.4000244141</ele>
        <time>2019-08-03T11:42:44.000Z</time>
      </trkpt>
      <trkpt lat="44.03325" lon="6.92491">
        <ele>1925.8000488281</ele>
        <time>2019-08-03T11:42:45.000Z</time>
      </trkpt>
      <trkpt lat="44.03325" lon="6.92491">
        <ele>1926.5999755859</ele>
        <time>2019-08-03T11:42:47.000Z</time>
      </trkpt>
      <trkpt lat="44.03325" lon="6.92491">
        <ele>1926.5999755859</ele>
        <time>2019-08-03T11:43:06.000Z</time>
      </trkpt>
      <trkpt lat="44.03325" lon="6.92491">
        <ele>1926</ele>
        <time>2019-08-03T11:43:13.000Z</time>
      </trkpt>
      <trkpt lat="44.03325" lon="6.92491">
        <ele>1925.4000244141</ele>
        <time>2019-08-03T11:43:14.000Z</time>
      </trkpt>
      <trkpt lat="44.03325" lon="6.92491">
        <ele>1926.4000244141</ele>
        <time>2019-08-03T11:43:24.000Z</time>
      </trkpt>
      <trkpt lat="44.03325" lon="6.92492">
        <ele>1926</ele>
        <time>2019-08-03T11:43:28.000Z</time>
      </trkpt>
      <trkpt lat="44.03325" lon="6.92491">
        <ele>1925.4000244141</ele>
        <time>2019-08-03T11:43:30.000Z</time>
      </trkpt>
      <trkpt lat="44.03325" lon="6.92492">
        <ele>1925.1999511719</ele>
        <time>2019-08-03T11:43:38.000Z</time>
      </trkpt>
      <trkpt lat="44.03325" lon="6.92492">
        <ele>1924.8000488281</ele>
        <time>2019-08-03T11:43:59.000Z</time>
      </trkpt>
      <trkpt lat="44.03325" lon="6.92492">
        <ele>1925.8000488281</ele>
        <time>2019-08-03T11:44:16.000Z</time>
      </trkpt>
      <trkpt lat="44.03325" lon="6.92492">
        <ele>1925.8000488281</ele>
        <time>2019-08-03T11:44:30.000Z</time>
      </trkpt>
      <trkpt lat="44.03325" lon="6.92492">
        <ele>1925.8000488281</ele>
        <time>2019-08-03T11:44:41.000Z</time>
      </trkpt>
      <trkpt lat="44.03325" lon="6.92492">
        <ele>1925.5999755859</ele>
        <time>2019-08-03T11:44:51.000Z</time>
      </trkpt>
      <trkpt lat="44.03325" lon="6.92492">
        <ele>1925.5999755859</ele>
        <time>2019-08-03T11:45:03.000Z</time>
      </trkpt>
      <trkpt lat="44.03325" lon="6.92493">
        <ele>1925.5999755859</ele>
        <time>2019-08-03T11:45:04.000Z</time>
      </trkpt>
      <trkpt lat="44.03325" lon="6.92493">
        <ele>1925.5999755859</ele>
        <time>2019-08-03T11:45:07.000Z</time>
      </trkpt>
      <trkpt lat="44.03325" lon="6.92493">
        <ele>1925.4000244141</ele>
        <time>2019-08-03T11:45:14.000Z</time>
      </trkpt>
      <trkpt lat="44.03325" lon="6.92492">
        <ele>1924.4000244141</ele>
        <time>2019-08-03T11:45:23.000Z</time>
      </trkpt>
      <trkpt lat="44.03325" lon="6.92492">
        <ele>1924.1999511719</ele>
        <time>2019-08-03T11:45:25.000Z</time>
      </trkpt>
      <trkpt lat="44.03325" lon="6.92492">
        <ele>1924.5999755859</ele>
        <time>2019-08-03T11:45:30.000Z</time>
      </trkpt>
      <trkpt lat="44.03325" lon="6.92493">
        <ele>1925.4000244141</ele>
        <time>2019-08-03T11:45:33.000Z</time>
      </trkpt>
      <trkpt lat="44.03325" lon="6.92493">
        <ele>1925.4000244141</ele>
        <time>2019-08-03T11:45:34.000Z</time>
      </trkpt>
      <trkpt lat="44.03325" lon="6.92493">
        <ele>1926.5999755859</ele>
        <time>2019-08-03T11:45:36.000Z</time>
      </trkpt>
      <trkpt lat="44.03325" lon="6.92492">
        <ele>1927.5999755859</ele>
        <time>2019-08-03T11:45:39.000Z</time>
      </trkpt>
      <trkpt lat="44.03325" lon="6.92492">
        <ele>1926.1999511719</ele>
        <time>2019-08-03T11:45:41.000Z</time>
      </trkpt>
      <trkpt lat="44.03325" lon="6.92492">
        <ele>1925.5999755859</ele>
        <time>2019-08-03T11:45:45.000Z</time>
      </trkpt>
      <trkpt lat="44.03325" lon="6.92492">
        <ele>1924.8000488281</ele>
        <time>2019-08-03T11:45:51.000Z</time>
      </trkpt>
      <trkpt lat="44.03327" lon="6.92493">
        <ele>1926.4000244141</ele>
        <time>2019-08-03T11:45:55.000Z</time>
      </trkpt>
      <trkpt lat="44.03327" lon="6.92493">
        <ele>1927.4000244141</ele>
        <time>2019-08-03T11:45:56.000Z</time>
      </trkpt>
      <trkpt lat="44.03326" lon="6.92496">
        <ele>1927.1999511719</ele>
        <time>2019-08-03T11:46:02.000Z</time>
      </trkpt>
      <trkpt lat="44.03326" lon="6.92495">
        <ele>1926</ele>
        <time>2019-08-03T11:46:04.000Z</time>
      </trkpt>
      <trkpt lat="44.03327" lon="6.92495">
        <ele>1926.1999511719</ele>
        <time>2019-08-03T11:46:11.000Z</time>
      </trkpt>
      <trkpt lat="44.03327" lon="6.92495">
        <ele>1927.1999511719</ele>
        <time>2019-08-03T11:46:13.000Z</time>
      </trkpt>
      <trkpt lat="44.03327" lon="6.92495">
        <ele>1926.4000244141</ele>
        <time>2019-08-03T11:46:15.000Z</time>
      </trkpt>
      <trkpt lat="44.03327" lon="6.92495">
        <ele>1927.4000244141</ele>
        <time>2019-08-03T11:46:21.000Z</time>
      </trkpt>
      <trkpt lat="44.03327" lon="6.92495">
        <ele>1926</ele>
        <time>2019-08-03T11:46:27.000Z</time>
      </trkpt>
      <trkpt lat="44.03327" lon="6.92495">
        <ele>1925.8000488281</ele>
        <time>2019-08-03T11:46:29.000Z</time>
      </trkpt>
      <trkpt lat="44.03326" lon="6.92496">
        <ele>1925.5999755859</ele>
        <time>2019-08-03T11:46:38.000Z</time>
      </trkpt>
      <trkpt lat="44.03326" lon="6.92496">
        <ele>1925.8000488281</ele>
        <time>2019-08-03T11:46:39.000Z</time>
      </trkpt>
      <trkpt lat="44.03325" lon="6.92493">
        <ele>1926</ele>
        <time>2019-08-03T11:46:44.000Z</time>
      </trkpt>
      <trkpt lat="44.03325" lon="6.92491">
        <ele>1927.1999511719</ele>
        <time>2019-08-03T11:46:48.000Z</time>
      </trkpt>
      <trkpt lat="44.03326" lon="6.92491">
        <ele>1927.5999755859</ele>
        <time>2019-08-03T11:46:50.000Z</time>
      </trkpt>
      <trkpt lat="44.03326" lon="6.92492">
        <ele>1926.5999755859</ele>
        <time>2019-08-03T11:46:56.000Z</time>
      </trkpt>
      <trkpt lat="44.03325" lon="6.92491">
        <ele>1925.8000488281</ele>
        <time>2019-08-03T11:47:00.000Z</time>
      </trkpt>
      <trkpt lat="44.03326" lon="6.92491">
        <ele>1925</ele>
        <time>2019-08-03T11:47:07.000Z</time>
      </trkpt>
      <trkpt lat="44.03329" lon="6.92495">
        <ele>1927.1999511719</ele>
        <time>2019-08-03T11:47:11.000Z</time>
      </trkpt>
      <trkpt lat="44.03329" lon="6.92496">
        <ele>1927.4000244141</ele>
        <time>2019-08-03T11:47:13.000Z</time>
      </trkpt>
      <trkpt lat="44.03329" lon="6.92497">
        <ele>1926.5999755859</ele>
        <time>2019-08-03T11:47:22.000Z</time>
      </trkpt>
      <trkpt lat="44.03327" lon="6.92497">
        <ele>1926.5999755859</ele>
        <time>2019-08-03T11:47:26.000Z</time>
      </trkpt>
      <trkpt lat="44.03323" lon="6.92494">
        <ele>1926.5999755859</ele>
        <time>2019-08-03T11:47:29.000Z</time>
      </trkpt>
      <trkpt lat="44.03318" lon="6.92489">
        <ele>1925.5999755859</ele>
        <time>2019-08-03T11:47:32.000Z</time>
      </trkpt>
      <trkpt lat="44.03314" lon="6.92482">
        <ele>1925</ele>
        <time>2019-08-03T11:47:34.000Z</time>
      </trkpt>
      <trkpt lat="44.03313" lon="6.92478">
        <ele>1924.4000244141</ele>
        <time>2019-08-03T11:47:35.000Z</time>
      </trkpt>
      <trkpt lat="44.0331" lon="6.92461">
        <ele>1923</ele>
        <time>2019-08-03T11:47:38.000Z</time>
      </trkpt>
      <trkpt lat="44.0331" lon="6.92457">
        <ele>1922</ele>
        <time>2019-08-03T11:47:39.000Z</time>
      </trkpt>
      <trkpt lat="44.0331" lon="6.92447">
        <ele>1920.1999511719</ele>
        <time>2019-08-03T11:47:41.000Z</time>
      </trkpt>
      <trkpt lat="44.03309" lon="6.9244">
        <ele>1918.5999755859</ele>
        <time>2019-08-03T11:47:43.000Z</time>
      </trkpt>
      <trkpt lat="44.03309" lon="6.92436">
        <ele>1918.4000244141</ele>
        <time>2019-08-03T11:47:44.000Z</time>
      </trkpt>
      <trkpt lat="44.03309" lon="6.92432">
        <ele>1917.4000244141</ele>
        <time>2019-08-03T11:47:46.000Z</time>
      </trkpt>
      <trkpt lat="44.03309" lon="6.92429">
        <ele>1916.5999755859</ele>
        <time>2019-08-03T11:47:48.000Z</time>
      </trkpt>
      <trkpt lat="44.03308" lon="6.92427">
        <ele>1916.1999511719</ele>
        <time>2019-08-03T11:47:49.000Z</time>
      </trkpt>
      <trkpt lat="44.03307" lon="6.92415">
        <ele>1914.8000488281</ele>
        <time>2019-08-03T11:47:52.000Z</time>
      </trkpt>
      <trkpt lat="44.03303" lon="6.92409">
        <ele>1913.8000488281</ele>
        <time>2019-08-03T11:47:54.000Z</time>
      </trkpt>
      <trkpt lat="44.03297" lon="6.92403">
        <ele>1912.4000244141</ele>
        <time>2019-08-03T11:47:56.000Z</time>
      </trkpt>
      <trkpt lat="44.03288" lon="6.92397">
        <ele>1910.5999755859</ele>
        <time>2019-08-03T11:47:58.000Z</time>
      </trkpt>
      <trkpt lat="44.0328" lon="6.92391">
        <ele>1910</ele>
        <time>2019-08-03T11:48:00.000Z</time>
      </trkpt>
      <trkpt lat="44.03276" lon="6.92387">
        <ele>1909.4000244141</ele>
        <time>2019-08-03T11:48:01.000Z</time>
      </trkpt>
      <trkpt lat="44.03265" lon="6.92375">
        <ele>1909.1999511719</ele>
        <time>2019-08-03T11:48:05.000Z</time>
      </trkpt>
      <trkpt lat="44.0325" lon="6.92366">
        <ele>1908.1999511719</ele>
        <time>2019-08-03T11:48:10.000Z</time>
      </trkpt>
      <trkpt lat="44.03247" lon="6.92364">
        <ele>1908</ele>
        <time>2019-08-03T11:48:11.000Z</time>
      </trkpt>
      <trkpt lat="44.03239" lon="6.92358">
        <ele>1906.5999755859</ele>
        <time>2019-08-03T11:48:13.000Z</time>
      </trkpt>
      <trkpt lat="44.03233" lon="6.92349">
        <ele>1905.1999511719</ele>
        <time>2019-08-03T11:48:15.000Z</time>
      </trkpt>
      <trkpt lat="44.03231" lon="6.92344">
        <ele>1904.1999511719</ele>
        <time>2019-08-03T11:48:16.000Z</time>
      </trkpt>
      <trkpt lat="44.03229" lon="6.92339">
        <ele>1903.5999755859</ele>
        <time>2019-08-03T11:48:17.000Z</time>
      </trkpt>
      <trkpt lat="44.03227" lon="6.92334">
        <ele>1903</ele>
        <time>2019-08-03T11:48:18.000Z</time>
      </trkpt>
      <trkpt lat="44.03225" lon="6.9233">
        <ele>1902.5999755859</ele>
        <time>2019-08-03T11:48:19.000Z</time>
      </trkpt>
      <trkpt lat="44.03222" lon="6.92326">
        <ele>1902</ele>
        <time>2019-08-03T11:48:20.000Z</time>
      </trkpt>
      <trkpt lat="44.03219" lon="6.92321">
        <ele>1901.1999511719</ele>
        <time>2019-08-03T11:48:21.000Z</time>
      </trkpt>
      <trkpt lat="44.03213" lon="6.92312">
        <ele>1900.1999511719</ele>
        <time>2019-08-03T11:48:23.000Z</time>
      </trkpt>
      <trkpt lat="44.0321" lon="6.92308">
        <ele>1899.5999755859</ele>
        <time>2019-08-03T11:48:24.000Z</time>
      </trkpt>
      <trkpt lat="44.03196" lon="6.92292">
        <ele>1898</ele>
        <time>2019-08-03T11:48:28.000Z</time>
      </trkpt>
      <trkpt lat="44.03191" lon="6.92289">
        <ele>1897.4000244141</ele>
        <time>2019-08-03T11:48:29.000Z</time>
      </trkpt>
      <trkpt lat="44.03179" lon="6.9228">
        <ele>1897</ele>
        <time>2019-08-03T11:48:33.000Z</time>
      </trkpt>
      <trkpt lat="44.03171" lon="6.92268">
        <ele>1897.1999511719</ele>
        <time>2019-08-03T11:48:35.000Z</time>
      </trkpt>
      <trkpt lat="44.03167" lon="6.92259">
        <ele>1897</ele>
        <time>2019-08-03T11:48:37.000Z</time>
      </trkpt>
      <trkpt lat="44.03159" lon="6.92236">
        <ele>1895.4000244141</ele>
        <time>2019-08-03T11:48:41.000Z</time>
      </trkpt>
      <trkpt lat="44.03158" lon="6.92231">
        <ele>1895</ele>
        <time>2019-08-03T11:48:42.000Z</time>
      </trkpt>
      <trkpt lat="44.03154" lon="6.92217">
        <ele>1894.4000244141</ele>
        <time>2019-08-03T11:48:45.000Z</time>
      </trkpt>
      <trkpt lat="44.03152" lon="6.92205">
        <ele>1894.5999755859</ele>
        <time>2019-08-03T11:48:47.000Z</time>
      </trkpt>
      <trkpt lat="44.03153" lon="6.92198">
        <ele>1895.1999511719</ele>
        <time>2019-08-03T11:48:48.000Z</time>
      </trkpt>
      <trkpt lat="44.03157" lon="6.92178">
        <ele>1893.4000244141</ele>
        <time>2019-08-03T11:48:51.000Z</time>
      </trkpt>
      <trkpt lat="44.03159" lon="6.92172">
        <ele>1893</ele>
        <time>2019-08-03T11:48:52.000Z</time>
      </trkpt>
      <trkpt lat="44.03161" lon="6.92167">
        <ele>1891.4000244141</ele>
        <time>2019-08-03T11:48:53.000Z</time>
      </trkpt>
      <trkpt lat="44.03164" lon="6.9216">
        <ele>1890.4000244141</ele>
        <time>2019-08-03T11:48:55.000Z</time>
      </trkpt>
      <trkpt lat="44.03167" lon="6.92154">
        <ele>1889.4000244141</ele>
        <time>2019-08-03T11:48:57.000Z</time>
      </trkpt>
      <trkpt lat="44.0317" lon="6.92151">
        <ele>1888.8000488281</ele>
        <time>2019-08-03T11:48:58.000Z</time>
      </trkpt>
      <trkpt lat="44.03173" lon="6.92148">
        <ele>1888</ele>
        <time>2019-08-03T11:48:59.000Z</time>
      </trkpt>
      <trkpt lat="44.03176" lon="6.92144">
        <ele>1886.5999755859</ele>
        <time>2019-08-03T11:49:01.000Z</time>
      </trkpt>
      <trkpt lat="44.03179" lon="6.9214">
        <ele>1885</ele>
        <time>2019-08-03T11:49:03.000Z</time>
      </trkpt>
      <trkpt lat="44.03182" lon="6.92134">
        <ele>1883.5999755859</ele>
        <time>2019-08-03T11:49:05.000Z</time>
      </trkpt>
      <trkpt lat="44.03184" lon="6.92131">
        <ele>1882</ele>
        <time>2019-08-03T11:49:07.000Z</time>
      </trkpt>
      <trkpt lat="44.03185" lon="6.9213">
        <ele>1881</ele>
        <time>2019-08-03T11:49:08.000Z</time>
      </trkpt>
      <trkpt lat="44.03187" lon="6.92127">
        <ele>1880</ele>
        <time>2019-08-03T11:49:09.000Z</time>
      </trkpt>
      <trkpt lat="44.03189" lon="6.92124">
        <ele>1879</ele>
        <time>2019-08-03T11:49:10.000Z</time>
      </trkpt>
      <trkpt lat="44.03191" lon="6.92121">
        <ele>1877.8000488281</ele>
        <time>2019-08-03T11:49:11.000Z</time>
      </trkpt>
      <trkpt lat="44.03192" lon="6.92117">
        <ele>1877.1999511719</ele>
        <time>2019-08-03T11:49:12.000Z</time>
      </trkpt>
      <trkpt lat="44.03192" lon="6.92114">
        <ele>1876.1999511719</ele>
        <time>2019-08-03T11:49:13.000Z</time>
      </trkpt>
      <trkpt lat="44.03193" lon="6.92108">
        <ele>1875</ele>
        <time>2019-08-03T11:49:15.000Z</time>
      </trkpt>
      <trkpt lat="44.03194" lon="6.92105">
        <ele>1874.5999755859</ele>
        <time>2019-08-03T11:49:16.000Z</time>
      </trkpt>
      <trkpt lat="44.03198" lon="6.921">
        <ele>1874.1999511719</ele>
        <time>2019-08-03T11:49:18.000Z</time>
      </trkpt>
      <trkpt lat="44.03199" lon="6.92098">
        <ele>1873.8000488281</ele>
        <time>2019-08-03T11:49:19.000Z</time>
      </trkpt>
      <trkpt lat="44.03201" lon="6.92094">
        <ele>1873.1999511719</ele>
        <time>2019-08-03T11:49:21.000Z</time>
      </trkpt>
      <trkpt lat="44.03201" lon="6.92093">
        <ele>1872.8000488281</ele>
        <time>2019-08-03T11:49:22.000Z</time>
      </trkpt>
      <trkpt lat="44.03204" lon="6.92088">
        <ele>1871.1999511719</ele>
        <time>2019-08-03T11:49:25.000Z</time>
      </trkpt>
      <trkpt lat="44.03204" lon="6.92087">
        <ele>1870.5999755859</ele>
        <time>2019-08-03T11:49:26.000Z</time>
      </trkpt>
      <trkpt lat="44.03204" lon="6.92087">
        <ele>1870</ele>
        <time>2019-08-03T11:49:27.000Z</time>
      </trkpt>
      <trkpt lat="44.03205" lon="6.92087">
        <ele>1868.5999755859</ele>
        <time>2019-08-03T11:49:29.000Z</time>
      </trkpt>
      <trkpt lat="44.03205" lon="6.92087">
        <ele>1867.5999755859</ele>
        <time>2019-08-03T11:49:32.000Z</time>
      </trkpt>
      <trkpt lat="44.03205" lon="6.92087">
        <ele>1867.1999511719</ele>
        <time>2019-08-03T11:49:37.000Z</time>
      </trkpt>
      <trkpt lat="44.03203" lon="6.92085">
        <ele>1867.1999511719</ele>
        <time>2019-08-03T11:49:42.000Z</time>
      </trkpt>
      <trkpt lat="44.032" lon="6.92085">
        <ele>1867</ele>
        <time>2019-08-03T11:49:47.000Z</time>
      </trkpt>
      <trkpt lat="44.03199" lon="6.92085">
        <ele>1867</ele>
        <time>2019-08-03T11:49:48.000Z</time>
      </trkpt>
      <trkpt lat="44.03197" lon="6.92084">
        <ele>1866.4000244141</ele>
        <time>2019-08-03T11:49:52.000Z</time>
      </trkpt>
      <trkpt lat="44.03198" lon="6.92083">
        <ele>1866</ele>
        <time>2019-08-03T11:49:54.000Z</time>
      </trkpt>
      <trkpt lat="44.03202" lon="6.92079">
        <ele>1865.1999511719</ele>
        <time>2019-08-03T11:49:57.000Z</time>
      </trkpt>
      <trkpt lat="44.03202" lon="6.92076">
        <ele>1865.1999511719</ele>
        <time>2019-08-03T11:49:58.000Z</time>
      </trkpt>
      <trkpt lat="44.03199" lon="6.9206">
        <ele>1864.1999511719</ele>
        <time>2019-08-03T11:50:02.000Z</time>
      </trkpt>
      <trkpt lat="44.03197" lon="6.92043">
        <ele>1863.1999511719</ele>
        <time>2019-08-03T11:50:07.000Z</time>
      </trkpt>
      <trkpt lat="44.03198" lon="6.9204">
        <ele>1863.1999511719</ele>
        <time>2019-08-03T11:50:08.000Z</time>
      </trkpt>
      <trkpt lat="44.03198" lon="6.92028">
        <ele>1862.4000244141</ele>
        <time>2019-08-03T11:50:13.000Z</time>
      </trkpt>
      <trkpt lat="44.032" lon="6.92017">
        <ele>1862.4000244141</ele>
        <time>2019-08-03T11:50:17.000Z</time>
      </trkpt>
      <trkpt lat="44.03202" lon="6.92003">
        <ele>1862.5999755859</ele>
        <time>2019-08-03T11:50:21.000Z</time>
      </trkpt>
      <trkpt lat="44.03203" lon="6.91998">
        <ele>1862.4000244141</ele>
        <time>2019-08-03T11:50:22.000Z</time>
      </trkpt>
      <trkpt lat="44.03202" lon="6.91984">
        <ele>1862</ele>
        <time>2019-08-03T11:50:25.000Z</time>
      </trkpt>
      <trkpt lat="44.03202" lon="6.91979">
        <ele>1861.5999755859</ele>
        <time>2019-08-03T11:50:26.000Z</time>
      </trkpt>
      <trkpt lat="44.03204" lon="6.9197">
        <ele>1860.1999511719</ele>
        <time>2019-08-03T11:50:28.000Z</time>
      </trkpt>
      <trkpt lat="44.03206" lon="6.91962">
        <ele>1858.5999755859</ele>
        <time>2019-08-03T11:50:30.000Z</time>
      </trkpt>
      <trkpt lat="44.03209" lon="6.91954">
        <ele>1857.1999511719</ele>
        <time>2019-08-03T11:50:32.000Z</time>
      </trkpt>
      <trkpt lat="44.03214" lon="6.91945">
        <ele>1856.1999511719</ele>
        <time>2019-08-03T11:50:35.000Z</time>
      </trkpt>
      <trkpt lat="44.03218" lon="6.91938">
        <ele>1855</ele>
        <time>2019-08-03T11:50:37.000Z</time>
      </trkpt>
      <trkpt lat="44.03222" lon="6.91931">
        <ele>1853.1999511719</ele>
        <time>2019-08-03T11:50:39.000Z</time>
      </trkpt>
      <trkpt lat="44.03226" lon="6.91924">
        <ele>1852</ele>
        <time>2019-08-03T11:50:41.000Z</time>
      </trkpt>
      <trkpt lat="44.03228" lon="6.91919">
        <ele>1851.1999511719</ele>
        <time>2019-08-03T11:50:42.000Z</time>
      </trkpt>
      <trkpt lat="44.0323" lon="6.91914">
        <ele>1849.4000244141</ele>
        <time>2019-08-03T11:50:43.000Z</time>
      </trkpt>
      <trkpt lat="44.0323" lon="6.91904">
        <ele>1847.4000244141</ele>
        <time>2019-08-03T11:50:45.000Z</time>
      </trkpt>
      <trkpt lat="44.0323" lon="6.919">
        <ele>1846.8000488281</ele>
        <time>2019-08-03T11:50:46.000Z</time>
      </trkpt>
      <trkpt lat="44.03229" lon="6.91897">
        <ele>1845.8000488281</ele>
        <time>2019-08-03T11:50:47.000Z</time>
      </trkpt>
      <trkpt lat="44.03228" lon="6.91889">
        <ele>1844.5999755859</ele>
        <time>2019-08-03T11:50:50.000Z</time>
      </trkpt>
      <trkpt lat="44.03228" lon="6.91888">
        <ele>1843.5999755859</ele>
        <time>2019-08-03T11:50:53.000Z</time>
      </trkpt>
      <trkpt lat="44.03228" lon="6.91886">
        <ele>1843</ele>
        <time>2019-08-03T11:50:56.000Z</time>
      </trkpt>
      <trkpt lat="44.0323" lon="6.91874">
        <ele>1842.4000244141</ele>
        <time>2019-08-03T11:51:00.000Z</time>
      </trkpt>
      <trkpt lat="44.03231" lon="6.9187">
        <ele>1842.1999511719</ele>
        <time>2019-08-03T11:51:01.000Z</time>
      </trkpt>
      <trkpt lat="44.03231" lon="6.91862">
        <ele>1841.4000244141</ele>
        <time>2019-08-03T11:51:03.000Z</time>
      </trkpt>
      <trkpt lat="44.03231" lon="6.91857">
        <ele>1840</ele>
        <time>2019-08-03T11:51:05.000Z</time>
      </trkpt>
      <trkpt lat="44.03231" lon="6.91857">
        <ele>1839.4000244141</ele>
        <time>2019-08-03T11:51:06.000Z</time>
      </trkpt>
      <trkpt lat="44.03231" lon="6.91855">
        <ele>1838.8000488281</ele>
        <time>2019-08-03T11:51:08.000Z</time>
      </trkpt>
      <trkpt lat="44.03232" lon="6.91851">
        <ele>1838.4000244141</ele>
        <time>2019-08-03T11:51:12.000Z</time>
      </trkpt>
      <trkpt lat="44.03231" lon="6.9185">
        <ele>1838.4000244141</ele>
        <time>2019-08-03T11:51:13.000Z</time>
      </trkpt>
      <trkpt lat="44.03225" lon="6.91842">
        <ele>1838.1999511719</ele>
        <time>2019-08-03T11:51:18.000Z</time>
      </trkpt>
      <trkpt lat="44.03219" lon="6.91834">
        <ele>1837.4000244141</ele>
        <time>2019-08-03T11:51:21.000Z</time>
      </trkpt>
      <trkpt lat="44.03219" lon="6.91832">
        <ele>1837</ele>
        <time>2019-08-03T11:51:22.000Z</time>
      </trkpt>
      <trkpt lat="44.03218" lon="6.91827">
        <ele>1836</ele>
        <time>2019-08-03T11:51:24.000Z</time>
      </trkpt>
      <trkpt lat="44.03217" lon="6.91826">
        <ele>1834.8000488281</ele>
        <time>2019-08-03T11:51:26.000Z</time>
      </trkpt>
      <trkpt lat="44.03217" lon="6.91826">
        <ele>1834.5999755859</ele>
        <time>2019-08-03T11:51:27.000Z</time>
      </trkpt>
      <trkpt lat="44.03215" lon="6.91825">
        <ele>1833.5999755859</ele>
        <time>2019-08-03T11:51:31.000Z</time>
      </trkpt>
      <trkpt lat="44.03215" lon="6.91825">
        <ele>1833.5999755859</ele>
        <time>2019-08-03T11:51:32.000Z</time>
      </trkpt>
      <trkpt lat="44.0321" lon="6.91821">
        <ele>1833.4000244141</ele>
        <time>2019-08-03T11:51:37.000Z</time>
      </trkpt>
      <trkpt lat="44.03206" lon="6.91817">
        <ele>1834.1999511719</ele>
        <time>2019-08-03T11:51:44.000Z</time>
      </trkpt>
      <trkpt lat="44.03205" lon="6.91816">
        <ele>1834.4000244141</ele>
        <time>2019-08-03T11:51:46.000Z</time>
      </trkpt>
      <trkpt lat="44.03202" lon="6.9181">
        <ele>1834.4000244141</ele>
        <time>2019-08-03T11:51:48.000Z</time>
      </trkpt>
      <trkpt lat="44.03196" lon="6.91795">
        <ele>1833.4000244141</ele>
        <time>2019-08-03T11:51:52.000Z</time>
      </trkpt>
      <trkpt lat="44.03194" lon="6.91781">
        <ele>1832.4000244141</ele>
        <time>2019-08-03T11:51:56.000Z</time>
      </trkpt>
      <trkpt lat="44.03194" lon="6.91771">
        <ele>1831.4000244141</ele>
        <time>2019-08-03T11:51:59.000Z</time>
      </trkpt>
      <trkpt lat="44.03194" lon="6.91762">
        <ele>1829.4000244141</ele>
        <time>2019-08-03T11:52:01.000Z</time>
      </trkpt>
      <trkpt lat="44.03193" lon="6.91758">
        <ele>1828.4000244141</ele>
        <time>2019-08-03T11:52:02.000Z</time>
      </trkpt>
      <trkpt lat="44.03193" lon="6.91753">
        <ele>1827</ele>
        <time>2019-08-03T11:52:03.000Z</time>
      </trkpt>
      <trkpt lat="44.03194" lon="6.91746">
        <ele>1825.4000244141</ele>
        <time>2019-08-03T11:52:05.000Z</time>
      </trkpt>
      <trkpt lat="44.03195" lon="6.91742">
        <ele>1824.1999511719</ele>
        <time>2019-08-03T11:52:06.000Z</time>
      </trkpt>
      <trkpt lat="44.03195" lon="6.91739">
        <ele>1823.8000488281</ele>
        <time>2019-08-03T11:52:07.000Z</time>
      </trkpt>
      <trkpt lat="44.03194" lon="6.91736">
        <ele>1823</ele>
        <time>2019-08-03T11:52:08.000Z</time>
      </trkpt>
      <trkpt lat="44.0319" lon="6.91728">
        <ele>1821.5999755859</ele>
        <time>2019-08-03T11:52:10.000Z</time>
      </trkpt>
      <trkpt lat="44.03189" lon="6.91724">
        <ele>1821.1999511719</ele>
        <time>2019-08-03T11:52:11.000Z</time>
      </trkpt>
      <trkpt lat="44.03189" lon="6.91721">
        <ele>1820.8000488281</ele>
        <time>2019-08-03T11:52:12.000Z</time>
      </trkpt>
      <trkpt lat="44.03189" lon="6.91717">
        <ele>1820.1999511719</ele>
        <time>2019-08-03T11:52:13.000Z</time>
      </trkpt>
      <trkpt lat="44.03188" lon="6.91711">
        <ele>1819.5999755859</ele>
        <time>2019-08-03T11:52:15.000Z</time>
      </trkpt>
      <trkpt lat="44.03184" lon="6.91706">
        <ele>1819</ele>
        <time>2019-08-03T11:52:17.000Z</time>
      </trkpt>
      <trkpt lat="44.03181" lon="6.91698">
        <ele>1817.4000244141</ele>
        <time>2019-08-03T11:52:19.000Z</time>
      </trkpt>
      <trkpt lat="44.03179" lon="6.91695">
        <ele>1817</ele>
        <time>2019-08-03T11:52:20.000Z</time>
      </trkpt>
      <trkpt lat="44.03177" lon="6.91688">
        <ele>1815.8000488281</ele>
        <time>2019-08-03T11:52:22.000Z</time>
      </trkpt>
      <trkpt lat="44.03174" lon="6.91681">
        <ele>1814.4000244141</ele>
        <time>2019-08-03T11:52:24.000Z</time>
      </trkpt>
      <trkpt lat="44.0317" lon="6.91676">
        <ele>1813.4000244141</ele>
        <time>2019-08-03T11:52:26.000Z</time>
      </trkpt>
      <trkpt lat="44.03168" lon="6.91671">
        <ele>1812.1999511719</ele>
        <time>2019-08-03T11:52:28.000Z</time>
      </trkpt>
      <trkpt lat="44.03169" lon="6.91666">
        <ele>1811</ele>
        <time>2019-08-03T11:52:30.000Z</time>
      </trkpt>
      <trkpt lat="44.03171" lon="6.91659">
        <ele>1809.8000488281</ele>
        <time>2019-08-03T11:52:32.000Z</time>
      </trkpt>
      <trkpt lat="44.03171" lon="6.91656">
        <ele>1809.5999755859</ele>
        <time>2019-08-03T11:52:33.000Z</time>
      </trkpt>
      <trkpt lat="44.03171" lon="6.91653">
        <ele>1809.1999511719</ele>
        <time>2019-08-03T11:52:34.000Z</time>
      </trkpt>
      <trkpt lat="44.03167" lon="6.91652">
        <ele>1808.8000488281</ele>
        <time>2019-08-03T11:52:35.000Z</time>
      </trkpt>
      <trkpt lat="44.03164" lon="6.91649">
        <ele>1808</ele>
        <time>2019-08-03T11:52:36.000Z</time>
      </trkpt>
      <trkpt lat="44.03162" lon="6.91646">
        <ele>1807.4000244141</ele>
        <time>2019-08-03T11:52:37.000Z</time>
      </trkpt>
      <trkpt lat="44.03158" lon="6.91639">
        <ele>1807</ele>
        <time>2019-08-03T11:52:39.000Z</time>
      </trkpt>
      <trkpt lat="44.03157" lon="6.91635">
        <ele>1807</ele>
        <time>2019-08-03T11:52:40.000Z</time>
      </trkpt>
      <trkpt lat="44.03156" lon="6.91632">
        <ele>1806</ele>
        <time>2019-08-03T11:52:41.000Z</time>
      </trkpt>
      <trkpt lat="44.03154" lon="6.91628">
        <ele>1804.1999511719</ele>
        <time>2019-08-03T11:52:43.000Z</time>
      </trkpt>
      <trkpt lat="44.03153" lon="6.91626">
        <ele>1804</ele>
        <time>2019-08-03T11:52:44.000Z</time>
      </trkpt>
      <trkpt lat="44.03151" lon="6.91621">
        <ele>1803</ele>
        <time>2019-08-03T11:52:46.000Z</time>
      </trkpt>
      <trkpt lat="44.03148" lon="6.91616">
        <ele>1801.8000488281</ele>
        <time>2019-08-03T11:52:48.000Z</time>
      </trkpt>
      <trkpt lat="44.03147" lon="6.91613">
        <ele>1800.4000244141</ele>
        <time>2019-08-03T11:52:50.000Z</time>
      </trkpt>
      <trkpt lat="44.03146" lon="6.91612">
        <ele>1799.8000488281</ele>
        <time>2019-08-03T11:52:51.000Z</time>
      </trkpt>
      <trkpt lat="44.03143" lon="6.91611">
        <ele>1799</ele>
        <time>2019-08-03T11:52:53.000Z</time>
      </trkpt>
      <trkpt lat="44.03141" lon="6.91613">
        <ele>1798.1999511719</ele>
        <time>2019-08-03T11:52:55.000Z</time>
      </trkpt>
      <trkpt lat="44.03138" lon="6.91613">
        <ele>1797.8000488281</ele>
        <time>2019-08-03T11:52:57.000Z</time>
      </trkpt>
      <trkpt lat="44.03135" lon="6.91611">
        <ele>1796.8000488281</ele>
        <time>2019-08-03T11:52:59.000Z</time>
      </trkpt>
      <trkpt lat="44.03133" lon="6.91609">
        <ele>1796.1999511719</ele>
        <time>2019-08-03T11:53:00.000Z</time>
      </trkpt>
      <trkpt lat="44.03132" lon="6.91607">
        <ele>1795.5999755859</ele>
        <time>2019-08-03T11:53:01.000Z</time>
      </trkpt>
      <trkpt lat="44.03125" lon="6.91601">
        <ele>1794</ele>
        <time>2019-08-03T11:53:04.000Z</time>
      </trkpt>
      <trkpt lat="44.03124" lon="6.91598">
        <ele>1793.4000244141</ele>
        <time>2019-08-03T11:53:05.000Z</time>
      </trkpt>
      <trkpt lat="44.03122" lon="6.91596">
        <ele>1792.4000244141</ele>
        <time>2019-08-03T11:53:06.000Z</time>
      </trkpt>
      <trkpt lat="44.03121" lon="6.91594">
        <ele>1791.1999511719</ele>
        <time>2019-08-03T11:53:07.000Z</time>
      </trkpt>
      <trkpt lat="44.03117" lon="6.9159">
        <ele>1789.8000488281</ele>
        <time>2019-08-03T11:53:09.000Z</time>
      </trkpt>
      <trkpt lat="44.03114" lon="6.91587">
        <ele>1788.4000244141</ele>
        <time>2019-08-03T11:53:11.000Z</time>
      </trkpt>
      <trkpt lat="44.03105" lon="6.91586">
        <ele>1786.8000488281</ele>
        <time>2019-08-03T11:53:13.000Z</time>
      </trkpt>
      <trkpt lat="44.03101" lon="6.91585">
        <ele>1785.5999755859</ele>
        <time>2019-08-03T11:53:14.000Z</time>
      </trkpt>
      <trkpt lat="44.03097" lon="6.91584">
        <ele>1784</ele>
        <time>2019-08-03T11:53:15.000Z</time>
      </trkpt>
      <trkpt lat="44.03093" lon="6.91583">
        <ele>1782</ele>
        <time>2019-08-03T11:53:16.000Z</time>
      </trkpt>
      <trkpt lat="44.03084" lon="6.9158">
        <ele>1781</ele>
        <time>2019-08-03T11:53:18.000Z</time>
      </trkpt>
      <trkpt lat="44.0308" lon="6.91579">
        <ele>1780.5999755859</ele>
        <time>2019-08-03T11:53:19.000Z</time>
      </trkpt>
      <trkpt lat="44.03073" lon="6.91578">
        <ele>1778.1999511719</ele>
        <time>2019-08-03T11:53:21.000Z</time>
      </trkpt>
      <trkpt lat="44.03071" lon="6.91575">
        <ele>1777</ele>
        <time>2019-08-03T11:53:22.000Z</time>
      </trkpt>
      <trkpt lat="44.03069" lon="6.91571">
        <ele>1776.8000488281</ele>
        <time>2019-08-03T11:53:23.000Z</time>
      </trkpt>
      <trkpt lat="44.03068" lon="6.91568">
        <ele>1776</ele>
        <time>2019-08-03T11:53:24.000Z</time>
      </trkpt>
      <trkpt lat="44.03067" lon="6.91565">
        <ele>1775</ele>
        <time>2019-08-03T11:53:25.000Z</time>
      </trkpt>
      <trkpt lat="44.03066" lon="6.91562">
        <ele>1774.1999511719</ele>
        <time>2019-08-03T11:53:26.000Z</time>
      </trkpt>
      <trkpt lat="44.03065" lon="6.91557">
        <ele>1773.1999511719</ele>
        <time>2019-08-03T11:53:28.000Z</time>
      </trkpt>
      <trkpt lat="44.03065" lon="6.91555">
        <ele>1772.4000244141</ele>
        <time>2019-08-03T11:53:29.000Z</time>
      </trkpt>
      <trkpt lat="44.03064" lon="6.9155">
        <ele>1771.4000244141</ele>
        <time>2019-08-03T11:53:31.000Z</time>
      </trkpt>
      <trkpt lat="44.03063" lon="6.91547">
        <ele>1770.8000488281</ele>
        <time>2019-08-03T11:53:32.000Z</time>
      </trkpt>
      <trkpt lat="44.03063" lon="6.91546">
        <ele>1770.1999511719</ele>
        <time>2019-08-03T11:53:33.000Z</time>
      </trkpt>
      <trkpt lat="44.03061" lon="6.91545">
        <ele>1769.1999511719</ele>
        <time>2019-08-03T11:53:35.000Z</time>
      </trkpt>
      <trkpt lat="44.0306" lon="6.91545">
        <ele>1768.8000488281</ele>
        <time>2019-08-03T11:53:36.000Z</time>
      </trkpt>
      <trkpt lat="44.03059" lon="6.91545">
        <ele>1768.4000244141</ele>
        <time>2019-08-03T11:53:37.000Z</time>
      </trkpt>
      <trkpt lat="44.03058" lon="6.91547">
        <ele>1768</ele>
        <time>2019-08-03T11:53:38.000Z</time>
      </trkpt>
      <trkpt lat="44.03055" lon="6.91546">
        <ele>1767.4000244141</ele>
        <time>2019-08-03T11:53:40.000Z</time>
      </trkpt>
      <trkpt lat="44.03055" lon="6.91544">
        <ele>1766.8000488281</ele>
        <time>2019-08-03T11:53:41.000Z</time>
      </trkpt>
      <trkpt lat="44.03055" lon="6.91542">
        <ele>1765.8000488281</ele>
        <time>2019-08-03T11:53:43.000Z</time>
      </trkpt>
      <trkpt lat="44.03055" lon="6.91536">
        <ele>1765</ele>
        <time>2019-08-03T11:53:45.000Z</time>
      </trkpt>
      <trkpt lat="44.03055" lon="6.91532">
        <ele>1764.8000488281</ele>
        <time>2019-08-03T11:53:46.000Z</time>
      </trkpt>
      <trkpt lat="44.03056" lon="6.91525">
        <ele>1764</ele>
        <time>2019-08-03T11:53:48.000Z</time>
      </trkpt>
      <trkpt lat="44.03055" lon="6.91521">
        <ele>1763.4000244141</ele>
        <time>2019-08-03T11:53:49.000Z</time>
      </trkpt>
      <trkpt lat="44.03054" lon="6.91516">
        <ele>1762.4000244141</ele>
        <time>2019-08-03T11:53:51.000Z</time>
      </trkpt>
      <trkpt lat="44.03051" lon="6.91515">
        <ele>1761.8000488281</ele>
        <time>2019-08-03T11:53:53.000Z</time>
      </trkpt>
      <trkpt lat="44.03049" lon="6.91515">
        <ele>1761</ele>
        <time>2019-08-03T11:53:54.000Z</time>
      </trkpt>
      <trkpt lat="44.03044" lon="6.91519">
        <ele>1760</ele>
        <time>2019-08-03T11:53:56.000Z</time>
      </trkpt>
      <trkpt lat="44.03041" lon="6.91522">
        <ele>1759.5999755859</ele>
        <time>2019-08-03T11:53:57.000Z</time>
      </trkpt>
      <trkpt lat="44.03037" lon="6.91523">
        <ele>1758.8000488281</ele>
        <time>2019-08-03T11:53:58.000Z</time>
      </trkpt>
      <trkpt lat="44.03035" lon="6.91524">
        <ele>1757.5999755859</ele>
        <time>2019-08-03T11:53:59.000Z</time>
      </trkpt>
      <trkpt lat="44.03031" lon="6.91525">
        <ele>1756.5999755859</ele>
        <time>2019-08-03T11:54:01.000Z</time>
      </trkpt>
      <trkpt lat="44.03025" lon="6.91527">
        <ele>1755</ele>
        <time>2019-08-03T11:54:04.000Z</time>
      </trkpt>
      <trkpt lat="44.03024" lon="6.91527">
        <ele>1754.4000244141</ele>
        <time>2019-08-03T11:54:05.000Z</time>
      </trkpt>
      <trkpt lat="44.03019" lon="6.91522">
        <ele>1753.5999755859</ele>
        <time>2019-08-03T11:54:07.000Z</time>
      </trkpt>
      <trkpt lat="44.03016" lon="6.91519">
        <ele>1752.4000244141</ele>
        <time>2019-08-03T11:54:08.000Z</time>
      </trkpt>
      <trkpt lat="44.03014" lon="6.91517">
        <ele>1751.8000488281</ele>
        <time>2019-08-03T11:54:09.000Z</time>
      </trkpt>
      <trkpt lat="44.03012" lon="6.91515">
        <ele>1751</ele>
        <time>2019-08-03T11:54:10.000Z</time>
      </trkpt>
      <trkpt lat="44.0301" lon="6.9151">
        <ele>1749.5999755859</ele>
        <time>2019-08-03T11:54:12.000Z</time>
      </trkpt>
      <trkpt lat="44.0301" lon="6.91506">
        <ele>1750.4000244141</ele>
        <time>2019-08-03T11:54:13.000Z</time>
      </trkpt>
      <trkpt lat="44.03004" lon="6.91494">
        <ele>1747.1999511719</ele>
        <time>2019-08-03T11:54:17.000Z</time>
      </trkpt>
      <trkpt lat="44.03003" lon="6.91491">
        <ele>1746.1999511719</ele>
        <time>2019-08-03T11:54:18.000Z</time>
      </trkpt>
      <trkpt lat="44.03003" lon="6.91487">
        <ele>1745</ele>
        <time>2019-08-03T11:54:19.000Z</time>
      </trkpt>
      <trkpt lat="44.03004" lon="6.9148">
        <ele>1743.1999511719</ele>
        <time>2019-08-03T11:54:21.000Z</time>
      </trkpt>
      <trkpt lat="44.03005" lon="6.91474">
        <ele>1741.8000488281</ele>
        <time>2019-08-03T11:54:23.000Z</time>
      </trkpt>
      <trkpt lat="44.03005" lon="6.91469">
        <ele>1740.4000244141</ele>
        <time>2019-08-03T11:54:25.000Z</time>
      </trkpt>
      <trkpt lat="44.03004" lon="6.91465">
        <ele>1740.1999511719</ele>
        <time>2019-08-03T11:54:27.000Z</time>
      </trkpt>
      <trkpt lat="44.03" lon="6.91459">
        <ele>1738.5999755859</ele>
        <time>2019-08-03T11:54:30.000Z</time>
      </trkpt>
      <trkpt lat="44.03001" lon="6.91454">
        <ele>1737.4000244141</ele>
        <time>2019-08-03T11:54:32.000Z</time>
      </trkpt>
      <trkpt lat="44.03001" lon="6.91452">
        <ele>1736.8000488281</ele>
        <time>2019-08-03T11:54:33.000Z</time>
      </trkpt>
      <trkpt lat="44.03002" lon="6.91449">
        <ele>1735.5999755859</ele>
        <time>2019-08-03T11:54:34.000Z</time>
      </trkpt>
      <trkpt lat="44.03001" lon="6.91448">
        <ele>1734.8000488281</ele>
        <time>2019-08-03T11:54:36.000Z</time>
      </trkpt>
      <trkpt lat="44.03" lon="6.91448">
        <ele>1734.5999755859</ele>
        <time>2019-08-03T11:54:37.000Z</time>
      </trkpt>
      <trkpt lat="44.02999" lon="6.91449">
        <ele>1734.1999511719</ele>
        <time>2019-08-03T11:54:38.000Z</time>
      </trkpt>
      <trkpt lat="44.02995" lon="6.91452">
        <ele>1733.5999755859</ele>
        <time>2019-08-03T11:54:41.000Z</time>
      </trkpt>
      <trkpt lat="44.02994" lon="6.91451">
        <ele>1733.4000244141</ele>
        <time>2019-08-03T11:54:42.000Z</time>
      </trkpt>
      <trkpt lat="44.02994" lon="6.91447">
        <ele>1732.5999755859</ele>
        <time>2019-08-03T11:54:44.000Z</time>
      </trkpt>
      <trkpt lat="44.02994" lon="6.91445">
        <ele>1732.1999511719</ele>
        <time>2019-08-03T11:54:45.000Z</time>
      </trkpt>
      <trkpt lat="44.02995" lon="6.91434">
        <ele>1731.4000244141</ele>
        <time>2019-08-03T11:54:48.000Z</time>
      </trkpt>
      <trkpt lat="44.02994" lon="6.9143">
        <ele>1731</ele>
        <time>2019-08-03T11:54:49.000Z</time>
      </trkpt>
      <trkpt lat="44.02992" lon="6.91426">
        <ele>1730.4000244141</ele>
        <time>2019-08-03T11:54:50.000Z</time>
      </trkpt>
      <trkpt lat="44.02991" lon="6.91421">
        <ele>1729.4000244141</ele>
        <time>2019-08-03T11:54:51.000Z</time>
      </trkpt>
      <trkpt lat="44.02989" lon="6.91417">
        <ele>1728</ele>
        <time>2019-08-03T11:54:52.000Z</time>
      </trkpt>
      <trkpt lat="44.02989" lon="6.91411">
        <ele>1726.8000488281</ele>
        <time>2019-08-03T11:54:53.000Z</time>
      </trkpt>
      <trkpt lat="44.02989" lon="6.91403">
        <ele>1724.8000488281</ele>
        <time>2019-08-03T11:54:55.000Z</time>
      </trkpt>
      <trkpt lat="44.02989" lon="6.91393">
        <ele>1723.4000244141</ele>
        <time>2019-08-03T11:54:57.000Z</time>
      </trkpt>
      <trkpt lat="44.0299" lon="6.91387">
        <ele>1722.8000488281</ele>
        <time>2019-08-03T11:54:58.000Z</time>
      </trkpt>
      <trkpt lat="44.02991" lon="6.91382">
        <ele>1722.1999511719</ele>
        <time>2019-08-03T11:54:59.000Z</time>
      </trkpt>
      <trkpt lat="44.02991" lon="6.91368">
        <ele>1721</ele>
        <time>2019-08-03T11:55:02.000Z</time>
      </trkpt>
      <trkpt lat="44.0299" lon="6.91365">
        <ele>1720.5999755859</ele>
        <time>2019-08-03T11:55:03.000Z</time>
      </trkpt>
      <trkpt lat="44.02987" lon="6.91364">
        <ele>1719.5999755859</ele>
        <time>2019-08-03T11:55:05.000Z</time>
      </trkpt>
      <trkpt lat="44.02981" lon="6.91364">
        <ele>1718.1999511719</ele>
        <time>2019-08-03T11:55:08.000Z</time>
      </trkpt>
      <trkpt lat="44.02981" lon="6.91364">
        <ele>1717.1999511719</ele>
        <time>2019-08-03T11:55:10.000Z</time>
      </trkpt>
      <trkpt lat="44.0298" lon="6.91365">
        <ele>1716.5999755859</ele>
        <time>2019-08-03T11:55:11.000Z</time>
      </trkpt>
      <trkpt lat="44.0298" lon="6.91366">
        <ele>1716.1999511719</ele>
        <time>2019-08-03T11:55:12.000Z</time>
      </trkpt>
      <trkpt lat="44.02981" lon="6.91369">
        <ele>1715.5999755859</ele>
        <time>2019-08-03T11:55:14.000Z</time>
      </trkpt>
      <trkpt lat="44.02982" lon="6.91373">
        <ele>1715.1999511719</ele>
        <time>2019-08-03T11:55:20.000Z</time>
      </trkpt>
      <trkpt lat="44.02982" lon="6.91373">
        <ele>1715</ele>
        <time>2019-08-03T11:55:42.000Z</time>
      </trkpt>
      <trkpt lat="44.02982" lon="6.91374">
        <ele>1715</ele>
        <time>2019-08-03T11:56:09.000Z</time>
      </trkpt>
      <trkpt lat="44.02983" lon="6.91372">
        <ele>1715.5999755859</ele>
        <time>2019-08-03T11:56:21.000Z</time>
      </trkpt>
      <trkpt lat="44.02982" lon="6.91367">
        <ele>1715.8000488281</ele>
        <time>2019-08-03T11:56:28.000Z</time>
      </trkpt>
      <trkpt lat="44.02981" lon="6.91366">
        <ele>1715.5999755859</ele>
        <time>2019-08-03T11:56:46.000Z</time>
      </trkpt>
      <trkpt lat="44.0298" lon="6.91366">
        <ele>1715.8000488281</ele>
        <time>2019-08-03T11:56:53.000Z</time>
      </trkpt>
      <trkpt lat="44.02981" lon="6.91366">
        <ele>1715.8000488281</ele>
        <time>2019-08-03T11:57:06.000Z</time>
      </trkpt>
      <trkpt lat="44.02982" lon="6.91367">
        <ele>1716</ele>
        <time>2019-08-03T11:57:10.000Z</time>
      </trkpt>
      <trkpt lat="44.02982" lon="6.91367">
        <ele>1716</ele>
        <time>2019-08-03T11:57:11.000Z</time>
      </trkpt>
      <trkpt lat="44.02981" lon="6.91367">
        <ele>1715.8000488281</ele>
        <time>2019-08-03T11:57:22.000Z</time>
      </trkpt>
      <trkpt lat="44.02979" lon="6.91365">
        <ele>1715.5999755859</ele>
        <time>2019-08-03T11:57:41.000Z</time>
      </trkpt>
      <trkpt lat="44.02979" lon="6.91365">
        <ele>1716</ele>
        <time>2019-08-03T11:57:50.000Z</time>
      </trkpt>
      <trkpt lat="44.0298" lon="6.91366">
        <ele>1715.5999755859</ele>
        <time>2019-08-03T11:58:13.000Z</time>
      </trkpt>
      <trkpt lat="44.02981" lon="6.91366">
        <ele>1716.1999511719</ele>
        <time>2019-08-03T11:58:54.000Z</time>
      </trkpt>
      <trkpt lat="44.02979" lon="6.91365">
        <ele>1715.8000488281</ele>
        <time>2019-08-03T11:59:10.000Z</time>
      </trkpt>
      <trkpt lat="44.02979" lon="6.91365">
        <ele>1715.5999755859</ele>
        <time>2019-08-03T11:59:16.000Z</time>
      </trkpt>
      <trkpt lat="44.02979" lon="6.91364">
        <ele>1715.8000488281</ele>
        <time>2019-08-03T11:59:22.000Z</time>
      </trkpt>
      <trkpt lat="44.02979" lon="6.91365">
        <ele>1715.5999755859</ele>
        <time>2019-08-03T11:59:33.000Z</time>
      </trkpt>
      <trkpt lat="44.02979" lon="6.91365">
        <ele>1715.4000244141</ele>
        <time>2019-08-03T11:59:44.000Z</time>
      </trkpt>
      <trkpt lat="44.02979" lon="6.91365">
        <ele>1715.5999755859</ele>
        <time>2019-08-03T12:00:01.000Z</time>
      </trkpt>
      <trkpt lat="44.02979" lon="6.91365">
        <ele>1715.5999755859</ele>
        <time>2019-08-03T12:00:02.000Z</time>
      </trkpt>
      <trkpt lat="44.02979" lon="6.91365">
        <ele>1715.5999755859</ele>
        <time>2019-08-03T12:00:05.000Z</time>
      </trkpt>
      <trkpt lat="44.02979" lon="6.91365">
        <ele>1715.8000488281</ele>
        <time>2019-08-03T12:00:11.000Z</time>
      </trkpt>
      <trkpt lat="44.02979" lon="6.91365">
        <ele>1715.4000244141</ele>
        <time>2019-08-03T12:00:19.000Z</time>
      </trkpt>
      <trkpt lat="44.02979" lon="6.91365">
        <ele>1715</ele>
        <time>2019-08-03T12:00:29.000Z</time>
      </trkpt>
      <trkpt lat="44.0298" lon="6.91361">
        <ele>1715.4000244141</ele>
        <time>2019-08-03T12:00:35.000Z</time>
      </trkpt>
      <trkpt lat="44.02981" lon="6.91357">
        <ele>1715</ele>
        <time>2019-08-03T12:00:37.000Z</time>
      </trkpt>
      <trkpt lat="44.02984" lon="6.91345">
        <ele>1714.4000244141</ele>
        <time>2019-08-03T12:00:40.000Z</time>
      </trkpt>
      <trkpt lat="44.02986" lon="6.91338">
        <ele>1713.4000244141</ele>
        <time>2019-08-03T12:00:42.000Z</time>
      </trkpt>
      <trkpt lat="44.02986" lon="6.9133">
        <ele>1711.8000488281</ele>
        <time>2019-08-03T12:00:44.000Z</time>
      </trkpt>
      <trkpt lat="44.02985" lon="6.91327">
        <ele>1711.4000244141</ele>
        <time>2019-08-03T12:00:45.000Z</time>
      </trkpt>
      <trkpt lat="44.02988" lon="6.91322">
        <ele>1710.8000488281</ele>
        <time>2019-08-03T12:00:47.000Z</time>
      </trkpt>
      <trkpt lat="44.0299" lon="6.91317">
        <ele>1709.8000488281</ele>
        <time>2019-08-03T12:00:49.000Z</time>
      </trkpt>
      <trkpt lat="44.02991" lon="6.91314">
        <ele>1709.1999511719</ele>
        <time>2019-08-03T12:00:50.000Z</time>
      </trkpt>
      <trkpt lat="44.02992" lon="6.91308">
        <ele>1707.5999755859</ele>
        <time>2019-08-03T12:00:52.000Z</time>
      </trkpt>
      <trkpt lat="44.02993" lon="6.91306">
        <ele>1706.1999511719</ele>
        <time>2019-08-03T12:00:53.000Z</time>
      </trkpt>
      <trkpt lat="44.02994" lon="6.91302">
        <ele>1705.1999511719</ele>
        <time>2019-08-03T12:00:54.000Z</time>
      </trkpt>
      <trkpt lat="44.02996" lon="6.91295">
        <ele>1703.1999511719</ele>
        <time>2019-08-03T12:00:56.000Z</time>
      </trkpt>
      <trkpt lat="44.02996" lon="6.9129">
        <ele>1701.8000488281</ele>
        <time>2019-08-03T12:00:58.000Z</time>
      </trkpt>
      <trkpt lat="44.02996" lon="6.91287">
        <ele>1701.4000244141</ele>
        <time>2019-08-03T12:00:59.000Z</time>
      </trkpt>
      <trkpt lat="44.02997" lon="6.91284">
        <ele>1700.5999755859</ele>
        <time>2019-08-03T12:01:00.000Z</time>
      </trkpt>
      <trkpt lat="44.02997" lon="6.91281">
        <ele>1699.1999511719</ele>
        <time>2019-08-03T12:01:02.000Z</time>
      </trkpt>
      <trkpt lat="44.02998" lon="6.91277">
        <ele>1699.1999511719</ele>
        <time>2019-08-03T12:01:04.000Z</time>
      </trkpt>
      <trkpt lat="44.02998" lon="6.91276">
        <ele>1698.1999511719</ele>
        <time>2019-08-03T12:01:07.000Z</time>
      </trkpt>
      <trkpt lat="44.02999" lon="6.91272">
        <ele>1697.8000488281</ele>
        <time>2019-08-03T12:01:08.000Z</time>
      </trkpt>
      <trkpt lat="44.03004" lon="6.91274">
        <ele>1696.4000244141</ele>
        <time>2019-08-03T12:01:10.000Z</time>
      </trkpt>
      <trkpt lat="44.03008" lon="6.91278">
        <ele>1694.5999755859</ele>
        <time>2019-08-03T12:01:12.000Z</time>
      </trkpt>
      <trkpt lat="44.03011" lon="6.91279">
        <ele>1693.5999755859</ele>
        <time>2019-08-03T12:01:13.000Z</time>
      </trkpt>
      <trkpt lat="44.03014" lon="6.9128">
        <ele>1692.5999755859</ele>
        <time>2019-08-03T12:01:14.000Z</time>
      </trkpt>
      <trkpt lat="44.03015" lon="6.91279">
        <ele>1691.5999755859</ele>
        <time>2019-08-03T12:01:15.000Z</time>
      </trkpt>
      <trkpt lat="44.03016" lon="6.91277">
        <ele>1691</ele>
        <time>2019-08-03T12:01:16.000Z</time>
      </trkpt>
      <trkpt lat="44.03016" lon="6.91271">
        <ele>1689.5999755859</ele>
        <time>2019-08-03T12:01:18.000Z</time>
      </trkpt>
      <trkpt lat="44.03016" lon="6.91268">
        <ele>1689.4000244141</ele>
        <time>2019-08-03T12:01:19.000Z</time>
      </trkpt>
      <trkpt lat="44.03016" lon="6.91266">
        <ele>1688.1999511719</ele>
        <time>2019-08-03T12:01:20.000Z</time>
      </trkpt>
      <trkpt lat="44.03017" lon="6.91261">
        <ele>1686.4000244141</ele>
        <time>2019-08-03T12:01:23.000Z</time>
      </trkpt>
      <trkpt lat="44.03019" lon="6.91259">
        <ele>1685.4000244141</ele>
        <time>2019-08-03T12:01:25.000Z</time>
      </trkpt>
      <trkpt lat="44.03022" lon="6.91256">
        <ele>1684</ele>
        <time>2019-08-03T12:01:28.000Z</time>
      </trkpt>
      <trkpt lat="44.03024" lon="6.91255">
        <ele>1683.1999511719</ele>
        <time>2019-08-03T12:01:30.000Z</time>
      </trkpt>
      <trkpt lat="44.03026" lon="6.91254">
        <ele>1682.5999755859</ele>
        <time>2019-08-03T12:01:31.000Z</time>
      </trkpt>
      <trkpt lat="44.03029" lon="6.9125">
        <ele>1681.4000244141</ele>
        <time>2019-08-03T12:01:34.000Z</time>
      </trkpt>
      <trkpt lat="44.03031" lon="6.91248">
        <ele>1680.1999511719</ele>
        <time>2019-08-03T12:01:36.000Z</time>
      </trkpt>
      <trkpt lat="44.03032" lon="6.91247">
        <ele>1679.4000244141</ele>
        <time>2019-08-03T12:01:37.000Z</time>
      </trkpt>
      <trkpt lat="44.03034" lon="6.91246">
        <ele>1678.8000488281</ele>
        <time>2019-08-03T12:01:38.000Z</time>
      </trkpt>
      <trkpt lat="44.03037" lon="6.91244">
        <ele>1677.4000244141</ele>
        <time>2019-08-03T12:01:40.000Z</time>
      </trkpt>
      <trkpt lat="44.0304" lon="6.91241">
        <ele>1676</ele>
        <time>2019-08-03T12:01:43.000Z</time>
      </trkpt>
      <trkpt lat="44.03042" lon="6.91241">
        <ele>1674.8000488281</ele>
        <time>2019-08-03T12:01:45.000Z</time>
      </trkpt>
      <trkpt lat="44.03044" lon="6.91243">
        <ele>1673.8000488281</ele>
        <time>2019-08-03T12:01:47.000Z</time>
      </trkpt>
      <trkpt lat="44.03045" lon="6.91245">
        <ele>1672.8000488281</ele>
        <time>2019-08-03T12:01:49.000Z</time>
      </trkpt>
      <trkpt lat="44.03045" lon="6.91246">
        <ele>1672.4000244141</ele>
        <time>2019-08-03T12:01:50.000Z</time>
      </trkpt>
      <trkpt lat="44.03045" lon="6.91247">
        <ele>1671.1999511719</ele>
        <time>2019-08-03T12:01:53.000Z</time>
      </trkpt>
      <trkpt lat="44.03045" lon="6.91248">
        <ele>1670.8000488281</ele>
        <time>2019-08-03T12:01:55.000Z</time>
      </trkpt>
      <trkpt lat="44.03045" lon="6.91253">
        <ele>1670.1999511719</ele>
        <time>2019-08-03T12:02:01.000Z</time>
      </trkpt>
      <trkpt lat="44.03048" lon="6.91259">
        <ele>1671</ele>
        <time>2019-08-03T12:02:09.000Z</time>
      </trkpt>
      <trkpt lat="44.0305" lon="6.9126">
        <ele>1671.4000244141</ele>
        <time>2019-08-03T12:02:11.000Z</time>
      </trkpt>
      <trkpt lat="44.03052" lon="6.91259">
        <ele>1671</ele>
        <time>2019-08-03T12:02:14.000Z</time>
      </trkpt>
      <trkpt lat="44.03054" lon="6.91258">
        <ele>1671.1999511719</ele>
        <time>2019-08-03T12:02:20.000Z</time>
      </trkpt>
      <trkpt lat="44.03057" lon="6.91253">
        <ele>1672.1999511719</ele>
        <time>2019-08-03T12:02:27.000Z</time>
      </trkpt>
      <trkpt lat="44.03059" lon="6.91251">
        <ele>1672.4000244141</ele>
        <time>2019-08-03T12:02:28.000Z</time>
      </trkpt>
      <trkpt lat="44.0306" lon="6.91247">
        <ele>1672.8000488281</ele>
        <time>2019-08-03T12:02:30.000Z</time>
      </trkpt>
      <trkpt lat="44.03058" lon="6.91236">
        <ele>1673</ele>
        <time>2019-08-03T12:02:33.000Z</time>
      </trkpt>
      <trkpt lat="44.03058" lon="6.91221">
        <ele>1671.5999755859</ele>
        <time>2019-08-03T12:02:37.000Z</time>
      </trkpt>
      <trkpt lat="44.03058" lon="6.91215">
        <ele>1671.1999511719</ele>
        <time>2019-08-03T12:02:38.000Z</time>
      </trkpt>
      <trkpt lat="44.03058" lon="6.91205">
        <ele>1670.1999511719</ele>
        <time>2019-08-03T12:02:40.000Z</time>
      </trkpt>
      <trkpt lat="44.03058" lon="6.91203">
        <ele>1669.5999755859</ele>
        <time>2019-08-03T12:02:41.000Z</time>
      </trkpt>
      <trkpt lat="44.03063" lon="6.91196">
        <ele>1670.4000244141</ele>
        <time>2019-08-03T12:02:46.000Z</time>
      </trkpt>
      <trkpt lat="44.03063" lon="6.91195">
        <ele>1670.4000244141</ele>
        <time>2019-08-03T12:02:47.000Z</time>
      </trkpt>
      <trkpt lat="44.03066" lon="6.9119">
        <ele>1670</ele>
        <time>2019-08-03T12:02:49.000Z</time>
      </trkpt>
      <trkpt lat="44.03069" lon="6.91187">
        <ele>1669.8000488281</ele>
        <time>2019-08-03T12:02:51.000Z</time>
      </trkpt>
      <trkpt lat="44.0307" lon="6.91185">
        <ele>1669.4000244141</ele>
        <time>2019-08-03T12:02:53.000Z</time>
      </trkpt>
      <trkpt lat="44.0307" lon="6.91185">
        <ele>1669</ele>
        <time>2019-08-03T12:02:54.000Z</time>
      </trkpt>
      <trkpt lat="44.03074" lon="6.9118">
        <ele>1669.1999511719</ele>
        <time>2019-08-03T12:02:59.000Z</time>
      </trkpt>
      <trkpt lat="44.03074" lon="6.91179">
        <ele>1669.1999511719</ele>
        <time>2019-08-03T12:03:00.000Z</time>
      </trkpt>
      <trkpt lat="44.03076" lon="6.91175">
        <ele>1669.8000488281</ele>
        <time>2019-08-03T12:03:05.000Z</time>
      </trkpt>
      <trkpt lat="44.03077" lon="6.91174">
        <ele>1670</ele>
        <time>2019-08-03T12:03:06.000Z</time>
      </trkpt>
      <trkpt lat="44.0308" lon="6.91168">
        <ele>1670.1999511719</ele>
        <time>2019-08-03T12:03:13.000Z</time>
      </trkpt>
      <trkpt lat="44.0308" lon="6.91165">
        <ele>1670.1999511719</ele>
        <time>2019-08-03T12:03:20.000Z</time>
      </trkpt>
      <trkpt lat="44.0308" lon="6.91162">
        <ele>1671.1999511719</ele>
        <time>2019-08-03T12:03:25.000Z</time>
      </trkpt>
      <trkpt lat="44.0308" lon="6.91159">
        <ele>1671.4000244141</ele>
        <time>2019-08-03T12:03:28.000Z</time>
      </trkpt>
      <trkpt lat="44.03081" lon="6.91154">
        <ele>1672.4000244141</ele>
        <time>2019-08-03T12:03:33.000Z</time>
      </trkpt>
      <trkpt lat="44.0308" lon="6.91153">
        <ele>1673.4000244141</ele>
        <time>2019-08-03T12:03:36.000Z</time>
      </trkpt>
      <trkpt lat="44.0308" lon="6.91149">
        <ele>1674.4000244141</ele>
        <time>2019-08-03T12:03:40.000Z</time>
      </trkpt>
      <trkpt lat="44.0308" lon="6.91147">
        <ele>1674.5999755859</ele>
        <time>2019-08-03T12:03:41.000Z</time>
      </trkpt>
      <trkpt lat="44.03084" lon="6.91135">
        <ele>1675.5999755859</ele>
        <time>2019-08-03T12:03:46.000Z</time>
      </trkpt>
      <trkpt lat="44.03084" lon="6.91133">
        <ele>1675.5999755859</ele>
        <time>2019-08-03T12:03:47.000Z</time>
      </trkpt>
      <trkpt lat="44.03089" lon="6.91118">
        <ele>1676</ele>
        <time>2019-08-03T12:03:54.000Z</time>
      </trkpt>
      <trkpt lat="44.03092" lon="6.91111">
        <ele>1676.5999755859</ele>
        <time>2019-08-03T12:03:57.000Z</time>
      </trkpt>
      <trkpt lat="44.03097" lon="6.91105">
        <ele>1676.8000488281</ele>
        <time>2019-08-03T12:04:00.000Z</time>
      </trkpt>
      <trkpt lat="44.031" lon="6.91105">
        <ele>1677</ele>
        <time>2019-08-03T12:04:01.000Z</time>
      </trkpt>
      <trkpt lat="44.03107" lon="6.91105">
        <ele>1676.8000488281</ele>
        <time>2019-08-03T12:04:03.000Z</time>
      </trkpt>
      <trkpt lat="44.03114" lon="6.91101">
        <ele>1676.4000244141</ele>
        <time>2019-08-03T12:04:06.000Z</time>
      </trkpt>
      <trkpt lat="44.03115" lon="6.91097">
        <ele>1676.1999511719</ele>
        <time>2019-08-03T12:04:07.000Z</time>
      </trkpt>
      <trkpt lat="44.03117" lon="6.91094">
        <ele>1675.4000244141</ele>
        <time>2019-08-03T12:04:09.000Z</time>
      </trkpt>
      <trkpt lat="44.03118" lon="6.91093">
        <ele>1675</ele>
        <time>2019-08-03T12:04:10.000Z</time>
      </trkpt>
      <trkpt lat="44.03117" lon="6.91091">
        <ele>1674.8000488281</ele>
        <time>2019-08-03T12:04:11.000Z</time>
      </trkpt>
      <trkpt lat="44.03114" lon="6.91086">
        <ele>1675</ele>
        <time>2019-08-03T12:04:17.000Z</time>
      </trkpt>
      <trkpt lat="44.03112" lon="6.91075">
        <ele>1675.1999511719</ele>
        <time>2019-08-03T12:04:23.000Z</time>
      </trkpt>
      <trkpt lat="44.03113" lon="6.91066">
        <ele>1676.8000488281</ele>
        <time>2019-08-03T12:04:27.000Z</time>
      </trkpt>
      <trkpt lat="44.03114" lon="6.91063">
        <ele>1677.4000244141</ele>
        <time>2019-08-03T12:04:29.000Z</time>
      </trkpt>
      <trkpt lat="44.03114" lon="6.91062">
        <ele>1677.8000488281</ele>
        <time>2019-08-03T12:04:30.000Z</time>
      </trkpt>
      <trkpt lat="44.03115" lon="6.91057">
        <ele>1678.8000488281</ele>
        <time>2019-08-03T12:04:35.000Z</time>
      </trkpt>
      <trkpt lat="44.03115" lon="6.91054">
        <ele>1679.1999511719</ele>
        <time>2019-08-03T12:04:41.000Z</time>
      </trkpt>
      <trkpt lat="44.03115" lon="6.9105">
        <ele>1680</ele>
        <time>2019-08-03T12:04:47.000Z</time>
      </trkpt>
      <trkpt lat="44.03116" lon="6.91049">
        <ele>1680.4000244141</ele>
        <time>2019-08-03T12:04:49.000Z</time>
      </trkpt>
      <trkpt lat="44.03117" lon="6.91044">
        <ele>1681</ele>
        <time>2019-08-03T12:04:56.000Z</time>
      </trkpt>
      <trkpt lat="44.0312" lon="6.9104">
        <ele>1682</ele>
        <time>2019-08-03T12:05:04.000Z</time>
      </trkpt>
      <trkpt lat="44.03121" lon="6.91036">
        <ele>1683.1999511719</ele>
        <time>2019-08-03T12:05:10.000Z</time>
      </trkpt>
      <trkpt lat="44.03121" lon="6.91035">
        <ele>1683.4000244141</ele>
        <time>2019-08-03T12:05:12.000Z</time>
      </trkpt>
      <trkpt lat="44.03119" lon="6.91029">
        <ele>1684</ele>
        <time>2019-08-03T12:05:19.000Z</time>
      </trkpt>
      <trkpt lat="44.03118" lon="6.91028">
        <ele>1684.1999511719</ele>
        <time>2019-08-03T12:05:20.000Z</time>
      </trkpt>
      <trkpt lat="44.03117" lon="6.91023">
        <ele>1685.4000244141</ele>
        <time>2019-08-03T12:05:25.000Z</time>
      </trkpt>
      <trkpt lat="44.03116" lon="6.91022">
        <ele>1685.5999755859</ele>
        <time>2019-08-03T12:05:26.000Z</time>
      </trkpt>
      <trkpt lat="44.03114" lon="6.91017">
        <ele>1686.1999511719</ele>
        <time>2019-08-03T12:05:32.000Z</time>
      </trkpt>
      <trkpt lat="44.03114" lon="6.91015">
        <ele>1686.4000244141</ele>
        <time>2019-08-03T12:05:35.000Z</time>
      </trkpt>
      <trkpt lat="44.03111" lon="6.91008">
        <ele>1686.4000244141</ele>
        <time>2019-08-03T12:05:37.000Z</time>
      </trkpt>
      <trkpt lat="44.03108" lon="6.90998">
        <ele>1686</ele>
        <time>2019-08-03T12:05:42.000Z</time>
      </trkpt>
      <trkpt lat="44.03106" lon="6.90987">
        <ele>1686.8000488281</ele>
        <time>2019-08-03T12:05:48.000Z</time>
      </trkpt>
      <trkpt lat="44.03107" lon="6.90977">
        <ele>1687.5999755859</ele>
        <time>2019-08-03T12:05:53.000Z</time>
      </trkpt>
      <trkpt lat="44.03108" lon="6.90976">
        <ele>1687.8000488281</ele>
        <time>2019-08-03T12:05:54.000Z</time>
      </trkpt>
      <trkpt lat="44.03115" lon="6.90968">
        <ele>1688.5999755859</ele>
        <time>2019-08-03T12:06:00.000Z</time>
      </trkpt>
      <trkpt lat="44.03116" lon="6.90967">
        <ele>1688.8000488281</ele>
        <time>2019-08-03T12:06:01.000Z</time>
      </trkpt>
      <trkpt lat="44.03125" lon="6.90963">
        <ele>1689.1999511719</ele>
        <time>2019-08-03T12:06:07.000Z</time>
      </trkpt>
      <trkpt lat="44.03128" lon="6.90963">
        <ele>1689.5999755859</ele>
        <time>2019-08-03T12:06:09.000Z</time>
      </trkpt>
      <trkpt lat="44.03133" lon="6.90964">
        <ele>1690.8000488281</ele>
        <time>2019-08-03T12:06:13.000Z</time>
      </trkpt>
      <trkpt lat="44.03135" lon="6.90963">
        <ele>1690.8000488281</ele>
        <time>2019-08-03T12:06:14.000Z</time>
      </trkpt>
      <trkpt lat="44.03142" lon="6.90958">
        <ele>1690.4000244141</ele>
        <time>2019-08-03T12:06:17.000Z</time>
      </trkpt>
      <trkpt lat="44.03145" lon="6.90953">
        <ele>1689.1999511719</ele>
        <time>2019-08-03T12:06:19.000Z</time>
      </trkpt>
      <trkpt lat="44.03143" lon="6.90949">
        <ele>1687.8000488281</ele>
        <time>2019-08-03T12:06:21.000Z</time>
      </trkpt>
      <trkpt lat="44.03141" lon="6.90947">
        <ele>1686.8000488281</ele>
        <time>2019-08-03T12:06:23.000Z</time>
      </trkpt>
      <trkpt lat="44.03139" lon="6.90946">
        <ele>1686.8000488281</ele>
        <time>2019-08-03T12:06:25.000Z</time>
      </trkpt>
      <trkpt lat="44.03135" lon="6.90936">
        <ele>1688.4000244141</ele>
        <time>2019-08-03T12:06:30.000Z</time>
      </trkpt>
      <trkpt lat="44.03134" lon="6.90933">
        <ele>1688.8000488281</ele>
        <time>2019-08-03T12:06:31.000Z</time>
      </trkpt>
      <trkpt lat="44.03133" lon="6.90925">
        <ele>1689.8000488281</ele>
        <time>2019-08-03T12:06:35.000Z</time>
      </trkpt>
      <trkpt lat="44.03132" lon="6.90921">
        <ele>1690</ele>
        <time>2019-08-03T12:06:37.000Z</time>
      </trkpt>
      <trkpt lat="44.03132" lon="6.90913">
        <ele>1690.4000244141</ele>
        <time>2019-08-03T12:06:40.000Z</time>
      </trkpt>
      <trkpt lat="44.03135" lon="6.90896">
        <ele>1690.8000488281</ele>
        <time>2019-08-03T12:06:48.000Z</time>
      </trkpt>
      <trkpt lat="44.03142" lon="6.90882">
        <ele>1690.8000488281</ele>
        <time>2019-08-03T12:06:53.000Z</time>
      </trkpt>
      <trkpt lat="44.03152" lon="6.90872">
        <ele>1690.5999755859</ele>
        <time>2019-08-03T12:06:59.000Z</time>
      </trkpt>
      <trkpt lat="44.03159" lon="6.90864">
        <ele>1690.4000244141</ele>
        <time>2019-08-03T12:07:04.000Z</time>
      </trkpt>
      <trkpt lat="44.03166" lon="6.90857">
        <ele>1690</ele>
        <time>2019-08-03T12:07:09.000Z</time>
      </trkpt>
      <trkpt lat="44.03172" lon="6.90847">
        <ele>1689.8000488281</ele>
        <time>2019-08-03T12:07:13.000Z</time>
      </trkpt>
      <trkpt lat="44.03185" lon="6.90826">
        <ele>1689.8000488281</ele>
        <time>2019-08-03T12:07:19.000Z</time>
      </trkpt>
      <trkpt lat="44.03193" lon="6.90822">
        <ele>1689</ele>
        <time>2019-08-03T12:07:21.000Z</time>
      </trkpt>
      <trkpt lat="44.03198" lon="6.90815">
        <ele>1687.8000488281</ele>
        <time>2019-08-03T12:07:23.000Z</time>
      </trkpt>
      <trkpt lat="44.032" lon="6.90809">
        <ele>1686.5999755859</ele>
        <time>2019-08-03T12:07:24.000Z</time>
      </trkpt>
      <trkpt lat="44.03202" lon="6.908">
        <ele>1685</ele>
        <time>2019-08-03T12:07:26.000Z</time>
      </trkpt>
      <trkpt lat="44.03202" lon="6.90796">
        <ele>1684.8000488281</ele>
        <time>2019-08-03T12:07:27.000Z</time>
      </trkpt>
      <trkpt lat="44.03202" lon="6.9079">
        <ele>1684</ele>
        <time>2019-08-03T12:07:29.000Z</time>
      </trkpt>
      <trkpt lat="44.03204" lon="6.90783">
        <ele>1683.4000244141</ele>
        <time>2019-08-03T12:07:32.000Z</time>
      </trkpt>
      <trkpt lat="44.0321" lon="6.90769">
        <ele>1684</ele>
        <time>2019-08-03T12:07:38.000Z</time>
      </trkpt>
      <trkpt lat="44.0321" lon="6.90765">
        <ele>1683.8000488281</ele>
        <time>2019-08-03T12:07:39.000Z</time>
      </trkpt>
      <trkpt lat="44.03209" lon="6.90759">
        <ele>1683.8000488281</ele>
        <time>2019-08-03T12:07:42.000Z</time>
      </trkpt>
      <trkpt lat="44.03206" lon="6.90755">
        <ele>1684</ele>
        <time>2019-08-03T12:07:44.000Z</time>
      </trkpt>
      <trkpt lat="44.03201" lon="6.90744">
        <ele>1684.8000488281</ele>
        <time>2019-08-03T12:07:48.000Z</time>
      </trkpt>
      <trkpt lat="44.03202" lon="6.90742">
        <ele>1685</ele>
        <time>2019-08-03T12:07:49.000Z</time>
      </trkpt>
      <trkpt lat="44.03206" lon="6.90725">
        <ele>1685.5999755859</ele>
        <time>2019-08-03T12:07:55.000Z</time>
      </trkpt>
      <trkpt lat="44.03208" lon="6.90718">
        <ele>1686</ele>
        <time>2019-08-03T12:07:58.000Z</time>
      </trkpt>
      <trkpt lat="44.03209" lon="6.90706">
        <ele>1686.4000244141</ele>
        <time>2019-08-03T12:08:02.000Z</time>
      </trkpt>
      <trkpt lat="44.03208" lon="6.90692">
        <ele>1686.5999755859</ele>
        <time>2019-08-03T12:08:07.000Z</time>
      </trkpt>
      <trkpt lat="44.03215" lon="6.90677">
        <ele>1686.5999755859</ele>
        <time>2019-08-03T12:08:11.000Z</time>
      </trkpt>
      <trkpt lat="44.0323" lon="6.90661">
        <ele>1685.4000244141</ele>
        <time>2019-08-03T12:08:16.000Z</time>
      </trkpt>
      <trkpt lat="44.03233" lon="6.90657">
        <ele>1684.5999755859</ele>
        <time>2019-08-03T12:08:17.000Z</time>
      </trkpt>
      <trkpt lat="44.03235" lon="6.90651">
        <ele>1684</ele>
        <time>2019-08-03T12:08:18.000Z</time>
      </trkpt>
      <trkpt lat="44.03237" lon="6.90645">
        <ele>1683.4000244141</ele>
        <time>2019-08-03T12:08:19.000Z</time>
      </trkpt>
      <trkpt lat="44.03238" lon="6.90642">
        <ele>1682.1999511719</ele>
        <time>2019-08-03T12:08:20.000Z</time>
      </trkpt>
      <trkpt lat="44.0324" lon="6.90635">
        <ele>1680.8000488281</ele>
        <time>2019-08-03T12:08:22.000Z</time>
      </trkpt>
      <trkpt lat="44.03245" lon="6.90625">
        <ele>1681.5999755859</ele>
        <time>2019-08-03T12:08:25.000Z</time>
      </trkpt>
      <trkpt lat="44.03252" lon="6.90618">
        <ele>1681.5999755859</ele>
        <time>2019-08-03T12:08:27.000Z</time>
      </trkpt>
      <trkpt lat="44.03255" lon="6.9061">
        <ele>1680.5999755859</ele>
        <time>2019-08-03T12:08:29.000Z</time>
      </trkpt>
      <trkpt lat="44.03255" lon="6.90603">
        <ele>1679</ele>
        <time>2019-08-03T12:08:31.000Z</time>
      </trkpt>
      <trkpt lat="44.03252" lon="6.90598">
        <ele>1678.4000244141</ele>
        <time>2019-08-03T12:08:33.000Z</time>
      </trkpt>
      <trkpt lat="44.03252" lon="6.90586">
        <ele>1679.5999755859</ele>
        <time>2019-08-03T12:08:37.000Z</time>
      </trkpt>
      <trkpt lat="44.03256" lon="6.90575">
        <ele>1680.1999511719</ele>
        <time>2019-08-03T12:08:40.000Z</time>
      </trkpt>
      <trkpt lat="44.03259" lon="6.90573">
        <ele>1680.1999511719</ele>
        <time>2019-08-03T12:08:41.000Z</time>
      </trkpt>
      <trkpt lat="44.03261" lon="6.9057">
        <ele>1680</ele>
        <time>2019-08-03T12:08:42.000Z</time>
      </trkpt>
      <trkpt lat="44.03265" lon="6.90562">
        <ele>1679.8000488281</ele>
        <time>2019-08-03T12:08:45.000Z</time>
      </trkpt>
      <trkpt lat="44.03272" lon="6.90554">
        <ele>1680.1999511719</ele>
        <time>2019-08-03T12:08:49.000Z</time>
      </trkpt>
      <trkpt lat="44.03272" lon="6.90552">
        <ele>1680.5999755859</ele>
        <time>2019-08-03T12:08:50.000Z</time>
      </trkpt>
      <trkpt lat="44.03272" lon="6.90545">
        <ele>1680.1999511719</ele>
        <time>2019-08-03T12:08:53.000Z</time>
      </trkpt>
      <trkpt lat="44.03273" lon="6.90541">
        <ele>1680.5999755859</ele>
        <time>2019-08-03T12:08:56.000Z</time>
      </trkpt>
      <trkpt lat="44.03272" lon="6.9054">
        <ele>1681.4000244141</ele>
        <time>2019-08-03T12:08:57.000Z</time>
      </trkpt>
      <trkpt lat="44.03272" lon="6.90536">
        <ele>1682.5999755859</ele>
        <time>2019-08-03T12:09:00.000Z</time>
      </trkpt>
      <trkpt lat="44.03272" lon="6.90535">
        <ele>1682.8000488281</ele>
        <time>2019-08-03T12:09:01.000Z</time>
      </trkpt>
      <trkpt lat="44.03272" lon="6.90519">
        <ele>1683.8000488281</ele>
        <time>2019-08-03T12:09:06.000Z</time>
      </trkpt>
      <trkpt lat="44.03274" lon="6.90508">
        <ele>1685</ele>
        <time>2019-08-03T12:09:11.000Z</time>
      </trkpt>
      <trkpt lat="44.03278" lon="6.90498">
        <ele>1686</ele>
        <time>2019-08-03T12:09:17.000Z</time>
      </trkpt>
      <trkpt lat="44.03279" lon="6.90497">
        <ele>1686.1999511719</ele>
        <time>2019-08-03T12:09:18.000Z</time>
      </trkpt>
      <trkpt lat="44.03285" lon="6.90489">
        <ele>1687.1999511719</ele>
        <time>2019-08-03T12:09:24.000Z</time>
      </trkpt>
      <trkpt lat="44.03286" lon="6.90487">
        <ele>1687.1999511719</ele>
        <time>2019-08-03T12:09:25.000Z</time>
      </trkpt>
      <trkpt lat="44.0329" lon="6.90472">
        <ele>1688.1999511719</ele>
        <time>2019-08-03T12:09:33.000Z</time>
      </trkpt>
      <trkpt lat="44.0329" lon="6.90469">
        <ele>1688.1999511719</ele>
        <time>2019-08-03T12:09:34.000Z</time>
      </trkpt>
      <trkpt lat="44.03295" lon="6.90456">
        <ele>1689.1999511719</ele>
        <time>2019-08-03T12:09:39.000Z</time>
      </trkpt>
      <trkpt lat="44.03296" lon="6.90454">
        <ele>1689.4000244141</ele>
        <time>2019-08-03T12:09:40.000Z</time>
      </trkpt>
      <trkpt lat="44.03299" lon="6.90451">
        <ele>1690.5999755859</ele>
        <time>2019-08-03T12:09:44.000Z</time>
      </trkpt>
      <trkpt lat="44.03301" lon="6.9045">
        <ele>1691.5999755859</ele>
        <time>2019-08-03T12:09:49.000Z</time>
      </trkpt>
      <trkpt lat="44.03303" lon="6.90448">
        <ele>1692.5999755859</ele>
        <time>2019-08-03T12:09:56.000Z</time>
      </trkpt>
      <trkpt lat="44.03304" lon="6.90448">
        <ele>1692.5999755859</ele>
        <time>2019-08-03T12:09:57.000Z</time>
      </trkpt>
      <trkpt lat="44.03304" lon="6.90448">
        <ele>1692.5999755859</ele>
        <time>2019-08-03T12:09:58.000Z</time>
      </trkpt>
      <trkpt lat="44.03304" lon="6.90447">
        <ele>1692.8000488281</ele>
        <time>2019-08-03T12:10:00.000Z</time>
      </trkpt>
      <trkpt lat="44.03309" lon="6.90441">
        <ele>1692.8000488281</ele>
        <time>2019-08-03T12:10:06.000Z</time>
      </trkpt>
      <trkpt lat="44.03313" lon="6.90426">
        <ele>1692.5999755859</ele>
        <time>2019-08-03T12:10:09.000Z</time>
      </trkpt>
      <trkpt lat="44.03315" lon="6.90421">
        <ele>1692.1999511719</ele>
        <time>2019-08-03T12:10:10.000Z</time>
      </trkpt>
      <trkpt lat="44.03317" lon="6.90414">
        <ele>1691.4000244141</ele>
        <time>2019-08-03T12:10:11.000Z</time>
      </trkpt>
      <trkpt lat="44.03321" lon="6.90404">
        <ele>1689.8000488281</ele>
        <time>2019-08-03T12:10:13.000Z</time>
      </trkpt>
      <trkpt lat="44.03325" lon="6.90394">
        <ele>1688</ele>
        <time>2019-08-03T12:10:15.000Z</time>
      </trkpt>
      <trkpt lat="44.03328" lon="6.90385">
        <ele>1686.4000244141</ele>
        <time>2019-08-03T12:10:17.000Z</time>
      </trkpt>
      <trkpt lat="44.03332" lon="6.90377">
        <ele>1684.8000488281</ele>
        <time>2019-08-03T12:10:19.000Z</time>
      </trkpt>
      <trkpt lat="44.03333" lon="6.90377">
        <ele>1684.1999511719</ele>
        <time>2019-08-03T12:10:20.000Z</time>
      </trkpt>
      <trkpt lat="44.03336" lon="6.90377">
        <ele>1683.1999511719</ele>
        <time>2019-08-03T12:10:21.000Z</time>
      </trkpt>
      <trkpt lat="44.03332" lon="6.90379">
        <ele>1681.4000244141</ele>
        <time>2019-08-03T12:10:23.000Z</time>
      </trkpt>
      <trkpt lat="44.03332" lon="6.90379">
        <ele>1679.8000488281</ele>
        <time>2019-08-03T12:10:25.000Z</time>
      </trkpt>
      <trkpt lat="44.03331" lon="6.90377">
        <ele>1679.8000488281</ele>
        <time>2019-08-03T12:10:27.000Z</time>
      </trkpt>
      <trkpt lat="44.03331" lon="6.90377">
        <ele>1680.8000488281</ele>
        <time>2019-08-03T12:10:29.000Z</time>
      </trkpt>
      <trkpt lat="44.03332" lon="6.90375">
        <ele>1681.1999511719</ele>
        <time>2019-08-03T12:10:30.000Z</time>
      </trkpt>
      <trkpt lat="44.03331" lon="6.90377">
        <ele>1681.1999511719</ele>
        <time>2019-08-03T12:10:31.000Z</time>
      </trkpt>
      <trkpt lat="44.03333" lon="6.90374">
        <ele>1681.4000244141</ele>
        <time>2019-08-03T12:10:32.000Z</time>
      </trkpt>
      <trkpt lat="44.03335" lon="6.90366">
        <ele>1681</ele>
        <time>2019-08-03T12:10:36.000Z</time>
      </trkpt>
      <trkpt lat="44.03335" lon="6.90347">
        <ele>1680.4000244141</ele>
        <time>2019-08-03T12:10:40.000Z</time>
      </trkpt>
      <trkpt lat="44.03337" lon="6.9034">
        <ele>1679.5999755859</ele>
        <time>2019-08-03T12:10:41.000Z</time>
      </trkpt>
      <trkpt lat="44.03341" lon="6.90334">
        <ele>1678.8000488281</ele>
        <time>2019-08-03T12:10:43.000Z</time>
      </trkpt>
      <trkpt lat="44.03344" lon="6.90331">
        <ele>1678.4000244141</ele>
        <time>2019-08-03T12:10:44.000Z</time>
      </trkpt>
      <trkpt lat="44.03349" lon="6.90323">
        <ele>1677</ele>
        <time>2019-08-03T12:10:46.000Z</time>
      </trkpt>
      <trkpt lat="44.03352" lon="6.90311">
        <ele>1676.4000244141</ele>
        <time>2019-08-03T12:10:48.000Z</time>
      </trkpt>
      <trkpt lat="44.03354" lon="6.90305">
        <ele>1675.8000488281</ele>
        <time>2019-08-03T12:10:49.000Z</time>
      </trkpt>
      <trkpt lat="44.03357" lon="6.90295">
        <ele>1674.5999755859</ele>
        <time>2019-08-03T12:10:51.000Z</time>
      </trkpt>
      <trkpt lat="44.03359" lon="6.90291">
        <ele>1674.1999511719</ele>
        <time>2019-08-03T12:10:52.000Z</time>
      </trkpt>
      <trkpt lat="44.03367" lon="6.90265">
        <ele>1673.4000244141</ele>
        <time>2019-08-03T12:10:57.000Z</time>
      </trkpt>
      <trkpt lat="44.03368" lon="6.9026">
        <ele>1673.4000244141</ele>
        <time>2019-08-03T12:10:58.000Z</time>
      </trkpt>
      <trkpt lat="44.0337" lon="6.90243">
        <ele>1673.4000244141</ele>
        <time>2019-08-03T12:11:02.000Z</time>
      </trkpt>
      <trkpt lat="44.03366" lon="6.90227">
        <ele>1674.1999511719</ele>
        <time>2019-08-03T12:11:07.000Z</time>
      </trkpt>
      <trkpt lat="44.03355" lon="6.90217">
        <ele>1674.1999511719</ele>
        <time>2019-08-03T12:11:12.000Z</time>
      </trkpt>
      <trkpt lat="44.03355" lon="6.90213">
        <ele>1674.1999511719</ele>
        <time>2019-08-03T12:11:13.000Z</time>
      </trkpt>
      <trkpt lat="44.03355" lon="6.90205">
        <ele>1674.4000244141</ele>
        <time>2019-08-03T12:11:15.000Z</time>
      </trkpt>
      <trkpt lat="44.03356" lon="6.90199">
        <ele>1674.5999755859</ele>
        <time>2019-08-03T12:11:17.000Z</time>
      </trkpt>
      <trkpt lat="44.03357" lon="6.90186">
        <ele>1675.4000244141</ele>
        <time>2019-08-03T12:11:22.000Z</time>
      </trkpt>
      <trkpt lat="44.03356" lon="6.90183">
        <ele>1675.5999755859</ele>
        <time>2019-08-03T12:11:23.000Z</time>
      </trkpt>
      <trkpt lat="44.03349" lon="6.90173">
        <ele>1676.8000488281</ele>
        <time>2019-08-03T12:11:27.000Z</time>
      </trkpt>
      <trkpt lat="44.03339" lon="6.90164">
        <ele>1677.1999511719</ele>
        <time>2019-08-03T12:11:32.000Z</time>
      </trkpt>
      <trkpt lat="44.03333" lon="6.90149">
        <ele>1677.1999511719</ele>
        <time>2019-08-03T12:11:37.000Z</time>
      </trkpt>
      <trkpt lat="44.03329" lon="6.90135">
        <ele>1676.4000244141</ele>
        <time>2019-08-03T12:11:41.000Z</time>
      </trkpt>
      <trkpt lat="44.03327" lon="6.90134">
        <ele>1676.1999511719</ele>
        <time>2019-08-03T12:11:42.000Z</time>
      </trkpt>
      <trkpt lat="44.03322" lon="6.90125">
        <ele>1675.5999755859</ele>
        <time>2019-08-03T12:11:45.000Z</time>
      </trkpt>
      <trkpt lat="44.03319" lon="6.90115">
        <ele>1674.4000244141</ele>
        <time>2019-08-03T12:11:48.000Z</time>
      </trkpt>
      <trkpt lat="44.03317" lon="6.90111">
        <ele>1673.8000488281</ele>
        <time>2019-08-03T12:11:49.000Z</time>
      </trkpt>
      <trkpt lat="44.03316" lon="6.90105">
        <ele>1673.1999511719</ele>
        <time>2019-08-03T12:11:50.000Z</time>
      </trkpt>
      <trkpt lat="44.03316" lon="6.90095">
        <ele>1671.8000488281</ele>
        <time>2019-08-03T12:11:53.000Z</time>
      </trkpt>
      <trkpt lat="44.03315" lon="6.90085">
        <ele>1671</ele>
        <time>2019-08-03T12:11:56.000Z</time>
      </trkpt>
      <trkpt lat="44.03313" lon="6.90083">
        <ele>1670.1999511719</ele>
        <time>2019-08-03T12:11:57.000Z</time>
      </trkpt>
      <trkpt lat="44.03309" lon="6.90083">
        <ele>1669</ele>
        <time>2019-08-03T12:11:59.000Z</time>
      </trkpt>
      <trkpt lat="44.03308" lon="6.90083">
        <ele>1668.4000244141</ele>
        <time>2019-08-03T12:12:00.000Z</time>
      </trkpt>
      <trkpt lat="44.03307" lon="6.90083">
        <ele>1667.4000244141</ele>
        <time>2019-08-03T12:12:01.000Z</time>
      </trkpt>
      <trkpt lat="44.03307" lon="6.90083">
        <ele>1666.1999511719</ele>
        <time>2019-08-03T12:12:03.000Z</time>
      </trkpt>
      <trkpt lat="44.03307" lon="6.90083">
        <ele>1665.8000488281</ele>
        <time>2019-08-03T12:12:05.000Z</time>
      </trkpt>
      <trkpt lat="44.03304" lon="6.90086">
        <ele>1666.1999511719</ele>
        <time>2019-08-03T12:12:12.000Z</time>
      </trkpt>
      <trkpt lat="44.03299" lon="6.90087">
        <ele>1666.8000488281</ele>
        <time>2019-08-03T12:12:19.000Z</time>
      </trkpt>
      <trkpt lat="44.03297" lon="6.90087">
        <ele>1667.1999511719</ele>
        <time>2019-08-03T12:12:25.000Z</time>
      </trkpt>
      <trkpt lat="44.03297" lon="6.90087">
        <ele>1666.5999755859</ele>
        <time>2019-08-03T12:12:32.000Z</time>
      </trkpt>
      <trkpt lat="44.03299" lon="6.90087">
        <ele>1667</ele>
        <time>2019-08-03T12:12:36.000Z</time>
      </trkpt>
      <trkpt lat="44.03299" lon="6.90087">
        <ele>1667</ele>
        <time>2019-08-03T12:12:37.000Z</time>
      </trkpt>
      <trkpt lat="44.03302" lon="6.90087">
        <ele>1667.8000488281</ele>
        <time>2019-08-03T12:12:42.000Z</time>
      </trkpt>
      <trkpt lat="44.03307" lon="6.90085">
        <ele>1667.1999511719</ele>
        <time>2019-08-03T12:12:52.000Z</time>
      </trkpt>
      <trkpt lat="44.03309" lon="6.90083">
        <ele>1666.8000488281</ele>
        <time>2019-08-03T12:12:58.000Z</time>
      </trkpt>
      <trkpt lat="44.03311" lon="6.9008">
        <ele>1666.8000488281</ele>
        <time>2019-08-03T12:13:00.000Z</time>
      </trkpt>
      <trkpt lat="44.03311" lon="6.90074">
        <ele>1666.4000244141</ele>
        <time>2019-08-03T12:13:02.000Z</time>
      </trkpt>
      <trkpt lat="44.03311" lon="6.90071">
        <ele>1666</ele>
        <time>2019-08-03T12:13:03.000Z</time>
      </trkpt>
      <trkpt lat="44.03309" lon="6.90066">
        <ele>1666</ele>
        <time>2019-08-03T12:13:05.000Z</time>
      </trkpt>
      <trkpt lat="44.03307" lon="6.90064">
        <ele>1665.5999755859</ele>
        <time>2019-08-03T12:13:06.000Z</time>
      </trkpt>
      <trkpt lat="44.03302" lon="6.90066">
        <ele>1664.8000488281</ele>
        <time>2019-08-03T12:13:08.000Z</time>
      </trkpt>
      <trkpt lat="44.03301" lon="6.90068">
        <ele>1664.4000244141</ele>
        <time>2019-08-03T12:13:09.000Z</time>
      </trkpt>
      <trkpt lat="44.033" lon="6.90071">
        <ele>1663.1999511719</ele>
        <time>2019-08-03T12:13:10.000Z</time>
      </trkpt>
      <trkpt lat="44.03297" lon="6.90076">
        <ele>1662</ele>
        <time>2019-08-03T12:13:12.000Z</time>
      </trkpt>
      <trkpt lat="44.03295" lon="6.90076">
        <ele>1661.4000244141</ele>
        <time>2019-08-03T12:13:13.000Z</time>
      </trkpt>
      <trkpt lat="44.03296" lon="6.90075">
        <ele>1660.8000488281</ele>
        <time>2019-08-03T12:13:15.000Z</time>
      </trkpt>
      <trkpt lat="44.03294" lon="6.90075">
        <ele>1660.1999511719</ele>
        <time>2019-08-03T12:13:16.000Z</time>
      </trkpt>
      <trkpt lat="44.03293" lon="6.90075">
        <ele>1659.4000244141</ele>
        <time>2019-08-03T12:13:17.000Z</time>
      </trkpt>
      <trkpt lat="44.03291" lon="6.90073">
        <ele>1659.1999511719</ele>
        <time>2019-08-03T12:13:18.000Z</time>
      </trkpt>
      <trkpt lat="44.03288" lon="6.90068">
        <ele>1658.5999755859</ele>
        <time>2019-08-03T12:13:20.000Z</time>
      </trkpt>
      <trkpt lat="44.03282" lon="6.90061">
        <ele>1659.1999511719</ele>
        <time>2019-08-03T12:13:25.000Z</time>
      </trkpt>
      <trkpt lat="44.03269" lon="6.90056">
        <ele>1659.1999511719</ele>
        <time>2019-08-03T12:13:28.000Z</time>
      </trkpt>
      <trkpt lat="44.03263" lon="6.90056">
        <ele>1659.1999511719</ele>
        <time>2019-08-03T12:13:29.000Z</time>
      </trkpt>
      <trkpt lat="44.03253" lon="6.9005">
        <ele>1658.5999755859</ele>
        <time>2019-08-03T12:13:32.000Z</time>
      </trkpt>
      <trkpt lat="44.03251" lon="6.90047">
        <ele>1658</ele>
        <time>2019-08-03T12:13:33.000Z</time>
      </trkpt>
      <trkpt lat="44.03249" lon="6.90045">
        <ele>1657.8000488281</ele>
        <time>2019-08-03T12:13:34.000Z</time>
      </trkpt>
      <trkpt lat="44.03239" lon="6.90039">
        <ele>1657.4000244141</ele>
        <time>2019-08-03T12:13:37.000Z</time>
      </trkpt>
      <trkpt lat="44.03224" lon="6.90029">
        <ele>1657.1999511719</ele>
        <time>2019-08-03T12:13:42.000Z</time>
      </trkpt>
      <trkpt lat="44.03211" lon="6.90016">
        <ele>1657.4000244141</ele>
        <time>2019-08-03T12:13:47.000Z</time>
      </trkpt>
      <trkpt lat="44.03211" lon="6.90008">
        <ele>1657</ele>
        <time>2019-08-03T12:13:49.000Z</time>
      </trkpt>
      <trkpt lat="44.03211" lon="6.89999">
        <ele>1656.1999511719</ele>
        <time>2019-08-03T12:13:51.000Z</time>
      </trkpt>
      <trkpt lat="44.0321" lon="6.89995">
        <ele>1655.8000488281</ele>
        <time>2019-08-03T12:13:52.000Z</time>
      </trkpt>
      <trkpt lat="44.0321" lon="6.89977">
        <ele>1656</ele>
        <time>2019-08-03T12:13:56.000Z</time>
      </trkpt>
      <trkpt lat="44.03214" lon="6.89938">
        <ele>1655.8000488281</ele>
        <time>2019-08-03T12:14:04.000Z</time>
      </trkpt>
      <trkpt lat="44.0322" lon="6.89913">
        <ele>1655.8000488281</ele>
        <time>2019-08-03T12:14:09.000Z</time>
      </trkpt>
      <trkpt lat="44.03223" lon="6.8989">
        <ele>1657</ele>
        <time>2019-08-03T12:14:15.000Z</time>
      </trkpt>
      <trkpt lat="44.03231" lon="6.8987">
        <ele>1657.5999755859</ele>
        <time>2019-08-03T12:14:21.000Z</time>
      </trkpt>
      <trkpt lat="44.0323" lon="6.89852">
        <ele>1658.1999511719</ele>
        <time>2019-08-03T12:14:26.000Z</time>
      </trkpt>
      <trkpt lat="44.03233" lon="6.89824">
        <ele>1658.8000488281</ele>
        <time>2019-08-03T12:14:33.000Z</time>
      </trkpt>
      <trkpt lat="44.03234" lon="6.89801">
        <ele>1658.5999755859</ele>
        <time>2019-08-03T12:14:38.000Z</time>
      </trkpt>
      <trkpt lat="44.03229" lon="6.89781">
        <ele>1657.8000488281</ele>
        <time>2019-08-03T12:14:43.000Z</time>
      </trkpt>
      <trkpt lat="44.03224" lon="6.89764">
        <ele>1657.4000244141</ele>
        <time>2019-08-03T12:14:49.000Z</time>
      </trkpt>
      <trkpt lat="44.03224" lon="6.89763">
        <ele>1657.4000244141</ele>
        <time>2019-08-03T12:14:53.000Z</time>
      </trkpt>
      <trkpt lat="44.03224" lon="6.89763">
        <ele>1657.8000488281</ele>
        <time>2019-08-03T12:15:00.000Z</time>
      </trkpt>
      <trkpt lat="44.03224" lon="6.89762">
        <ele>1657.1999511719</ele>
        <time>2019-08-03T12:15:02.000Z</time>
      </trkpt>
      <trkpt lat="44.03224" lon="6.89763">
        <ele>1657.8000488281</ele>
        <time>2019-08-03T12:15:23.000Z</time>
      </trkpt>
      <trkpt lat="44.03224" lon="6.89764">
        <ele>1657.4000244141</ele>
        <time>2019-08-03T12:15:36.000Z</time>
      </trkpt>
      <trkpt lat="44.03224" lon="6.89764">
        <ele>1657</ele>
        <time>2019-08-03T12:16:00.000Z</time>
      </trkpt>
      <trkpt lat="44.03224" lon="6.89764">
        <ele>1658</ele>
        <time>2019-08-03T12:16:27.000Z</time>
      </trkpt>
      <trkpt lat="44.03224" lon="6.89764">
        <ele>1658.1999511719</ele>
        <time>2019-08-03T12:16:33.000Z</time>
      </trkpt>
      <trkpt lat="44.03222" lon="6.89758">
        <ele>1658.1999511719</ele>
        <time>2019-08-03T12:16:37.000Z</time>
      </trkpt>
      <trkpt lat="44.03222" lon="6.89738">
        <ele>1657.8000488281</ele>
        <time>2019-08-03T12:16:42.000Z</time>
      </trkpt>
      <trkpt lat="44.03218" lon="6.89715">
        <ele>1657</ele>
        <time>2019-08-03T12:16:46.000Z</time>
      </trkpt>
      <trkpt lat="44.03217" lon="6.89705">
        <ele>1655.8000488281</ele>
        <time>2019-08-03T12:16:48.000Z</time>
      </trkpt>
      <trkpt lat="44.03217" lon="6.89702">
        <ele>1654.4000244141</ele>
        <time>2019-08-03T12:16:49.000Z</time>
      </trkpt>
      <trkpt lat="44.03216" lon="6.89699">
        <ele>1653.4000244141</ele>
        <time>2019-08-03T12:16:50.000Z</time>
      </trkpt>
      <trkpt lat="44.03215" lon="6.89695">
        <ele>1652.4000244141</ele>
        <time>2019-08-03T12:16:52.000Z</time>
      </trkpt>
      <trkpt lat="44.03214" lon="6.89692">
        <ele>1651.1999511719</ele>
        <time>2019-08-03T12:16:53.000Z</time>
      </trkpt>
      <trkpt lat="44.03212" lon="6.89686">
        <ele>1650</ele>
        <time>2019-08-03T12:16:55.000Z</time>
      </trkpt>
      <trkpt lat="44.03211" lon="6.89678">
        <ele>1648.4000244141</ele>
        <time>2019-08-03T12:16:58.000Z</time>
      </trkpt>
      <trkpt lat="44.03211" lon="6.89676">
        <ele>1648</ele>
        <time>2019-08-03T12:16:59.000Z</time>
      </trkpt>
      <trkpt lat="44.03213" lon="6.89672">
        <ele>1647.1999511719</ele>
        <time>2019-08-03T12:17:01.000Z</time>
      </trkpt>
      <trkpt lat="44.03213" lon="6.89671">
        <ele>1647</ele>
        <time>2019-08-03T12:17:02.000Z</time>
      </trkpt>
      <trkpt lat="44.03214" lon="6.89666">
        <ele>1646.4000244141</ele>
        <time>2019-08-03T12:17:04.000Z</time>
      </trkpt>
      <trkpt lat="44.03214" lon="6.89664">
        <ele>1646</ele>
        <time>2019-08-03T12:17:05.000Z</time>
      </trkpt>
      <trkpt lat="44.03214" lon="6.89661">
        <ele>1645.8000488281</ele>
        <time>2019-08-03T12:17:06.000Z</time>
      </trkpt>
      <trkpt lat="44.03214" lon="6.89656">
        <ele>1645</ele>
        <time>2019-08-03T12:17:08.000Z</time>
      </trkpt>
      <trkpt lat="44.03214" lon="6.89653">
        <ele>1643.5999755859</ele>
        <time>2019-08-03T12:17:10.000Z</time>
      </trkpt>
      <trkpt lat="44.03214" lon="6.89651">
        <ele>1642.8000488281</ele>
        <time>2019-08-03T12:17:11.000Z</time>
      </trkpt>
      <trkpt lat="44.03214" lon="6.89649">
        <ele>1642.4000244141</ele>
        <time>2019-08-03T12:17:12.000Z</time>
      </trkpt>
      <trkpt lat="44.03215" lon="6.89636">
        <ele>1641.4000244141</ele>
        <time>2019-08-03T12:17:16.000Z</time>
      </trkpt>
      <trkpt lat="44.03213" lon="6.89631">
        <ele>1641.1999511719</ele>
        <time>2019-08-03T12:17:18.000Z</time>
      </trkpt>
      <trkpt lat="44.03209" lon="6.89625">
        <ele>1640.5999755859</ele>
        <time>2019-08-03T12:17:21.000Z</time>
      </trkpt>
      <trkpt lat="44.03208" lon="6.89624">
        <ele>1640.1999511719</ele>
        <time>2019-08-03T12:17:22.000Z</time>
      </trkpt>
      <trkpt lat="44.03208" lon="6.89622">
        <ele>1639.4000244141</ele>
        <time>2019-08-03T12:17:23.000Z</time>
      </trkpt>
      <trkpt lat="44.03208" lon="6.89623">
        <ele>1639</ele>
        <time>2019-08-03T12:17:24.000Z</time>
      </trkpt>
      <trkpt lat="44.03208" lon="6.89621">
        <ele>1639.1999511719</ele>
        <time>2019-08-03T12:17:25.000Z</time>
      </trkpt>
      <trkpt lat="44.03207" lon="6.89619">
        <ele>1639</ele>
        <time>2019-08-03T12:17:28.000Z</time>
      </trkpt>
      <trkpt lat="44.03204" lon="6.89614">
        <ele>1638.5999755859</ele>
        <time>2019-08-03T12:17:31.000Z</time>
      </trkpt>
      <trkpt lat="44.03203" lon="6.89612">
        <ele>1638.1999511719</ele>
        <time>2019-08-03T12:17:32.000Z</time>
      </trkpt>
      <trkpt lat="44.03201" lon="6.89607">
        <ele>1637.5999755859</ele>
        <time>2019-08-03T12:17:34.000Z</time>
      </trkpt>
      <trkpt lat="44.03199" lon="6.89602">
        <ele>1636.4000244141</ele>
        <time>2019-08-03T12:17:36.000Z</time>
      </trkpt>
      <trkpt lat="44.03196" lon="6.89597">
        <ele>1635.5999755859</ele>
        <time>2019-08-03T12:17:38.000Z</time>
      </trkpt>
      <trkpt lat="44.03195" lon="6.89594">
        <ele>1635.1999511719</ele>
        <time>2019-08-03T12:17:39.000Z</time>
      </trkpt>
      <trkpt lat="44.03194" lon="6.89589">
        <ele>1633.1999511719</ele>
        <time>2019-08-03T12:17:41.000Z</time>
      </trkpt>
      <trkpt lat="44.03192" lon="6.89581">
        <ele>1632</ele>
        <time>2019-08-03T12:17:44.000Z</time>
      </trkpt>
      <trkpt lat="44.03189" lon="6.89575">
        <ele>1631.1999511719</ele>
        <time>2019-08-03T12:17:46.000Z</time>
      </trkpt>
      <trkpt lat="44.03187" lon="6.89573">
        <ele>1630.5999755859</ele>
        <time>2019-08-03T12:17:47.000Z</time>
      </trkpt>
      <trkpt lat="44.03184" lon="6.8957">
        <ele>1629.1999511719</ele>
        <time>2019-08-03T12:17:49.000Z</time>
      </trkpt>
      <trkpt lat="44.03174" lon="6.89564">
        <ele>1628.8000488281</ele>
        <time>2019-08-03T12:17:54.000Z</time>
      </trkpt>
      <trkpt lat="44.03168" lon="6.89559">
        <ele>1628.1999511719</ele>
        <time>2019-08-03T12:17:57.000Z</time>
      </trkpt>
      <trkpt lat="44.03161" lon="6.89553">
        <ele>1627.1999511719</ele>
        <time>2019-08-03T12:18:00.000Z</time>
      </trkpt>
      <trkpt lat="44.03158" lon="6.89553">
        <ele>1626.4000244141</ele>
        <time>2019-08-03T12:18:01.000Z</time>
      </trkpt>
      <trkpt lat="44.03154" lon="6.89556">
        <ele>1625.1999511719</ele>
        <time>2019-08-03T12:18:03.000Z</time>
      </trkpt>
      <trkpt lat="44.03152" lon="6.89559">
        <ele>1624.1999511719</ele>
        <time>2019-08-03T12:18:04.000Z</time>
      </trkpt>
      <trkpt lat="44.03151" lon="6.89562">
        <ele>1623.1999511719</ele>
        <time>2019-08-03T12:18:05.000Z</time>
      </trkpt>
      <trkpt lat="44.03149" lon="6.89565">
        <ele>1622</ele>
        <time>2019-08-03T12:18:06.000Z</time>
      </trkpt>
      <trkpt lat="44.03145" lon="6.89566">
        <ele>1620.4000244141</ele>
        <time>2019-08-03T12:18:08.000Z</time>
      </trkpt>
      <trkpt lat="44.03141" lon="6.89564">
        <ele>1619</ele>
        <time>2019-08-03T12:18:10.000Z</time>
      </trkpt>
      <trkpt lat="44.03138" lon="6.89559">
        <ele>1617.4000244141</ele>
        <time>2019-08-03T12:18:13.000Z</time>
      </trkpt>
      <trkpt lat="44.03136" lon="6.89552">
        <ele>1616.1999511719</ele>
        <time>2019-08-03T12:18:15.000Z</time>
      </trkpt>
      <trkpt lat="44.03134" lon="6.89541">
        <ele>1614.8000488281</ele>
        <time>2019-08-03T12:18:18.000Z</time>
      </trkpt>
      <trkpt lat="44.03132" lon="6.89532">
        <ele>1613.5999755859</ele>
        <time>2019-08-03T12:18:21.000Z</time>
      </trkpt>
      <trkpt lat="44.03131" lon="6.89523">
        <ele>1612</ele>
        <time>2019-08-03T12:18:23.000Z</time>
      </trkpt>
      <trkpt lat="44.03129" lon="6.8952">
        <ele>1611.1999511719</ele>
        <time>2019-08-03T12:18:24.000Z</time>
      </trkpt>
      <trkpt lat="44.03128" lon="6.89517">
        <ele>1610.1999511719</ele>
        <time>2019-08-03T12:18:25.000Z</time>
      </trkpt>
      <trkpt lat="44.03126" lon="6.89513">
        <ele>1609</ele>
        <time>2019-08-03T12:18:26.000Z</time>
      </trkpt>
      <trkpt lat="44.03121" lon="6.89503">
        <ele>1607.5999755859</ele>
        <time>2019-08-03T12:18:29.000Z</time>
      </trkpt>
      <trkpt lat="44.03119" lon="6.89497">
        <ele>1606.4000244141</ele>
        <time>2019-08-03T12:18:31.000Z</time>
      </trkpt>
      <trkpt lat="44.03115" lon="6.89494">
        <ele>1605.4000244141</ele>
        <time>2019-08-03T12:18:33.000Z</time>
      </trkpt>
      <trkpt lat="44.03112" lon="6.89493">
        <ele>1604.4000244141</ele>
        <time>2019-08-03T12:18:34.000Z</time>
      </trkpt>
      <trkpt lat="44.03108" lon="6.89492">
        <ele>1603</ele>
        <time>2019-08-03T12:18:35.000Z</time>
      </trkpt>
      <trkpt lat="44.03105" lon="6.89492">
        <ele>1601</ele>
        <time>2019-08-03T12:18:36.000Z</time>
      </trkpt>
      <trkpt lat="44.031" lon="6.89493">
        <ele>1598.8000488281</ele>
        <time>2019-08-03T12:18:38.000Z</time>
      </trkpt>
      <trkpt lat="44.03099" lon="6.89493">
        <ele>1597.5999755859</ele>
        <time>2019-08-03T12:18:39.000Z</time>
      </trkpt>
      <trkpt lat="44.03096" lon="6.89493">
        <ele>1596.5999755859</ele>
        <time>2019-08-03T12:18:40.000Z</time>
      </trkpt>
      <trkpt lat="44.03094" lon="6.89493">
        <ele>1595.5999755859</ele>
        <time>2019-08-03T12:18:41.000Z</time>
      </trkpt>
      <trkpt lat="44.03086" lon="6.89493">
        <ele>1594.4000244141</ele>
        <time>2019-08-03T12:18:43.000Z</time>
      </trkpt>
      <trkpt lat="44.03078" lon="6.89495">
        <ele>1593.1999511719</ele>
        <time>2019-08-03T12:18:45.000Z</time>
      </trkpt>
      <trkpt lat="44.03068" lon="6.89493">
        <ele>1592.1999511719</ele>
        <time>2019-08-03T12:18:48.000Z</time>
      </trkpt>
      <trkpt lat="44.03052" lon="6.89495">
        <ele>1591.8000488281</ele>
        <time>2019-08-03T12:18:52.000Z</time>
      </trkpt>
      <trkpt lat="44.03049" lon="6.89496">
        <ele>1590.4000244141</ele>
        <time>2019-08-03T12:18:53.000Z</time>
      </trkpt>
      <trkpt lat="44.03046" lon="6.89498">
        <ele>1588.8000488281</ele>
        <time>2019-08-03T12:18:55.000Z</time>
      </trkpt>
      <trkpt lat="44.03046" lon="6.89498">
        <ele>1588</ele>
        <time>2019-08-03T12:18:56.000Z</time>
      </trkpt>
      <trkpt lat="44.03046" lon="6.89498">
        <ele>1587.5999755859</ele>
        <time>2019-08-03T12:18:57.000Z</time>
      </trkpt>
      <trkpt lat="44.03048" lon="6.89498">
        <ele>1586.4000244141</ele>
        <time>2019-08-03T12:19:01.000Z</time>
      </trkpt>
      <trkpt lat="44.03048" lon="6.89498">
        <ele>1586.1999511719</ele>
        <time>2019-08-03T12:19:03.000Z</time>
      </trkpt>
      <trkpt lat="44.03048" lon="6.89498">
        <ele>1586.8000488281</ele>
        <time>2019-08-03T12:19:12.000Z</time>
      </trkpt>
      <trkpt lat="44.03048" lon="6.89497">
        <ele>1586.5999755859</ele>
        <time>2019-08-03T12:19:20.000Z</time>
      </trkpt>
      <trkpt lat="44.03047" lon="6.89498">
        <ele>1586.8000488281</ele>
        <time>2019-08-03T12:19:26.000Z</time>
      </trkpt>
      <trkpt lat="44.03046" lon="6.89497">
        <ele>1587</ele>
        <time>2019-08-03T12:19:28.000Z</time>
      </trkpt>
      <trkpt lat="44.03046" lon="6.89497">
        <ele>1587.4000244141</ele>
        <time>2019-08-03T12:19:30.000Z</time>
      </trkpt>
      <trkpt lat="44.03046" lon="6.89498">
        <ele>1586.8000488281</ele>
        <time>2019-08-03T12:19:40.000Z</time>
      </trkpt>
      <trkpt lat="44.03045" lon="6.89499">
        <ele>1587</ele>
        <time>2019-08-03T12:19:46.000Z</time>
      </trkpt>
      <trkpt lat="44.03043" lon="6.89498">
        <ele>1586.8000488281</ele>
        <time>2019-08-03T12:19:49.000Z</time>
      </trkpt>
      <trkpt lat="44.03042" lon="6.89498">
        <ele>1586.4000244141</ele>
        <time>2019-08-03T12:19:51.000Z</time>
      </trkpt>
      <trkpt lat="44.03041" lon="6.89497">
        <ele>1585.8000488281</ele>
        <time>2019-08-03T12:19:53.000Z</time>
      </trkpt>
      <trkpt lat="44.0304" lon="6.89497">
        <ele>1585.5999755859</ele>
        <time>2019-08-03T12:19:54.000Z</time>
      </trkpt>
      <trkpt lat="44.03039" lon="6.89498">
        <ele>1585.1999511719</ele>
        <time>2019-08-03T12:19:56.000Z</time>
      </trkpt>
      <trkpt lat="44.03035" lon="6.895">
        <ele>1585</ele>
        <time>2019-08-03T12:19:59.000Z</time>
      </trkpt>
      <trkpt lat="44.03034" lon="6.89499">
        <ele>1584.8000488281</ele>
        <time>2019-08-03T12:20:03.000Z</time>
      </trkpt>
      <trkpt lat="44.03034" lon="6.89499">
        <ele>1585.1999511719</ele>
        <time>2019-08-03T12:20:15.000Z</time>
      </trkpt>
      <trkpt lat="44.03035" lon="6.89501">
        <ele>1585</ele>
        <time>2019-08-03T12:20:23.000Z</time>
      </trkpt>
      <trkpt lat="44.03035" lon="6.89501">
        <ele>1584.8000488281</ele>
        <time>2019-08-03T12:20:30.000Z</time>
      </trkpt>
      <trkpt lat="44.03035" lon="6.89501">
        <ele>1585.4000244141</ele>
        <time>2019-08-03T12:20:48.000Z</time>
      </trkpt>
      <trkpt lat="44.03036" lon="6.89501">
        <ele>1585.4000244141</ele>
        <time>2019-08-03T12:20:55.000Z</time>
      </trkpt>
      <trkpt lat="44.03041" lon="6.89499">
        <ele>1585</ele>
        <time>2019-08-03T12:21:03.000Z</time>
      </trkpt>
      <trkpt lat="44.03047" lon="6.89499">
        <ele>1585.1999511719</ele>
        <time>2019-08-03T12:21:09.000Z</time>
      </trkpt>
      <trkpt lat="44.03048" lon="6.89499">
        <ele>1585.8000488281</ele>
        <time>2019-08-03T12:21:13.000Z</time>
      </trkpt>
      <trkpt lat="44.03049" lon="6.89498">
        <ele>1586.1999511719</ele>
        <time>2019-08-03T12:21:15.000Z</time>
      </trkpt>
      <trkpt lat="44.03049" lon="6.89498">
        <ele>1587</ele>
        <time>2019-08-03T12:21:19.000Z</time>
      </trkpt>
      <trkpt lat="44.03049" lon="6.89498">
        <ele>1587</ele>
        <time>2019-08-03T12:21:27.000Z</time>
      </trkpt>
      <trkpt lat="44.03047" lon="6.89498">
        <ele>1586.8000488281</ele>
        <time>2019-08-03T12:21:32.000Z</time>
      </trkpt>
      <trkpt lat="44.03047" lon="6.89499">
        <ele>1587</ele>
        <time>2019-08-03T12:21:33.000Z</time>
      </trkpt>
      <trkpt lat="44.03042" lon="6.89498">
        <ele>1587.1999511719</ele>
        <time>2019-08-03T12:21:36.000Z</time>
      </trkpt>
      <trkpt lat="44.03034" lon="6.89494">
        <ele>1585.8000488281</ele>
        <time>2019-08-03T12:21:41.000Z</time>
      </trkpt>
      <trkpt lat="44.0303" lon="6.8949">
        <ele>1584.8000488281</ele>
        <time>2019-08-03T12:21:43.000Z</time>
      </trkpt>
      <trkpt lat="44.03026" lon="6.89486">
        <ele>1583.5999755859</ele>
        <time>2019-08-03T12:21:45.000Z</time>
      </trkpt>
      <trkpt lat="44.03023" lon="6.89482">
        <ele>1582.5999755859</ele>
        <time>2019-08-03T12:21:47.000Z</time>
      </trkpt>
      <trkpt lat="44.03021" lon="6.8948">
        <ele>1582</ele>
        <time>2019-08-03T12:21:48.000Z</time>
      </trkpt>
      <trkpt lat="44.03018" lon="6.89478">
        <ele>1580.8000488281</ele>
        <time>2019-08-03T12:21:50.000Z</time>
      </trkpt>
      <trkpt lat="44.03014" lon="6.89477">
        <ele>1579.5999755859</ele>
        <time>2019-08-03T12:21:52.000Z</time>
      </trkpt>
      <trkpt lat="44.03012" lon="6.89476">
        <ele>1578.5999755859</ele>
        <time>2019-08-03T12:21:53.000Z</time>
      </trkpt>
      <trkpt lat="44.03001" lon="6.89473">
        <ele>1578.5999755859</ele>
        <time>2019-08-03T12:21:58.000Z</time>
      </trkpt>
      <trkpt lat="44.02996" lon="6.89467">
        <ele>1578.1999511719</ele>
        <time>2019-08-03T12:22:00.000Z</time>
      </trkpt>
      <trkpt lat="44.02992" lon="6.89459">
        <ele>1577.8000488281</ele>
        <time>2019-08-03T12:22:02.000Z</time>
      </trkpt>
      <trkpt lat="44.02987" lon="6.89454">
        <ele>1577.4000244141</ele>
        <time>2019-08-03T12:22:04.000Z</time>
      </trkpt>
      <trkpt lat="44.02985" lon="6.89453">
        <ele>1577.1999511719</ele>
        <time>2019-08-03T12:22:05.000Z</time>
      </trkpt>
      <trkpt lat="44.02977" lon="6.89453">
        <ele>1576.1999511719</ele>
        <time>2019-08-03T12:22:08.000Z</time>
      </trkpt>
      <trkpt lat="44.02971" lon="6.89453">
        <ele>1574.5999755859</ele>
        <time>2019-08-03T12:22:10.000Z</time>
      </trkpt>
      <trkpt lat="44.02969" lon="6.89452">
        <ele>1573.8000488281</ele>
        <time>2019-08-03T12:22:11.000Z</time>
      </trkpt>
      <trkpt lat="44.02966" lon="6.89451">
        <ele>1573.4000244141</ele>
        <time>2019-08-03T12:22:12.000Z</time>
      </trkpt>
      <trkpt lat="44.02964" lon="6.89448">
        <ele>1572</ele>
        <time>2019-08-03T12:22:13.000Z</time>
      </trkpt>
      <trkpt lat="44.02959" lon="6.89438">
        <ele>1570.4000244141</ele>
        <time>2019-08-03T12:22:16.000Z</time>
      </trkpt>
      <trkpt lat="44.0296" lon="6.89428">
        <ele>1569.4000244141</ele>
        <time>2019-08-03T12:22:18.000Z</time>
      </trkpt>
      <trkpt lat="44.02964" lon="6.89418">
        <ele>1568</ele>
        <time>2019-08-03T12:22:20.000Z</time>
      </trkpt>
      <trkpt lat="44.02975" lon="6.89409">
        <ele>1566.5999755859</ele>
        <time>2019-08-03T12:22:24.000Z</time>
      </trkpt>
      <trkpt lat="44.02979" lon="6.89407">
        <ele>1566</ele>
        <time>2019-08-03T12:22:25.000Z</time>
      </trkpt>
      <trkpt lat="44.02983" lon="6.89406">
        <ele>1565</ele>
        <time>2019-08-03T12:22:26.000Z</time>
      </trkpt>
      <trkpt lat="44.02987" lon="6.89406">
        <ele>1562.4000244141</ele>
        <time>2019-08-03T12:22:28.000Z</time>
      </trkpt>
      <trkpt lat="44.02989" lon="6.89407">
        <ele>1561.5999755859</ele>
        <time>2019-08-03T12:22:29.000Z</time>
      </trkpt>
      <trkpt lat="44.0299" lon="6.89407">
        <ele>1560.8000488281</ele>
        <time>2019-08-03T12:22:30.000Z</time>
      </trkpt>
      <trkpt lat="44.02993" lon="6.89407">
        <ele>1559.5999755859</ele>
        <time>2019-08-03T12:22:32.000Z</time>
      </trkpt>
      <trkpt lat="44.02998" lon="6.89407">
        <ele>1558.5999755859</ele>
        <time>2019-08-03T12:22:34.000Z</time>
      </trkpt>
      <trkpt lat="44.02999" lon="6.89408">
        <ele>1558</ele>
        <time>2019-08-03T12:22:35.000Z</time>
      </trkpt>
      <trkpt lat="44.03004" lon="6.89408">
        <ele>1556.8000488281</ele>
        <time>2019-08-03T12:22:38.000Z</time>
      </trkpt>
      <trkpt lat="44.03005" lon="6.89408">
        <ele>1556</ele>
        <time>2019-08-03T12:22:39.000Z</time>
      </trkpt>
      <trkpt lat="44.03006" lon="6.89405">
        <ele>1555.4000244141</ele>
        <time>2019-08-03T12:22:41.000Z</time>
      </trkpt>
      <trkpt lat="44.03005" lon="6.89404">
        <ele>1555</ele>
        <time>2019-08-03T12:22:42.000Z</time>
      </trkpt>
      <trkpt lat="44.03003" lon="6.89399">
        <ele>1554.1999511719</ele>
        <time>2019-08-03T12:22:44.000Z</time>
      </trkpt>
      <trkpt lat="44.03004" lon="6.89397">
        <ele>1553</ele>
        <time>2019-08-03T12:22:46.000Z</time>
      </trkpt>
      <trkpt lat="44.03007" lon="6.89397">
        <ele>1551.4000244141</ele>
        <time>2019-08-03T12:22:48.000Z</time>
      </trkpt>
      <trkpt lat="44.03006" lon="6.89392">
        <ele>1550.1999511719</ele>
        <time>2019-08-03T12:22:51.000Z</time>
      </trkpt>
      <trkpt lat="44.03005" lon="6.89388">
        <ele>1549.1999511719</ele>
        <time>2019-08-03T12:22:53.000Z</time>
      </trkpt>
      <trkpt lat="44.03004" lon="6.89383">
        <ele>1547.5999755859</ele>
        <time>2019-08-03T12:22:55.000Z</time>
      </trkpt>
      <trkpt lat="44.03003" lon="6.89381">
        <ele>1547</ele>
        <time>2019-08-03T12:22:56.000Z</time>
      </trkpt>
      <trkpt lat="44.03002" lon="6.89377">
        <ele>1546</ele>
        <time>2019-08-03T12:22:58.000Z</time>
      </trkpt>
      <trkpt lat="44.02995" lon="6.89367">
        <ele>1544.1999511719</ele>
        <time>2019-08-03T12:23:03.000Z</time>
      </trkpt>
      <trkpt lat="44.02992" lon="6.89364">
        <ele>1542.5999755859</ele>
        <time>2019-08-03T12:23:05.000Z</time>
      </trkpt>
      <trkpt lat="44.0299" lon="6.89361">
        <ele>1541.4000244141</ele>
        <time>2019-08-03T12:23:07.000Z</time>
      </trkpt>
      <trkpt lat="44.02989" lon="6.89358">
        <ele>1541.1999511719</ele>
        <time>2019-08-03T12:23:08.000Z</time>
      </trkpt>
      <trkpt lat="44.02985" lon="6.89351">
        <ele>1539.5999755859</ele>
        <time>2019-08-03T12:23:11.000Z</time>
      </trkpt>
      <trkpt lat="44.02983" lon="6.8935">
        <ele>1539.1999511719</ele>
        <time>2019-08-03T12:23:12.000Z</time>
      </trkpt>
      <trkpt lat="44.02983" lon="6.89349">
        <ele>1538.4000244141</ele>
        <time>2019-08-03T12:23:13.000Z</time>
      </trkpt>
      <trkpt lat="44.02982" lon="6.89348">
        <ele>1537</ele>
        <time>2019-08-03T12:23:15.000Z</time>
      </trkpt>
      <trkpt lat="44.02982" lon="6.89348">
        <ele>1536.4000244141</ele>
        <time>2019-08-03T12:23:16.000Z</time>
      </trkpt>
      <trkpt lat="44.02982" lon="6.89348">
        <ele>1535.8000488281</ele>
        <time>2019-08-03T12:23:18.000Z</time>
      </trkpt>
      <trkpt lat="44.02981" lon="6.89343">
        <ele>1535</ele>
        <time>2019-08-03T12:23:22.000Z</time>
      </trkpt>
      <trkpt lat="44.02979" lon="6.8934">
        <ele>1534.8000488281</ele>
        <time>2019-08-03T12:23:24.000Z</time>
      </trkpt>
      <trkpt lat="44.02975" lon="6.89331">
        <ele>1533.1999511719</ele>
        <time>2019-08-03T12:23:28.000Z</time>
      </trkpt>
      <trkpt lat="44.02974" lon="6.89325">
        <ele>1532</ele>
        <time>2019-08-03T12:23:30.000Z</time>
      </trkpt>
      <trkpt lat="44.02973" lon="6.89322">
        <ele>1530.8000488281</ele>
        <time>2019-08-03T12:23:31.000Z</time>
      </trkpt>
      <trkpt lat="44.02969" lon="6.89316">
        <ele>1529</ele>
        <time>2019-08-03T12:23:34.000Z</time>
      </trkpt>
      <trkpt lat="44.02966" lon="6.89311">
        <ele>1527.8000488281</ele>
        <time>2019-08-03T12:23:36.000Z</time>
      </trkpt>
      <trkpt lat="44.02965" lon="6.89303">
        <ele>1526.4000244141</ele>
        <time>2019-08-03T12:23:38.000Z</time>
      </trkpt>
      <trkpt lat="44.0297" lon="6.89277">
        <ele>1524.1999511719</ele>
        <time>2019-08-03T12:23:43.000Z</time>
      </trkpt>
      <trkpt lat="44.02974" lon="6.89269">
        <ele>1522.5999755859</ele>
        <time>2019-08-03T12:23:45.000Z</time>
      </trkpt>
      <trkpt lat="44.02977" lon="6.89264">
        <ele>1521.1999511719</ele>
        <time>2019-08-03T12:23:46.000Z</time>
      </trkpt>
      <trkpt lat="44.02979" lon="6.89261">
        <ele>1519.5999755859</ele>
        <time>2019-08-03T12:23:47.000Z</time>
      </trkpt>
      <trkpt lat="44.02981" lon="6.89257">
        <ele>1518.5999755859</ele>
        <time>2019-08-03T12:23:48.000Z</time>
      </trkpt>
      <trkpt lat="44.02983" lon="6.89251">
        <ele>1517.4000244141</ele>
        <time>2019-08-03T12:23:50.000Z</time>
      </trkpt>
      <trkpt lat="44.02985" lon="6.89244">
        <ele>1516.1999511719</ele>
        <time>2019-08-03T12:23:53.000Z</time>
      </trkpt>
      <trkpt lat="44.02985" lon="6.8924">
        <ele>1514.5999755859</ele>
        <time>2019-08-03T12:23:55.000Z</time>
      </trkpt>
      <trkpt lat="44.02985" lon="6.89239">
        <ele>1514.4000244141</ele>
        <time>2019-08-03T12:23:56.000Z</time>
      </trkpt>
      <trkpt lat="44.02985" lon="6.89239">
        <ele>1513.5999755859</ele>
        <time>2019-08-03T12:23:59.000Z</time>
      </trkpt>
      <trkpt lat="44.02986" lon="6.89239">
        <ele>1513</ele>
        <time>2019-08-03T12:24:02.000Z</time>
      </trkpt>
      <trkpt lat="44.02987" lon="6.89239">
        <ele>1512.8000488281</ele>
        <time>2019-08-03T12:24:04.000Z</time>
      </trkpt>
      <trkpt lat="44.02989" lon="6.89239">
        <ele>1513</ele>
        <time>2019-08-03T12:24:07.000Z</time>
      </trkpt>
      <trkpt lat="44.02993" lon="6.89241">
        <ele>1513.1999511719</ele>
        <time>2019-08-03T12:24:10.000Z</time>
      </trkpt>
      <trkpt lat="44.02994" lon="6.89245">
        <ele>1513.5999755859</ele>
        <time>2019-08-03T12:24:13.000Z</time>
      </trkpt>
      <trkpt lat="44.02999" lon="6.89248">
        <ele>1513.5999755859</ele>
        <time>2019-08-03T12:24:17.000Z</time>
      </trkpt>
      <trkpt lat="44.03008" lon="6.89238">
        <ele>1512.1999511719</ele>
        <time>2019-08-03T12:24:22.000Z</time>
      </trkpt>
      <trkpt lat="44.03011" lon="6.89234">
        <ele>1510.5999755859</ele>
        <time>2019-08-03T12:24:26.000Z</time>
      </trkpt>
      <trkpt lat="44.03011" lon="6.89234">
        <ele>1509.1999511719</ele>
        <time>2019-08-03T12:24:27.000Z</time>
      </trkpt>
      <trkpt lat="44.03011" lon="6.89235">
        <ele>1508.1999511719</ele>
        <time>2019-08-03T12:24:28.000Z</time>
      </trkpt>
      <trkpt lat="44.03012" lon="6.89235">
        <ele>1507</ele>
        <time>2019-08-03T12:24:30.000Z</time>
      </trkpt>
      <trkpt lat="44.03012" lon="6.89236">
        <ele>1506.5999755859</ele>
        <time>2019-08-03T12:24:42.000Z</time>
      </trkpt>
      <trkpt lat="44.03012" lon="6.89237">
        <ele>1506.5999755859</ele>
        <time>2019-08-03T12:24:43.000Z</time>
      </trkpt>
      <trkpt lat="44.0301" lon="6.89241">
        <ele>1506.4000244141</ele>
        <time>2019-08-03T12:24:48.000Z</time>
      </trkpt>
      <trkpt lat="44.03008" lon="6.89246">
        <ele>1508</ele>
        <time>2019-08-03T12:24:54.000Z</time>
      </trkpt>
      <trkpt lat="44.03007" lon="6.89249">
        <ele>1508.5999755859</ele>
        <time>2019-08-03T12:24:57.000Z</time>
      </trkpt>
      <trkpt lat="44.03007" lon="6.89251">
        <ele>1509.1999511719</ele>
        <time>2019-08-03T12:24:59.000Z</time>
      </trkpt>
      <trkpt lat="44.03005" lon="6.89258">
        <ele>1510.1999511719</ele>
        <time>2019-08-03T12:25:06.000Z</time>
      </trkpt>
      <trkpt lat="44.03004" lon="6.89263">
        <ele>1511.4000244141</ele>
        <time>2019-08-03T12:25:12.000Z</time>
      </trkpt>
      <trkpt lat="44.03004" lon="6.89264">
        <ele>1511.5999755859</ele>
        <time>2019-08-03T12:25:13.000Z</time>
      </trkpt>
      <trkpt lat="44.03005" lon="6.89267">
        <ele>1512.1999511719</ele>
        <time>2019-08-03T12:25:20.000Z</time>
      </trkpt>
      <trkpt lat="44.03006" lon="6.89267">
        <ele>1512</ele>
        <time>2019-08-03T12:25:23.000Z</time>
      </trkpt>
      <trkpt lat="44.03009" lon="6.89269">
        <ele>1511.5999755859</ele>
        <time>2019-08-03T12:25:26.000Z</time>
      </trkpt>
      <trkpt lat="44.03013" lon="6.89273">
        <ele>1511</ele>
        <time>2019-08-03T12:25:29.000Z</time>
      </trkpt>
      <trkpt lat="44.03014" lon="6.89274">
        <ele>1510.4000244141</ele>
        <time>2019-08-03T12:25:30.000Z</time>
      </trkpt>
      <trkpt lat="44.03014" lon="6.89274">
        <ele>1510</ele>
        <time>2019-08-03T12:25:31.000Z</time>
      </trkpt>
      <trkpt lat="44.03015" lon="6.89273">
        <ele>1509.5999755859</ele>
        <time>2019-08-03T12:25:32.000Z</time>
      </trkpt>
      <trkpt lat="44.03017" lon="6.89272">
        <ele>1509.1999511719</ele>
        <time>2019-08-03T12:25:34.000Z</time>
      </trkpt>
      <trkpt lat="44.03017" lon="6.89271">
        <ele>1509</ele>
        <time>2019-08-03T12:25:35.000Z</time>
      </trkpt>
      <trkpt lat="44.03018" lon="6.89269">
        <ele>1509.1999511719</ele>
        <time>2019-08-03T12:25:37.000Z</time>
      </trkpt>
      <trkpt lat="44.03018" lon="6.89266">
        <ele>1508.8000488281</ele>
        <time>2019-08-03T12:25:39.000Z</time>
      </trkpt>
      <trkpt lat="44.0302" lon="6.89256">
        <ele>1508.1999511719</ele>
        <time>2019-08-03T12:25:45.000Z</time>
      </trkpt>
      <trkpt lat="44.03024" lon="6.89245">
        <ele>1507.8000488281</ele>
        <time>2019-08-03T12:25:49.000Z</time>
      </trkpt>
      <trkpt lat="44.03025" lon="6.89243">
        <ele>1507.8000488281</ele>
        <time>2019-08-03T12:25:50.000Z</time>
      </trkpt>
      <trkpt lat="44.03027" lon="6.89239">
        <ele>1507.5999755859</ele>
        <time>2019-08-03T12:25:54.000Z</time>
      </trkpt>
      <trkpt lat="44.03029" lon="6.89232">
        <ele>1507</ele>
        <time>2019-08-03T12:25:59.000Z</time>
      </trkpt>
      <trkpt lat="44.03028" lon="6.89231">
        <ele>1506.5999755859</ele>
        <time>2019-08-03T12:26:00.000Z</time>
      </trkpt>
      <trkpt lat="44.03027" lon="6.89229">
        <ele>1505.5999755859</ele>
        <time>2019-08-03T12:26:02.000Z</time>
      </trkpt>
      <trkpt lat="44.03028" lon="6.89226">
        <ele>1504.4000244141</ele>
        <time>2019-08-03T12:26:04.000Z</time>
      </trkpt>
      <trkpt lat="44.03028" lon="6.89225">
        <ele>1504</ele>
        <time>2019-08-03T12:26:05.000Z</time>
      </trkpt>
      <trkpt lat="44.03028" lon="6.89225">
        <ele>1503.4000244141</ele>
        <time>2019-08-03T12:26:06.000Z</time>
      </trkpt>
      <trkpt lat="44.03027" lon="6.89223">
        <ele>1502.8000488281</ele>
        <time>2019-08-03T12:26:08.000Z</time>
      </trkpt>
      <trkpt lat="44.03027" lon="6.89222">
        <ele>1502.5999755859</ele>
        <time>2019-08-03T12:26:10.000Z</time>
      </trkpt>
      <trkpt lat="44.03026" lon="6.89217">
        <ele>1502.5999755859</ele>
        <time>2019-08-03T12:26:15.000Z</time>
      </trkpt>
      <trkpt lat="44.03026" lon="6.89215">
        <ele>1502.1999511719</ele>
        <time>2019-08-03T12:26:17.000Z</time>
      </trkpt>
      <trkpt lat="44.03025" lon="6.89208">
        <ele>1501.8000488281</ele>
        <time>2019-08-03T12:26:21.000Z</time>
      </trkpt>
      <trkpt lat="44.03025" lon="6.89205">
        <ele>1501.8000488281</ele>
        <time>2019-08-03T12:26:23.000Z</time>
      </trkpt>
      <trkpt lat="44.03025" lon="6.892">
        <ele>1502.4000244141</ele>
        <time>2019-08-03T12:26:28.000Z</time>
      </trkpt>
      <trkpt lat="44.03024" lon="6.89188">
        <ele>1502.5999755859</ele>
        <time>2019-08-03T12:26:32.000Z</time>
      </trkpt>
      <trkpt lat="44.03021" lon="6.8917">
        <ele>1501.4000244141</ele>
        <time>2019-08-03T12:26:37.000Z</time>
      </trkpt>
      <trkpt lat="44.0302" lon="6.89166">
        <ele>1501</ele>
        <time>2019-08-03T12:26:38.000Z</time>
      </trkpt>
      <trkpt lat="44.03018" lon="6.89159">
        <ele>1499.4000244141</ele>
        <time>2019-08-03T12:26:40.000Z</time>
      </trkpt>
      <trkpt lat="44.03018" lon="6.89155">
        <ele>1499</ele>
        <time>2019-08-03T12:26:41.000Z</time>
      </trkpt>
      <trkpt lat="44.03018" lon="6.89152">
        <ele>1498.5999755859</ele>
        <time>2019-08-03T12:26:42.000Z</time>
      </trkpt>
      <trkpt lat="44.03018" lon="6.89149">
        <ele>1497.8000488281</ele>
        <time>2019-08-03T12:26:43.000Z</time>
      </trkpt>
      <trkpt lat="44.03017" lon="6.8914">
        <ele>1496.4000244141</ele>
        <time>2019-08-03T12:26:46.000Z</time>
      </trkpt>
      <trkpt lat="44.03017" lon="6.89137">
        <ele>1496.4000244141</ele>
        <time>2019-08-03T12:26:47.000Z</time>
      </trkpt>
      <trkpt lat="44.03018" lon="6.89128">
        <ele>1495.4000244141</ele>
        <time>2019-08-03T12:26:49.000Z</time>
      </trkpt>
      <trkpt lat="44.03019" lon="6.8912">
        <ele>1494.1999511719</ele>
        <time>2019-08-03T12:26:51.000Z</time>
      </trkpt>
      <trkpt lat="44.03019" lon="6.89116">
        <ele>1493.4000244141</ele>
        <time>2019-08-03T12:26:52.000Z</time>
      </trkpt>
      <trkpt lat="44.03018" lon="6.89111">
        <ele>1492.5999755859</ele>
        <time>2019-08-03T12:26:53.000Z</time>
      </trkpt>
      <trkpt lat="44.03018" lon="6.89106">
        <ele>1491.1999511719</ele>
        <time>2019-08-03T12:26:54.000Z</time>
      </trkpt>
      <trkpt lat="44.03017" lon="6.89097">
        <ele>1489.1999511719</ele>
        <time>2019-08-03T12:26:56.000Z</time>
      </trkpt>
      <trkpt lat="44.03016" lon="6.89093">
        <ele>1488.8000488281</ele>
        <time>2019-08-03T12:26:57.000Z</time>
      </trkpt>
      <trkpt lat="44.03017" lon="6.89089">
        <ele>1488</ele>
        <time>2019-08-03T12:26:58.000Z</time>
      </trkpt>
      <trkpt lat="44.03017" lon="6.89075">
        <ele>1487.4000244141</ele>
        <time>2019-08-03T12:27:01.000Z</time>
      </trkpt>
      <trkpt lat="44.03017" lon="6.89068">
        <ele>1487</ele>
        <time>2019-08-03T12:27:03.000Z</time>
      </trkpt>
      <trkpt lat="44.03018" lon="6.89066">
        <ele>1486.4000244141</ele>
        <time>2019-08-03T12:27:04.000Z</time>
      </trkpt>
      <trkpt lat="44.03019" lon="6.89065">
        <ele>1485.8000488281</ele>
        <time>2019-08-03T12:27:05.000Z</time>
      </trkpt>
      <trkpt lat="44.03021" lon="6.89064">
        <ele>1484.5999755859</ele>
        <time>2019-08-03T12:27:07.000Z</time>
      </trkpt>
      <trkpt lat="44.03023" lon="6.89062">
        <ele>1483.4000244141</ele>
        <time>2019-08-03T12:27:09.000Z</time>
      </trkpt>
      <trkpt lat="44.03023" lon="6.89062">
        <ele>1483.1999511719</ele>
        <time>2019-08-03T12:27:10.000Z</time>
      </trkpt>
      <trkpt lat="44.03023" lon="6.89058">
        <ele>1483</ele>
        <time>2019-08-03T12:27:13.000Z</time>
      </trkpt>
      <trkpt lat="44.03022" lon="6.89056">
        <ele>1482.4000244141</ele>
        <time>2019-08-03T12:27:15.000Z</time>
      </trkpt>
      <trkpt lat="44.03022" lon="6.89055">
        <ele>1482.1999511719</ele>
        <time>2019-08-03T12:27:17.000Z</time>
      </trkpt>
      <trkpt lat="44.03022" lon="6.89045">
        <ele>1483</ele>
        <time>2019-08-03T12:27:23.000Z</time>
      </trkpt>
      <trkpt lat="44.03016" lon="6.8903">
        <ele>1482.5999755859</ele>
        <time>2019-08-03T12:27:28.000Z</time>
      </trkpt>
      <trkpt lat="44.03012" lon="6.89022">
        <ele>1482</ele>
        <time>2019-08-03T12:27:31.000Z</time>
      </trkpt>
      <trkpt lat="44.03012" lon="6.8902">
        <ele>1481.5999755859</ele>
        <time>2019-08-03T12:27:32.000Z</time>
      </trkpt>
      <trkpt lat="44.03012" lon="6.89017">
        <ele>1480.8000488281</ele>
        <time>2019-08-03T12:27:33.000Z</time>
      </trkpt>
      <trkpt lat="44.0301" lon="6.89012">
        <ele>1479.5999755859</ele>
        <time>2019-08-03T12:27:35.000Z</time>
      </trkpt>
      <trkpt lat="44.03008" lon="6.89009">
        <ele>1478.4000244141</ele>
        <time>2019-08-03T12:27:37.000Z</time>
      </trkpt>
      <trkpt lat="44.03005" lon="6.89003">
        <ele>1477.4000244141</ele>
        <time>2019-08-03T12:27:40.000Z</time>
      </trkpt>
      <trkpt lat="44.03005" lon="6.89001">
        <ele>1476.8000488281</ele>
        <time>2019-08-03T12:27:41.000Z</time>
      </trkpt>
      <trkpt lat="44.03002" lon="6.88997">
        <ele>1476.1999511719</ele>
        <time>2019-08-03T12:27:43.000Z</time>
      </trkpt>
      <trkpt lat="44.03002" lon="6.88991">
        <ele>1475.8000488281</ele>
        <time>2019-08-03T12:27:45.000Z</time>
      </trkpt>
      <trkpt lat="44.03005" lon="6.88983">
        <ele>1475</ele>
        <time>2019-08-03T12:27:49.000Z</time>
      </trkpt>
      <trkpt lat="44.03006" lon="6.88976">
        <ele>1473.4000244141</ele>
        <time>2019-08-03T12:27:52.000Z</time>
      </trkpt>
      <trkpt lat="44.03006" lon="6.88969">
        <ele>1472</ele>
        <time>2019-08-03T12:27:54.000Z</time>
      </trkpt>
      <trkpt lat="44.03008" lon="6.88962">
        <ele>1470.4000244141</ele>
        <time>2019-08-03T12:27:56.000Z</time>
      </trkpt>
      <trkpt lat="44.03009" lon="6.88954">
        <ele>1468.5999755859</ele>
        <time>2019-08-03T12:27:58.000Z</time>
      </trkpt>
      <trkpt lat="44.0301" lon="6.88948">
        <ele>1467.8000488281</ele>
        <time>2019-08-03T12:27:59.000Z</time>
      </trkpt>
      <trkpt lat="44.0301" lon="6.88943">
        <ele>1467</ele>
        <time>2019-08-03T12:28:00.000Z</time>
      </trkpt>
      <trkpt lat="44.03009" lon="6.88939">
        <ele>1466</ele>
        <time>2019-08-03T12:28:01.000Z</time>
      </trkpt>
      <trkpt lat="44.03008" lon="6.88935">
        <ele>1464.8000488281</ele>
        <time>2019-08-03T12:28:02.000Z</time>
      </trkpt>
      <trkpt lat="44.03008" lon="6.8893">
        <ele>1463.8000488281</ele>
        <time>2019-08-03T12:28:03.000Z</time>
      </trkpt>
      <trkpt lat="44.03008" lon="6.88927">
        <ele>1463.1999511719</ele>
        <time>2019-08-03T12:28:04.000Z</time>
      </trkpt>
      <trkpt lat="44.03006" lon="6.88923">
        <ele>1462.1999511719</ele>
        <time>2019-08-03T12:28:05.000Z</time>
      </trkpt>
      <trkpt lat="44.03002" lon="6.88919">
        <ele>1461</ele>
        <time>2019-08-03T12:28:07.000Z</time>
      </trkpt>
      <trkpt lat="44.02995" lon="6.88914">
        <ele>1459.5999755859</ele>
        <time>2019-08-03T12:28:10.000Z</time>
      </trkpt>
      <trkpt lat="44.02989" lon="6.88903">
        <ele>1458.5999755859</ele>
        <time>2019-08-03T12:28:12.000Z</time>
      </trkpt>
      <trkpt lat="44.02984" lon="6.88888">
        <ele>1457</ele>
        <time>2019-08-03T12:28:14.000Z</time>
      </trkpt>
      <trkpt lat="44.02981" lon="6.88883">
        <ele>1455.8000488281</ele>
        <time>2019-08-03T12:28:15.000Z</time>
      </trkpt>
      <trkpt lat="44.02978" lon="6.88877">
        <ele>1454.5999755859</ele>
        <time>2019-08-03T12:28:16.000Z</time>
      </trkpt>
      <trkpt lat="44.02975" lon="6.88873">
        <ele>1453.8000488281</ele>
        <time>2019-08-03T12:28:17.000Z</time>
      </trkpt>
      <trkpt lat="44.02972" lon="6.8887">
        <ele>1452.4000244141</ele>
        <time>2019-08-03T12:28:18.000Z</time>
      </trkpt>
      <trkpt lat="44.02971" lon="6.88868">
        <ele>1451.4000244141</ele>
        <time>2019-08-03T12:28:19.000Z</time>
      </trkpt>
      <trkpt lat="44.02971" lon="6.88868">
        <ele>1450.5999755859</ele>
        <time>2019-08-03T12:28:20.000Z</time>
      </trkpt>
      <trkpt lat="44.02971" lon="6.88868">
        <ele>1450</ele>
        <time>2019-08-03T12:28:21.000Z</time>
      </trkpt>
      <trkpt lat="44.02971" lon="6.88868">
        <ele>1449</ele>
        <time>2019-08-03T12:28:24.000Z</time>
      </trkpt>
      <trkpt lat="44.02971" lon="6.88867">
        <ele>1448.1999511719</ele>
        <time>2019-08-03T12:28:26.000Z</time>
      </trkpt>
      <trkpt lat="44.02973" lon="6.88867">
        <ele>1448.4000244141</ele>
        <time>2019-08-03T12:28:31.000Z</time>
      </trkpt>
      <trkpt lat="44.02971" lon="6.88865">
        <ele>1448.1999511719</ele>
        <time>2019-08-03T12:28:36.000Z</time>
      </trkpt>
      <trkpt lat="44.02971" lon="6.88865">
        <ele>1447.8000488281</ele>
        <time>2019-08-03T12:28:42.000Z</time>
      </trkpt>
      <trkpt lat="44.02968" lon="6.88864">
        <ele>1447.1999511719</ele>
        <time>2019-08-03T12:28:48.000Z</time>
      </trkpt>
      <trkpt lat="44.02967" lon="6.88863">
        <ele>1446.8000488281</ele>
        <time>2019-08-03T12:28:50.000Z</time>
      </trkpt>
      <trkpt lat="44.02966" lon="6.88863">
        <ele>1445.5999755859</ele>
        <time>2019-08-03T12:28:53.000Z</time>
      </trkpt>
      <trkpt lat="44.02965" lon="6.88863">
        <ele>1444.8000488281</ele>
        <time>2019-08-03T12:28:55.000Z</time>
      </trkpt>
      <trkpt lat="44.02962" lon="6.88861">
        <ele>1444.5999755859</ele>
        <time>2019-08-03T12:28:57.000Z</time>
      </trkpt>
      <trkpt lat="44.02962" lon="6.88858">
        <ele>1444.4000244141</ele>
        <time>2019-08-03T12:28:58.000Z</time>
      </trkpt>
      <trkpt lat="44.02964" lon="6.88852">
        <ele>1444.4000244141</ele>
        <time>2019-08-03T12:29:00.000Z</time>
      </trkpt>
      <trkpt lat="44.02967" lon="6.88846">
        <ele>1443.1999511719</ele>
        <time>2019-08-03T12:29:03.000Z</time>
      </trkpt>
      <trkpt lat="44.0297" lon="6.88841">
        <ele>1441.5999755859</ele>
        <time>2019-08-03T12:29:05.000Z</time>
      </trkpt>
      <trkpt lat="44.02971" lon="6.88834">
        <ele>1440.4000244141</ele>
        <time>2019-08-03T12:29:07.000Z</time>
      </trkpt>
      <trkpt lat="44.02972" lon="6.88823">
        <ele>1440</ele>
        <time>2019-08-03T12:29:09.000Z</time>
      </trkpt>
      <trkpt lat="44.02974" lon="6.88812">
        <ele>1439</ele>
        <time>2019-08-03T12:29:11.000Z</time>
      </trkpt>
      <trkpt lat="44.02976" lon="6.88798">
        <ele>1437.5999755859</ele>
        <time>2019-08-03T12:29:14.000Z</time>
      </trkpt>
      <trkpt lat="44.02974" lon="6.88779">
        <ele>1436.5999755859</ele>
        <time>2019-08-03T12:29:18.000Z</time>
      </trkpt>
      <trkpt lat="44.02973" lon="6.88774">
        <ele>1435.4000244141</ele>
        <time>2019-08-03T12:29:20.000Z</time>
      </trkpt>
      <trkpt lat="44.02973" lon="6.88772">
        <ele>1434.5999755859</ele>
        <time>2019-08-03T12:29:21.000Z</time>
      </trkpt>
      <trkpt lat="44.02974" lon="6.8877">
        <ele>1434</ele>
        <time>2019-08-03T12:29:22.000Z</time>
      </trkpt>
      <trkpt lat="44.02976" lon="6.88767">
        <ele>1432.5999755859</ele>
        <time>2019-08-03T12:29:24.000Z</time>
      </trkpt>
      <trkpt lat="44.02979" lon="6.88764">
        <ele>1431.4000244141</ele>
        <time>2019-08-03T12:29:26.000Z</time>
      </trkpt>
      <trkpt lat="44.02979" lon="6.88762">
        <ele>1431.1999511719</ele>
        <time>2019-08-03T12:29:27.000Z</time>
      </trkpt>
      <trkpt lat="44.02978" lon="6.88756">
        <ele>1430.4000244141</ele>
        <time>2019-08-03T12:29:29.000Z</time>
      </trkpt>
      <trkpt lat="44.02981" lon="6.88744">
        <ele>1430.4000244141</ele>
        <time>2019-08-03T12:29:33.000Z</time>
      </trkpt>
      <trkpt lat="44.02983" lon="6.88741">
        <ele>1430.5999755859</ele>
        <time>2019-08-03T12:29:37.000Z</time>
      </trkpt>
      <trkpt lat="44.02984" lon="6.88737">
        <ele>1430.1999511719</ele>
        <time>2019-08-03T12:29:45.000Z</time>
      </trkpt>
      <trkpt lat="44.02984" lon="6.88736">
        <ele>1429.8000488281</ele>
        <time>2019-08-03T12:29:51.000Z</time>
      </trkpt>
      <trkpt lat="44.02984" lon="6.88727">
        <ele>1429.8000488281</ele>
        <time>2019-08-03T12:29:58.000Z</time>
      </trkpt>
      <trkpt lat="44.02982" lon="6.88718">
        <ele>1429.5999755859</ele>
        <time>2019-08-03T12:30:03.000Z</time>
      </trkpt>
      <trkpt lat="44.02981" lon="6.88715">
        <ele>1429.4000244141</ele>
        <time>2019-08-03T12:30:04.000Z</time>
      </trkpt>
      <trkpt lat="44.02982" lon="6.88712">
        <ele>1429</ele>
        <time>2019-08-03T12:30:05.000Z</time>
      </trkpt>
      <trkpt lat="44.02984" lon="6.88707">
        <ele>1428.4000244141</ele>
        <time>2019-08-03T12:30:07.000Z</time>
      </trkpt>
      <trkpt lat="44.02983" lon="6.88696">
        <ele>1427.4000244141</ele>
        <time>2019-08-03T12:30:11.000Z</time>
      </trkpt>
      <trkpt lat="44.02982" lon="6.88693">
        <ele>1427.1999511719</ele>
        <time>2019-08-03T12:30:12.000Z</time>
      </trkpt>
      <trkpt lat="44.02981" lon="6.88689">
        <ele>1427.1999511719</ele>
        <time>2019-08-03T12:30:13.000Z</time>
      </trkpt>
      <trkpt lat="44.02974" lon="6.88678">
        <ele>1427.1999511719</ele>
        <time>2019-08-03T12:30:16.000Z</time>
      </trkpt>
      <trkpt lat="44.0297" lon="6.88664">
        <ele>1426.4000244141</ele>
        <time>2019-08-03T12:30:20.000Z</time>
      </trkpt>
      <trkpt lat="44.0297" lon="6.88661">
        <ele>1426.1999511719</ele>
        <time>2019-08-03T12:30:21.000Z</time>
      </trkpt>
      <trkpt lat="44.02966" lon="6.88659">
        <ele>1426.1999511719</ele>
        <time>2019-08-03T12:30:24.000Z</time>
      </trkpt>
      <trkpt lat="44.02958" lon="6.88656">
        <ele>1425</ele>
        <time>2019-08-03T12:30:27.000Z</time>
      </trkpt>
      <trkpt lat="44.02955" lon="6.88655">
        <ele>1424.8000488281</ele>
        <time>2019-08-03T12:30:28.000Z</time>
      </trkpt>
      <trkpt lat="44.02948" lon="6.88653">
        <ele>1424.1999511719</ele>
        <time>2019-08-03T12:30:30.000Z</time>
      </trkpt>
      <trkpt lat="44.02945" lon="6.88652">
        <ele>1423.5999755859</ele>
        <time>2019-08-03T12:30:31.000Z</time>
      </trkpt>
      <trkpt lat="44.02937" lon="6.88646">
        <ele>1422.1999511719</ele>
        <time>2019-08-03T12:30:33.000Z</time>
      </trkpt>
      <trkpt lat="44.02933" lon="6.88643">
        <ele>1420.1999511719</ele>
        <time>2019-08-03T12:30:34.000Z</time>
      </trkpt>
      <trkpt lat="44.0293" lon="6.88639">
        <ele>1418.4000244141</ele>
        <time>2019-08-03T12:30:35.000Z</time>
      </trkpt>
      <trkpt lat="44.02928" lon="6.88636">
        <ele>1417</ele>
        <time>2019-08-03T12:30:36.000Z</time>
      </trkpt>
      <trkpt lat="44.02926" lon="6.88635">
        <ele>1415.5999755859</ele>
        <time>2019-08-03T12:30:37.000Z</time>
      </trkpt>
      <trkpt lat="44.02924" lon="6.88634">
        <ele>1414.4000244141</ele>
        <time>2019-08-03T12:30:38.000Z</time>
      </trkpt>
      <trkpt lat="44.02922" lon="6.8863">
        <ele>1413</ele>
        <time>2019-08-03T12:30:41.000Z</time>
      </trkpt>
      <trkpt lat="44.02921" lon="6.88628">
        <ele>1412.8000488281</ele>
        <time>2019-08-03T12:30:42.000Z</time>
      </trkpt>
      <trkpt lat="44.02914" lon="6.88618">
        <ele>1412.5999755859</ele>
        <time>2019-08-03T12:30:45.000Z</time>
      </trkpt>
      <trkpt lat="44.0291" lon="6.88611">
        <ele>1411.5999755859</ele>
        <time>2019-08-03T12:30:48.000Z</time>
      </trkpt>
      <trkpt lat="44.02909" lon="6.88605">
        <ele>1411.1999511719</ele>
        <time>2019-08-03T12:30:50.000Z</time>
      </trkpt>
      <trkpt lat="44.02908" lon="6.88603">
        <ele>1410.1999511719</ele>
        <time>2019-08-03T12:30:51.000Z</time>
      </trkpt>
      <trkpt lat="44.02905" lon="6.88599">
        <ele>1409.1999511719</ele>
        <time>2019-08-03T12:30:53.000Z</time>
      </trkpt>
      <trkpt lat="44.02904" lon="6.88597">
        <ele>1408.5999755859</ele>
        <time>2019-08-03T12:30:54.000Z</time>
      </trkpt>
      <trkpt lat="44.02903" lon="6.88594">
        <ele>1408</ele>
        <time>2019-08-03T12:30:55.000Z</time>
      </trkpt>
      <trkpt lat="44.02902" lon="6.8859">
        <ele>1406.5999755859</ele>
        <time>2019-08-03T12:30:57.000Z</time>
      </trkpt>
      <trkpt lat="44.02901" lon="6.88589">
        <ele>1406.4000244141</ele>
        <time>2019-08-03T12:30:58.000Z</time>
      </trkpt>
      <trkpt lat="44.02899" lon="6.88585">
        <ele>1405.1999511719</ele>
        <time>2019-08-03T12:31:00.000Z</time>
      </trkpt>
      <trkpt lat="44.02897" lon="6.88576">
        <ele>1405</ele>
        <time>2019-08-03T12:31:02.000Z</time>
      </trkpt>
      <trkpt lat="44.02888" lon="6.8855">
        <ele>1403.8000488281</ele>
        <time>2019-08-03T12:31:07.000Z</time>
      </trkpt>
      <trkpt lat="44.02885" lon="6.88547">
        <ele>1403.1999511719</ele>
        <time>2019-08-03T12:31:08.000Z</time>
      </trkpt>
      <trkpt lat="44.02884" lon="6.88543">
        <ele>1402.4000244141</ele>
        <time>2019-08-03T12:31:09.000Z</time>
      </trkpt>
      <trkpt lat="44.02883" lon="6.88534">
        <ele>1401.4000244141</ele>
        <time>2019-08-03T12:31:11.000Z</time>
      </trkpt>
      <trkpt lat="44.02884" lon="6.8853">
        <ele>1401</ele>
        <time>2019-08-03T12:31:12.000Z</time>
      </trkpt>
      <trkpt lat="44.02883" lon="6.88527">
        <ele>1400.4000244141</ele>
        <time>2019-08-03T12:31:13.000Z</time>
      </trkpt>
      <trkpt lat="44.0288" lon="6.88526">
        <ele>1400</ele>
        <time>2019-08-03T12:31:14.000Z</time>
      </trkpt>
      <trkpt lat="44.02878" lon="6.88525">
        <ele>1399.8000488281</ele>
        <time>2019-08-03T12:31:15.000Z</time>
      </trkpt>
      <trkpt lat="44.0287" lon="6.88521">
        <ele>1399.5999755859</ele>
        <time>2019-08-03T12:31:18.000Z</time>
      </trkpt>
      <trkpt lat="44.02866" lon="6.88516">
        <ele>1399.8000488281</ele>
        <time>2019-08-03T12:31:20.000Z</time>
      </trkpt>
      <trkpt lat="44.02856" lon="6.88507">
        <ele>1399.1999511719</ele>
        <time>2019-08-03T12:31:24.000Z</time>
      </trkpt>
      <trkpt lat="44.02851" lon="6.88504">
        <ele>1398.5999755859</ele>
        <time>2019-08-03T12:31:26.000Z</time>
      </trkpt>
      <trkpt lat="44.02846" lon="6.88496">
        <ele>1398</ele>
        <time>2019-08-03T12:31:29.000Z</time>
      </trkpt>
      <trkpt lat="44.0284" lon="6.88492">
        <ele>1398.4000244141</ele>
        <time>2019-08-03T12:31:33.000Z</time>
      </trkpt>
      <trkpt lat="44.02836" lon="6.88484">
        <ele>1398.4000244141</ele>
        <time>2019-08-03T12:31:36.000Z</time>
      </trkpt>
      <trkpt lat="44.02835" lon="6.88481">
        <ele>1398.1999511719</ele>
        <time>2019-08-03T12:31:37.000Z</time>
      </trkpt>
      <trkpt lat="44.02831" lon="6.88477">
        <ele>1398</ele>
        <time>2019-08-03T12:31:40.000Z</time>
      </trkpt>
      <trkpt lat="44.02829" lon="6.88476">
        <ele>1398</ele>
        <time>2019-08-03T12:31:41.000Z</time>
      </trkpt>
      <trkpt lat="44.02828" lon="6.88475">
        <ele>1397</ele>
        <time>2019-08-03T12:31:42.000Z</time>
      </trkpt>
      <trkpt lat="44.02826" lon="6.88476">
        <ele>1397</ele>
        <time>2019-08-03T12:31:43.000Z</time>
      </trkpt>
      <trkpt lat="44.02818" lon="6.88479">
        <ele>1396.4000244141</ele>
        <time>2019-08-03T12:31:46.000Z</time>
      </trkpt>
      <trkpt lat="44.028" lon="6.88486">
        <ele>1396.8000488281</ele>
        <time>2019-08-03T12:31:52.000Z</time>
      </trkpt>
      <trkpt lat="44.02797" lon="6.88485">
        <ele>1396.5999755859</ele>
        <time>2019-08-03T12:31:53.000Z</time>
      </trkpt>
      <trkpt lat="44.02781" lon="6.88482">
        <ele>1396.5999755859</ele>
        <time>2019-08-03T12:31:59.000Z</time>
      </trkpt>
      <trkpt lat="44.02777" lon="6.88482">
        <ele>1396.5999755859</ele>
        <time>2019-08-03T12:32:00.000Z</time>
      </trkpt>
      <trkpt lat="44.02762" lon="6.88482">
        <ele>1395.5999755859</ele>
        <time>2019-08-03T12:32:04.000Z</time>
      </trkpt>
      <trkpt lat="44.02754" lon="6.88482">
        <ele>1395</ele>
        <time>2019-08-03T12:32:06.000Z</time>
      </trkpt>
      <trkpt lat="44.02748" lon="6.88483">
        <ele>1394.4000244141</ele>
        <time>2019-08-03T12:32:08.000Z</time>
      </trkpt>
      <trkpt lat="44.02739" lon="6.88489">
        <ele>1393.5999755859</ele>
        <time>2019-08-03T12:32:11.000Z</time>
      </trkpt>
      <trkpt lat="44.02736" lon="6.88487">
        <ele>1393.4000244141</ele>
        <time>2019-08-03T12:32:12.000Z</time>
      </trkpt>
      <trkpt lat="44.02731" lon="6.88486">
        <ele>1392.8000488281</ele>
        <time>2019-08-03T12:32:14.000Z</time>
      </trkpt>
      <trkpt lat="44.02726" lon="6.88486">
        <ele>1392.1999511719</ele>
        <time>2019-08-03T12:32:16.000Z</time>
      </trkpt>
      <trkpt lat="44.02715" lon="6.88486">
        <ele>1391.5999755859</ele>
        <time>2019-08-03T12:32:19.000Z</time>
      </trkpt>
      <trkpt lat="44.02709" lon="6.88484">
        <ele>1390.8000488281</ele>
        <time>2019-08-03T12:32:21.000Z</time>
      </trkpt>
      <trkpt lat="44.02704" lon="6.88477">
        <ele>1390.4000244141</ele>
        <time>2019-08-03T12:32:23.000Z</time>
      </trkpt>
      <trkpt lat="44.02699" lon="6.88472">
        <ele>1389.5999755859</ele>
        <time>2019-08-03T12:32:25.000Z</time>
      </trkpt>
      <trkpt lat="44.02692" lon="6.88468">
        <ele>1389.8000488281</ele>
        <time>2019-08-03T12:32:28.000Z</time>
      </trkpt>
      <trkpt lat="44.02684" lon="6.8846">
        <ele>1391</ele>
        <time>2019-08-03T12:32:33.000Z</time>
      </trkpt>
      <trkpt lat="44.02679" lon="6.88457">
        <ele>1391.4000244141</ele>
        <time>2019-08-03T12:32:35.000Z</time>
      </trkpt>
      <trkpt lat="44.02674" lon="6.8845">
        <ele>1391.5999755859</ele>
        <time>2019-08-03T12:32:37.000Z</time>
      </trkpt>
      <trkpt lat="44.0267" lon="6.88438">
        <ele>1391.4000244141</ele>
        <time>2019-08-03T12:32:39.000Z</time>
      </trkpt>
      <trkpt lat="44.02667" lon="6.88426">
        <ele>1390.1999511719</ele>
        <time>2019-08-03T12:32:41.000Z</time>
      </trkpt>
      <trkpt lat="44.02666" lon="6.88419">
        <ele>1389.8000488281</ele>
        <time>2019-08-03T12:32:42.000Z</time>
      </trkpt>
      <trkpt lat="44.02666" lon="6.88411">
        <ele>1389</ele>
        <time>2019-08-03T12:32:43.000Z</time>
      </trkpt>
      <trkpt lat="44.02666" lon="6.88403">
        <ele>1388.1999511719</ele>
        <time>2019-08-03T12:32:44.000Z</time>
      </trkpt>
      <trkpt lat="44.02665" lon="6.88398">
        <ele>1388</ele>
        <time>2019-08-03T12:32:45.000Z</time>
      </trkpt>
      <trkpt lat="44.02664" lon="6.88391">
        <ele>1386.8000488281</ele>
        <time>2019-08-03T12:32:46.000Z</time>
      </trkpt>
      <trkpt lat="44.02663" lon="6.88384">
        <ele>1385.8000488281</ele>
        <time>2019-08-03T12:32:47.000Z</time>
      </trkpt>
      <trkpt lat="44.02663" lon="6.88377">
        <ele>1385.4000244141</ele>
        <time>2019-08-03T12:32:48.000Z</time>
      </trkpt>
      <trkpt lat="44.02663" lon="6.88371">
        <ele>1385</ele>
        <time>2019-08-03T12:32:49.000Z</time>
      </trkpt>
      <trkpt lat="44.02664" lon="6.88365">
        <ele>1384.4000244141</ele>
        <time>2019-08-03T12:32:50.000Z</time>
      </trkpt>
      <trkpt lat="44.02665" lon="6.88356">
        <ele>1382.8000488281</ele>
        <time>2019-08-03T12:32:52.000Z</time>
      </trkpt>
      <trkpt lat="44.02666" lon="6.88351">
        <ele>1382.5999755859</ele>
        <time>2019-08-03T12:32:54.000Z</time>
      </trkpt>
      <trkpt lat="44.02667" lon="6.88345">
        <ele>1382.1999511719</ele>
        <time>2019-08-03T12:32:56.000Z</time>
      </trkpt>
      <trkpt lat="44.02668" lon="6.88338">
        <ele>1382.1999511719</ele>
        <time>2019-08-03T12:32:59.000Z</time>
      </trkpt>
      <trkpt lat="44.02668" lon="6.88333">
        <ele>1381.8000488281</ele>
        <time>2019-08-03T12:33:01.000Z</time>
      </trkpt>
      <trkpt lat="44.02667" lon="6.88331">
        <ele>1381.8000488281</ele>
        <time>2019-08-03T12:33:02.000Z</time>
      </trkpt>
      <trkpt lat="44.02666" lon="6.88321">
        <ele>1381.1999511719</ele>
        <time>2019-08-03T12:33:05.000Z</time>
      </trkpt>
      <trkpt lat="44.02667" lon="6.88308">
        <ele>1380.1999511719</ele>
        <time>2019-08-03T12:33:08.000Z</time>
      </trkpt>
      <trkpt lat="44.0267" lon="6.88294">
        <ele>1379</ele>
        <time>2019-08-03T12:33:11.000Z</time>
      </trkpt>
      <trkpt lat="44.02671" lon="6.88288">
        <ele>1377.5999755859</ele>
        <time>2019-08-03T12:33:13.000Z</time>
      </trkpt>
      <trkpt lat="44.02673" lon="6.88279">
        <ele>1376.4000244141</ele>
        <time>2019-08-03T12:33:15.000Z</time>
      </trkpt>
      <trkpt lat="44.02675" lon="6.88273">
        <ele>1376.1999511719</ele>
        <time>2019-08-03T12:33:16.000Z</time>
      </trkpt>
      <trkpt lat="44.0268" lon="6.88258">
        <ele>1375.4000244141</ele>
        <time>2019-08-03T12:33:19.000Z</time>
      </trkpt>
      <trkpt lat="44.02681" lon="6.88254">
        <ele>1374.8000488281</ele>
        <time>2019-08-03T12:33:20.000Z</time>
      </trkpt>
      <trkpt lat="44.02684" lon="6.88243">
        <ele>1373.8000488281</ele>
        <time>2019-08-03T12:33:24.000Z</time>
      </trkpt>
      <trkpt lat="44.02685" lon="6.88241">
        <ele>1373.5999755859</ele>
        <time>2019-08-03T12:33:25.000Z</time>
      </trkpt>
      <trkpt lat="44.02686" lon="6.88235">
        <ele>1372.5999755859</ele>
        <time>2019-08-03T12:33:27.000Z</time>
      </trkpt>
      <trkpt lat="44.02686" lon="6.88233">
        <ele>1371.5999755859</ele>
        <time>2019-08-03T12:33:28.000Z</time>
      </trkpt>
      <trkpt lat="44.02686" lon="6.88228">
        <ele>1370.5999755859</ele>
        <time>2019-08-03T12:33:30.000Z</time>
      </trkpt>
      <trkpt lat="44.02686" lon="6.88226">
        <ele>1370.1999511719</ele>
        <time>2019-08-03T12:33:31.000Z</time>
      </trkpt>
      <trkpt lat="44.02687" lon="6.88221">
        <ele>1368.5999755859</ele>
        <time>2019-08-03T12:33:33.000Z</time>
      </trkpt>
      <trkpt lat="44.02687" lon="6.8822">
        <ele>1368</ele>
        <time>2019-08-03T12:33:35.000Z</time>
      </trkpt>
      <trkpt lat="44.02689" lon="6.88218">
        <ele>1367.4000244141</ele>
        <time>2019-08-03T12:33:36.000Z</time>
      </trkpt>
      <trkpt lat="44.02696" lon="6.88212">
        <ele>1367.5999755859</ele>
        <time>2019-08-03T12:33:40.000Z</time>
      </trkpt>
      <trkpt lat="44.02706" lon="6.88203">
        <ele>1367.4000244141</ele>
        <time>2019-08-03T12:33:43.000Z</time>
      </trkpt>
      <trkpt lat="44.02711" lon="6.88201">
        <ele>1367.1999511719</ele>
        <time>2019-08-03T12:33:44.000Z</time>
      </trkpt>
      <trkpt lat="44.02718" lon="6.88195">
        <ele>1366.4000244141</ele>
        <time>2019-08-03T12:33:46.000Z</time>
      </trkpt>
      <trkpt lat="44.02722" lon="6.88192">
        <ele>1366.1999511719</ele>
        <time>2019-08-03T12:33:47.000Z</time>
      </trkpt>
      <trkpt lat="44.02725" lon="6.88189">
        <ele>1365.4000244141</ele>
        <time>2019-08-03T12:33:48.000Z</time>
      </trkpt>
      <trkpt lat="44.02726" lon="6.88186">
        <ele>1364.5999755859</ele>
        <time>2019-08-03T12:33:49.000Z</time>
      </trkpt>
      <trkpt lat="44.02726" lon="6.88183">
        <ele>1364.1999511719</ele>
        <time>2019-08-03T12:33:50.000Z</time>
      </trkpt>
      <trkpt lat="44.02725" lon="6.88178">
        <ele>1363.1999511719</ele>
        <time>2019-08-03T12:33:52.000Z</time>
      </trkpt>
      <trkpt lat="44.02724" lon="6.88176">
        <ele>1362.8000488281</ele>
        <time>2019-08-03T12:33:53.000Z</time>
      </trkpt>
      <trkpt lat="44.02724" lon="6.88176">
        <ele>1363</ele>
        <time>2019-08-03T12:33:58.000Z</time>
      </trkpt>
      <trkpt lat="44.02724" lon="6.88172">
        <ele>1363.5999755859</ele>
        <time>2019-08-03T12:34:05.000Z</time>
      </trkpt>
      <trkpt lat="44.02723" lon="6.88169">
        <ele>1364.1999511719</ele>
        <time>2019-08-03T12:34:09.000Z</time>
      </trkpt>
      <trkpt lat="44.02723" lon="6.88168">
        <ele>1365</ele>
        <time>2019-08-03T12:34:12.000Z</time>
      </trkpt>
      <trkpt lat="44.02723" lon="6.88168">
        <ele>1365.4000244141</ele>
        <time>2019-08-03T12:34:13.000Z</time>
      </trkpt>
      <trkpt lat="44.02723" lon="6.88163">
        <ele>1366.4000244141</ele>
        <time>2019-08-03T12:34:19.000Z</time>
      </trkpt>
      <trkpt lat="44.02722" lon="6.88156">
        <ele>1367.4000244141</ele>
        <time>2019-08-03T12:34:27.000Z</time>
      </trkpt>
      <trkpt lat="44.02723" lon="6.88156">
        <ele>1367.5999755859</ele>
        <time>2019-08-03T12:34:28.000Z</time>
      </trkpt>
      <trkpt lat="44.02722" lon="6.88153">
        <ele>1368.5999755859</ele>
        <time>2019-08-03T12:34:33.000Z</time>
      </trkpt>
      <trkpt lat="44.02722" lon="6.88153">
        <ele>1368.8000488281</ele>
        <time>2019-08-03T12:34:34.000Z</time>
      </trkpt>
      <trkpt lat="44.02722" lon="6.88149">
        <ele>1369.8000488281</ele>
        <time>2019-08-03T12:34:37.000Z</time>
      </trkpt>
      <trkpt lat="44.02722" lon="6.88145">
        <ele>1370.5999755859</ele>
        <time>2019-08-03T12:34:40.000Z</time>
      </trkpt>
      <trkpt lat="44.02722" lon="6.88142">
        <ele>1370.8000488281</ele>
        <time>2019-08-03T12:34:42.000Z</time>
      </trkpt>
      <trkpt lat="44.02722" lon="6.88134">
        <ele>1371</ele>
        <time>2019-08-03T12:34:47.000Z</time>
      </trkpt>
      <trkpt lat="44.02723" lon="6.88129">
        <ele>1371.5999755859</ele>
        <time>2019-08-03T12:34:51.000Z</time>
      </trkpt>
      <trkpt lat="44.02731" lon="6.88111">
        <ele>1370.8000488281</ele>
        <time>2019-08-03T12:34:56.000Z</time>
      </trkpt>
      <trkpt lat="44.02735" lon="6.88107">
        <ele>1370</ele>
        <time>2019-08-03T12:34:59.000Z</time>
      </trkpt>
      <trkpt lat="44.02734" lon="6.88108">
        <ele>1370.1999511719</ele>
        <time>2019-08-03T12:35:00.000Z</time>
      </trkpt>
      <trkpt lat="44.02734" lon="6.88107">
        <ele>1369.5999755859</ele>
        <time>2019-08-03T12:35:03.000Z</time>
      </trkpt>
      <trkpt lat="44.02734" lon="6.88104">
        <ele>1370</ele>
        <time>2019-08-03T12:35:05.000Z</time>
      </trkpt>
      <trkpt lat="44.02734" lon="6.88101">
        <ele>1369.5999755859</ele>
        <time>2019-08-03T12:35:06.000Z</time>
      </trkpt>
      <trkpt lat="44.02731" lon="6.88093">
        <ele>1369</ele>
        <time>2019-08-03T12:35:10.000Z</time>
      </trkpt>
      <trkpt lat="44.02727" lon="6.88092">
        <ele>1368.4000244141</ele>
        <time>2019-08-03T12:35:12.000Z</time>
      </trkpt>
      <trkpt lat="44.02721" lon="6.88091">
        <ele>1367.5999755859</ele>
        <time>2019-08-03T12:35:14.000Z</time>
      </trkpt>
      <trkpt lat="44.0271" lon="6.88088">
        <ele>1367.1999511719</ele>
        <time>2019-08-03T12:35:18.000Z</time>
      </trkpt>
      <trkpt lat="44.02703" lon="6.88085">
        <ele>1367.5999755859</ele>
        <time>2019-08-03T12:35:20.000Z</time>
      </trkpt>
      <trkpt lat="44.02691" lon="6.88068">
        <ele>1366.5999755859</ele>
        <time>2019-08-03T12:35:25.000Z</time>
      </trkpt>
      <trkpt lat="44.02686" lon="6.88057">
        <ele>1365.8000488281</ele>
        <time>2019-08-03T12:35:27.000Z</time>
      </trkpt>
      <trkpt lat="44.02685" lon="6.88052">
        <ele>1365.5999755859</ele>
        <time>2019-08-03T12:35:28.000Z</time>
      </trkpt>
      <trkpt lat="44.02681" lon="6.88039">
        <ele>1365.1999511719</ele>
        <time>2019-08-03T12:35:30.000Z</time>
      </trkpt>
      <trkpt lat="44.02681" lon="6.88033">
        <ele>1364.4000244141</ele>
        <time>2019-08-03T12:35:31.000Z</time>
      </trkpt>
      <trkpt lat="44.02682" lon="6.88022">
        <ele>1363.4000244141</ele>
        <time>2019-08-03T12:35:33.000Z</time>
      </trkpt>
      <trkpt lat="44.02681" lon="6.88016">
        <ele>1362.8000488281</ele>
        <time>2019-08-03T12:35:34.000Z</time>
      </trkpt>
      <trkpt lat="44.02679" lon="6.88011">
        <ele>1361.8000488281</ele>
        <time>2019-08-03T12:35:35.000Z</time>
      </trkpt>
      <trkpt lat="44.02672" lon="6.88006">
        <ele>1360.8000488281</ele>
        <time>2019-08-03T12:35:37.000Z</time>
      </trkpt>
      <trkpt lat="44.02671" lon="6.88004">
        <ele>1360.4000244141</ele>
        <time>2019-08-03T12:35:38.000Z</time>
      </trkpt>
      <trkpt lat="44.02673" lon="6.88001">
        <ele>1360</ele>
        <time>2019-08-03T12:35:40.000Z</time>
      </trkpt>
      <trkpt lat="44.02675" lon="6.87992">
        <ele>1361</ele>
        <time>2019-08-03T12:35:47.000Z</time>
      </trkpt>
      <trkpt lat="44.0267" lon="6.87985">
        <ele>1361.8000488281</ele>
        <time>2019-08-03T12:35:53.000Z</time>
      </trkpt>
      <trkpt lat="44.02667" lon="6.87981">
        <ele>1363</ele>
        <time>2019-08-03T12:35:57.000Z</time>
      </trkpt>
      <trkpt lat="44.02665" lon="6.87976">
        <ele>1364</ele>
        <time>2019-08-03T12:36:01.000Z</time>
      </trkpt>
      <trkpt lat="44.02663" lon="6.87971">
        <ele>1364.5999755859</ele>
        <time>2019-08-03T12:36:06.000Z</time>
      </trkpt>
      <trkpt lat="44.02658" lon="6.8796">
        <ele>1365</ele>
        <time>2019-08-03T12:36:11.000Z</time>
      </trkpt>
      <trkpt lat="44.02654" lon="6.8795">
        <ele>1365</ele>
        <time>2019-08-03T12:36:13.000Z</time>
      </trkpt>
      <trkpt lat="44.02643" lon="6.87933">
        <ele>1365.5999755859</ele>
        <time>2019-08-03T12:36:19.000Z</time>
      </trkpt>
      <trkpt lat="44.02632" lon="6.87915">
        <ele>1365</ele>
        <time>2019-08-03T12:36:23.000Z</time>
      </trkpt>
      <trkpt lat="44.02627" lon="6.87909">
        <ele>1364</ele>
        <time>2019-08-03T12:36:27.000Z</time>
      </trkpt>
      <trkpt lat="44.02625" lon="6.87906">
        <ele>1363.4000244141</ele>
        <time>2019-08-03T12:36:32.000Z</time>
      </trkpt>
      <trkpt lat="44.0262" lon="6.87895">
        <ele>1363.4000244141</ele>
        <time>2019-08-03T12:36:37.000Z</time>
      </trkpt>
      <trkpt lat="44.02612" lon="6.87882">
        <ele>1363.4000244141</ele>
        <time>2019-08-03T12:36:40.000Z</time>
      </trkpt>
      <trkpt lat="44.02609" lon="6.87876">
        <ele>1363.4000244141</ele>
        <time>2019-08-03T12:36:41.000Z</time>
      </trkpt>
      <trkpt lat="44.02602" lon="6.87866">
        <ele>1363</ele>
        <time>2019-08-03T12:36:43.000Z</time>
      </trkpt>
      <trkpt lat="44.02592" lon="6.87849">
        <ele>1361.8000488281</ele>
        <time>2019-08-03T12:36:46.000Z</time>
      </trkpt>
      <trkpt lat="44.02589" lon="6.87844">
        <ele>1361.4000244141</ele>
        <time>2019-08-03T12:36:47.000Z</time>
      </trkpt>
      <trkpt lat="44.02583" lon="6.8783">
        <ele>1360.5999755859</ele>
        <time>2019-08-03T12:36:51.000Z</time>
      </trkpt>
      <trkpt lat="44.02575" lon="6.87813">
        <ele>1361.4000244141</ele>
        <time>2019-08-03T12:36:56.000Z</time>
      </trkpt>
      <trkpt lat="44.02562" lon="6.87781">
        <ele>1360.4000244141</ele>
        <time>2019-08-03T12:37:04.000Z</time>
      </trkpt>
      <trkpt lat="44.02552" lon="6.8776">
        <ele>1359.8000488281</ele>
        <time>2019-08-03T12:37:09.000Z</time>
      </trkpt>
      <trkpt lat="44.02552" lon="6.87758">
        <ele>1359.5999755859</ele>
        <time>2019-08-03T12:37:10.000Z</time>
      </trkpt>
      <trkpt lat="44.02552" lon="6.87757">
        <ele>1359.8000488281</ele>
        <time>2019-08-03T12:37:12.000Z</time>
      </trkpt>
      <trkpt lat="44.02552" lon="6.87755">
        <ele>1360.5999755859</ele>
        <time>2019-08-03T12:37:17.000Z</time>
      </trkpt>
      <trkpt lat="44.02553" lon="6.87755">
        <ele>1360.5999755859</ele>
        <time>2019-08-03T12:37:23.000Z</time>
      </trkpt>
      <trkpt lat="44.02554" lon="6.87756">
        <ele>1360.8000488281</ele>
        <time>2019-08-03T12:37:27.000Z</time>
      </trkpt>
      <trkpt lat="44.02554" lon="6.87756">
        <ele>1361.1999511719</ele>
        <time>2019-08-03T12:37:30.000Z</time>
      </trkpt>
      <trkpt lat="44.02555" lon="6.87756">
        <ele>1361.1999511719</ele>
        <time>2019-08-03T12:37:48.000Z</time>
      </trkpt>
      <trkpt lat="44.02556" lon="6.87756">
        <ele>1361.1999511719</ele>
        <time>2019-08-03T12:37:55.000Z</time>
      </trkpt>
      <trkpt lat="44.02557" lon="6.87757">
        <ele>1361.1999511719</ele>
        <time>2019-08-03T12:38:01.000Z</time>
      </trkpt>
      <trkpt lat="44.02557" lon="6.87756">
        <ele>1360.8000488281</ele>
        <time>2019-08-03T12:38:10.000Z</time>
      </trkpt>
      <trkpt lat="44.02556" lon="6.87757">
        <ele>1360.1999511719</ele>
        <time>2019-08-03T12:38:16.000Z</time>
      </trkpt>
      <trkpt lat="44.02556" lon="6.87757">
        <ele>1361.1999511719</ele>
        <time>2019-08-03T12:38:33.000Z</time>
      </trkpt>
      <trkpt lat="44.02556" lon="6.87757">
        <ele>1361</ele>
        <time>2019-08-03T12:38:44.000Z</time>
      </trkpt>
      <trkpt lat="44.02556" lon="6.87756">
        <ele>1360.8000488281</ele>
        <time>2019-08-03T12:38:49.000Z</time>
      </trkpt>
      <trkpt lat="44.02556" lon="6.87757">
        <ele>1360</ele>
        <time>2019-08-03T12:38:56.000Z</time>
      </trkpt>
      <trkpt lat="44.02556" lon="6.87757">
        <ele>1361</ele>
        <time>2019-08-03T12:39:02.000Z</time>
      </trkpt>
      <trkpt lat="44.02556" lon="6.87757">
        <ele>1361.1999511719</ele>
        <time>2019-08-03T12:39:13.000Z</time>
      </trkpt>
      <trkpt lat="44.02555" lon="6.87758">
        <ele>1361</ele>
        <time>2019-08-03T12:39:18.000Z</time>
      </trkpt>
      <trkpt lat="44.02555" lon="6.87758">
        <ele>1360.5999755859</ele>
        <time>2019-08-03T12:39:24.000Z</time>
      </trkpt>
      <trkpt lat="44.02554" lon="6.87757">
        <ele>1360</ele>
        <time>2019-08-03T12:39:30.000Z</time>
      </trkpt>
      <trkpt lat="44.02554" lon="6.87757">
        <ele>1360.4000244141</ele>
        <time>2019-08-03T12:39:41.000Z</time>
      </trkpt>
      <trkpt lat="44.02555" lon="6.87758">
        <ele>1360.8000488281</ele>
        <time>2019-08-03T12:40:01.000Z</time>
      </trkpt>
      <trkpt lat="44.02554" lon="6.87759">
        <ele>1360.8000488281</ele>
        <time>2019-08-03T12:40:20.000Z</time>
      </trkpt>
      <trkpt lat="44.02554" lon="6.87759">
        <ele>1360.8000488281</ele>
        <time>2019-08-03T12:40:30.000Z</time>
      </trkpt>
      <trkpt lat="44.02553" lon="6.87759">
        <ele>1360.5999755859</ele>
        <time>2019-08-03T12:40:42.000Z</time>
      </trkpt>
      <trkpt lat="44.02555" lon="6.87759">
        <ele>1360.8000488281</ele>
        <time>2019-08-03T12:40:47.000Z</time>
      </trkpt>
      <trkpt lat="44.02555" lon="6.87759">
        <ele>1361</ele>
        <time>2019-08-03T12:40:53.000Z</time>
      </trkpt>
      <trkpt lat="44.02556" lon="6.87759">
        <ele>1361.1999511719</ele>
        <time>2019-08-03T12:40:59.000Z</time>
      </trkpt>
      <trkpt lat="44.02555" lon="6.87758">
        <ele>1361.1999511719</ele>
        <time>2019-08-03T12:41:00.000Z</time>
      </trkpt>
      <trkpt lat="44.02558" lon="6.87759">
        <ele>1361.4000244141</ele>
        <time>2019-08-03T12:41:05.000Z</time>
      </trkpt>
      <trkpt lat="44.02559" lon="6.87759">
        <ele>1361.8000488281</ele>
        <time>2019-08-03T12:41:07.000Z</time>
      </trkpt>
      <trkpt lat="44.02561" lon="6.87758">
        <ele>1362.4000244141</ele>
        <time>2019-08-03T12:41:12.000Z</time>
      </trkpt>
      <trkpt lat="44.02563" lon="6.87757">
        <ele>1362.8000488281</ele>
        <time>2019-08-03T12:41:16.000Z</time>
      </trkpt>
      <trkpt lat="44.02564" lon="6.87757">
        <ele>1363.1999511719</ele>
        <time>2019-08-03T12:41:20.000Z</time>
      </trkpt>
      <trkpt lat="44.02565" lon="6.87754">
        <ele>1363.5999755859</ele>
        <time>2019-08-03T12:41:25.000Z</time>
      </trkpt>
      <trkpt lat="44.02565" lon="6.87753">
        <ele>1363.1999511719</ele>
        <time>2019-08-03T12:41:33.000Z</time>
      </trkpt>
      <trkpt lat="44.02565" lon="6.87753">
        <ele>1363.4000244141</ele>
        <time>2019-08-03T12:41:40.000Z</time>
      </trkpt>
      <trkpt lat="44.02566" lon="6.87757">
        <ele>1363.8000488281</ele>
        <time>2019-08-03T12:41:46.000Z</time>
      </trkpt>
      <trkpt lat="44.02566" lon="6.87759">
        <ele>1363.8000488281</ele>
        <time>2019-08-03T12:41:48.000Z</time>
      </trkpt>
      <trkpt lat="44.02563" lon="6.87759">
        <ele>1363.5999755859</ele>
        <time>2019-08-03T12:41:51.000Z</time>
      </trkpt>
      <trkpt lat="44.02561" lon="6.8776">
        <ele>1363.1999511719</ele>
        <time>2019-08-03T12:41:55.000Z</time>
      </trkpt>
      <trkpt lat="44.02559" lon="6.8776">
        <ele>1363</ele>
        <time>2019-08-03T12:41:57.000Z</time>
      </trkpt>
      <trkpt lat="44.02557" lon="6.8776">
        <ele>1362.8000488281</ele>
        <time>2019-08-03T12:41:59.000Z</time>
      </trkpt>
      <trkpt lat="44.02553" lon="6.87758">
        <ele>1362.4000244141</ele>
        <time>2019-08-03T12:42:03.000Z</time>
      </trkpt>
      <trkpt lat="44.02552" lon="6.87756">
        <ele>1361.8000488281</ele>
        <time>2019-08-03T12:42:08.000Z</time>
      </trkpt>
      <trkpt lat="44.02552" lon="6.87756">
        <ele>1361.5999755859</ele>
        <time>2019-08-03T12:42:15.000Z</time>
      </trkpt>
      <trkpt lat="44.02552" lon="6.87755">
        <ele>1361.1999511719</ele>
        <time>2019-08-03T12:42:17.000Z</time>
      </trkpt>
      <trkpt lat="44.02552" lon="6.87754">
        <ele>1361.1999511719</ele>
        <time>2019-08-03T12:42:24.000Z</time>
      </trkpt>
      <trkpt lat="44.02553" lon="6.87754">
        <ele>1361</ele>
        <time>2019-08-03T12:42:33.000Z</time>
      </trkpt>
      <trkpt lat="44.02554" lon="6.87755">
        <ele>1361.1999511719</ele>
        <time>2019-08-03T12:42:35.000Z</time>
      </trkpt>
      <trkpt lat="44.02555" lon="6.87757">
        <ele>1361.1999511719</ele>
        <time>2019-08-03T12:42:38.000Z</time>
      </trkpt>
      <trkpt lat="44.02555" lon="6.87757">
        <ele>1360.8000488281</ele>
        <time>2019-08-03T12:42:44.000Z</time>
      </trkpt>
      <trkpt lat="44.02554" lon="6.87758">
        <ele>1361</ele>
        <time>2019-08-03T12:42:55.000Z</time>
      </trkpt>
      <trkpt lat="44.02553" lon="6.87759">
        <ele>1361.1999511719</ele>
        <time>2019-08-03T12:43:18.000Z</time>
      </trkpt>
      <trkpt lat="44.02554" lon="6.8776">
        <ele>1361</ele>
        <time>2019-08-03T12:43:40.000Z</time>
      </trkpt>
      <trkpt lat="44.02555" lon="6.8776">
        <ele>1360.8000488281</ele>
        <time>2019-08-03T12:43:55.000Z</time>
      </trkpt>
      <trkpt lat="44.02555" lon="6.8776">
        <ele>1360.4000244141</ele>
        <time>2019-08-03T12:43:56.000Z</time>
      </trkpt>
      <trkpt lat="44.02555" lon="6.8776">
        <ele>1360.4000244141</ele>
        <time>2019-08-03T12:44:11.000Z</time>
      </trkpt>
      <trkpt lat="44.02555" lon="6.87759">
        <ele>1361</ele>
        <time>2019-08-03T12:44:22.000Z</time>
      </trkpt>
      <trkpt lat="44.02554" lon="6.87759">
        <ele>1360.4000244141</ele>
        <time>2019-08-03T12:44:40.000Z</time>
      </trkpt>
      <trkpt lat="44.02555" lon="6.87758">
        <ele>1361</ele>
        <time>2019-08-03T12:44:45.000Z</time>
      </trkpt>
      <trkpt lat="44.02554" lon="6.87758">
        <ele>1361</ele>
        <time>2019-08-03T12:44:52.000Z</time>
      </trkpt>
      <trkpt lat="44.02554" lon="6.87758">
        <ele>1361</ele>
        <time>2019-08-03T12:45:07.000Z</time>
      </trkpt>
      <trkpt lat="44.02554" lon="6.87758">
        <ele>1361</ele>
        <time>2019-08-03T12:45:19.000Z</time>
      </trkpt>
      <trkpt lat="44.02554" lon="6.87757">
        <ele>1361</ele>
        <time>2019-08-03T12:45:31.000Z</time>
      </trkpt>
      <trkpt lat="44.02553" lon="6.87757">
        <ele>1360.5999755859</ele>
        <time>2019-08-03T12:45:45.000Z</time>
      </trkpt>
      <trkpt lat="44.02553" lon="6.87757">
        <ele>1360.8000488281</ele>
        <time>2019-08-03T12:45:52.000Z</time>
      </trkpt>
      <trkpt lat="44.02552" lon="6.87758">
        <ele>1360.4000244141</ele>
        <time>2019-08-03T12:46:25.000Z</time>
      </trkpt>
      <trkpt lat="44.02552" lon="6.87758">
        <ele>1360.5999755859</ele>
        <time>2019-08-03T12:46:54.000Z</time>
      </trkpt>
      <trkpt lat="44.02553" lon="6.87759">
        <ele>1360.5999755859</ele>
        <time>2019-08-03T12:47:25.000Z</time>
      </trkpt>
      <trkpt lat="44.02553" lon="6.87759">
        <ele>1360.5999755859</ele>
        <time>2019-08-03T12:47:55.000Z</time>
      </trkpt>
      <trkpt lat="44.02553" lon="6.87759">
        <ele>1360.8000488281</ele>
        <time>2019-08-03T12:48:03.000Z</time>
      </trkpt>
      <trkpt lat="44.02552" lon="6.87758">
        <ele>1360.8000488281</ele>
        <time>2019-08-03T12:48:31.000Z</time>
      </trkpt>
      <trkpt lat="44.02552" lon="6.87758">
        <ele>1360.8000488281</ele>
        <time>2019-08-03T12:49:06.000Z</time>
      </trkpt>
      <trkpt lat="44.02552" lon="6.87758">
        <ele>1361.1999511719</ele>
        <time>2019-08-03T12:49:34.000Z</time>
      </trkpt>
      <trkpt lat="44.02552" lon="6.87758">
        <ele>1361.1999511719</ele>
        <time>2019-08-03T12:50:02.000Z</time>
      </trkpt>
      <trkpt lat="44.02552" lon="6.87758">
        <ele>1361.4000244141</ele>
        <time>2019-08-03T12:50:33.000Z</time>
      </trkpt>
      <trkpt lat="44.02551" lon="6.87757">
        <ele>1361.4000244141</ele>
        <time>2019-08-03T12:50:54.000Z</time>
      </trkpt>
      <trkpt lat="44.02551" lon="6.87757">
        <ele>1361.5999755859</ele>
        <time>2019-08-03T12:51:04.000Z</time>
      </trkpt>
      <trkpt lat="44.02551" lon="6.87757">
        <ele>1361.8000488281</ele>
        <time>2019-08-03T12:51:31.000Z</time>
      </trkpt>
      <trkpt lat="44.02551" lon="6.87756">
        <ele>1362</ele>
        <time>2019-08-03T12:51:48.000Z</time>
      </trkpt>
      <trkpt lat="44.02551" lon="6.87756">
        <ele>1362.1999511719</ele>
        <time>2019-08-03T12:51:57.000Z</time>
      </trkpt>
      <trkpt lat="44.02552" lon="6.87757">
        <ele>1361.8000488281</ele>
        <time>2019-08-03T12:52:17.000Z</time>
      </trkpt>
      <trkpt lat="44.02553" lon="6.87757">
        <ele>1361.5999755859</ele>
        <time>2019-08-03T12:52:51.000Z</time>
      </trkpt>
      <trkpt lat="44.02553" lon="6.87758">
        <ele>1361.5999755859</ele>
        <time>2019-08-03T12:53:21.000Z</time>
      </trkpt>
      <trkpt lat="44.02553" lon="6.87758">
        <ele>1361.8000488281</ele>
        <time>2019-08-03T12:53:43.000Z</time>
      </trkpt>
      <trkpt lat="44.02553" lon="6.87758">
        <ele>1362.1999511719</ele>
        <time>2019-08-03T12:53:55.000Z</time>
      </trkpt>
      <trkpt lat="44.02553" lon="6.87758">
        <ele>1362</ele>
        <time>2019-08-03T12:54:04.000Z</time>
      </trkpt>
      <trkpt lat="44.02553" lon="6.87758">
        <ele>1362.4000244141</ele>
        <time>2019-08-03T12:54:13.000Z</time>
      </trkpt>
      <trkpt lat="44.02552" lon="6.87758">
        <ele>1361.8000488281</ele>
        <time>2019-08-03T12:54:48.000Z</time>
      </trkpt>
      <trkpt lat="44.02551" lon="6.87758">
        <ele>1362.1999511719</ele>
        <time>2019-08-03T12:55:21.000Z</time>
      </trkpt>
      <trkpt lat="44.02552" lon="6.87758">
        <ele>1362.1999511719</ele>
        <time>2019-08-03T12:55:50.000Z</time>
      </trkpt>
      <trkpt lat="44.02552" lon="6.87758">
        <ele>1362.1999511719</ele>
        <time>2019-08-03T12:56:16.000Z</time>
      </trkpt>
      <trkpt lat="44.02553" lon="6.87757">
        <ele>1362.5999755859</ele>
        <time>2019-08-03T12:56:28.000Z</time>
      </trkpt>
      <trkpt lat="44.02553" lon="6.87757">
        <ele>1362.4000244141</ele>
        <time>2019-08-03T12:56:30.000Z</time>
      </trkpt>
      <trkpt lat="44.02554" lon="6.87756">
        <ele>1362.1999511719</ele>
        <time>2019-08-03T12:56:47.000Z</time>
      </trkpt>
      <trkpt lat="44.02554" lon="6.87756">
        <ele>1362.1999511719</ele>
        <time>2019-08-03T12:56:58.000Z</time>
      </trkpt>
      <trkpt lat="44.02554" lon="6.87756">
        <ele>1362.4000244141</ele>
        <time>2019-08-03T12:57:11.000Z</time>
      </trkpt>
      <trkpt lat="44.02554" lon="6.87757">
        <ele>1362.4000244141</ele>
        <time>2019-08-03T12:57:25.000Z</time>
      </trkpt>
      <trkpt lat="44.02554" lon="6.87756">
        <ele>1362.4000244141</ele>
        <time>2019-08-03T12:57:41.000Z</time>
      </trkpt>
      <trkpt lat="44.02554" lon="6.87757">
        <ele>1362.4000244141</ele>
        <time>2019-08-03T12:57:54.000Z</time>
      </trkpt>
      <trkpt lat="44.02554" lon="6.87757">
        <ele>1362.5999755859</ele>
        <time>2019-08-03T12:58:05.000Z</time>
      </trkpt>
      <trkpt lat="44.02554" lon="6.87757">
        <ele>1362.5999755859</ele>
        <time>2019-08-03T12:58:21.000Z</time>
      </trkpt>
      <trkpt lat="44.02553" lon="6.87756">
        <ele>1362.4000244141</ele>
        <time>2019-08-03T12:58:30.000Z</time>
      </trkpt>
      <trkpt lat="44.02554" lon="6.87757">
        <ele>1362.5999755859</ele>
        <time>2019-08-03T12:58:35.000Z</time>
      </trkpt>
      <trkpt lat="44.02555" lon="6.87756">
        <ele>1362.4000244141</ele>
        <time>2019-08-03T12:58:47.000Z</time>
      </trkpt>
      <trkpt lat="44.02555" lon="6.87755">
        <ele>1362.8000488281</ele>
        <time>2019-08-03T12:58:57.000Z</time>
      </trkpt>
      <trkpt lat="44.02554" lon="6.87754">
        <ele>1363</ele>
        <time>2019-08-03T12:59:10.000Z</time>
      </trkpt>
      <trkpt lat="44.02553" lon="6.87755">
        <ele>1363</ele>
        <time>2019-08-03T12:59:18.000Z</time>
      </trkpt>
      <trkpt lat="44.02553" lon="6.87755">
        <ele>1363.1999511719</ele>
        <time>2019-08-03T12:59:25.000Z</time>
      </trkpt>
      <trkpt lat="44.02553" lon="6.87755">
        <ele>1363</ele>
        <time>2019-08-03T12:59:30.000Z</time>
      </trkpt>
      <trkpt lat="44.02553" lon="6.87755">
        <ele>1363.1999511719</ele>
        <time>2019-08-03T12:59:35.000Z</time>
      </trkpt>
      <trkpt lat="44.02553" lon="6.87755">
        <ele>1362.8000488281</ele>
        <time>2019-08-03T12:59:42.000Z</time>
      </trkpt>
      <trkpt lat="44.02552" lon="6.87754">
        <ele>1363.1999511719</ele>
        <time>2019-08-03T12:59:48.000Z</time>
      </trkpt>
      <trkpt lat="44.02552" lon="6.87755">
        <ele>1363.5999755859</ele>
        <time>2019-08-03T12:59:52.000Z</time>
      </trkpt>
      <trkpt lat="44.02552" lon="6.87755">
        <ele>1363.5999755859</ele>
        <time>2019-08-03T12:59:59.000Z</time>
      </trkpt>
      <trkpt lat="44.02551" lon="6.87754">
        <ele>1363.1999511719</ele>
        <time>2019-08-03T13:00:08.000Z</time>
      </trkpt>
      <trkpt lat="44.0255" lon="6.87753">
        <ele>1363.1999511719</ele>
        <time>2019-08-03T13:00:15.000Z</time>
      </trkpt>
      <trkpt lat="44.02551" lon="6.87754">
        <ele>1362.8000488281</ele>
        <time>2019-08-03T13:00:31.000Z</time>
      </trkpt>
      <trkpt lat="44.02552" lon="6.87755">
        <ele>1363</ele>
        <time>2019-08-03T13:00:46.000Z</time>
      </trkpt>
      <trkpt lat="44.02551" lon="6.87754">
        <ele>1363</ele>
        <time>2019-08-03T13:00:54.000Z</time>
      </trkpt>
      <trkpt lat="44.02551" lon="6.87753">
        <ele>1363</ele>
        <time>2019-08-03T13:01:01.000Z</time>
      </trkpt>
      <trkpt lat="44.0255" lon="6.87752">
        <ele>1363</ele>
        <time>2019-08-03T13:01:02.000Z</time>
      </trkpt>
      <trkpt lat="44.02546" lon="6.87745">
        <ele>1363.4000244141</ele>
        <time>2019-08-03T13:01:05.000Z</time>
      </trkpt>
      <trkpt lat="44.02536" lon="6.87735">
        <ele>1362.5999755859</ele>
        <time>2019-08-03T13:01:11.000Z</time>
      </trkpt>
      <trkpt lat="44.02529" lon="6.87727">
        <ele>1361.1999511719</ele>
        <time>2019-08-03T13:01:15.000Z</time>
      </trkpt>
      <trkpt lat="44.02527" lon="6.87725">
        <ele>1360.1999511719</ele>
        <time>2019-08-03T13:01:17.000Z</time>
      </trkpt>
      <trkpt lat="44.02526" lon="6.87725">
        <ele>1359.8000488281</ele>
        <time>2019-08-03T13:01:18.000Z</time>
      </trkpt>
      <trkpt lat="44.0252" lon="6.87721">
        <ele>1359.4000244141</ele>
        <time>2019-08-03T13:01:21.000Z</time>
      </trkpt>
      <trkpt lat="44.02512" lon="6.87713">
        <ele>1358.5999755859</ele>
        <time>2019-08-03T13:01:25.000Z</time>
      </trkpt>
      <trkpt lat="44.02509" lon="6.87712">
        <ele>1358.5999755859</ele>
        <time>2019-08-03T13:01:26.000Z</time>
      </trkpt>
      <trkpt lat="44.02497" lon="6.87696">
        <ele>1357.5999755859</ele>
        <time>2019-08-03T13:01:31.000Z</time>
      </trkpt>
      <trkpt lat="44.02496" lon="6.87676">
        <ele>1356.4000244141</ele>
        <time>2019-08-03T13:01:35.000Z</time>
      </trkpt>
      <trkpt lat="44.02497" lon="6.87673">
        <ele>1355.4000244141</ele>
        <time>2019-08-03T13:01:36.000Z</time>
      </trkpt>
      <trkpt lat="44.02498" lon="6.87671">
        <ele>1355.1999511719</ele>
        <time>2019-08-03T13:01:37.000Z</time>
      </trkpt>
      <trkpt lat="44.02498" lon="6.87666">
        <ele>1354.8000488281</ele>
        <time>2019-08-03T13:01:39.000Z</time>
      </trkpt>
      <trkpt lat="44.02496" lon="6.87654">
        <ele>1355.4000244141</ele>
        <time>2019-08-03T13:01:43.000Z</time>
      </trkpt>
      <trkpt lat="44.02496" lon="6.87645">
        <ele>1354.8000488281</ele>
        <time>2019-08-03T13:01:48.000Z</time>
      </trkpt>
      <trkpt lat="44.02498" lon="6.87629">
        <ele>1354</ele>
        <time>2019-08-03T13:01:53.000Z</time>
      </trkpt>
      <trkpt lat="44.02495" lon="6.87618">
        <ele>1353</ele>
        <time>2019-08-03T13:01:56.000Z</time>
      </trkpt>
      <trkpt lat="44.02495" lon="6.87616">
        <ele>1352.8000488281</ele>
        <time>2019-08-03T13:01:57.000Z</time>
      </trkpt>
      <trkpt lat="44.02494" lon="6.87606">
        <ele>1352</ele>
        <time>2019-08-03T13:02:00.000Z</time>
      </trkpt>
      <trkpt lat="44.02495" lon="6.87603">
        <ele>1351.8000488281</ele>
        <time>2019-08-03T13:02:01.000Z</time>
      </trkpt>
      <trkpt lat="44.02496" lon="6.876">
        <ele>1351.8000488281</ele>
        <time>2019-08-03T13:02:02.000Z</time>
      </trkpt>
      <trkpt lat="44.02498" lon="6.87587">
        <ele>1350.8000488281</ele>
        <time>2019-08-03T13:02:05.000Z</time>
      </trkpt>
      <trkpt lat="44.02498" lon="6.87583">
        <ele>1350.4000244141</ele>
        <time>2019-08-03T13:02:06.000Z</time>
      </trkpt>
      <trkpt lat="44.02498" lon="6.8758">
        <ele>1350</ele>
        <time>2019-08-03T13:02:07.000Z</time>
      </trkpt>
      <trkpt lat="44.02499" lon="6.87577">
        <ele>1349.5999755859</ele>
        <time>2019-08-03T13:02:08.000Z</time>
      </trkpt>
      <trkpt lat="44.025" lon="6.87567">
        <ele>1348.8000488281</ele>
        <time>2019-08-03T13:02:11.000Z</time>
      </trkpt>
      <trkpt lat="44.025" lon="6.87564">
        <ele>1348.4000244141</ele>
        <time>2019-08-03T13:02:12.000Z</time>
      </trkpt>
      <trkpt lat="44.025" lon="6.87551">
        <ele>1346.8000488281</ele>
        <time>2019-08-03T13:02:15.000Z</time>
      </trkpt>
      <trkpt lat="44.02499" lon="6.87539">
        <ele>1345.5999755859</ele>
        <time>2019-08-03T13:02:18.000Z</time>
      </trkpt>
      <trkpt lat="44.02499" lon="6.87537">
        <ele>1345.1999511719</ele>
        <time>2019-08-03T13:02:19.000Z</time>
      </trkpt>
      <trkpt lat="44.02496" lon="6.87529">
        <ele>1344.1999511719</ele>
        <time>2019-08-03T13:02:22.000Z</time>
      </trkpt>
      <trkpt lat="44.02494" lon="6.87524">
        <ele>1343.1999511719</ele>
        <time>2019-08-03T13:02:24.000Z</time>
      </trkpt>
      <trkpt lat="44.02493" lon="6.87522">
        <ele>1342.8000488281</ele>
        <time>2019-08-03T13:02:25.000Z</time>
      </trkpt>
      <trkpt lat="44.02493" lon="6.87518">
        <ele>1341.8000488281</ele>
        <time>2019-08-03T13:02:27.000Z</time>
      </trkpt>
      <trkpt lat="44.02493" lon="6.87517">
        <ele>1340.4000244141</ele>
        <time>2019-08-03T13:02:29.000Z</time>
      </trkpt>
      <trkpt lat="44.02493" lon="6.87516">
        <ele>1339.1999511719</ele>
        <time>2019-08-03T13:02:32.000Z</time>
      </trkpt>
      <trkpt lat="44.02493" lon="6.87517">
        <ele>1339</ele>
        <time>2019-08-03T13:02:47.000Z</time>
      </trkpt>
      <trkpt lat="44.02491" lon="6.87515">
        <ele>1338.5999755859</ele>
        <time>2019-08-03T13:02:52.000Z</time>
      </trkpt>
      <trkpt lat="44.02488" lon="6.87515">
        <ele>1338.1999511719</ele>
        <time>2019-08-03T13:02:59.000Z</time>
      </trkpt>
      <trkpt lat="44.02487" lon="6.87516">
        <ele>1338</ele>
        <time>2019-08-03T13:03:00.000Z</time>
      </trkpt>
      <trkpt lat="44.02485" lon="6.87514">
        <ele>1337</ele>
        <time>2019-08-03T13:03:04.000Z</time>
      </trkpt>
      <trkpt lat="44.02484" lon="6.87509">
        <ele>1336.8000488281</ele>
        <time>2019-08-03T13:03:06.000Z</time>
      </trkpt>
      <trkpt lat="44.02485" lon="6.87504">
        <ele>1336.8000488281</ele>
        <time>2019-08-03T13:03:08.000Z</time>
      </trkpt>
      <trkpt lat="44.02484" lon="6.87499">
        <ele>1336.4000244141</ele>
        <time>2019-08-03T13:03:10.000Z</time>
      </trkpt>
      <trkpt lat="44.02482" lon="6.87491">
        <ele>1335.8000488281</ele>
        <time>2019-08-03T13:03:13.000Z</time>
      </trkpt>
      <trkpt lat="44.02481" lon="6.87487">
        <ele>1335.1999511719</ele>
        <time>2019-08-03T13:03:15.000Z</time>
      </trkpt>
      <trkpt lat="44.02481" lon="6.87484">
        <ele>1334.5999755859</ele>
        <time>2019-08-03T13:03:16.000Z</time>
      </trkpt>
      <trkpt lat="44.02481" lon="6.87482">
        <ele>1334.4000244141</ele>
        <time>2019-08-03T13:03:17.000Z</time>
      </trkpt>
      <trkpt lat="44.02482" lon="6.8747">
        <ele>1333.5999755859</ele>
        <time>2019-08-03T13:03:21.000Z</time>
      </trkpt>
      <trkpt lat="44.0248" lon="6.87459">
        <ele>1333.4000244141</ele>
        <time>2019-08-03T13:03:25.000Z</time>
      </trkpt>
      <trkpt lat="44.02479" lon="6.87436">
        <ele>1332.5999755859</ele>
        <time>2019-08-03T13:03:30.000Z</time>
      </trkpt>
      <trkpt lat="44.02475" lon="6.87421">
        <ele>1331.5999755859</ele>
        <time>2019-08-03T13:03:34.000Z</time>
      </trkpt>
      <trkpt lat="44.02474" lon="6.87415">
        <ele>1331.1999511719</ele>
        <time>2019-08-03T13:03:35.000Z</time>
      </trkpt>
      <trkpt lat="44.02474" lon="6.87409">
        <ele>1330</ele>
        <time>2019-08-03T13:03:37.000Z</time>
      </trkpt>
      <trkpt lat="44.02474" lon="6.87406">
        <ele>1329</ele>
        <time>2019-08-03T13:03:38.000Z</time>
      </trkpt>
      <trkpt lat="44.02474" lon="6.87397">
        <ele>1327.8000488281</ele>
        <time>2019-08-03T13:03:41.000Z</time>
      </trkpt>
      <trkpt lat="44.02475" lon="6.87394">
        <ele>1328</ele>
        <time>2019-08-03T13:03:42.000Z</time>
      </trkpt>
      <trkpt lat="44.02475" lon="6.87391">
        <ele>1328.1999511719</ele>
        <time>2019-08-03T13:03:43.000Z</time>
      </trkpt>
      <trkpt lat="44.02478" lon="6.87377">
        <ele>1327.8000488281</ele>
        <time>2019-08-03T13:03:46.000Z</time>
      </trkpt>
      <trkpt lat="44.0248" lon="6.87372">
        <ele>1328</ele>
        <time>2019-08-03T13:03:47.000Z</time>
      </trkpt>
      <trkpt lat="44.02485" lon="6.87358">
        <ele>1326.8000488281</ele>
        <time>2019-08-03T13:03:50.000Z</time>
      </trkpt>
      <trkpt lat="44.02487" lon="6.87356">
        <ele>1326.5999755859</ele>
        <time>2019-08-03T13:03:51.000Z</time>
      </trkpt>
      <trkpt lat="44.02492" lon="6.87349">
        <ele>1325.4000244141</ele>
        <time>2019-08-03T13:03:53.000Z</time>
      </trkpt>
      <trkpt lat="44.02497" lon="6.8734">
        <ele>1323.8000488281</ele>
        <time>2019-08-03T13:03:55.000Z</time>
      </trkpt>
      <trkpt lat="44.025" lon="6.87334">
        <ele>1322.4000244141</ele>
        <time>2019-08-03T13:03:57.000Z</time>
      </trkpt>
      <trkpt lat="44.02504" lon="6.87328">
        <ele>1321.4000244141</ele>
        <time>2019-08-03T13:03:59.000Z</time>
      </trkpt>
      <trkpt lat="44.02509" lon="6.87323">
        <ele>1320.4000244141</ele>
        <time>2019-08-03T13:04:02.000Z</time>
      </trkpt>
      <trkpt lat="44.02518" lon="6.87317">
        <ele>1320</ele>
        <time>2019-08-03T13:04:06.000Z</time>
      </trkpt>
      <trkpt lat="44.0253" lon="6.8731">
        <ele>1320.4000244141</ele>
        <time>2019-08-03T13:04:12.000Z</time>
      </trkpt>
      <trkpt lat="44.0253" lon="6.87303">
        <ele>1320.4000244141</ele>
        <time>2019-08-03T13:04:14.000Z</time>
      </trkpt>
      <trkpt lat="44.02529" lon="6.87301">
        <ele>1320</ele>
        <time>2019-08-03T13:04:15.000Z</time>
      </trkpt>
      <trkpt lat="44.02524" lon="6.87292">
        <ele>1319</ele>
        <time>2019-08-03T13:04:17.000Z</time>
      </trkpt>
      <trkpt lat="44.02521" lon="6.87284">
        <ele>1318</ele>
        <time>2019-08-03T13:04:19.000Z</time>
      </trkpt>
      <trkpt lat="44.02519" lon="6.87269">
        <ele>1318.1999511719</ele>
        <time>2019-08-03T13:04:24.000Z</time>
      </trkpt>
      <trkpt lat="44.02518" lon="6.87266">
        <ele>1318.5999755859</ele>
        <time>2019-08-03T13:04:26.000Z</time>
      </trkpt>
      <trkpt lat="44.02517" lon="6.87261">
        <ele>1318.5999755859</ele>
        <time>2019-08-03T13:04:28.000Z</time>
      </trkpt>
      <trkpt lat="44.02515" lon="6.87247">
        <ele>1318.1999511719</ele>
        <time>2019-08-03T13:04:31.000Z</time>
      </trkpt>
      <trkpt lat="44.02514" lon="6.87238">
        <ele>1317</ele>
        <time>2019-08-03T13:04:33.000Z</time>
      </trkpt>
      <trkpt lat="44.02515" lon="6.87231">
        <ele>1316.5999755859</ele>
        <time>2019-08-03T13:04:35.000Z</time>
      </trkpt>
      <trkpt lat="44.02517" lon="6.87225">
        <ele>1315.8000488281</ele>
        <time>2019-08-03T13:04:37.000Z</time>
      </trkpt>
      <trkpt lat="44.02517" lon="6.87221">
        <ele>1315.4000244141</ele>
        <time>2019-08-03T13:04:38.000Z</time>
      </trkpt>
      <trkpt lat="44.02519" lon="6.87204">
        <ele>1314.4000244141</ele>
        <time>2019-08-03T13:04:41.000Z</time>
      </trkpt>
      <trkpt lat="44.02523" lon="6.87193">
        <ele>1313.1999511719</ele>
        <time>2019-08-03T13:04:45.000Z</time>
      </trkpt>
      <trkpt lat="44.02527" lon="6.87185">
        <ele>1313.8000488281</ele>
        <time>2019-08-03T13:04:49.000Z</time>
      </trkpt>
      <trkpt lat="44.02533" lon="6.87182">
        <ele>1313</ele>
        <time>2019-08-03T13:04:54.000Z</time>
      </trkpt>
      <trkpt lat="44.02544" lon="6.87176">
        <ele>1312.1999511719</ele>
        <time>2019-08-03T13:04:58.000Z</time>
      </trkpt>
      <trkpt lat="44.02556" lon="6.8717">
        <ele>1310.1999511719</ele>
        <time>2019-08-03T13:05:01.000Z</time>
      </trkpt>
      <trkpt lat="44.02563" lon="6.87161">
        <ele>1309.1999511719</ele>
        <time>2019-08-03T13:05:03.000Z</time>
      </trkpt>
      <trkpt lat="44.02571" lon="6.87152">
        <ele>1307.8000488281</ele>
        <time>2019-08-03T13:05:06.000Z</time>
      </trkpt>
      <trkpt lat="44.02574" lon="6.8715">
        <ele>1307.8000488281</ele>
        <time>2019-08-03T13:05:07.000Z</time>
      </trkpt>
      <trkpt lat="44.0258" lon="6.8715">
        <ele>1307.4000244141</ele>
        <time>2019-08-03T13:05:08.000Z</time>
      </trkpt>
      <trkpt lat="44.02589" lon="6.87145">
        <ele>1306.5999755859</ele>
        <time>2019-08-03T13:05:10.000Z</time>
      </trkpt>
      <trkpt lat="44.02593" lon="6.87143">
        <ele>1306</ele>
        <time>2019-08-03T13:05:11.000Z</time>
      </trkpt>
      <trkpt lat="44.02599" lon="6.87137">
        <ele>1304.8000488281</ele>
        <time>2019-08-03T13:05:13.000Z</time>
      </trkpt>
      <trkpt lat="44.02601" lon="6.87133">
        <ele>1303.8000488281</ele>
        <time>2019-08-03T13:05:14.000Z</time>
      </trkpt>
      <trkpt lat="44.02603" lon="6.8713">
        <ele>1303.5999755859</ele>
        <time>2019-08-03T13:05:15.000Z</time>
      </trkpt>
      <trkpt lat="44.0261" lon="6.87118">
        <ele>1303.1999511719</ele>
        <time>2019-08-03T13:05:19.000Z</time>
      </trkpt>
      <trkpt lat="44.02619" lon="6.87105">
        <ele>1303.8000488281</ele>
        <time>2019-08-03T13:05:24.000Z</time>
      </trkpt>
      <trkpt lat="44.02621" lon="6.87094">
        <ele>1302.4000244141</ele>
        <time>2019-08-03T13:05:27.000Z</time>
      </trkpt>
      <trkpt lat="44.02623" lon="6.87086">
        <ele>1301</ele>
        <time>2019-08-03T13:05:29.000Z</time>
      </trkpt>
      <trkpt lat="44.02623" lon="6.87081">
        <ele>1300.8000488281</ele>
        <time>2019-08-03T13:05:30.000Z</time>
      </trkpt>
      <trkpt lat="44.02625" lon="6.87072">
        <ele>1300</ele>
        <time>2019-08-03T13:05:32.000Z</time>
      </trkpt>
      <trkpt lat="44.02628" lon="6.8707">
        <ele>1299.8000488281</ele>
        <time>2019-08-03T13:05:33.000Z</time>
      </trkpt>
      <trkpt lat="44.02633" lon="6.87068">
        <ele>1298.5999755859</ele>
        <time>2019-08-03T13:05:35.000Z</time>
      </trkpt>
      <trkpt lat="44.02635" lon="6.87065">
        <ele>1298.4000244141</ele>
        <time>2019-08-03T13:05:37.000Z</time>
      </trkpt>
      <trkpt lat="44.02635" lon="6.87062">
        <ele>1298.5999755859</ele>
        <time>2019-08-03T13:05:38.000Z</time>
      </trkpt>
      <trkpt lat="44.02635" lon="6.87059">
        <ele>1298.5999755859</ele>
        <time>2019-08-03T13:05:39.000Z</time>
      </trkpt>
      <trkpt lat="44.02634" lon="6.87057">
        <ele>1298.8000488281</ele>
        <time>2019-08-03T13:05:40.000Z</time>
      </trkpt>
      <trkpt lat="44.02629" lon="6.87046">
        <ele>1298.4000244141</ele>
        <time>2019-08-03T13:05:44.000Z</time>
      </trkpt>
      <trkpt lat="44.02629" lon="6.87045">
        <ele>1297.4000244141</ele>
        <time>2019-08-03T13:05:46.000Z</time>
      </trkpt>
      <trkpt lat="44.02626" lon="6.87039">
        <ele>1296.8000488281</ele>
        <time>2019-08-03T13:05:51.000Z</time>
      </trkpt>
      <trkpt lat="44.02626" lon="6.87033">
        <ele>1297.4000244141</ele>
        <time>2019-08-03T13:05:56.000Z</time>
      </trkpt>
      <trkpt lat="44.02626" lon="6.87031">
        <ele>1297.5999755859</ele>
        <time>2019-08-03T13:05:58.000Z</time>
      </trkpt>
      <trkpt lat="44.02624" lon="6.87028">
        <ele>1297.8000488281</ele>
        <time>2019-08-03T13:06:00.000Z</time>
      </trkpt>
      <trkpt lat="44.02624" lon="6.87025">
        <ele>1298</ele>
        <time>2019-08-03T13:06:01.000Z</time>
      </trkpt>
      <trkpt lat="44.02626" lon="6.87019">
        <ele>1297.8000488281</ele>
        <time>2019-08-03T13:06:06.000Z</time>
      </trkpt>
      <trkpt lat="44.02627" lon="6.87018">
        <ele>1297.5999755859</ele>
        <time>2019-08-03T13:06:07.000Z</time>
      </trkpt>
      <trkpt lat="44.02631" lon="6.87007">
        <ele>1297.5999755859</ele>
        <time>2019-08-03T13:06:10.000Z</time>
      </trkpt>
      <trkpt lat="44.02631" lon="6.87005">
        <ele>1296.4000244141</ele>
        <time>2019-08-03T13:06:15.000Z</time>
      </trkpt>
      <trkpt lat="44.02631" lon="6.87005">
        <ele>1296.1999511719</ele>
        <time>2019-08-03T13:06:16.000Z</time>
      </trkpt>
      <trkpt lat="44.0263" lon="6.87004">
        <ele>1296.1999511719</ele>
        <time>2019-08-03T13:06:30.000Z</time>
      </trkpt>
      <trkpt lat="44.02631" lon="6.87001">
        <ele>1295.8000488281</ele>
        <time>2019-08-03T13:06:42.000Z</time>
      </trkpt>
      <trkpt lat="44.02632" lon="6.86998">
        <ele>1295.1999511719</ele>
        <time>2019-08-03T13:06:45.000Z</time>
      </trkpt>
      <trkpt lat="44.02634" lon="6.86992">
        <ele>1295.1999511719</ele>
        <time>2019-08-03T13:06:49.000Z</time>
      </trkpt>
      <trkpt lat="44.02636" lon="6.86985">
        <ele>1294.1999511719</ele>
        <time>2019-08-03T13:06:53.000Z</time>
      </trkpt>
      <trkpt lat="44.02636" lon="6.86983">
        <ele>1292.5999755859</ele>
        <time>2019-08-03T13:06:55.000Z</time>
      </trkpt>
      <trkpt lat="44.02636" lon="6.8698">
        <ele>1291.1999511719</ele>
        <time>2019-08-03T13:06:57.000Z</time>
      </trkpt>
      <trkpt lat="44.02636" lon="6.86979">
        <ele>1290.4000244141</ele>
        <time>2019-08-03T13:07:00.000Z</time>
      </trkpt>
      <trkpt lat="44.02636" lon="6.86979">
        <ele>1290</ele>
        <time>2019-08-03T13:07:01.000Z</time>
      </trkpt>
      <trkpt lat="44.02634" lon="6.86979">
        <ele>1288.8000488281</ele>
        <time>2019-08-03T13:07:05.000Z</time>
      </trkpt>
      <trkpt lat="44.02634" lon="6.86978">
        <ele>1288.5999755859</ele>
        <time>2019-08-03T13:07:07.000Z</time>
      </trkpt>
      <trkpt lat="44.02631" lon="6.8698">
        <ele>1288.1999511719</ele>
        <time>2019-08-03T13:07:10.000Z</time>
      </trkpt>
      <trkpt lat="44.02626" lon="6.86977">
        <ele>1287.8000488281</ele>
        <time>2019-08-03T13:07:12.000Z</time>
      </trkpt>
      <trkpt lat="44.02627" lon="6.86971">
        <ele>1286.8000488281</ele>
        <time>2019-08-03T13:07:15.000Z</time>
      </trkpt>
      <trkpt lat="44.02628" lon="6.86966">
        <ele>1286.4000244141</ele>
        <time>2019-08-03T13:07:16.000Z</time>
      </trkpt>
      <trkpt lat="44.02632" lon="6.86952">
        <ele>1285.1999511719</ele>
        <time>2019-08-03T13:07:19.000Z</time>
      </trkpt>
      <trkpt lat="44.02634" lon="6.86947">
        <ele>1284.5999755859</ele>
        <time>2019-08-03T13:07:20.000Z</time>
      </trkpt>
      <trkpt lat="44.02634" lon="6.86943">
        <ele>1284</ele>
        <time>2019-08-03T13:07:21.000Z</time>
      </trkpt>
      <trkpt lat="44.02636" lon="6.86936">
        <ele>1282.8000488281</ele>
        <time>2019-08-03T13:07:23.000Z</time>
      </trkpt>
      <trkpt lat="44.02638" lon="6.86925">
        <ele>1281.5999755859</ele>
        <time>2019-08-03T13:07:25.000Z</time>
      </trkpt>
      <trkpt lat="44.0264" lon="6.86916">
        <ele>1280.1999511719</ele>
        <time>2019-08-03T13:07:27.000Z</time>
      </trkpt>
      <trkpt lat="44.02641" lon="6.86909">
        <ele>1278.8000488281</ele>
        <time>2019-08-03T13:07:29.000Z</time>
      </trkpt>
      <trkpt lat="44.02641" lon="6.86907">
        <ele>1278</ele>
        <time>2019-08-03T13:07:30.000Z</time>
      </trkpt>
      <trkpt lat="44.02642" lon="6.86904">
        <ele>1277.1999511719</ele>
        <time>2019-08-03T13:07:31.000Z</time>
      </trkpt>
      <trkpt lat="44.02646" lon="6.86904">
        <ele>1276</ele>
        <time>2019-08-03T13:07:33.000Z</time>
      </trkpt>
      <trkpt lat="44.02648" lon="6.86892">
        <ele>1275.1999511719</ele>
        <time>2019-08-03T13:07:37.000Z</time>
      </trkpt>
      <trkpt lat="44.02647" lon="6.8689">
        <ele>1275</ele>
        <time>2019-08-03T13:07:38.000Z</time>
      </trkpt>
      <trkpt lat="44.02642" lon="6.86886">
        <ele>1274.1999511719</ele>
        <time>2019-08-03T13:07:41.000Z</time>
      </trkpt>
      <trkpt lat="44.02641" lon="6.86885">
        <ele>1273.8000488281</ele>
        <time>2019-08-03T13:07:42.000Z</time>
      </trkpt>
      <trkpt lat="44.02641" lon="6.86876">
        <ele>1272.4000244141</ele>
        <time>2019-08-03T13:07:45.000Z</time>
      </trkpt>
      <trkpt lat="44.02642" lon="6.86872">
        <ele>1271.8000488281</ele>
        <time>2019-08-03T13:07:46.000Z</time>
      </trkpt>
      <trkpt lat="44.02641" lon="6.8687">
        <ele>1271.1999511719</ele>
        <time>2019-08-03T13:07:48.000Z</time>
      </trkpt>
      <trkpt lat="44.02641" lon="6.8687">
        <ele>1270.5999755859</ele>
        <time>2019-08-03T13:07:49.000Z</time>
      </trkpt>
      <trkpt lat="44.02641" lon="6.8687">
        <ele>1270</ele>
        <time>2019-08-03T13:07:50.000Z</time>
      </trkpt>
      <trkpt lat="44.02641" lon="6.8687">
        <ele>1268.8000488281</ele>
        <time>2019-08-03T13:07:53.000Z</time>
      </trkpt>
      <trkpt lat="44.02642" lon="6.86871">
        <ele>1268.8000488281</ele>
        <time>2019-08-03T13:07:56.000Z</time>
      </trkpt>
      <trkpt lat="44.02641" lon="6.86868">
        <ele>1269.4000244141</ele>
        <time>2019-08-03T13:08:02.000Z</time>
      </trkpt>
      <trkpt lat="44.02639" lon="6.86851">
        <ele>1269.4000244141</ele>
        <time>2019-08-03T13:08:08.000Z</time>
      </trkpt>
      <trkpt lat="44.02637" lon="6.86829">
        <ele>1268.5999755859</ele>
        <time>2019-08-03T13:08:14.000Z</time>
      </trkpt>
      <trkpt lat="44.02641" lon="6.86802">
        <ele>1269</ele>
        <time>2019-08-03T13:08:19.000Z</time>
      </trkpt>
      <trkpt lat="44.02642" lon="6.86797">
        <ele>1268.8000488281</ele>
        <time>2019-08-03T13:08:20.000Z</time>
      </trkpt>
      <trkpt lat="44.02641" lon="6.86783">
        <ele>1267.1999511719</ele>
        <time>2019-08-03T13:08:23.000Z</time>
      </trkpt>
      <trkpt lat="44.02641" lon="6.86778">
        <ele>1266.4000244141</ele>
        <time>2019-08-03T13:08:24.000Z</time>
      </trkpt>
      <trkpt lat="44.0264" lon="6.86774">
        <ele>1265.1999511719</ele>
        <time>2019-08-03T13:08:25.000Z</time>
      </trkpt>
      <trkpt lat="44.02636" lon="6.86768">
        <ele>1263.8000488281</ele>
        <time>2019-08-03T13:08:27.000Z</time>
      </trkpt>
      <trkpt lat="44.02634" lon="6.86765">
        <ele>1263.1999511719</ele>
        <time>2019-08-03T13:08:28.000Z</time>
      </trkpt>
      <trkpt lat="44.0263" lon="6.86745">
        <ele>1262.4000244141</ele>
        <time>2019-08-03T13:08:32.000Z</time>
      </trkpt>
      <trkpt lat="44.02626" lon="6.86733">
        <ele>1261</ele>
        <time>2019-08-03T13:08:35.000Z</time>
      </trkpt>
      <trkpt lat="44.02625" lon="6.86728">
        <ele>1260.5999755859</ele>
        <time>2019-08-03T13:08:36.000Z</time>
      </trkpt>
      <trkpt lat="44.02622" lon="6.86724">
        <ele>1259.5999755859</ele>
        <time>2019-08-03T13:08:39.000Z</time>
      </trkpt>
      <trkpt lat="44.02621" lon="6.86724">
        <ele>1258.8000488281</ele>
        <time>2019-08-03T13:08:43.000Z</time>
      </trkpt>
      <trkpt lat="44.02616" lon="6.86719">
        <ele>1259.1999511719</ele>
        <time>2019-08-03T13:08:50.000Z</time>
      </trkpt>
      <trkpt lat="44.02613" lon="6.86711">
        <ele>1260</ele>
        <time>2019-08-03T13:08:57.000Z</time>
      </trkpt>
      <trkpt lat="44.02612" lon="6.86704">
        <ele>1260.4000244141</ele>
        <time>2019-08-03T13:09:03.000Z</time>
      </trkpt>
      <trkpt lat="44.02612" lon="6.86703">
        <ele>1260.5999755859</ele>
        <time>2019-08-03T13:09:04.000Z</time>
      </trkpt>
      <trkpt lat="44.02611" lon="6.86701">
        <ele>1261.4000244141</ele>
        <time>2019-08-03T13:09:09.000Z</time>
      </trkpt>
      <trkpt lat="44.02607" lon="6.86693">
        <ele>1261.5999755859</ele>
        <time>2019-08-03T13:09:13.000Z</time>
      </trkpt>
      <trkpt lat="44.02599" lon="6.86679">
        <ele>1262.4000244141</ele>
        <time>2019-08-03T13:09:19.000Z</time>
      </trkpt>
      <trkpt lat="44.02598" lon="6.86675">
        <ele>1262.8000488281</ele>
        <time>2019-08-03T13:09:21.000Z</time>
      </trkpt>
      <trkpt lat="44.02593" lon="6.86671">
        <ele>1263.4000244141</ele>
        <time>2019-08-03T13:09:24.000Z</time>
      </trkpt>
      <trkpt lat="44.0259" lon="6.86669">
        <ele>1263.4000244141</ele>
        <time>2019-08-03T13:09:25.000Z</time>
      </trkpt>
      <trkpt lat="44.02588" lon="6.86664">
        <ele>1262.5999755859</ele>
        <time>2019-08-03T13:09:28.000Z</time>
      </trkpt>
      <trkpt lat="44.02588" lon="6.86658">
        <ele>1262.4000244141</ele>
        <time>2019-08-03T13:09:34.000Z</time>
      </trkpt>
      <trkpt lat="44.02584" lon="6.86648">
        <ele>1263.8000488281</ele>
        <time>2019-08-03T13:09:41.000Z</time>
      </trkpt>
      <trkpt lat="44.02573" lon="6.8664">
        <ele>1263.8000488281</ele>
        <time>2019-08-03T13:09:46.000Z</time>
      </trkpt>
      <trkpt lat="44.02572" lon="6.86638">
        <ele>1264</ele>
        <time>2019-08-03T13:09:47.000Z</time>
      </trkpt>
      <trkpt lat="44.02564" lon="6.86627">
        <ele>1265</ele>
        <time>2019-08-03T13:09:54.000Z</time>
      </trkpt>
      <trkpt lat="44.02559" lon="6.86617">
        <ele>1266</ele>
        <time>2019-08-03T13:09:58.000Z</time>
      </trkpt>
      <trkpt lat="44.02557" lon="6.86613">
        <ele>1266</ele>
        <time>2019-08-03T13:10:00.000Z</time>
      </trkpt>
      <trkpt lat="44.02553" lon="6.86608">
        <ele>1266.4000244141</ele>
        <time>2019-08-03T13:10:06.000Z</time>
      </trkpt>
      <trkpt lat="44.02551" lon="6.86604">
        <ele>1267.1999511719</ele>
        <time>2019-08-03T13:10:11.000Z</time>
      </trkpt>
      <trkpt lat="44.0255" lon="6.86603">
        <ele>1267.5999755859</ele>
        <time>2019-08-03T13:10:13.000Z</time>
      </trkpt>
      <trkpt lat="44.02549" lon="6.86601">
        <ele>1268.1999511719</ele>
        <time>2019-08-03T13:10:16.000Z</time>
      </trkpt>
      <trkpt lat="44.02547" lon="6.86595">
        <ele>1268.5999755859</ele>
        <time>2019-08-03T13:10:20.000Z</time>
      </trkpt>
      <trkpt lat="44.02549" lon="6.86583">
        <ele>1268.4000244141</ele>
        <time>2019-08-03T13:10:26.000Z</time>
      </trkpt>
      <trkpt lat="44.02553" lon="6.86569">
        <ele>1269.4000244141</ele>
        <time>2019-08-03T13:10:32.000Z</time>
      </trkpt>
      <trkpt lat="44.02553" lon="6.86567">
        <ele>1270.4000244141</ele>
        <time>2019-08-03T13:10:37.000Z</time>
      </trkpt>
      <trkpt lat="44.02553" lon="6.86564">
        <ele>1271</ele>
        <time>2019-08-03T13:10:40.000Z</time>
      </trkpt>
      <trkpt lat="44.02553" lon="6.86562">
        <ele>1271.1999511719</ele>
        <time>2019-08-03T13:10:43.000Z</time>
      </trkpt>
      <trkpt lat="44.02553" lon="6.86562">
        <ele>1271.4000244141</ele>
        <time>2019-08-03T13:10:45.000Z</time>
      </trkpt>
      <trkpt lat="44.02553" lon="6.86558">
        <ele>1271.5999755859</ele>
        <time>2019-08-03T13:10:48.000Z</time>
      </trkpt>
      <trkpt lat="44.02553" lon="6.86556">
        <ele>1271.8000488281</ele>
        <time>2019-08-03T13:10:49.000Z</time>
      </trkpt>
      <trkpt lat="44.02554" lon="6.86545">
        <ele>1272.1999511719</ele>
        <time>2019-08-03T13:10:53.000Z</time>
      </trkpt>
      <trkpt lat="44.02556" lon="6.86542">
        <ele>1272.1999511719</ele>
        <time>2019-08-03T13:10:55.000Z</time>
      </trkpt>
      <trkpt lat="44.02557" lon="6.86539">
        <ele>1272.5999755859</ele>
        <time>2019-08-03T13:10:57.000Z</time>
      </trkpt>
      <trkpt lat="44.02562" lon="6.86526">
        <ele>1273.5999755859</ele>
        <time>2019-08-03T13:11:04.000Z</time>
      </trkpt>
      <trkpt lat="44.02563" lon="6.86524">
        <ele>1273.5999755859</ele>
        <time>2019-08-03T13:11:05.000Z</time>
      </trkpt>
      <trkpt lat="44.02568" lon="6.86514">
        <ele>1274.1999511719</ele>
        <time>2019-08-03T13:11:11.000Z</time>
      </trkpt>
      <trkpt lat="44.0257" lon="6.86512">
        <ele>1274.4000244141</ele>
        <time>2019-08-03T13:11:13.000Z</time>
      </trkpt>
      <trkpt lat="44.02574" lon="6.86512">
        <ele>1274.5999755859</ele>
        <time>2019-08-03T13:11:16.000Z</time>
      </trkpt>
      <trkpt lat="44.02575" lon="6.86513">
        <ele>1274</ele>
        <time>2019-08-03T13:11:21.000Z</time>
      </trkpt>
      <trkpt lat="44.02575" lon="6.86512">
        <ele>1274.1999511719</ele>
        <time>2019-08-03T13:11:29.000Z</time>
      </trkpt>
      <trkpt lat="44.02575" lon="6.86513">
        <ele>1273.8000488281</ele>
        <time>2019-08-03T13:11:49.000Z</time>
      </trkpt>
      <trkpt lat="44.02575" lon="6.86513">
        <ele>1273.8000488281</ele>
        <time>2019-08-03T13:12:03.000Z</time>
      </trkpt>
      <trkpt lat="44.02576" lon="6.86512">
        <ele>1273.5999755859</ele>
        <time>2019-08-03T13:12:23.000Z</time>
      </trkpt>
      <trkpt lat="44.02579" lon="6.8651">
        <ele>1273.5999755859</ele>
        <time>2019-08-03T13:12:29.000Z</time>
      </trkpt>
      <trkpt lat="44.02592" lon="6.86504">
        <ele>1273</ele>
        <time>2019-08-03T13:12:34.000Z</time>
      </trkpt>
      <trkpt lat="44.02599" lon="6.86501">
        <ele>1272.5999755859</ele>
        <time>2019-08-03T13:12:36.000Z</time>
      </trkpt>
      <trkpt lat="44.02605" lon="6.86497">
        <ele>1271.8000488281</ele>
        <time>2019-08-03T13:12:38.000Z</time>
      </trkpt>
      <trkpt lat="44.0261" lon="6.86496">
        <ele>1270.8000488281</ele>
        <time>2019-08-03T13:12:40.000Z</time>
      </trkpt>
      <trkpt lat="44.02615" lon="6.86497">
        <ele>1269.8000488281</ele>
        <time>2019-08-03T13:12:42.000Z</time>
      </trkpt>
      <trkpt lat="44.02618" lon="6.86499">
        <ele>1269.1999511719</ele>
        <time>2019-08-03T13:12:43.000Z</time>
      </trkpt>
      <trkpt lat="44.0262" lon="6.865">
        <ele>1268.5999755859</ele>
        <time>2019-08-03T13:12:44.000Z</time>
      </trkpt>
      <trkpt lat="44.02625" lon="6.86502">
        <ele>1268.4000244141</ele>
        <time>2019-08-03T13:12:46.000Z</time>
      </trkpt>
      <trkpt lat="44.02635" lon="6.865">
        <ele>1267.5999755859</ele>
        <time>2019-08-03T13:12:49.000Z</time>
      </trkpt>
      <trkpt lat="44.02642" lon="6.865">
        <ele>1266.5999755859</ele>
        <time>2019-08-03T13:12:52.000Z</time>
      </trkpt>
      <trkpt lat="44.02646" lon="6.86503">
        <ele>1265.5999755859</ele>
        <time>2019-08-03T13:12:53.000Z</time>
      </trkpt>
      <trkpt lat="44.0265" lon="6.86505">
        <ele>1265.4000244141</ele>
        <time>2019-08-03T13:12:54.000Z</time>
      </trkpt>
      <trkpt lat="44.02657" lon="6.8651">
        <ele>1264.5999755859</ele>
        <time>2019-08-03T13:12:56.000Z</time>
      </trkpt>
      <trkpt lat="44.02661" lon="6.86513">
        <ele>1264.4000244141</ele>
        <time>2019-08-03T13:12:57.000Z</time>
      </trkpt>
      <trkpt lat="44.02665" lon="6.86514">
        <ele>1263.8000488281</ele>
        <time>2019-08-03T13:12:58.000Z</time>
      </trkpt>
      <trkpt lat="44.02672" lon="6.86518">
        <ele>1263.1999511719</ele>
        <time>2019-08-03T13:13:00.000Z</time>
      </trkpt>
      <trkpt lat="44.02674" lon="6.8652">
        <ele>1262</ele>
        <time>2019-08-03T13:13:01.000Z</time>
      </trkpt>
      <trkpt lat="44.02678" lon="6.86522">
        <ele>1261.8000488281</ele>
        <time>2019-08-03T13:13:03.000Z</time>
      </trkpt>
      <trkpt lat="44.02685" lon="6.86525">
        <ele>1260.8000488281</ele>
        <time>2019-08-03T13:13:06.000Z</time>
      </trkpt>
      <trkpt lat="44.02686" lon="6.86526">
        <ele>1261</ele>
        <time>2019-08-03T13:13:07.000Z</time>
      </trkpt>
      <trkpt lat="44.02689" lon="6.86528">
        <ele>1260.4000244141</ele>
        <time>2019-08-03T13:13:09.000Z</time>
      </trkpt>
      <trkpt lat="44.0269" lon="6.86529">
        <ele>1259.4000244141</ele>
        <time>2019-08-03T13:13:11.000Z</time>
      </trkpt>
      <trkpt lat="44.0269" lon="6.86529">
        <ele>1259.4000244141</ele>
        <time>2019-08-03T13:13:12.000Z</time>
      </trkpt>
      <trkpt lat="44.02694" lon="6.86533">
        <ele>1258.4000244141</ele>
        <time>2019-08-03T13:13:19.000Z</time>
      </trkpt>
      <trkpt lat="44.02698" lon="6.86535">
        <ele>1258.1999511719</ele>
        <time>2019-08-03T13:13:24.000Z</time>
      </trkpt>
      <trkpt lat="44.02704" lon="6.86537">
        <ele>1257.4000244141</ele>
        <time>2019-08-03T13:13:29.000Z</time>
      </trkpt>
      <trkpt lat="44.02706" lon="6.86537">
        <ele>1257.1999511719</ele>
        <time>2019-08-03T13:13:30.000Z</time>
      </trkpt>
      <trkpt lat="44.0271" lon="6.86538">
        <ele>1256.8000488281</ele>
        <time>2019-08-03T13:13:33.000Z</time>
      </trkpt>
      <trkpt lat="44.02713" lon="6.86538">
        <ele>1256.4000244141</ele>
        <time>2019-08-03T13:13:35.000Z</time>
      </trkpt>
      <trkpt lat="44.02715" lon="6.86538">
        <ele>1256</ele>
        <time>2019-08-03T13:13:36.000Z</time>
      </trkpt>
      <trkpt lat="44.0272" lon="6.86541">
        <ele>1255.5999755859</ele>
        <time>2019-08-03T13:13:38.000Z</time>
      </trkpt>
      <trkpt lat="44.02735" lon="6.86559">
        <ele>1254.8000488281</ele>
        <time>2019-08-03T13:13:44.000Z</time>
      </trkpt>
      <trkpt lat="44.02743" lon="6.86575">
        <ele>1253.1999511719</ele>
        <time>2019-08-03T13:13:47.000Z</time>
      </trkpt>
      <trkpt lat="44.02745" lon="6.86581">
        <ele>1252.4000244141</ele>
        <time>2019-08-03T13:13:48.000Z</time>
      </trkpt>
      <trkpt lat="44.02747" lon="6.86585">
        <ele>1251.4000244141</ele>
        <time>2019-08-03T13:13:49.000Z</time>
      </trkpt>
      <trkpt lat="44.0275" lon="6.86589">
        <ele>1250.1999511719</ele>
        <time>2019-08-03T13:13:51.000Z</time>
      </trkpt>
      <trkpt lat="44.02751" lon="6.8659">
        <ele>1250.4000244141</ele>
        <time>2019-08-03T13:13:52.000Z</time>
      </trkpt>
      <trkpt lat="44.02762" lon="6.86595">
        <ele>1250.5999755859</ele>
        <time>2019-08-03T13:13:57.000Z</time>
      </trkpt>
      <trkpt lat="44.02777" lon="6.86601">
        <ele>1248.8000488281</ele>
        <time>2019-08-03T13:14:02.000Z</time>
      </trkpt>
      <trkpt lat="44.02779" lon="6.86601">
        <ele>1248.5999755859</ele>
        <time>2019-08-03T13:14:03.000Z</time>
      </trkpt>
      <trkpt lat="44.02785" lon="6.86601">
        <ele>1247.5999755859</ele>
        <time>2019-08-03T13:14:05.000Z</time>
      </trkpt>
      <trkpt lat="44.02793" lon="6.86602">
        <ele>1247.1999511719</ele>
        <time>2019-08-03T13:14:08.000Z</time>
      </trkpt>
      <trkpt lat="44.02796" lon="6.86604">
        <ele>1246.5999755859</ele>
        <time>2019-08-03T13:14:10.000Z</time>
      </trkpt>
      <trkpt lat="44.02798" lon="6.86607">
        <ele>1245.1999511719</ele>
        <time>2019-08-03T13:14:12.000Z</time>
      </trkpt>
      <trkpt lat="44.028" lon="6.86609">
        <ele>1245</ele>
        <time>2019-08-03T13:14:13.000Z</time>
      </trkpt>
      <trkpt lat="44.02803" lon="6.86612">
        <ele>1244</ele>
        <time>2019-08-03T13:14:15.000Z</time>
      </trkpt>
      <trkpt lat="44.02809" lon="6.86615">
        <ele>1242.8000488281</ele>
        <time>2019-08-03T13:14:18.000Z</time>
      </trkpt>
      <trkpt lat="44.02817" lon="6.86618">
        <ele>1241.5999755859</ele>
        <time>2019-08-03T13:14:22.000Z</time>
      </trkpt>
      <trkpt lat="44.02824" lon="6.86621">
        <ele>1240</ele>
        <time>2019-08-03T13:14:25.000Z</time>
      </trkpt>
      <trkpt lat="44.02829" lon="6.86623">
        <ele>1239</ele>
        <time>2019-08-03T13:14:28.000Z</time>
      </trkpt>
      <trkpt lat="44.02831" lon="6.86622">
        <ele>1238.8000488281</ele>
        <time>2019-08-03T13:14:29.000Z</time>
      </trkpt>
      <trkpt lat="44.02835" lon="6.86621">
        <ele>1238</ele>
        <time>2019-08-03T13:14:32.000Z</time>
      </trkpt>
      <trkpt lat="44.02841" lon="6.86622">
        <ele>1237</ele>
        <time>2019-08-03T13:14:35.000Z</time>
      </trkpt>
      <trkpt lat="44.02842" lon="6.86621">
        <ele>1236.4000244141</ele>
        <time>2019-08-03T13:14:36.000Z</time>
      </trkpt>
      <trkpt lat="44.02846" lon="6.86619">
        <ele>1235</ele>
        <time>2019-08-03T13:14:39.000Z</time>
      </trkpt>
      <trkpt lat="44.02848" lon="6.86619">
        <ele>1234.5999755859</ele>
        <time>2019-08-03T13:14:40.000Z</time>
      </trkpt>
      <trkpt lat="44.02852" lon="6.86616">
        <ele>1233.8000488281</ele>
        <time>2019-08-03T13:14:42.000Z</time>
      </trkpt>
      <trkpt lat="44.02859" lon="6.86613">
        <ele>1233.1999511719</ele>
        <time>2019-08-03T13:14:44.000Z</time>
      </trkpt>
      <trkpt lat="44.02861" lon="6.86612">
        <ele>1232.4000244141</ele>
        <time>2019-08-03T13:14:45.000Z</time>
      </trkpt>
      <trkpt lat="44.02867" lon="6.86614">
        <ele>1231.4000244141</ele>
        <time>2019-08-03T13:14:47.000Z</time>
      </trkpt>
      <trkpt lat="44.0287" lon="6.86617">
        <ele>1230.4000244141</ele>
        <time>2019-08-03T13:14:48.000Z</time>
      </trkpt>
      <trkpt lat="44.02872" lon="6.86621">
        <ele>1229.8000488281</ele>
        <time>2019-08-03T13:14:49.000Z</time>
      </trkpt>
      <trkpt lat="44.02878" lon="6.8663">
        <ele>1228.4000244141</ele>
        <time>2019-08-03T13:14:51.000Z</time>
      </trkpt>
      <trkpt lat="44.02885" lon="6.86638">
        <ele>1227.4000244141</ele>
        <time>2019-08-03T13:14:53.000Z</time>
      </trkpt>
      <trkpt lat="44.02889" lon="6.86642">
        <ele>1226.5999755859</ele>
        <time>2019-08-03T13:14:54.000Z</time>
      </trkpt>
      <trkpt lat="44.02893" lon="6.86644">
        <ele>1226</ele>
        <time>2019-08-03T13:14:55.000Z</time>
      </trkpt>
      <trkpt lat="44.029" lon="6.86643">
        <ele>1224.4000244141</ele>
        <time>2019-08-03T13:14:57.000Z</time>
      </trkpt>
      <trkpt lat="44.02903" lon="6.86638">
        <ele>1223</ele>
        <time>2019-08-03T13:14:58.000Z</time>
      </trkpt>
      <trkpt lat="44.02906" lon="6.86632">
        <ele>1222</ele>
        <time>2019-08-03T13:14:59.000Z</time>
      </trkpt>
      <trkpt lat="44.02909" lon="6.86627">
        <ele>1221.1999511719</ele>
        <time>2019-08-03T13:15:00.000Z</time>
      </trkpt>
      <trkpt lat="44.02912" lon="6.86622">
        <ele>1220.5999755859</ele>
        <time>2019-08-03T13:15:01.000Z</time>
      </trkpt>
      <trkpt lat="44.02921" lon="6.86616">
        <ele>1219.8000488281</ele>
        <time>2019-08-03T13:15:03.000Z</time>
      </trkpt>
      <trkpt lat="44.02927" lon="6.86615">
        <ele>1219.4000244141</ele>
        <time>2019-08-03T13:15:04.000Z</time>
      </trkpt>
      <trkpt lat="44.02937" lon="6.86617">
        <ele>1217.8000488281</ele>
        <time>2019-08-03T13:15:06.000Z</time>
      </trkpt>
      <trkpt lat="44.02942" lon="6.86618">
        <ele>1217.4000244141</ele>
        <time>2019-08-03T13:15:07.000Z</time>
      </trkpt>
      <trkpt lat="44.02947" lon="6.86618">
        <ele>1216.5999755859</ele>
        <time>2019-08-03T13:15:08.000Z</time>
      </trkpt>
      <trkpt lat="44.02952" lon="6.86613">
        <ele>1215</ele>
        <time>2019-08-03T13:15:10.000Z</time>
      </trkpt>
      <trkpt lat="44.02953" lon="6.86609">
        <ele>1214</ele>
        <time>2019-08-03T13:15:11.000Z</time>
      </trkpt>
      <trkpt lat="44.02953" lon="6.866">
        <ele>1212.5999755859</ele>
        <time>2019-08-03T13:15:13.000Z</time>
      </trkpt>
      <trkpt lat="44.02953" lon="6.86596">
        <ele>1212.1999511719</ele>
        <time>2019-08-03T13:15:14.000Z</time>
      </trkpt>
      <trkpt lat="44.02956" lon="6.86573">
        <ele>1213.4000244141</ele>
        <time>2019-08-03T13:15:21.000Z</time>
      </trkpt>
      <trkpt lat="44.02958" lon="6.86571">
        <ele>1213.8000488281</ele>
        <time>2019-08-03T13:15:22.000Z</time>
      </trkpt>
      <trkpt lat="44.02964" lon="6.86561">
        <ele>1214.8000488281</ele>
        <time>2019-08-03T13:15:26.000Z</time>
      </trkpt>
      <trkpt lat="44.02965" lon="6.86559">
        <ele>1214.8000488281</ele>
        <time>2019-08-03T13:15:27.000Z</time>
      </trkpt>
      <trkpt lat="44.02974" lon="6.86546">
        <ele>1216</ele>
        <time>2019-08-03T13:15:33.000Z</time>
      </trkpt>
      <trkpt lat="44.02976" lon="6.86543">
        <ele>1216.4000244141</ele>
        <time>2019-08-03T13:15:34.000Z</time>
      </trkpt>
      <trkpt lat="44.02981" lon="6.86538">
        <ele>1217</ele>
        <time>2019-08-03T13:15:37.000Z</time>
      </trkpt>
      <trkpt lat="44.02988" lon="6.86532">
        <ele>1218.1999511719</ele>
        <time>2019-08-03T13:15:41.000Z</time>
      </trkpt>
      <trkpt lat="44.02991" lon="6.8653">
        <ele>1218.8000488281</ele>
        <time>2019-08-03T13:15:43.000Z</time>
      </trkpt>
      <trkpt lat="44.02995" lon="6.86525">
        <ele>1219.4000244141</ele>
        <time>2019-08-03T13:15:46.000Z</time>
      </trkpt>
      <trkpt lat="44.02997" lon="6.8652">
        <ele>1219.8000488281</ele>
        <time>2019-08-03T13:15:48.000Z</time>
      </trkpt>
      <trkpt lat="44.03" lon="6.86505">
        <ele>1220.4000244141</ele>
        <time>2019-08-03T13:15:53.000Z</time>
      </trkpt>
      <trkpt lat="44.03" lon="6.86502">
        <ele>1220.8000488281</ele>
        <time>2019-08-03T13:15:54.000Z</time>
      </trkpt>
      <trkpt lat="44.03001" lon="6.86495">
        <ele>1221.5999755859</ele>
        <time>2019-08-03T13:15:57.000Z</time>
      </trkpt>
      <trkpt lat="44.03003" lon="6.86486">
        <ele>1222.5999755859</ele>
        <time>2019-08-03T13:16:01.000Z</time>
      </trkpt>
      <trkpt lat="44.03004" lon="6.86484">
        <ele>1222.8000488281</ele>
        <time>2019-08-03T13:16:02.000Z</time>
      </trkpt>
      <trkpt lat="44.03007" lon="6.86466">
        <ele>1223.1999511719</ele>
        <time>2019-08-03T13:16:07.000Z</time>
      </trkpt>
      <trkpt lat="44.03008" lon="6.86449">
        <ele>1223.8000488281</ele>
        <time>2019-08-03T13:16:13.000Z</time>
      </trkpt>
      <trkpt lat="44.03008" lon="6.86446">
        <ele>1224.1999511719</ele>
        <time>2019-08-03T13:16:14.000Z</time>
      </trkpt>
      <trkpt lat="44.03008" lon="6.86436">
        <ele>1225</ele>
        <time>2019-08-03T13:16:19.000Z</time>
      </trkpt>
      <trkpt lat="44.03008" lon="6.8643">
        <ele>1225.1999511719</ele>
        <time>2019-08-03T13:16:22.000Z</time>
      </trkpt>
      <trkpt lat="44.03008" lon="6.8642">
        <ele>1226</ele>
        <time>2019-08-03T13:16:26.000Z</time>
      </trkpt>
      <trkpt lat="44.03009" lon="6.86413">
        <ele>1226.4000244141</ele>
        <time>2019-08-03T13:16:29.000Z</time>
      </trkpt>
      <trkpt lat="44.03014" lon="6.86394">
        <ele>1227</ele>
        <time>2019-08-03T13:16:37.000Z</time>
      </trkpt>
      <trkpt lat="44.03015" lon="6.86392">
        <ele>1227</ele>
        <time>2019-08-03T13:16:38.000Z</time>
      </trkpt>
      <trkpt lat="44.03027" lon="6.86381">
        <ele>1228</ele>
        <time>2019-08-03T13:16:46.000Z</time>
      </trkpt>
      <trkpt lat="44.03041" lon="6.8638">
        <ele>1229</ele>
        <time>2019-08-03T13:16:54.000Z</time>
      </trkpt>
      <trkpt lat="44.03043" lon="6.86381">
        <ele>1229</ele>
        <time>2019-08-03T13:16:55.000Z</time>
      </trkpt>
      <trkpt lat="44.03052" lon="6.86383">
        <ele>1230.4000244141</ele>
        <time>2019-08-03T13:17:01.000Z</time>
      </trkpt>
      <trkpt lat="44.03054" lon="6.86383">
        <ele>1230.5999755859</ele>
        <time>2019-08-03T13:17:02.000Z</time>
      </trkpt>
      <trkpt lat="44.03058" lon="6.86385">
        <ele>1231.5999755859</ele>
        <time>2019-08-03T13:17:04.000Z</time>
      </trkpt>
      <trkpt lat="44.03062" lon="6.86388">
        <ele>1232.5999755859</ele>
        <time>2019-08-03T13:17:08.000Z</time>
      </trkpt>
      <trkpt lat="44.03063" lon="6.86389">
        <ele>1232.8000488281</ele>
        <time>2019-08-03T13:17:09.000Z</time>
      </trkpt>
      <trkpt lat="44.03071" lon="6.86392">
        <ele>1233.5999755859</ele>
        <time>2019-08-03T13:17:14.000Z</time>
      </trkpt>
      <trkpt lat="44.03073" lon="6.86393">
        <ele>1233.5999755859</ele>
        <time>2019-08-03T13:17:15.000Z</time>
      </trkpt>
      <trkpt lat="44.0309" lon="6.86401">
        <ele>1233.8000488281</ele>
        <time>2019-08-03T13:17:20.000Z</time>
      </trkpt>
      <trkpt lat="44.03104" lon="6.86409">
        <ele>1233.1999511719</ele>
        <time>2019-08-03T13:17:25.000Z</time>
      </trkpt>
      <trkpt lat="44.03115" lon="6.86409">
        <ele>1234.5999755859</ele>
        <time>2019-08-03T13:17:31.000Z</time>
      </trkpt>
      <trkpt lat="44.03118" lon="6.86409">
        <ele>1234.8000488281</ele>
        <time>2019-08-03T13:17:32.000Z</time>
      </trkpt>
      <trkpt lat="44.03127" lon="6.86401">
        <ele>1235.5999755859</ele>
        <time>2019-08-03T13:17:37.000Z</time>
      </trkpt>
      <trkpt lat="44.0313" lon="6.86398">
        <ele>1235.5999755859</ele>
        <time>2019-08-03T13:17:38.000Z</time>
      </trkpt>
      <trkpt lat="44.03144" lon="6.86385">
        <ele>1235.4000244141</ele>
        <time>2019-08-03T13:17:42.000Z</time>
      </trkpt>
      <trkpt lat="44.03148" lon="6.86383">
        <ele>1235.1999511719</ele>
        <time>2019-08-03T13:17:43.000Z</time>
      </trkpt>
      <trkpt lat="44.03158" lon="6.86384">
        <ele>1235</ele>
        <time>2019-08-03T13:17:46.000Z</time>
      </trkpt>
      <trkpt lat="44.0316" lon="6.86384">
        <ele>1235</ele>
        <time>2019-08-03T13:17:47.000Z</time>
      </trkpt>
      <trkpt lat="44.03171" lon="6.86384">
        <ele>1236</ele>
        <time>2019-08-03T13:17:52.000Z</time>
      </trkpt>
      <trkpt lat="44.03177" lon="6.86381">
        <ele>1237</ele>
        <time>2019-08-03T13:17:55.000Z</time>
      </trkpt>
      <trkpt lat="44.03181" lon="6.86375">
        <ele>1237.8000488281</ele>
        <time>2019-08-03T13:17:58.000Z</time>
      </trkpt>
      <trkpt lat="44.03183" lon="6.86372">
        <ele>1238</ele>
        <time>2019-08-03T13:17:59.000Z</time>
      </trkpt>
      <trkpt lat="44.03194" lon="6.86356">
        <ele>1239.1999511719</ele>
        <time>2019-08-03T13:18:06.000Z</time>
      </trkpt>
      <trkpt lat="44.03196" lon="6.86355">
        <ele>1239.1999511719</ele>
        <time>2019-08-03T13:18:07.000Z</time>
      </trkpt>
      <trkpt lat="44.03202" lon="6.86349">
        <ele>1240.1999511719</ele>
        <time>2019-08-03T13:18:11.000Z</time>
      </trkpt>
      <trkpt lat="44.03207" lon="6.86344">
        <ele>1241</ele>
        <time>2019-08-03T13:18:14.000Z</time>
      </trkpt>
      <trkpt lat="44.03209" lon="6.86342">
        <ele>1241.4000244141</ele>
        <time>2019-08-03T13:18:15.000Z</time>
      </trkpt>
      <trkpt lat="44.03221" lon="6.86332">
        <ele>1242.4000244141</ele>
        <time>2019-08-03T13:18:22.000Z</time>
      </trkpt>
      <trkpt lat="44.0323" lon="6.86327">
        <ele>1243.4000244141</ele>
        <time>2019-08-03T13:18:27.000Z</time>
      </trkpt>
      <trkpt lat="44.03235" lon="6.86324">
        <ele>1244.8000488281</ele>
        <time>2019-08-03T13:18:30.000Z</time>
      </trkpt>
      <trkpt lat="44.03238" lon="6.86322">
        <ele>1245.4000244141</ele>
        <time>2019-08-03T13:18:32.000Z</time>
      </trkpt>
      <trkpt lat="44.0324" lon="6.86321">
        <ele>1245.8000488281</ele>
        <time>2019-08-03T13:18:33.000Z</time>
      </trkpt>
      <trkpt lat="44.03247" lon="6.86318">
        <ele>1246.8000488281</ele>
        <time>2019-08-03T13:18:37.000Z</time>
      </trkpt>
      <trkpt lat="44.03251" lon="6.86317">
        <ele>1247</ele>
        <time>2019-08-03T13:18:39.000Z</time>
      </trkpt>
      <trkpt lat="44.03266" lon="6.86316">
        <ele>1247.5999755859</ele>
        <time>2019-08-03T13:18:47.000Z</time>
      </trkpt>
      <trkpt lat="44.03268" lon="6.86317">
        <ele>1247.8000488281</ele>
        <time>2019-08-03T13:18:48.000Z</time>
      </trkpt>
      <trkpt lat="44.03279" lon="6.86318">
        <ele>1248.4000244141</ele>
        <time>2019-08-03T13:18:54.000Z</time>
      </trkpt>
      <trkpt lat="44.0329" lon="6.86319">
        <ele>1248.8000488281</ele>
        <time>2019-08-03T13:19:00.000Z</time>
      </trkpt>
      <trkpt lat="44.03299" lon="6.8632">
        <ele>1249.8000488281</ele>
        <time>2019-08-03T13:19:05.000Z</time>
      </trkpt>
      <trkpt lat="44.03306" lon="6.86321">
        <ele>1250</ele>
        <time>2019-08-03T13:19:09.000Z</time>
      </trkpt>
      <trkpt lat="44.0332" lon="6.86321">
        <ele>1250.8000488281</ele>
        <time>2019-08-03T13:19:16.000Z</time>
      </trkpt>
      <trkpt lat="44.03322" lon="6.86322">
        <ele>1251</ele>
        <time>2019-08-03T13:19:17.000Z</time>
      </trkpt>
      <trkpt lat="44.03334" lon="6.86322">
        <ele>1252.4000244141</ele>
        <time>2019-08-03T13:19:23.000Z</time>
      </trkpt>
      <trkpt lat="44.03339" lon="6.86324">
        <ele>1253.4000244141</ele>
        <time>2019-08-03T13:19:26.000Z</time>
      </trkpt>
      <trkpt lat="44.03341" lon="6.86324">
        <ele>1253.5999755859</ele>
        <time>2019-08-03T13:19:27.000Z</time>
      </trkpt>
      <trkpt lat="44.03346" lon="6.86327">
        <ele>1254.5999755859</ele>
        <time>2019-08-03T13:19:30.000Z</time>
      </trkpt>
      <trkpt lat="44.03353" lon="6.86331">
        <ele>1255.1999511719</ele>
        <time>2019-08-03T13:19:34.000Z</time>
      </trkpt>
      <trkpt lat="44.03366" lon="6.86336">
        <ele>1255.8000488281</ele>
        <time>2019-08-03T13:19:40.000Z</time>
      </trkpt>
      <trkpt lat="44.03371" lon="6.86339">
        <ele>1255.8000488281</ele>
        <time>2019-08-03T13:19:42.000Z</time>
      </trkpt>
      <trkpt lat="44.03383" lon="6.86339">
        <ele>1256.1999511719</ele>
        <time>2019-08-03T13:19:48.000Z</time>
      </trkpt>
      <trkpt lat="44.0339" lon="6.86341">
        <ele>1256.8000488281</ele>
        <time>2019-08-03T13:19:51.000Z</time>
      </trkpt>
      <trkpt lat="44.03398" lon="6.86341">
        <ele>1257.4000244141</ele>
        <time>2019-08-03T13:19:55.000Z</time>
      </trkpt>
      <trkpt lat="44.03407" lon="6.86345">
        <ele>1257.8000488281</ele>
        <time>2019-08-03T13:19:59.000Z</time>
      </trkpt>
      <trkpt lat="44.03414" lon="6.86348">
        <ele>1258.1999511719</ele>
        <time>2019-08-03T13:20:02.000Z</time>
      </trkpt>
      <trkpt lat="44.03428" lon="6.86352">
        <ele>1258.8000488281</ele>
        <time>2019-08-03T13:20:08.000Z</time>
      </trkpt>
      <trkpt lat="44.03437" lon="6.86359">
        <ele>1260</ele>
        <time>2019-08-03T13:20:13.000Z</time>
      </trkpt>
      <trkpt lat="44.0344" lon="6.86362">
        <ele>1260.4000244141</ele>
        <time>2019-08-03T13:20:15.000Z</time>
      </trkpt>
      <trkpt lat="44.03445" lon="6.86366">
        <ele>1261.1999511719</ele>
        <time>2019-08-03T13:20:18.000Z</time>
      </trkpt>
      <trkpt lat="44.0345" lon="6.86369">
        <ele>1261.4000244141</ele>
        <time>2019-08-03T13:20:21.000Z</time>
      </trkpt>
      <trkpt lat="44.03459" lon="6.86374">
        <ele>1262.4000244141</ele>
        <time>2019-08-03T13:20:26.000Z</time>
      </trkpt>
      <trkpt lat="44.03461" lon="6.86375">
        <ele>1262.5999755859</ele>
        <time>2019-08-03T13:20:27.000Z</time>
      </trkpt>
      <trkpt lat="44.03473" lon="6.86381">
        <ele>1263.5999755859</ele>
        <time>2019-08-03T13:20:33.000Z</time>
      </trkpt>
      <trkpt lat="44.03477" lon="6.86383">
        <ele>1264.4000244141</ele>
        <time>2019-08-03T13:20:35.000Z</time>
      </trkpt>
      <trkpt lat="44.03479" lon="6.86384">
        <ele>1264.8000488281</ele>
        <time>2019-08-03T13:20:36.000Z</time>
      </trkpt>
      <trkpt lat="44.03488" lon="6.86386">
        <ele>1265.8000488281</ele>
        <time>2019-08-03T13:20:41.000Z</time>
      </trkpt>
      <trkpt lat="44.0349" lon="6.86386">
        <ele>1265.8000488281</ele>
        <time>2019-08-03T13:20:42.000Z</time>
      </trkpt>
      <trkpt lat="44.03499" lon="6.8638">
        <ele>1266.8000488281</ele>
        <time>2019-08-03T13:20:47.000Z</time>
      </trkpt>
      <trkpt lat="44.03501" lon="6.86378">
        <ele>1267</ele>
        <time>2019-08-03T13:20:48.000Z</time>
      </trkpt>
      <trkpt lat="44.03515" lon="6.86364">
        <ele>1267.4000244141</ele>
        <time>2019-08-03T13:20:54.000Z</time>
      </trkpt>
      <trkpt lat="44.03527" lon="6.86346">
        <ele>1266.5999755859</ele>
        <time>2019-08-03T13:20:59.000Z</time>
      </trkpt>
      <trkpt lat="44.03534" lon="6.86336">
        <ele>1266.5999755859</ele>
        <time>2019-08-03T13:21:01.000Z</time>
      </trkpt>
      <trkpt lat="44.03543" lon="6.86325">
        <ele>1265.5999755859</ele>
        <time>2019-08-03T13:21:03.000Z</time>
      </trkpt>
      <trkpt lat="44.03552" lon="6.86316">
        <ele>1264.8000488281</ele>
        <time>2019-08-03T13:21:05.000Z</time>
      </trkpt>
      <trkpt lat="44.03556" lon="6.86313">
        <ele>1264.1999511719</ele>
        <time>2019-08-03T13:21:06.000Z</time>
      </trkpt>
      <trkpt lat="44.03565" lon="6.86309">
        <ele>1264</ele>
        <time>2019-08-03T13:21:08.000Z</time>
      </trkpt>
      <trkpt lat="44.03576" lon="6.86305">
        <ele>1264.1999511719</ele>
        <time>2019-08-03T13:21:12.000Z</time>
      </trkpt>
      <trkpt lat="44.03583" lon="6.86304">
        <ele>1265.1999511719</ele>
        <time>2019-08-03T13:21:16.000Z</time>
      </trkpt>
      <trkpt lat="44.03586" lon="6.86302">
        <ele>1265.8000488281</ele>
        <time>2019-08-03T13:21:18.000Z</time>
      </trkpt>
      <trkpt lat="44.03589" lon="6.86301">
        <ele>1266.5999755859</ele>
        <time>2019-08-03T13:21:20.000Z</time>
      </trkpt>
      <trkpt lat="44.03595" lon="6.86301">
        <ele>1267.5999755859</ele>
        <time>2019-08-03T13:21:24.000Z</time>
      </trkpt>
      <trkpt lat="44.03601" lon="6.86298">
        <ele>1268.8000488281</ele>
        <time>2019-08-03T13:21:29.000Z</time>
      </trkpt>
      <trkpt lat="44.03604" lon="6.86297">
        <ele>1269.1999511719</ele>
        <time>2019-08-03T13:21:31.000Z</time>
      </trkpt>
      <trkpt lat="44.03608" lon="6.86296">
        <ele>1270</ele>
        <time>2019-08-03T13:21:34.000Z</time>
      </trkpt>
      <trkpt lat="44.03613" lon="6.86296">
        <ele>1271</ele>
        <time>2019-08-03T13:21:37.000Z</time>
      </trkpt>
      <trkpt lat="44.03615" lon="6.86297">
        <ele>1271.5999755859</ele>
        <time>2019-08-03T13:21:39.000Z</time>
      </trkpt>
      <trkpt lat="44.03616" lon="6.86297">
        <ele>1272.1999511719</ele>
        <time>2019-08-03T13:21:40.000Z</time>
      </trkpt>
      <trkpt lat="44.03619" lon="6.86298">
        <ele>1273.4000244141</ele>
        <time>2019-08-03T13:21:43.000Z</time>
      </trkpt>
      <trkpt lat="44.03622" lon="6.86298">
        <ele>1274.1999511719</ele>
        <time>2019-08-03T13:21:45.000Z</time>
      </trkpt>
      <trkpt lat="44.03624" lon="6.86299">
        <ele>1274.5999755859</ele>
        <time>2019-08-03T13:21:47.000Z</time>
      </trkpt>
      <trkpt lat="44.03631" lon="6.863">
        <ele>1275</ele>
        <time>2019-08-03T13:21:51.000Z</time>
      </trkpt>
      <trkpt lat="44.03634" lon="6.86301">
        <ele>1275.1999511719</ele>
        <time>2019-08-03T13:21:53.000Z</time>
      </trkpt>
      <trkpt lat="44.03638" lon="6.86301">
        <ele>1275.8000488281</ele>
        <time>2019-08-03T13:21:56.000Z</time>
      </trkpt>
      <trkpt lat="44.03642" lon="6.863">
        <ele>1276.1999511719</ele>
        <time>2019-08-03T13:21:58.000Z</time>
      </trkpt>
      <trkpt lat="44.03649" lon="6.8629">
        <ele>1276.4000244141</ele>
        <time>2019-08-03T13:22:01.000Z</time>
      </trkpt>
      <trkpt lat="44.03653" lon="6.86259">
        <ele>1275.4000244141</ele>
        <time>2019-08-03T13:22:05.000Z</time>
      </trkpt>
      <trkpt lat="44.03655" lon="6.86251">
        <ele>1274.5999755859</ele>
        <time>2019-08-03T13:22:06.000Z</time>
      </trkpt>
      <trkpt lat="44.0366" lon="6.86234">
        <ele>1273.5999755859</ele>
        <time>2019-08-03T13:22:08.000Z</time>
      </trkpt>
      <trkpt lat="44.03662" lon="6.86228">
        <ele>1273</ele>
        <time>2019-08-03T13:22:09.000Z</time>
      </trkpt>
      <trkpt lat="44.0367" lon="6.8621">
        <ele>1272.8000488281</ele>
        <time>2019-08-03T13:22:13.000Z</time>
      </trkpt>
      <trkpt lat="44.03676" lon="6.86193">
        <ele>1274.8000488281</ele>
        <time>2019-08-03T13:22:18.000Z</time>
      </trkpt>
      <trkpt lat="44.03678" lon="6.86187">
        <ele>1275.1999511719</ele>
        <time>2019-08-03T13:22:20.000Z</time>
      </trkpt>
      <trkpt lat="44.03683" lon="6.86175">
        <ele>1275.8000488281</ele>
        <time>2019-08-03T13:22:24.000Z</time>
      </trkpt>
      <trkpt lat="44.03686" lon="6.86163">
        <ele>1276.8000488281</ele>
        <time>2019-08-03T13:22:28.000Z</time>
      </trkpt>
      <trkpt lat="44.03687" lon="6.8616">
        <ele>1277.1999511719</ele>
        <time>2019-08-03T13:22:29.000Z</time>
      </trkpt>
      <trkpt lat="44.03689" lon="6.86154">
        <ele>1277.8000488281</ele>
        <time>2019-08-03T13:22:31.000Z</time>
      </trkpt>
      <trkpt lat="44.03694" lon="6.8614">
        <ele>1279</ele>
        <time>2019-08-03T13:22:37.000Z</time>
      </trkpt>
      <trkpt lat="44.037" lon="6.86118">
        <ele>1280</ele>
        <time>2019-08-03T13:22:45.000Z</time>
      </trkpt>
      <trkpt lat="44.037" lon="6.86115">
        <ele>1280.1999511719</ele>
        <time>2019-08-03T13:22:46.000Z</time>
      </trkpt>
      <trkpt lat="44.03703" lon="6.86104">
        <ele>1281.1999511719</ele>
        <time>2019-08-03T13:22:50.000Z</time>
      </trkpt>
      <trkpt lat="44.03707" lon="6.86086">
        <ele>1282</ele>
        <time>2019-08-03T13:22:56.000Z</time>
      </trkpt>
      <trkpt lat="44.03709" lon="6.86079">
        <ele>1282.4000244141</ele>
        <time>2019-08-03T13:22:59.000Z</time>
      </trkpt>
      <trkpt lat="44.03712" lon="6.86067">
        <ele>1283.5999755859</ele>
        <time>2019-08-03T13:23:04.000Z</time>
      </trkpt>
      <trkpt lat="44.03714" lon="6.8606">
        <ele>1284.8000488281</ele>
        <time>2019-08-03T13:23:07.000Z</time>
      </trkpt>
      <trkpt lat="44.03719" lon="6.86045">
        <ele>1285.8000488281</ele>
        <time>2019-08-03T13:23:13.000Z</time>
      </trkpt>
      <trkpt lat="44.03723" lon="6.86029">
        <ele>1286.8000488281</ele>
        <time>2019-08-03T13:23:18.000Z</time>
      </trkpt>
      <trkpt lat="44.03724" lon="6.86022">
        <ele>1287.5999755859</ele>
        <time>2019-08-03T13:23:20.000Z</time>
      </trkpt>
      <trkpt lat="44.03725" lon="6.86019">
        <ele>1288</ele>
        <time>2019-08-03T13:23:21.000Z</time>
      </trkpt>
      <trkpt lat="44.03727" lon="6.86005">
        <ele>1289.1999511719</ele>
        <time>2019-08-03T13:23:25.000Z</time>
      </trkpt>
      <trkpt lat="44.03728" lon="6.85989">
        <ele>1289.5999755859</ele>
        <time>2019-08-03T13:23:29.000Z</time>
      </trkpt>
      <trkpt lat="44.03731" lon="6.85953">
        <ele>1289.5999755859</ele>
        <time>2019-08-03T13:23:35.000Z</time>
      </trkpt>
      <trkpt lat="44.03736" lon="6.8593">
        <ele>1288</ele>
        <time>2019-08-03T13:23:38.000Z</time>
      </trkpt>
      <trkpt lat="44.03738" lon="6.85922">
        <ele>1287.1999511719</ele>
        <time>2019-08-03T13:23:39.000Z</time>
      </trkpt>
      <trkpt lat="44.03742" lon="6.85916">
        <ele>1286.5999755859</ele>
        <time>2019-08-03T13:23:40.000Z</time>
      </trkpt>
      <trkpt lat="44.03756" lon="6.859">
        <ele>1285.4000244141</ele>
        <time>2019-08-03T13:23:43.000Z</time>
      </trkpt>
      <trkpt lat="44.03762" lon="6.85897">
        <ele>1285.5999755859</ele>
        <time>2019-08-03T13:23:44.000Z</time>
      </trkpt>
      <trkpt lat="44.03774" lon="6.85893">
        <ele>1285.1999511719</ele>
        <time>2019-08-03T13:23:46.000Z</time>
      </trkpt>
      <trkpt lat="44.03793" lon="6.85889">
        <ele>1285</ele>
        <time>2019-08-03T13:23:49.000Z</time>
      </trkpt>
      <trkpt lat="44.03809" lon="6.85885">
        <ele>1284.4000244141</ele>
        <time>2019-08-03T13:23:52.000Z</time>
      </trkpt>
      <trkpt lat="44.0382" lon="6.85884">
        <ele>1284.1999511719</ele>
        <time>2019-08-03T13:23:54.000Z</time>
      </trkpt>
      <trkpt lat="44.03825" lon="6.85884">
        <ele>1284</ele>
        <time>2019-08-03T13:23:55.000Z</time>
      </trkpt>
      <trkpt lat="44.03835" lon="6.85885">
        <ele>1284.1999511719</ele>
        <time>2019-08-03T13:23:57.000Z</time>
      </trkpt>
      <trkpt lat="44.0385" lon="6.8588">
        <ele>1284.1999511719</ele>
        <time>2019-08-03T13:24:00.000Z</time>
      </trkpt>
      <trkpt lat="44.03865" lon="6.85875">
        <ele>1283.8000488281</ele>
        <time>2019-08-03T13:24:03.000Z</time>
      </trkpt>
      <trkpt lat="44.0387" lon="6.85874">
        <ele>1283.5999755859</ele>
        <time>2019-08-03T13:24:04.000Z</time>
      </trkpt>
      <trkpt lat="44.03886" lon="6.85867">
        <ele>1283.1999511719</ele>
        <time>2019-08-03T13:24:07.000Z</time>
      </trkpt>
      <trkpt lat="44.03919" lon="6.85846">
        <ele>1282</ele>
        <time>2019-08-03T13:24:12.000Z</time>
      </trkpt>
      <trkpt lat="44.03934" lon="6.85838">
        <ele>1280.8000488281</ele>
        <time>2019-08-03T13:24:14.000Z</time>
      </trkpt>
      <trkpt lat="44.03941" lon="6.85835">
        <ele>1279.8000488281</ele>
        <time>2019-08-03T13:24:15.000Z</time>
      </trkpt>
      <trkpt lat="44.03947" lon="6.85833">
        <ele>1278.8000488281</ele>
        <time>2019-08-03T13:24:16.000Z</time>
      </trkpt>
      <trkpt lat="44.03955" lon="6.85832">
        <ele>1278.4000244141</ele>
        <time>2019-08-03T13:24:17.000Z</time>
      </trkpt>
      <trkpt lat="44.03968" lon="6.8583">
        <ele>1277.5999755859</ele>
        <time>2019-08-03T13:24:19.000Z</time>
      </trkpt>
      <trkpt lat="44.03979" lon="6.85826">
        <ele>1277.5999755859</ele>
        <time>2019-08-03T13:24:21.000Z</time>
      </trkpt>
      <trkpt lat="44.04006" lon="6.85814">
        <ele>1279.1999511719</ele>
        <time>2019-08-03T13:24:27.000Z</time>
      </trkpt>
      <trkpt lat="44.04013" lon="6.8581">
        <ele>1279.5999755859</ele>
        <time>2019-08-03T13:24:29.000Z</time>
      </trkpt>
      <trkpt lat="44.04021" lon="6.85806">
        <ele>1280.1999511719</ele>
        <time>2019-08-03T13:24:32.000Z</time>
      </trkpt>
      <trkpt lat="44.04036" lon="6.85803">
        <ele>1280.5999755859</ele>
        <time>2019-08-03T13:24:37.000Z</time>
      </trkpt>
      <trkpt lat="44.04054" lon="6.85799">
        <ele>1281.5999755859</ele>
        <time>2019-08-03T13:24:43.000Z</time>
      </trkpt>
      <trkpt lat="44.04059" lon="6.85798">
        <ele>1282.1999511719</ele>
        <time>2019-08-03T13:24:47.000Z</time>
      </trkpt>
      <trkpt lat="44.04059" lon="6.85798">
        <ele>1282.4000244141</ele>
        <time>2019-08-03T13:24:54.000Z</time>
      </trkpt>
      <trkpt lat="44.0406" lon="6.85798">
        <ele>1282.5999755859</ele>
        <time>2019-08-03T13:25:05.000Z</time>
      </trkpt>
      <trkpt lat="44.0406" lon="6.85797">
        <ele>1281.8000488281</ele>
        <time>2019-08-03T13:25:17.000Z</time>
      </trkpt>
      <trkpt lat="44.0406" lon="6.85798">
        <ele>1278</ele>
        <time>2019-08-03T13:25:21.000Z</time>
      </trkpt>
      <trkpt lat="44.0406" lon="6.85798">
        <ele>1274</ele>
        <time>2019-08-03T13:25:22.000Z</time>
      </trkpt>
      <trkpt lat="44.0406" lon="6.85798">
        <ele>1269.5999755859</ele>
        <time>2019-08-03T13:25:23.000Z</time>
      </trkpt>
      <trkpt lat="44.0406" lon="6.85798">
        <ele>1264.4000244141</ele>
        <time>2019-08-03T13:25:24.000Z</time>
      </trkpt>
      <trkpt lat="44.04061" lon="6.85798">
        <ele>1260.5999755859</ele>
        <time>2019-08-03T13:25:25.000Z</time>
      </trkpt>
      <trkpt lat="44.04061" lon="6.85799">
        <ele>1258.5999755859</ele>
        <time>2019-08-03T13:25:26.000Z</time>
      </trkpt>
      <trkpt lat="44.04061" lon="6.85799">
        <ele>1257.1999511719</ele>
        <time>2019-08-03T13:25:27.000Z</time>
      </trkpt>
      <trkpt lat="44.04061" lon="6.85799">
        <ele>1254.4000244141</ele>
        <time>2019-08-03T13:25:29.000Z</time>
      </trkpt>
      <trkpt lat="44.04061" lon="6.858">
        <ele>1252.5999755859</ele>
        <time>2019-08-03T13:25:30.000Z</time>
      </trkpt>
      <trkpt lat="44.04061" lon="6.858">
        <ele>1251</ele>
        <time>2019-08-03T13:25:31.000Z</time>
      </trkpt>
      <trkpt lat="44.04061" lon="6.858">
        <ele>1249.4000244141</ele>
        <time>2019-08-03T13:25:32.000Z</time>
      </trkpt>
      <trkpt lat="44.04061" lon="6.858">
        <ele>1247.4000244141</ele>
        <time>2019-08-03T13:25:33.000Z</time>
      </trkpt>
      <trkpt lat="44.04062" lon="6.85801">
        <ele>1248.8000488281</ele>
        <time>2019-08-03T13:25:36.000Z</time>
      </trkpt>
      <trkpt lat="44.04062" lon="6.85801">
        <ele>1250</ele>
        <time>2019-08-03T13:25:37.000Z</time>
      </trkpt>
      <trkpt lat="44.04062" lon="6.85801">
        <ele>1251.8000488281</ele>
        <time>2019-08-03T13:25:38.000Z</time>
      </trkpt>
      <trkpt lat="44.04063" lon="6.85802">
        <ele>1250.8000488281</ele>
        <time>2019-08-03T13:25:41.000Z</time>
      </trkpt>
      <trkpt lat="44.04063" lon="6.85801">
        <ele>1249.4000244141</ele>
        <time>2019-08-03T13:25:49.000Z</time>
      </trkpt>
      <trkpt lat="44.04064" lon="6.858">
        <ele>1250.5999755859</ele>
        <time>2019-08-03T13:25:52.000Z</time>
      </trkpt>
      <trkpt lat="44.04064" lon="6.858">
        <ele>1251.1999511719</ele>
        <time>2019-08-03T13:25:53.000Z</time>
      </trkpt>
      <trkpt lat="44.04064" lon="6.85797">
        <ele>1251.8000488281</ele>
        <time>2019-08-03T13:25:59.000Z</time>
      </trkpt>
      <trkpt lat="44.04065" lon="6.85797">
        <ele>1252.1999511719</ele>
        <time>2019-08-03T13:26:08.000Z</time>
      </trkpt>
      <trkpt lat="44.04064" lon="6.85796">
        <ele>1252.8000488281</ele>
        <time>2019-08-03T13:26:13.000Z</time>
      </trkpt>
      <trkpt lat="44.04064" lon="6.85798">
        <ele>1253</ele>
        <time>2019-08-03T13:26:19.000Z</time>
      </trkpt>
      <trkpt lat="44.04065" lon="6.85798">
        <ele>1252.4000244141</ele>
        <time>2019-08-03T13:26:26.000Z</time>
      </trkpt>
      <trkpt lat="44.04065" lon="6.85799">
        <ele>1252</ele>
        <time>2019-08-03T13:26:35.000Z</time>
      </trkpt>
      <trkpt lat="44.04069" lon="6.85797">
        <ele>1252.5999755859</ele>
        <time>2019-08-03T13:26:42.000Z</time>
      </trkpt>
      <trkpt lat="44.04083" lon="6.85792">
        <ele>1253.4000244141</ele>
        <time>2019-08-03T13:26:46.000Z</time>
      </trkpt>
      <trkpt lat="44.04093" lon="6.85788">
        <ele>1253.1999511719</ele>
        <time>2019-08-03T13:26:50.000Z</time>
      </trkpt>
      <trkpt lat="44.04103" lon="6.85784">
        <ele>1253.5999755859</ele>
        <time>2019-08-03T13:26:54.000Z</time>
      </trkpt>
      <trkpt lat="44.0411" lon="6.85782">
        <ele>1254</ele>
        <time>2019-08-03T13:26:56.000Z</time>
      </trkpt>
      <trkpt lat="44.04119" lon="6.85782">
        <ele>1254.1999511719</ele>
        <time>2019-08-03T13:26:58.000Z</time>
      </trkpt>
      <trkpt lat="44.04131" lon="6.85791">
        <ele>1253.1999511719</ele>
        <time>2019-08-03T13:27:01.000Z</time>
      </trkpt>
      <trkpt lat="44.04133" lon="6.85793">
        <ele>1252.8000488281</ele>
        <time>2019-08-03T13:27:02.000Z</time>
      </trkpt>
      <trkpt lat="44.04145" lon="6.85809">
        <ele>1253.8000488281</ele>
        <time>2019-08-03T13:27:08.000Z</time>
      </trkpt>
      <trkpt lat="44.04146" lon="6.85812">
        <ele>1254</ele>
        <time>2019-08-03T13:27:09.000Z</time>
      </trkpt>
      <trkpt lat="44.04151" lon="6.85823">
        <ele>1255.4000244141</ele>
        <time>2019-08-03T13:27:13.000Z</time>
      </trkpt>
      <trkpt lat="44.04156" lon="6.85833">
        <ele>1256.5999755859</ele>
        <time>2019-08-03T13:27:16.000Z</time>
      </trkpt>
      <trkpt lat="44.04158" lon="6.8584">
        <ele>1256.5999755859</ele>
        <time>2019-08-03T13:27:18.000Z</time>
      </trkpt>
      <trkpt lat="44.04158" lon="6.85842">
        <ele>1256.8000488281</ele>
        <time>2019-08-03T13:27:19.000Z</time>
      </trkpt>
      <trkpt lat="44.04158" lon="6.85843">
        <ele>1256.8000488281</ele>
        <time>2019-08-03T13:27:21.000Z</time>
      </trkpt>
      <trkpt lat="44.04158" lon="6.85843">
        <ele>1257.8000488281</ele>
        <time>2019-08-03T13:27:25.000Z</time>
      </trkpt>
      <trkpt lat="44.04159" lon="6.85846">
        <ele>1259</ele>
        <time>2019-08-03T13:27:29.000Z</time>
      </trkpt>
      <trkpt lat="44.04159" lon="6.85848">
        <ele>1259.5999755859</ele>
        <time>2019-08-03T13:27:32.000Z</time>
      </trkpt>
      <trkpt lat="44.0416" lon="6.8585">
        <ele>1259.5999755859</ele>
        <time>2019-08-03T13:27:34.000Z</time>
      </trkpt>
      <trkpt lat="44.04161" lon="6.85858">
        <ele>1260</ele>
        <time>2019-08-03T13:27:37.000Z</time>
      </trkpt>
      <trkpt lat="44.04162" lon="6.85865">
        <ele>1260.8000488281</ele>
        <time>2019-08-03T13:27:39.000Z</time>
      </trkpt>
      <trkpt lat="44.04163" lon="6.85869">
        <ele>1261</ele>
        <time>2019-08-03T13:27:40.000Z</time>
      </trkpt>
      <trkpt lat="44.04164" lon="6.85886">
        <ele>1261.8000488281</ele>
        <time>2019-08-03T13:27:44.000Z</time>
      </trkpt>
      <trkpt lat="44.04163" lon="6.85893">
        <ele>1262.1999511719</ele>
        <time>2019-08-03T13:27:46.000Z</time>
      </trkpt>
      <trkpt lat="44.04162" lon="6.85901">
        <ele>1263.4000244141</ele>
        <time>2019-08-03T13:27:48.000Z</time>
      </trkpt>
      <trkpt lat="44.04161" lon="6.85904">
        <ele>1263.8000488281</ele>
        <time>2019-08-03T13:27:49.000Z</time>
      </trkpt>
      <trkpt lat="44.0416" lon="6.8591">
        <ele>1265</ele>
        <time>2019-08-03T13:27:51.000Z</time>
      </trkpt>
      <trkpt lat="44.04156" lon="6.85919">
        <ele>1266.4000244141</ele>
        <time>2019-08-03T13:27:54.000Z</time>
      </trkpt>
      <trkpt lat="44.04153" lon="6.85925">
        <ele>1267.1999511719</ele>
        <time>2019-08-03T13:27:56.000Z</time>
      </trkpt>
      <trkpt lat="44.04152" lon="6.85928">
        <ele>1267.5999755859</ele>
        <time>2019-08-03T13:27:57.000Z</time>
      </trkpt>
      <trkpt lat="44.04146" lon="6.85937">
        <ele>1268.4000244141</ele>
        <time>2019-08-03T13:28:00.000Z</time>
      </trkpt>
      <trkpt lat="44.04144" lon="6.8594">
        <ele>1269</ele>
        <time>2019-08-03T13:28:01.000Z</time>
      </trkpt>
      <trkpt lat="44.04136" lon="6.8595">
        <ele>1269.1999511719</ele>
        <time>2019-08-03T13:28:05.000Z</time>
      </trkpt>
      <trkpt lat="44.04124" lon="6.85963">
        <ele>1270.1999511719</ele>
        <time>2019-08-03T13:28:09.000Z</time>
      </trkpt>
      <trkpt lat="44.04117" lon="6.85979">
        <ele>1269.8000488281</ele>
        <time>2019-08-03T13:28:12.000Z</time>
      </trkpt>
      <trkpt lat="44.04115" lon="6.85985">
        <ele>1269</ele>
        <time>2019-08-03T13:28:13.000Z</time>
      </trkpt>
      <trkpt lat="44.04108" lon="6.85997">
        <ele>1268.4000244141</ele>
        <time>2019-08-03T13:28:15.000Z</time>
      </trkpt>
      <trkpt lat="44.04105" lon="6.86003">
        <ele>1268.1999511719</ele>
        <time>2019-08-03T13:28:16.000Z</time>
      </trkpt>
      <trkpt lat="44.04101" lon="6.8601">
        <ele>1267</ele>
        <time>2019-08-03T13:28:17.000Z</time>
      </trkpt>
      <trkpt lat="44.04092" lon="6.86023">
        <ele>1265.5999755859</ele>
        <time>2019-08-03T13:28:19.000Z</time>
      </trkpt>
      <trkpt lat="44.04087" lon="6.86029">
        <ele>1264.5999755859</ele>
        <time>2019-08-03T13:28:20.000Z</time>
      </trkpt>
      <trkpt lat="44.04078" lon="6.86041">
        <ele>1263.1999511719</ele>
        <time>2019-08-03T13:28:22.000Z</time>
      </trkpt>
      <trkpt lat="44.04074" lon="6.86046">
        <ele>1262.8000488281</ele>
        <time>2019-08-03T13:28:23.000Z</time>
      </trkpt>
      <trkpt lat="44.04071" lon="6.86052">
        <ele>1263.1999511719</ele>
        <time>2019-08-03T13:28:24.000Z</time>
      </trkpt>
      <trkpt lat="44.04065" lon="6.86068">
        <ele>1263.8000488281</ele>
        <time>2019-08-03T13:28:27.000Z</time>
      </trkpt>
      <trkpt lat="44.04066" lon="6.86079">
        <ele>1264.4000244141</ele>
        <time>2019-08-03T13:28:30.000Z</time>
      </trkpt>
      <trkpt lat="44.04068" lon="6.86082">
        <ele>1265</ele>
        <time>2019-08-03T13:28:31.000Z</time>
      </trkpt>
      <trkpt lat="44.04069" lon="6.86085">
        <ele>1265.5999755859</ele>
        <time>2019-08-03T13:28:32.000Z</time>
      </trkpt>
      <trkpt lat="44.04072" lon="6.86087">
        <ele>1266</ele>
        <time>2019-08-03T13:28:33.000Z</time>
      </trkpt>
      <trkpt lat="44.04073" lon="6.8609">
        <ele>1266.5999755859</ele>
        <time>2019-08-03T13:28:34.000Z</time>
      </trkpt>
      <trkpt lat="44.04077" lon="6.861">
        <ele>1267.8000488281</ele>
        <time>2019-08-03T13:28:37.000Z</time>
      </trkpt>
      <trkpt lat="44.04081" lon="6.8611">
        <ele>1269.1999511719</ele>
        <time>2019-08-03T13:28:40.000Z</time>
      </trkpt>
      <trkpt lat="44.04084" lon="6.86117">
        <ele>1270</ele>
        <time>2019-08-03T13:28:42.000Z</time>
      </trkpt>
      <trkpt lat="44.04085" lon="6.8612">
        <ele>1270.1999511719</ele>
        <time>2019-08-03T13:28:43.000Z</time>
      </trkpt>
      <trkpt lat="44.04095" lon="6.86131">
        <ele>1271.5999755859</ele>
        <time>2019-08-03T13:28:47.000Z</time>
      </trkpt>
      <trkpt lat="44.04103" lon="6.86143">
        <ele>1272.5999755859</ele>
        <time>2019-08-03T13:28:50.000Z</time>
      </trkpt>
      <trkpt lat="44.04109" lon="6.86151">
        <ele>1272.5999755859</ele>
        <time>2019-08-03T13:28:52.000Z</time>
      </trkpt>
      <trkpt lat="44.04119" lon="6.86175">
        <ele>1272.8000488281</ele>
        <time>2019-08-03T13:28:57.000Z</time>
      </trkpt>
      <trkpt lat="44.04123" lon="6.86184">
        <ele>1273.4000244141</ele>
        <time>2019-08-03T13:28:59.000Z</time>
      </trkpt>
      <trkpt lat="44.04126" lon="6.86189">
        <ele>1273.5999755859</ele>
        <time>2019-08-03T13:29:00.000Z</time>
      </trkpt>
      <trkpt lat="44.04128" lon="6.86194">
        <ele>1274</ele>
        <time>2019-08-03T13:29:01.000Z</time>
      </trkpt>
      <trkpt lat="44.04132" lon="6.86209">
        <ele>1274.1999511719</ele>
        <time>2019-08-03T13:29:04.000Z</time>
      </trkpt>
      <trkpt lat="44.04142" lon="6.8623">
        <ele>1274.8000488281</ele>
        <time>2019-08-03T13:29:09.000Z</time>
      </trkpt>
      <trkpt lat="44.04145" lon="6.86235">
        <ele>1275.1999511719</ele>
        <time>2019-08-03T13:29:10.000Z</time>
      </trkpt>
      <trkpt lat="44.04149" lon="6.86246">
        <ele>1275.1999511719</ele>
        <time>2019-08-03T13:29:12.000Z</time>
      </trkpt>
      <trkpt lat="44.04151" lon="6.86252">
        <ele>1275.1999511719</ele>
        <time>2019-08-03T13:29:13.000Z</time>
      </trkpt>
      <trkpt lat="44.04158" lon="6.86268">
        <ele>1275.5999755859</ele>
        <time>2019-08-03T13:29:17.000Z</time>
      </trkpt>
      <trkpt lat="44.04162" lon="6.86283">
        <ele>1276.4000244141</ele>
        <time>2019-08-03T13:29:20.000Z</time>
      </trkpt>
      <trkpt lat="44.04164" lon="6.86288">
        <ele>1277</ele>
        <time>2019-08-03T13:29:21.000Z</time>
      </trkpt>
      <trkpt lat="44.04168" lon="6.863">
        <ele>1277.5999755859</ele>
        <time>2019-08-03T13:29:24.000Z</time>
      </trkpt>
      <trkpt lat="44.04169" lon="6.86304">
        <ele>1277.8000488281</ele>
        <time>2019-08-03T13:29:25.000Z</time>
      </trkpt>
      <trkpt lat="44.04172" lon="6.86307">
        <ele>1277.8000488281</ele>
        <time>2019-08-03T13:29:26.000Z</time>
      </trkpt>
      <trkpt lat="44.04179" lon="6.86316">
        <ele>1278.1999511719</ele>
        <time>2019-08-03T13:29:28.000Z</time>
      </trkpt>
      <trkpt lat="44.04183" lon="6.86322">
        <ele>1278.1999511719</ele>
        <time>2019-08-03T13:29:29.000Z</time>
      </trkpt>
      <trkpt lat="44.04191" lon="6.8634">
        <ele>1277</ele>
        <time>2019-08-03T13:29:32.000Z</time>
      </trkpt>
      <trkpt lat="44.04194" lon="6.86346">
        <ele>1276.4000244141</ele>
        <time>2019-08-03T13:29:33.000Z</time>
      </trkpt>
      <trkpt lat="44.04195" lon="6.86352">
        <ele>1275.4000244141</ele>
        <time>2019-08-03T13:29:34.000Z</time>
      </trkpt>
      <trkpt lat="44.04197" lon="6.86358">
        <ele>1273.8000488281</ele>
        <time>2019-08-03T13:29:35.000Z</time>
      </trkpt>
      <trkpt lat="44.04199" lon="6.86363">
        <ele>1272.4000244141</ele>
        <time>2019-08-03T13:29:36.000Z</time>
      </trkpt>
      <trkpt lat="44.04201" lon="6.86369">
        <ele>1271.4000244141</ele>
        <time>2019-08-03T13:29:37.000Z</time>
      </trkpt>
      <trkpt lat="44.04203" lon="6.86375">
        <ele>1269.5999755859</ele>
        <time>2019-08-03T13:29:38.000Z</time>
      </trkpt>
      <trkpt lat="44.04205" lon="6.8638">
        <ele>1268.1999511719</ele>
        <time>2019-08-03T13:29:39.000Z</time>
      </trkpt>
      <trkpt lat="44.04207" lon="6.86386">
        <ele>1267.5999755859</ele>
        <time>2019-08-03T13:29:40.000Z</time>
      </trkpt>
      <trkpt lat="44.04209" lon="6.86401">
        <ele>1266.4000244141</ele>
        <time>2019-08-03T13:29:42.000Z</time>
      </trkpt>
      <trkpt lat="44.04208" lon="6.86409">
        <ele>1265.8000488281</ele>
        <time>2019-08-03T13:29:43.000Z</time>
      </trkpt>
      <trkpt lat="44.04207" lon="6.86417">
        <ele>1265.5999755859</ele>
        <time>2019-08-03T13:29:44.000Z</time>
      </trkpt>
      <trkpt lat="44.04205" lon="6.86424">
        <ele>1265.1999511719</ele>
        <time>2019-08-03T13:29:45.000Z</time>
      </trkpt>
      <trkpt lat="44.04201" lon="6.86454">
        <ele>1264</ele>
        <time>2019-08-03T13:29:49.000Z</time>
      </trkpt>
      <trkpt lat="44.042" lon="6.8646">
        <ele>1263.8000488281</ele>
        <time>2019-08-03T13:29:50.000Z</time>
      </trkpt>
      <trkpt lat="44.04197" lon="6.86488">
        <ele>1262.8000488281</ele>
        <time>2019-08-03T13:29:54.000Z</time>
      </trkpt>
      <trkpt lat="44.04197" lon="6.86502">
        <ele>1261.5999755859</ele>
        <time>2019-08-03T13:29:56.000Z</time>
      </trkpt>
      <trkpt lat="44.04196" lon="6.86507">
        <ele>1260.4000244141</ele>
        <time>2019-08-03T13:29:57.000Z</time>
      </trkpt>
      <trkpt lat="44.04195" lon="6.86517">
        <ele>1258.8000488281</ele>
        <time>2019-08-03T13:29:59.000Z</time>
      </trkpt>
      <trkpt lat="44.04193" lon="6.86527">
        <ele>1257.1999511719</ele>
        <time>2019-08-03T13:30:01.000Z</time>
      </trkpt>
      <trkpt lat="44.04193" lon="6.86534">
        <ele>1256</ele>
        <time>2019-08-03T13:30:03.000Z</time>
      </trkpt>
      <trkpt lat="44.04198" lon="6.86535">
        <ele>1254.8000488281</ele>
        <time>2019-08-03T13:30:05.000Z</time>
      </trkpt>
      <trkpt lat="44.04201" lon="6.86533">
        <ele>1253.5999755859</ele>
        <time>2019-08-03T13:30:06.000Z</time>
      </trkpt>
      <trkpt lat="44.04205" lon="6.8653">
        <ele>1253.4000244141</ele>
        <time>2019-08-03T13:30:07.000Z</time>
      </trkpt>
      <trkpt lat="44.04215" lon="6.86523">
        <ele>1252.5999755859</ele>
        <time>2019-08-03T13:30:09.000Z</time>
      </trkpt>
      <trkpt lat="44.04219" lon="6.86519">
        <ele>1251.8000488281</ele>
        <time>2019-08-03T13:30:10.000Z</time>
      </trkpt>
      <trkpt lat="44.04224" lon="6.86515">
        <ele>1251.8000488281</ele>
        <time>2019-08-03T13:30:11.000Z</time>
      </trkpt>
      <trkpt lat="44.04226" lon="6.86511">
        <ele>1251</ele>
        <time>2019-08-03T13:30:12.000Z</time>
      </trkpt>
      <trkpt lat="44.04228" lon="6.86509">
        <ele>1250</ele>
        <time>2019-08-03T13:30:13.000Z</time>
      </trkpt>
      <trkpt lat="44.04231" lon="6.86509">
        <ele>1248.1999511719</ele>
        <time>2019-08-03T13:30:15.000Z</time>
      </trkpt>
      <trkpt lat="44.04232" lon="6.86511">
        <ele>1247.1999511719</ele>
        <time>2019-08-03T13:30:16.000Z</time>
      </trkpt>
      <trkpt lat="44.04229" lon="6.86529">
        <ele>1246</ele>
        <time>2019-08-03T13:30:20.000Z</time>
      </trkpt>
      <trkpt lat="44.04227" lon="6.86538">
        <ele>1245.1999511719</ele>
        <time>2019-08-03T13:30:22.000Z</time>
      </trkpt>
      <trkpt lat="44.04225" lon="6.86543">
        <ele>1244.8000488281</ele>
        <time>2019-08-03T13:30:23.000Z</time>
      </trkpt>
      <trkpt lat="44.04224" lon="6.86547">
        <ele>1244.1999511719</ele>
        <time>2019-08-03T13:30:24.000Z</time>
      </trkpt>
      <trkpt lat="44.04224" lon="6.8655">
        <ele>1243.5999755859</ele>
        <time>2019-08-03T13:30:25.000Z</time>
      </trkpt>
      <trkpt lat="44.04227" lon="6.86554">
        <ele>1242.5999755859</ele>
        <time>2019-08-03T13:30:27.000Z</time>
      </trkpt>
      <trkpt lat="44.0423" lon="6.86553">
        <ele>1241</ele>
        <time>2019-08-03T13:30:29.000Z</time>
      </trkpt>
      <trkpt lat="44.04231" lon="6.86552">
        <ele>1240.4000244141</ele>
        <time>2019-08-03T13:30:30.000Z</time>
      </trkpt>
      <trkpt lat="44.04232" lon="6.86551">
        <ele>1240</ele>
        <time>2019-08-03T13:30:31.000Z</time>
      </trkpt>
      <trkpt lat="44.04235" lon="6.86549">
        <ele>1238.8000488281</ele>
        <time>2019-08-03T13:30:34.000Z</time>
      </trkpt>
      <trkpt lat="44.04236" lon="6.86548">
        <ele>1238.8000488281</ele>
        <time>2019-08-03T13:30:35.000Z</time>
      </trkpt>
      <trkpt lat="44.04238" lon="6.86547">
        <ele>1238.8000488281</ele>
        <time>2019-08-03T13:30:36.000Z</time>
      </trkpt>
      <trkpt lat="44.0424" lon="6.86551">
        <ele>1238.5999755859</ele>
        <time>2019-08-03T13:30:39.000Z</time>
      </trkpt>
      <trkpt lat="44.04247" lon="6.86554">
        <ele>1237.5999755859</ele>
        <time>2019-08-03T13:30:43.000Z</time>
      </trkpt>
      <trkpt lat="44.04254" lon="6.86558">
        <ele>1236.1999511719</ele>
        <time>2019-08-03T13:30:46.000Z</time>
      </trkpt>
      <trkpt lat="44.04256" lon="6.8656">
        <ele>1235</ele>
        <time>2019-08-03T13:30:47.000Z</time>
      </trkpt>
      <trkpt lat="44.04258" lon="6.86562">
        <ele>1234</ele>
        <time>2019-08-03T13:30:48.000Z</time>
      </trkpt>
      <trkpt lat="44.04259" lon="6.86565">
        <ele>1232.8000488281</ele>
        <time>2019-08-03T13:30:49.000Z</time>
      </trkpt>
      <trkpt lat="44.0426" lon="6.86567">
        <ele>1231.1999511719</ele>
        <time>2019-08-03T13:30:50.000Z</time>
      </trkpt>
      <trkpt lat="44.0426" lon="6.86569">
        <ele>1230</ele>
        <time>2019-08-03T13:30:51.000Z</time>
      </trkpt>
      <trkpt lat="44.04258" lon="6.86573">
        <ele>1228.5999755859</ele>
        <time>2019-08-03T13:30:53.000Z</time>
      </trkpt>
      <trkpt lat="44.04255" lon="6.8658">
        <ele>1227.5999755859</ele>
        <time>2019-08-03T13:30:55.000Z</time>
      </trkpt>
      <trkpt lat="44.04253" lon="6.86585">
        <ele>1227.1999511719</ele>
        <time>2019-08-03T13:30:56.000Z</time>
      </trkpt>
      <trkpt lat="44.0425" lon="6.86604">
        <ele>1227</ele>
        <time>2019-08-03T13:31:00.000Z</time>
      </trkpt>
      <trkpt lat="44.04249" lon="6.86616">
        <ele>1226.1999511719</ele>
        <time>2019-08-03T13:31:02.000Z</time>
      </trkpt>
      <trkpt lat="44.04247" lon="6.86629">
        <ele>1225.1999511719</ele>
        <time>2019-08-03T13:31:04.000Z</time>
      </trkpt>
      <trkpt lat="44.04244" lon="6.86631">
        <ele>1224.1999511719</ele>
        <time>2019-08-03T13:31:05.000Z</time>
      </trkpt>
      <trkpt lat="44.04237" lon="6.86637">
        <ele>1222.1999511719</ele>
        <time>2019-08-03T13:31:07.000Z</time>
      </trkpt>
      <trkpt lat="44.04231" lon="6.86641">
        <ele>1220.1999511719</ele>
        <time>2019-08-03T13:31:09.000Z</time>
      </trkpt>
      <trkpt lat="44.04228" lon="6.86641">
        <ele>1219.8000488281</ele>
        <time>2019-08-03T13:31:10.000Z</time>
      </trkpt>
      <trkpt lat="44.04226" lon="6.86641">
        <ele>1219.4000244141</ele>
        <time>2019-08-03T13:31:11.000Z</time>
      </trkpt>
      <trkpt lat="44.04223" lon="6.86643">
        <ele>1218.8000488281</ele>
        <time>2019-08-03T13:31:13.000Z</time>
      </trkpt>
      <trkpt lat="44.0422" lon="6.86647">
        <ele>1218.5999755859</ele>
        <time>2019-08-03T13:31:15.000Z</time>
      </trkpt>
      <trkpt lat="44.04216" lon="6.8665">
        <ele>1217.8000488281</ele>
        <time>2019-08-03T13:31:17.000Z</time>
      </trkpt>
      <trkpt lat="44.04214" lon="6.86652">
        <ele>1217.1999511719</ele>
        <time>2019-08-03T13:31:18.000Z</time>
      </trkpt>
      <trkpt lat="44.04209" lon="6.86657">
        <ele>1216.8000488281</ele>
        <time>2019-08-03T13:31:20.000Z</time>
      </trkpt>
      <trkpt lat="44.04205" lon="6.86658">
        <ele>1215.4000244141</ele>
        <time>2019-08-03T13:31:22.000Z</time>
      </trkpt>
      <trkpt lat="44.04201" lon="6.86661">
        <ele>1214</ele>
        <time>2019-08-03T13:31:24.000Z</time>
      </trkpt>
      <trkpt lat="44.04197" lon="6.86671">
        <ele>1212.5999755859</ele>
        <time>2019-08-03T13:31:26.000Z</time>
      </trkpt>
      <trkpt lat="44.04195" lon="6.86677">
        <ele>1211.5999755859</ele>
        <time>2019-08-03T13:31:27.000Z</time>
      </trkpt>
      <trkpt lat="44.04194" lon="6.86683">
        <ele>1210.5999755859</ele>
        <time>2019-08-03T13:31:28.000Z</time>
      </trkpt>
      <trkpt lat="44.04194" lon="6.86689">
        <ele>1209.4000244141</ele>
        <time>2019-08-03T13:31:29.000Z</time>
      </trkpt>
      <trkpt lat="44.04196" lon="6.86694">
        <ele>1208.8000488281</ele>
        <time>2019-08-03T13:31:30.000Z</time>
      </trkpt>
      <trkpt lat="44.04197" lon="6.86697">
        <ele>1208</ele>
        <time>2019-08-03T13:31:31.000Z</time>
      </trkpt>
      <trkpt lat="44.04199" lon="6.86701">
        <ele>1207.5999755859</ele>
        <time>2019-08-03T13:31:32.000Z</time>
      </trkpt>
      <trkpt lat="44.04203" lon="6.86709">
        <ele>1207.1999511719</ele>
        <time>2019-08-03T13:31:34.000Z</time>
      </trkpt>
      <trkpt lat="44.04206" lon="6.86714">
        <ele>1207</ele>
        <time>2019-08-03T13:31:35.000Z</time>
      </trkpt>
      <trkpt lat="44.04208" lon="6.86719">
        <ele>1206.4000244141</ele>
        <time>2019-08-03T13:31:36.000Z</time>
      </trkpt>
      <trkpt lat="44.04209" lon="6.86725">
        <ele>1205.1999511719</ele>
        <time>2019-08-03T13:31:37.000Z</time>
      </trkpt>
      <trkpt lat="44.04209" lon="6.86732">
        <ele>1204</ele>
        <time>2019-08-03T13:31:38.000Z</time>
      </trkpt>
      <trkpt lat="44.04208" lon="6.86739">
        <ele>1202.4000244141</ele>
        <time>2019-08-03T13:31:39.000Z</time>
      </trkpt>
      <trkpt lat="44.04207" lon="6.86746">
        <ele>1200.8000488281</ele>
        <time>2019-08-03T13:31:40.000Z</time>
      </trkpt>
      <trkpt lat="44.04205" lon="6.86759">
        <ele>1199.1999511719</ele>
        <time>2019-08-03T13:31:42.000Z</time>
      </trkpt>
      <trkpt lat="44.04203" lon="6.86766">
        <ele>1197.8000488281</ele>
        <time>2019-08-03T13:31:43.000Z</time>
      </trkpt>
      <trkpt lat="44.04198" lon="6.86778">
        <ele>1195.8000488281</ele>
        <time>2019-08-03T13:31:45.000Z</time>
      </trkpt>
      <trkpt lat="44.04195" lon="6.86782">
        <ele>1194.1999511719</ele>
        <time>2019-08-03T13:31:46.000Z</time>
      </trkpt>
      <trkpt lat="44.04191" lon="6.86788">
        <ele>1193.1999511719</ele>
        <time>2019-08-03T13:31:47.000Z</time>
      </trkpt>
      <trkpt lat="44.04188" lon="6.86793">
        <ele>1192.1999511719</ele>
        <time>2019-08-03T13:31:48.000Z</time>
      </trkpt>
      <trkpt lat="44.04184" lon="6.868">
        <ele>1191.1999511719</ele>
        <time>2019-08-03T13:31:50.000Z</time>
      </trkpt>
      <trkpt lat="44.04184" lon="6.86802">
        <ele>1190.4000244141</ele>
        <time>2019-08-03T13:31:51.000Z</time>
      </trkpt>
      <trkpt lat="44.04186" lon="6.86804">
        <ele>1190</ele>
        <time>2019-08-03T13:31:53.000Z</time>
      </trkpt>
      <trkpt lat="44.04187" lon="6.86806">
        <ele>1189.8000488281</ele>
        <time>2019-08-03T13:31:54.000Z</time>
      </trkpt>
      <trkpt lat="44.04187" lon="6.8681">
        <ele>1189</ele>
        <time>2019-08-03T13:31:55.000Z</time>
      </trkpt>
      <trkpt lat="44.04186" lon="6.86813">
        <ele>1187.8000488281</ele>
        <time>2019-08-03T13:31:56.000Z</time>
      </trkpt>
      <trkpt lat="44.04183" lon="6.86817">
        <ele>1186.4000244141</ele>
        <time>2019-08-03T13:31:58.000Z</time>
      </trkpt>
      <trkpt lat="44.04181" lon="6.86826">
        <ele>1185.1999511719</ele>
        <time>2019-08-03T13:32:00.000Z</time>
      </trkpt>
      <trkpt lat="44.0418" lon="6.86838">
        <ele>1183.5999755859</ele>
        <time>2019-08-03T13:32:02.000Z</time>
      </trkpt>
      <trkpt lat="44.04177" lon="6.86848">
        <ele>1182.8000488281</ele>
        <time>2019-08-03T13:32:04.000Z</time>
      </trkpt>
      <trkpt lat="44.04178" lon="6.86851">
        <ele>1182.1999511719</ele>
        <time>2019-08-03T13:32:05.000Z</time>
      </trkpt>
      <trkpt lat="44.04183" lon="6.86852">
        <ele>1181.1999511719</ele>
        <time>2019-08-03T13:32:07.000Z</time>
      </trkpt>
      <trkpt lat="44.04185" lon="6.8685">
        <ele>1180.1999511719</ele>
        <time>2019-08-03T13:32:08.000Z</time>
      </trkpt>
      <trkpt lat="44.04188" lon="6.86845">
        <ele>1179</ele>
        <time>2019-08-03T13:32:10.000Z</time>
      </trkpt>
      <trkpt lat="44.04193" lon="6.86843">
        <ele>1178</ele>
        <time>2019-08-03T13:32:12.000Z</time>
      </trkpt>
      <trkpt lat="44.04197" lon="6.86838">
        <ele>1176.8000488281</ele>
        <time>2019-08-03T13:32:14.000Z</time>
      </trkpt>
      <trkpt lat="44.04202" lon="6.86836">
        <ele>1175.4000244141</ele>
        <time>2019-08-03T13:32:17.000Z</time>
      </trkpt>
      <trkpt lat="44.04203" lon="6.86838">
        <ele>1174.5999755859</ele>
        <time>2019-08-03T13:32:18.000Z</time>
      </trkpt>
      <trkpt lat="44.04203" lon="6.8684">
        <ele>1174</ele>
        <time>2019-08-03T13:32:19.000Z</time>
      </trkpt>
      <trkpt lat="44.04202" lon="6.86847">
        <ele>1172.4000244141</ele>
        <time>2019-08-03T13:32:21.000Z</time>
      </trkpt>
      <trkpt lat="44.04199" lon="6.86862">
        <ele>1171.1999511719</ele>
        <time>2019-08-03T13:32:24.000Z</time>
      </trkpt>
      <trkpt lat="44.04199" lon="6.86866">
        <ele>1170.4000244141</ele>
        <time>2019-08-03T13:32:25.000Z</time>
      </trkpt>
      <trkpt lat="44.04199" lon="6.86868">
        <ele>1170.1999511719</ele>
        <time>2019-08-03T13:32:26.000Z</time>
      </trkpt>
      <trkpt lat="44.04199" lon="6.86869">
        <ele>1169</ele>
        <time>2019-08-03T13:32:27.000Z</time>
      </trkpt>
      <trkpt lat="44.04199" lon="6.86871">
        <ele>1168.8000488281</ele>
        <time>2019-08-03T13:32:28.000Z</time>
      </trkpt>
      <trkpt lat="44.04198" lon="6.86874">
        <ele>1168.4000244141</ele>
        <time>2019-08-03T13:32:29.000Z</time>
      </trkpt>
      <trkpt lat="44.04198" lon="6.86879">
        <ele>1168</ele>
        <time>2019-08-03T13:32:30.000Z</time>
      </trkpt>
      <trkpt lat="44.04194" lon="6.86893">
        <ele>1167</ele>
        <time>2019-08-03T13:32:34.000Z</time>
      </trkpt>
      <trkpt lat="44.04193" lon="6.86896">
        <ele>1166</ele>
        <time>2019-08-03T13:32:35.000Z</time>
      </trkpt>
      <trkpt lat="44.04192" lon="6.86899">
        <ele>1164.8000488281</ele>
        <time>2019-08-03T13:32:36.000Z</time>
      </trkpt>
      <trkpt lat="44.04192" lon="6.869">
        <ele>1164.4000244141</ele>
        <time>2019-08-03T13:32:37.000Z</time>
      </trkpt>
      <trkpt lat="44.04192" lon="6.86902">
        <ele>1164</ele>
        <time>2019-08-03T13:32:38.000Z</time>
      </trkpt>
      <trkpt lat="44.04192" lon="6.86905">
        <ele>1163.4000244141</ele>
        <time>2019-08-03T13:32:39.000Z</time>
      </trkpt>
      <trkpt lat="44.04189" lon="6.86912">
        <ele>1163</ele>
        <time>2019-08-03T13:32:41.000Z</time>
      </trkpt>
      <trkpt lat="44.04185" lon="6.86917">
        <ele>1161.8000488281</ele>
        <time>2019-08-03T13:32:44.000Z</time>
      </trkpt>
      <trkpt lat="44.04185" lon="6.86918">
        <ele>1161.1999511719</ele>
        <time>2019-08-03T13:32:45.000Z</time>
      </trkpt>
      <trkpt lat="44.04186" lon="6.86918">
        <ele>1160.5999755859</ele>
        <time>2019-08-03T13:32:46.000Z</time>
      </trkpt>
      <trkpt lat="44.04192" lon="6.86918">
        <ele>1159.5999755859</ele>
        <time>2019-08-03T13:32:49.000Z</time>
      </trkpt>
      <trkpt lat="44.04194" lon="6.86917">
        <ele>1159.4000244141</ele>
        <time>2019-08-03T13:32:50.000Z</time>
      </trkpt>
      <trkpt lat="44.04205" lon="6.86909">
        <ele>1158.4000244141</ele>
        <time>2019-08-03T13:32:54.000Z</time>
      </trkpt>
      <trkpt lat="44.04207" lon="6.86908">
        <ele>1158</ele>
        <time>2019-08-03T13:32:55.000Z</time>
      </trkpt>
      <trkpt lat="44.04207" lon="6.86916">
        <ele>1157</ele>
        <time>2019-08-03T13:32:58.000Z</time>
      </trkpt>
      <trkpt lat="44.04202" lon="6.86925">
        <ele>1155.8000488281</ele>
        <time>2019-08-03T13:33:01.000Z</time>
      </trkpt>
      <trkpt lat="44.042" lon="6.86927">
        <ele>1155.8000488281</ele>
        <time>2019-08-03T13:33:02.000Z</time>
      </trkpt>
      <trkpt lat="44.04199" lon="6.86929">
        <ele>1155.1999511719</ele>
        <time>2019-08-03T13:33:03.000Z</time>
      </trkpt>
      <trkpt lat="44.04199" lon="6.86933">
        <ele>1154.5999755859</ele>
        <time>2019-08-03T13:33:04.000Z</time>
      </trkpt>
      <trkpt lat="44.04197" lon="6.86938">
        <ele>1153</ele>
        <time>2019-08-03T13:33:06.000Z</time>
      </trkpt>
      <trkpt lat="44.04194" lon="6.86941">
        <ele>1151.5999755859</ele>
        <time>2019-08-03T13:33:08.000Z</time>
      </trkpt>
      <trkpt lat="44.04192" lon="6.86942">
        <ele>1151</ele>
        <time>2019-08-03T13:33:09.000Z</time>
      </trkpt>
      <trkpt lat="44.0419" lon="6.86944">
        <ele>1150.8000488281</ele>
        <time>2019-08-03T13:33:10.000Z</time>
      </trkpt>
      <trkpt lat="44.04186" lon="6.86946">
        <ele>1150.5999755859</ele>
        <time>2019-08-03T13:33:12.000Z</time>
      </trkpt>
      <trkpt lat="44.04186" lon="6.86948">
        <ele>1150.1999511719</ele>
        <time>2019-08-03T13:33:13.000Z</time>
      </trkpt>
      <trkpt lat="44.04187" lon="6.86949">
        <ele>1150</ele>
        <time>2019-08-03T13:33:14.000Z</time>
      </trkpt>
      <trkpt lat="44.0419" lon="6.86952">
        <ele>1149</ele>
        <time>2019-08-03T13:33:16.000Z</time>
      </trkpt>
      <trkpt lat="44.04193" lon="6.86953">
        <ele>1148.5999755859</ele>
        <time>2019-08-03T13:33:17.000Z</time>
      </trkpt>
      <trkpt lat="44.04193" lon="6.86955">
        <ele>1148.1999511719</ele>
        <time>2019-08-03T13:33:18.000Z</time>
      </trkpt>
      <trkpt lat="44.04192" lon="6.86958">
        <ele>1147.8000488281</ele>
        <time>2019-08-03T13:33:19.000Z</time>
      </trkpt>
      <trkpt lat="44.04187" lon="6.8696">
        <ele>1146.4000244141</ele>
        <time>2019-08-03T13:33:21.000Z</time>
      </trkpt>
      <trkpt lat="44.04179" lon="6.86957">
        <ele>1145.1999511719</ele>
        <time>2019-08-03T13:33:23.000Z</time>
      </trkpt>
      <trkpt lat="44.04173" lon="6.86958">
        <ele>1143.8000488281</ele>
        <time>2019-08-03T13:33:25.000Z</time>
      </trkpt>
      <trkpt lat="44.0417" lon="6.86961">
        <ele>1142.5999755859</ele>
        <time>2019-08-03T13:33:27.000Z</time>
      </trkpt>
      <trkpt lat="44.04165" lon="6.86968">
        <ele>1142.1999511719</ele>
        <time>2019-08-03T13:33:30.000Z</time>
      </trkpt>
      <trkpt lat="44.04161" lon="6.86985">
        <ele>1142.8000488281</ele>
        <time>2019-08-03T13:33:33.000Z</time>
      </trkpt>
      <trkpt lat="44.04156" lon="6.86995">
        <ele>1142.5999755859</ele>
        <time>2019-08-03T13:33:35.000Z</time>
      </trkpt>
      <trkpt lat="44.04153" lon="6.86998">
        <ele>1142.1999511719</ele>
        <time>2019-08-03T13:33:36.000Z</time>
      </trkpt>
      <trkpt lat="44.0415" lon="6.87003">
        <ele>1141.1999511719</ele>
        <time>2019-08-03T13:33:38.000Z</time>
      </trkpt>
      <trkpt lat="44.0415" lon="6.87005">
        <ele>1140.5999755859</ele>
        <time>2019-08-03T13:33:39.000Z</time>
      </trkpt>
      <trkpt lat="44.04152" lon="6.87006">
        <ele>1140.1999511719</ele>
        <time>2019-08-03T13:33:40.000Z</time>
      </trkpt>
      <trkpt lat="44.04159" lon="6.87007">
        <ele>1139.1999511719</ele>
        <time>2019-08-03T13:33:43.000Z</time>
      </trkpt>
      <trkpt lat="44.0416" lon="6.87009">
        <ele>1138.8000488281</ele>
        <time>2019-08-03T13:33:44.000Z</time>
      </trkpt>
      <trkpt lat="44.04158" lon="6.87014">
        <ele>1137.5999755859</ele>
        <time>2019-08-03T13:33:46.000Z</time>
      </trkpt>
      <trkpt lat="44.04155" lon="6.87017">
        <ele>1136.1999511719</ele>
        <time>2019-08-03T13:33:48.000Z</time>
      </trkpt>
      <trkpt lat="44.04148" lon="6.87021">
        <ele>1135.5999755859</ele>
        <time>2019-08-03T13:33:51.000Z</time>
      </trkpt>
      <trkpt lat="44.04149" lon="6.87024">
        <ele>1135</ele>
        <time>2019-08-03T13:33:53.000Z</time>
      </trkpt>
      <trkpt lat="44.04151" lon="6.87025">
        <ele>1134.8000488281</ele>
        <time>2019-08-03T13:33:54.000Z</time>
      </trkpt>
      <trkpt lat="44.04154" lon="6.87027">
        <ele>1134</ele>
        <time>2019-08-03T13:33:56.000Z</time>
      </trkpt>
      <trkpt lat="44.04158" lon="6.87026">
        <ele>1133.1999511719</ele>
        <time>2019-08-03T13:33:58.000Z</time>
      </trkpt>
      <trkpt lat="44.0416" lon="6.87026">
        <ele>1132.5999755859</ele>
        <time>2019-08-03T13:33:59.000Z</time>
      </trkpt>
      <trkpt lat="44.04163" lon="6.87028">
        <ele>1131.5999755859</ele>
        <time>2019-08-03T13:34:01.000Z</time>
      </trkpt>
      <trkpt lat="44.04163" lon="6.87028">
        <ele>1130.4000244141</ele>
        <time>2019-08-03T13:34:03.000Z</time>
      </trkpt>
      <trkpt lat="44.04167" lon="6.8703">
        <ele>1129.4000244141</ele>
        <time>2019-08-03T13:34:11.000Z</time>
      </trkpt>
      <trkpt lat="44.04167" lon="6.87029">
        <ele>1129.4000244141</ele>
        <time>2019-08-03T13:34:12.000Z</time>
      </trkpt>
      <trkpt lat="44.04171" lon="6.87028">
        <ele>1128.8000488281</ele>
        <time>2019-08-03T13:34:15.000Z</time>
      </trkpt>
      <trkpt lat="44.04173" lon="6.87031">
        <ele>1128</ele>
        <time>2019-08-03T13:34:17.000Z</time>
      </trkpt>
      <trkpt lat="44.04172" lon="6.87039">
        <ele>1127</ele>
        <time>2019-08-03T13:34:20.000Z</time>
      </trkpt>
      <trkpt lat="44.0417" lon="6.87041">
        <ele>1126.8000488281</ele>
        <time>2019-08-03T13:34:21.000Z</time>
      </trkpt>
      <trkpt lat="44.04168" lon="6.87043">
        <ele>1126.4000244141</ele>
        <time>2019-08-03T13:34:22.000Z</time>
      </trkpt>
      <trkpt lat="44.04163" lon="6.87048">
        <ele>1125.8000488281</ele>
        <time>2019-08-03T13:34:24.000Z</time>
      </trkpt>
      <trkpt lat="44.0416" lon="6.87055">
        <ele>1125.1999511719</ele>
        <time>2019-08-03T13:34:26.000Z</time>
      </trkpt>
      <trkpt lat="44.04159" lon="6.87058">
        <ele>1124.5999755859</ele>
        <time>2019-08-03T13:34:27.000Z</time>
      </trkpt>
      <trkpt lat="44.04151" lon="6.87071">
        <ele>1123.1999511719</ele>
        <time>2019-08-03T13:34:31.000Z</time>
      </trkpt>
      <trkpt lat="44.0415" lon="6.87075">
        <ele>1122.5999755859</ele>
        <time>2019-08-03T13:34:33.000Z</time>
      </trkpt>
      <trkpt lat="44.04151" lon="6.87076">
        <ele>1121.8000488281</ele>
        <time>2019-08-03T13:34:34.000Z</time>
      </trkpt>
      <trkpt lat="44.04156" lon="6.87076">
        <ele>1120.5999755859</ele>
        <time>2019-08-03T13:34:36.000Z</time>
      </trkpt>
      <trkpt lat="44.04159" lon="6.87074">
        <ele>1120</ele>
        <time>2019-08-03T13:34:37.000Z</time>
      </trkpt>
      <trkpt lat="44.04164" lon="6.87071">
        <ele>1119.1999511719</ele>
        <time>2019-08-03T13:34:39.000Z</time>
      </trkpt>
      <trkpt lat="44.04172" lon="6.87069">
        <ele>1118</ele>
        <time>2019-08-03T13:34:42.000Z</time>
      </trkpt>
      <trkpt lat="44.04172" lon="6.8707">
        <ele>1117.5999755859</ele>
        <time>2019-08-03T13:34:43.000Z</time>
      </trkpt>
      <trkpt lat="44.04172" lon="6.87076">
        <ele>1116.4000244141</ele>
        <time>2019-08-03T13:34:45.000Z</time>
      </trkpt>
      <trkpt lat="44.04173" lon="6.87082">
        <ele>1115.4000244141</ele>
        <time>2019-08-03T13:34:47.000Z</time>
      </trkpt>
      <trkpt lat="44.04173" lon="6.8709">
        <ele>1114</ele>
        <time>2019-08-03T13:34:49.000Z</time>
      </trkpt>
      <trkpt lat="44.04173" lon="6.87093">
        <ele>1113</ele>
        <time>2019-08-03T13:34:50.000Z</time>
      </trkpt>
      <trkpt lat="44.04172" lon="6.87096">
        <ele>1112.1999511719</ele>
        <time>2019-08-03T13:34:51.000Z</time>
      </trkpt>
      <trkpt lat="44.04172" lon="6.871">
        <ele>1110.8000488281</ele>
        <time>2019-08-03T13:34:53.000Z</time>
      </trkpt>
      <trkpt lat="44.04172" lon="6.87104">
        <ele>1110.1999511719</ele>
        <time>2019-08-03T13:34:54.000Z</time>
      </trkpt>
      <trkpt lat="44.04172" lon="6.87106">
        <ele>1110</ele>
        <time>2019-08-03T13:34:55.000Z</time>
      </trkpt>
      <trkpt lat="44.04173" lon="6.87107">
        <ele>1109.4000244141</ele>
        <time>2019-08-03T13:34:56.000Z</time>
      </trkpt>
      <trkpt lat="44.04175" lon="6.87106">
        <ele>1109.1999511719</ele>
        <time>2019-08-03T13:34:57.000Z</time>
      </trkpt>
      <trkpt lat="44.04177" lon="6.871">
        <ele>1108.4000244141</ele>
        <time>2019-08-03T13:34:59.000Z</time>
      </trkpt>
      <trkpt lat="44.04179" lon="6.87099">
        <ele>1108</ele>
        <time>2019-08-03T13:35:00.000Z</time>
      </trkpt>
      <trkpt lat="44.0418" lon="6.87101">
        <ele>1107.4000244141</ele>
        <time>2019-08-03T13:35:01.000Z</time>
      </trkpt>
      <trkpt lat="44.0418" lon="6.87103">
        <ele>1107.1999511719</ele>
        <time>2019-08-03T13:35:02.000Z</time>
      </trkpt>
      <trkpt lat="44.0418" lon="6.87105">
        <ele>1106.1999511719</ele>
        <time>2019-08-03T13:35:04.000Z</time>
      </trkpt>
      <trkpt lat="44.0418" lon="6.87122">
        <ele>1105.1999511719</ele>
        <time>2019-08-03T13:35:08.000Z</time>
      </trkpt>
      <trkpt lat="44.0418" lon="6.87127">
        <ele>1104.8000488281</ele>
        <time>2019-08-03T13:35:09.000Z</time>
      </trkpt>
      <trkpt lat="44.04179" lon="6.87136">
        <ele>1103.5999755859</ele>
        <time>2019-08-03T13:35:11.000Z</time>
      </trkpt>
      <trkpt lat="44.04177" lon="6.87139">
        <ele>1102.8000488281</ele>
        <time>2019-08-03T13:35:12.000Z</time>
      </trkpt>
      <trkpt lat="44.04175" lon="6.87141">
        <ele>1102.1999511719</ele>
        <time>2019-08-03T13:35:13.000Z</time>
      </trkpt>
      <trkpt lat="44.04171" lon="6.87145">
        <ele>1101</ele>
        <time>2019-08-03T13:35:15.000Z</time>
      </trkpt>
      <trkpt lat="44.04171" lon="6.87148">
        <ele>1100.5999755859</ele>
        <time>2019-08-03T13:35:16.000Z</time>
      </trkpt>
      <trkpt lat="44.04173" lon="6.8715">
        <ele>1100.4000244141</ele>
        <time>2019-08-03T13:35:17.000Z</time>
      </trkpt>
      <trkpt lat="44.04176" lon="6.87151">
        <ele>1100</ele>
        <time>2019-08-03T13:35:18.000Z</time>
      </trkpt>
      <trkpt lat="44.04182" lon="6.87151">
        <ele>1099.4000244141</ele>
        <time>2019-08-03T13:35:20.000Z</time>
      </trkpt>
      <trkpt lat="44.04184" lon="6.8715">
        <ele>1098.8000488281</ele>
        <time>2019-08-03T13:35:21.000Z</time>
      </trkpt>
      <trkpt lat="44.04193" lon="6.87142">
        <ele>1096.8000488281</ele>
        <time>2019-08-03T13:35:25.000Z</time>
      </trkpt>
      <trkpt lat="44.04195" lon="6.87142">
        <ele>1095.4000244141</ele>
        <time>2019-08-03T13:35:27.000Z</time>
      </trkpt>
      <trkpt lat="44.04196" lon="6.87143">
        <ele>1094.8000488281</ele>
        <time>2019-08-03T13:35:28.000Z</time>
      </trkpt>
      <trkpt lat="44.04197" lon="6.87145">
        <ele>1094</ele>
        <time>2019-08-03T13:35:29.000Z</time>
      </trkpt>
      <trkpt lat="44.04201" lon="6.87152">
        <ele>1092.5999755859</ele>
        <time>2019-08-03T13:35:33.000Z</time>
      </trkpt>
      <trkpt lat="44.04207" lon="6.8715">
        <ele>1091</ele>
        <time>2019-08-03T13:35:36.000Z</time>
      </trkpt>
      <trkpt lat="44.04208" lon="6.87147">
        <ele>1090.4000244141</ele>
        <time>2019-08-03T13:35:37.000Z</time>
      </trkpt>
      <trkpt lat="44.0421" lon="6.87144">
        <ele>1089.8000488281</ele>
        <time>2019-08-03T13:35:38.000Z</time>
      </trkpt>
      <trkpt lat="44.04212" lon="6.8714">
        <ele>1088.5999755859</ele>
        <time>2019-08-03T13:35:39.000Z</time>
      </trkpt>
      <trkpt lat="44.04215" lon="6.87138">
        <ele>1087.5999755859</ele>
        <time>2019-08-03T13:35:41.000Z</time>
      </trkpt>
      <trkpt lat="44.04216" lon="6.8714">
        <ele>1087</ele>
        <time>2019-08-03T13:35:42.000Z</time>
      </trkpt>
      <trkpt lat="44.04216" lon="6.87145">
        <ele>1086.1999511719</ele>
        <time>2019-08-03T13:35:44.000Z</time>
      </trkpt>
      <trkpt lat="44.04216" lon="6.87153">
        <ele>1085.4000244141</ele>
        <time>2019-08-03T13:35:46.000Z</time>
      </trkpt>
      <trkpt lat="44.04215" lon="6.87156">
        <ele>1084.8000488281</ele>
        <time>2019-08-03T13:35:47.000Z</time>
      </trkpt>
      <trkpt lat="44.04217" lon="6.87167">
        <ele>1083.5999755859</ele>
        <time>2019-08-03T13:35:50.000Z</time>
      </trkpt>
      <trkpt lat="44.04214" lon="6.87176">
        <ele>1082.1999511719</ele>
        <time>2019-08-03T13:35:53.000Z</time>
      </trkpt>
      <trkpt lat="44.04211" lon="6.87189">
        <ele>1081</ele>
        <time>2019-08-03T13:35:57.000Z</time>
      </trkpt>
      <trkpt lat="44.04214" lon="6.87195">
        <ele>1080.4000244141</ele>
        <time>2019-08-03T13:35:59.000Z</time>
      </trkpt>
      <trkpt lat="44.04217" lon="6.87195">
        <ele>1079.5999755859</ele>
        <time>2019-08-03T13:36:00.000Z</time>
      </trkpt>
      <trkpt lat="44.04222" lon="6.87191">
        <ele>1078.4000244141</ele>
        <time>2019-08-03T13:36:02.000Z</time>
      </trkpt>
      <trkpt lat="44.04224" lon="6.87187">
        <ele>1078.1999511719</ele>
        <time>2019-08-03T13:36:03.000Z</time>
      </trkpt>
      <trkpt lat="44.04226" lon="6.87182">
        <ele>1077.5999755859</ele>
        <time>2019-08-03T13:36:04.000Z</time>
      </trkpt>
      <trkpt lat="44.04229" lon="6.87177">
        <ele>1077</ele>
        <time>2019-08-03T13:36:05.000Z</time>
      </trkpt>
      <trkpt lat="44.04234" lon="6.87165">
        <ele>1075.8000488281</ele>
        <time>2019-08-03T13:36:08.000Z</time>
      </trkpt>
      <trkpt lat="44.0424" lon="6.87156">
        <ele>1074.1999511719</ele>
        <time>2019-08-03T13:36:11.000Z</time>
      </trkpt>
      <trkpt lat="44.04242" lon="6.87156">
        <ele>1073</ele>
        <time>2019-08-03T13:36:12.000Z</time>
      </trkpt>
      <trkpt lat="44.04243" lon="6.87162">
        <ele>1072</ele>
        <time>2019-08-03T13:36:14.000Z</time>
      </trkpt>
      <trkpt lat="44.04242" lon="6.87166">
        <ele>1071.5999755859</ele>
        <time>2019-08-03T13:36:15.000Z</time>
      </trkpt>
      <trkpt lat="44.0424" lon="6.87175">
        <ele>1071</ele>
        <time>2019-08-03T13:36:18.000Z</time>
      </trkpt>
      <trkpt lat="44.0424" lon="6.87178">
        <ele>1070.1999511719</ele>
        <time>2019-08-03T13:36:19.000Z</time>
      </trkpt>
      <trkpt lat="44.04239" lon="6.87184">
        <ele>1069.1999511719</ele>
        <time>2019-08-03T13:36:21.000Z</time>
      </trkpt>
      <trkpt lat="44.04239" lon="6.87188">
        <ele>1068.8000488281</ele>
        <time>2019-08-03T13:36:22.000Z</time>
      </trkpt>
      <trkpt lat="44.0424" lon="6.87192">
        <ele>1068.1999511719</ele>
        <time>2019-08-03T13:36:23.000Z</time>
      </trkpt>
      <trkpt lat="44.04241" lon="6.872">
        <ele>1067.4000244141</ele>
        <time>2019-08-03T13:36:26.000Z</time>
      </trkpt>
      <trkpt lat="44.04242" lon="6.87201">
        <ele>1067.1999511719</ele>
        <time>2019-08-03T13:36:27.000Z</time>
      </trkpt>
      <trkpt lat="44.04246" lon="6.87201">
        <ele>1066</ele>
        <time>2019-08-03T13:36:29.000Z</time>
      </trkpt>
      <trkpt lat="44.04247" lon="6.872">
        <ele>1065.5999755859</ele>
        <time>2019-08-03T13:36:30.000Z</time>
      </trkpt>
      <trkpt lat="44.04249" lon="6.87199">
        <ele>1064.8000488281</ele>
        <time>2019-08-03T13:36:31.000Z</time>
      </trkpt>
      <trkpt lat="44.04252" lon="6.87196">
        <ele>1064</ele>
        <time>2019-08-03T13:36:34.000Z</time>
      </trkpt>
      <trkpt lat="44.04255" lon="6.87192">
        <ele>1064.8000488281</ele>
        <time>2019-08-03T13:36:39.000Z</time>
      </trkpt>
      <trkpt lat="44.04255" lon="6.87191">
        <ele>1065</ele>
        <time>2019-08-03T13:36:40.000Z</time>
      </trkpt>
      <trkpt lat="44.04259" lon="6.87187">
        <ele>1065</ele>
        <time>2019-08-03T13:36:43.000Z</time>
      </trkpt>
      <trkpt lat="44.04264" lon="6.87185">
        <ele>1065.4000244141</ele>
        <time>2019-08-03T13:36:46.000Z</time>
      </trkpt>
      <trkpt lat="44.04277" lon="6.87187">
        <ele>1065.5999755859</ele>
        <time>2019-08-03T13:36:50.000Z</time>
      </trkpt>
      <trkpt lat="44.04292" lon="6.87194">
        <ele>1065.1999511719</ele>
        <time>2019-08-03T13:36:55.000Z</time>
      </trkpt>
      <trkpt lat="44.04294" lon="6.87194">
        <ele>1065.4000244141</ele>
        <time>2019-08-03T13:36:56.000Z</time>
      </trkpt>
      <trkpt lat="44.043" lon="6.87191">
        <ele>1066</ele>
        <time>2019-08-03T13:36:59.000Z</time>
      </trkpt>
      <trkpt lat="44.04307" lon="6.87185">
        <ele>1067.4000244141</ele>
        <time>2019-08-03T13:37:03.000Z</time>
      </trkpt>
      <trkpt lat="44.04314" lon="6.87183">
        <ele>1068.4000244141</ele>
        <time>2019-08-03T13:37:07.000Z</time>
      </trkpt>
      <trkpt lat="44.04315" lon="6.87182">
        <ele>1068.4000244141</ele>
        <time>2019-08-03T13:37:08.000Z</time>
      </trkpt>
      <trkpt lat="44.04319" lon="6.87182">
        <ele>1069</ele>
        <time>2019-08-03T13:37:11.000Z</time>
      </trkpt>
      <trkpt lat="44.04321" lon="6.87185">
        <ele>1069.4000244141</ele>
        <time>2019-08-03T13:37:13.000Z</time>
      </trkpt>
      <trkpt lat="44.04321" lon="6.87187">
        <ele>1069.4000244141</ele>
        <time>2019-08-03T13:37:14.000Z</time>
      </trkpt>
      <trkpt lat="44.04322" lon="6.8719">
        <ele>1070</ele>
        <time>2019-08-03T13:37:16.000Z</time>
      </trkpt>
      <trkpt lat="44.04324" lon="6.87197">
        <ele>1070.5999755859</ele>
        <time>2019-08-03T13:37:19.000Z</time>
      </trkpt>
      <trkpt lat="44.04324" lon="6.87201">
        <ele>1070.5999755859</ele>
        <time>2019-08-03T13:37:21.000Z</time>
      </trkpt>
      <trkpt lat="44.04319" lon="6.87214">
        <ele>1071.4000244141</ele>
        <time>2019-08-03T13:37:27.000Z</time>
      </trkpt>
      <trkpt lat="44.04317" lon="6.87222">
        <ele>1071.5999755859</ele>
        <time>2019-08-03T13:37:30.000Z</time>
      </trkpt>
      <trkpt lat="44.04318" lon="6.87228">
        <ele>1071.5999755859</ele>
        <time>2019-08-03T13:37:32.000Z</time>
      </trkpt>
      <trkpt lat="44.04317" lon="6.87251">
        <ele>1072</ele>
        <time>2019-08-03T13:37:39.000Z</time>
      </trkpt>
      <trkpt lat="44.04316" lon="6.87266">
        <ele>1071.8000488281</ele>
        <time>2019-08-03T13:37:42.000Z</time>
      </trkpt>
      <trkpt lat="44.0432" lon="6.87276">
        <ele>1071</ele>
        <time>2019-08-03T13:37:44.000Z</time>
      </trkpt>
      <trkpt lat="44.04325" lon="6.87282">
        <ele>1070.4000244141</ele>
        <time>2019-08-03T13:37:46.000Z</time>
      </trkpt>
      <trkpt lat="44.04328" lon="6.87288">
        <ele>1070</ele>
        <time>2019-08-03T13:37:48.000Z</time>
      </trkpt>
      <trkpt lat="44.04334" lon="6.87294">
        <ele>1069.4000244141</ele>
        <time>2019-08-03T13:37:51.000Z</time>
      </trkpt>
      <trkpt lat="44.04339" lon="6.87298">
        <ele>1068.4000244141</ele>
        <time>2019-08-03T13:37:53.000Z</time>
      </trkpt>
      <trkpt lat="44.04341" lon="6.87299">
        <ele>1068</ele>
        <time>2019-08-03T13:37:54.000Z</time>
      </trkpt>
      <trkpt lat="44.04342" lon="6.873">
        <ele>1067.8000488281</ele>
        <time>2019-08-03T13:37:57.000Z</time>
      </trkpt>
      <trkpt lat="44.04341" lon="6.87301">
        <ele>1067.8000488281</ele>
        <time>2019-08-03T13:38:03.000Z</time>
      </trkpt>
      <trkpt lat="44.04341" lon="6.87301">
        <ele>1067.5999755859</ele>
        <time>2019-08-03T13:38:07.000Z</time>
      </trkpt>
      <trkpt lat="44.0434" lon="6.873">
        <ele>1067.1999511719</ele>
        <time>2019-08-03T13:38:13.000Z</time>
      </trkpt>
      <trkpt lat="44.04339" lon="6.87298">
        <ele>1067.8000488281</ele>
        <time>2019-08-03T13:38:20.000Z</time>
      </trkpt>
      <trkpt lat="44.04338" lon="6.87298">
        <ele>1067.8000488281</ele>
        <time>2019-08-03T13:38:25.000Z</time>
      </trkpt>
      <trkpt lat="44.04336" lon="6.87298">
        <ele>1067</ele>
        <time>2019-08-03T13:38:29.000Z</time>
      </trkpt>
      <trkpt lat="44.04336" lon="6.87298">
        <ele>1067</ele>
        <time>2019-08-03T13:38:30.000Z</time>
      </trkpt>
      <trkpt lat="44.04336" lon="6.87298">
        <ele>1067</ele>
        <time>2019-08-03T13:38:35.000Z</time>
      </trkpt>
      <trkpt lat="44.04337" lon="6.87298">
        <ele>1067.1999511719</ele>
        <time>2019-08-03T13:38:44.000Z</time>
      </trkpt>
      <trkpt lat="44.04338" lon="6.87298">
        <ele>1067.8000488281</ele>
        <time>2019-08-03T13:38:51.000Z</time>
      </trkpt>
      <trkpt lat="44.04338" lon="6.87298">
        <ele>1068</ele>
        <time>2019-08-03T13:38:58.000Z</time>
      </trkpt>
      <trkpt lat="44.04338" lon="6.87298">
        <ele>1068</ele>
        <time>2019-08-03T13:39:00.000Z</time>
      </trkpt>
      <trkpt lat="44.04338" lon="6.87297">
        <ele>1068</ele>
        <time>2019-08-03T13:39:04.000Z</time>
      </trkpt>
      <trkpt lat="44.04337" lon="6.87295">
        <ele>1068</ele>
        <time>2019-08-03T13:39:10.000Z</time>
      </trkpt>
      <trkpt lat="44.04337" lon="6.87295">
        <ele>1068.5999755859</ele>
        <time>2019-08-03T13:39:14.000Z</time>
      </trkpt>
      <trkpt lat="44.04336" lon="6.87293">
        <ele>1067.8000488281</ele>
        <time>2019-08-03T13:39:23.000Z</time>
      </trkpt>
      <trkpt lat="44.04336" lon="6.87292">
        <ele>1067.5999755859</ele>
        <time>2019-08-03T13:39:35.000Z</time>
      </trkpt>
      <trkpt lat="44.04336" lon="6.87292">
        <ele>1067.5999755859</ele>
        <time>2019-08-03T13:39:42.000Z</time>
      </trkpt>
      <trkpt lat="44.04336" lon="6.87293">
        <ele>1067.5999755859</ele>
        <time>2019-08-03T13:39:49.000Z</time>
      </trkpt>
      <trkpt lat="44.04336" lon="6.87292">
        <ele>1067.4000244141</ele>
        <time>2019-08-03T13:39:50.000Z</time>
      </trkpt>
      <trkpt lat="44.04336" lon="6.87292">
        <ele>1067.5999755859</ele>
        <time>2019-08-03T13:39:53.000Z</time>
      </trkpt>
      <trkpt lat="44.04336" lon="6.87294">
        <ele>1067.8000488281</ele>
        <time>2019-08-03T13:39:55.000Z</time>
      </trkpt>
      <trkpt lat="44.04337" lon="6.87294">
        <ele>1067.8000488281</ele>
        <time>2019-08-03T13:39:57.000Z</time>
      </trkpt>
      <trkpt lat="44.04339" lon="6.87294">
        <ele>1067.8000488281</ele>
        <time>2019-08-03T13:40:03.000Z</time>
      </trkpt>
      <trkpt lat="44.04337" lon="6.87293">
        <ele>1067.4000244141</ele>
        <time>2019-08-03T13:40:08.000Z</time>
      </trkpt>
      <trkpt lat="44.0433" lon="6.87286">
        <ele>1067</ele>
        <time>2019-08-03T13:40:16.000Z</time>
      </trkpt>
      <trkpt lat="44.04329" lon="6.87286">
        <ele>1067</ele>
        <time>2019-08-03T13:40:17.000Z</time>
      </trkpt>
      <trkpt lat="44.04326" lon="6.87284">
        <ele>1067</ele>
        <time>2019-08-03T13:40:21.000Z</time>
      </trkpt>
      <trkpt lat="44.04326" lon="6.87287">
        <ele>1067</ele>
        <time>2019-08-03T13:40:27.000Z</time>
      </trkpt>
      <trkpt lat="44.04325" lon="6.87289">
        <ele>1066.5999755859</ele>
        <time>2019-08-03T13:40:29.000Z</time>
      </trkpt>
      <trkpt lat="44.04325" lon="6.87291">
        <ele>1065.8000488281</ele>
        <time>2019-08-03T13:40:31.000Z</time>
      </trkpt>
      <trkpt lat="44.04325" lon="6.87293">
        <ele>1064.5999755859</ele>
        <time>2019-08-03T13:40:33.000Z</time>
      </trkpt>
      <trkpt lat="44.04324" lon="6.87296">
        <ele>1063.4000244141</ele>
        <time>2019-08-03T13:40:37.000Z</time>
      </trkpt>
      <trkpt lat="44.04324" lon="6.87298">
        <ele>1063</ele>
        <time>2019-08-03T13:40:40.000Z</time>
      </trkpt>
      <trkpt lat="44.04323" lon="6.87299">
        <ele>1062.4000244141</ele>
        <time>2019-08-03T13:40:43.000Z</time>
      </trkpt>
      <trkpt lat="44.04323" lon="6.87301">
        <ele>1062</ele>
        <time>2019-08-03T13:40:46.000Z</time>
      </trkpt>
      <trkpt lat="44.04322" lon="6.87306">
        <ele>1061.4000244141</ele>
        <time>2019-08-03T13:40:51.000Z</time>
      </trkpt>
      <trkpt lat="44.04323" lon="6.8731">
        <ele>1060.1999511719</ele>
        <time>2019-08-03T13:40:56.000Z</time>
      </trkpt>
      <trkpt lat="44.04323" lon="6.8731">
        <ele>1059.4000244141</ele>
        <time>2019-08-03T13:40:59.000Z</time>
      </trkpt>
      <trkpt lat="44.04323" lon="6.8731">
        <ele>1059.1999511719</ele>
        <time>2019-08-03T13:41:02.000Z</time>
      </trkpt>
      <trkpt lat="44.04323" lon="6.87311">
        <ele>1059</ele>
        <time>2019-08-03T13:41:07.000Z</time>
      </trkpt>
      <trkpt lat="44.04323" lon="6.8731">
        <ele>1058.8000488281</ele>
        <time>2019-08-03T13:41:17.000Z</time>
      </trkpt>
      <trkpt lat="44.04324" lon="6.87311">
        <ele>1058.8000488281</ele>
        <time>2019-08-03T13:41:25.000Z</time>
      </trkpt>
      <trkpt lat="44.04323" lon="6.87311">
        <ele>1058.4000244141</ele>
        <time>2019-08-03T13:41:31.000Z</time>
      </trkpt>
      <trkpt lat="44.04325" lon="6.87314">
        <ele>1058.4000244141</ele>
        <time>2019-08-03T13:41:36.000Z</time>
      </trkpt>
      <trkpt lat="44.04325" lon="6.87314">
        <ele>1058.5999755859</ele>
        <time>2019-08-03T13:41:39.000Z</time>
      </trkpt>
      <trkpt lat="44.04325" lon="6.87313">
        <ele>1058.1999511719</ele>
        <time>2019-08-03T13:41:45.000Z</time>
      </trkpt>
      <trkpt lat="44.04325" lon="6.87313">
        <ele>1058.1999511719</ele>
        <time>2019-08-03T13:41:49.000Z</time>
      </trkpt>
      <trkpt lat="44.04325" lon="6.87314">
        <ele>1058.4000244141</ele>
        <time>2019-08-03T13:42:00.000Z</time>
      </trkpt>
      <trkpt lat="44.04325" lon="6.87314">
        <ele>1058.8000488281</ele>
        <time>2019-08-03T13:42:11.000Z</time>
      </trkpt>
      <trkpt lat="44.04325" lon="6.87314">
        <ele>1059</ele>
        <time>2019-08-03T13:42:22.000Z</time>
      </trkpt>
      <trkpt lat="44.04325" lon="6.87314">
        <ele>1059</ele>
        <time>2019-08-03T13:42:31.000Z</time>
      </trkpt>
      <trkpt lat="44.04326" lon="6.87315">
        <ele>1058.5999755859</ele>
        <time>2019-08-03T13:42:39.000Z</time>
      </trkpt>
      <trkpt lat="44.04326" lon="6.87314">
        <ele>1058.4000244141</ele>
        <time>2019-08-03T13:42:52.000Z</time>
      </trkpt>
      <trkpt lat="44.04325" lon="6.87314">
        <ele>1058.5999755859</ele>
        <time>2019-08-03T13:42:58.000Z</time>
      </trkpt>
      <trkpt lat="44.04325" lon="6.87314">
        <ele>1059</ele>
        <time>2019-08-03T13:43:10.000Z</time>
      </trkpt>
      <trkpt lat="44.04325" lon="6.87314">
        <ele>1059</ele>
        <time>2019-08-03T13:43:17.000Z</time>
      </trkpt>
      <trkpt lat="44.04325" lon="6.87314">
        <ele>1059</ele>
        <time>2019-08-03T13:43:24.000Z</time>
      </trkpt>
      <trkpt lat="44.04324" lon="6.87314">
        <ele>1058.8000488281</ele>
        <time>2019-08-03T13:43:31.000Z</time>
      </trkpt>
      <trkpt lat="44.04324" lon="6.87315">
        <ele>1059</ele>
        <time>2019-08-03T13:43:32.000Z</time>
      </trkpt>
      <trkpt lat="44.04324" lon="6.87316">
        <ele>1059.1999511719</ele>
        <time>2019-08-03T13:43:34.000Z</time>
      </trkpt>
      <trkpt lat="44.04323" lon="6.87316">
        <ele>1059.5999755859</ele>
        <time>2019-08-03T13:43:41.000Z</time>
      </trkpt>
      <trkpt lat="44.04322" lon="6.87317">
        <ele>1059</ele>
        <time>2019-08-03T13:43:50.000Z</time>
      </trkpt>
      <trkpt lat="44.04322" lon="6.87317">
        <ele>1060.8000488281</ele>
        <time>2019-08-03T13:43:55.000Z</time>
      </trkpt>
      <trkpt lat="44.04323" lon="6.87317">
        <ele>1063</ele>
        <time>2019-08-03T13:43:56.000Z</time>
      </trkpt>
      <trkpt lat="44.04322" lon="6.87317">
        <ele>1060.5999755859</ele>
        <time>2019-08-03T13:44:01.000Z</time>
      </trkpt>
      <trkpt lat="44.04322" lon="6.87317">
        <ele>1060.1999511719</ele>
        <time>2019-08-03T13:44:02.000Z</time>
      </trkpt>
      <trkpt lat="44.04322" lon="6.87317">
        <ele>1058</ele>
        <time>2019-08-03T13:44:03.000Z</time>
      </trkpt>
      <trkpt lat="44.04322" lon="6.87316">
        <ele>1059.4000244141</ele>
        <time>2019-08-03T13:44:04.000Z</time>
      </trkpt>
      <trkpt lat="44.04322" lon="6.87316">
        <ele>1059.4000244141</ele>
        <time>2019-08-03T13:44:07.000Z</time>
      </trkpt>
      <trkpt lat="44.04322" lon="6.87316">
        <ele>1058.1999511719</ele>
        <time>2019-08-03T13:44:09.000Z</time>
      </trkpt>
      <trkpt lat="44.04322" lon="6.87316">
        <ele>1059</ele>
        <time>2019-08-03T13:44:12.000Z</time>
      </trkpt>
      <trkpt lat="44.04321" lon="6.87315">
        <ele>1059</ele>
        <time>2019-08-03T13:44:19.000Z</time>
      </trkpt>
      <trkpt lat="44.04321" lon="6.87314">
        <ele>1059</ele>
        <time>2019-08-03T13:44:24.000Z</time>
      </trkpt>
      <trkpt lat="44.04321" lon="6.87314">
        <ele>1059.4000244141</ele>
        <time>2019-08-03T13:44:28.000Z</time>
      </trkpt>
      <trkpt lat="44.0432" lon="6.87313">
        <ele>1059.8000488281</ele>
        <time>2019-08-03T13:44:36.000Z</time>
      </trkpt>
      <trkpt lat="44.0432" lon="6.87313">
        <ele>1059.5999755859</ele>
        <time>2019-08-03T13:44:49.000Z</time>
      </trkpt>
      <trkpt lat="44.04319" lon="6.87312">
        <ele>1059.1999511719</ele>
        <time>2019-08-03T13:45:01.000Z</time>
      </trkpt>
      <trkpt lat="44.04319" lon="6.87312">
        <ele>1059.1999511719</ele>
        <time>2019-08-03T13:45:08.000Z</time>
      </trkpt>
      <trkpt lat="44.04318" lon="6.87314">
        <ele>1059.1999511719</ele>
        <time>2019-08-03T13:45:09.000Z</time>
      </trkpt>
      <trkpt lat="44.04317" lon="6.87315">
        <ele>1059.4000244141</ele>
        <time>2019-08-03T13:45:13.000Z</time>
      </trkpt>
      <trkpt lat="44.04318" lon="6.87315">
        <ele>1060.1999511719</ele>
        <time>2019-08-03T13:45:22.000Z</time>
      </trkpt>
      <trkpt lat="44.04317" lon="6.87316">
        <ele>1059.8000488281</ele>
        <time>2019-08-03T13:45:31.000Z</time>
      </trkpt>
      <trkpt lat="44.04316" lon="6.87316">
        <ele>1059.8000488281</ele>
        <time>2019-08-03T13:45:42.000Z</time>
      </trkpt>
      <trkpt lat="44.04316" lon="6.87315">
        <ele>1060</ele>
        <time>2019-08-03T13:45:49.000Z</time>
      </trkpt>
      <trkpt lat="44.04317" lon="6.87314">
        <ele>1060.1999511719</ele>
        <time>2019-08-03T13:45:55.000Z</time>
      </trkpt>
      <trkpt lat="44.04319" lon="6.87312">
        <ele>1060</ele>
        <time>2019-08-03T13:46:02.000Z</time>
      </trkpt>
      <trkpt lat="44.04319" lon="6.87312">
        <ele>1060</ele>
        <time>2019-08-03T13:46:14.000Z</time>
      </trkpt>
      <trkpt lat="44.04319" lon="6.8731">
        <ele>1059.8000488281</ele>
        <time>2019-08-03T13:46:29.000Z</time>
      </trkpt>
      <trkpt lat="44.04319" lon="6.8731">
        <ele>1059.8000488281</ele>
        <time>2019-08-03T13:46:31.000Z</time>
      </trkpt>
      <trkpt lat="44.0432" lon="6.87309">
        <ele>1059.1999511719</ele>
        <time>2019-08-03T13:46:39.000Z</time>
      </trkpt>
      <trkpt lat="44.04321" lon="6.8731">
        <ele>1060.1999511719</ele>
        <time>2019-08-03T13:46:59.000Z</time>
      </trkpt>
      <trkpt lat="44.04319" lon="6.87311">
        <ele>1060.1999511719</ele>
        <time>2019-08-03T13:47:04.000Z</time>
      </trkpt>
      <trkpt lat="44.04319" lon="6.87309">
        <ele>1060</ele>
        <time>2019-08-03T13:47:09.000Z</time>
      </trkpt>
      <trkpt lat="44.04319" lon="6.87309">
        <ele>1060.1999511719</ele>
        <time>2019-08-03T13:47:14.000Z</time>
      </trkpt>
      <trkpt lat="44.04319" lon="6.87309">
        <ele>1060.4000244141</ele>
        <time>2019-08-03T13:47:22.000Z</time>
      </trkpt>
      <trkpt lat="44.0432" lon="6.8731">
        <ele>1060.4000244141</ele>
        <time>2019-08-03T13:47:36.000Z</time>
      </trkpt>
      <trkpt lat="44.0432" lon="6.8731">
        <ele>1059.5999755859</ele>
        <time>2019-08-03T13:47:45.000Z</time>
      </trkpt>
      <trkpt lat="44.0432" lon="6.87311">
        <ele>1059.5999755859</ele>
        <time>2019-08-03T13:47:55.000Z</time>
      </trkpt>
      <trkpt lat="44.0432" lon="6.87312">
        <ele>1059.4000244141</ele>
        <time>2019-08-03T13:48:06.000Z</time>
      </trkpt>
      <trkpt lat="44.0432" lon="6.87312">
        <ele>1059.5999755859</ele>
        <time>2019-08-03T13:48:10.000Z</time>
      </trkpt>
      <trkpt lat="44.0432" lon="6.87315">
        <ele>1059.8000488281</ele>
        <time>2019-08-03T13:48:14.000Z</time>
      </trkpt>
      <trkpt lat="44.0432" lon="6.87315">
        <ele>1059.8000488281</ele>
        <time>2019-08-03T13:48:15.000Z</time>
      </trkpt>
      <trkpt lat="44.04319" lon="6.87316">
        <ele>1059.5999755859</ele>
        <time>2019-08-03T13:48:16.000Z</time>
      </trkpt>
      <trkpt lat="44.04318" lon="6.87318">
        <ele>1059.8000488281</ele>
        <time>2019-08-03T13:48:20.000Z</time>
      </trkpt>
      <trkpt lat="44.04317" lon="6.87317">
        <ele>1060.4000244141</ele>
        <time>2019-08-03T13:48:35.000Z</time>
      </trkpt>
      <trkpt lat="44.04317" lon="6.87317">
        <ele>1060.4000244141</ele>
        <time>2019-08-03T13:48:38.000Z</time>
      </trkpt>
      <trkpt lat="44.04316" lon="6.87319">
        <ele>1060.4000244141</ele>
        <time>2019-08-03T13:48:43.000Z</time>
      </trkpt>
      <trkpt lat="44.04315" lon="6.87318">
        <ele>1060.5999755859</ele>
        <time>2019-08-03T13:49:03.000Z</time>
      </trkpt>
      <trkpt lat="44.04315" lon="6.87315">
        <ele>1060.4000244141</ele>
        <time>2019-08-03T13:49:08.000Z</time>
      </trkpt>
      <trkpt lat="44.04317" lon="6.87312">
        <ele>1060</ele>
        <time>2019-08-03T13:49:14.000Z</time>
      </trkpt>
      <trkpt lat="44.04317" lon="6.87311">
        <ele>1060</ele>
        <time>2019-08-03T13:49:15.000Z</time>
      </trkpt>
      <trkpt lat="44.04317" lon="6.8731">
        <ele>1060</ele>
        <time>2019-08-03T13:49:18.000Z</time>
      </trkpt>
      <trkpt lat="44.04317" lon="6.8731">
        <ele>1059.8000488281</ele>
        <time>2019-08-03T13:49:27.000Z</time>
      </trkpt>
      <trkpt lat="44.04317" lon="6.8731">
        <ele>1059.5999755859</ele>
        <time>2019-08-03T13:49:38.000Z</time>
      </trkpt>
      <trkpt lat="44.04318" lon="6.8731">
        <ele>1059.8000488281</ele>
        <time>2019-08-03T13:49:44.000Z</time>
      </trkpt>
      <trkpt lat="44.04318" lon="6.8731">
        <ele>1059.4000244141</ele>
        <time>2019-08-03T13:49:48.000Z</time>
      </trkpt>
      <trkpt lat="44.04318" lon="6.8731">
        <ele>1059.5999755859</ele>
        <time>2019-08-03T13:49:52.000Z</time>
      </trkpt>
      <trkpt lat="44.04318" lon="6.8731">
        <ele>1059.1999511719</ele>
        <time>2019-08-03T13:50:00.000Z</time>
      </trkpt>
      <trkpt lat="44.0432" lon="6.8731">
        <ele>1060</ele>
        <time>2019-08-03T13:50:18.000Z</time>
      </trkpt>
      <trkpt lat="44.0432" lon="6.8731">
        <ele>1059.8000488281</ele>
        <time>2019-08-03T13:50:25.000Z</time>
      </trkpt>
      <trkpt lat="44.04321" lon="6.87311">
        <ele>1060.1999511719</ele>
        <time>2019-08-03T13:50:38.000Z</time>
      </trkpt>
      <trkpt lat="44.04321" lon="6.87311">
        <ele>1060</ele>
        <time>2019-08-03T13:50:46.000Z</time>
      </trkpt>
      <trkpt lat="44.04322" lon="6.87311">
        <ele>1059.4000244141</ele>
        <time>2019-08-03T13:50:55.000Z</time>
      </trkpt>
      <trkpt lat="44.04322" lon="6.87312">
        <ele>1059.4000244141</ele>
        <time>2019-08-03T13:51:10.000Z</time>
      </trkpt>
      <trkpt lat="44.04322" lon="6.87311">
        <ele>1059.4000244141</ele>
        <time>2019-08-03T13:51:21.000Z</time>
      </trkpt>
      <trkpt lat="44.04321" lon="6.87312">
        <ele>1059.4000244141</ele>
        <time>2019-08-03T13:51:29.000Z</time>
      </trkpt>
      <trkpt lat="44.0432" lon="6.87312">
        <ele>1058.4000244141</ele>
        <time>2019-08-03T13:51:43.000Z</time>
      </trkpt>
      <trkpt lat="44.0432" lon="6.87312">
        <ele>1058.4000244141</ele>
        <time>2019-08-03T13:51:44.000Z</time>
      </trkpt>
      <trkpt lat="44.04319" lon="6.87313">
        <ele>1058.1999511719</ele>
        <time>2019-08-03T13:51:58.000Z</time>
      </trkpt>
      <trkpt lat="44.04319" lon="6.87313">
        <ele>1058.4000244141</ele>
        <time>2019-08-03T13:52:06.000Z</time>
      </trkpt>
      <trkpt lat="44.04319" lon="6.87313">
        <ele>1058.8000488281</ele>
        <time>2019-08-03T13:52:16.000Z</time>
      </trkpt>
      <trkpt lat="44.04319" lon="6.87312">
        <ele>1059</ele>
        <time>2019-08-03T13:52:26.000Z</time>
      </trkpt>
      <trkpt lat="44.04319" lon="6.87312">
        <ele>1059.1999511719</ele>
        <time>2019-08-03T13:52:32.000Z</time>
      </trkpt>
      <trkpt lat="44.04319" lon="6.87313">
        <ele>1058.8000488281</ele>
        <time>2019-08-03T13:52:40.000Z</time>
      </trkpt>
      <trkpt lat="44.04318" lon="6.87312">
        <ele>1059</ele>
        <time>2019-08-03T13:52:54.000Z</time>
      </trkpt>
      <trkpt lat="44.04318" lon="6.87312">
        <ele>1058.8000488281</ele>
        <time>2019-08-03T13:52:58.000Z</time>
      </trkpt>
      <trkpt lat="44.04317" lon="6.8731">
        <ele>1059.1999511719</ele>
        <time>2019-08-03T13:53:03.000Z</time>
      </trkpt>
      <trkpt lat="44.04317" lon="6.8731">
        <ele>1059.4000244141</ele>
        <time>2019-08-03T13:53:04.000Z</time>
      </trkpt>
      <trkpt lat="44.04317" lon="6.87307">
        <ele>1060</ele>
        <time>2019-08-03T13:53:10.000Z</time>
      </trkpt>
      <trkpt lat="44.04318" lon="6.87305">
        <ele>1060.4000244141</ele>
        <time>2019-08-03T13:53:13.000Z</time>
      </trkpt>
      <trkpt lat="44.04318" lon="6.87304">
        <ele>1061.1999511719</ele>
        <time>2019-08-03T13:53:18.000Z</time>
      </trkpt>
      <trkpt lat="44.04319" lon="6.87301">
        <ele>1061.4000244141</ele>
        <time>2019-08-03T13:53:21.000Z</time>
      </trkpt>
      <trkpt lat="44.04321" lon="6.873">
        <ele>1062</ele>
        <time>2019-08-03T13:53:25.000Z</time>
      </trkpt>
      <trkpt lat="44.04322" lon="6.87298">
        <ele>1062.1999511719</ele>
        <time>2019-08-03T13:53:28.000Z</time>
      </trkpt>
      <trkpt lat="44.04322" lon="6.87297">
        <ele>1062.4000244141</ele>
        <time>2019-08-03T13:53:30.000Z</time>
      </trkpt>
      <trkpt lat="44.04323" lon="6.87297">
        <ele>1062.5999755859</ele>
        <time>2019-08-03T13:53:31.000Z</time>
      </trkpt>
      <trkpt lat="44.04325" lon="6.87294">
        <ele>1063.4000244141</ele>
        <time>2019-08-03T13:53:35.000Z</time>
      </trkpt>
      <trkpt lat="44.04325" lon="6.87294">
        <ele>1063.5999755859</ele>
        <time>2019-08-03T13:53:36.000Z</time>
      </trkpt>
      <trkpt lat="44.04325" lon="6.87292">
        <ele>1064.8000488281</ele>
        <time>2019-08-03T13:53:41.000Z</time>
      </trkpt>
      <trkpt lat="44.04327" lon="6.87289">
        <ele>1065.4000244141</ele>
        <time>2019-08-03T13:53:48.000Z</time>
      </trkpt>
      <trkpt lat="44.04328" lon="6.87289">
        <ele>1065.4000244141</ele>
        <time>2019-08-03T13:53:50.000Z</time>
      </trkpt>
      <trkpt lat="44.04329" lon="6.8729">
        <ele>1065.8000488281</ele>
        <time>2019-08-03T13:53:53.000Z</time>
      </trkpt>
      <trkpt lat="44.0433" lon="6.8729">
        <ele>1066.1999511719</ele>
        <time>2019-08-03T13:53:54.000Z</time>
      </trkpt>
      <trkpt lat="44.04334" lon="6.87293">
        <ele>1066.4000244141</ele>
        <time>2019-08-03T13:53:59.000Z</time>
      </trkpt>
      <trkpt lat="44.04338" lon="6.87297">
        <ele>1066.5999755859</ele>
        <time>2019-08-03T13:54:04.000Z</time>
      </trkpt>
      <trkpt lat="44.04339" lon="6.87298">
        <ele>1066.5999755859</ele>
        <time>2019-08-03T13:54:10.000Z</time>
      </trkpt>
      <trkpt lat="44.04339" lon="6.87298">
        <ele>1067</ele>
        <time>2019-08-03T13:54:13.000Z</time>
      </trkpt>
      <trkpt lat="44.04339" lon="6.87297">
        <ele>1067.1999511719</ele>
        <time>2019-08-03T13:54:18.000Z</time>
      </trkpt>
      <trkpt lat="44.04339" lon="6.87297">
        <ele>1067.4000244141</ele>
        <time>2019-08-03T13:54:25.000Z</time>
      </trkpt>
      <trkpt lat="44.04338" lon="6.87296">
        <ele>1067.5999755859</ele>
        <time>2019-08-03T13:54:32.000Z</time>
      </trkpt>
      <trkpt lat="44.04337" lon="6.87297">
        <ele>1067.8000488281</ele>
        <time>2019-08-03T13:54:36.000Z</time>
      </trkpt>
      <trkpt lat="44.04338" lon="6.87297">
        <ele>1067.8000488281</ele>
        <time>2019-08-03T13:54:44.000Z</time>
      </trkpt>
      <trkpt lat="44.04338" lon="6.87297">
        <ele>1068</ele>
        <time>2019-08-03T13:54:46.000Z</time>
      </trkpt>
      <trkpt lat="44.04339" lon="6.87298">
        <ele>1068</ele>
        <time>2019-08-03T13:54:52.000Z</time>
      </trkpt>
      <trkpt lat="44.04339" lon="6.87297">
        <ele>1068.5999755859</ele>
        <time>2019-08-03T13:55:00.000Z</time>
      </trkpt>
      <trkpt lat="44.04339" lon="6.87297">
        <ele>1068.4000244141</ele>
        <time>2019-08-03T13:55:06.000Z</time>
      </trkpt>
      <trkpt lat="44.04339" lon="6.87297">
        <ele>1068</ele>
        <time>2019-08-03T13:55:13.000Z</time>
      </trkpt>
      <trkpt lat="44.04339" lon="6.87297">
        <ele>1068.1999511719</ele>
        <time>2019-08-03T13:55:19.000Z</time>
      </trkpt>
      <trkpt lat="44.0434" lon="6.87297">
        <ele>1067.8000488281</ele>
        <time>2019-08-03T13:55:26.000Z</time>
      </trkpt>
      <trkpt lat="44.04341" lon="6.87297">
        <ele>1068</ele>
        <time>2019-08-03T13:55:38.000Z</time>
      </trkpt>
      <trkpt lat="44.04342" lon="6.87298">
        <ele>1067.8000488281</ele>
        <time>2019-08-03T13:55:46.000Z</time>
      </trkpt>
      <trkpt lat="44.04344" lon="6.87298">
        <ele>1068</ele>
        <time>2019-08-03T13:55:48.000Z</time>
      </trkpt>
      <trkpt lat="44.04345" lon="6.87299">
        <ele>1068.1999511719</ele>
        <time>2019-08-03T13:55:50.000Z</time>
      </trkpt>
      <trkpt lat="44.04346" lon="6.873">
        <ele>1068.1999511719</ele>
        <time>2019-08-03T13:55:52.000Z</time>
      </trkpt>
      <trkpt lat="44.04344" lon="6.87306">
        <ele>1069.1999511719</ele>
        <time>2019-08-03T13:55:58.000Z</time>
      </trkpt>
      <trkpt lat="44.04343" lon="6.8731">
        <ele>1070.1999511719</ele>
        <time>2019-08-03T13:56:02.000Z</time>
      </trkpt>
      <trkpt lat="44.04342" lon="6.87312">
        <ele>1070.5999755859</ele>
        <time>2019-08-03T13:56:04.000Z</time>
      </trkpt>
      <trkpt lat="44.04341" lon="6.87316">
        <ele>1071.4000244141</ele>
        <time>2019-08-03T13:56:07.000Z</time>
      </trkpt>
      <trkpt lat="44.04341" lon="6.87322">
        <ele>1072</ele>
        <time>2019-08-03T13:56:12.000Z</time>
      </trkpt>
      <trkpt lat="44.04341" lon="6.87326">
        <ele>1072.5999755859</ele>
        <time>2019-08-03T13:56:15.000Z</time>
      </trkpt>
      <trkpt lat="44.04341" lon="6.87328">
        <ele>1073.1999511719</ele>
        <time>2019-08-03T13:56:19.000Z</time>
      </trkpt>
      <trkpt lat="44.0434" lon="6.87332">
        <ele>1073.5999755859</ele>
        <time>2019-08-03T13:56:24.000Z</time>
      </trkpt>
      <trkpt lat="44.0434" lon="6.87333">
        <ele>1073.8000488281</ele>
        <time>2019-08-03T13:56:25.000Z</time>
      </trkpt>
      <trkpt lat="44.04338" lon="6.87337">
        <ele>1074.5999755859</ele>
        <time>2019-08-03T13:56:30.000Z</time>
      </trkpt>
      <trkpt lat="44.04337" lon="6.87339">
        <ele>1075.1999511719</ele>
        <time>2019-08-03T13:56:33.000Z</time>
      </trkpt>
      <trkpt lat="44.04337" lon="6.87341">
        <ele>1075.8000488281</ele>
        <time>2019-08-03T13:56:35.000Z</time>
      </trkpt>
      <trkpt lat="44.04338" lon="6.87345">
        <ele>1076.8000488281</ele>
        <time>2019-08-03T13:56:40.000Z</time>
      </trkpt>
      <trkpt lat="44.04338" lon="6.87346">
        <ele>1077</ele>
        <time>2019-08-03T13:56:41.000Z</time>
      </trkpt>
      <trkpt lat="44.0434" lon="6.87346">
        <ele>1078</ele>
        <time>2019-08-03T13:56:48.000Z</time>
      </trkpt>
      <trkpt lat="44.04342" lon="6.87342">
        <ele>1079</ele>
        <time>2019-08-03T13:56:54.000Z</time>
      </trkpt>
      <trkpt lat="44.04343" lon="6.8734">
        <ele>1079.1999511719</ele>
        <time>2019-08-03T13:56:56.000Z</time>
      </trkpt>
      <trkpt lat="44.04347" lon="6.87337">
        <ele>1080</ele>
        <time>2019-08-03T13:57:03.000Z</time>
      </trkpt>
      <trkpt lat="44.04347" lon="6.87336">
        <ele>1080</ele>
        <time>2019-08-03T13:57:04.000Z</time>
      </trkpt>
      <trkpt lat="44.04351" lon="6.87331">
        <ele>1081</ele>
        <time>2019-08-03T13:57:10.000Z</time>
      </trkpt>
      <trkpt lat="44.04352" lon="6.8733">
        <ele>1081.1999511719</ele>
        <time>2019-08-03T13:57:11.000Z</time>
      </trkpt>
      <trkpt lat="44.04354" lon="6.87326">
        <ele>1081.1999511719</ele>
        <time>2019-08-03T13:57:16.000Z</time>
      </trkpt>
      <trkpt lat="44.04359" lon="6.87321">
        <ele>1082.1999511719</ele>
        <time>2019-08-03T13:57:23.000Z</time>
      </trkpt>
      <trkpt lat="44.0436" lon="6.8732">
        <ele>1082.4000244141</ele>
        <time>2019-08-03T13:57:25.000Z</time>
      </trkpt>
      <trkpt lat="44.04362" lon="6.87318">
        <ele>1083.1999511719</ele>
        <time>2019-08-03T13:57:30.000Z</time>
      </trkpt>
      <trkpt lat="44.04363" lon="6.87317">
        <ele>1083.1999511719</ele>
        <time>2019-08-03T13:57:31.000Z</time>
      </trkpt>
      <trkpt lat="44.04368" lon="6.87312">
        <ele>1084</ele>
        <time>2019-08-03T13:57:39.000Z</time>
      </trkpt>
      <trkpt lat="44.04369" lon="6.8731">
        <ele>1084.1999511719</ele>
        <time>2019-08-03T13:57:41.000Z</time>
      </trkpt>
      <trkpt lat="44.04372" lon="6.87305">
        <ele>1085.1999511719</ele>
        <time>2019-08-03T13:57:48.000Z</time>
      </trkpt>
      <trkpt lat="44.04377" lon="6.87295">
        <ele>1086</ele>
        <time>2019-08-03T13:57:56.000Z</time>
      </trkpt>
      <trkpt lat="44.04377" lon="6.87293">
        <ele>1086.1999511719</ele>
        <time>2019-08-03T13:57:58.000Z</time>
      </trkpt>
      <trkpt lat="44.0438" lon="6.87286">
        <ele>1087.1999511719</ele>
        <time>2019-08-03T13:58:04.000Z</time>
      </trkpt>
      <trkpt lat="44.0438" lon="6.87285">
        <ele>1087.1999511719</ele>
        <time>2019-08-03T13:58:05.000Z</time>
      </trkpt>
      <trkpt lat="44.04381" lon="6.87282">
        <ele>1087.5999755859</ele>
        <time>2019-08-03T13:58:07.000Z</time>
      </trkpt>
      <trkpt lat="44.04381" lon="6.87276">
        <ele>1087.5999755859</ele>
        <time>2019-08-03T13:58:10.000Z</time>
      </trkpt>
      <trkpt lat="44.04381" lon="6.87275">
        <ele>1087.4000244141</ele>
        <time>2019-08-03T13:58:11.000Z</time>
      </trkpt>
      <trkpt lat="44.04382" lon="6.87272">
        <ele>1087.5999755859</ele>
        <time>2019-08-03T13:58:13.000Z</time>
      </trkpt>
      <trkpt lat="44.04384" lon="6.87267">
        <ele>1088.1999511719</ele>
        <time>2019-08-03T13:58:17.000Z</time>
      </trkpt>
      <trkpt lat="44.04384" lon="6.87266">
        <ele>1088.4000244141</ele>
        <time>2019-08-03T13:58:18.000Z</time>
      </trkpt>
      <trkpt lat="44.04391" lon="6.87256">
        <ele>1088.1999511719</ele>
        <time>2019-08-03T13:58:25.000Z</time>
      </trkpt>
      <trkpt lat="44.04397" lon="6.87245">
        <ele>1087.8000488281</ele>
        <time>2019-08-03T13:58:33.000Z</time>
      </trkpt>
      <trkpt lat="44.04399" lon="6.87236">
        <ele>1088.4000244141</ele>
        <time>2019-08-03T13:58:40.000Z</time>
      </trkpt>
      <trkpt lat="44.044" lon="6.8723">
        <ele>1089.5999755859</ele>
        <time>2019-08-03T13:58:44.000Z</time>
      </trkpt>
      <trkpt lat="44.04401" lon="6.87226">
        <ele>1089.8000488281</ele>
        <time>2019-08-03T13:58:47.000Z</time>
      </trkpt>
      <trkpt lat="44.044" lon="6.87218">
        <ele>1090.5999755859</ele>
        <time>2019-08-03T13:58:53.000Z</time>
      </trkpt>
      <trkpt lat="44.04401" lon="6.87216">
        <ele>1090.8000488281</ele>
        <time>2019-08-03T13:58:55.000Z</time>
      </trkpt>
      <trkpt lat="44.04404" lon="6.87211">
        <ele>1091.8000488281</ele>
        <time>2019-08-03T13:59:00.000Z</time>
      </trkpt>
      <trkpt lat="44.04405" lon="6.87209">
        <ele>1092</ele>
        <time>2019-08-03T13:59:03.000Z</time>
      </trkpt>
      <trkpt lat="44.04406" lon="6.87204">
        <ele>1092.8000488281</ele>
        <time>2019-08-03T13:59:09.000Z</time>
      </trkpt>
      <trkpt lat="44.04406" lon="6.87203">
        <ele>1093</ele>
        <time>2019-08-03T13:59:10.000Z</time>
      </trkpt>
      <trkpt lat="44.04407" lon="6.87202">
        <ele>1093.1999511719</ele>
        <time>2019-08-03T13:59:11.000Z</time>
      </trkpt>
      <trkpt lat="44.04409" lon="6.87199">
        <ele>1093.8000488281</ele>
        <time>2019-08-03T13:59:15.000Z</time>
      </trkpt>
      <trkpt lat="44.04414" lon="6.87196">
        <ele>1094.4000244141</ele>
        <time>2019-08-03T13:59:20.000Z</time>
      </trkpt>
      <trkpt lat="44.04419" lon="6.87192">
        <ele>1094.8000488281</ele>
        <time>2019-08-03T13:59:27.000Z</time>
      </trkpt>
      <trkpt lat="44.04421" lon="6.87192">
        <ele>1095</ele>
        <time>2019-08-03T13:59:29.000Z</time>
      </trkpt>
      <trkpt lat="44.04424" lon="6.87192">
        <ele>1095.1999511719</ele>
        <time>2019-08-03T13:59:34.000Z</time>
      </trkpt>
      <trkpt lat="44.04424" lon="6.87192">
        <ele>1095.4000244141</ele>
        <time>2019-08-03T13:59:48.000Z</time>
      </trkpt>
      <trkpt lat="44.04425" lon="6.87192">
        <ele>1095.4000244141</ele>
        <time>2019-08-03T14:00:00.000Z</time>
      </trkpt>
      <trkpt lat="44.04425" lon="6.87192">
        <ele>1094.8000488281</ele>
        <time>2019-08-03T14:00:24.000Z</time>
      </trkpt>
      <trkpt lat="44.04424" lon="6.87192">
        <ele>1094.8000488281</ele>
        <time>2019-08-03T14:00:34.000Z</time>
      </trkpt>
      <trkpt lat="44.04422" lon="6.87193">
        <ele>1095</ele>
        <time>2019-08-03T14:00:46.000Z</time>
      </trkpt>
      <trkpt lat="44.0442" lon="6.87193">
        <ele>1095</ele>
        <time>2019-08-03T14:00:48.000Z</time>
      </trkpt>
      <trkpt lat="44.04416" lon="6.87196">
        <ele>1094.4000244141</ele>
        <time>2019-08-03T14:00:52.000Z</time>
      </trkpt>
      <trkpt lat="44.04412" lon="6.87198">
        <ele>1093.8000488281</ele>
        <time>2019-08-03T14:00:55.000Z</time>
      </trkpt>
      <trkpt lat="44.0441" lon="6.872">
        <ele>1092.5999755859</ele>
        <time>2019-08-03T14:00:58.000Z</time>
      </trkpt>
      <trkpt lat="44.04412" lon="6.87198">
        <ele>1092.8000488281</ele>
        <time>2019-08-03T14:01:03.000Z</time>
      </trkpt>
      <trkpt lat="44.04417" lon="6.87196">
        <ele>1093.8000488281</ele>
        <time>2019-08-03T14:01:08.000Z</time>
      </trkpt>
      <trkpt lat="44.04417" lon="6.87196">
        <ele>1093.8000488281</ele>
        <time>2019-08-03T14:01:09.000Z</time>
      </trkpt>
      <trkpt lat="44.04422" lon="6.87193">
        <ele>1094.5999755859</ele>
        <time>2019-08-03T14:01:14.000Z</time>
      </trkpt>
      <trkpt lat="44.04423" lon="6.87194">
        <ele>1094.8000488281</ele>
        <time>2019-08-03T14:01:15.000Z</time>
      </trkpt>
      <trkpt lat="44.04423" lon="6.87194">
        <ele>1094.8000488281</ele>
        <time>2019-08-03T14:01:16.000Z</time>
      </trkpt>
      <trkpt lat="44.04424" lon="6.87195">
        <ele>1095</ele>
        <time>2019-08-03T14:01:21.000Z</time>
      </trkpt>
      <trkpt lat="44.04424" lon="6.87194">
        <ele>1094.5999755859</ele>
        <time>2019-08-03T14:01:28.000Z</time>
      </trkpt>
      <trkpt lat="44.0443" lon="6.87191">
        <ele>1094.8000488281</ele>
        <time>2019-08-03T14:01:33.000Z</time>
      </trkpt>
      <trkpt lat="44.04432" lon="6.8719">
        <ele>1094.8000488281</ele>
        <time>2019-08-03T14:01:35.000Z</time>
      </trkpt>
      <trkpt lat="44.04435" lon="6.87189">
        <ele>1094.8000488281</ele>
        <time>2019-08-03T14:01:38.000Z</time>
      </trkpt>
      <trkpt lat="44.04446" lon="6.87183">
        <ele>1094.8000488281</ele>
        <time>2019-08-03T14:01:45.000Z</time>
      </trkpt>
      <trkpt lat="44.04452" lon="6.8718">
        <ele>1095.1999511719</ele>
        <time>2019-08-03T14:01:50.000Z</time>
      </trkpt>
      <trkpt lat="44.04461" lon="6.87183">
        <ele>1095.4000244141</ele>
        <time>2019-08-03T14:01:55.000Z</time>
      </trkpt>
      <trkpt lat="44.04471" lon="6.87187">
        <ele>1094.8000488281</ele>
        <time>2019-08-03T14:02:00.000Z</time>
      </trkpt>
      <trkpt lat="44.04477" lon="6.87189">
        <ele>1095.5999755859</ele>
        <time>2019-08-03T14:02:04.000Z</time>
      </trkpt>
      <trkpt lat="44.04481" lon="6.87192">
        <ele>1095.8000488281</ele>
        <time>2019-08-03T14:02:06.000Z</time>
      </trkpt>
      <trkpt lat="44.0449" lon="6.872">
        <ele>1095.4000244141</ele>
        <time>2019-08-03T14:02:11.000Z</time>
      </trkpt>
      <trkpt lat="44.045" lon="6.87207">
        <ele>1095.4000244141</ele>
        <time>2019-08-03T14:02:17.000Z</time>
      </trkpt>
      <trkpt lat="44.04503" lon="6.87218">
        <ele>1095.8000488281</ele>
        <time>2019-08-03T14:02:22.000Z</time>
      </trkpt>
      <trkpt lat="44.04509" lon="6.87227">
        <ele>1096</ele>
        <time>2019-08-03T14:02:27.000Z</time>
      </trkpt>
      <trkpt lat="44.04519" lon="6.87232">
        <ele>1096</ele>
        <time>2019-08-03T14:02:32.000Z</time>
      </trkpt>
      <trkpt lat="44.04528" lon="6.87236">
        <ele>1096.4000244141</ele>
        <time>2019-08-03T14:02:37.000Z</time>
      </trkpt>
      <trkpt lat="44.04539" lon="6.8724">
        <ele>1096</ele>
        <time>2019-08-03T14:02:42.000Z</time>
      </trkpt>
      <trkpt lat="44.04542" lon="6.87239">
        <ele>1096</ele>
        <time>2019-08-03T14:02:44.000Z</time>
      </trkpt>
      <trkpt lat="44.04543" lon="6.87237">
        <ele>1095.8000488281</ele>
        <time>2019-08-03T14:02:46.000Z</time>
      </trkpt>
      <trkpt lat="44.04547" lon="6.8723">
        <ele>1096.1999511719</ele>
        <time>2019-08-03T14:02:51.000Z</time>
      </trkpt>
      <trkpt lat="44.04556" lon="6.87225">
        <ele>1096.8000488281</ele>
        <time>2019-08-03T14:02:56.000Z</time>
      </trkpt>
      <trkpt lat="44.04559" lon="6.87224">
        <ele>1097</ele>
        <time>2019-08-03T14:02:57.000Z</time>
      </trkpt>
      <trkpt lat="44.04581" lon="6.87215">
        <ele>1097</ele>
        <time>2019-08-03T14:03:04.000Z</time>
      </trkpt>
      <trkpt lat="44.04594" lon="6.87207">
        <ele>1096.8000488281</ele>
        <time>2019-08-03T14:03:10.000Z</time>
      </trkpt>
      <trkpt lat="44.04609" lon="6.87203">
        <ele>1096.8000488281</ele>
        <time>2019-08-03T14:03:15.000Z</time>
      </trkpt>
      <trkpt lat="44.04622" lon="6.872">
        <ele>1096.8000488281</ele>
        <time>2019-08-03T14:03:21.000Z</time>
      </trkpt>
      <trkpt lat="44.04636" lon="6.87196">
        <ele>1097.5999755859</ele>
        <time>2019-08-03T14:03:26.000Z</time>
      </trkpt>
      <trkpt lat="44.04639" lon="6.87196">
        <ele>1097.4000244141</ele>
        <time>2019-08-03T14:03:30.000Z</time>
      </trkpt>
      <trkpt lat="44.0464" lon="6.87197">
        <ele>1098</ele>
        <time>2019-08-03T14:03:34.000Z</time>
      </trkpt>
      <trkpt lat="44.04642" lon="6.87196">
        <ele>1098.1999511719</ele>
        <time>2019-08-03T14:03:37.000Z</time>
      </trkpt>
      <trkpt lat="44.04643" lon="6.87196">
        <ele>1098.1999511719</ele>
        <time>2019-08-03T14:03:38.000Z</time>
      </trkpt>
      <trkpt lat="44.04646" lon="6.87194">
        <ele>1099.1999511719</ele>
        <time>2019-08-03T14:03:42.000Z</time>
      </trkpt>
      <trkpt lat="44.04647" lon="6.87193">
        <ele>1100.4000244141</ele>
        <time>2019-08-03T14:03:46.000Z</time>
      </trkpt>
      <trkpt lat="44.0465" lon="6.87192">
        <ele>1101</ele>
        <time>2019-08-03T14:03:52.000Z</time>
      </trkpt>
      <trkpt lat="44.04652" lon="6.87191">
        <ele>1101</ele>
        <time>2019-08-03T14:03:53.000Z</time>
      </trkpt>
      <trkpt lat="44.04659" lon="6.87179">
        <ele>1100.4000244141</ele>
        <time>2019-08-03T14:03:57.000Z</time>
      </trkpt>
      <trkpt lat="44.0466" lon="6.87174">
        <ele>1099.1999511719</ele>
        <time>2019-08-03T14:03:59.000Z</time>
      </trkpt>
      <trkpt lat="44.04658" lon="6.87169">
        <ele>1098.1999511719</ele>
        <time>2019-08-03T14:04:01.000Z</time>
      </trkpt>
      <trkpt lat="44.04655" lon="6.87159">
        <ele>1098.1999511719</ele>
        <time>2019-08-03T14:04:05.000Z</time>
      </trkpt>
      <trkpt lat="44.04653" lon="6.87156">
        <ele>1098.4000244141</ele>
        <time>2019-08-03T14:04:06.000Z</time>
      </trkpt>
      <trkpt lat="44.04647" lon="6.8714">
        <ele>1099.1999511719</ele>
        <time>2019-08-03T14:04:12.000Z</time>
      </trkpt>
      <trkpt lat="44.0464" lon="6.87126">
        <ele>1099.1999511719</ele>
        <time>2019-08-03T14:04:17.000Z</time>
      </trkpt>
      <trkpt lat="44.04632" lon="6.87117">
        <ele>1098.8000488281</ele>
        <time>2019-08-03T14:04:21.000Z</time>
      </trkpt>
      <trkpt lat="44.04631" lon="6.87116">
        <ele>1098.5999755859</ele>
        <time>2019-08-03T14:04:22.000Z</time>
      </trkpt>
      <trkpt lat="44.04628" lon="6.87108">
        <ele>1098.4000244141</ele>
        <time>2019-08-03T14:04:25.000Z</time>
      </trkpt>
      <trkpt lat="44.04619" lon="6.871">
        <ele>1098.8000488281</ele>
        <time>2019-08-03T14:04:29.000Z</time>
      </trkpt>
      <trkpt lat="44.04616" lon="6.87097">
        <ele>1098.5999755859</ele>
        <time>2019-08-03T14:04:31.000Z</time>
      </trkpt>
      <trkpt lat="44.04614" lon="6.87092">
        <ele>1099</ele>
        <time>2019-08-03T14:04:34.000Z</time>
      </trkpt>
      <trkpt lat="44.04613" lon="6.87088">
        <ele>1099.4000244141</ele>
        <time>2019-08-03T14:04:35.000Z</time>
      </trkpt>
      <trkpt lat="44.04612" lon="6.87079">
        <ele>1100</ele>
        <time>2019-08-03T14:04:38.000Z</time>
      </trkpt>
      <trkpt lat="44.04608" lon="6.87066">
        <ele>1099.1999511719</ele>
        <time>2019-08-03T14:04:42.000Z</time>
      </trkpt>
      <trkpt lat="44.046" lon="6.87049">
        <ele>1099</ele>
        <time>2019-08-03T14:04:49.000Z</time>
      </trkpt>
      <trkpt lat="44.04595" lon="6.87033">
        <ele>1099</ele>
        <time>2019-08-03T14:04:55.000Z</time>
      </trkpt>
      <trkpt lat="44.04596" lon="6.87018">
        <ele>1099.8000488281</ele>
        <time>2019-08-03T14:05:00.000Z</time>
      </trkpt>
      <trkpt lat="44.04598" lon="6.87016">
        <ele>1099.8000488281</ele>
        <time>2019-08-03T14:05:01.000Z</time>
      </trkpt>
      <trkpt lat="44.04602" lon="6.87013">
        <ele>1100</ele>
        <time>2019-08-03T14:05:03.000Z</time>
      </trkpt>
      <trkpt lat="44.04604" lon="6.87012">
        <ele>1100</ele>
        <time>2019-08-03T14:05:04.000Z</time>
      </trkpt>
      <trkpt lat="44.04614" lon="6.87006">
        <ele>1100.1999511719</ele>
        <time>2019-08-03T14:05:09.000Z</time>
      </trkpt>
      <trkpt lat="44.04616" lon="6.87005">
        <ele>1100.4000244141</ele>
        <time>2019-08-03T14:05:10.000Z</time>
      </trkpt>
      <trkpt lat="44.0462" lon="6.86999">
        <ele>1100.4000244141</ele>
        <time>2019-08-03T14:05:12.000Z</time>
      </trkpt>
      <trkpt lat="44.04624" lon="6.86994">
        <ele>1100.5999755859</ele>
        <time>2019-08-03T14:05:14.000Z</time>
      </trkpt>
      <trkpt lat="44.04629" lon="6.86991">
        <ele>1100.5999755859</ele>
        <time>2019-08-03T14:05:16.000Z</time>
      </trkpt>
      <trkpt lat="44.04631" lon="6.86987">
        <ele>1100.8000488281</ele>
        <time>2019-08-03T14:05:18.000Z</time>
      </trkpt>
      <trkpt lat="44.04632" lon="6.86984">
        <ele>1100.5999755859</ele>
        <time>2019-08-03T14:05:19.000Z</time>
      </trkpt>
      <trkpt lat="44.04639" lon="6.86968">
        <ele>1101</ele>
        <time>2019-08-03T14:05:24.000Z</time>
      </trkpt>
      <trkpt lat="44.04642" lon="6.86965">
        <ele>1101.1999511719</ele>
        <time>2019-08-03T14:05:25.000Z</time>
      </trkpt>
      <trkpt lat="44.04646" lon="6.86958">
        <ele>1101.1999511719</ele>
        <time>2019-08-03T14:05:28.000Z</time>
      </trkpt>
      <trkpt lat="44.04654" lon="6.86953">
        <ele>1101.4000244141</ele>
        <time>2019-08-03T14:05:31.000Z</time>
      </trkpt>
      <trkpt lat="44.0466" lon="6.86951">
        <ele>1101.1999511719</ele>
        <time>2019-08-03T14:05:34.000Z</time>
      </trkpt>
      <trkpt lat="44.04665" lon="6.86949">
        <ele>1101.5999755859</ele>
        <time>2019-08-03T14:05:39.000Z</time>
      </trkpt>
      <trkpt lat="44.04672" lon="6.86949">
        <ele>1102.4000244141</ele>
        <time>2019-08-03T14:05:44.000Z</time>
      </trkpt>
      <trkpt lat="44.04675" lon="6.86951">
        <ele>1103.4000244141</ele>
        <time>2019-08-03T14:05:46.000Z</time>
      </trkpt>
      <trkpt lat="44.04681" lon="6.86956">
        <ele>1104.4000244141</ele>
        <time>2019-08-03T14:05:49.000Z</time>
      </trkpt>
      <trkpt lat="44.0469" lon="6.86958">
        <ele>1103.8000488281</ele>
        <time>2019-08-03T14:05:53.000Z</time>
      </trkpt>
      <trkpt lat="44.04698" lon="6.86959">
        <ele>1103.5999755859</ele>
        <time>2019-08-03T14:05:57.000Z</time>
      </trkpt>
      <trkpt lat="44.04705" lon="6.86958">
        <ele>1104</ele>
        <time>2019-08-03T14:06:02.000Z</time>
      </trkpt>
      <trkpt lat="44.04706" lon="6.86956">
        <ele>1104.1999511719</ele>
        <time>2019-08-03T14:06:03.000Z</time>
      </trkpt>
      <trkpt lat="44.04707" lon="6.86951">
        <ele>1104.1999511719</ele>
        <time>2019-08-03T14:06:07.000Z</time>
      </trkpt>
      <trkpt lat="44.04707" lon="6.86949">
        <ele>1104.5999755859</ele>
        <time>2019-08-03T14:06:08.000Z</time>
      </trkpt>
      <trkpt lat="44.04706" lon="6.86946">
        <ele>1105.4000244141</ele>
        <time>2019-08-03T14:06:12.000Z</time>
      </trkpt>
      <trkpt lat="44.04705" lon="6.86943">
        <ele>1105.4000244141</ele>
        <time>2019-08-03T14:06:17.000Z</time>
      </trkpt>
      <trkpt lat="44.04701" lon="6.86934">
        <ele>1105.4000244141</ele>
        <time>2019-08-03T14:06:21.000Z</time>
      </trkpt>
      <trkpt lat="44.04701" lon="6.86933">
        <ele>1105.5999755859</ele>
        <time>2019-08-03T14:06:22.000Z</time>
      </trkpt>
      <trkpt lat="44.04699" lon="6.86928">
        <ele>1106</ele>
        <time>2019-08-03T14:06:26.000Z</time>
      </trkpt>
      <trkpt lat="44.04699" lon="6.86927">
        <ele>1106.5999755859</ele>
        <time>2019-08-03T14:06:29.000Z</time>
      </trkpt>
      <trkpt lat="44.04699" lon="6.86926">
        <ele>1107</ele>
        <time>2019-08-03T14:06:32.000Z</time>
      </trkpt>
      <trkpt lat="44.04695" lon="6.86922">
        <ele>1107.8000488281</ele>
        <time>2019-08-03T14:06:39.000Z</time>
      </trkpt>
      <trkpt lat="44.04695" lon="6.86921">
        <ele>1108</ele>
        <time>2019-08-03T14:06:40.000Z</time>
      </trkpt>
      <trkpt lat="44.04695" lon="6.86918">
        <ele>1108.8000488281</ele>
        <time>2019-08-03T14:06:43.000Z</time>
      </trkpt>
      <trkpt lat="44.04695" lon="6.86916">
        <ele>1109</ele>
        <time>2019-08-03T14:06:46.000Z</time>
      </trkpt>
      <trkpt lat="44.04696" lon="6.86913">
        <ele>1109.1999511719</ele>
        <time>2019-08-03T14:06:55.000Z</time>
      </trkpt>
      <trkpt lat="44.04696" lon="6.86909">
        <ele>1109.4000244141</ele>
        <time>2019-08-03T14:07:00.000Z</time>
      </trkpt>
      <trkpt lat="44.04696" lon="6.86907">
        <ele>1109.4000244141</ele>
        <time>2019-08-03T14:07:01.000Z</time>
      </trkpt>
      <trkpt lat="44.04698" lon="6.8689">
        <ele>1108.5999755859</ele>
        <time>2019-08-03T14:07:07.000Z</time>
      </trkpt>
      <trkpt lat="44.04698" lon="6.86875">
        <ele>1108</ele>
        <time>2019-08-03T14:07:12.000Z</time>
      </trkpt>
      <trkpt lat="44.04697" lon="6.86872">
        <ele>1107.5999755859</ele>
        <time>2019-08-03T14:07:13.000Z</time>
      </trkpt>
      <trkpt lat="44.04697" lon="6.86869">
        <ele>1107.5999755859</ele>
        <time>2019-08-03T14:07:16.000Z</time>
      </trkpt>
      <trkpt lat="44.04697" lon="6.86867">
        <ele>1107.8000488281</ele>
        <time>2019-08-03T14:07:17.000Z</time>
      </trkpt>
      <trkpt lat="44.047" lon="6.86863">
        <ele>1108.4000244141</ele>
        <time>2019-08-03T14:07:20.000Z</time>
      </trkpt>
      <trkpt lat="44.04704" lon="6.8686">
        <ele>1108.5999755859</ele>
        <time>2019-08-03T14:07:22.000Z</time>
      </trkpt>
      <trkpt lat="44.04714" lon="6.86852">
        <ele>1108.4000244141</ele>
        <time>2019-08-03T14:07:25.000Z</time>
      </trkpt>
      <trkpt lat="44.04728" lon="6.86848">
        <ele>1107.4000244141</ele>
        <time>2019-08-03T14:07:29.000Z</time>
      </trkpt>
      <trkpt lat="44.04733" lon="6.86847">
        <ele>1105.8000488281</ele>
        <time>2019-08-03T14:07:32.000Z</time>
      </trkpt>
      <trkpt lat="44.04735" lon="6.86846">
        <ele>1105.5999755859</ele>
        <time>2019-08-03T14:07:33.000Z</time>
      </trkpt>
      <trkpt lat="44.04746" lon="6.8684">
        <ele>1106</ele>
        <time>2019-08-03T14:07:38.000Z</time>
      </trkpt>
      <trkpt lat="44.0475" lon="6.8684">
        <ele>1104.8000488281</ele>
        <time>2019-08-03T14:07:42.000Z</time>
      </trkpt>
      <trkpt lat="44.04751" lon="6.86835">
        <ele>1104.1999511719</ele>
        <time>2019-08-03T14:07:48.000Z</time>
      </trkpt>
      <trkpt lat="44.04752" lon="6.86832">
        <ele>1104.1999511719</ele>
        <time>2019-08-03T14:07:51.000Z</time>
      </trkpt>
      <trkpt lat="44.04754" lon="6.8683">
        <ele>1104.8000488281</ele>
        <time>2019-08-03T14:07:54.000Z</time>
      </trkpt>
      <trkpt lat="44.04759" lon="6.86823">
        <ele>1105.4000244141</ele>
        <time>2019-08-03T14:07:58.000Z</time>
      </trkpt>
      <trkpt lat="44.04768" lon="6.86816">
        <ele>1105.5999755859</ele>
        <time>2019-08-03T14:08:02.000Z</time>
      </trkpt>
      <trkpt lat="44.04778" lon="6.86804">
        <ele>1105</ele>
        <time>2019-08-03T14:08:06.000Z</time>
      </trkpt>
      <trkpt lat="44.04781" lon="6.86794">
        <ele>1104.4000244141</ele>
        <time>2019-08-03T14:08:10.000Z</time>
      </trkpt>
      <trkpt lat="44.04784" lon="6.86777">
        <ele>1104.5999755859</ele>
        <time>2019-08-03T14:08:16.000Z</time>
      </trkpt>
      <trkpt lat="44.04788" lon="6.86761">
        <ele>1104.8000488281</ele>
        <time>2019-08-03T14:08:21.000Z</time>
      </trkpt>
      <trkpt lat="44.04781" lon="6.86752">
        <ele>1104.1999511719</ele>
        <time>2019-08-03T14:08:25.000Z</time>
      </trkpt>
      <trkpt lat="44.04776" lon="6.86745">
        <ele>1104.1999511719</ele>
        <time>2019-08-03T14:08:28.000Z</time>
      </trkpt>
      <trkpt lat="44.04772" lon="6.86737">
        <ele>1104.1999511719</ele>
        <time>2019-08-03T14:08:31.000Z</time>
      </trkpt>
      <trkpt lat="44.04771" lon="6.86736">
        <ele>1104.1999511719</ele>
        <time>2019-08-03T14:08:32.000Z</time>
      </trkpt>
      <trkpt lat="44.04765" lon="6.8673">
        <ele>1104.1999511719</ele>
        <time>2019-08-03T14:08:35.000Z</time>
      </trkpt>
      <trkpt lat="44.04766" lon="6.86714">
        <ele>1104.1999511719</ele>
        <time>2019-08-03T14:08:40.000Z</time>
      </trkpt>
      <trkpt lat="44.04773" lon="6.86694">
        <ele>1103.8000488281</ele>
        <time>2019-08-03T14:08:46.000Z</time>
      </trkpt>
      <trkpt lat="44.04778" lon="6.86679">
        <ele>1103.5999755859</ele>
        <time>2019-08-03T14:08:51.000Z</time>
      </trkpt>
      <trkpt lat="44.0478" lon="6.86676">
        <ele>1103.5999755859</ele>
        <time>2019-08-03T14:08:52.000Z</time>
      </trkpt>
      <trkpt lat="44.0479" lon="6.86656">
        <ele>1103.1999511719</ele>
        <time>2019-08-03T14:08:58.000Z</time>
      </trkpt>
      <trkpt lat="44.04797" lon="6.86637">
        <ele>1102.8000488281</ele>
        <time>2019-08-03T14:09:03.000Z</time>
      </trkpt>
      <trkpt lat="44.048" lon="6.86628">
        <ele>1102.5999755859</ele>
        <time>2019-08-03T14:09:05.000Z</time>
      </trkpt>
      <trkpt lat="44.04806" lon="6.86615">
        <ele>1102.4000244141</ele>
        <time>2019-08-03T14:09:08.000Z</time>
      </trkpt>
      <trkpt lat="44.0482" lon="6.86592">
        <ele>1102</ele>
        <time>2019-08-03T14:09:14.000Z</time>
      </trkpt>
      <trkpt lat="44.04825" lon="6.86583">
        <ele>1101.4000244141</ele>
        <time>2019-08-03T14:09:17.000Z</time>
      </trkpt>
      <trkpt lat="44.04829" lon="6.86577">
        <ele>1101</ele>
        <time>2019-08-03T14:09:19.000Z</time>
      </trkpt>
      <trkpt lat="44.0484" lon="6.86565">
        <ele>1101.4000244141</ele>
        <time>2019-08-03T14:09:24.000Z</time>
      </trkpt>
      <trkpt lat="44.04846" lon="6.86559">
        <ele>1101</ele>
        <time>2019-08-03T14:09:27.000Z</time>
      </trkpt>
      <trkpt lat="44.04849" lon="6.86554">
        <ele>1100.5999755859</ele>
        <time>2019-08-03T14:09:29.000Z</time>
      </trkpt>
      <trkpt lat="44.04862" lon="6.86545">
        <ele>1100.8000488281</ele>
        <time>2019-08-03T14:09:35.000Z</time>
      </trkpt>
      <trkpt lat="44.04878" lon="6.86543">
        <ele>1101.4000244141</ele>
        <time>2019-08-03T14:09:41.000Z</time>
      </trkpt>
      <trkpt lat="44.04887" lon="6.8654">
        <ele>1101.4000244141</ele>
        <time>2019-08-03T14:09:45.000Z</time>
      </trkpt>
      <trkpt lat="44.04898" lon="6.86541">
        <ele>1101.1999511719</ele>
        <time>2019-08-03T14:09:49.000Z</time>
      </trkpt>
      <trkpt lat="44.04901" lon="6.86539">
        <ele>1101</ele>
        <time>2019-08-03T14:09:50.000Z</time>
      </trkpt>
      <trkpt lat="44.04908" lon="6.86537">
        <ele>1101</ele>
        <time>2019-08-03T14:09:53.000Z</time>
      </trkpt>
      <trkpt lat="44.04913" lon="6.86538">
        <ele>1101.1999511719</ele>
        <time>2019-08-03T14:09:55.000Z</time>
      </trkpt>
      <trkpt lat="44.04915" lon="6.86539">
        <ele>1101.4000244141</ele>
        <time>2019-08-03T14:09:56.000Z</time>
      </trkpt>
      <trkpt lat="44.0492" lon="6.86545">
        <ele>1101.5999755859</ele>
        <time>2019-08-03T14:09:59.000Z</time>
      </trkpt>
      <trkpt lat="44.04925" lon="6.86538">
        <ele>1101</ele>
        <time>2019-08-03T14:10:02.000Z</time>
      </trkpt>
      <trkpt lat="44.04927" lon="6.86535">
        <ele>1101</ele>
        <time>2019-08-03T14:10:03.000Z</time>
      </trkpt>
      <trkpt lat="44.04936" lon="6.86528">
        <ele>1100.5999755859</ele>
        <time>2019-08-03T14:10:07.000Z</time>
      </trkpt>
      <trkpt lat="44.04949" lon="6.86523">
        <ele>1100.8000488281</ele>
        <time>2019-08-03T14:10:12.000Z</time>
      </trkpt>
      <trkpt lat="44.04955" lon="6.86523">
        <ele>1101</ele>
        <time>2019-08-03T14:10:15.000Z</time>
      </trkpt>
      <trkpt lat="44.04958" lon="6.86524">
        <ele>1101.4000244141</ele>
        <time>2019-08-03T14:10:17.000Z</time>
      </trkpt>
      <trkpt lat="44.04963" lon="6.86528">
        <ele>1101.1999511719</ele>
        <time>2019-08-03T14:10:22.000Z</time>
      </trkpt>
      <trkpt lat="44.04966" lon="6.86527">
        <ele>1101</ele>
        <time>2019-08-03T14:10:27.000Z</time>
      </trkpt>
      <trkpt lat="44.04972" lon="6.86525">
        <ele>1102</ele>
        <time>2019-08-03T14:10:34.000Z</time>
      </trkpt>
      <trkpt lat="44.04981" lon="6.86527">
        <ele>1102</ele>
        <time>2019-08-03T14:10:38.000Z</time>
      </trkpt>
      <trkpt lat="44.04987" lon="6.86532">
        <ele>1101.8000488281</ele>
        <time>2019-08-03T14:10:43.000Z</time>
      </trkpt>
      <trkpt lat="44.04991" lon="6.8653">
        <ele>1102</ele>
        <time>2019-08-03T14:10:46.000Z</time>
      </trkpt>
      <trkpt lat="44.05006" lon="6.86527">
        <ele>1102</ele>
        <time>2019-08-03T14:10:53.000Z</time>
      </trkpt>
      <trkpt lat="44.05015" lon="6.86534">
        <ele>1102</ele>
        <time>2019-08-03T14:10:58.000Z</time>
      </trkpt>
      <trkpt lat="44.05014" lon="6.86545">
        <ele>1102.1999511719</ele>
        <time>2019-08-03T14:11:02.000Z</time>
      </trkpt>
      <trkpt lat="44.05013" lon="6.86547">
        <ele>1102.4000244141</ele>
        <time>2019-08-03T14:11:05.000Z</time>
      </trkpt>
      <trkpt lat="44.05014" lon="6.86548">
        <ele>1102.4000244141</ele>
        <time>2019-08-03T14:11:06.000Z</time>
      </trkpt>
      <trkpt lat="44.05018" lon="6.86551">
        <ele>1102</ele>
        <time>2019-08-03T14:11:11.000Z</time>
      </trkpt>
      <trkpt lat="44.05024" lon="6.86551">
        <ele>1102.1999511719</ele>
        <time>2019-08-03T14:11:17.000Z</time>
      </trkpt>
      <trkpt lat="44.05027" lon="6.8655">
        <ele>1102</ele>
        <time>2019-08-03T14:11:19.000Z</time>
      </trkpt>
      <trkpt lat="44.05032" lon="6.8655">
        <ele>1102.4000244141</ele>
        <time>2019-08-03T14:11:22.000Z</time>
      </trkpt>
      <trkpt lat="44.05035" lon="6.86542">
        <ele>1102.1999511719</ele>
        <time>2019-08-03T14:11:26.000Z</time>
      </trkpt>
      <trkpt lat="44.05047" lon="6.86533">
        <ele>1102.5999755859</ele>
        <time>2019-08-03T14:11:32.000Z</time>
      </trkpt>
      <trkpt lat="44.05058" lon="6.86532">
        <ele>1103</ele>
        <time>2019-08-03T14:11:36.000Z</time>
      </trkpt>
      <trkpt lat="44.05059" lon="6.86533">
        <ele>1103</ele>
        <time>2019-08-03T14:11:37.000Z</time>
      </trkpt>
      <trkpt lat="44.05066" lon="6.8654">
        <ele>1102.8000488281</ele>
        <time>2019-08-03T14:11:40.000Z</time>
      </trkpt>
      <trkpt lat="44.05078" lon="6.86538">
        <ele>1101</ele>
        <time>2019-08-03T14:11:44.000Z</time>
      </trkpt>
      <trkpt lat="44.0508" lon="6.86538">
        <ele>1100.8000488281</ele>
        <time>2019-08-03T14:11:45.000Z</time>
      </trkpt>
      <trkpt lat="44.05088" lon="6.86544">
        <ele>1101.5999755859</ele>
        <time>2019-08-03T14:11:50.000Z</time>
      </trkpt>
      <trkpt lat="44.0509" lon="6.86546">
        <ele>1101.8000488281</ele>
        <time>2019-08-03T14:11:53.000Z</time>
      </trkpt>
      <trkpt lat="44.05091" lon="6.86547">
        <ele>1101.1999511719</ele>
        <time>2019-08-03T14:11:55.000Z</time>
      </trkpt>
      <trkpt lat="44.05097" lon="6.86552">
        <ele>1101.8000488281</ele>
        <time>2019-08-03T14:11:59.000Z</time>
      </trkpt>
      <trkpt lat="44.05099" lon="6.86552">
        <ele>1102.5999755859</ele>
        <time>2019-08-03T14:12:00.000Z</time>
      </trkpt>
      <trkpt lat="44.05103" lon="6.86552">
        <ele>1103</ele>
        <time>2019-08-03T14:12:03.000Z</time>
      </trkpt>
      <trkpt lat="44.05105" lon="6.86551">
        <ele>1103</ele>
        <time>2019-08-03T14:12:04.000Z</time>
      </trkpt>
      <trkpt lat="44.05118" lon="6.86546">
        <ele>1102.5999755859</ele>
        <time>2019-08-03T14:12:09.000Z</time>
      </trkpt>
      <trkpt lat="44.0512" lon="6.86545">
        <ele>1102.4000244141</ele>
        <time>2019-08-03T14:12:10.000Z</time>
      </trkpt>
      <trkpt lat="44.05126" lon="6.86539">
        <ele>1102.1999511719</ele>
        <time>2019-08-03T14:12:13.000Z</time>
      </trkpt>
      <trkpt lat="44.05138" lon="6.86534">
        <ele>1102</ele>
        <time>2019-08-03T14:12:19.000Z</time>
      </trkpt>
      <trkpt lat="44.05142" lon="6.86523">
        <ele>1101.8000488281</ele>
        <time>2019-08-03T14:12:23.000Z</time>
      </trkpt>
      <trkpt lat="44.05148" lon="6.86512">
        <ele>1102</ele>
        <time>2019-08-03T14:12:27.000Z</time>
      </trkpt>
      <trkpt lat="44.05158" lon="6.86504">
        <ele>1101.8000488281</ele>
        <time>2019-08-03T14:12:32.000Z</time>
      </trkpt>
      <trkpt lat="44.0516" lon="6.86502">
        <ele>1101.5999755859</ele>
        <time>2019-08-03T14:12:34.000Z</time>
      </trkpt>
      <trkpt lat="44.05164" lon="6.86497">
        <ele>1101.5999755859</ele>
        <time>2019-08-03T14:12:37.000Z</time>
      </trkpt>
      <trkpt lat="44.05172" lon="6.86491">
        <ele>1101.8000488281</ele>
        <time>2019-08-03T14:12:43.000Z</time>
      </trkpt>
      <trkpt lat="44.05179" lon="6.86484">
        <ele>1101.8000488281</ele>
        <time>2019-08-03T14:12:50.000Z</time>
      </trkpt>
      <trkpt lat="44.05183" lon="6.86479">
        <ele>1101.8000488281</ele>
        <time>2019-08-03T14:12:53.000Z</time>
      </trkpt>
      <trkpt lat="44.05184" lon="6.86476">
        <ele>1102</ele>
        <time>2019-08-03T14:12:54.000Z</time>
      </trkpt>
      <trkpt lat="44.05192" lon="6.86466">
        <ele>1102.4000244141</ele>
        <time>2019-08-03T14:12:59.000Z</time>
      </trkpt>
      <trkpt lat="44.05193" lon="6.86456">
        <ele>1102.5999755859</ele>
        <time>2019-08-03T14:13:03.000Z</time>
      </trkpt>
      <trkpt lat="44.05192" lon="6.86444">
        <ele>1102.4000244141</ele>
        <time>2019-08-03T14:13:07.000Z</time>
      </trkpt>
      <trkpt lat="44.05192" lon="6.86437">
        <ele>1102.5999755859</ele>
        <time>2019-08-03T14:13:10.000Z</time>
      </trkpt>
      <trkpt lat="44.05193" lon="6.86429">
        <ele>1102.8000488281</ele>
        <time>2019-08-03T14:13:12.000Z</time>
      </trkpt>
      <trkpt lat="44.05195" lon="6.86404">
        <ele>1102.5999755859</ele>
        <time>2019-08-03T14:13:18.000Z</time>
      </trkpt>
      <trkpt lat="44.05195" lon="6.86395">
        <ele>1102.4000244141</ele>
        <time>2019-08-03T14:13:22.000Z</time>
      </trkpt>
      <trkpt lat="44.05196" lon="6.86386">
        <ele>1103</ele>
        <time>2019-08-03T14:13:27.000Z</time>
      </trkpt>
      <trkpt lat="44.05196" lon="6.86385">
        <ele>1103</ele>
        <time>2019-08-03T14:13:37.000Z</time>
      </trkpt>
      <trkpt lat="44.05196" lon="6.86384">
        <ele>1103</ele>
        <time>2019-08-03T14:13:45.000Z</time>
      </trkpt>
      <trkpt lat="44.05196" lon="6.8638">
        <ele>1103</ele>
        <time>2019-08-03T14:13:54.000Z</time>
      </trkpt>
      <trkpt lat="44.05198" lon="6.86363">
        <ele>1103</ele>
        <time>2019-08-03T14:13:59.000Z</time>
      </trkpt>
      <trkpt lat="44.05195" lon="6.86337">
        <ele>1103</ele>
        <time>2019-08-03T14:14:06.000Z</time>
      </trkpt>
      <trkpt lat="44.05189" lon="6.86313">
        <ele>1103.1999511719</ele>
        <time>2019-08-03T14:14:12.000Z</time>
      </trkpt>
      <trkpt lat="44.05188" lon="6.86288">
        <ele>1103.1999511719</ele>
        <time>2019-08-03T14:14:19.000Z</time>
      </trkpt>
      <trkpt lat="44.05188" lon="6.86276">
        <ele>1103.8000488281</ele>
        <time>2019-08-03T14:14:23.000Z</time>
      </trkpt>
      <trkpt lat="44.05188" lon="6.8627">
        <ele>1103.8000488281</ele>
        <time>2019-08-03T14:14:25.000Z</time>
      </trkpt>
      <trkpt lat="44.0519" lon="6.86251">
        <ele>1104.4000244141</ele>
        <time>2019-08-03T14:14:31.000Z</time>
      </trkpt>
      <trkpt lat="44.05194" lon="6.8623">
        <ele>1104.4000244141</ele>
        <time>2019-08-03T14:14:37.000Z</time>
      </trkpt>
      <trkpt lat="44.05199" lon="6.86208">
        <ele>1104.4000244141</ele>
        <time>2019-08-03T14:14:44.000Z</time>
      </trkpt>
      <trkpt lat="44.05204" lon="6.86193">
        <ele>1104.8000488281</ele>
        <time>2019-08-03T14:14:49.000Z</time>
      </trkpt>
      <trkpt lat="44.05204" lon="6.86191">
        <ele>1104.8000488281</ele>
        <time>2019-08-03T14:14:50.000Z</time>
      </trkpt>
      <trkpt lat="44.05209" lon="6.86182">
        <ele>1105</ele>
        <time>2019-08-03T14:14:54.000Z</time>
      </trkpt>
      <trkpt lat="44.05216" lon="6.86166">
        <ele>1104.5999755859</ele>
        <time>2019-08-03T14:15:00.000Z</time>
      </trkpt>
      <trkpt lat="44.0522" lon="6.86145">
        <ele>1105.4000244141</ele>
        <time>2019-08-03T14:15:07.000Z</time>
      </trkpt>
      <trkpt lat="44.05222" lon="6.86122">
        <ele>1105.4000244141</ele>
        <time>2019-08-03T14:15:13.000Z</time>
      </trkpt>
      <trkpt lat="44.05222" lon="6.86104">
        <ele>1105.4000244141</ele>
        <time>2019-08-03T14:15:18.000Z</time>
      </trkpt>
      <trkpt lat="44.05222" lon="6.86101">
        <ele>1105.5999755859</ele>
        <time>2019-08-03T14:15:19.000Z</time>
      </trkpt>
      <trkpt lat="44.05223" lon="6.86095">
        <ele>1106</ele>
        <time>2019-08-03T14:15:21.000Z</time>
      </trkpt>
      <trkpt lat="44.05223" lon="6.86086">
        <ele>1106</ele>
        <time>2019-08-03T14:15:24.000Z</time>
      </trkpt>
      <trkpt lat="44.05226" lon="6.86065">
        <ele>1106.4000244141</ele>
        <time>2019-08-03T14:15:30.000Z</time>
      </trkpt>
      <trkpt lat="44.05229" lon="6.86043">
        <ele>1106.8000488281</ele>
        <time>2019-08-03T14:15:37.000Z</time>
      </trkpt>
      <trkpt lat="44.05233" lon="6.86023">
        <ele>1106.8000488281</ele>
        <time>2019-08-03T14:15:43.000Z</time>
      </trkpt>
      <trkpt lat="44.05238" lon="6.85999">
        <ele>1106.5999755859</ele>
        <time>2019-08-03T14:15:49.000Z</time>
      </trkpt>
      <trkpt lat="44.05246" lon="6.85979">
        <ele>1107</ele>
        <time>2019-08-03T14:15:54.000Z</time>
      </trkpt>
      <trkpt lat="44.0525" lon="6.85968">
        <ele>1107.4000244141</ele>
        <time>2019-08-03T14:15:57.000Z</time>
      </trkpt>
      <trkpt lat="44.05261" lon="6.85952">
        <ele>1107.8000488281</ele>
        <time>2019-08-03T14:16:02.000Z</time>
      </trkpt>
      <trkpt lat="44.05277" lon="6.85939">
        <ele>1108</ele>
        <time>2019-08-03T14:16:08.000Z</time>
      </trkpt>
      <trkpt lat="44.05295" lon="6.85929">
        <ele>1109.1999511719</ele>
        <time>2019-08-03T14:16:15.000Z</time>
      </trkpt>
      <trkpt lat="44.05298" lon="6.85928">
        <ele>1109.1999511719</ele>
        <time>2019-08-03T14:16:16.000Z</time>
      </trkpt>
      <trkpt lat="44.05312" lon="6.85926">
        <ele>1109.5999755859</ele>
        <time>2019-08-03T14:16:21.000Z</time>
      </trkpt>
      <trkpt lat="44.05324" lon="6.85928">
        <ele>1109.1999511719</ele>
        <time>2019-08-03T14:16:27.000Z</time>
      </trkpt>
      <trkpt lat="44.05336" lon="6.85932">
        <ele>1110.4000244141</ele>
        <time>2019-08-03T14:16:31.000Z</time>
      </trkpt>
      <trkpt lat="44.05339" lon="6.85934">
        <ele>1110.4000244141</ele>
        <time>2019-08-03T14:16:32.000Z</time>
      </trkpt>
      <trkpt lat="44.05352" lon="6.85949">
        <ele>1110.5999755859</ele>
        <time>2019-08-03T14:16:38.000Z</time>
      </trkpt>
      <trkpt lat="44.05364" lon="6.8596">
        <ele>1111.4000244141</ele>
        <time>2019-08-03T14:16:43.000Z</time>
      </trkpt>
      <trkpt lat="44.05369" lon="6.85966">
        <ele>1111.5999755859</ele>
        <time>2019-08-03T14:16:45.000Z</time>
      </trkpt>
      <trkpt lat="44.0538" lon="6.85979">
        <ele>1112</ele>
        <time>2019-08-03T14:16:49.000Z</time>
      </trkpt>
      <trkpt lat="44.05393" lon="6.85993">
        <ele>1111.1999511719</ele>
        <time>2019-08-03T14:16:54.000Z</time>
      </trkpt>
      <trkpt lat="44.05408" lon="6.86002">
        <ele>1111.1999511719</ele>
        <time>2019-08-03T14:16:59.000Z</time>
      </trkpt>
      <trkpt lat="44.05428" lon="6.86014">
        <ele>1110.5999755859</ele>
        <time>2019-08-03T14:17:05.000Z</time>
      </trkpt>
      <trkpt lat="44.05431" lon="6.86016">
        <ele>1110.4000244141</ele>
        <time>2019-08-03T14:17:06.000Z</time>
      </trkpt>
      <trkpt lat="44.05452" lon="6.8603">
        <ele>1109.8000488281</ele>
        <time>2019-08-03T14:17:12.000Z</time>
      </trkpt>
      <trkpt lat="44.05459" lon="6.86029">
        <ele>1109.4000244141</ele>
        <time>2019-08-03T14:17:14.000Z</time>
      </trkpt>
      <trkpt lat="44.05467" lon="6.8603">
        <ele>1109</ele>
        <time>2019-08-03T14:17:16.000Z</time>
      </trkpt>
      <trkpt lat="44.0548" lon="6.86035">
        <ele>1109</ele>
        <time>2019-08-03T14:17:21.000Z</time>
      </trkpt>
      <trkpt lat="44.05491" lon="6.86038">
        <ele>1109.1999511719</ele>
        <time>2019-08-03T14:17:25.000Z</time>
      </trkpt>
      <trkpt lat="44.05496" lon="6.86043">
        <ele>1108.5999755859</ele>
        <time>2019-08-03T14:17:28.000Z</time>
      </trkpt>
      <trkpt lat="44.05497" lon="6.86045">
        <ele>1108.5999755859</ele>
        <time>2019-08-03T14:17:29.000Z</time>
      </trkpt>
      <trkpt lat="44.05501" lon="6.86056">
        <ele>1109</ele>
        <time>2019-08-03T14:17:34.000Z</time>
      </trkpt>
      <trkpt lat="44.05507" lon="6.86069">
        <ele>1109.5999755859</ele>
        <time>2019-08-03T14:17:39.000Z</time>
      </trkpt>
      <trkpt lat="44.05508" lon="6.86077">
        <ele>1110.5999755859</ele>
        <time>2019-08-03T14:17:43.000Z</time>
      </trkpt>
      <trkpt lat="44.05509" lon="6.86079">
        <ele>1111</ele>
        <time>2019-08-03T14:17:44.000Z</time>
      </trkpt>
      <trkpt lat="44.0551" lon="6.86083">
        <ele>1111.8000488281</ele>
        <time>2019-08-03T14:17:46.000Z</time>
      </trkpt>
      <trkpt lat="44.0551" lon="6.86087">
        <ele>1112.1999511719</ele>
        <time>2019-08-03T14:17:48.000Z</time>
      </trkpt>
      <trkpt lat="44.05511" lon="6.8609">
        <ele>1112.5999755859</ele>
        <time>2019-08-03T14:17:50.000Z</time>
      </trkpt>
      <trkpt lat="44.05511" lon="6.86092">
        <ele>1112.8000488281</ele>
        <time>2019-08-03T14:17:51.000Z</time>
      </trkpt>
      <trkpt lat="44.05513" lon="6.86099">
        <ele>1113.4000244141</ele>
        <time>2019-08-03T14:17:55.000Z</time>
      </trkpt>
      <trkpt lat="44.05513" lon="6.86101">
        <ele>1113.8000488281</ele>
        <time>2019-08-03T14:17:57.000Z</time>
      </trkpt>
      <trkpt lat="44.05514" lon="6.86102">
        <ele>1114.8000488281</ele>
        <time>2019-08-03T14:18:01.000Z</time>
      </trkpt>
      <trkpt lat="44.05514" lon="6.86105">
        <ele>1115.1999511719</ele>
        <time>2019-08-03T14:18:03.000Z</time>
      </trkpt>
      <trkpt lat="44.05515" lon="6.8611">
        <ele>1116</ele>
        <time>2019-08-03T14:18:07.000Z</time>
      </trkpt>
      <trkpt lat="44.05515" lon="6.86112">
        <ele>1116.1999511719</ele>
        <time>2019-08-03T14:18:08.000Z</time>
      </trkpt>
      <trkpt lat="44.05514" lon="6.86116">
        <ele>1117</ele>
        <time>2019-08-03T14:18:12.000Z</time>
      </trkpt>
      <trkpt lat="44.05514" lon="6.86122">
        <ele>1117.8000488281</ele>
        <time>2019-08-03T14:18:16.000Z</time>
      </trkpt>
      <trkpt lat="44.05514" lon="6.86124">
        <ele>1118.1999511719</ele>
        <time>2019-08-03T14:18:18.000Z</time>
      </trkpt>
      <trkpt lat="44.05514" lon="6.86125">
        <ele>1118.4000244141</ele>
        <time>2019-08-03T14:18:19.000Z</time>
      </trkpt>
      <trkpt lat="44.05514" lon="6.86126">
        <ele>1118.5999755859</ele>
        <time>2019-08-03T14:18:20.000Z</time>
      </trkpt>
      <trkpt lat="44.05514" lon="6.8613">
        <ele>1119.4000244141</ele>
        <time>2019-08-03T14:18:23.000Z</time>
      </trkpt>
      <trkpt lat="44.05514" lon="6.86131">
        <ele>1119.5999755859</ele>
        <time>2019-08-03T14:18:24.000Z</time>
      </trkpt>
      <trkpt lat="44.05514" lon="6.86136">
        <ele>1120.5999755859</ele>
        <time>2019-08-03T14:18:28.000Z</time>
      </trkpt>
      <trkpt lat="44.05515" lon="6.8614">
        <ele>1121.1999511719</ele>
        <time>2019-08-03T14:18:31.000Z</time>
      </trkpt>
      <trkpt lat="44.05516" lon="6.86143">
        <ele>1121.8000488281</ele>
        <time>2019-08-03T14:18:33.000Z</time>
      </trkpt>
      <trkpt lat="44.05518" lon="6.86151">
        <ele>1122.8000488281</ele>
        <time>2019-08-03T14:18:38.000Z</time>
      </trkpt>
      <trkpt lat="44.05518" lon="6.86152">
        <ele>1123</ele>
        <time>2019-08-03T14:18:39.000Z</time>
      </trkpt>
      <trkpt lat="44.05519" lon="6.86158">
        <ele>1123.5999755859</ele>
        <time>2019-08-03T14:18:44.000Z</time>
      </trkpt>
      <trkpt lat="44.05519" lon="6.86158">
        <ele>1124</ele>
        <time>2019-08-03T14:18:45.000Z</time>
      </trkpt>
      <trkpt lat="44.05519" lon="6.86163">
        <ele>1125</ele>
        <time>2019-08-03T14:18:50.000Z</time>
      </trkpt>
      <trkpt lat="44.05519" lon="6.86164">
        <ele>1125.1999511719</ele>
        <time>2019-08-03T14:18:51.000Z</time>
      </trkpt>
      <trkpt lat="44.0552" lon="6.86167">
        <ele>1125.4000244141</ele>
        <time>2019-08-03T14:18:53.000Z</time>
      </trkpt>
      <trkpt lat="44.0552" lon="6.86171">
        <ele>1126.1999511719</ele>
        <time>2019-08-03T14:18:57.000Z</time>
      </trkpt>
      <trkpt lat="44.05521" lon="6.86176">
        <ele>1127.4000244141</ele>
        <time>2019-08-03T14:19:03.000Z</time>
      </trkpt>
      <trkpt lat="44.05521" lon="6.86178">
        <ele>1127.5999755859</ele>
        <time>2019-08-03T14:19:04.000Z</time>
      </trkpt>
      <trkpt lat="44.05521" lon="6.86182">
        <ele>1128.1999511719</ele>
        <time>2019-08-03T14:19:08.000Z</time>
      </trkpt>
      <trkpt lat="44.05521" lon="6.86184">
        <ele>1128.4000244141</ele>
        <time>2019-08-03T14:19:09.000Z</time>
      </trkpt>
      <trkpt lat="44.05521" lon="6.86185">
        <ele>1128.5999755859</ele>
        <time>2019-08-03T14:19:10.000Z</time>
      </trkpt>
      <trkpt lat="44.05522" lon="6.86192">
        <ele>1129.5999755859</ele>
        <time>2019-08-03T14:19:15.000Z</time>
      </trkpt>
      <trkpt lat="44.05522" lon="6.86197">
        <ele>1130</ele>
        <time>2019-08-03T14:19:19.000Z</time>
      </trkpt>
      <trkpt lat="44.05523" lon="6.86203">
        <ele>1130.5999755859</ele>
        <time>2019-08-03T14:19:24.000Z</time>
      </trkpt>
      <trkpt lat="44.05524" lon="6.86206">
        <ele>1131.1999511719</ele>
        <time>2019-08-03T14:19:28.000Z</time>
      </trkpt>
      <trkpt lat="44.05524" lon="6.86209">
        <ele>1131.5999755859</ele>
        <time>2019-08-03T14:19:30.000Z</time>
      </trkpt>
      <trkpt lat="44.05524" lon="6.86214">
        <ele>1131.8000488281</ele>
        <time>2019-08-03T14:19:35.000Z</time>
      </trkpt>
      <trkpt lat="44.05523" lon="6.86223">
        <ele>1132.5999755859</ele>
        <time>2019-08-03T14:19:42.000Z</time>
      </trkpt>
      <trkpt lat="44.05523" lon="6.86225">
        <ele>1132.8000488281</ele>
        <time>2019-08-03T14:19:43.000Z</time>
      </trkpt>
      <trkpt lat="44.05522" lon="6.86232">
        <ele>1133.5999755859</ele>
        <time>2019-08-03T14:19:49.000Z</time>
      </trkpt>
      <trkpt lat="44.05522" lon="6.86236">
        <ele>1133.8000488281</ele>
        <time>2019-08-03T14:19:52.000Z</time>
      </trkpt>
      <trkpt lat="44.05523" lon="6.86242">
        <ele>1134.8000488281</ele>
        <time>2019-08-03T14:19:58.000Z</time>
      </trkpt>
      <trkpt lat="44.05523" lon="6.86242">
        <ele>1135</ele>
        <time>2019-08-03T14:19:59.000Z</time>
      </trkpt>
      <trkpt lat="44.05523" lon="6.86249">
        <ele>1135.1999511719</ele>
        <time>2019-08-03T14:20:03.000Z</time>
      </trkpt>
      <trkpt lat="44.0553" lon="6.86264">
        <ele>1135.1999511719</ele>
        <time>2019-08-03T14:20:08.000Z</time>
      </trkpt>
      <trkpt lat="44.05532" lon="6.8628">
        <ele>1135.4000244141</ele>
        <time>2019-08-03T14:20:13.000Z</time>
      </trkpt>
      <trkpt lat="44.05535" lon="6.8629">
        <ele>1136</ele>
        <time>2019-08-03T14:20:17.000Z</time>
      </trkpt>
      <trkpt lat="44.0555" lon="6.86298">
        <ele>1136.8000488281</ele>
        <time>2019-08-03T14:20:23.000Z</time>
      </trkpt>
      <trkpt lat="44.05553" lon="6.86299">
        <ele>1137</ele>
        <time>2019-08-03T14:20:24.000Z</time>
      </trkpt>
      <trkpt lat="44.05557" lon="6.863">
        <ele>1137.1999511719</ele>
        <time>2019-08-03T14:20:26.000Z</time>
      </trkpt>
      <trkpt lat="44.05562" lon="6.86299">
        <ele>1137.5999755859</ele>
        <time>2019-08-03T14:20:28.000Z</time>
      </trkpt>
      <trkpt lat="44.05576" lon="6.86301">
        <ele>1137.8000488281</ele>
        <time>2019-08-03T14:20:34.000Z</time>
      </trkpt>
      <trkpt lat="44.05578" lon="6.86301">
        <ele>1138</ele>
        <time>2019-08-03T14:20:35.000Z</time>
      </trkpt>
      <trkpt lat="44.05588" lon="6.86305">
        <ele>1138.4000244141</ele>
        <time>2019-08-03T14:20:39.000Z</time>
      </trkpt>
      <trkpt lat="44.05595" lon="6.8631">
        <ele>1138.5999755859</ele>
        <time>2019-08-03T14:20:42.000Z</time>
      </trkpt>
      <trkpt lat="44.05597" lon="6.86309">
        <ele>1138.4000244141</ele>
        <time>2019-08-03T14:20:43.000Z</time>
      </trkpt>
      <trkpt lat="44.05609" lon="6.86314">
        <ele>1139</ele>
        <time>2019-08-03T14:20:48.000Z</time>
      </trkpt>
      <trkpt lat="44.0561" lon="6.86316">
        <ele>1139.4000244141</ele>
        <time>2019-08-03T14:20:49.000Z</time>
      </trkpt>
      <trkpt lat="44.05612" lon="6.86324">
        <ele>1139.8000488281</ele>
        <time>2019-08-03T14:20:52.000Z</time>
      </trkpt>
      <trkpt lat="44.05615" lon="6.86328">
        <ele>1140.5999755859</ele>
        <time>2019-08-03T14:20:54.000Z</time>
      </trkpt>
      <trkpt lat="44.05619" lon="6.86333">
        <ele>1141.8000488281</ele>
        <time>2019-08-03T14:20:57.000Z</time>
      </trkpt>
      <trkpt lat="44.05619" lon="6.86335">
        <ele>1142.1999511719</ele>
        <time>2019-08-03T14:20:58.000Z</time>
      </trkpt>
      <trkpt lat="44.05622" lon="6.86341">
        <ele>1142.5999755859</ele>
        <time>2019-08-03T14:21:03.000Z</time>
      </trkpt>
      <trkpt lat="44.05622" lon="6.86342">
        <ele>1142.5999755859</ele>
        <time>2019-08-03T14:21:09.000Z</time>
      </trkpt>
      <trkpt lat="44.05621" lon="6.86343">
        <ele>1142.4000244141</ele>
        <time>2019-08-03T14:21:13.000Z</time>
      </trkpt>
      <trkpt lat="44.05619" lon="6.86342">
        <ele>1143</ele>
        <time>2019-08-03T14:21:16.000Z</time>
      </trkpt>
      <trkpt lat="44.05618" lon="6.86341">
        <ele>1144</ele>
        <time>2019-08-03T14:21:19.000Z</time>
      </trkpt>
      <trkpt lat="44.05617" lon="6.86341">
        <ele>1144.4000244141</ele>
        <time>2019-08-03T14:21:20.000Z</time>
      </trkpt>
      <trkpt lat="44.05614" lon="6.86341">
        <ele>1145.1999511719</ele>
        <time>2019-08-03T14:21:24.000Z</time>
      </trkpt>
      <trkpt lat="44.05613" lon="6.86343">
        <ele>1145.4000244141</ele>
        <time>2019-08-03T14:21:27.000Z</time>
      </trkpt>
      <trkpt lat="44.0561" lon="6.86347">
        <ele>1146.1999511719</ele>
        <time>2019-08-03T14:21:33.000Z</time>
      </trkpt>
      <trkpt lat="44.0561" lon="6.86347">
        <ele>1146.4000244141</ele>
        <time>2019-08-03T14:21:34.000Z</time>
      </trkpt>
      <trkpt lat="44.05612" lon="6.8635">
        <ele>1147.4000244141</ele>
        <time>2019-08-03T14:21:38.000Z</time>
      </trkpt>
      <trkpt lat="44.05616" lon="6.86352">
        <ele>1148</ele>
        <time>2019-08-03T14:21:41.000Z</time>
      </trkpt>
      <trkpt lat="44.0562" lon="6.86355">
        <ele>1148.4000244141</ele>
        <time>2019-08-03T14:21:46.000Z</time>
      </trkpt>
      <trkpt lat="44.0562" lon="6.86355">
        <ele>1148.5999755859</ele>
        <time>2019-08-03T14:21:48.000Z</time>
      </trkpt>
      <trkpt lat="44.05625" lon="6.8636">
        <ele>1148.4000244141</ele>
        <time>2019-08-03T14:21:53.000Z</time>
      </trkpt>
      <trkpt lat="44.05631" lon="6.8636">
        <ele>1148</ele>
        <time>2019-08-03T14:21:57.000Z</time>
      </trkpt>
      <trkpt lat="44.05639" lon="6.86359">
        <ele>1148.8000488281</ele>
        <time>2019-08-03T14:22:01.000Z</time>
      </trkpt>
      <trkpt lat="44.05641" lon="6.86357">
        <ele>1149</ele>
        <time>2019-08-03T14:22:03.000Z</time>
      </trkpt>
      <trkpt lat="44.05648" lon="6.86353">
        <ele>1148.8000488281</ele>
        <time>2019-08-03T14:22:07.000Z</time>
      </trkpt>
      <trkpt lat="44.05658" lon="6.86352">
        <ele>1147</ele>
        <time>2019-08-03T14:22:11.000Z</time>
      </trkpt>
      <trkpt lat="44.0566" lon="6.86353">
        <ele>1146.4000244141</ele>
        <time>2019-08-03T14:22:12.000Z</time>
      </trkpt>
      <trkpt lat="44.05662" lon="6.86355">
        <ele>1146</ele>
        <time>2019-08-03T14:22:13.000Z</time>
      </trkpt>
      <trkpt lat="44.0567" lon="6.86364">
        <ele>1145.1999511719</ele>
        <time>2019-08-03T14:22:17.000Z</time>
      </trkpt>
      <trkpt lat="44.05681" lon="6.86364">
        <ele>1145.4000244141</ele>
        <time>2019-08-03T14:22:22.000Z</time>
      </trkpt>
      <trkpt lat="44.05692" lon="6.86357">
        <ele>1146.1999511719</ele>
        <time>2019-08-03T14:22:27.000Z</time>
      </trkpt>
      <trkpt lat="44.05713" lon="6.86348">
        <ele>1146.4000244141</ele>
        <time>2019-08-03T14:22:33.000Z</time>
      </trkpt>
      <trkpt lat="44.05729" lon="6.86337">
        <ele>1145.4000244141</ele>
        <time>2019-08-03T14:22:37.000Z</time>
      </trkpt>
      <trkpt lat="44.05737" lon="6.8633">
        <ele>1144.4000244141</ele>
        <time>2019-08-03T14:22:39.000Z</time>
      </trkpt>
      <trkpt lat="44.05743" lon="6.86322">
        <ele>1143.4000244141</ele>
        <time>2019-08-03T14:22:41.000Z</time>
      </trkpt>
      <trkpt lat="44.05745" lon="6.86319">
        <ele>1142.8000488281</ele>
        <time>2019-08-03T14:22:42.000Z</time>
      </trkpt>
      <trkpt lat="44.0575" lon="6.86318">
        <ele>1141.5999755859</ele>
        <time>2019-08-03T14:22:44.000Z</time>
      </trkpt>
      <trkpt lat="44.05755" lon="6.86319">
        <ele>1140.5999755859</ele>
        <time>2019-08-03T14:22:46.000Z</time>
      </trkpt>
      <trkpt lat="44.05762" lon="6.86319">
        <ele>1140.8000488281</ele>
        <time>2019-08-03T14:22:49.000Z</time>
      </trkpt>
      <trkpt lat="44.05775" lon="6.86318">
        <ele>1140.8000488281</ele>
        <time>2019-08-03T14:22:53.000Z</time>
      </trkpt>
      <trkpt lat="44.05789" lon="6.86319">
        <ele>1141</ele>
        <time>2019-08-03T14:22:57.000Z</time>
      </trkpt>
      <trkpt lat="44.05793" lon="6.86318">
        <ele>1140.8000488281</ele>
        <time>2019-08-03T14:22:58.000Z</time>
      </trkpt>
      <trkpt lat="44.05802" lon="6.86313">
        <ele>1140.1999511719</ele>
        <time>2019-08-03T14:23:00.000Z</time>
      </trkpt>
      <trkpt lat="44.05806" lon="6.86308">
        <ele>1140</ele>
        <time>2019-08-03T14:23:01.000Z</time>
      </trkpt>
      <trkpt lat="44.05811" lon="6.86305">
        <ele>1139.1999511719</ele>
        <time>2019-08-03T14:23:02.000Z</time>
      </trkpt>
      <trkpt lat="44.0582" lon="6.863">
        <ele>1137.5999755859</ele>
        <time>2019-08-03T14:23:04.000Z</time>
      </trkpt>
      <trkpt lat="44.0583" lon="6.86294">
        <ele>1136</ele>
        <time>2019-08-03T14:23:06.000Z</time>
      </trkpt>
      <trkpt lat="44.05834" lon="6.86292">
        <ele>1135.5999755859</ele>
        <time>2019-08-03T14:23:07.000Z</time>
      </trkpt>
      <trkpt lat="44.05844" lon="6.86288">
        <ele>1135</ele>
        <time>2019-08-03T14:23:09.000Z</time>
      </trkpt>
      <trkpt lat="44.05849" lon="6.86286">
        <ele>1134.8000488281</ele>
        <time>2019-08-03T14:23:11.000Z</time>
      </trkpt>
      <trkpt lat="44.05853" lon="6.86283">
        <ele>1133.8000488281</ele>
        <time>2019-08-03T14:23:16.000Z</time>
      </trkpt>
      <trkpt lat="44.05854" lon="6.86282">
        <ele>1133.5999755859</ele>
        <time>2019-08-03T14:23:17.000Z</time>
      </trkpt>
      <trkpt lat="44.05855" lon="6.86282">
        <ele>1133.1999511719</ele>
        <time>2019-08-03T14:23:22.000Z</time>
      </trkpt>
      <trkpt lat="44.05855" lon="6.86281">
        <ele>1133.5999755859</ele>
        <time>2019-08-03T14:23:36.000Z</time>
      </trkpt>
      <trkpt lat="44.05854" lon="6.86283">
        <ele>1133.8000488281</ele>
        <time>2019-08-03T14:23:51.000Z</time>
      </trkpt>
      <trkpt lat="44.05857" lon="6.86277">
        <ele>1133.5999755859</ele>
        <time>2019-08-03T14:23:58.000Z</time>
      </trkpt>
      <trkpt lat="44.05865" lon="6.86267">
        <ele>1132.8000488281</ele>
        <time>2019-08-03T14:24:02.000Z</time>
      </trkpt>
      <trkpt lat="44.05867" lon="6.86264">
        <ele>1132.5999755859</ele>
        <time>2019-08-03T14:24:03.000Z</time>
      </trkpt>
      <trkpt lat="44.05877" lon="6.86256">
        <ele>1130.5999755859</ele>
        <time>2019-08-03T14:24:06.000Z</time>
      </trkpt>
      <trkpt lat="44.05884" lon="6.86251">
        <ele>1129</ele>
        <time>2019-08-03T14:24:08.000Z</time>
      </trkpt>
      <trkpt lat="44.05889" lon="6.8625">
        <ele>1129</ele>
        <time>2019-08-03T14:24:09.000Z</time>
      </trkpt>
      <trkpt lat="44.05893" lon="6.86249">
        <ele>1127.4000244141</ele>
        <time>2019-08-03T14:24:10.000Z</time>
      </trkpt>
      <trkpt lat="44.05898" lon="6.86247">
        <ele>1127.5999755859</ele>
        <time>2019-08-03T14:24:11.000Z</time>
      </trkpt>
      <trkpt lat="44.05901" lon="6.86249">
        <ele>1126.4000244141</ele>
        <time>2019-08-03T14:24:12.000Z</time>
      </trkpt>
      <trkpt lat="44.05905" lon="6.86251">
        <ele>1125.8000488281</ele>
        <time>2019-08-03T14:24:13.000Z</time>
      </trkpt>
      <trkpt lat="44.05908" lon="6.86253">
        <ele>1124.4000244141</ele>
        <time>2019-08-03T14:24:14.000Z</time>
      </trkpt>
      <trkpt lat="44.0591" lon="6.86246">
        <ele>1123.1999511719</ele>
        <time>2019-08-03T14:24:16.000Z</time>
      </trkpt>
      <trkpt lat="44.05908" lon="6.86237">
        <ele>1121.5999755859</ele>
        <time>2019-08-03T14:24:18.000Z</time>
      </trkpt>
      <trkpt lat="44.05909" lon="6.86233">
        <ele>1120.4000244141</ele>
        <time>2019-08-03T14:24:19.000Z</time>
      </trkpt>
      <trkpt lat="44.05911" lon="6.86233">
        <ele>1119.4000244141</ele>
        <time>2019-08-03T14:24:20.000Z</time>
      </trkpt>
      <trkpt lat="44.05914" lon="6.86235">
        <ele>1118.5999755859</ele>
        <time>2019-08-03T14:24:21.000Z</time>
      </trkpt>
      <trkpt lat="44.05916" lon="6.86238">
        <ele>1118</ele>
        <time>2019-08-03T14:24:22.000Z</time>
      </trkpt>
      <trkpt lat="44.05918" lon="6.86246">
        <ele>1117.1999511719</ele>
        <time>2019-08-03T14:24:24.000Z</time>
      </trkpt>
      <trkpt lat="44.05919" lon="6.8625">
        <ele>1117</ele>
        <time>2019-08-03T14:24:25.000Z</time>
      </trkpt>
      <trkpt lat="44.05921" lon="6.86253">
        <ele>1117</ele>
        <time>2019-08-03T14:24:26.000Z</time>
      </trkpt>
      <trkpt lat="44.05927" lon="6.86253">
        <ele>1116.1999511719</ele>
        <time>2019-08-03T14:24:28.000Z</time>
      </trkpt>
      <trkpt lat="44.05931" lon="6.8625">
        <ele>1115.5999755859</ele>
        <time>2019-08-03T14:24:29.000Z</time>
      </trkpt>
      <trkpt lat="44.0594" lon="6.86244">
        <ele>1114.8000488281</ele>
        <time>2019-08-03T14:24:32.000Z</time>
      </trkpt>
      <trkpt lat="44.05942" lon="6.86242">
        <ele>1114.4000244141</ele>
        <time>2019-08-03T14:24:33.000Z</time>
      </trkpt>
      <trkpt lat="44.0595" lon="6.86242">
        <ele>1113.4000244141</ele>
        <time>2019-08-03T14:24:36.000Z</time>
      </trkpt>
      <trkpt lat="44.05952" lon="6.86243">
        <ele>1112.8000488281</ele>
        <time>2019-08-03T14:24:37.000Z</time>
      </trkpt>
      <trkpt lat="44.05956" lon="6.86248">
        <ele>1111.5999755859</ele>
        <time>2019-08-03T14:24:41.000Z</time>
      </trkpt>
      <trkpt lat="44.05958" lon="6.86249">
        <ele>1111.5999755859</ele>
        <time>2019-08-03T14:24:47.000Z</time>
      </trkpt>
      <trkpt lat="44.0596" lon="6.86252">
        <ele>1111.4000244141</ele>
        <time>2019-08-03T14:25:02.000Z</time>
      </trkpt>
      <trkpt lat="44.05967" lon="6.86262">
        <ele>1111.4000244141</ele>
        <time>2019-08-03T14:25:06.000Z</time>
      </trkpt>
      <trkpt lat="44.05976" lon="6.86272">
        <ele>1111</ele>
        <time>2019-08-03T14:25:10.000Z</time>
      </trkpt>
      <trkpt lat="44.05983" lon="6.86278">
        <ele>1110.1999511719</ele>
        <time>2019-08-03T14:25:12.000Z</time>
      </trkpt>
      <trkpt lat="44.0599" lon="6.86286">
        <ele>1110</ele>
        <time>2019-08-03T14:25:14.000Z</time>
      </trkpt>
      <trkpt lat="44.05993" lon="6.86291">
        <ele>1109.5999755859</ele>
        <time>2019-08-03T14:25:15.000Z</time>
      </trkpt>
      <trkpt lat="44.05999" lon="6.86302">
        <ele>1109.5999755859</ele>
        <time>2019-08-03T14:25:17.000Z</time>
      </trkpt>
      <trkpt lat="44.06005" lon="6.86314">
        <ele>1108.8000488281</ele>
        <time>2019-08-03T14:25:19.000Z</time>
      </trkpt>
      <trkpt lat="44.06012" lon="6.86321">
        <ele>1108.4000244141</ele>
        <time>2019-08-03T14:25:22.000Z</time>
      </trkpt>
      <trkpt lat="44.06014" lon="6.86322">
        <ele>1107.8000488281</ele>
        <time>2019-08-03T14:25:23.000Z</time>
      </trkpt>
      <trkpt lat="44.06015" lon="6.86323">
        <ele>1107.8000488281</ele>
        <time>2019-08-03T14:25:24.000Z</time>
      </trkpt>
      <trkpt lat="44.06021" lon="6.86322">
        <ele>1107</ele>
        <time>2019-08-03T14:25:26.000Z</time>
      </trkpt>
      <trkpt lat="44.06022" lon="6.86323">
        <ele>1106</ele>
        <time>2019-08-03T14:25:27.000Z</time>
      </trkpt>
      <trkpt lat="44.06028" lon="6.86323">
        <ele>1104.5999755859</ele>
        <time>2019-08-03T14:25:30.000Z</time>
      </trkpt>
      <trkpt lat="44.06032" lon="6.86323">
        <ele>1103.4000244141</ele>
        <time>2019-08-03T14:25:32.000Z</time>
      </trkpt>
      <trkpt lat="44.06038" lon="6.86326">
        <ele>1101.8000488281</ele>
        <time>2019-08-03T14:25:34.000Z</time>
      </trkpt>
      <trkpt lat="44.06044" lon="6.86329">
        <ele>1100.5999755859</ele>
        <time>2019-08-03T14:25:36.000Z</time>
      </trkpt>
      <trkpt lat="44.06054" lon="6.86331">
        <ele>1099.1999511719</ele>
        <time>2019-08-03T14:25:39.000Z</time>
      </trkpt>
      <trkpt lat="44.0606" lon="6.86335">
        <ele>1099</ele>
        <time>2019-08-03T14:25:41.000Z</time>
      </trkpt>
      <trkpt lat="44.06066" lon="6.86337">
        <ele>1097.5999755859</ele>
        <time>2019-08-03T14:25:43.000Z</time>
      </trkpt>
      <trkpt lat="44.06068" lon="6.8634">
        <ele>1096.4000244141</ele>
        <time>2019-08-03T14:25:44.000Z</time>
      </trkpt>
      <trkpt lat="44.0607" lon="6.86342">
        <ele>1095.1999511719</ele>
        <time>2019-08-03T14:25:45.000Z</time>
      </trkpt>
      <trkpt lat="44.06072" lon="6.86344">
        <ele>1093.8000488281</ele>
        <time>2019-08-03T14:25:46.000Z</time>
      </trkpt>
      <trkpt lat="44.06073" lon="6.86347">
        <ele>1093.1999511719</ele>
        <time>2019-08-03T14:25:47.000Z</time>
      </trkpt>
      <trkpt lat="44.06075" lon="6.86351">
        <ele>1092.4000244141</ele>
        <time>2019-08-03T14:25:48.000Z</time>
      </trkpt>
      <trkpt lat="44.06076" lon="6.86356">
        <ele>1092.4000244141</ele>
        <time>2019-08-03T14:25:49.000Z</time>
      </trkpt>
      <trkpt lat="44.06081" lon="6.86371">
        <ele>1091.4000244141</ele>
        <time>2019-08-03T14:25:52.000Z</time>
      </trkpt>
      <trkpt lat="44.06084" lon="6.86375">
        <ele>1090.8000488281</ele>
        <time>2019-08-03T14:25:53.000Z</time>
      </trkpt>
      <trkpt lat="44.06097" lon="6.86382">
        <ele>1089</ele>
        <time>2019-08-03T14:25:56.000Z</time>
      </trkpt>
      <trkpt lat="44.061" lon="6.86384">
        <ele>1088.5999755859</ele>
        <time>2019-08-03T14:25:57.000Z</time>
      </trkpt>
      <trkpt lat="44.06105" lon="6.86385">
        <ele>1088.4000244141</ele>
        <time>2019-08-03T14:25:58.000Z</time>
      </trkpt>
      <trkpt lat="44.06115" lon="6.86382">
        <ele>1088</ele>
        <time>2019-08-03T14:26:00.000Z</time>
      </trkpt>
      <trkpt lat="44.0612" lon="6.8638">
        <ele>1088</ele>
        <time>2019-08-03T14:26:01.000Z</time>
      </trkpt>
      <trkpt lat="44.06132" lon="6.86366">
        <ele>1086.8000488281</ele>
        <time>2019-08-03T14:26:04.000Z</time>
      </trkpt>
      <trkpt lat="44.06136" lon="6.8636">
        <ele>1086.1999511719</ele>
        <time>2019-08-03T14:26:05.000Z</time>
      </trkpt>
      <trkpt lat="44.0614" lon="6.86356">
        <ele>1085.8000488281</ele>
        <time>2019-08-03T14:26:06.000Z</time>
      </trkpt>
      <trkpt lat="44.06149" lon="6.8635">
        <ele>1084.5999755859</ele>
        <time>2019-08-03T14:26:08.000Z</time>
      </trkpt>
      <trkpt lat="44.06153" lon="6.86347">
        <ele>1083.8000488281</ele>
        <time>2019-08-03T14:26:09.000Z</time>
      </trkpt>
      <trkpt lat="44.06156" lon="6.86344">
        <ele>1083</ele>
        <time>2019-08-03T14:26:10.000Z</time>
      </trkpt>
      <trkpt lat="44.06164" lon="6.86332">
        <ele>1082.1999511719</ele>
        <time>2019-08-03T14:26:13.000Z</time>
      </trkpt>
      <trkpt lat="44.06168" lon="6.86327">
        <ele>1081.1999511719</ele>
        <time>2019-08-03T14:26:14.000Z</time>
      </trkpt>
      <trkpt lat="44.06171" lon="6.86323">
        <ele>1080</ele>
        <time>2019-08-03T14:26:15.000Z</time>
      </trkpt>
      <trkpt lat="44.06177" lon="6.86318">
        <ele>1078</ele>
        <time>2019-08-03T14:26:17.000Z</time>
      </trkpt>
      <trkpt lat="44.06183" lon="6.86311">
        <ele>1076.1999511719</ele>
        <time>2019-08-03T14:26:19.000Z</time>
      </trkpt>
      <trkpt lat="44.06185" lon="6.86307">
        <ele>1075.1999511719</ele>
        <time>2019-08-03T14:26:20.000Z</time>
      </trkpt>
      <trkpt lat="44.06187" lon="6.86302">
        <ele>1074.1999511719</ele>
        <time>2019-08-03T14:26:21.000Z</time>
      </trkpt>
      <trkpt lat="44.06189" lon="6.86298">
        <ele>1073.8000488281</ele>
        <time>2019-08-03T14:26:22.000Z</time>
      </trkpt>
      <trkpt lat="44.06191" lon="6.86292">
        <ele>1073</ele>
        <time>2019-08-03T14:26:23.000Z</time>
      </trkpt>
      <trkpt lat="44.06192" lon="6.86287">
        <ele>1072.1999511719</ele>
        <time>2019-08-03T14:26:24.000Z</time>
      </trkpt>
      <trkpt lat="44.06193" lon="6.86281">
        <ele>1070.4000244141</ele>
        <time>2019-08-03T14:26:25.000Z</time>
      </trkpt>
      <trkpt lat="44.06194" lon="6.86275">
        <ele>1069.1999511719</ele>
        <time>2019-08-03T14:26:26.000Z</time>
      </trkpt>
      <trkpt lat="44.06197" lon="6.8627">
        <ele>1068.5999755859</ele>
        <time>2019-08-03T14:26:27.000Z</time>
      </trkpt>
      <trkpt lat="44.06201" lon="6.86264">
        <ele>1066.5999755859</ele>
        <time>2019-08-03T14:26:28.000Z</time>
      </trkpt>
      <trkpt lat="44.06207" lon="6.86261">
        <ele>1065.8000488281</ele>
        <time>2019-08-03T14:26:29.000Z</time>
      </trkpt>
      <trkpt lat="44.06212" lon="6.86257">
        <ele>1064.4000244141</ele>
        <time>2019-08-03T14:26:30.000Z</time>
      </trkpt>
      <trkpt lat="44.06216" lon="6.86254">
        <ele>1062.5999755859</ele>
        <time>2019-08-03T14:26:31.000Z</time>
      </trkpt>
      <trkpt lat="44.06221" lon="6.86252">
        <ele>1061</ele>
        <time>2019-08-03T14:26:32.000Z</time>
      </trkpt>
      <trkpt lat="44.06226" lon="6.86251">
        <ele>1059.5999755859</ele>
        <time>2019-08-03T14:26:33.000Z</time>
      </trkpt>
      <trkpt lat="44.0623" lon="6.86247">
        <ele>1058.4000244141</ele>
        <time>2019-08-03T14:26:34.000Z</time>
      </trkpt>
      <trkpt lat="44.06239" lon="6.8624">
        <ele>1056.1999511719</ele>
        <time>2019-08-03T14:26:36.000Z</time>
      </trkpt>
      <trkpt lat="44.06242" lon="6.86239">
        <ele>1055.1999511719</ele>
        <time>2019-08-03T14:26:37.000Z</time>
      </trkpt>
      <trkpt lat="44.06245" lon="6.86239">
        <ele>1054</ele>
        <time>2019-08-03T14:26:38.000Z</time>
      </trkpt>
      <trkpt lat="44.06251" lon="6.86238">
        <ele>1052.4000244141</ele>
        <time>2019-08-03T14:26:40.000Z</time>
      </trkpt>
      <trkpt lat="44.06254" lon="6.86239">
        <ele>1051.4000244141</ele>
        <time>2019-08-03T14:26:41.000Z</time>
      </trkpt>
      <trkpt lat="44.06256" lon="6.86241">
        <ele>1051</ele>
        <time>2019-08-03T14:26:42.000Z</time>
      </trkpt>
      <trkpt lat="44.06259" lon="6.86243">
        <ele>1050.1999511719</ele>
        <time>2019-08-03T14:26:43.000Z</time>
      </trkpt>
      <trkpt lat="44.06265" lon="6.86243">
        <ele>1048.8000488281</ele>
        <time>2019-08-03T14:26:45.000Z</time>
      </trkpt>
      <trkpt lat="44.06268" lon="6.86241">
        <ele>1048</ele>
        <time>2019-08-03T14:26:46.000Z</time>
      </trkpt>
      <trkpt lat="44.06274" lon="6.86239">
        <ele>1047.8000488281</ele>
        <time>2019-08-03T14:26:48.000Z</time>
      </trkpt>
      <trkpt lat="44.0628" lon="6.86238">
        <ele>1046</ele>
        <time>2019-08-03T14:26:50.000Z</time>
      </trkpt>
      <trkpt lat="44.06284" lon="6.86238">
        <ele>1045.1999511719</ele>
        <time>2019-08-03T14:26:51.000Z</time>
      </trkpt>
      <trkpt lat="44.06286" lon="6.86239">
        <ele>1044.8000488281</ele>
        <time>2019-08-03T14:26:52.000Z</time>
      </trkpt>
      <trkpt lat="44.06287" lon="6.86243">
        <ele>1044.1999511719</ele>
        <time>2019-08-03T14:26:53.000Z</time>
      </trkpt>
      <trkpt lat="44.06288" lon="6.86247">
        <ele>1043.4000244141</ele>
        <time>2019-08-03T14:26:54.000Z</time>
      </trkpt>
      <trkpt lat="44.06293" lon="6.86248">
        <ele>1043.1999511719</ele>
        <time>2019-08-03T14:26:57.000Z</time>
      </trkpt>
      <trkpt lat="44.06295" lon="6.86244">
        <ele>1042.8000488281</ele>
        <time>2019-08-03T14:26:58.000Z</time>
      </trkpt>
      <trkpt lat="44.06299" lon="6.86235">
        <ele>1042.4000244141</ele>
        <time>2019-08-03T14:27:01.000Z</time>
      </trkpt>
      <trkpt lat="44.06299" lon="6.86223">
        <ele>1041.5999755859</ele>
        <time>2019-08-03T14:27:04.000Z</time>
      </trkpt>
      <trkpt lat="44.06299" lon="6.86221">
        <ele>1041.1999511719</ele>
        <time>2019-08-03T14:27:05.000Z</time>
      </trkpt>
      <trkpt lat="44.06297" lon="6.86216">
        <ele>1040</ele>
        <time>2019-08-03T14:27:07.000Z</time>
      </trkpt>
      <trkpt lat="44.06298" lon="6.86214">
        <ele>1039.4000244141</ele>
        <time>2019-08-03T14:27:08.000Z</time>
      </trkpt>
      <trkpt lat="44.06304" lon="6.86214">
        <ele>1038.5999755859</ele>
        <time>2019-08-03T14:27:10.000Z</time>
      </trkpt>
      <trkpt lat="44.06308" lon="6.86216">
        <ele>1038.4000244141</ele>
        <time>2019-08-03T14:27:11.000Z</time>
      </trkpt>
      <trkpt lat="44.06312" lon="6.86224">
        <ele>1037.4000244141</ele>
        <time>2019-08-03T14:27:13.000Z</time>
      </trkpt>
      <trkpt lat="44.06313" lon="6.86228">
        <ele>1036.8000488281</ele>
        <time>2019-08-03T14:27:14.000Z</time>
      </trkpt>
      <trkpt lat="44.06315" lon="6.86234">
        <ele>1036.4000244141</ele>
        <time>2019-08-03T14:27:15.000Z</time>
      </trkpt>
      <trkpt lat="44.06316" lon="6.86238">
        <ele>1036</ele>
        <time>2019-08-03T14:27:16.000Z</time>
      </trkpt>
      <trkpt lat="44.06317" lon="6.86244">
        <ele>1035.4000244141</ele>
        <time>2019-08-03T14:27:17.000Z</time>
      </trkpt>
      <trkpt lat="44.06317" lon="6.86251">
        <ele>1034.8000488281</ele>
        <time>2019-08-03T14:27:18.000Z</time>
      </trkpt>
      <trkpt lat="44.06317" lon="6.86273">
        <ele>1034.1999511719</ele>
        <time>2019-08-03T14:27:21.000Z</time>
      </trkpt>
      <trkpt lat="44.06319" lon="6.86281">
        <ele>1033.5999755859</ele>
        <time>2019-08-03T14:27:22.000Z</time>
      </trkpt>
      <trkpt lat="44.06323" lon="6.86288">
        <ele>1032.5999755859</ele>
        <time>2019-08-03T14:27:23.000Z</time>
      </trkpt>
      <trkpt lat="44.06327" lon="6.86295">
        <ele>1032</ele>
        <time>2019-08-03T14:27:24.000Z</time>
      </trkpt>
      <trkpt lat="44.06334" lon="6.86304">
        <ele>1029.8000488281</ele>
        <time>2019-08-03T14:27:26.000Z</time>
      </trkpt>
      <trkpt lat="44.06337" lon="6.86309">
        <ele>1029.1999511719</ele>
        <time>2019-08-03T14:27:27.000Z</time>
      </trkpt>
      <trkpt lat="44.06341" lon="6.86315">
        <ele>1028.8000488281</ele>
        <time>2019-08-03T14:27:28.000Z</time>
      </trkpt>
      <trkpt lat="44.06345" lon="6.86321">
        <ele>1028.1999511719</ele>
        <time>2019-08-03T14:27:29.000Z</time>
      </trkpt>
      <trkpt lat="44.06352" lon="6.86333">
        <ele>1027</ele>
        <time>2019-08-03T14:27:31.000Z</time>
      </trkpt>
      <trkpt lat="44.06354" lon="6.86339">
        <ele>1026.4000244141</ele>
        <time>2019-08-03T14:27:32.000Z</time>
      </trkpt>
      <trkpt lat="44.06355" lon="6.86346">
        <ele>1025</ele>
        <time>2019-08-03T14:27:33.000Z</time>
      </trkpt>
      <trkpt lat="44.06358" lon="6.86359">
        <ele>1023.799987793</ele>
        <time>2019-08-03T14:27:35.000Z</time>
      </trkpt>
      <trkpt lat="44.06359" lon="6.86363">
        <ele>1022.799987793</ele>
        <time>2019-08-03T14:27:36.000Z</time>
      </trkpt>
      <trkpt lat="44.06361" lon="6.86366">
        <ele>1022.4000244141</ele>
        <time>2019-08-03T14:27:37.000Z</time>
      </trkpt>
      <trkpt lat="44.06369" lon="6.86367">
        <ele>1022</ele>
        <time>2019-08-03T14:27:39.000Z</time>
      </trkpt>
      <trkpt lat="44.06372" lon="6.86367">
        <ele>1021.200012207</ele>
        <time>2019-08-03T14:27:40.000Z</time>
      </trkpt>
      <trkpt lat="44.06376" lon="6.86368">
        <ele>1020</ele>
        <time>2019-08-03T14:27:41.000Z</time>
      </trkpt>
      <trkpt lat="44.06383" lon="6.86374">
        <ele>1018.5999755859</ele>
        <time>2019-08-03T14:27:43.000Z</time>
      </trkpt>
      <trkpt lat="44.06386" lon="6.86377">
        <ele>1017.200012207</ele>
        <time>2019-08-03T14:27:44.000Z</time>
      </trkpt>
      <trkpt lat="44.06392" lon="6.8638">
        <ele>1015.5999755859</ele>
        <time>2019-08-03T14:27:46.000Z</time>
      </trkpt>
      <trkpt lat="44.06396" lon="6.86382">
        <ele>1015</ele>
        <time>2019-08-03T14:27:47.000Z</time>
      </trkpt>
      <trkpt lat="44.064" lon="6.86384">
        <ele>1014.200012207</ele>
        <time>2019-08-03T14:27:48.000Z</time>
      </trkpt>
      <trkpt lat="44.06403" lon="6.86387">
        <ele>1013</ele>
        <time>2019-08-03T14:27:49.000Z</time>
      </trkpt>
      <trkpt lat="44.06408" lon="6.86392">
        <ele>1011.200012207</ele>
        <time>2019-08-03T14:27:51.000Z</time>
      </trkpt>
      <trkpt lat="44.0641" lon="6.864">
        <ele>1009</ele>
        <time>2019-08-03T14:27:53.000Z</time>
      </trkpt>
      <trkpt lat="44.06412" lon="6.86402">
        <ele>1008.799987793</ele>
        <time>2019-08-03T14:27:54.000Z</time>
      </trkpt>
      <trkpt lat="44.06418" lon="6.86406">
        <ele>1007.799987793</ele>
        <time>2019-08-03T14:27:56.000Z</time>
      </trkpt>
      <trkpt lat="44.06424" lon="6.8642">
        <ele>1007</ele>
        <time>2019-08-03T14:27:59.000Z</time>
      </trkpt>
      <trkpt lat="44.06427" lon="6.86425">
        <ele>1006.4000244141</ele>
        <time>2019-08-03T14:28:00.000Z</time>
      </trkpt>
      <trkpt lat="44.06433" lon="6.86432">
        <ele>1004.799987793</ele>
        <time>2019-08-03T14:28:02.000Z</time>
      </trkpt>
      <trkpt lat="44.06437" lon="6.86435">
        <ele>1003.799987793</ele>
        <time>2019-08-03T14:28:03.000Z</time>
      </trkpt>
      <trkpt lat="44.0644" lon="6.86438">
        <ele>1003</ele>
        <time>2019-08-03T14:28:04.000Z</time>
      </trkpt>
      <trkpt lat="44.06444" lon="6.86448">
        <ele>1001.4000244141</ele>
        <time>2019-08-03T14:28:06.000Z</time>
      </trkpt>
      <trkpt lat="44.06445" lon="6.86452">
        <ele>1001</ele>
        <time>2019-08-03T14:28:07.000Z</time>
      </trkpt>
      <trkpt lat="44.06445" lon="6.86458">
        <ele>1000</ele>
        <time>2019-08-03T14:28:08.000Z</time>
      </trkpt>
      <trkpt lat="44.06447" lon="6.8647">
        <ele>998.79998779297</ele>
        <time>2019-08-03T14:28:10.000Z</time>
      </trkpt>
      <trkpt lat="44.06448" lon="6.86484">
        <ele>997.79998779297</ele>
        <time>2019-08-03T14:28:12.000Z</time>
      </trkpt>
      <trkpt lat="44.06449" lon="6.86498">
        <ele>996.79998779297</ele>
        <time>2019-08-03T14:28:14.000Z</time>
      </trkpt>
      <trkpt lat="44.0645" lon="6.86512">
        <ele>995</ele>
        <time>2019-08-03T14:28:16.000Z</time>
      </trkpt>
      <trkpt lat="44.06451" lon="6.86519">
        <ele>993.79998779297</ele>
        <time>2019-08-03T14:28:17.000Z</time>
      </trkpt>
      <trkpt lat="44.06454" lon="6.86526">
        <ele>992.59997558594</ele>
        <time>2019-08-03T14:28:18.000Z</time>
      </trkpt>
      <trkpt lat="44.06459" lon="6.86537">
        <ele>991</ele>
        <time>2019-08-03T14:28:20.000Z</time>
      </trkpt>
      <trkpt lat="44.06461" lon="6.86543">
        <ele>989.79998779297</ele>
        <time>2019-08-03T14:28:21.000Z</time>
      </trkpt>
      <trkpt lat="44.06465" lon="6.86554">
        <ele>989</ele>
        <time>2019-08-03T14:28:23.000Z</time>
      </trkpt>
      <trkpt lat="44.06467" lon="6.8656">
        <ele>987.79998779297</ele>
        <time>2019-08-03T14:28:24.000Z</time>
      </trkpt>
      <trkpt lat="44.06469" lon="6.86566">
        <ele>987.20001220703</ele>
        <time>2019-08-03T14:28:25.000Z</time>
      </trkpt>
      <trkpt lat="44.06474" lon="6.86578">
        <ele>986.40002441406</ele>
        <time>2019-08-03T14:28:27.000Z</time>
      </trkpt>
      <trkpt lat="44.06477" lon="6.86584">
        <ele>985.79998779297</ele>
        <time>2019-08-03T14:28:28.000Z</time>
      </trkpt>
      <trkpt lat="44.06479" lon="6.86592">
        <ele>985.20001220703</ele>
        <time>2019-08-03T14:28:29.000Z</time>
      </trkpt>
      <trkpt lat="44.06481" lon="6.86608">
        <ele>984.59997558594</ele>
        <time>2019-08-03T14:28:31.000Z</time>
      </trkpt>
      <trkpt lat="44.06479" lon="6.86622">
        <ele>983.59997558594</ele>
        <time>2019-08-03T14:28:33.000Z</time>
      </trkpt>
      <trkpt lat="44.06476" lon="6.86633">
        <ele>982.59997558594</ele>
        <time>2019-08-03T14:28:35.000Z</time>
      </trkpt>
      <trkpt lat="44.06475" lon="6.86638">
        <ele>981.79998779297</ele>
        <time>2019-08-03T14:28:36.000Z</time>
      </trkpt>
      <trkpt lat="44.06469" lon="6.86651">
        <ele>982.40002441406</ele>
        <time>2019-08-03T14:28:40.000Z</time>
      </trkpt>
      <trkpt lat="44.06468" lon="6.86654">
        <ele>982.79998779297</ele>
        <time>2019-08-03T14:28:41.000Z</time>
      </trkpt>
      <trkpt lat="44.06466" lon="6.86657">
        <ele>983.20001220703</ele>
        <time>2019-08-03T14:28:42.000Z</time>
      </trkpt>
      <trkpt lat="44.06457" lon="6.86666">
        <ele>983.40002441406</ele>
        <time>2019-08-03T14:28:46.000Z</time>
      </trkpt>
      <trkpt lat="44.06448" lon="6.86676">
        <ele>982.59997558594</ele>
        <time>2019-08-03T14:28:49.000Z</time>
      </trkpt>
      <trkpt lat="44.06445" lon="6.86679">
        <ele>982.20001220703</ele>
        <time>2019-08-03T14:28:50.000Z</time>
      </trkpt>
      <trkpt lat="44.06444" lon="6.86682">
        <ele>982.20001220703</ele>
        <time>2019-08-03T14:28:51.000Z</time>
      </trkpt>
      <trkpt lat="44.06443" lon="6.86686">
        <ele>981</ele>
        <time>2019-08-03T14:28:53.000Z</time>
      </trkpt>
      <trkpt lat="44.06445" lon="6.86687">
        <ele>980.40002441406</ele>
        <time>2019-08-03T14:28:54.000Z</time>
      </trkpt>
      <trkpt lat="44.06448" lon="6.86688">
        <ele>979.59997558594</ele>
        <time>2019-08-03T14:28:55.000Z</time>
      </trkpt>
      <trkpt lat="44.06456" lon="6.86689">
        <ele>977.79998779297</ele>
        <time>2019-08-03T14:28:57.000Z</time>
      </trkpt>
      <trkpt lat="44.0646" lon="6.8669">
        <ele>977.40002441406</ele>
        <time>2019-08-03T14:28:58.000Z</time>
      </trkpt>
      <trkpt lat="44.06467" lon="6.86692">
        <ele>976.20001220703</ele>
        <time>2019-08-03T14:29:00.000Z</time>
      </trkpt>
      <trkpt lat="44.06473" lon="6.86695">
        <ele>975</ele>
        <time>2019-08-03T14:29:02.000Z</time>
      </trkpt>
      <trkpt lat="44.06476" lon="6.86696">
        <ele>974</ele>
        <time>2019-08-03T14:29:03.000Z</time>
      </trkpt>
      <trkpt lat="44.06478" lon="6.86697">
        <ele>973.59997558594</ele>
        <time>2019-08-03T14:29:04.000Z</time>
      </trkpt>
      <trkpt lat="44.06486" lon="6.86702">
        <ele>972.79998779297</ele>
        <time>2019-08-03T14:29:06.000Z</time>
      </trkpt>
      <trkpt lat="44.06488" lon="6.86706">
        <ele>972.59997558594</ele>
        <time>2019-08-03T14:29:07.000Z</time>
      </trkpt>
      <trkpt lat="44.06491" lon="6.86712">
        <ele>972</ele>
        <time>2019-08-03T14:29:08.000Z</time>
      </trkpt>
      <trkpt lat="44.06495" lon="6.8672">
        <ele>971</ele>
        <time>2019-08-03T14:29:10.000Z</time>
      </trkpt>
      <trkpt lat="44.06497" lon="6.86722">
        <ele>970.40002441406</ele>
        <time>2019-08-03T14:29:11.000Z</time>
      </trkpt>
      <trkpt lat="44.065" lon="6.86721">
        <ele>968.79998779297</ele>
        <time>2019-08-03T14:29:12.000Z</time>
      </trkpt>
      <trkpt lat="44.06505" lon="6.8672">
        <ele>967.40002441406</ele>
        <time>2019-08-03T14:29:13.000Z</time>
      </trkpt>
      <trkpt lat="44.06514" lon="6.86718">
        <ele>965.40002441406</ele>
        <time>2019-08-03T14:29:15.000Z</time>
      </trkpt>
      <trkpt lat="44.06517" lon="6.86717">
        <ele>964.20001220703</ele>
        <time>2019-08-03T14:29:16.000Z</time>
      </trkpt>
      <trkpt lat="44.06523" lon="6.86718">
        <ele>963</ele>
        <time>2019-08-03T14:29:18.000Z</time>
      </trkpt>
      <trkpt lat="44.06524" lon="6.8672">
        <ele>962</ele>
        <time>2019-08-03T14:29:19.000Z</time>
      </trkpt>
      <trkpt lat="44.06526" lon="6.86721">
        <ele>961.20001220703</ele>
        <time>2019-08-03T14:29:20.000Z</time>
      </trkpt>
      <trkpt lat="44.0653" lon="6.86726">
        <ele>960</ele>
        <time>2019-08-03T14:29:23.000Z</time>
      </trkpt>
      <trkpt lat="44.06533" lon="6.86728">
        <ele>959</ele>
        <time>2019-08-03T14:29:25.000Z</time>
      </trkpt>
      <trkpt lat="44.06535" lon="6.86729">
        <ele>958.79998779297</ele>
        <time>2019-08-03T14:29:26.000Z</time>
      </trkpt>
      <trkpt lat="44.06539" lon="6.86733">
        <ele>957.40002441406</ele>
        <time>2019-08-03T14:29:28.000Z</time>
      </trkpt>
      <trkpt lat="44.06541" lon="6.86737">
        <ele>956.40002441406</ele>
        <time>2019-08-03T14:29:29.000Z</time>
      </trkpt>
      <trkpt lat="44.06543" lon="6.86742">
        <ele>955.20001220703</ele>
        <time>2019-08-03T14:29:30.000Z</time>
      </trkpt>
      <trkpt lat="44.06545" lon="6.86749">
        <ele>954</ele>
        <time>2019-08-03T14:29:31.000Z</time>
      </trkpt>
      <trkpt lat="44.06549" lon="6.86763">
        <ele>952.20001220703</ele>
        <time>2019-08-03T14:29:33.000Z</time>
      </trkpt>
      <trkpt lat="44.0655" lon="6.86771">
        <ele>951.40002441406</ele>
        <time>2019-08-03T14:29:34.000Z</time>
      </trkpt>
      <trkpt lat="44.06549" lon="6.86779">
        <ele>950.79998779297</ele>
        <time>2019-08-03T14:29:35.000Z</time>
      </trkpt>
      <trkpt lat="44.06547" lon="6.86786">
        <ele>949.79998779297</ele>
        <time>2019-08-03T14:29:36.000Z</time>
      </trkpt>
      <trkpt lat="44.06545" lon="6.86792">
        <ele>949.59997558594</ele>
        <time>2019-08-03T14:29:37.000Z</time>
      </trkpt>
      <trkpt lat="44.06543" lon="6.86803">
        <ele>948.40002441406</ele>
        <time>2019-08-03T14:29:39.000Z</time>
      </trkpt>
      <trkpt lat="44.06542" lon="6.86807">
        <ele>948.20001220703</ele>
        <time>2019-08-03T14:29:40.000Z</time>
      </trkpt>
      <trkpt lat="44.06543" lon="6.8681">
        <ele>947.79998779297</ele>
        <time>2019-08-03T14:29:41.000Z</time>
      </trkpt>
      <trkpt lat="44.06544" lon="6.86812">
        <ele>947.40002441406</ele>
        <time>2019-08-03T14:29:42.000Z</time>
      </trkpt>
      <trkpt lat="44.06546" lon="6.86812">
        <ele>947.20001220703</ele>
        <time>2019-08-03T14:29:43.000Z</time>
      </trkpt>
      <trkpt lat="44.06557" lon="6.86807">
        <ele>946.40002441406</ele>
        <time>2019-08-03T14:29:46.000Z</time>
      </trkpt>
      <trkpt lat="44.06562" lon="6.86806">
        <ele>946.20001220703</ele>
        <time>2019-08-03T14:29:47.000Z</time>
      </trkpt>
      <trkpt lat="44.06566" lon="6.86805">
        <ele>945.79998779297</ele>
        <time>2019-08-03T14:29:48.000Z</time>
      </trkpt>
      <trkpt lat="44.06572" lon="6.86803">
        <ele>945.40002441406</ele>
        <time>2019-08-03T14:29:50.000Z</time>
      </trkpt>
      <trkpt lat="44.06589" lon="6.86792">
        <ele>946.40002441406</ele>
        <time>2019-08-03T14:29:57.000Z</time>
      </trkpt>
      <trkpt lat="44.06596" lon="6.86782">
        <ele>947.20001220703</ele>
        <time>2019-08-03T14:30:01.000Z</time>
      </trkpt>
      <trkpt lat="44.06598" lon="6.8678">
        <ele>947.20001220703</ele>
        <time>2019-08-03T14:30:02.000Z</time>
      </trkpt>
      <trkpt lat="44.06611" lon="6.86775">
        <ele>947.59997558594</ele>
        <time>2019-08-03T14:30:07.000Z</time>
      </trkpt>
      <trkpt lat="44.06615" lon="6.86775">
        <ele>947.79998779297</ele>
        <time>2019-08-03T14:30:08.000Z</time>
      </trkpt>
      <trkpt lat="44.06622" lon="6.86777">
        <ele>947.59997558594</ele>
        <time>2019-08-03T14:30:10.000Z</time>
      </trkpt>
      <trkpt lat="44.06626" lon="6.86772">
        <ele>946.79998779297</ele>
        <time>2019-08-03T14:30:13.000Z</time>
      </trkpt>
      <trkpt lat="44.06625" lon="6.86763">
        <ele>946.20001220703</ele>
        <time>2019-08-03T14:30:16.000Z</time>
      </trkpt>
      <trkpt lat="44.06624" lon="6.8676">
        <ele>946.20001220703</ele>
        <time>2019-08-03T14:30:17.000Z</time>
      </trkpt>
      <trkpt lat="44.06625" lon="6.86741">
        <ele>946.40002441406</ele>
        <time>2019-08-03T14:30:22.000Z</time>
      </trkpt>
      <trkpt lat="44.06634" lon="6.86724">
        <ele>946.40002441406</ele>
        <time>2019-08-03T14:30:27.000Z</time>
      </trkpt>
      <trkpt lat="44.06648" lon="6.86708">
        <ele>946.20001220703</ele>
        <time>2019-08-03T14:30:31.000Z</time>
      </trkpt>
      <trkpt lat="44.06651" lon="6.86703">
        <ele>946</ele>
        <time>2019-08-03T14:30:32.000Z</time>
      </trkpt>
      <trkpt lat="44.06663" lon="6.86689">
        <ele>945.20001220703</ele>
        <time>2019-08-03T14:30:35.000Z</time>
      </trkpt>
      <trkpt lat="44.0667" lon="6.86681">
        <ele>944.79998779297</ele>
        <time>2019-08-03T14:30:37.000Z</time>
      </trkpt>
      <trkpt lat="44.06673" lon="6.86671">
        <ele>943.79998779297</ele>
        <time>2019-08-03T14:30:39.000Z</time>
      </trkpt>
      <trkpt lat="44.06673" lon="6.86665">
        <ele>943.59997558594</ele>
        <time>2019-08-03T14:30:40.000Z</time>
      </trkpt>
      <trkpt lat="44.0667" lon="6.86655">
        <ele>942.40002441406</ele>
        <time>2019-08-03T14:30:42.000Z</time>
      </trkpt>
      <trkpt lat="44.06667" lon="6.86645">
        <ele>941.79998779297</ele>
        <time>2019-08-03T14:30:44.000Z</time>
      </trkpt>
      <trkpt lat="44.06667" lon="6.86639">
        <ele>941.20001220703</ele>
        <time>2019-08-03T14:30:45.000Z</time>
      </trkpt>
      <trkpt lat="44.0667" lon="6.86628">
        <ele>940.20001220703</ele>
        <time>2019-08-03T14:30:47.000Z</time>
      </trkpt>
      <trkpt lat="44.06676" lon="6.86613">
        <ele>938.79998779297</ele>
        <time>2019-08-03T14:30:50.000Z</time>
      </trkpt>
      <trkpt lat="44.06677" lon="6.86607">
        <ele>938.59997558594</ele>
        <time>2019-08-03T14:30:51.000Z</time>
      </trkpt>
      <trkpt lat="44.06681" lon="6.86596">
        <ele>938.40002441406</ele>
        <time>2019-08-03T14:30:53.000Z</time>
      </trkpt>
      <trkpt lat="44.0669" lon="6.86582">
        <ele>938.20001220703</ele>
        <time>2019-08-03T14:30:56.000Z</time>
      </trkpt>
      <trkpt lat="44.06701" lon="6.86559">
        <ele>937.40002441406</ele>
        <time>2019-08-03T14:31:00.000Z</time>
      </trkpt>
      <trkpt lat="44.06708" lon="6.86548">
        <ele>936</ele>
        <time>2019-08-03T14:31:02.000Z</time>
      </trkpt>
      <trkpt lat="44.06713" lon="6.86543">
        <ele>935</ele>
        <time>2019-08-03T14:31:03.000Z</time>
      </trkpt>
      <trkpt lat="44.06716" lon="6.86538">
        <ele>934</ele>
        <time>2019-08-03T14:31:04.000Z</time>
      </trkpt>
      <trkpt lat="44.06715" lon="6.86533">
        <ele>933</ele>
        <time>2019-08-03T14:31:05.000Z</time>
      </trkpt>
      <trkpt lat="44.06713" lon="6.86528">
        <ele>932</ele>
        <time>2019-08-03T14:31:06.000Z</time>
      </trkpt>
      <trkpt lat="44.06711" lon="6.86524">
        <ele>931.59997558594</ele>
        <time>2019-08-03T14:31:07.000Z</time>
      </trkpt>
      <trkpt lat="44.06708" lon="6.86518">
        <ele>931</ele>
        <time>2019-08-03T14:31:08.000Z</time>
      </trkpt>
      <trkpt lat="44.06705" lon="6.86505">
        <ele>930.40002441406</ele>
        <time>2019-08-03T14:31:10.000Z</time>
      </trkpt>
      <trkpt lat="44.06705" lon="6.86484">
        <ele>930</ele>
        <time>2019-08-03T14:31:13.000Z</time>
      </trkpt>
      <trkpt lat="44.06704" lon="6.86477">
        <ele>929.79998779297</ele>
        <time>2019-08-03T14:31:14.000Z</time>
      </trkpt>
      <trkpt lat="44.06703" lon="6.8647">
        <ele>929.79998779297</ele>
        <time>2019-08-03T14:31:15.000Z</time>
      </trkpt>
      <trkpt lat="44.06703" lon="6.86458">
        <ele>928.79998779297</ele>
        <time>2019-08-03T14:31:17.000Z</time>
      </trkpt>
      <trkpt lat="44.06705" lon="6.86452">
        <ele>928</ele>
        <time>2019-08-03T14:31:18.000Z</time>
      </trkpt>
      <trkpt lat="44.06708" lon="6.86447">
        <ele>927.40002441406</ele>
        <time>2019-08-03T14:31:19.000Z</time>
      </trkpt>
      <trkpt lat="44.06712" lon="6.86442">
        <ele>926.40002441406</ele>
        <time>2019-08-03T14:31:20.000Z</time>
      </trkpt>
      <trkpt lat="44.06716" lon="6.86436">
        <ele>926</ele>
        <time>2019-08-03T14:31:21.000Z</time>
      </trkpt>
      <trkpt lat="44.0672" lon="6.8643">
        <ele>925.40002441406</ele>
        <time>2019-08-03T14:31:22.000Z</time>
      </trkpt>
      <trkpt lat="44.06724" lon="6.86424">
        <ele>924.59997558594</ele>
        <time>2019-08-03T14:31:23.000Z</time>
      </trkpt>
      <trkpt lat="44.06728" lon="6.86419">
        <ele>923.59997558594</ele>
        <time>2019-08-03T14:31:24.000Z</time>
      </trkpt>
      <trkpt lat="44.06733" lon="6.86416">
        <ele>923</ele>
        <time>2019-08-03T14:31:25.000Z</time>
      </trkpt>
      <trkpt lat="44.06738" lon="6.86415">
        <ele>922</ele>
        <time>2019-08-03T14:31:26.000Z</time>
      </trkpt>
      <trkpt lat="44.06749" lon="6.8641">
        <ele>921.40002441406</ele>
        <time>2019-08-03T14:31:28.000Z</time>
      </trkpt>
      <trkpt lat="44.06759" lon="6.864">
        <ele>921</ele>
        <time>2019-08-03T14:31:30.000Z</time>
      </trkpt>
      <trkpt lat="44.0677" lon="6.86388">
        <ele>919.40002441406</ele>
        <time>2019-08-03T14:31:33.000Z</time>
      </trkpt>
      <trkpt lat="44.06774" lon="6.86385">
        <ele>919.20001220703</ele>
        <time>2019-08-03T14:31:34.000Z</time>
      </trkpt>
      <trkpt lat="44.06776" lon="6.86371">
        <ele>919.20001220703</ele>
        <time>2019-08-03T14:31:37.000Z</time>
      </trkpt>
      <trkpt lat="44.06769" lon="6.86362">
        <ele>919.20001220703</ele>
        <time>2019-08-03T14:31:39.000Z</time>
      </trkpt>
      <trkpt lat="44.06766" lon="6.86357">
        <ele>918.59997558594</ele>
        <time>2019-08-03T14:31:40.000Z</time>
      </trkpt>
      <trkpt lat="44.06764" lon="6.86351">
        <ele>918</ele>
        <time>2019-08-03T14:31:41.000Z</time>
      </trkpt>
      <trkpt lat="44.06762" lon="6.86331">
        <ele>916.59997558594</ele>
        <time>2019-08-03T14:31:44.000Z</time>
      </trkpt>
      <trkpt lat="44.06762" lon="6.86305">
        <ele>915.20001220703</ele>
        <time>2019-08-03T14:31:48.000Z</time>
      </trkpt>
      <trkpt lat="44.06763" lon="6.86299">
        <ele>915.20001220703</ele>
        <time>2019-08-03T14:31:49.000Z</time>
      </trkpt>
      <trkpt lat="44.06766" lon="6.86289">
        <ele>913.79998779297</ele>
        <time>2019-08-03T14:31:51.000Z</time>
      </trkpt>
      <trkpt lat="44.06769" lon="6.86277">
        <ele>911.79998779297</ele>
        <time>2019-08-03T14:31:53.000Z</time>
      </trkpt>
      <trkpt lat="44.06772" lon="6.86272">
        <ele>910.59997558594</ele>
        <time>2019-08-03T14:31:54.000Z</time>
      </trkpt>
      <trkpt lat="44.06775" lon="6.86267">
        <ele>909.79998779297</ele>
        <time>2019-08-03T14:31:55.000Z</time>
      </trkpt>
      <trkpt lat="44.06778" lon="6.86265">
        <ele>908.79998779297</ele>
        <time>2019-08-03T14:31:56.000Z</time>
      </trkpt>
      <trkpt lat="44.06782" lon="6.86262">
        <ele>907.79998779297</ele>
        <time>2019-08-03T14:31:57.000Z</time>
      </trkpt>
      <trkpt lat="44.06791" lon="6.86256">
        <ele>905.79998779297</ele>
        <time>2019-08-03T14:31:59.000Z</time>
      </trkpt>
      <trkpt lat="44.06796" lon="6.86241">
        <ele>904.59997558594</ele>
        <time>2019-08-03T14:32:02.000Z</time>
      </trkpt>
      <trkpt lat="44.06796" lon="6.86234">
        <ele>903.79998779297</ele>
        <time>2019-08-03T14:32:03.000Z</time>
      </trkpt>
      <trkpt lat="44.06797" lon="6.86228">
        <ele>903.59997558594</ele>
        <time>2019-08-03T14:32:04.000Z</time>
      </trkpt>
      <trkpt lat="44.06796" lon="6.86217">
        <ele>902.59997558594</ele>
        <time>2019-08-03T14:32:07.000Z</time>
      </trkpt>
      <trkpt lat="44.06797" lon="6.86213">
        <ele>901.59997558594</ele>
        <time>2019-08-03T14:32:08.000Z</time>
      </trkpt>
      <trkpt lat="44.06802" lon="6.86207">
        <ele>900.79998779297</ele>
        <time>2019-08-03T14:32:10.000Z</time>
      </trkpt>
      <trkpt lat="44.06806" lon="6.86203">
        <ele>900.20001220703</ele>
        <time>2019-08-03T14:32:11.000Z</time>
      </trkpt>
      <trkpt lat="44.06817" lon="6.86193">
        <ele>899</ele>
        <time>2019-08-03T14:32:14.000Z</time>
      </trkpt>
      <trkpt lat="44.06831" lon="6.86186">
        <ele>898.20001220703</ele>
        <time>2019-08-03T14:32:18.000Z</time>
      </trkpt>
      <trkpt lat="44.06834" lon="6.8618">
        <ele>898.20001220703</ele>
        <time>2019-08-03T14:32:20.000Z</time>
      </trkpt>
      <trkpt lat="44.06835" lon="6.86178">
        <ele>898</ele>
        <time>2019-08-03T14:32:21.000Z</time>
      </trkpt>
      <trkpt lat="44.06836" lon="6.86175">
        <ele>898</ele>
        <time>2019-08-03T14:32:22.000Z</time>
      </trkpt>
      <trkpt lat="44.06839" lon="6.86159">
        <ele>897.59997558594</ele>
        <time>2019-08-03T14:32:25.000Z</time>
      </trkpt>
      <trkpt lat="44.06842" lon="6.86147">
        <ele>897</ele>
        <time>2019-08-03T14:32:27.000Z</time>
      </trkpt>
      <trkpt lat="44.06848" lon="6.86138">
        <ele>896.59997558594</ele>
        <time>2019-08-03T14:32:29.000Z</time>
      </trkpt>
      <trkpt lat="44.06852" lon="6.86134">
        <ele>896</ele>
        <time>2019-08-03T14:32:30.000Z</time>
      </trkpt>
      <trkpt lat="44.06855" lon="6.8613">
        <ele>896</ele>
        <time>2019-08-03T14:32:31.000Z</time>
      </trkpt>
      <trkpt lat="44.06859" lon="6.86127">
        <ele>895.59997558594</ele>
        <time>2019-08-03T14:32:32.000Z</time>
      </trkpt>
      <trkpt lat="44.06868" lon="6.86122">
        <ele>894.79998779297</ele>
        <time>2019-08-03T14:32:34.000Z</time>
      </trkpt>
      <trkpt lat="44.06881" lon="6.86121">
        <ele>893.79998779297</ele>
        <time>2019-08-03T14:32:37.000Z</time>
      </trkpt>
      <trkpt lat="44.06891" lon="6.86123">
        <ele>893.40002441406</ele>
        <time>2019-08-03T14:32:39.000Z</time>
      </trkpt>
      <trkpt lat="44.06908" lon="6.86127">
        <ele>893.20001220703</ele>
        <time>2019-08-03T14:32:43.000Z</time>
      </trkpt>
      <trkpt lat="44.06916" lon="6.86126">
        <ele>893.40002441406</ele>
        <time>2019-08-03T14:32:45.000Z</time>
      </trkpt>
      <trkpt lat="44.06932" lon="6.86123">
        <ele>892.79998779297</ele>
        <time>2019-08-03T14:32:49.000Z</time>
      </trkpt>
      <trkpt lat="44.06935" lon="6.86125">
        <ele>892.40002441406</ele>
        <time>2019-08-03T14:32:50.000Z</time>
      </trkpt>
      <trkpt lat="44.0694" lon="6.86131">
        <ele>892.20001220703</ele>
        <time>2019-08-03T14:32:52.000Z</time>
      </trkpt>
      <trkpt lat="44.06946" lon="6.86134">
        <ele>891.59997558594</ele>
        <time>2019-08-03T14:32:54.000Z</time>
      </trkpt>
      <trkpt lat="44.06949" lon="6.86135">
        <ele>891.59997558594</ele>
        <time>2019-08-03T14:32:55.000Z</time>
      </trkpt>
      <trkpt lat="44.06957" lon="6.8614">
        <ele>891.40002441406</ele>
        <time>2019-08-03T14:32:59.000Z</time>
      </trkpt>
      <trkpt lat="44.06967" lon="6.86143">
        <ele>891.20001220703</ele>
        <time>2019-08-03T14:33:04.000Z</time>
      </trkpt>
      <trkpt lat="44.06979" lon="6.86139">
        <ele>890.59997558594</ele>
        <time>2019-08-03T14:33:10.000Z</time>
      </trkpt>
      <trkpt lat="44.0698" lon="6.86135">
        <ele>890.59997558594</ele>
        <time>2019-08-03T14:33:11.000Z</time>
      </trkpt>
      <trkpt lat="44.06983" lon="6.86121">
        <ele>890.59997558594</ele>
        <time>2019-08-03T14:33:14.000Z</time>
      </trkpt>
      <trkpt lat="44.06983" lon="6.86117">
        <ele>890.59997558594</ele>
        <time>2019-08-03T14:33:15.000Z</time>
      </trkpt>
      <trkpt lat="44.06981" lon="6.86109">
        <ele>890.20001220703</ele>
        <time>2019-08-03T14:33:17.000Z</time>
      </trkpt>
      <trkpt lat="44.06983" lon="6.86095">
        <ele>889.40002441406</ele>
        <time>2019-08-03T14:33:20.000Z</time>
      </trkpt>
      <trkpt lat="44.06989" lon="6.86086">
        <ele>888.79998779297</ele>
        <time>2019-08-03T14:33:22.000Z</time>
      </trkpt>
      <trkpt lat="44.06993" lon="6.86083">
        <ele>888</ele>
        <time>2019-08-03T14:33:23.000Z</time>
      </trkpt>
      <trkpt lat="44.06996" lon="6.8608">
        <ele>887.59997558594</ele>
        <time>2019-08-03T14:33:24.000Z</time>
      </trkpt>
      <trkpt lat="44.07001" lon="6.86076">
        <ele>887</ele>
        <time>2019-08-03T14:33:26.000Z</time>
      </trkpt>
      <trkpt lat="44.07009" lon="6.86066">
        <ele>887</ele>
        <time>2019-08-03T14:33:29.000Z</time>
      </trkpt>
      <trkpt lat="44.0701" lon="6.8606">
        <ele>887</ele>
        <time>2019-08-03T14:33:30.000Z</time>
      </trkpt>
      <trkpt lat="44.07012" lon="6.86041">
        <ele>886.59997558594</ele>
        <time>2019-08-03T14:33:33.000Z</time>
      </trkpt>
      <trkpt lat="44.07013" lon="6.86035">
        <ele>886.20001220703</ele>
        <time>2019-08-03T14:33:34.000Z</time>
      </trkpt>
      <trkpt lat="44.07015" lon="6.86031">
        <ele>885.20001220703</ele>
        <time>2019-08-03T14:33:35.000Z</time>
      </trkpt>
      <trkpt lat="44.07021" lon="6.86026">
        <ele>883.79998779297</ele>
        <time>2019-08-03T14:33:37.000Z</time>
      </trkpt>
      <trkpt lat="44.07025" lon="6.86024">
        <ele>882.59997558594</ele>
        <time>2019-08-03T14:33:38.000Z</time>
      </trkpt>
      <trkpt lat="44.0704" lon="6.86015">
        <ele>881.59997558594</ele>
        <time>2019-08-03T14:33:42.000Z</time>
      </trkpt>
      <trkpt lat="44.07046" lon="6.8601">
        <ele>881.59997558594</ele>
        <time>2019-08-03T14:33:44.000Z</time>
      </trkpt>
      <trkpt lat="44.07065" lon="6.85982">
        <ele>881.40002441406</ele>
        <time>2019-08-03T14:33:50.000Z</time>
      </trkpt>
      <trkpt lat="44.07075" lon="6.85965">
        <ele>880.40002441406</ele>
        <time>2019-08-03T14:33:53.000Z</time>
      </trkpt>
      <trkpt lat="44.07082" lon="6.85954">
        <ele>878.59997558594</ele>
        <time>2019-08-03T14:33:55.000Z</time>
      </trkpt>
      <trkpt lat="44.07085" lon="6.85949">
        <ele>877.40002441406</ele>
        <time>2019-08-03T14:33:56.000Z</time>
      </trkpt>
      <trkpt lat="44.07092" lon="6.85939">
        <ele>876.59997558594</ele>
        <time>2019-08-03T14:33:58.000Z</time>
      </trkpt>
      <trkpt lat="44.07102" lon="6.85927">
        <ele>878</ele>
        <time>2019-08-03T14:34:02.000Z</time>
      </trkpt>
      <trkpt lat="44.07104" lon="6.85926">
        <ele>878.59997558594</ele>
        <time>2019-08-03T14:34:03.000Z</time>
      </trkpt>
      <trkpt lat="44.07111" lon="6.85921">
        <ele>879.79998779297</ele>
        <time>2019-08-03T14:34:06.000Z</time>
      </trkpt>
      <trkpt lat="44.07122" lon="6.8591">
        <ele>880.20001220703</ele>
        <time>2019-08-03T14:34:09.000Z</time>
      </trkpt>
      <trkpt lat="44.0713" lon="6.85911">
        <ele>880.20001220703</ele>
        <time>2019-08-03T14:34:11.000Z</time>
      </trkpt>
      <trkpt lat="44.07145" lon="6.85923">
        <ele>879.20001220703</ele>
        <time>2019-08-03T14:34:16.000Z</time>
      </trkpt>
      <trkpt lat="44.07153" lon="6.8593">
        <ele>880</ele>
        <time>2019-08-03T14:34:19.000Z</time>
      </trkpt>
      <trkpt lat="44.07156" lon="6.85931">
        <ele>879.79998779297</ele>
        <time>2019-08-03T14:34:20.000Z</time>
      </trkpt>
      <trkpt lat="44.07167" lon="6.85929">
        <ele>879.40002441406</ele>
        <time>2019-08-03T14:34:23.000Z</time>
      </trkpt>
      <trkpt lat="44.07172" lon="6.85925">
        <ele>878.79998779297</ele>
        <time>2019-08-03T14:34:25.000Z</time>
      </trkpt>
      <trkpt lat="44.07174" lon="6.85922">
        <ele>878.20001220703</ele>
        <time>2019-08-03T14:34:26.000Z</time>
      </trkpt>
      <trkpt lat="44.07179" lon="6.8592">
        <ele>877</ele>
        <time>2019-08-03T14:34:28.000Z</time>
      </trkpt>
      <trkpt lat="44.07181" lon="6.8592">
        <ele>876.59997558594</ele>
        <time>2019-08-03T14:34:29.000Z</time>
      </trkpt>
      <trkpt lat="44.07186" lon="6.85922">
        <ele>875.79998779297</ele>
        <time>2019-08-03T14:34:31.000Z</time>
      </trkpt>
      <trkpt lat="44.07194" lon="6.85922">
        <ele>875.20001220703</ele>
        <time>2019-08-03T14:34:34.000Z</time>
      </trkpt>
      <trkpt lat="44.072" lon="6.85919">
        <ele>874.40002441406</ele>
        <time>2019-08-03T14:34:36.000Z</time>
      </trkpt>
      <trkpt lat="44.07207" lon="6.85915">
        <ele>872.79998779297</ele>
        <time>2019-08-03T14:34:38.000Z</time>
      </trkpt>
      <trkpt lat="44.07219" lon="6.85916">
        <ele>871.20001220703</ele>
        <time>2019-08-03T14:34:41.000Z</time>
      </trkpt>
      <trkpt lat="44.07222" lon="6.85917">
        <ele>871</ele>
        <time>2019-08-03T14:34:42.000Z</time>
      </trkpt>
      <trkpt lat="44.07233" lon="6.85922">
        <ele>870.20001220703</ele>
        <time>2019-08-03T14:34:45.000Z</time>
      </trkpt>
      <trkpt lat="44.07245" lon="6.85927">
        <ele>869.40002441406</ele>
        <time>2019-08-03T14:34:48.000Z</time>
      </trkpt>
      <trkpt lat="44.07249" lon="6.85929">
        <ele>869.20001220703</ele>
        <time>2019-08-03T14:34:49.000Z</time>
      </trkpt>
      <trkpt lat="44.07261" lon="6.85936">
        <ele>868.20001220703</ele>
        <time>2019-08-03T14:34:52.000Z</time>
      </trkpt>
      <trkpt lat="44.07265" lon="6.85936">
        <ele>867.59997558594</ele>
        <time>2019-08-03T14:34:53.000Z</time>
      </trkpt>
      <trkpt lat="44.07269" lon="6.85938">
        <ele>867.20001220703</ele>
        <time>2019-08-03T14:34:54.000Z</time>
      </trkpt>
      <trkpt lat="44.07277" lon="6.85944">
        <ele>866</ele>
        <time>2019-08-03T14:34:56.000Z</time>
      </trkpt>
      <trkpt lat="44.07281" lon="6.85946">
        <ele>865.40002441406</ele>
        <time>2019-08-03T14:34:57.000Z</time>
      </trkpt>
      <trkpt lat="44.07285" lon="6.85949">
        <ele>865.20001220703</ele>
        <time>2019-08-03T14:34:58.000Z</time>
      </trkpt>
      <trkpt lat="44.0729" lon="6.8595">
        <ele>864.59997558594</ele>
        <time>2019-08-03T14:34:59.000Z</time>
      </trkpt>
      <trkpt lat="44.073" lon="6.85947">
        <ele>863.59997558594</ele>
        <time>2019-08-03T14:35:01.000Z</time>
      </trkpt>
      <trkpt lat="44.07318" lon="6.85947">
        <ele>862.20001220703</ele>
        <time>2019-08-03T14:35:04.000Z</time>
      </trkpt>
      <trkpt lat="44.07324" lon="6.85948">
        <ele>862.20001220703</ele>
        <time>2019-08-03T14:35:05.000Z</time>
      </trkpt>
      <trkpt lat="44.07333" lon="6.85952">
        <ele>861.40002441406</ele>
        <time>2019-08-03T14:35:07.000Z</time>
      </trkpt>
      <trkpt lat="44.07337" lon="6.85954">
        <ele>861.20001220703</ele>
        <time>2019-08-03T14:35:08.000Z</time>
      </trkpt>
      <trkpt lat="44.0734" lon="6.85957">
        <ele>861.20001220703</ele>
        <time>2019-08-03T14:35:09.000Z</time>
      </trkpt>
      <trkpt lat="44.07353" lon="6.85964">
        <ele>861</ele>
        <time>2019-08-03T14:35:13.000Z</time>
      </trkpt>
      <trkpt lat="44.07358" lon="6.85967">
        <ele>860.79998779297</ele>
        <time>2019-08-03T14:35:14.000Z</time>
      </trkpt>
      <trkpt lat="44.07372" lon="6.85974">
        <ele>860.59997558594</ele>
        <time>2019-08-03T14:35:17.000Z</time>
      </trkpt>
      <trkpt lat="44.07376" lon="6.85977">
        <ele>860.40002441406</ele>
        <time>2019-08-03T14:35:18.000Z</time>
      </trkpt>
      <trkpt lat="44.07381" lon="6.85982">
        <ele>860</ele>
        <time>2019-08-03T14:35:20.000Z</time>
      </trkpt>
      <trkpt lat="44.07383" lon="6.85978">
        <ele>859.20001220703</ele>
        <time>2019-08-03T14:35:22.000Z</time>
      </trkpt>
      <trkpt lat="44.0738" lon="6.85974">
        <ele>858.79998779297</ele>
        <time>2019-08-03T14:35:23.000Z</time>
      </trkpt>
      <trkpt lat="44.07373" lon="6.85969">
        <ele>857.79998779297</ele>
        <time>2019-08-03T14:35:25.000Z</time>
      </trkpt>
      <trkpt lat="44.07369" lon="6.85965">
        <ele>856.59997558594</ele>
        <time>2019-08-03T14:35:26.000Z</time>
      </trkpt>
      <trkpt lat="44.07361" lon="6.85957">
        <ele>855.79998779297</ele>
        <time>2019-08-03T14:35:28.000Z</time>
      </trkpt>
      <trkpt lat="44.07357" lon="6.85952">
        <ele>855.20001220703</ele>
        <time>2019-08-03T14:35:29.000Z</time>
      </trkpt>
      <trkpt lat="44.07349" lon="6.85934">
        <ele>854.40002441406</ele>
        <time>2019-08-03T14:35:32.000Z</time>
      </trkpt>
      <trkpt lat="44.07341" lon="6.85924">
        <ele>853.79998779297</ele>
        <time>2019-08-03T14:35:34.000Z</time>
      </trkpt>
      <trkpt lat="44.07337" lon="6.85921">
        <ele>853.59997558594</ele>
        <time>2019-08-03T14:35:35.000Z</time>
      </trkpt>
      <trkpt lat="44.07333" lon="6.85915">
        <ele>852.59997558594</ele>
        <time>2019-08-03T14:35:38.000Z</time>
      </trkpt>
      <trkpt lat="44.07333" lon="6.85913">
        <ele>852.40002441406</ele>
        <time>2019-08-03T14:35:39.000Z</time>
      </trkpt>
      <trkpt lat="44.07332" lon="6.85911">
        <ele>852</ele>
        <time>2019-08-03T14:35:40.000Z</time>
      </trkpt>
      <trkpt lat="44.07329" lon="6.85906">
        <ele>851.40002441406</ele>
        <time>2019-08-03T14:35:42.000Z</time>
      </trkpt>
      <trkpt lat="44.07327" lon="6.85902">
        <ele>850.79998779297</ele>
        <time>2019-08-03T14:35:43.000Z</time>
      </trkpt>
      <trkpt lat="44.07326" lon="6.85898">
        <ele>850.20001220703</ele>
        <time>2019-08-03T14:35:44.000Z</time>
      </trkpt>
      <trkpt lat="44.07322" lon="6.85893">
        <ele>849</ele>
        <time>2019-08-03T14:35:46.000Z</time>
      </trkpt>
      <trkpt lat="44.0732" lon="6.85892">
        <ele>848.20001220703</ele>
        <time>2019-08-03T14:35:47.000Z</time>
      </trkpt>
      <trkpt lat="44.07318" lon="6.8589">
        <ele>847.79998779297</ele>
        <time>2019-08-03T14:35:48.000Z</time>
      </trkpt>
      <trkpt lat="44.07315" lon="6.85886">
        <ele>846.59997558594</ele>
        <time>2019-08-03T14:35:50.000Z</time>
      </trkpt>
      <trkpt lat="44.07313" lon="6.85883">
        <ele>845.40002441406</ele>
        <time>2019-08-03T14:35:52.000Z</time>
      </trkpt>
      <trkpt lat="44.07313" lon="6.85881">
        <ele>844.59997558594</ele>
        <time>2019-08-03T14:35:53.000Z</time>
      </trkpt>
      <trkpt lat="44.07312" lon="6.85879">
        <ele>844</ele>
        <time>2019-08-03T14:35:54.000Z</time>
      </trkpt>
      <trkpt lat="44.07311" lon="6.85872">
        <ele>842.40002441406</ele>
        <time>2019-08-03T14:35:57.000Z</time>
      </trkpt>
      <trkpt lat="44.0731" lon="6.8587">
        <ele>840.59997558594</ele>
        <time>2019-08-03T14:35:59.000Z</time>
      </trkpt>
      <trkpt lat="44.0731" lon="6.8587">
        <ele>839.40002441406</ele>
        <time>2019-08-03T14:36:00.000Z</time>
      </trkpt>
      <trkpt lat="44.0731" lon="6.85869">
        <ele>838</ele>
        <time>2019-08-03T14:36:02.000Z</time>
      </trkpt>
      <trkpt lat="44.0731" lon="6.85869">
        <ele>837</ele>
        <time>2019-08-03T14:36:04.000Z</time>
      </trkpt>
      <trkpt lat="44.07311" lon="6.85868">
        <ele>837.59997558594</ele>
        <time>2019-08-03T14:36:08.000Z</time>
      </trkpt>
      <trkpt lat="44.07312" lon="6.85863">
        <ele>837.59997558594</ele>
        <time>2019-08-03T14:36:15.000Z</time>
      </trkpt>
      <trkpt lat="44.07315" lon="6.85862">
        <ele>835.79998779297</ele>
        <time>2019-08-03T14:36:19.000Z</time>
      </trkpt>
      <trkpt lat="44.07315" lon="6.85862">
        <ele>835.40002441406</ele>
        <time>2019-08-03T14:36:20.000Z</time>
      </trkpt>
      <trkpt lat="44.07319" lon="6.8586">
        <ele>834.79998779297</ele>
        <time>2019-08-03T14:36:25.000Z</time>
      </trkpt>
      <trkpt lat="44.0732" lon="6.8586">
        <ele>834.59997558594</ele>
        <time>2019-08-03T14:36:27.000Z</time>
      </trkpt>
      <trkpt lat="44.07321" lon="6.8586">
        <ele>833.79998779297</ele>
        <time>2019-08-03T14:36:30.000Z</time>
      </trkpt>
      <trkpt lat="44.07321" lon="6.85858">
        <ele>832.79998779297</ele>
        <time>2019-08-03T14:36:34.000Z</time>
      </trkpt>
      <trkpt lat="44.0732" lon="6.85853">
        <ele>831.59997558594</ele>
        <time>2019-08-03T14:36:38.000Z</time>
      </trkpt>
      <trkpt lat="44.07321" lon="6.85852">
        <ele>830.79998779297</ele>
        <time>2019-08-03T14:36:40.000Z</time>
      </trkpt>
      <trkpt lat="44.07321" lon="6.85852">
        <ele>830.59997558594</ele>
        <time>2019-08-03T14:36:41.000Z</time>
      </trkpt>
      <trkpt lat="44.07324" lon="6.8585">
        <ele>830</ele>
        <time>2019-08-03T14:36:46.000Z</time>
      </trkpt>
      <trkpt lat="44.07326" lon="6.85848">
        <ele>829.20001220703</ele>
        <time>2019-08-03T14:36:49.000Z</time>
      </trkpt>
      <trkpt lat="44.07327" lon="6.85847">
        <ele>828.59997558594</ele>
        <time>2019-08-03T14:36:50.000Z</time>
      </trkpt>
      <trkpt lat="44.07328" lon="6.85847">
        <ele>828</ele>
        <time>2019-08-03T14:36:51.000Z</time>
      </trkpt>
      <trkpt lat="44.07328" lon="6.85848">
        <ele>828</ele>
        <time>2019-08-03T14:36:52.000Z</time>
      </trkpt>
      <trkpt lat="44.07329" lon="6.85849">
        <ele>827</ele>
        <time>2019-08-03T14:36:58.000Z</time>
      </trkpt>
      <trkpt lat="44.07329" lon="6.85849">
        <ele>827</ele>
        <time>2019-08-03T14:36:59.000Z</time>
      </trkpt>
      <trkpt lat="44.07334" lon="6.85851">
        <ele>825.79998779297</ele>
        <time>2019-08-03T14:37:05.000Z</time>
      </trkpt>
      <trkpt lat="44.07335" lon="6.85852">
        <ele>825.59997558594</ele>
        <time>2019-08-03T14:37:06.000Z</time>
      </trkpt>
      <trkpt lat="44.07339" lon="6.85854">
        <ele>824.59997558594</ele>
        <time>2019-08-03T14:37:09.000Z</time>
      </trkpt>
      <trkpt lat="44.0734" lon="6.85854">
        <ele>824</ele>
        <time>2019-08-03T14:37:10.000Z</time>
      </trkpt>
      <trkpt lat="44.07341" lon="6.85855">
        <ele>823.59997558594</ele>
        <time>2019-08-03T14:37:11.000Z</time>
      </trkpt>
      <trkpt lat="44.07344" lon="6.85855">
        <ele>822.20001220703</ele>
        <time>2019-08-03T14:37:13.000Z</time>
      </trkpt>
      <trkpt lat="44.07346" lon="6.85856">
        <ele>821.59997558594</ele>
        <time>2019-08-03T14:37:14.000Z</time>
      </trkpt>
      <trkpt lat="44.07347" lon="6.85856">
        <ele>821</ele>
        <time>2019-08-03T14:37:15.000Z</time>
      </trkpt>
      <trkpt lat="44.07349" lon="6.85857">
        <ele>820</ele>
        <time>2019-08-03T14:37:18.000Z</time>
      </trkpt>
      <trkpt lat="44.07349" lon="6.85857">
        <ele>819.59997558594</ele>
        <time>2019-08-03T14:37:19.000Z</time>
      </trkpt>
      <trkpt lat="44.0735" lon="6.85857">
        <ele>819.20001220703</ele>
        <time>2019-08-03T14:37:20.000Z</time>
      </trkpt>
      <trkpt lat="44.07351" lon="6.85857">
        <ele>819</ele>
        <time>2019-08-03T14:37:21.000Z</time>
      </trkpt>
      <trkpt lat="44.07354" lon="6.85854">
        <ele>817.59997558594</ele>
        <time>2019-08-03T14:37:24.000Z</time>
      </trkpt>
      <trkpt lat="44.07354" lon="6.85853">
        <ele>817.20001220703</ele>
        <time>2019-08-03T14:37:25.000Z</time>
      </trkpt>
      <trkpt lat="44.07357" lon="6.85849">
        <ele>816.40002441406</ele>
        <time>2019-08-03T14:37:28.000Z</time>
      </trkpt>
      <trkpt lat="44.07359" lon="6.85848">
        <ele>815.59997558594</ele>
        <time>2019-08-03T14:37:30.000Z</time>
      </trkpt>
      <trkpt lat="44.0736" lon="6.85849">
        <ele>815.20001220703</ele>
        <time>2019-08-03T14:37:31.000Z</time>
      </trkpt>
      <trkpt lat="44.07365" lon="6.85848">
        <ele>814.20001220703</ele>
        <time>2019-08-03T14:37:34.000Z</time>
      </trkpt>
      <trkpt lat="44.07367" lon="6.85848">
        <ele>813.79998779297</ele>
        <time>2019-08-03T14:37:35.000Z</time>
      </trkpt>
      <trkpt lat="44.07372" lon="6.85848">
        <ele>812.79998779297</ele>
        <time>2019-08-03T14:37:37.000Z</time>
      </trkpt>
      <trkpt lat="44.07378" lon="6.85851">
        <ele>811.40002441406</ele>
        <time>2019-08-03T14:37:39.000Z</time>
      </trkpt>
      <trkpt lat="44.07386" lon="6.8586">
        <ele>810.40002441406</ele>
        <time>2019-08-03T14:37:42.000Z</time>
      </trkpt>
      <trkpt lat="44.0739" lon="6.85864">
        <ele>810.20001220703</ele>
        <time>2019-08-03T14:37:43.000Z</time>
      </trkpt>
      <trkpt lat="44.07403" lon="6.8587">
        <ele>808.79998779297</ele>
        <time>2019-08-03T14:37:46.000Z</time>
      </trkpt>
      <trkpt lat="44.07406" lon="6.85869">
        <ele>808.20001220703</ele>
        <time>2019-08-03T14:37:47.000Z</time>
      </trkpt>
      <trkpt lat="44.07415" lon="6.85869">
        <ele>807.59997558594</ele>
        <time>2019-08-03T14:37:49.000Z</time>
      </trkpt>
      <trkpt lat="44.07417" lon="6.85873">
        <ele>807.40002441406</ele>
        <time>2019-08-03T14:37:50.000Z</time>
      </trkpt>
      <trkpt lat="44.07429" lon="6.85886">
        <ele>806.40002441406</ele>
        <time>2019-08-03T14:37:54.000Z</time>
      </trkpt>
      <trkpt lat="44.07437" lon="6.85876">
        <ele>805.20001220703</ele>
        <time>2019-08-03T14:37:57.000Z</time>
      </trkpt>
      <trkpt lat="44.07443" lon="6.8587">
        <ele>804.40002441406</ele>
        <time>2019-08-03T14:37:59.000Z</time>
      </trkpt>
      <trkpt lat="44.07446" lon="6.85871">
        <ele>804.20001220703</ele>
        <time>2019-08-03T14:38:00.000Z</time>
      </trkpt>
      <trkpt lat="44.07454" lon="6.85884">
        <ele>802.59997558594</ele>
        <time>2019-08-03T14:38:03.000Z</time>
      </trkpt>
      <trkpt lat="44.07461" lon="6.85882">
        <ele>802</ele>
        <time>2019-08-03T14:38:05.000Z</time>
      </trkpt>
      <trkpt lat="44.07468" lon="6.85874">
        <ele>801.40002441406</ele>
        <time>2019-08-03T14:38:07.000Z</time>
      </trkpt>
      <trkpt lat="44.07472" lon="6.85873">
        <ele>800.79998779297</ele>
        <time>2019-08-03T14:38:08.000Z</time>
      </trkpt>
      <trkpt lat="44.07477" lon="6.85874">
        <ele>800.40002441406</ele>
        <time>2019-08-03T14:38:09.000Z</time>
      </trkpt>
      <trkpt lat="44.07488" lon="6.85875">
        <ele>799.20001220703</ele>
        <time>2019-08-03T14:38:11.000Z</time>
      </trkpt>
      <trkpt lat="44.07493" lon="6.85875">
        <ele>798.79998779297</ele>
        <time>2019-08-03T14:38:12.000Z</time>
      </trkpt>
      <trkpt lat="44.07499" lon="6.85874">
        <ele>798.20001220703</ele>
        <time>2019-08-03T14:38:13.000Z</time>
      </trkpt>
      <trkpt lat="44.07506" lon="6.85874">
        <ele>797.79998779297</ele>
        <time>2019-08-03T14:38:14.000Z</time>
      </trkpt>
      <trkpt lat="44.07518" lon="6.85873">
        <ele>797</ele>
        <time>2019-08-03T14:38:16.000Z</time>
      </trkpt>
      <trkpt lat="44.07524" lon="6.85871">
        <ele>796.59997558594</ele>
        <time>2019-08-03T14:38:17.000Z</time>
      </trkpt>
      <trkpt lat="44.07533" lon="6.85863">
        <ele>795.79998779297</ele>
        <time>2019-08-03T14:38:19.000Z</time>
      </trkpt>
      <trkpt lat="44.07538" lon="6.85859">
        <ele>795.59997558594</ele>
        <time>2019-08-03T14:38:20.000Z</time>
      </trkpt>
      <trkpt lat="44.07545" lon="6.85851">
        <ele>794.59997558594</ele>
        <time>2019-08-03T14:38:22.000Z</time>
      </trkpt>
      <trkpt lat="44.07555" lon="6.85838">
        <ele>794.59997558594</ele>
        <time>2019-08-03T14:38:26.000Z</time>
      </trkpt>
      <trkpt lat="44.07556" lon="6.85837">
        <ele>795.20001220703</ele>
        <time>2019-08-03T14:38:30.000Z</time>
      </trkpt>
      <trkpt lat="44.07555" lon="6.85837">
        <ele>795.59997558594</ele>
        <time>2019-08-03T14:38:34.000Z</time>
      </trkpt>
      <trkpt lat="44.07555" lon="6.85836">
        <ele>795.79998779297</ele>
        <time>2019-08-03T14:38:39.000Z</time>
      </trkpt>
      <trkpt lat="44.07555" lon="6.85836">
        <ele>795.59997558594</ele>
        <time>2019-08-03T14:38:46.000Z</time>
      </trkpt>
      <trkpt lat="44.07555" lon="6.85835">
        <ele>795.59997558594</ele>
        <time>2019-08-03T14:38:52.000Z</time>
      </trkpt>
      <trkpt lat="44.07554" lon="6.85833">
        <ele>795.79998779297</ele>
        <time>2019-08-03T14:39:06.000Z</time>
      </trkpt>
      <trkpt lat="44.07555" lon="6.85834">
        <ele>795.59997558594</ele>
        <time>2019-08-03T14:39:14.000Z</time>
      </trkpt>
      <trkpt lat="44.07555" lon="6.85835">
        <ele>795.79998779297</ele>
        <time>2019-08-03T14:39:22.000Z</time>
      </trkpt>
      <trkpt lat="44.07554" lon="6.85834">
        <ele>795.79998779297</ele>
        <time>2019-08-03T14:39:39.000Z</time>
      </trkpt>
      <trkpt lat="44.07553" lon="6.85833">
        <ele>796.20001220703</ele>
        <time>2019-08-03T14:39:52.000Z</time>
      </trkpt>
      <trkpt lat="44.07554" lon="6.85833">
        <ele>795.79998779297</ele>
        <time>2019-08-03T14:39:59.000Z</time>
      </trkpt>
      <trkpt lat="44.07558" lon="6.85832">
        <ele>795.20001220703</ele>
        <time>2019-08-03T14:40:05.000Z</time>
      </trkpt>
      <trkpt lat="44.07568" lon="6.85822">
        <ele>795.79998779297</ele>
        <time>2019-08-03T14:40:11.000Z</time>
      </trkpt>
      <trkpt lat="44.07584" lon="6.85812">
        <ele>796.40002441406</ele>
        <time>2019-08-03T14:40:17.000Z</time>
      </trkpt>
      <trkpt lat="44.07611" lon="6.85804">
        <ele>795.59997558594</ele>
        <time>2019-08-03T14:40:23.000Z</time>
      </trkpt>
      <trkpt lat="44.07648" lon="6.85791">
        <ele>794.40002441406</ele>
        <time>2019-08-03T14:40:29.000Z</time>
      </trkpt>
      <trkpt lat="44.07684" lon="6.85777">
        <ele>793</ele>
        <time>2019-08-03T14:40:34.000Z</time>
      </trkpt>
      <trkpt lat="44.077" lon="6.85772">
        <ele>792.40002441406</ele>
        <time>2019-08-03T14:40:36.000Z</time>
      </trkpt>
      <trkpt lat="44.07716" lon="6.85765">
        <ele>792</ele>
        <time>2019-08-03T14:40:38.000Z</time>
      </trkpt>
      <trkpt lat="44.07748" lon="6.85753">
        <ele>790.79998779297</ele>
        <time>2019-08-03T14:40:42.000Z</time>
      </trkpt>
      <trkpt lat="44.07756" lon="6.8575">
        <ele>790.40002441406</ele>
        <time>2019-08-03T14:40:43.000Z</time>
      </trkpt>
      <trkpt lat="44.07771" lon="6.85745">
        <ele>789.79998779297</ele>
        <time>2019-08-03T14:40:45.000Z</time>
      </trkpt>
      <trkpt lat="44.07813" lon="6.85729">
        <ele>789.20001220703</ele>
        <time>2019-08-03T14:40:51.000Z</time>
      </trkpt>
      <trkpt lat="44.07858" lon="6.85713">
        <ele>790.79998779297</ele>
        <time>2019-08-03T14:40:58.000Z</time>
      </trkpt>
      <trkpt lat="44.07876" lon="6.85706">
        <ele>791.20001220703</ele>
        <time>2019-08-03T14:41:01.000Z</time>
      </trkpt>
      <trkpt lat="44.079" lon="6.85696">
        <ele>791.79998779297</ele>
        <time>2019-08-03T14:41:05.000Z</time>
      </trkpt>
      <trkpt lat="44.07921" lon="6.85688">
        <ele>792.20001220703</ele>
        <time>2019-08-03T14:41:09.000Z</time>
      </trkpt>
      <trkpt lat="44.07962" lon="6.85673">
        <ele>793</ele>
        <time>2019-08-03T14:41:17.000Z</time>
      </trkpt>
      <trkpt lat="44.07977" lon="6.85667">
        <ele>793.40002441406</ele>
        <time>2019-08-03T14:41:20.000Z</time>
      </trkpt>
      <trkpt lat="44.08021" lon="6.8565">
        <ele>794.20001220703</ele>
        <time>2019-08-03T14:41:29.000Z</time>
      </trkpt>
      <trkpt lat="44.08031" lon="6.85646">
        <ele>794.40002441406</ele>
        <time>2019-08-03T14:41:31.000Z</time>
      </trkpt>
      <trkpt lat="44.08066" lon="6.85633">
        <ele>795.20001220703</ele>
        <time>2019-08-03T14:41:38.000Z</time>
      </trkpt>
      <trkpt lat="44.08091" lon="6.85623">
        <ele>795.79998779297</ele>
        <time>2019-08-03T14:41:43.000Z</time>
      </trkpt>
      <trkpt lat="44.08117" lon="6.85613">
        <ele>796.20001220703</ele>
        <time>2019-08-03T14:41:48.000Z</time>
      </trkpt>
      <trkpt lat="44.08136" lon="6.85606">
        <ele>796.79998779297</ele>
        <time>2019-08-03T14:41:52.000Z</time>
      </trkpt>
      <trkpt lat="44.08151" lon="6.856">
        <ele>797.40002441406</ele>
        <time>2019-08-03T14:41:55.000Z</time>
      </trkpt>
      <trkpt lat="44.08203" lon="6.85581">
        <ele>798.20001220703</ele>
        <time>2019-08-03T14:42:06.000Z</time>
      </trkpt>
      <trkpt lat="44.08207" lon="6.85579">
        <ele>798.20001220703</ele>
        <time>2019-08-03T14:42:07.000Z</time>
      </trkpt>
      <trkpt lat="44.08212" lon="6.85577">
        <ele>798.40002441406</ele>
        <time>2019-08-03T14:42:08.000Z</time>
      </trkpt>
      <trkpt lat="44.08253" lon="6.85562">
        <ele>799.40002441406</ele>
        <time>2019-08-03T14:42:17.000Z</time>
      </trkpt>
      <trkpt lat="44.08258" lon="6.8556">
        <ele>799.40002441406</ele>
        <time>2019-08-03T14:42:18.000Z</time>
      </trkpt>
      <trkpt lat="44.08291" lon="6.85547">
        <ele>800.40002441406</ele>
        <time>2019-08-03T14:42:25.000Z</time>
      </trkpt>
      <trkpt lat="44.08296" lon="6.85545">
        <ele>800.59997558594</ele>
        <time>2019-08-03T14:42:26.000Z</time>
      </trkpt>
      <trkpt lat="44.08332" lon="6.85531">
        <ele>801.59997558594</ele>
        <time>2019-08-03T14:42:34.000Z</time>
      </trkpt>
      <trkpt lat="44.08363" lon="6.85519">
        <ele>802.79998779297</ele>
        <time>2019-08-03T14:42:41.000Z</time>
      </trkpt>
      <trkpt lat="44.08385" lon="6.8551">
        <ele>803.79998779297</ele>
        <time>2019-08-03T14:42:46.000Z</time>
      </trkpt>
      <trkpt lat="44.08389" lon="6.85509">
        <ele>803.79998779297</ele>
        <time>2019-08-03T14:42:47.000Z</time>
      </trkpt>
      <trkpt lat="44.08437" lon="6.8549">
        <ele>804.79998779297</ele>
        <time>2019-08-03T14:42:58.000Z</time>
      </trkpt>
      <trkpt lat="44.0845" lon="6.85485">
        <ele>805.59997558594</ele>
        <time>2019-08-03T14:43:01.000Z</time>
      </trkpt>
      <trkpt lat="44.08459" lon="6.85481">
        <ele>806</ele>
        <time>2019-08-03T14:43:03.000Z</time>
      </trkpt>
      <trkpt lat="44.08495" lon="6.85467">
        <ele>807</ele>
        <time>2019-08-03T14:43:11.000Z</time>
      </trkpt>
      <trkpt lat="44.08517" lon="6.85459">
        <ele>808.20001220703</ele>
        <time>2019-08-03T14:43:16.000Z</time>
      </trkpt>
      <trkpt lat="44.08521" lon="6.85457">
        <ele>808.20001220703</ele>
        <time>2019-08-03T14:43:17.000Z</time>
      </trkpt>
      <trkpt lat="44.08543" lon="6.85449">
        <ele>809.20001220703</ele>
        <time>2019-08-03T14:43:22.000Z</time>
      </trkpt>
      <trkpt lat="44.0856" lon="6.85442">
        <ele>810</ele>
        <time>2019-08-03T14:43:26.000Z</time>
      </trkpt>
      <trkpt lat="44.08568" lon="6.85439">
        <ele>810.20001220703</ele>
        <time>2019-08-03T14:43:28.000Z</time>
      </trkpt>
      <trkpt lat="44.08585" lon="6.85434">
        <ele>811.40002441406</ele>
        <time>2019-08-03T14:43:32.000Z</time>
      </trkpt>
      <trkpt lat="44.08599" lon="6.8543">
        <ele>812.40002441406</ele>
        <time>2019-08-03T14:43:35.000Z</time>
      </trkpt>
      <trkpt lat="44.08604" lon="6.85429">
        <ele>812.59997558594</ele>
        <time>2019-08-03T14:43:36.000Z</time>
      </trkpt>
      <trkpt lat="44.08634" lon="6.85429">
        <ele>813.40002441406</ele>
        <time>2019-08-03T14:43:43.000Z</time>
      </trkpt>
      <trkpt lat="44.08643" lon="6.85429">
        <ele>813.59997558594</ele>
        <time>2019-08-03T14:43:45.000Z</time>
      </trkpt>
      <trkpt lat="44.08683" lon="6.85424">
        <ele>814.20001220703</ele>
        <time>2019-08-03T14:43:55.000Z</time>
      </trkpt>
      <trkpt lat="44.0869" lon="6.85419">
        <ele>814.40002441406</ele>
        <time>2019-08-03T14:43:57.000Z</time>
      </trkpt>
      <trkpt lat="44.08702" lon="6.85404">
        <ele>814.79998779297</ele>
        <time>2019-08-03T14:44:01.000Z</time>
      </trkpt>
      <trkpt lat="44.08725" lon="6.8538">
        <ele>815.59997558594</ele>
        <time>2019-08-03T14:44:08.000Z</time>
      </trkpt>
      <trkpt lat="44.08735" lon="6.85371">
        <ele>816</ele>
        <time>2019-08-03T14:44:11.000Z</time>
      </trkpt>
      <trkpt lat="44.08749" lon="6.85359">
        <ele>816.40002441406</ele>
        <time>2019-08-03T14:44:15.000Z</time>
      </trkpt>
      <trkpt lat="44.08756" lon="6.85356">
        <ele>816.40002441406</ele>
        <time>2019-08-03T14:44:17.000Z</time>
      </trkpt>
      <trkpt lat="44.0876" lon="6.85356">
        <ele>816.59997558594</ele>
        <time>2019-08-03T14:44:18.000Z</time>
      </trkpt>
      <trkpt lat="44.08777" lon="6.85361">
        <ele>816.59997558594</ele>
        <time>2019-08-03T14:44:22.000Z</time>
      </trkpt>
      <trkpt lat="44.08785" lon="6.85363">
        <ele>817</ele>
        <time>2019-08-03T14:44:24.000Z</time>
      </trkpt>
      <trkpt lat="44.08793" lon="6.85367">
        <ele>817.59997558594</ele>
        <time>2019-08-03T14:44:26.000Z</time>
      </trkpt>
      <trkpt lat="44.08796" lon="6.85369">
        <ele>817.79998779297</ele>
        <time>2019-08-03T14:44:27.000Z</time>
      </trkpt>
      <trkpt lat="44.08806" lon="6.85379">
        <ele>818.40002441406</ele>
        <time>2019-08-03T14:44:30.000Z</time>
      </trkpt>
      <trkpt lat="44.08809" lon="6.85382">
        <ele>818.40002441406</ele>
        <time>2019-08-03T14:44:31.000Z</time>
      </trkpt>
      <trkpt lat="44.08821" lon="6.85385">
        <ele>818.59997558594</ele>
        <time>2019-08-03T14:44:34.000Z</time>
      </trkpt>
      <trkpt lat="44.0883" lon="6.85384">
        <ele>818.59997558594</ele>
        <time>2019-08-03T14:44:36.000Z</time>
      </trkpt>
      <trkpt lat="44.08852" lon="6.85379">
        <ele>818.59997558594</ele>
        <time>2019-08-03T14:44:41.000Z</time>
      </trkpt>
      <trkpt lat="44.08856" lon="6.85377">
        <ele>818.59997558594</ele>
        <time>2019-08-03T14:44:42.000Z</time>
      </trkpt>
      <trkpt lat="44.08877" lon="6.85369">
        <ele>818.40002441406</ele>
        <time>2019-08-03T14:44:47.000Z</time>
      </trkpt>
      <trkpt lat="44.08887" lon="6.85366">
        <ele>818.20001220703</ele>
        <time>2019-08-03T14:44:50.000Z</time>
      </trkpt>
      <trkpt lat="44.08888" lon="6.85365">
        <ele>818</ele>
        <time>2019-08-03T14:44:54.000Z</time>
      </trkpt>
      <trkpt lat="44.0889" lon="6.85363">
        <ele>818.40002441406</ele>
        <time>2019-08-03T14:45:00.000Z</time>
      </trkpt>
      <trkpt lat="44.08886" lon="6.85363">
        <ele>818.40002441406</ele>
        <time>2019-08-03T14:45:06.000Z</time>
      </trkpt>
      <trkpt lat="44.08885" lon="6.85365">
        <ele>817.59997558594</ele>
        <time>2019-08-03T14:45:13.000Z</time>
      </trkpt>
      <trkpt lat="44.08884" lon="6.85365">
        <ele>817.59997558594</ele>
        <time>2019-08-03T14:45:19.000Z</time>
      </trkpt>
      <trkpt lat="44.08884" lon="6.85367">
        <ele>818.40002441406</ele>
        <time>2019-08-03T14:45:28.000Z</time>
      </trkpt>
      <trkpt lat="44.08884" lon="6.85368">
        <ele>818.20001220703</ele>
        <time>2019-08-03T14:45:43.000Z</time>
      </trkpt>
      <trkpt lat="44.08883" lon="6.85369">
        <ele>818.59997558594</ele>
        <time>2019-08-03T14:45:49.000Z</time>
      </trkpt>
      <trkpt lat="44.08885" lon="6.85371">
        <ele>818.59997558594</ele>
        <time>2019-08-03T14:45:59.000Z</time>
      </trkpt>
      <trkpt lat="44.08886" lon="6.85372">
        <ele>818.40002441406</ele>
        <time>2019-08-03T14:46:06.000Z</time>
      </trkpt>
      <trkpt lat="44.08885" lon="6.85376">
        <ele>818.59997558594</ele>
        <time>2019-08-03T14:46:15.000Z</time>
      </trkpt>
      <trkpt lat="44.08886" lon="6.85377">
        <ele>819</ele>
        <time>2019-08-03T14:46:20.000Z</time>
      </trkpt>
      <trkpt lat="44.08886" lon="6.85377">
        <ele>819</ele>
        <time>2019-08-03T14:46:22.000Z</time>
      </trkpt>
      <trkpt lat="44.08886" lon="6.85379">
        <ele>819.20001220703</ele>
        <time>2019-08-03T14:46:27.000Z</time>
      </trkpt>
      <trkpt lat="44.08889" lon="6.85375">
        <ele>819.59997558594</ele>
        <time>2019-08-03T14:46:34.000Z</time>
      </trkpt>
      <trkpt lat="44.0889" lon="6.8537">
        <ele>819</ele>
        <time>2019-08-03T14:46:41.000Z</time>
      </trkpt>
      <trkpt lat="44.08891" lon="6.8537">
        <ele>819</ele>
        <time>2019-08-03T14:46:47.000Z</time>
      </trkpt>
      <trkpt lat="44.08891" lon="6.85372">
        <ele>819</ele>
        <time>2019-08-03T14:46:49.000Z</time>
      </trkpt>
      <trkpt lat="44.08883" lon="6.85382">
        <ele>818.40002441406</ele>
        <time>2019-08-03T14:46:54.000Z</time>
      </trkpt>
      <trkpt lat="44.08877" lon="6.85393">
        <ele>818.40002441406</ele>
        <time>2019-08-03T14:46:58.000Z</time>
      </trkpt>
      <trkpt lat="44.08881" lon="6.85406">
        <ele>818.40002441406</ele>
        <time>2019-08-03T14:47:02.000Z</time>
      </trkpt>
      <trkpt lat="44.08883" lon="6.85411">
        <ele>819</ele>
        <time>2019-08-03T14:47:06.000Z</time>
      </trkpt>
      <trkpt lat="44.08883" lon="6.85409">
        <ele>819.79998779297</ele>
        <time>2019-08-03T14:47:15.000Z</time>
      </trkpt>
      <trkpt lat="44.08883" lon="6.85408">
        <ele>819</ele>
        <time>2019-08-03T14:47:26.000Z</time>
      </trkpt>
      <trkpt lat="44.08884" lon="6.85408">
        <ele>819.59997558594</ele>
        <time>2019-08-03T14:47:37.000Z</time>
      </trkpt>
      <trkpt lat="44.08883" lon="6.85408">
        <ele>819.59997558594</ele>
        <time>2019-08-03T14:47:42.000Z</time>
      </trkpt>
      <trkpt lat="44.0892" lon="6.85351">
        <ele>816.79998779297</ele>
        <time>2019-08-03T14:57:56.000Z</time>
      </trkpt>
      <trkpt lat="44.08922" lon="6.85351">
        <ele>817</ele>
        <time>2019-08-03T14:57:58.000Z</time>
      </trkpt>
    </trkseg>
  </trk>
</gpx>